<?xml version="1.0" encoding="UTF-8" standalone="no" ?>
<gpx xmlns="http://www.topografix.com/GPX/1/1" xmlns:xsi="http://www.w3.org/2001/XMLSchema-instance" xsi:schemaLocation="http://www.topografix.com/GPX/1/1 http://www.topografix.com/GPX/1/1/gpx.xsd" version="1.1" creator="VisuGPX - https://www.visugpx.com">
  <metadata>
    <name>Carroyer en velotafant...</name>
  </metadata>
  <trk>
    <name><![CDATA[Carroyer en velotafant...]]></name>
    <trkseg>
      <trkpt lat="46.75611" lon="5.81007">
        <ele>513.6</ele>
        <time>2022-03-09T12:01:06Z</time>
      </trkpt>
      <trkpt lat="46.75611" lon="5.81007">
        <ele>513.6</ele>
        <time>2022-03-09T12:01:07Z</time>
      </trkpt>
      <trkpt lat="46.7561" lon="5.81009">
        <ele>513.6</ele>
        <time>2022-03-09T12:01:08Z</time>
      </trkpt>
      <trkpt lat="46.75609" lon="5.8101">
        <ele>513.6</ele>
        <time>2022-03-09T12:01:09Z</time>
      </trkpt>
      <trkpt lat="46.75607" lon="5.81013">
        <ele>513.6</ele>
        <time>2022-03-09T12:01:10Z</time>
      </trkpt>
      <trkpt lat="46.75607" lon="5.81017">
        <ele>513.2</ele>
        <time>2022-03-09T12:01:11Z</time>
      </trkpt>
      <trkpt lat="46.75608" lon="5.8102">
        <ele>513.2</ele>
        <time>2022-03-09T12:01:12Z</time>
      </trkpt>
      <trkpt lat="46.75609" lon="5.81024">
        <ele>513</ele>
        <time>2022-03-09T12:01:13Z</time>
      </trkpt>
      <trkpt lat="46.75611" lon="5.81029">
        <ele>513</ele>
        <time>2022-03-09T12:01:14Z</time>
      </trkpt>
      <trkpt lat="46.75611" lon="5.81034">
        <ele>513</ele>
        <time>2022-03-09T12:01:15Z</time>
      </trkpt>
      <trkpt lat="46.75611" lon="5.81039">
        <ele>513</ele>
        <time>2022-03-09T12:01:16Z</time>
      </trkpt>
      <trkpt lat="46.7561" lon="5.81044">
        <ele>513</ele>
        <time>2022-03-09T12:01:17Z</time>
      </trkpt>
      <trkpt lat="46.75609" lon="5.81049">
        <ele>513</ele>
        <time>2022-03-09T12:01:18Z</time>
      </trkpt>
      <trkpt lat="46.75607" lon="5.81054">
        <ele>513</ele>
        <time>2022-03-09T12:01:19Z</time>
      </trkpt>
      <trkpt lat="46.75605" lon="5.81058">
        <ele>513.2</ele>
        <time>2022-03-09T12:01:20Z</time>
      </trkpt>
      <trkpt lat="46.75603" lon="5.81063">
        <ele>513.2</ele>
        <time>2022-03-09T12:01:21Z</time>
      </trkpt>
      <trkpt lat="46.75602" lon="5.81067">
        <ele>513.2</ele>
        <time>2022-03-09T12:01:22Z</time>
      </trkpt>
      <trkpt lat="46.75601" lon="5.81072">
        <ele>513.6</ele>
        <time>2022-03-09T12:01:23Z</time>
      </trkpt>
      <trkpt lat="46.756" lon="5.81077">
        <ele>513.6</ele>
        <time>2022-03-09T12:01:24Z</time>
      </trkpt>
      <trkpt lat="46.75599" lon="5.81082">
        <ele>513.6</ele>
        <time>2022-03-09T12:01:25Z</time>
      </trkpt>
      <trkpt lat="46.75597" lon="5.81086">
        <ele>513.6</ele>
        <time>2022-03-09T12:01:26Z</time>
      </trkpt>
      <trkpt lat="46.75596" lon="5.81092">
        <ele>513.6</ele>
        <time>2022-03-09T12:01:27Z</time>
      </trkpt>
      <trkpt lat="46.75594" lon="5.81097">
        <ele>513.8</ele>
        <time>2022-03-09T12:01:28Z</time>
      </trkpt>
      <trkpt lat="46.75592" lon="5.81103">
        <ele>513.8</ele>
        <time>2022-03-09T12:01:29Z</time>
      </trkpt>
      <trkpt lat="46.75589" lon="5.81108">
        <ele>513.8</ele>
        <time>2022-03-09T12:01:30Z</time>
      </trkpt>
      <trkpt lat="46.75587" lon="5.81114">
        <ele>514</ele>
        <time>2022-03-09T12:01:31Z</time>
      </trkpt>
      <trkpt lat="46.75585" lon="5.81121">
        <ele>514</ele>
        <time>2022-03-09T12:01:32Z</time>
      </trkpt>
      <trkpt lat="46.75583" lon="5.81127">
        <ele>514</ele>
        <time>2022-03-09T12:01:33Z</time>
      </trkpt>
      <trkpt lat="46.75582" lon="5.81134">
        <ele>514.4</ele>
        <time>2022-03-09T12:01:34Z</time>
      </trkpt>
      <trkpt lat="46.7558" lon="5.81141">
        <ele>514.4</ele>
        <time>2022-03-09T12:01:35Z</time>
      </trkpt>
      <trkpt lat="46.75578" lon="5.81149">
        <ele>514.6</ele>
        <time>2022-03-09T12:01:36Z</time>
      </trkpt>
      <trkpt lat="46.75576" lon="5.81156">
        <ele>514.6</ele>
        <time>2022-03-09T12:01:37Z</time>
      </trkpt>
      <trkpt lat="46.75574" lon="5.81164">
        <ele>514.8</ele>
        <time>2022-03-09T12:01:38Z</time>
      </trkpt>
      <trkpt lat="46.75571" lon="5.81171">
        <ele>514.8</ele>
        <time>2022-03-09T12:01:39Z</time>
      </trkpt>
      <trkpt lat="46.75569" lon="5.81179">
        <ele>515.2</ele>
        <time>2022-03-09T12:01:40Z</time>
      </trkpt>
      <trkpt lat="46.75567" lon="5.81187">
        <ele>515.2</ele>
        <time>2022-03-09T12:01:41Z</time>
      </trkpt>
      <trkpt lat="46.75564" lon="5.81194">
        <ele>515.4</ele>
        <time>2022-03-09T12:01:42Z</time>
      </trkpt>
      <trkpt lat="46.75562" lon="5.81202">
        <ele>515.8</ele>
        <time>2022-03-09T12:01:43Z</time>
      </trkpt>
      <trkpt lat="46.7556" lon="5.81209">
        <ele>516</ele>
        <time>2022-03-09T12:01:44Z</time>
      </trkpt>
      <trkpt lat="46.75558" lon="5.81216">
        <ele>516</ele>
        <time>2022-03-09T12:01:45Z</time>
      </trkpt>
      <trkpt lat="46.75555" lon="5.81224">
        <ele>516.4</ele>
        <time>2022-03-09T12:01:46Z</time>
      </trkpt>
      <trkpt lat="46.75553" lon="5.81231">
        <ele>516.4</ele>
        <time>2022-03-09T12:01:47Z</time>
      </trkpt>
      <trkpt lat="46.75551" lon="5.81238">
        <ele>516.4</ele>
        <time>2022-03-09T12:01:48Z</time>
      </trkpt>
      <trkpt lat="46.75549" lon="5.81245">
        <ele>516.6</ele>
        <time>2022-03-09T12:01:49Z</time>
      </trkpt>
      <trkpt lat="46.75547" lon="5.81252">
        <ele>516.8</ele>
        <time>2022-03-09T12:01:50Z</time>
      </trkpt>
      <trkpt lat="46.75545" lon="5.81259">
        <ele>516.8</ele>
        <time>2022-03-09T12:01:51Z</time>
      </trkpt>
      <trkpt lat="46.75543" lon="5.81266">
        <ele>517</ele>
        <time>2022-03-09T12:01:52Z</time>
      </trkpt>
      <trkpt lat="46.75542" lon="5.81272">
        <ele>517</ele>
        <time>2022-03-09T12:01:53Z</time>
      </trkpt>
      <trkpt lat="46.7554" lon="5.81278">
        <ele>517.4</ele>
        <time>2022-03-09T12:01:54Z</time>
      </trkpt>
      <trkpt lat="46.75539" lon="5.81284">
        <ele>517.4</ele>
        <time>2022-03-09T12:01:55Z</time>
      </trkpt>
      <trkpt lat="46.75537" lon="5.8129">
        <ele>517.8</ele>
        <time>2022-03-09T12:01:56Z</time>
      </trkpt>
      <trkpt lat="46.75535" lon="5.81296">
        <ele>517.8</ele>
        <time>2022-03-09T12:01:57Z</time>
      </trkpt>
      <trkpt lat="46.75533" lon="5.81303">
        <ele>517.8</ele>
        <time>2022-03-09T12:01:58Z</time>
      </trkpt>
      <trkpt lat="46.75531" lon="5.81309">
        <ele>518</ele>
        <time>2022-03-09T12:01:59Z</time>
      </trkpt>
      <trkpt lat="46.75529" lon="5.81315">
        <ele>518</ele>
        <time>2022-03-09T12:02:00Z</time>
      </trkpt>
      <trkpt lat="46.75527" lon="5.81321">
        <ele>518</ele>
        <time>2022-03-09T12:02:01Z</time>
      </trkpt>
      <trkpt lat="46.75525" lon="5.81328">
        <ele>518.2</ele>
        <time>2022-03-09T12:02:02Z</time>
      </trkpt>
      <trkpt lat="46.75524" lon="5.81334">
        <ele>518.2</ele>
        <time>2022-03-09T12:02:03Z</time>
      </trkpt>
      <trkpt lat="46.75522" lon="5.81341">
        <ele>518.2</ele>
        <time>2022-03-09T12:02:04Z</time>
      </trkpt>
      <trkpt lat="46.7552" lon="5.81348">
        <ele>518.6</ele>
        <time>2022-03-09T12:02:05Z</time>
      </trkpt>
      <trkpt lat="46.75519" lon="5.81354">
        <ele>518.6</ele>
        <time>2022-03-09T12:02:06Z</time>
      </trkpt>
      <trkpt lat="46.75517" lon="5.81361">
        <ele>518.6</ele>
        <time>2022-03-09T12:02:07Z</time>
      </trkpt>
      <trkpt lat="46.75516" lon="5.81368">
        <ele>518.6</ele>
        <time>2022-03-09T12:02:08Z</time>
      </trkpt>
      <trkpt lat="46.75514" lon="5.81374">
        <ele>518.8</ele>
        <time>2022-03-09T12:02:09Z</time>
      </trkpt>
      <trkpt lat="46.75513" lon="5.81381">
        <ele>518.8</ele>
        <time>2022-03-09T12:02:10Z</time>
      </trkpt>
      <trkpt lat="46.75512" lon="5.81388">
        <ele>518.8</ele>
        <time>2022-03-09T12:02:11Z</time>
      </trkpt>
      <trkpt lat="46.75511" lon="5.81394">
        <ele>518.8</ele>
        <time>2022-03-09T12:02:12Z</time>
      </trkpt>
      <trkpt lat="46.75511" lon="5.814">
        <ele>518.8</ele>
        <time>2022-03-09T12:02:13Z</time>
      </trkpt>
      <trkpt lat="46.75512" lon="5.81405">
        <ele>518.8</ele>
        <time>2022-03-09T12:02:14Z</time>
      </trkpt>
      <trkpt lat="46.75514" lon="5.81409">
        <ele>518.8</ele>
        <time>2022-03-09T12:02:15Z</time>
      </trkpt>
      <trkpt lat="46.75515" lon="5.81412">
        <ele>518.8</ele>
        <time>2022-03-09T12:02:16Z</time>
      </trkpt>
      <trkpt lat="46.75517" lon="5.81416">
        <ele>518.8</ele>
        <time>2022-03-09T12:02:17Z</time>
      </trkpt>
      <trkpt lat="46.75519" lon="5.8142">
        <ele>518.8</ele>
        <time>2022-03-09T12:02:18Z</time>
      </trkpt>
      <trkpt lat="46.7552" lon="5.81423">
        <ele>518.8</ele>
        <time>2022-03-09T12:02:19Z</time>
      </trkpt>
      <trkpt lat="46.75523" lon="5.81426">
        <ele>518.8</ele>
        <time>2022-03-09T12:02:20Z</time>
      </trkpt>
      <trkpt lat="46.75526" lon="5.81428">
        <ele>518.8</ele>
        <time>2022-03-09T12:02:21Z</time>
      </trkpt>
      <trkpt lat="46.7553" lon="5.81429">
        <ele>518.8</ele>
        <time>2022-03-09T12:02:22Z</time>
      </trkpt>
      <trkpt lat="46.75534" lon="5.81431">
        <ele>518.8</ele>
        <time>2022-03-09T12:02:23Z</time>
      </trkpt>
      <trkpt lat="46.75539" lon="5.81432">
        <ele>518.8</ele>
        <time>2022-03-09T12:02:24Z</time>
      </trkpt>
      <trkpt lat="46.75544" lon="5.81435">
        <ele>518.8</ele>
        <time>2022-03-09T12:02:25Z</time>
      </trkpt>
      <trkpt lat="46.75548" lon="5.81438">
        <ele>518.8</ele>
        <time>2022-03-09T12:02:26Z</time>
      </trkpt>
      <trkpt lat="46.75553" lon="5.81442">
        <ele>518.8</ele>
        <time>2022-03-09T12:02:27Z</time>
      </trkpt>
      <trkpt lat="46.75558" lon="5.81447">
        <ele>519</ele>
        <time>2022-03-09T12:02:28Z</time>
      </trkpt>
      <trkpt lat="46.75562" lon="5.81451">
        <ele>519</ele>
        <time>2022-03-09T12:02:29Z</time>
      </trkpt>
      <trkpt lat="46.75567" lon="5.81455">
        <ele>519</ele>
        <time>2022-03-09T12:02:30Z</time>
      </trkpt>
      <trkpt lat="46.75572" lon="5.8146">
        <ele>519</ele>
        <time>2022-03-09T12:02:31Z</time>
      </trkpt>
      <trkpt lat="46.75577" lon="5.81464">
        <ele>519</ele>
        <time>2022-03-09T12:02:32Z</time>
      </trkpt>
      <trkpt lat="46.75582" lon="5.81469">
        <ele>519</ele>
        <time>2022-03-09T12:02:33Z</time>
      </trkpt>
      <trkpt lat="46.75587" lon="5.81474">
        <ele>519</ele>
        <time>2022-03-09T12:02:34Z</time>
      </trkpt>
      <trkpt lat="46.75592" lon="5.81478">
        <ele>519</ele>
        <time>2022-03-09T12:02:35Z</time>
      </trkpt>
      <trkpt lat="46.75598" lon="5.81483">
        <ele>519.2</ele>
        <time>2022-03-09T12:02:36Z</time>
      </trkpt>
      <trkpt lat="46.75603" lon="5.81488">
        <ele>519.2</ele>
        <time>2022-03-09T12:02:37Z</time>
      </trkpt>
      <trkpt lat="46.75609" lon="5.81493">
        <ele>519.2</ele>
        <time>2022-03-09T12:02:38Z</time>
      </trkpt>
      <trkpt lat="46.75614" lon="5.81498">
        <ele>519.6</ele>
        <time>2022-03-09T12:02:39Z</time>
      </trkpt>
      <trkpt lat="46.7562" lon="5.81503">
        <ele>519.6</ele>
        <time>2022-03-09T12:02:40Z</time>
      </trkpt>
      <trkpt lat="46.75626" lon="5.81508">
        <ele>519.6</ele>
        <time>2022-03-09T12:02:41Z</time>
      </trkpt>
      <trkpt lat="46.75632" lon="5.81512">
        <ele>519.6</ele>
        <time>2022-03-09T12:02:42Z</time>
      </trkpt>
      <trkpt lat="46.75638" lon="5.81517">
        <ele>519.6</ele>
        <time>2022-03-09T12:02:43Z</time>
      </trkpt>
      <trkpt lat="46.75643" lon="5.81523">
        <ele>519.8</ele>
        <time>2022-03-09T12:02:44Z</time>
      </trkpt>
      <trkpt lat="46.75649" lon="5.81528">
        <ele>519.8</ele>
        <time>2022-03-09T12:02:45Z</time>
      </trkpt>
      <trkpt lat="46.75655" lon="5.81533">
        <ele>519.8</ele>
        <time>2022-03-09T12:02:46Z</time>
      </trkpt>
      <trkpt lat="46.75661" lon="5.81539">
        <ele>520</ele>
        <time>2022-03-09T12:02:47Z</time>
      </trkpt>
      <trkpt lat="46.75667" lon="5.81544">
        <ele>520</ele>
        <time>2022-03-09T12:02:48Z</time>
      </trkpt>
      <trkpt lat="46.75673" lon="5.8155">
        <ele>520</ele>
        <time>2022-03-09T12:02:49Z</time>
      </trkpt>
      <trkpt lat="46.75679" lon="5.81556">
        <ele>520</ele>
        <time>2022-03-09T12:02:50Z</time>
      </trkpt>
      <trkpt lat="46.75685" lon="5.81562">
        <ele>520</ele>
        <time>2022-03-09T12:02:51Z</time>
      </trkpt>
      <trkpt lat="46.75691" lon="5.81568">
        <ele>520</ele>
        <time>2022-03-09T12:02:52Z</time>
      </trkpt>
      <trkpt lat="46.75696" lon="5.81574">
        <ele>520.2</ele>
        <time>2022-03-09T12:02:53Z</time>
      </trkpt>
      <trkpt lat="46.75702" lon="5.8158">
        <ele>520.2</ele>
        <time>2022-03-09T12:02:54Z</time>
      </trkpt>
      <trkpt lat="46.75708" lon="5.81587">
        <ele>520.2</ele>
        <time>2022-03-09T12:02:55Z</time>
      </trkpt>
      <trkpt lat="46.75714" lon="5.81593">
        <ele>520.2</ele>
        <time>2022-03-09T12:02:56Z</time>
      </trkpt>
      <trkpt lat="46.7572" lon="5.81599">
        <ele>520.2</ele>
        <time>2022-03-09T12:02:57Z</time>
      </trkpt>
      <trkpt lat="46.75726" lon="5.81605">
        <ele>520.2</ele>
        <time>2022-03-09T12:02:58Z</time>
      </trkpt>
      <trkpt lat="46.75732" lon="5.81612">
        <ele>520.2</ele>
        <time>2022-03-09T12:02:59Z</time>
      </trkpt>
      <trkpt lat="46.75738" lon="5.81618">
        <ele>520.2</ele>
        <time>2022-03-09T12:03:00Z</time>
      </trkpt>
      <trkpt lat="46.75745" lon="5.81625">
        <ele>520.2</ele>
        <time>2022-03-09T12:03:01Z</time>
      </trkpt>
      <trkpt lat="46.75751" lon="5.81631">
        <ele>520.2</ele>
        <time>2022-03-09T12:03:02Z</time>
      </trkpt>
      <trkpt lat="46.75757" lon="5.81637">
        <ele>520.2</ele>
        <time>2022-03-09T12:03:03Z</time>
      </trkpt>
      <trkpt lat="46.75763" lon="5.81644">
        <ele>520.2</ele>
        <time>2022-03-09T12:03:04Z</time>
      </trkpt>
      <trkpt lat="46.75769" lon="5.8165">
        <ele>520.2</ele>
        <time>2022-03-09T12:03:05Z</time>
      </trkpt>
      <trkpt lat="46.75775" lon="5.81656">
        <ele>520.2</ele>
        <time>2022-03-09T12:03:06Z</time>
      </trkpt>
      <trkpt lat="46.75782" lon="5.81663">
        <ele>520.2</ele>
        <time>2022-03-09T12:03:07Z</time>
      </trkpt>
      <trkpt lat="46.75788" lon="5.81669">
        <ele>520.2</ele>
        <time>2022-03-09T12:03:08Z</time>
      </trkpt>
      <trkpt lat="46.75794" lon="5.81676">
        <ele>520.2</ele>
        <time>2022-03-09T12:03:09Z</time>
      </trkpt>
      <trkpt lat="46.75801" lon="5.81682">
        <ele>520.4</ele>
        <time>2022-03-09T12:03:10Z</time>
      </trkpt>
      <trkpt lat="46.75807" lon="5.81689">
        <ele>520.4</ele>
        <time>2022-03-09T12:03:11Z</time>
      </trkpt>
      <trkpt lat="46.75814" lon="5.81696">
        <ele>520.4</ele>
        <time>2022-03-09T12:03:12Z</time>
      </trkpt>
      <trkpt lat="46.7582" lon="5.81702">
        <ele>520.4</ele>
        <time>2022-03-09T12:03:13Z</time>
      </trkpt>
      <trkpt lat="46.75827" lon="5.81709">
        <ele>520.4</ele>
        <time>2022-03-09T12:03:14Z</time>
      </trkpt>
      <trkpt lat="46.75833" lon="5.81716">
        <ele>520.4</ele>
        <time>2022-03-09T12:03:15Z</time>
      </trkpt>
      <trkpt lat="46.7584" lon="5.81723">
        <ele>520.4</ele>
        <time>2022-03-09T12:03:16Z</time>
      </trkpt>
      <trkpt lat="46.75847" lon="5.81729">
        <ele>520.4</ele>
        <time>2022-03-09T12:03:17Z</time>
      </trkpt>
      <trkpt lat="46.75853" lon="5.81736">
        <ele>520.4</ele>
        <time>2022-03-09T12:03:18Z</time>
      </trkpt>
      <trkpt lat="46.7586" lon="5.81743">
        <ele>520.4</ele>
        <time>2022-03-09T12:03:19Z</time>
      </trkpt>
      <trkpt lat="46.75867" lon="5.81749">
        <ele>520.4</ele>
        <time>2022-03-09T12:03:20Z</time>
      </trkpt>
      <trkpt lat="46.75873" lon="5.81756">
        <ele>520.8</ele>
        <time>2022-03-09T12:03:21Z</time>
      </trkpt>
      <trkpt lat="46.7588" lon="5.81762">
        <ele>520.8</ele>
        <time>2022-03-09T12:03:22Z</time>
      </trkpt>
      <trkpt lat="46.75886" lon="5.81769">
        <ele>520.8</ele>
        <time>2022-03-09T12:03:23Z</time>
      </trkpt>
      <trkpt lat="46.75893" lon="5.81775">
        <ele>520.8</ele>
        <time>2022-03-09T12:03:24Z</time>
      </trkpt>
      <trkpt lat="46.75899" lon="5.81782">
        <ele>521</ele>
        <time>2022-03-09T12:03:25Z</time>
      </trkpt>
      <trkpt lat="46.75906" lon="5.81788">
        <ele>521</ele>
        <time>2022-03-09T12:03:26Z</time>
      </trkpt>
      <trkpt lat="46.75912" lon="5.81794">
        <ele>521</ele>
        <time>2022-03-09T12:03:27Z</time>
      </trkpt>
      <trkpt lat="46.75919" lon="5.81801">
        <ele>521</ele>
        <time>2022-03-09T12:03:28Z</time>
      </trkpt>
      <trkpt lat="46.75925" lon="5.81807">
        <ele>521.2</ele>
        <time>2022-03-09T12:03:29Z</time>
      </trkpt>
      <trkpt lat="46.75932" lon="5.81813">
        <ele>521.2</ele>
        <time>2022-03-09T12:03:30Z</time>
      </trkpt>
      <trkpt lat="46.75938" lon="5.81818">
        <ele>521.2</ele>
        <time>2022-03-09T12:03:31Z</time>
      </trkpt>
      <trkpt lat="46.75945" lon="5.81823">
        <ele>521.4</ele>
        <time>2022-03-09T12:03:32Z</time>
      </trkpt>
      <trkpt lat="46.75952" lon="5.81828">
        <ele>521.4</ele>
        <time>2022-03-09T12:03:33Z</time>
      </trkpt>
      <trkpt lat="46.75958" lon="5.81833">
        <ele>521.4</ele>
        <time>2022-03-09T12:03:34Z</time>
      </trkpt>
      <trkpt lat="46.75965" lon="5.81838">
        <ele>521.4</ele>
        <time>2022-03-09T12:03:35Z</time>
      </trkpt>
      <trkpt lat="46.75972" lon="5.81843">
        <ele>521.4</ele>
        <time>2022-03-09T12:03:36Z</time>
      </trkpt>
      <trkpt lat="46.75979" lon="5.81848">
        <ele>521.4</ele>
        <time>2022-03-09T12:03:37Z</time>
      </trkpt>
      <trkpt lat="46.75985" lon="5.81853">
        <ele>521.4</ele>
        <time>2022-03-09T12:03:38Z</time>
      </trkpt>
      <trkpt lat="46.75992" lon="5.81857">
        <ele>521.4</ele>
        <time>2022-03-09T12:03:39Z</time>
      </trkpt>
      <trkpt lat="46.75999" lon="5.81862">
        <ele>521.4</ele>
        <time>2022-03-09T12:03:40Z</time>
      </trkpt>
      <trkpt lat="46.76006" lon="5.81867">
        <ele>521.4</ele>
        <time>2022-03-09T12:03:41Z</time>
      </trkpt>
      <trkpt lat="46.76012" lon="5.81871">
        <ele>521.4</ele>
        <time>2022-03-09T12:03:42Z</time>
      </trkpt>
      <trkpt lat="46.76019" lon="5.81876">
        <ele>521.4</ele>
        <time>2022-03-09T12:03:43Z</time>
      </trkpt>
      <trkpt lat="46.76026" lon="5.81881">
        <ele>521.4</ele>
        <time>2022-03-09T12:03:44Z</time>
      </trkpt>
      <trkpt lat="46.76032" lon="5.81886">
        <ele>521.4</ele>
        <time>2022-03-09T12:03:45Z</time>
      </trkpt>
      <trkpt lat="46.76039" lon="5.81891">
        <ele>521.4</ele>
        <time>2022-03-09T12:03:46Z</time>
      </trkpt>
      <trkpt lat="46.76046" lon="5.81896">
        <ele>521.4</ele>
        <time>2022-03-09T12:03:47Z</time>
      </trkpt>
      <trkpt lat="46.76053" lon="5.819">
        <ele>521.4</ele>
        <time>2022-03-09T12:03:48Z</time>
      </trkpt>
      <trkpt lat="46.7606" lon="5.81905">
        <ele>521.4</ele>
        <time>2022-03-09T12:03:49Z</time>
      </trkpt>
      <trkpt lat="46.76066" lon="5.8191">
        <ele>521.8</ele>
        <time>2022-03-09T12:03:50Z</time>
      </trkpt>
      <trkpt lat="46.76073" lon="5.81915">
        <ele>521.8</ele>
        <time>2022-03-09T12:03:51Z</time>
      </trkpt>
      <trkpt lat="46.7608" lon="5.8192">
        <ele>521.8</ele>
        <time>2022-03-09T12:03:52Z</time>
      </trkpt>
      <trkpt lat="46.76087" lon="5.81925">
        <ele>521.8</ele>
        <time>2022-03-09T12:03:53Z</time>
      </trkpt>
      <trkpt lat="46.76094" lon="5.8193">
        <ele>522</ele>
        <time>2022-03-09T12:03:54Z</time>
      </trkpt>
      <trkpt lat="46.76101" lon="5.81936">
        <ele>522</ele>
        <time>2022-03-09T12:03:55Z</time>
      </trkpt>
      <trkpt lat="46.76108" lon="5.81941">
        <ele>522.2</ele>
        <time>2022-03-09T12:03:56Z</time>
      </trkpt>
      <trkpt lat="46.76115" lon="5.81946">
        <ele>522.2</ele>
        <time>2022-03-09T12:03:57Z</time>
      </trkpt>
      <trkpt lat="46.76122" lon="5.81951">
        <ele>522.2</ele>
        <time>2022-03-09T12:03:58Z</time>
      </trkpt>
      <trkpt lat="46.76129" lon="5.81956">
        <ele>522.2</ele>
        <time>2022-03-09T12:03:59Z</time>
      </trkpt>
      <trkpt lat="46.76136" lon="5.81961">
        <ele>522.2</ele>
        <time>2022-03-09T12:04:00Z</time>
      </trkpt>
      <trkpt lat="46.76143" lon="5.81966">
        <ele>522.2</ele>
        <time>2022-03-09T12:04:01Z</time>
      </trkpt>
      <trkpt lat="46.7615" lon="5.81972">
        <ele>522.2</ele>
        <time>2022-03-09T12:04:02Z</time>
      </trkpt>
      <trkpt lat="46.76157" lon="5.81977">
        <ele>522.2</ele>
        <time>2022-03-09T12:04:03Z</time>
      </trkpt>
      <trkpt lat="46.76164" lon="5.81982">
        <ele>522.2</ele>
        <time>2022-03-09T12:04:04Z</time>
      </trkpt>
      <trkpt lat="46.76171" lon="5.81987">
        <ele>522.2</ele>
        <time>2022-03-09T12:04:05Z</time>
      </trkpt>
      <trkpt lat="46.76178" lon="5.81992">
        <ele>522.2</ele>
        <time>2022-03-09T12:04:06Z</time>
      </trkpt>
      <trkpt lat="46.76185" lon="5.81997">
        <ele>522.2</ele>
        <time>2022-03-09T12:04:07Z</time>
      </trkpt>
      <trkpt lat="46.76191" lon="5.82002">
        <ele>522.2</ele>
        <time>2022-03-09T12:04:08Z</time>
      </trkpt>
      <trkpt lat="46.76198" lon="5.82006">
        <ele>522.2</ele>
        <time>2022-03-09T12:04:09Z</time>
      </trkpt>
      <trkpt lat="46.76205" lon="5.82011">
        <ele>522.2</ele>
        <time>2022-03-09T12:04:10Z</time>
      </trkpt>
      <trkpt lat="46.76211" lon="5.82016">
        <ele>522.2</ele>
        <time>2022-03-09T12:04:11Z</time>
      </trkpt>
      <trkpt lat="46.76218" lon="5.82021">
        <ele>522.2</ele>
        <time>2022-03-09T12:04:12Z</time>
      </trkpt>
      <trkpt lat="46.76224" lon="5.82026">
        <ele>522.4</ele>
        <time>2022-03-09T12:04:13Z</time>
      </trkpt>
      <trkpt lat="46.76231" lon="5.82031">
        <ele>522.4</ele>
        <time>2022-03-09T12:04:14Z</time>
      </trkpt>
      <trkpt lat="46.76238" lon="5.82035">
        <ele>522.4</ele>
        <time>2022-03-09T12:04:15Z</time>
      </trkpt>
      <trkpt lat="46.76245" lon="5.8204">
        <ele>522.4</ele>
        <time>2022-03-09T12:04:16Z</time>
      </trkpt>
      <trkpt lat="46.76251" lon="5.82045">
        <ele>522.4</ele>
        <time>2022-03-09T12:04:17Z</time>
      </trkpt>
      <trkpt lat="46.76258" lon="5.8205">
        <ele>522.4</ele>
        <time>2022-03-09T12:04:18Z</time>
      </trkpt>
      <trkpt lat="46.76265" lon="5.82055">
        <ele>522.4</ele>
        <time>2022-03-09T12:04:19Z</time>
      </trkpt>
      <trkpt lat="46.76272" lon="5.8206">
        <ele>522.4</ele>
        <time>2022-03-09T12:04:20Z</time>
      </trkpt>
      <trkpt lat="46.76279" lon="5.82065">
        <ele>522.4</ele>
        <time>2022-03-09T12:04:21Z</time>
      </trkpt>
      <trkpt lat="46.76286" lon="5.8207">
        <ele>522.4</ele>
        <time>2022-03-09T12:04:22Z</time>
      </trkpt>
      <trkpt lat="46.76293" lon="5.82075">
        <ele>522.6</ele>
        <time>2022-03-09T12:04:23Z</time>
      </trkpt>
      <trkpt lat="46.763" lon="5.8208">
        <ele>522.6</ele>
        <time>2022-03-09T12:04:24Z</time>
      </trkpt>
      <trkpt lat="46.76307" lon="5.82085">
        <ele>522.6</ele>
        <time>2022-03-09T12:04:25Z</time>
      </trkpt>
      <trkpt lat="46.76315" lon="5.8209">
        <ele>522.6</ele>
        <time>2022-03-09T12:04:26Z</time>
      </trkpt>
      <trkpt lat="46.76322" lon="5.82096">
        <ele>522.6</ele>
        <time>2022-03-09T12:04:27Z</time>
      </trkpt>
      <trkpt lat="46.76329" lon="5.82101">
        <ele>522.6</ele>
        <time>2022-03-09T12:04:28Z</time>
      </trkpt>
      <trkpt lat="46.76337" lon="5.82107">
        <ele>522.6</ele>
        <time>2022-03-09T12:04:29Z</time>
      </trkpt>
      <trkpt lat="46.76344" lon="5.82112">
        <ele>522.6</ele>
        <time>2022-03-09T12:04:30Z</time>
      </trkpt>
      <trkpt lat="46.76351" lon="5.82117">
        <ele>522.6</ele>
        <time>2022-03-09T12:04:31Z</time>
      </trkpt>
      <trkpt lat="46.76359" lon="5.82123">
        <ele>522.6</ele>
        <time>2022-03-09T12:04:32Z</time>
      </trkpt>
      <trkpt lat="46.76366" lon="5.82128">
        <ele>522.6</ele>
        <time>2022-03-09T12:04:33Z</time>
      </trkpt>
      <trkpt lat="46.76374" lon="5.82133">
        <ele>522.4</ele>
        <time>2022-03-09T12:04:34Z</time>
      </trkpt>
      <trkpt lat="46.76381" lon="5.82138">
        <ele>522.4</ele>
        <time>2022-03-09T12:04:35Z</time>
      </trkpt>
      <trkpt lat="46.76389" lon="5.82144">
        <ele>522.4</ele>
        <time>2022-03-09T12:04:36Z</time>
      </trkpt>
      <trkpt lat="46.76396" lon="5.82149">
        <ele>522.4</ele>
        <time>2022-03-09T12:04:37Z</time>
      </trkpt>
      <trkpt lat="46.76403" lon="5.82154">
        <ele>522.4</ele>
        <time>2022-03-09T12:04:38Z</time>
      </trkpt>
      <trkpt lat="46.7641" lon="5.8216">
        <ele>522.4</ele>
        <time>2022-03-09T12:04:39Z</time>
      </trkpt>
      <trkpt lat="46.76418" lon="5.82165">
        <ele>522.4</ele>
        <time>2022-03-09T12:04:40Z</time>
      </trkpt>
      <trkpt lat="46.76425" lon="5.8217">
        <ele>522.4</ele>
        <time>2022-03-09T12:04:41Z</time>
      </trkpt>
      <trkpt lat="46.76432" lon="5.82175">
        <ele>522.4</ele>
        <time>2022-03-09T12:04:42Z</time>
      </trkpt>
      <trkpt lat="46.76439" lon="5.8218">
        <ele>522.4</ele>
        <time>2022-03-09T12:04:43Z</time>
      </trkpt>
      <trkpt lat="46.76446" lon="5.82185">
        <ele>522.4</ele>
        <time>2022-03-09T12:04:44Z</time>
      </trkpt>
      <trkpt lat="46.76453" lon="5.8219">
        <ele>522.4</ele>
        <time>2022-03-09T12:04:45Z</time>
      </trkpt>
      <trkpt lat="46.7646" lon="5.82195">
        <ele>522.4</ele>
        <time>2022-03-09T12:04:46Z</time>
      </trkpt>
      <trkpt lat="46.76467" lon="5.822">
        <ele>522.6</ele>
        <time>2022-03-09T12:04:47Z</time>
      </trkpt>
      <trkpt lat="46.76474" lon="5.82205">
        <ele>522.6</ele>
        <time>2022-03-09T12:04:48Z</time>
      </trkpt>
      <trkpt lat="46.76474" lon="5.82205">
        <ele>522.6</ele>
        <time>2022-03-09T12:04:49Z</time>
      </trkpt>
      <trkpt lat="46.7648" lon="5.8221">
        <ele>523</ele>
        <time>2022-03-09T12:04:50Z</time>
      </trkpt>
      <trkpt lat="46.76487" lon="5.82215">
        <ele>523</ele>
        <time>2022-03-09T12:04:51Z</time>
      </trkpt>
      <trkpt lat="46.76493" lon="5.8222">
        <ele>523.2</ele>
        <time>2022-03-09T12:04:52Z</time>
      </trkpt>
      <trkpt lat="46.765" lon="5.82224">
        <ele>523.2</ele>
        <time>2022-03-09T12:04:53Z</time>
      </trkpt>
      <trkpt lat="46.76506" lon="5.82229">
        <ele>523.2</ele>
        <time>2022-03-09T12:04:54Z</time>
      </trkpt>
      <trkpt lat="46.76512" lon="5.82234">
        <ele>523.6</ele>
        <time>2022-03-09T12:04:55Z</time>
      </trkpt>
      <trkpt lat="46.76518" lon="5.82238">
        <ele>523.6</ele>
        <time>2022-03-09T12:04:56Z</time>
      </trkpt>
      <trkpt lat="46.76524" lon="5.82243">
        <ele>523.8</ele>
        <time>2022-03-09T12:04:57Z</time>
      </trkpt>
      <trkpt lat="46.7653" lon="5.82247">
        <ele>523.8</ele>
        <time>2022-03-09T12:04:58Z</time>
      </trkpt>
      <trkpt lat="46.76536" lon="5.82252">
        <ele>523.8</ele>
        <time>2022-03-09T12:04:59Z</time>
      </trkpt>
      <trkpt lat="46.76543" lon="5.82256">
        <ele>523.8</ele>
        <time>2022-03-09T12:05:00Z</time>
      </trkpt>
      <trkpt lat="46.76549" lon="5.82261">
        <ele>523.8</ele>
        <time>2022-03-09T12:05:01Z</time>
      </trkpt>
      <trkpt lat="46.76555" lon="5.82265">
        <ele>524</ele>
        <time>2022-03-09T12:05:02Z</time>
      </trkpt>
      <trkpt lat="46.76561" lon="5.82269">
        <ele>524</ele>
        <time>2022-03-09T12:05:03Z</time>
      </trkpt>
      <trkpt lat="46.76567" lon="5.82274">
        <ele>524.2</ele>
        <time>2022-03-09T12:05:04Z</time>
      </trkpt>
      <trkpt lat="46.76573" lon="5.82278">
        <ele>524.2</ele>
        <time>2022-03-09T12:05:05Z</time>
      </trkpt>
      <trkpt lat="46.76579" lon="5.82283">
        <ele>524.2</ele>
        <time>2022-03-09T12:05:06Z</time>
      </trkpt>
      <trkpt lat="46.76585" lon="5.82287">
        <ele>524.2</ele>
        <time>2022-03-09T12:05:07Z</time>
      </trkpt>
      <trkpt lat="46.76592" lon="5.82292">
        <ele>524.2</ele>
        <time>2022-03-09T12:05:08Z</time>
      </trkpt>
      <trkpt lat="46.76598" lon="5.82297">
        <ele>524.4</ele>
        <time>2022-03-09T12:05:09Z</time>
      </trkpt>
      <trkpt lat="46.76604" lon="5.82301">
        <ele>524.4</ele>
        <time>2022-03-09T12:05:10Z</time>
      </trkpt>
      <trkpt lat="46.76611" lon="5.82306">
        <ele>524.4</ele>
        <time>2022-03-09T12:05:11Z</time>
      </trkpt>
      <trkpt lat="46.76617" lon="5.82311">
        <ele>524.4</ele>
        <time>2022-03-09T12:05:12Z</time>
      </trkpt>
      <trkpt lat="46.76623" lon="5.82315">
        <ele>524.4</ele>
        <time>2022-03-09T12:05:13Z</time>
      </trkpt>
      <trkpt lat="46.7663" lon="5.82319">
        <ele>524.4</ele>
        <time>2022-03-09T12:05:14Z</time>
      </trkpt>
      <trkpt lat="46.76636" lon="5.82324">
        <ele>524.4</ele>
        <time>2022-03-09T12:05:15Z</time>
      </trkpt>
      <trkpt lat="46.76642" lon="5.82328">
        <ele>524.4</ele>
        <time>2022-03-09T12:05:16Z</time>
      </trkpt>
      <trkpt lat="46.76648" lon="5.82333">
        <ele>524.4</ele>
        <time>2022-03-09T12:05:17Z</time>
      </trkpt>
      <trkpt lat="46.76654" lon="5.82337">
        <ele>524.4</ele>
        <time>2022-03-09T12:05:18Z</time>
      </trkpt>
      <trkpt lat="46.7666" lon="5.82341">
        <ele>524.4</ele>
        <time>2022-03-09T12:05:19Z</time>
      </trkpt>
      <trkpt lat="46.76666" lon="5.82346">
        <ele>524.4</ele>
        <time>2022-03-09T12:05:20Z</time>
      </trkpt>
      <trkpt lat="46.76672" lon="5.8235">
        <ele>524.4</ele>
        <time>2022-03-09T12:05:21Z</time>
      </trkpt>
      <trkpt lat="46.76678" lon="5.82355">
        <ele>524.4</ele>
        <time>2022-03-09T12:05:22Z</time>
      </trkpt>
      <trkpt lat="46.76685" lon="5.8236">
        <ele>524.4</ele>
        <time>2022-03-09T12:05:23Z</time>
      </trkpt>
      <trkpt lat="46.76691" lon="5.82364">
        <ele>524.4</ele>
        <time>2022-03-09T12:05:24Z</time>
      </trkpt>
      <trkpt lat="46.76698" lon="5.82369">
        <ele>524.4</ele>
        <time>2022-03-09T12:05:25Z</time>
      </trkpt>
      <trkpt lat="46.76704" lon="5.82374">
        <ele>524.4</ele>
        <time>2022-03-09T12:05:26Z</time>
      </trkpt>
      <trkpt lat="46.7671" lon="5.82378">
        <ele>524.4</ele>
        <time>2022-03-09T12:05:27Z</time>
      </trkpt>
      <trkpt lat="46.76717" lon="5.82383">
        <ele>524.4</ele>
        <time>2022-03-09T12:05:28Z</time>
      </trkpt>
      <trkpt lat="46.76723" lon="5.82387">
        <ele>524.4</ele>
        <time>2022-03-09T12:05:29Z</time>
      </trkpt>
      <trkpt lat="46.76729" lon="5.82392">
        <ele>524.4</ele>
        <time>2022-03-09T12:05:30Z</time>
      </trkpt>
      <trkpt lat="46.76742" lon="5.82401">
        <ele>524.4</ele>
        <time>2022-03-09T12:05:31Z</time>
      </trkpt>
      <trkpt lat="46.76748" lon="5.82405">
        <ele>524.4</ele>
        <time>2022-03-09T12:05:32Z</time>
      </trkpt>
      <trkpt lat="46.76755" lon="5.8241">
        <ele>524.4</ele>
        <time>2022-03-09T12:05:33Z</time>
      </trkpt>
      <trkpt lat="46.76761" lon="5.82414">
        <ele>524.6</ele>
        <time>2022-03-09T12:05:34Z</time>
      </trkpt>
      <trkpt lat="46.76767" lon="5.82419">
        <ele>524.6</ele>
        <time>2022-03-09T12:05:35Z</time>
      </trkpt>
      <trkpt lat="46.76773" lon="5.82423">
        <ele>524.6</ele>
        <time>2022-03-09T12:05:36Z</time>
      </trkpt>
      <trkpt lat="46.7678" lon="5.82428">
        <ele>524.6</ele>
        <time>2022-03-09T12:05:37Z</time>
      </trkpt>
      <trkpt lat="46.76786" lon="5.82432">
        <ele>524.6</ele>
        <time>2022-03-09T12:05:38Z</time>
      </trkpt>
      <trkpt lat="46.76792" lon="5.82437">
        <ele>524.6</ele>
        <time>2022-03-09T12:05:39Z</time>
      </trkpt>
      <trkpt lat="46.76799" lon="5.82441">
        <ele>524.6</ele>
        <time>2022-03-09T12:05:40Z</time>
      </trkpt>
      <trkpt lat="46.76805" lon="5.82445">
        <ele>524.6</ele>
        <time>2022-03-09T12:05:41Z</time>
      </trkpt>
      <trkpt lat="46.76812" lon="5.82449">
        <ele>524.6</ele>
        <time>2022-03-09T12:05:42Z</time>
      </trkpt>
      <trkpt lat="46.76818" lon="5.82452">
        <ele>524.6</ele>
        <time>2022-03-09T12:05:43Z</time>
      </trkpt>
      <trkpt lat="46.76825" lon="5.82455">
        <ele>524.6</ele>
        <time>2022-03-09T12:05:44Z</time>
      </trkpt>
      <trkpt lat="46.76832" lon="5.82456">
        <ele>524.6</ele>
        <time>2022-03-09T12:05:45Z</time>
      </trkpt>
      <trkpt lat="46.76839" lon="5.82457">
        <ele>524.6</ele>
        <time>2022-03-09T12:05:46Z</time>
      </trkpt>
      <trkpt lat="46.76846" lon="5.82457">
        <ele>524.6</ele>
        <time>2022-03-09T12:05:47Z</time>
      </trkpt>
      <trkpt lat="46.76853" lon="5.82456">
        <ele>524.6</ele>
        <time>2022-03-09T12:05:48Z</time>
      </trkpt>
      <trkpt lat="46.76861" lon="5.82454">
        <ele>524.6</ele>
        <time>2022-03-09T12:05:49Z</time>
      </trkpt>
      <trkpt lat="46.76868" lon="5.82451">
        <ele>524.6</ele>
        <time>2022-03-09T12:05:50Z</time>
      </trkpt>
      <trkpt lat="46.76875" lon="5.82448">
        <ele>524.6</ele>
        <time>2022-03-09T12:05:51Z</time>
      </trkpt>
      <trkpt lat="46.76883" lon="5.82445">
        <ele>524.6</ele>
        <time>2022-03-09T12:05:52Z</time>
      </trkpt>
      <trkpt lat="46.7689" lon="5.82442">
        <ele>524.4</ele>
        <time>2022-03-09T12:05:53Z</time>
      </trkpt>
      <trkpt lat="46.76898" lon="5.82439">
        <ele>524.4</ele>
        <time>2022-03-09T12:05:54Z</time>
      </trkpt>
      <trkpt lat="46.76905" lon="5.82435">
        <ele>524.4</ele>
        <time>2022-03-09T12:05:55Z</time>
      </trkpt>
      <trkpt lat="46.76913" lon="5.82432">
        <ele>524.4</ele>
        <time>2022-03-09T12:05:56Z</time>
      </trkpt>
      <trkpt lat="46.76921" lon="5.82429">
        <ele>524.4</ele>
        <time>2022-03-09T12:05:57Z</time>
      </trkpt>
      <trkpt lat="46.76929" lon="5.82425">
        <ele>524.4</ele>
        <time>2022-03-09T12:05:58Z</time>
      </trkpt>
      <trkpt lat="46.76937" lon="5.82422">
        <ele>524.4</ele>
        <time>2022-03-09T12:05:59Z</time>
      </trkpt>
      <trkpt lat="46.76945" lon="5.82419">
        <ele>524.2</ele>
        <time>2022-03-09T12:06:00Z</time>
      </trkpt>
      <trkpt lat="46.76953" lon="5.82415">
        <ele>524.2</ele>
        <time>2022-03-09T12:06:01Z</time>
      </trkpt>
      <trkpt lat="46.76961" lon="5.82412">
        <ele>524.2</ele>
        <time>2022-03-09T12:06:02Z</time>
      </trkpt>
      <trkpt lat="46.76968" lon="5.82409">
        <ele>524.2</ele>
        <time>2022-03-09T12:06:03Z</time>
      </trkpt>
      <trkpt lat="46.76975" lon="5.82405">
        <ele>524.2</ele>
        <time>2022-03-09T12:06:04Z</time>
      </trkpt>
      <trkpt lat="46.76983" lon="5.82402">
        <ele>524.2</ele>
        <time>2022-03-09T12:06:05Z</time>
      </trkpt>
      <trkpt lat="46.7699" lon="5.82399">
        <ele>524.4</ele>
        <time>2022-03-09T12:06:06Z</time>
      </trkpt>
      <trkpt lat="46.76997" lon="5.82397">
        <ele>524.4</ele>
        <time>2022-03-09T12:06:07Z</time>
      </trkpt>
      <trkpt lat="46.77004" lon="5.82394">
        <ele>524.8</ele>
        <time>2022-03-09T12:06:08Z</time>
      </trkpt>
      <trkpt lat="46.7701" lon="5.82392">
        <ele>524.8</ele>
        <time>2022-03-09T12:06:09Z</time>
      </trkpt>
      <trkpt lat="46.77017" lon="5.82389">
        <ele>525.4</ele>
        <time>2022-03-09T12:06:10Z</time>
      </trkpt>
      <trkpt lat="46.77023" lon="5.82387">
        <ele>525.6</ele>
        <time>2022-03-09T12:06:11Z</time>
      </trkpt>
      <trkpt lat="46.77029" lon="5.82385">
        <ele>525.8</ele>
        <time>2022-03-09T12:06:12Z</time>
      </trkpt>
      <trkpt lat="46.77034" lon="5.82382">
        <ele>526</ele>
        <time>2022-03-09T12:06:13Z</time>
      </trkpt>
      <trkpt lat="46.7704" lon="5.8238">
        <ele>526.4</ele>
        <time>2022-03-09T12:06:14Z</time>
      </trkpt>
      <trkpt lat="46.77045" lon="5.82377">
        <ele>526.6</ele>
        <time>2022-03-09T12:06:15Z</time>
      </trkpt>
      <trkpt lat="46.77051" lon="5.82375">
        <ele>526.8</ele>
        <time>2022-03-09T12:06:16Z</time>
      </trkpt>
      <trkpt lat="46.77056" lon="5.82372">
        <ele>527.2</ele>
        <time>2022-03-09T12:06:17Z</time>
      </trkpt>
      <trkpt lat="46.77062" lon="5.8237">
        <ele>527.4</ele>
        <time>2022-03-09T12:06:18Z</time>
      </trkpt>
      <trkpt lat="46.77067" lon="5.82368">
        <ele>527.6</ele>
        <time>2022-03-09T12:06:19Z</time>
      </trkpt>
      <trkpt lat="46.77072" lon="5.82366">
        <ele>527.6</ele>
        <time>2022-03-09T12:06:20Z</time>
      </trkpt>
      <trkpt lat="46.77077" lon="5.82364">
        <ele>528.2</ele>
        <time>2022-03-09T12:06:21Z</time>
      </trkpt>
      <trkpt lat="46.77082" lon="5.82361">
        <ele>528.4</ele>
        <time>2022-03-09T12:06:22Z</time>
      </trkpt>
      <trkpt lat="46.77088" lon="5.82359">
        <ele>528.4</ele>
        <time>2022-03-09T12:06:23Z</time>
      </trkpt>
      <trkpt lat="46.77092" lon="5.82357">
        <ele>528.8</ele>
        <time>2022-03-09T12:06:24Z</time>
      </trkpt>
      <trkpt lat="46.77097" lon="5.82355">
        <ele>529</ele>
        <time>2022-03-09T12:06:25Z</time>
      </trkpt>
      <trkpt lat="46.77102" lon="5.82353">
        <ele>529.4</ele>
        <time>2022-03-09T12:06:26Z</time>
      </trkpt>
      <trkpt lat="46.77107" lon="5.82351">
        <ele>529.6</ele>
        <time>2022-03-09T12:06:27Z</time>
      </trkpt>
      <trkpt lat="46.77112" lon="5.82349">
        <ele>529.6</ele>
        <time>2022-03-09T12:06:28Z</time>
      </trkpt>
      <trkpt lat="46.77116" lon="5.82347">
        <ele>530</ele>
        <time>2022-03-09T12:06:29Z</time>
      </trkpt>
      <trkpt lat="46.77121" lon="5.82345">
        <ele>530.2</ele>
        <time>2022-03-09T12:06:30Z</time>
      </trkpt>
      <trkpt lat="46.77125" lon="5.82343">
        <ele>530.2</ele>
        <time>2022-03-09T12:06:31Z</time>
      </trkpt>
      <trkpt lat="46.7713" lon="5.82342">
        <ele>530.4</ele>
        <time>2022-03-09T12:06:32Z</time>
      </trkpt>
      <trkpt lat="46.77134" lon="5.8234">
        <ele>530.8</ele>
        <time>2022-03-09T12:06:33Z</time>
      </trkpt>
      <trkpt lat="46.77139" lon="5.82338">
        <ele>531</ele>
        <time>2022-03-09T12:06:34Z</time>
      </trkpt>
      <trkpt lat="46.77143" lon="5.82336">
        <ele>531.2</ele>
        <time>2022-03-09T12:06:35Z</time>
      </trkpt>
      <trkpt lat="46.77147" lon="5.82335">
        <ele>531.4</ele>
        <time>2022-03-09T12:06:36Z</time>
      </trkpt>
      <trkpt lat="46.77152" lon="5.82333">
        <ele>531.8</ele>
        <time>2022-03-09T12:06:37Z</time>
      </trkpt>
      <trkpt lat="46.77156" lon="5.82331">
        <ele>532</ele>
        <time>2022-03-09T12:06:38Z</time>
      </trkpt>
      <trkpt lat="46.7716" lon="5.8233">
        <ele>532.2</ele>
        <time>2022-03-09T12:06:39Z</time>
      </trkpt>
      <trkpt lat="46.77164" lon="5.82328">
        <ele>532.6</ele>
        <time>2022-03-09T12:06:40Z</time>
      </trkpt>
      <trkpt lat="46.77168" lon="5.82326">
        <ele>532.8</ele>
        <time>2022-03-09T12:06:41Z</time>
      </trkpt>
      <trkpt lat="46.77173" lon="5.82324">
        <ele>533</ele>
        <time>2022-03-09T12:06:42Z</time>
      </trkpt>
      <trkpt lat="46.77177" lon="5.82323">
        <ele>533.4</ele>
        <time>2022-03-09T12:06:43Z</time>
      </trkpt>
      <trkpt lat="46.77181" lon="5.82321">
        <ele>533.6</ele>
        <time>2022-03-09T12:06:44Z</time>
      </trkpt>
      <trkpt lat="46.77185" lon="5.82319">
        <ele>533.8</ele>
        <time>2022-03-09T12:06:45Z</time>
      </trkpt>
      <trkpt lat="46.77189" lon="5.82318">
        <ele>534</ele>
        <time>2022-03-09T12:06:46Z</time>
      </trkpt>
      <trkpt lat="46.77193" lon="5.82316">
        <ele>534</ele>
        <time>2022-03-09T12:06:47Z</time>
      </trkpt>
      <trkpt lat="46.77197" lon="5.82315">
        <ele>534.4</ele>
        <time>2022-03-09T12:06:48Z</time>
      </trkpt>
      <trkpt lat="46.77201" lon="5.82314">
        <ele>534.6</ele>
        <time>2022-03-09T12:06:49Z</time>
      </trkpt>
      <trkpt lat="46.77205" lon="5.82312">
        <ele>534.8</ele>
        <time>2022-03-09T12:06:50Z</time>
      </trkpt>
      <trkpt lat="46.77209" lon="5.82311">
        <ele>535</ele>
        <time>2022-03-09T12:06:51Z</time>
      </trkpt>
      <trkpt lat="46.77212" lon="5.82309">
        <ele>535.4</ele>
        <time>2022-03-09T12:06:52Z</time>
      </trkpt>
      <trkpt lat="46.77216" lon="5.82307">
        <ele>535.6</ele>
        <time>2022-03-09T12:06:53Z</time>
      </trkpt>
      <trkpt lat="46.7722" lon="5.82306">
        <ele>536</ele>
        <time>2022-03-09T12:06:54Z</time>
      </trkpt>
      <trkpt lat="46.77224" lon="5.82305">
        <ele>536.2</ele>
        <time>2022-03-09T12:06:55Z</time>
      </trkpt>
      <trkpt lat="46.77228" lon="5.82303">
        <ele>536.4</ele>
        <time>2022-03-09T12:06:56Z</time>
      </trkpt>
      <trkpt lat="46.77232" lon="5.82302">
        <ele>536.8</ele>
        <time>2022-03-09T12:06:57Z</time>
      </trkpt>
      <trkpt lat="46.77236" lon="5.823">
        <ele>537</ele>
        <time>2022-03-09T12:06:58Z</time>
      </trkpt>
      <trkpt lat="46.77239" lon="5.82299">
        <ele>537.2</ele>
        <time>2022-03-09T12:06:59Z</time>
      </trkpt>
      <trkpt lat="46.77243" lon="5.82297">
        <ele>537.2</ele>
        <time>2022-03-09T12:07:00Z</time>
      </trkpt>
      <trkpt lat="46.77247" lon="5.82296">
        <ele>537.6</ele>
        <time>2022-03-09T12:07:01Z</time>
      </trkpt>
      <trkpt lat="46.7725" lon="5.82294">
        <ele>537.6</ele>
        <time>2022-03-09T12:07:02Z</time>
      </trkpt>
      <trkpt lat="46.77254" lon="5.82292">
        <ele>538</ele>
        <time>2022-03-09T12:07:03Z</time>
      </trkpt>
      <trkpt lat="46.77257" lon="5.82291">
        <ele>538.2</ele>
        <time>2022-03-09T12:07:04Z</time>
      </trkpt>
      <trkpt lat="46.77261" lon="5.82289">
        <ele>538.2</ele>
        <time>2022-03-09T12:07:05Z</time>
      </trkpt>
      <trkpt lat="46.77265" lon="5.82287">
        <ele>538.6</ele>
        <time>2022-03-09T12:07:06Z</time>
      </trkpt>
      <trkpt lat="46.77268" lon="5.82286">
        <ele>538.6</ele>
        <time>2022-03-09T12:07:07Z</time>
      </trkpt>
      <trkpt lat="46.77272" lon="5.82285">
        <ele>538.8</ele>
        <time>2022-03-09T12:07:08Z</time>
      </trkpt>
      <trkpt lat="46.77276" lon="5.82284">
        <ele>538.8</ele>
        <time>2022-03-09T12:07:09Z</time>
      </trkpt>
      <trkpt lat="46.77279" lon="5.82283">
        <ele>539.2</ele>
        <time>2022-03-09T12:07:10Z</time>
      </trkpt>
      <trkpt lat="46.77283" lon="5.82281">
        <ele>539.2</ele>
        <time>2022-03-09T12:07:11Z</time>
      </trkpt>
      <trkpt lat="46.77286" lon="5.8228">
        <ele>539.6</ele>
        <time>2022-03-09T12:07:12Z</time>
      </trkpt>
      <trkpt lat="46.7729" lon="5.82278">
        <ele>539.6</ele>
        <time>2022-03-09T12:07:13Z</time>
      </trkpt>
      <trkpt lat="46.77293" lon="5.82277">
        <ele>540</ele>
        <time>2022-03-09T12:07:14Z</time>
      </trkpt>
      <trkpt lat="46.77297" lon="5.82275">
        <ele>540</ele>
        <time>2022-03-09T12:07:15Z</time>
      </trkpt>
      <trkpt lat="46.773" lon="5.82274">
        <ele>540.4</ele>
        <time>2022-03-09T12:07:16Z</time>
      </trkpt>
      <trkpt lat="46.77303" lon="5.82273">
        <ele>540.6</ele>
        <time>2022-03-09T12:07:17Z</time>
      </trkpt>
      <trkpt lat="46.77307" lon="5.82272">
        <ele>540.8</ele>
        <time>2022-03-09T12:07:18Z</time>
      </trkpt>
      <trkpt lat="46.7731" lon="5.82271">
        <ele>541.2</ele>
        <time>2022-03-09T12:07:19Z</time>
      </trkpt>
      <trkpt lat="46.77313" lon="5.8227">
        <ele>541.4</ele>
        <time>2022-03-09T12:07:20Z</time>
      </trkpt>
      <trkpt lat="46.77316" lon="5.82268">
        <ele>541.4</ele>
        <time>2022-03-09T12:07:21Z</time>
      </trkpt>
      <trkpt lat="46.77319" lon="5.82267">
        <ele>541.8</ele>
        <time>2022-03-09T12:07:22Z</time>
      </trkpt>
      <trkpt lat="46.77322" lon="5.82266">
        <ele>542</ele>
        <time>2022-03-09T12:07:23Z</time>
      </trkpt>
      <trkpt lat="46.77326" lon="5.82264">
        <ele>542.2</ele>
        <time>2022-03-09T12:07:24Z</time>
      </trkpt>
      <trkpt lat="46.77329" lon="5.82263">
        <ele>542.2</ele>
        <time>2022-03-09T12:07:25Z</time>
      </trkpt>
      <trkpt lat="46.77332" lon="5.82261">
        <ele>542.6</ele>
        <time>2022-03-09T12:07:26Z</time>
      </trkpt>
      <trkpt lat="46.77336" lon="5.8226">
        <ele>542.8</ele>
        <time>2022-03-09T12:07:27Z</time>
      </trkpt>
      <trkpt lat="46.77339" lon="5.82258">
        <ele>543</ele>
        <time>2022-03-09T12:07:28Z</time>
      </trkpt>
      <trkpt lat="46.77342" lon="5.82257">
        <ele>543.2</ele>
        <time>2022-03-09T12:07:29Z</time>
      </trkpt>
      <trkpt lat="46.77345" lon="5.82255">
        <ele>543.6</ele>
        <time>2022-03-09T12:07:30Z</time>
      </trkpt>
      <trkpt lat="46.77349" lon="5.82254">
        <ele>543.8</ele>
        <time>2022-03-09T12:07:31Z</time>
      </trkpt>
      <trkpt lat="46.77352" lon="5.82252">
        <ele>543.8</ele>
        <time>2022-03-09T12:07:32Z</time>
      </trkpt>
      <trkpt lat="46.77356" lon="5.8225">
        <ele>544.2</ele>
        <time>2022-03-09T12:07:33Z</time>
      </trkpt>
      <trkpt lat="46.77359" lon="5.82248">
        <ele>544.2</ele>
        <time>2022-03-09T12:07:34Z</time>
      </trkpt>
      <trkpt lat="46.77363" lon="5.82245">
        <ele>544.6</ele>
        <time>2022-03-09T12:07:35Z</time>
      </trkpt>
      <trkpt lat="46.77366" lon="5.82243">
        <ele>544.6</ele>
        <time>2022-03-09T12:07:36Z</time>
      </trkpt>
      <trkpt lat="46.77369" lon="5.82241">
        <ele>544.8</ele>
        <time>2022-03-09T12:07:37Z</time>
      </trkpt>
      <trkpt lat="46.77372" lon="5.82239">
        <ele>544.8</ele>
        <time>2022-03-09T12:07:38Z</time>
      </trkpt>
      <trkpt lat="46.77375" lon="5.82236">
        <ele>545.2</ele>
        <time>2022-03-09T12:07:39Z</time>
      </trkpt>
      <trkpt lat="46.77378" lon="5.82234">
        <ele>545.2</ele>
        <time>2022-03-09T12:07:40Z</time>
      </trkpt>
      <trkpt lat="46.7738" lon="5.82231">
        <ele>545.6</ele>
        <time>2022-03-09T12:07:41Z</time>
      </trkpt>
      <trkpt lat="46.77383" lon="5.82229">
        <ele>545.8</ele>
        <time>2022-03-09T12:07:42Z</time>
      </trkpt>
      <trkpt lat="46.77386" lon="5.82226">
        <ele>546</ele>
        <time>2022-03-09T12:07:43Z</time>
      </trkpt>
      <trkpt lat="46.77389" lon="5.82224">
        <ele>546</ele>
        <time>2022-03-09T12:07:44Z</time>
      </trkpt>
      <trkpt lat="46.77392" lon="5.82221">
        <ele>546.4</ele>
        <time>2022-03-09T12:07:45Z</time>
      </trkpt>
      <trkpt lat="46.77395" lon="5.82219">
        <ele>546.6</ele>
        <time>2022-03-09T12:07:46Z</time>
      </trkpt>
      <trkpt lat="46.77398" lon="5.82216">
        <ele>546.8</ele>
        <time>2022-03-09T12:07:47Z</time>
      </trkpt>
      <trkpt lat="46.77401" lon="5.82213">
        <ele>546.8</ele>
        <time>2022-03-09T12:07:48Z</time>
      </trkpt>
      <trkpt lat="46.77404" lon="5.8221">
        <ele>547.2</ele>
        <time>2022-03-09T12:07:49Z</time>
      </trkpt>
      <trkpt lat="46.77407" lon="5.82207">
        <ele>547.4</ele>
        <time>2022-03-09T12:07:50Z</time>
      </trkpt>
      <trkpt lat="46.7741" lon="5.82204">
        <ele>547.6</ele>
        <time>2022-03-09T12:07:51Z</time>
      </trkpt>
      <trkpt lat="46.77414" lon="5.82202">
        <ele>547.8</ele>
        <time>2022-03-09T12:07:52Z</time>
      </trkpt>
      <trkpt lat="46.77417" lon="5.822">
        <ele>548</ele>
        <time>2022-03-09T12:07:53Z</time>
      </trkpt>
      <trkpt lat="46.77421" lon="5.82198">
        <ele>548.2</ele>
        <time>2022-03-09T12:07:54Z</time>
      </trkpt>
      <trkpt lat="46.77425" lon="5.82196">
        <ele>548.6</ele>
        <time>2022-03-09T12:07:55Z</time>
      </trkpt>
      <trkpt lat="46.77428" lon="5.82194">
        <ele>548.8</ele>
        <time>2022-03-09T12:07:56Z</time>
      </trkpt>
      <trkpt lat="46.77432" lon="5.82193">
        <ele>549</ele>
        <time>2022-03-09T12:07:57Z</time>
      </trkpt>
      <trkpt lat="46.77435" lon="5.82191">
        <ele>549.2</ele>
        <time>2022-03-09T12:07:58Z</time>
      </trkpt>
      <trkpt lat="46.77438" lon="5.8219">
        <ele>549.4</ele>
        <time>2022-03-09T12:07:59Z</time>
      </trkpt>
      <trkpt lat="46.77441" lon="5.8219">
        <ele>549.6</ele>
        <time>2022-03-09T12:08:00Z</time>
      </trkpt>
      <trkpt lat="46.77445" lon="5.82189">
        <ele>549.6</ele>
        <time>2022-03-09T12:08:01Z</time>
      </trkpt>
      <trkpt lat="46.77449" lon="5.82189">
        <ele>550</ele>
        <time>2022-03-09T12:08:02Z</time>
      </trkpt>
      <trkpt lat="46.77453" lon="5.82189">
        <ele>550.2</ele>
        <time>2022-03-09T12:08:03Z</time>
      </trkpt>
      <trkpt lat="46.77457" lon="5.82188">
        <ele>550.6</ele>
        <time>2022-03-09T12:08:04Z</time>
      </trkpt>
      <trkpt lat="46.77461" lon="5.82188">
        <ele>550.8</ele>
        <time>2022-03-09T12:08:05Z</time>
      </trkpt>
      <trkpt lat="46.77464" lon="5.82187">
        <ele>550.8</ele>
        <time>2022-03-09T12:08:06Z</time>
      </trkpt>
      <trkpt lat="46.77468" lon="5.82187">
        <ele>551.2</ele>
        <time>2022-03-09T12:08:07Z</time>
      </trkpt>
      <trkpt lat="46.77471" lon="5.82187">
        <ele>551.4</ele>
        <time>2022-03-09T12:08:08Z</time>
      </trkpt>
      <trkpt lat="46.77475" lon="5.82187">
        <ele>551.4</ele>
        <time>2022-03-09T12:08:09Z</time>
      </trkpt>
      <trkpt lat="46.77479" lon="5.82187">
        <ele>551.8</ele>
        <time>2022-03-09T12:08:10Z</time>
      </trkpt>
      <trkpt lat="46.77483" lon="5.82187">
        <ele>551.8</ele>
        <time>2022-03-09T12:08:11Z</time>
      </trkpt>
      <trkpt lat="46.77487" lon="5.82187">
        <ele>552</ele>
        <time>2022-03-09T12:08:12Z</time>
      </trkpt>
      <trkpt lat="46.77491" lon="5.82188">
        <ele>552</ele>
        <time>2022-03-09T12:08:13Z</time>
      </trkpt>
      <trkpt lat="46.77495" lon="5.82188">
        <ele>552.4</ele>
        <time>2022-03-09T12:08:14Z</time>
      </trkpt>
      <trkpt lat="46.77499" lon="5.82188">
        <ele>552.4</ele>
        <time>2022-03-09T12:08:15Z</time>
      </trkpt>
      <trkpt lat="46.77503" lon="5.82188">
        <ele>552.6</ele>
        <time>2022-03-09T12:08:16Z</time>
      </trkpt>
      <trkpt lat="46.77507" lon="5.82188">
        <ele>552.6</ele>
        <time>2022-03-09T12:08:17Z</time>
      </trkpt>
      <trkpt lat="46.77511" lon="5.82187">
        <ele>553</ele>
        <time>2022-03-09T12:08:18Z</time>
      </trkpt>
      <trkpt lat="46.77515" lon="5.82187">
        <ele>553</ele>
        <time>2022-03-09T12:08:19Z</time>
      </trkpt>
      <trkpt lat="46.77519" lon="5.82187">
        <ele>553.2</ele>
        <time>2022-03-09T12:08:20Z</time>
      </trkpt>
      <trkpt lat="46.77523" lon="5.82188">
        <ele>553.4</ele>
        <time>2022-03-09T12:08:21Z</time>
      </trkpt>
      <trkpt lat="46.77527" lon="5.82188">
        <ele>553.4</ele>
        <time>2022-03-09T12:08:22Z</time>
      </trkpt>
      <trkpt lat="46.77531" lon="5.82187">
        <ele>553.8</ele>
        <time>2022-03-09T12:08:23Z</time>
      </trkpt>
      <trkpt lat="46.77536" lon="5.82187">
        <ele>553.8</ele>
        <time>2022-03-09T12:08:24Z</time>
      </trkpt>
      <trkpt lat="46.7754" lon="5.82187">
        <ele>554.2</ele>
        <time>2022-03-09T12:08:25Z</time>
      </trkpt>
      <trkpt lat="46.77544" lon="5.82187">
        <ele>554.4</ele>
        <time>2022-03-09T12:08:26Z</time>
      </trkpt>
      <trkpt lat="46.77548" lon="5.82186">
        <ele>554.4</ele>
        <time>2022-03-09T12:08:27Z</time>
      </trkpt>
      <trkpt lat="46.77552" lon="5.82186">
        <ele>554.6</ele>
        <time>2022-03-09T12:08:28Z</time>
      </trkpt>
      <trkpt lat="46.77556" lon="5.82186">
        <ele>554.6</ele>
        <time>2022-03-09T12:08:29Z</time>
      </trkpt>
      <trkpt lat="46.7756" lon="5.82186">
        <ele>555</ele>
        <time>2022-03-09T12:08:30Z</time>
      </trkpt>
      <trkpt lat="46.77564" lon="5.82186">
        <ele>555</ele>
        <time>2022-03-09T12:08:31Z</time>
      </trkpt>
      <trkpt lat="46.77568" lon="5.82186">
        <ele>555</ele>
        <time>2022-03-09T12:08:32Z</time>
      </trkpt>
      <trkpt lat="46.77572" lon="5.82186">
        <ele>555.2</ele>
        <time>2022-03-09T12:08:33Z</time>
      </trkpt>
      <trkpt lat="46.77576" lon="5.82186">
        <ele>555.2</ele>
        <time>2022-03-09T12:08:34Z</time>
      </trkpt>
      <trkpt lat="46.7758" lon="5.82186">
        <ele>555.4</ele>
        <time>2022-03-09T12:08:35Z</time>
      </trkpt>
      <trkpt lat="46.77584" lon="5.82185">
        <ele>555.4</ele>
        <time>2022-03-09T12:08:36Z</time>
      </trkpt>
      <trkpt lat="46.77588" lon="5.82185">
        <ele>555.8</ele>
        <time>2022-03-09T12:08:37Z</time>
      </trkpt>
      <trkpt lat="46.77592" lon="5.82185">
        <ele>555.8</ele>
        <time>2022-03-09T12:08:38Z</time>
      </trkpt>
      <trkpt lat="46.77596" lon="5.82185">
        <ele>556.2</ele>
        <time>2022-03-09T12:08:39Z</time>
      </trkpt>
      <trkpt lat="46.776" lon="5.82185">
        <ele>556.2</ele>
        <time>2022-03-09T12:08:40Z</time>
      </trkpt>
      <trkpt lat="46.77604" lon="5.82185">
        <ele>556.6</ele>
        <time>2022-03-09T12:08:41Z</time>
      </trkpt>
      <trkpt lat="46.77608" lon="5.82186">
        <ele>556.6</ele>
        <time>2022-03-09T12:08:42Z</time>
      </trkpt>
      <trkpt lat="46.77612" lon="5.82186">
        <ele>556.6</ele>
        <time>2022-03-09T12:08:43Z</time>
      </trkpt>
      <trkpt lat="46.77616" lon="5.82186">
        <ele>556.8</ele>
        <time>2022-03-09T12:08:44Z</time>
      </trkpt>
      <trkpt lat="46.77616" lon="5.82186">
        <ele>556.8</ele>
        <time>2022-03-09T12:08:45Z</time>
      </trkpt>
      <trkpt lat="46.7762" lon="5.82185">
        <ele>556.8</ele>
        <time>2022-03-09T12:08:46Z</time>
      </trkpt>
      <trkpt lat="46.77624" lon="5.82185">
        <ele>557.2</ele>
        <time>2022-03-09T12:08:47Z</time>
      </trkpt>
      <trkpt lat="46.77628" lon="5.82185">
        <ele>557.4</ele>
        <time>2022-03-09T12:08:48Z</time>
      </trkpt>
      <trkpt lat="46.77632" lon="5.82185">
        <ele>557.4</ele>
        <time>2022-03-09T12:08:49Z</time>
      </trkpt>
      <trkpt lat="46.77636" lon="5.82184">
        <ele>557.8</ele>
        <time>2022-03-09T12:08:50Z</time>
      </trkpt>
      <trkpt lat="46.7764" lon="5.82184">
        <ele>557.8</ele>
        <time>2022-03-09T12:08:51Z</time>
      </trkpt>
      <trkpt lat="46.77644" lon="5.82184">
        <ele>558</ele>
        <time>2022-03-09T12:08:52Z</time>
      </trkpt>
      <trkpt lat="46.77648" lon="5.82183">
        <ele>558</ele>
        <time>2022-03-09T12:08:53Z</time>
      </trkpt>
      <trkpt lat="46.77651" lon="5.82183">
        <ele>558.4</ele>
        <time>2022-03-09T12:08:54Z</time>
      </trkpt>
      <trkpt lat="46.77655" lon="5.82183">
        <ele>558.4</ele>
        <time>2022-03-09T12:08:55Z</time>
      </trkpt>
      <trkpt lat="46.77659" lon="5.82183">
        <ele>558.6</ele>
        <time>2022-03-09T12:08:56Z</time>
      </trkpt>
      <trkpt lat="46.77663" lon="5.82183">
        <ele>558.6</ele>
        <time>2022-03-09T12:08:57Z</time>
      </trkpt>
      <trkpt lat="46.77666" lon="5.82183">
        <ele>559</ele>
        <time>2022-03-09T12:08:58Z</time>
      </trkpt>
      <trkpt lat="46.7767" lon="5.82183">
        <ele>559</ele>
        <time>2022-03-09T12:08:59Z</time>
      </trkpt>
      <trkpt lat="46.77674" lon="5.82183">
        <ele>559.4</ele>
        <time>2022-03-09T12:09:00Z</time>
      </trkpt>
      <trkpt lat="46.77677" lon="5.82183">
        <ele>559.4</ele>
        <time>2022-03-09T12:09:01Z</time>
      </trkpt>
      <trkpt lat="46.7768" lon="5.82183">
        <ele>559.8</ele>
        <time>2022-03-09T12:09:02Z</time>
      </trkpt>
      <trkpt lat="46.77684" lon="5.82183">
        <ele>560</ele>
        <time>2022-03-09T12:09:03Z</time>
      </trkpt>
      <trkpt lat="46.77687" lon="5.82183">
        <ele>560.2</ele>
        <time>2022-03-09T12:09:04Z</time>
      </trkpt>
      <trkpt lat="46.7769" lon="5.82182">
        <ele>560.4</ele>
        <time>2022-03-09T12:09:05Z</time>
      </trkpt>
      <trkpt lat="46.77694" lon="5.82183">
        <ele>560.4</ele>
        <time>2022-03-09T12:09:06Z</time>
      </trkpt>
      <trkpt lat="46.77698" lon="5.82182">
        <ele>560.6</ele>
        <time>2022-03-09T12:09:07Z</time>
      </trkpt>
      <trkpt lat="46.77702" lon="5.82182">
        <ele>560.6</ele>
        <time>2022-03-09T12:09:08Z</time>
      </trkpt>
      <trkpt lat="46.77705" lon="5.82183">
        <ele>560.8</ele>
        <time>2022-03-09T12:09:09Z</time>
      </trkpt>
      <trkpt lat="46.7771" lon="5.82183">
        <ele>560.8</ele>
        <time>2022-03-09T12:09:10Z</time>
      </trkpt>
      <trkpt lat="46.77714" lon="5.82184">
        <ele>561.2</ele>
        <time>2022-03-09T12:09:11Z</time>
      </trkpt>
      <trkpt lat="46.77718" lon="5.82185">
        <ele>561.2</ele>
        <time>2022-03-09T12:09:12Z</time>
      </trkpt>
      <trkpt lat="46.77721" lon="5.82187">
        <ele>561.2</ele>
        <time>2022-03-09T12:09:13Z</time>
      </trkpt>
      <trkpt lat="46.77725" lon="5.82189">
        <ele>561.4</ele>
        <time>2022-03-09T12:09:14Z</time>
      </trkpt>
      <trkpt lat="46.77728" lon="5.82192">
        <ele>561.4</ele>
        <time>2022-03-09T12:09:15Z</time>
      </trkpt>
      <trkpt lat="46.77731" lon="5.82195">
        <ele>561.6</ele>
        <time>2022-03-09T12:09:16Z</time>
      </trkpt>
      <trkpt lat="46.77734" lon="5.82199">
        <ele>561.6</ele>
        <time>2022-03-09T12:09:17Z</time>
      </trkpt>
      <trkpt lat="46.77737" lon="5.82203">
        <ele>562</ele>
        <time>2022-03-09T12:09:18Z</time>
      </trkpt>
      <trkpt lat="46.77739" lon="5.82207">
        <ele>562</ele>
        <time>2022-03-09T12:09:19Z</time>
      </trkpt>
      <trkpt lat="46.77741" lon="5.82212">
        <ele>562.6</ele>
        <time>2022-03-09T12:09:20Z</time>
      </trkpt>
      <trkpt lat="46.77743" lon="5.82217">
        <ele>562.6</ele>
        <time>2022-03-09T12:09:21Z</time>
      </trkpt>
      <trkpt lat="46.77744" lon="5.82221">
        <ele>562.8</ele>
        <time>2022-03-09T12:09:22Z</time>
      </trkpt>
      <trkpt lat="46.77745" lon="5.82226">
        <ele>562.8</ele>
        <time>2022-03-09T12:09:23Z</time>
      </trkpt>
      <trkpt lat="46.77746" lon="5.82231">
        <ele>563.2</ele>
        <time>2022-03-09T12:09:24Z</time>
      </trkpt>
      <trkpt lat="46.77747" lon="5.82236">
        <ele>563.4</ele>
        <time>2022-03-09T12:09:25Z</time>
      </trkpt>
      <trkpt lat="46.77748" lon="5.82242">
        <ele>563.4</ele>
        <time>2022-03-09T12:09:26Z</time>
      </trkpt>
      <trkpt lat="46.77749" lon="5.82247">
        <ele>563.6</ele>
        <time>2022-03-09T12:09:27Z</time>
      </trkpt>
      <trkpt lat="46.7775" lon="5.82253">
        <ele>563.6</ele>
        <time>2022-03-09T12:09:28Z</time>
      </trkpt>
      <trkpt lat="46.77751" lon="5.82258">
        <ele>563.6</ele>
        <time>2022-03-09T12:09:29Z</time>
      </trkpt>
      <trkpt lat="46.77752" lon="5.82264">
        <ele>564</ele>
        <time>2022-03-09T12:09:30Z</time>
      </trkpt>
      <trkpt lat="46.77753" lon="5.8227">
        <ele>564</ele>
        <time>2022-03-09T12:09:31Z</time>
      </trkpt>
      <trkpt lat="46.77754" lon="5.8228">
        <ele>564.2</ele>
        <time>2022-03-09T12:09:32Z</time>
      </trkpt>
      <trkpt lat="46.77755" lon="5.82286">
        <ele>564.2</ele>
        <time>2022-03-09T12:09:33Z</time>
      </trkpt>
      <trkpt lat="46.77756" lon="5.82291">
        <ele>564.6</ele>
        <time>2022-03-09T12:09:34Z</time>
      </trkpt>
      <trkpt lat="46.77756" lon="5.82296">
        <ele>564.6</ele>
        <time>2022-03-09T12:09:35Z</time>
      </trkpt>
      <trkpt lat="46.77758" lon="5.82301">
        <ele>565</ele>
        <time>2022-03-09T12:09:36Z</time>
      </trkpt>
      <trkpt lat="46.77759" lon="5.82305">
        <ele>565</ele>
        <time>2022-03-09T12:09:37Z</time>
      </trkpt>
      <trkpt lat="46.7776" lon="5.8231">
        <ele>565.2</ele>
        <time>2022-03-09T12:09:38Z</time>
      </trkpt>
      <trkpt lat="46.77762" lon="5.82314">
        <ele>565.2</ele>
        <time>2022-03-09T12:09:39Z</time>
      </trkpt>
      <trkpt lat="46.77764" lon="5.82319">
        <ele>565.6</ele>
        <time>2022-03-09T12:09:40Z</time>
      </trkpt>
      <trkpt lat="46.77765" lon="5.82323">
        <ele>565.6</ele>
        <time>2022-03-09T12:09:41Z</time>
      </trkpt>
      <trkpt lat="46.77767" lon="5.82328">
        <ele>566</ele>
        <time>2022-03-09T12:09:42Z</time>
      </trkpt>
      <trkpt lat="46.77769" lon="5.82332">
        <ele>566</ele>
        <time>2022-03-09T12:09:43Z</time>
      </trkpt>
      <trkpt lat="46.77771" lon="5.82337">
        <ele>566.4</ele>
        <time>2022-03-09T12:09:44Z</time>
      </trkpt>
      <trkpt lat="46.77774" lon="5.8234">
        <ele>566.4</ele>
        <time>2022-03-09T12:09:45Z</time>
      </trkpt>
      <trkpt lat="46.77777" lon="5.82344">
        <ele>566.8</ele>
        <time>2022-03-09T12:09:46Z</time>
      </trkpt>
      <trkpt lat="46.7778" lon="5.82347">
        <ele>566.8</ele>
        <time>2022-03-09T12:09:47Z</time>
      </trkpt>
      <trkpt lat="46.77783" lon="5.82349">
        <ele>567</ele>
        <time>2022-03-09T12:09:48Z</time>
      </trkpt>
      <trkpt lat="46.77787" lon="5.82352">
        <ele>567.2</ele>
        <time>2022-03-09T12:09:49Z</time>
      </trkpt>
      <trkpt lat="46.7779" lon="5.82355">
        <ele>567.2</ele>
        <time>2022-03-09T12:09:50Z</time>
      </trkpt>
      <trkpt lat="46.77793" lon="5.82357">
        <ele>567.6</ele>
        <time>2022-03-09T12:09:51Z</time>
      </trkpt>
      <trkpt lat="46.77797" lon="5.8236">
        <ele>567.6</ele>
        <time>2022-03-09T12:09:52Z</time>
      </trkpt>
      <trkpt lat="46.778" lon="5.82362">
        <ele>568</ele>
        <time>2022-03-09T12:09:53Z</time>
      </trkpt>
      <trkpt lat="46.77804" lon="5.82364">
        <ele>568.2</ele>
        <time>2022-03-09T12:09:54Z</time>
      </trkpt>
      <trkpt lat="46.77807" lon="5.82367">
        <ele>568.2</ele>
        <time>2022-03-09T12:09:55Z</time>
      </trkpt>
      <trkpt lat="46.77811" lon="5.82369">
        <ele>568.4</ele>
        <time>2022-03-09T12:09:56Z</time>
      </trkpt>
      <trkpt lat="46.77815" lon="5.82371">
        <ele>568.4</ele>
        <time>2022-03-09T12:09:57Z</time>
      </trkpt>
      <trkpt lat="46.77819" lon="5.82373">
        <ele>568.8</ele>
        <time>2022-03-09T12:09:58Z</time>
      </trkpt>
      <trkpt lat="46.77823" lon="5.82375">
        <ele>569</ele>
        <time>2022-03-09T12:09:59Z</time>
      </trkpt>
      <trkpt lat="46.77827" lon="5.82378">
        <ele>569</ele>
        <time>2022-03-09T12:10:00Z</time>
      </trkpt>
      <trkpt lat="46.77831" lon="5.8238">
        <ele>569.2</ele>
        <time>2022-03-09T12:10:01Z</time>
      </trkpt>
      <trkpt lat="46.77835" lon="5.82382">
        <ele>569.4</ele>
        <time>2022-03-09T12:10:02Z</time>
      </trkpt>
      <trkpt lat="46.77838" lon="5.82384">
        <ele>569.8</ele>
        <time>2022-03-09T12:10:03Z</time>
      </trkpt>
      <trkpt lat="46.77842" lon="5.82386">
        <ele>570</ele>
        <time>2022-03-09T12:10:04Z</time>
      </trkpt>
      <trkpt lat="46.77845" lon="5.82389">
        <ele>570.2</ele>
        <time>2022-03-09T12:10:05Z</time>
      </trkpt>
      <trkpt lat="46.77849" lon="5.82391">
        <ele>570.2</ele>
        <time>2022-03-09T12:10:06Z</time>
      </trkpt>
      <trkpt lat="46.77852" lon="5.82393">
        <ele>570.6</ele>
        <time>2022-03-09T12:10:07Z</time>
      </trkpt>
      <trkpt lat="46.77856" lon="5.82395">
        <ele>570.8</ele>
        <time>2022-03-09T12:10:08Z</time>
      </trkpt>
      <trkpt lat="46.7786" lon="5.82397">
        <ele>570.8</ele>
        <time>2022-03-09T12:10:09Z</time>
      </trkpt>
      <trkpt lat="46.77864" lon="5.82399">
        <ele>571</ele>
        <time>2022-03-09T12:10:10Z</time>
      </trkpt>
      <trkpt lat="46.77867" lon="5.82401">
        <ele>571.2</ele>
        <time>2022-03-09T12:10:11Z</time>
      </trkpt>
      <trkpt lat="46.77871" lon="5.82403">
        <ele>571.2</ele>
        <time>2022-03-09T12:10:12Z</time>
      </trkpt>
      <trkpt lat="46.77875" lon="5.82406">
        <ele>571.2</ele>
        <time>2022-03-09T12:10:13Z</time>
      </trkpt>
      <trkpt lat="46.77879" lon="5.82408">
        <ele>571.2</ele>
        <time>2022-03-09T12:10:14Z</time>
      </trkpt>
      <trkpt lat="46.77883" lon="5.82411">
        <ele>571.4</ele>
        <time>2022-03-09T12:10:15Z</time>
      </trkpt>
      <trkpt lat="46.77886" lon="5.82413">
        <ele>571.6</ele>
        <time>2022-03-09T12:10:16Z</time>
      </trkpt>
      <trkpt lat="46.7789" lon="5.82415">
        <ele>571.6</ele>
        <time>2022-03-09T12:10:17Z</time>
      </trkpt>
      <trkpt lat="46.77894" lon="5.82417">
        <ele>572.2</ele>
        <time>2022-03-09T12:10:18Z</time>
      </trkpt>
      <trkpt lat="46.77897" lon="5.82419">
        <ele>572.2</ele>
        <time>2022-03-09T12:10:19Z</time>
      </trkpt>
      <trkpt lat="46.779" lon="5.82421">
        <ele>572.6</ele>
        <time>2022-03-09T12:10:20Z</time>
      </trkpt>
      <trkpt lat="46.77904" lon="5.82424">
        <ele>572.8</ele>
        <time>2022-03-09T12:10:21Z</time>
      </trkpt>
      <trkpt lat="46.77907" lon="5.82426">
        <ele>572.8</ele>
        <time>2022-03-09T12:10:22Z</time>
      </trkpt>
      <trkpt lat="46.77911" lon="5.82428">
        <ele>573</ele>
        <time>2022-03-09T12:10:23Z</time>
      </trkpt>
      <trkpt lat="46.77914" lon="5.8243">
        <ele>573.2</ele>
        <time>2022-03-09T12:10:24Z</time>
      </trkpt>
      <trkpt lat="46.77918" lon="5.82432">
        <ele>573.4</ele>
        <time>2022-03-09T12:10:25Z</time>
      </trkpt>
      <trkpt lat="46.77921" lon="5.82434">
        <ele>573.4</ele>
        <time>2022-03-09T12:10:26Z</time>
      </trkpt>
      <trkpt lat="46.77925" lon="5.82436">
        <ele>573.8</ele>
        <time>2022-03-09T12:10:27Z</time>
      </trkpt>
      <trkpt lat="46.77928" lon="5.82439">
        <ele>573.8</ele>
        <time>2022-03-09T12:10:28Z</time>
      </trkpt>
      <trkpt lat="46.77932" lon="5.82441">
        <ele>574.2</ele>
        <time>2022-03-09T12:10:29Z</time>
      </trkpt>
      <trkpt lat="46.77936" lon="5.82443">
        <ele>574.2</ele>
        <time>2022-03-09T12:10:30Z</time>
      </trkpt>
      <trkpt lat="46.77939" lon="5.82445">
        <ele>574.6</ele>
        <time>2022-03-09T12:10:31Z</time>
      </trkpt>
      <trkpt lat="46.77942" lon="5.82447">
        <ele>574.6</ele>
        <time>2022-03-09T12:10:32Z</time>
      </trkpt>
      <trkpt lat="46.77946" lon="5.82449">
        <ele>575</ele>
        <time>2022-03-09T12:10:33Z</time>
      </trkpt>
      <trkpt lat="46.77949" lon="5.8245">
        <ele>575</ele>
        <time>2022-03-09T12:10:34Z</time>
      </trkpt>
      <trkpt lat="46.77952" lon="5.82452">
        <ele>575.4</ele>
        <time>2022-03-09T12:10:35Z</time>
      </trkpt>
      <trkpt lat="46.77955" lon="5.82454">
        <ele>575.6</ele>
        <time>2022-03-09T12:10:36Z</time>
      </trkpt>
      <trkpt lat="46.77958" lon="5.82456">
        <ele>575.6</ele>
        <time>2022-03-09T12:10:37Z</time>
      </trkpt>
      <trkpt lat="46.77961" lon="5.82458">
        <ele>576</ele>
        <time>2022-03-09T12:10:38Z</time>
      </trkpt>
      <trkpt lat="46.77964" lon="5.8246">
        <ele>576</ele>
        <time>2022-03-09T12:10:39Z</time>
      </trkpt>
      <trkpt lat="46.77967" lon="5.82462">
        <ele>576.4</ele>
        <time>2022-03-09T12:10:40Z</time>
      </trkpt>
      <trkpt lat="46.7797" lon="5.82464">
        <ele>576.4</ele>
        <time>2022-03-09T12:10:41Z</time>
      </trkpt>
      <trkpt lat="46.77973" lon="5.82466">
        <ele>576.8</ele>
        <time>2022-03-09T12:10:42Z</time>
      </trkpt>
      <trkpt lat="46.77977" lon="5.82468">
        <ele>576.8</ele>
        <time>2022-03-09T12:10:43Z</time>
      </trkpt>
      <trkpt lat="46.7798" lon="5.8247">
        <ele>577</ele>
        <time>2022-03-09T12:10:44Z</time>
      </trkpt>
      <trkpt lat="46.77983" lon="5.82472">
        <ele>577</ele>
        <time>2022-03-09T12:10:45Z</time>
      </trkpt>
      <trkpt lat="46.77987" lon="5.82475">
        <ele>577.4</ele>
        <time>2022-03-09T12:10:46Z</time>
      </trkpt>
      <trkpt lat="46.7799" lon="5.82477">
        <ele>577.4</ele>
        <time>2022-03-09T12:10:47Z</time>
      </trkpt>
      <trkpt lat="46.77993" lon="5.82479">
        <ele>577.4</ele>
        <time>2022-03-09T12:10:48Z</time>
      </trkpt>
      <trkpt lat="46.77997" lon="5.82481">
        <ele>577.8</ele>
        <time>2022-03-09T12:10:49Z</time>
      </trkpt>
      <trkpt lat="46.78" lon="5.82483">
        <ele>577.8</ele>
        <time>2022-03-09T12:10:50Z</time>
      </trkpt>
      <trkpt lat="46.78004" lon="5.82485">
        <ele>578</ele>
        <time>2022-03-09T12:10:51Z</time>
      </trkpt>
      <trkpt lat="46.78007" lon="5.82487">
        <ele>578.4</ele>
        <time>2022-03-09T12:10:52Z</time>
      </trkpt>
      <trkpt lat="46.7801" lon="5.82489">
        <ele>578.4</ele>
        <time>2022-03-09T12:10:53Z</time>
      </trkpt>
      <trkpt lat="46.78014" lon="5.82491">
        <ele>578.6</ele>
        <time>2022-03-09T12:10:54Z</time>
      </trkpt>
      <trkpt lat="46.78017" lon="5.82494">
        <ele>578.8</ele>
        <time>2022-03-09T12:10:55Z</time>
      </trkpt>
      <trkpt lat="46.7802" lon="5.82496">
        <ele>578.8</ele>
        <time>2022-03-09T12:10:56Z</time>
      </trkpt>
      <trkpt lat="46.78024" lon="5.82498">
        <ele>579</ele>
        <time>2022-03-09T12:10:57Z</time>
      </trkpt>
      <trkpt lat="46.78027" lon="5.825">
        <ele>579</ele>
        <time>2022-03-09T12:10:58Z</time>
      </trkpt>
      <trkpt lat="46.78031" lon="5.82502">
        <ele>579.2</ele>
        <time>2022-03-09T12:10:59Z</time>
      </trkpt>
      <trkpt lat="46.78034" lon="5.82504">
        <ele>579.2</ele>
        <time>2022-03-09T12:11:00Z</time>
      </trkpt>
      <trkpt lat="46.78037" lon="5.82506">
        <ele>579.6</ele>
        <time>2022-03-09T12:11:01Z</time>
      </trkpt>
      <trkpt lat="46.78041" lon="5.82508">
        <ele>579.6</ele>
        <time>2022-03-09T12:11:02Z</time>
      </trkpt>
      <trkpt lat="46.78044" lon="5.8251">
        <ele>579.8</ele>
        <time>2022-03-09T12:11:03Z</time>
      </trkpt>
      <trkpt lat="46.78047" lon="5.82512">
        <ele>579.8</ele>
        <time>2022-03-09T12:11:04Z</time>
      </trkpt>
      <trkpt lat="46.78051" lon="5.82515">
        <ele>580</ele>
        <time>2022-03-09T12:11:05Z</time>
      </trkpt>
      <trkpt lat="46.78054" lon="5.82517">
        <ele>580</ele>
        <time>2022-03-09T12:11:06Z</time>
      </trkpt>
      <trkpt lat="46.78058" lon="5.82519">
        <ele>580.2</ele>
        <time>2022-03-09T12:11:07Z</time>
      </trkpt>
      <trkpt lat="46.78061" lon="5.82521">
        <ele>580.2</ele>
        <time>2022-03-09T12:11:08Z</time>
      </trkpt>
      <trkpt lat="46.78065" lon="5.82523">
        <ele>580.6</ele>
        <time>2022-03-09T12:11:09Z</time>
      </trkpt>
      <trkpt lat="46.78068" lon="5.82525">
        <ele>580.6</ele>
        <time>2022-03-09T12:11:10Z</time>
      </trkpt>
      <trkpt lat="46.78071" lon="5.82528">
        <ele>580.6</ele>
        <time>2022-03-09T12:11:11Z</time>
      </trkpt>
      <trkpt lat="46.78075" lon="5.8253">
        <ele>580.8</ele>
        <time>2022-03-09T12:11:12Z</time>
      </trkpt>
      <trkpt lat="46.78078" lon="5.82532">
        <ele>580.8</ele>
        <time>2022-03-09T12:11:13Z</time>
      </trkpt>
      <trkpt lat="46.78081" lon="5.82534">
        <ele>580.8</ele>
        <time>2022-03-09T12:11:14Z</time>
      </trkpt>
      <trkpt lat="46.78085" lon="5.82537">
        <ele>581.2</ele>
        <time>2022-03-09T12:11:15Z</time>
      </trkpt>
      <trkpt lat="46.78088" lon="5.82539">
        <ele>581.2</ele>
        <time>2022-03-09T12:11:16Z</time>
      </trkpt>
      <trkpt lat="46.78092" lon="5.82542">
        <ele>581.4</ele>
        <time>2022-03-09T12:11:17Z</time>
      </trkpt>
      <trkpt lat="46.78095" lon="5.82544">
        <ele>581.4</ele>
        <time>2022-03-09T12:11:18Z</time>
      </trkpt>
      <trkpt lat="46.78099" lon="5.82546">
        <ele>581.8</ele>
        <time>2022-03-09T12:11:19Z</time>
      </trkpt>
      <trkpt lat="46.78103" lon="5.82548">
        <ele>582</ele>
        <time>2022-03-09T12:11:20Z</time>
      </trkpt>
      <trkpt lat="46.78107" lon="5.8255">
        <ele>582</ele>
        <time>2022-03-09T12:11:21Z</time>
      </trkpt>
      <trkpt lat="46.7811" lon="5.82553">
        <ele>582.2</ele>
        <time>2022-03-09T12:11:22Z</time>
      </trkpt>
      <trkpt lat="46.78114" lon="5.82556">
        <ele>582.2</ele>
        <time>2022-03-09T12:11:23Z</time>
      </trkpt>
      <trkpt lat="46.78118" lon="5.82558">
        <ele>582.6</ele>
        <time>2022-03-09T12:11:24Z</time>
      </trkpt>
      <trkpt lat="46.78122" lon="5.82561">
        <ele>582.6</ele>
        <time>2022-03-09T12:11:25Z</time>
      </trkpt>
      <trkpt lat="46.78126" lon="5.82564">
        <ele>583</ele>
        <time>2022-03-09T12:11:26Z</time>
      </trkpt>
      <trkpt lat="46.78129" lon="5.82566">
        <ele>583.4</ele>
        <time>2022-03-09T12:11:27Z</time>
      </trkpt>
      <trkpt lat="46.78133" lon="5.82568">
        <ele>583.6</ele>
        <time>2022-03-09T12:11:28Z</time>
      </trkpt>
      <trkpt lat="46.78136" lon="5.8257">
        <ele>583.8</ele>
        <time>2022-03-09T12:11:29Z</time>
      </trkpt>
      <trkpt lat="46.78139" lon="5.82572">
        <ele>584.2</ele>
        <time>2022-03-09T12:11:30Z</time>
      </trkpt>
      <trkpt lat="46.78142" lon="5.82575">
        <ele>584.4</ele>
        <time>2022-03-09T12:11:31Z</time>
      </trkpt>
      <trkpt lat="46.78146" lon="5.82577">
        <ele>584.6</ele>
        <time>2022-03-09T12:11:32Z</time>
      </trkpt>
      <trkpt lat="46.78149" lon="5.82579">
        <ele>584.6</ele>
        <time>2022-03-09T12:11:33Z</time>
      </trkpt>
      <trkpt lat="46.78153" lon="5.82581">
        <ele>585</ele>
        <time>2022-03-09T12:11:34Z</time>
      </trkpt>
      <trkpt lat="46.78156" lon="5.82583">
        <ele>585</ele>
        <time>2022-03-09T12:11:35Z</time>
      </trkpt>
      <trkpt lat="46.78159" lon="5.82586">
        <ele>585.4</ele>
        <time>2022-03-09T12:11:36Z</time>
      </trkpt>
      <trkpt lat="46.78163" lon="5.82589">
        <ele>585.4</ele>
        <time>2022-03-09T12:11:37Z</time>
      </trkpt>
      <trkpt lat="46.78166" lon="5.82591">
        <ele>585.6</ele>
        <time>2022-03-09T12:11:38Z</time>
      </trkpt>
      <trkpt lat="46.78169" lon="5.82594">
        <ele>585.6</ele>
        <time>2022-03-09T12:11:39Z</time>
      </trkpt>
      <trkpt lat="46.78173" lon="5.82596">
        <ele>586</ele>
        <time>2022-03-09T12:11:40Z</time>
      </trkpt>
      <trkpt lat="46.78176" lon="5.82599">
        <ele>586.2</ele>
        <time>2022-03-09T12:11:41Z</time>
      </trkpt>
      <trkpt lat="46.7818" lon="5.82601">
        <ele>586.2</ele>
        <time>2022-03-09T12:11:42Z</time>
      </trkpt>
      <trkpt lat="46.78183" lon="5.82603">
        <ele>586.8</ele>
        <time>2022-03-09T12:11:43Z</time>
      </trkpt>
      <trkpt lat="46.78187" lon="5.82605">
        <ele>587</ele>
        <time>2022-03-09T12:11:44Z</time>
      </trkpt>
      <trkpt lat="46.7819" lon="5.82607">
        <ele>587.2</ele>
        <time>2022-03-09T12:11:45Z</time>
      </trkpt>
      <trkpt lat="46.78194" lon="5.82609">
        <ele>587.4</ele>
        <time>2022-03-09T12:11:46Z</time>
      </trkpt>
      <trkpt lat="46.78197" lon="5.82611">
        <ele>587.6</ele>
        <time>2022-03-09T12:11:47Z</time>
      </trkpt>
      <trkpt lat="46.78201" lon="5.82613">
        <ele>587.6</ele>
        <time>2022-03-09T12:11:48Z</time>
      </trkpt>
      <trkpt lat="46.78204" lon="5.82615">
        <ele>588</ele>
        <time>2022-03-09T12:11:49Z</time>
      </trkpt>
      <trkpt lat="46.78208" lon="5.82617">
        <ele>588</ele>
        <time>2022-03-09T12:11:50Z</time>
      </trkpt>
      <trkpt lat="46.78211" lon="5.8262">
        <ele>588.4</ele>
        <time>2022-03-09T12:11:51Z</time>
      </trkpt>
      <trkpt lat="46.78215" lon="5.82622">
        <ele>588.4</ele>
        <time>2022-03-09T12:11:52Z</time>
      </trkpt>
      <trkpt lat="46.78219" lon="5.82625">
        <ele>588.6</ele>
        <time>2022-03-09T12:11:53Z</time>
      </trkpt>
      <trkpt lat="46.78222" lon="5.82628">
        <ele>588.6</ele>
        <time>2022-03-09T12:11:54Z</time>
      </trkpt>
      <trkpt lat="46.78226" lon="5.82631">
        <ele>588.6</ele>
        <time>2022-03-09T12:11:55Z</time>
      </trkpt>
      <trkpt lat="46.78229" lon="5.82634">
        <ele>588.8</ele>
        <time>2022-03-09T12:11:56Z</time>
      </trkpt>
      <trkpt lat="46.78233" lon="5.82637">
        <ele>588.8</ele>
        <time>2022-03-09T12:11:57Z</time>
      </trkpt>
      <trkpt lat="46.78236" lon="5.8264">
        <ele>589</ele>
        <time>2022-03-09T12:11:58Z</time>
      </trkpt>
      <trkpt lat="46.7824" lon="5.82644">
        <ele>589</ele>
        <time>2022-03-09T12:11:59Z</time>
      </trkpt>
      <trkpt lat="46.78243" lon="5.82647">
        <ele>589.4</ele>
        <time>2022-03-09T12:12:00Z</time>
      </trkpt>
      <trkpt lat="46.78247" lon="5.8265">
        <ele>589.4</ele>
        <time>2022-03-09T12:12:01Z</time>
      </trkpt>
      <trkpt lat="46.7825" lon="5.82654">
        <ele>589.4</ele>
        <time>2022-03-09T12:12:02Z</time>
      </trkpt>
      <trkpt lat="46.78253" lon="5.82657">
        <ele>589.6</ele>
        <time>2022-03-09T12:12:03Z</time>
      </trkpt>
      <trkpt lat="46.78256" lon="5.8266">
        <ele>589.6</ele>
        <time>2022-03-09T12:12:04Z</time>
      </trkpt>
      <trkpt lat="46.7826" lon="5.82664">
        <ele>590</ele>
        <time>2022-03-09T12:12:05Z</time>
      </trkpt>
      <trkpt lat="46.78264" lon="5.82667">
        <ele>590</ele>
        <time>2022-03-09T12:12:06Z</time>
      </trkpt>
      <trkpt lat="46.78267" lon="5.8267">
        <ele>590</ele>
        <time>2022-03-09T12:12:07Z</time>
      </trkpt>
      <trkpt lat="46.7827" lon="5.82673">
        <ele>590</ele>
        <time>2022-03-09T12:12:08Z</time>
      </trkpt>
      <trkpt lat="46.78273" lon="5.82677">
        <ele>590</ele>
        <time>2022-03-09T12:12:09Z</time>
      </trkpt>
      <trkpt lat="46.78276" lon="5.8268">
        <ele>590.2</ele>
        <time>2022-03-09T12:12:10Z</time>
      </trkpt>
      <trkpt lat="46.78279" lon="5.82683">
        <ele>590.2</ele>
        <time>2022-03-09T12:12:11Z</time>
      </trkpt>
      <trkpt lat="46.78282" lon="5.82686">
        <ele>590.2</ele>
        <time>2022-03-09T12:12:12Z</time>
      </trkpt>
      <trkpt lat="46.78286" lon="5.82688">
        <ele>590.2</ele>
        <time>2022-03-09T12:12:13Z</time>
      </trkpt>
      <trkpt lat="46.78289" lon="5.82691">
        <ele>590.2</ele>
        <time>2022-03-09T12:12:14Z</time>
      </trkpt>
      <trkpt lat="46.78292" lon="5.82695">
        <ele>590.2</ele>
        <time>2022-03-09T12:12:15Z</time>
      </trkpt>
      <trkpt lat="46.78296" lon="5.82698">
        <ele>590.2</ele>
        <time>2022-03-09T12:12:16Z</time>
      </trkpt>
      <trkpt lat="46.78299" lon="5.82702">
        <ele>590.2</ele>
        <time>2022-03-09T12:12:17Z</time>
      </trkpt>
      <trkpt lat="46.78303" lon="5.82706">
        <ele>590.2</ele>
        <time>2022-03-09T12:12:18Z</time>
      </trkpt>
      <trkpt lat="46.78307" lon="5.8271">
        <ele>590.2</ele>
        <time>2022-03-09T12:12:19Z</time>
      </trkpt>
      <trkpt lat="46.78311" lon="5.82715">
        <ele>590</ele>
        <time>2022-03-09T12:12:20Z</time>
      </trkpt>
      <trkpt lat="46.78315" lon="5.8272">
        <ele>590</ele>
        <time>2022-03-09T12:12:21Z</time>
      </trkpt>
      <trkpt lat="46.78319" lon="5.82724">
        <ele>590</ele>
        <time>2022-03-09T12:12:22Z</time>
      </trkpt>
      <trkpt lat="46.78324" lon="5.82729">
        <ele>590</ele>
        <time>2022-03-09T12:12:23Z</time>
      </trkpt>
      <trkpt lat="46.78329" lon="5.82733">
        <ele>590</ele>
        <time>2022-03-09T12:12:24Z</time>
      </trkpt>
      <trkpt lat="46.78333" lon="5.82738">
        <ele>590.2</ele>
        <time>2022-03-09T12:12:25Z</time>
      </trkpt>
      <trkpt lat="46.78337" lon="5.82743">
        <ele>590.2</ele>
        <time>2022-03-09T12:12:26Z</time>
      </trkpt>
      <trkpt lat="46.78342" lon="5.82748">
        <ele>590.2</ele>
        <time>2022-03-09T12:12:27Z</time>
      </trkpt>
      <trkpt lat="46.78347" lon="5.82752">
        <ele>590.2</ele>
        <time>2022-03-09T12:12:28Z</time>
      </trkpt>
      <trkpt lat="46.78351" lon="5.82757">
        <ele>590.2</ele>
        <time>2022-03-09T12:12:29Z</time>
      </trkpt>
      <trkpt lat="46.78355" lon="5.82761">
        <ele>590.4</ele>
        <time>2022-03-09T12:12:30Z</time>
      </trkpt>
      <trkpt lat="46.78359" lon="5.82766">
        <ele>590.4</ele>
        <time>2022-03-09T12:12:31Z</time>
      </trkpt>
      <trkpt lat="46.78363" lon="5.8277">
        <ele>590.6</ele>
        <time>2022-03-09T12:12:32Z</time>
      </trkpt>
      <trkpt lat="46.78367" lon="5.82774">
        <ele>590.6</ele>
        <time>2022-03-09T12:12:33Z</time>
      </trkpt>
      <trkpt lat="46.78371" lon="5.82779">
        <ele>590.6</ele>
        <time>2022-03-09T12:12:34Z</time>
      </trkpt>
      <trkpt lat="46.78376" lon="5.82784">
        <ele>591</ele>
        <time>2022-03-09T12:12:35Z</time>
      </trkpt>
      <trkpt lat="46.7838" lon="5.82788">
        <ele>591</ele>
        <time>2022-03-09T12:12:36Z</time>
      </trkpt>
      <trkpt lat="46.78384" lon="5.82793">
        <ele>591.2</ele>
        <time>2022-03-09T12:12:37Z</time>
      </trkpt>
      <trkpt lat="46.78388" lon="5.82797">
        <ele>591.2</ele>
        <time>2022-03-09T12:12:38Z</time>
      </trkpt>
      <trkpt lat="46.78391" lon="5.82801">
        <ele>591.6</ele>
        <time>2022-03-09T12:12:39Z</time>
      </trkpt>
      <trkpt lat="46.78395" lon="5.82805">
        <ele>591.6</ele>
        <time>2022-03-09T12:12:40Z</time>
      </trkpt>
      <trkpt lat="46.78399" lon="5.82809">
        <ele>592</ele>
        <time>2022-03-09T12:12:41Z</time>
      </trkpt>
      <trkpt lat="46.78403" lon="5.82813">
        <ele>592</ele>
        <time>2022-03-09T12:12:42Z</time>
      </trkpt>
      <trkpt lat="46.78406" lon="5.82817">
        <ele>592.2</ele>
        <time>2022-03-09T12:12:43Z</time>
      </trkpt>
      <trkpt lat="46.78411" lon="5.82822">
        <ele>592.2</ele>
        <time>2022-03-09T12:12:44Z</time>
      </trkpt>
      <trkpt lat="46.78415" lon="5.82826">
        <ele>592.4</ele>
        <time>2022-03-09T12:12:45Z</time>
      </trkpt>
      <trkpt lat="46.78419" lon="5.8283">
        <ele>592.4</ele>
        <time>2022-03-09T12:12:46Z</time>
      </trkpt>
      <trkpt lat="46.78424" lon="5.82834">
        <ele>592.8</ele>
        <time>2022-03-09T12:12:47Z</time>
      </trkpt>
      <trkpt lat="46.78428" lon="5.82839">
        <ele>593</ele>
        <time>2022-03-09T12:12:48Z</time>
      </trkpt>
      <trkpt lat="46.78433" lon="5.82844">
        <ele>593.2</ele>
        <time>2022-03-09T12:12:49Z</time>
      </trkpt>
      <trkpt lat="46.78437" lon="5.82849">
        <ele>593.4</ele>
        <time>2022-03-09T12:12:50Z</time>
      </trkpt>
      <trkpt lat="46.7844" lon="5.82854">
        <ele>593.4</ele>
        <time>2022-03-09T12:12:51Z</time>
      </trkpt>
      <trkpt lat="46.78444" lon="5.82859">
        <ele>593.8</ele>
        <time>2022-03-09T12:12:52Z</time>
      </trkpt>
      <trkpt lat="46.78448" lon="5.82864">
        <ele>593.8</ele>
        <time>2022-03-09T12:12:53Z</time>
      </trkpt>
      <trkpt lat="46.78452" lon="5.82869">
        <ele>594.2</ele>
        <time>2022-03-09T12:12:54Z</time>
      </trkpt>
      <trkpt lat="46.78455" lon="5.82874">
        <ele>594.2</ele>
        <time>2022-03-09T12:12:55Z</time>
      </trkpt>
      <trkpt lat="46.78455" lon="5.82874">
        <ele>594.6</ele>
        <time>2022-03-09T12:12:56Z</time>
      </trkpt>
      <trkpt lat="46.78458" lon="5.8288">
        <ele>594.8</ele>
        <time>2022-03-09T12:12:57Z</time>
      </trkpt>
      <trkpt lat="46.78462" lon="5.82885">
        <ele>594.8</ele>
        <time>2022-03-09T12:12:58Z</time>
      </trkpt>
      <trkpt lat="46.78465" lon="5.8289">
        <ele>595.2</ele>
        <time>2022-03-09T12:12:59Z</time>
      </trkpt>
      <trkpt lat="46.78468" lon="5.82895">
        <ele>595.2</ele>
        <time>2022-03-09T12:13:00Z</time>
      </trkpt>
      <trkpt lat="46.78471" lon="5.82901">
        <ele>595.6</ele>
        <time>2022-03-09T12:13:01Z</time>
      </trkpt>
      <trkpt lat="46.78474" lon="5.82906">
        <ele>595.6</ele>
        <time>2022-03-09T12:13:02Z</time>
      </trkpt>
      <trkpt lat="46.78477" lon="5.82911">
        <ele>596</ele>
        <time>2022-03-09T12:13:03Z</time>
      </trkpt>
      <trkpt lat="46.7848" lon="5.82917">
        <ele>596</ele>
        <time>2022-03-09T12:13:04Z</time>
      </trkpt>
      <trkpt lat="46.78482" lon="5.82922">
        <ele>596.2</ele>
        <time>2022-03-09T12:13:05Z</time>
      </trkpt>
      <trkpt lat="46.78485" lon="5.82927">
        <ele>596.4</ele>
        <time>2022-03-09T12:13:06Z</time>
      </trkpt>
      <trkpt lat="46.78488" lon="5.82933">
        <ele>596.6</ele>
        <time>2022-03-09T12:13:07Z</time>
      </trkpt>
      <trkpt lat="46.78491" lon="5.82938">
        <ele>597</ele>
        <time>2022-03-09T12:13:08Z</time>
      </trkpt>
      <trkpt lat="46.78493" lon="5.82943">
        <ele>597.2</ele>
        <time>2022-03-09T12:13:09Z</time>
      </trkpt>
      <trkpt lat="46.78496" lon="5.82948">
        <ele>597.2</ele>
        <time>2022-03-09T12:13:10Z</time>
      </trkpt>
      <trkpt lat="46.78498" lon="5.82953">
        <ele>597.6</ele>
        <time>2022-03-09T12:13:11Z</time>
      </trkpt>
      <trkpt lat="46.785" lon="5.82958">
        <ele>597.6</ele>
        <time>2022-03-09T12:13:12Z</time>
      </trkpt>
      <trkpt lat="46.78503" lon="5.82963">
        <ele>598</ele>
        <time>2022-03-09T12:13:13Z</time>
      </trkpt>
      <trkpt lat="46.78505" lon="5.82968">
        <ele>598.2</ele>
        <time>2022-03-09T12:13:14Z</time>
      </trkpt>
      <trkpt lat="46.78508" lon="5.82973">
        <ele>598.2</ele>
        <time>2022-03-09T12:13:15Z</time>
      </trkpt>
      <trkpt lat="46.7851" lon="5.82978">
        <ele>598.4</ele>
        <time>2022-03-09T12:13:16Z</time>
      </trkpt>
      <trkpt lat="46.78512" lon="5.82983">
        <ele>598.4</ele>
        <time>2022-03-09T12:13:17Z</time>
      </trkpt>
      <trkpt lat="46.78515" lon="5.82988">
        <ele>598.8</ele>
        <time>2022-03-09T12:13:18Z</time>
      </trkpt>
      <trkpt lat="46.78517" lon="5.82993">
        <ele>598.8</ele>
        <time>2022-03-09T12:13:19Z</time>
      </trkpt>
      <trkpt lat="46.7852" lon="5.82998">
        <ele>599</ele>
        <time>2022-03-09T12:13:20Z</time>
      </trkpt>
      <trkpt lat="46.78523" lon="5.83004">
        <ele>599</ele>
        <time>2022-03-09T12:13:21Z</time>
      </trkpt>
      <trkpt lat="46.78526" lon="5.83009">
        <ele>599</ele>
        <time>2022-03-09T12:13:22Z</time>
      </trkpt>
      <trkpt lat="46.78528" lon="5.83014">
        <ele>599.4</ele>
        <time>2022-03-09T12:13:23Z</time>
      </trkpt>
      <trkpt lat="46.78531" lon="5.8302">
        <ele>599.4</ele>
        <time>2022-03-09T12:13:24Z</time>
      </trkpt>
      <trkpt lat="46.78534" lon="5.83025">
        <ele>599.8</ele>
        <time>2022-03-09T12:13:25Z</time>
      </trkpt>
      <trkpt lat="46.78537" lon="5.8303">
        <ele>600</ele>
        <time>2022-03-09T12:13:26Z</time>
      </trkpt>
      <trkpt lat="46.78539" lon="5.83035">
        <ele>600</ele>
        <time>2022-03-09T12:13:27Z</time>
      </trkpt>
      <trkpt lat="46.78542" lon="5.8304">
        <ele>600.2</ele>
        <time>2022-03-09T12:13:28Z</time>
      </trkpt>
      <trkpt lat="46.78545" lon="5.83045">
        <ele>600.2</ele>
        <time>2022-03-09T12:13:29Z</time>
      </trkpt>
      <trkpt lat="46.78548" lon="5.83049">
        <ele>600.6</ele>
        <time>2022-03-09T12:13:30Z</time>
      </trkpt>
      <trkpt lat="46.78552" lon="5.83054">
        <ele>600.8</ele>
        <time>2022-03-09T12:13:31Z</time>
      </trkpt>
      <trkpt lat="46.78559" lon="5.83062">
        <ele>601</ele>
        <time>2022-03-09T12:13:32Z</time>
      </trkpt>
      <trkpt lat="46.78562" lon="5.83065">
        <ele>601</ele>
        <time>2022-03-09T12:13:33Z</time>
      </trkpt>
      <trkpt lat="46.78566" lon="5.83069">
        <ele>601</ele>
        <time>2022-03-09T12:13:34Z</time>
      </trkpt>
      <trkpt lat="46.7857" lon="5.83072">
        <ele>601</ele>
        <time>2022-03-09T12:13:35Z</time>
      </trkpt>
      <trkpt lat="46.78575" lon="5.83076">
        <ele>601</ele>
        <time>2022-03-09T12:13:36Z</time>
      </trkpt>
      <trkpt lat="46.78579" lon="5.83079">
        <ele>601</ele>
        <time>2022-03-09T12:13:37Z</time>
      </trkpt>
      <trkpt lat="46.78583" lon="5.83082">
        <ele>601</ele>
        <time>2022-03-09T12:13:38Z</time>
      </trkpt>
      <trkpt lat="46.78588" lon="5.83085">
        <ele>601</ele>
        <time>2022-03-09T12:13:39Z</time>
      </trkpt>
      <trkpt lat="46.78593" lon="5.83089">
        <ele>601</ele>
        <time>2022-03-09T12:13:40Z</time>
      </trkpt>
      <trkpt lat="46.78597" lon="5.83094">
        <ele>600.8</ele>
        <time>2022-03-09T12:13:41Z</time>
      </trkpt>
      <trkpt lat="46.78602" lon="5.83098">
        <ele>600.8</ele>
        <time>2022-03-09T12:13:42Z</time>
      </trkpt>
      <trkpt lat="46.78607" lon="5.83104">
        <ele>600.8</ele>
        <time>2022-03-09T12:13:43Z</time>
      </trkpt>
      <trkpt lat="46.78612" lon="5.8311">
        <ele>600.6</ele>
        <time>2022-03-09T12:13:44Z</time>
      </trkpt>
      <trkpt lat="46.78617" lon="5.83116">
        <ele>600.6</ele>
        <time>2022-03-09T12:13:45Z</time>
      </trkpt>
      <trkpt lat="46.78622" lon="5.83122">
        <ele>600.4</ele>
        <time>2022-03-09T12:13:46Z</time>
      </trkpt>
      <trkpt lat="46.78627" lon="5.83128">
        <ele>600.4</ele>
        <time>2022-03-09T12:13:47Z</time>
      </trkpt>
      <trkpt lat="46.78632" lon="5.83135">
        <ele>600.4</ele>
        <time>2022-03-09T12:13:48Z</time>
      </trkpt>
      <trkpt lat="46.78638" lon="5.83141">
        <ele>600</ele>
        <time>2022-03-09T12:13:49Z</time>
      </trkpt>
      <trkpt lat="46.78643" lon="5.83148">
        <ele>600</ele>
        <time>2022-03-09T12:13:50Z</time>
      </trkpt>
      <trkpt lat="46.78648" lon="5.83155">
        <ele>599.8</ele>
        <time>2022-03-09T12:13:51Z</time>
      </trkpt>
      <trkpt lat="46.78654" lon="5.83163">
        <ele>599.8</ele>
        <time>2022-03-09T12:13:52Z</time>
      </trkpt>
      <trkpt lat="46.7866" lon="5.8317">
        <ele>599.8</ele>
        <time>2022-03-09T12:13:53Z</time>
      </trkpt>
      <trkpt lat="46.78666" lon="5.83176">
        <ele>599.4</ele>
        <time>2022-03-09T12:13:54Z</time>
      </trkpt>
      <trkpt lat="46.78672" lon="5.83182">
        <ele>599.4</ele>
        <time>2022-03-09T12:13:55Z</time>
      </trkpt>
      <trkpt lat="46.78679" lon="5.83188">
        <ele>599.4</ele>
        <time>2022-03-09T12:13:56Z</time>
      </trkpt>
      <trkpt lat="46.78687" lon="5.83192">
        <ele>599.4</ele>
        <time>2022-03-09T12:13:57Z</time>
      </trkpt>
      <trkpt lat="46.78695" lon="5.83194">
        <ele>599.2</ele>
        <time>2022-03-09T12:13:58Z</time>
      </trkpt>
      <trkpt lat="46.78704" lon="5.83195">
        <ele>599</ele>
        <time>2022-03-09T12:13:59Z</time>
      </trkpt>
      <trkpt lat="46.78721" lon="5.83192">
        <ele>598.4</ele>
        <time>2022-03-09T12:14:00Z</time>
      </trkpt>
      <trkpt lat="46.7873" lon="5.8319">
        <ele>598.2</ele>
        <time>2022-03-09T12:14:01Z</time>
      </trkpt>
      <trkpt lat="46.78738" lon="5.83189">
        <ele>597.8</ele>
        <time>2022-03-09T12:14:02Z</time>
      </trkpt>
      <trkpt lat="46.78747" lon="5.83188">
        <ele>597.4</ele>
        <time>2022-03-09T12:14:03Z</time>
      </trkpt>
      <trkpt lat="46.78755" lon="5.83188">
        <ele>597.2</ele>
        <time>2022-03-09T12:14:04Z</time>
      </trkpt>
      <trkpt lat="46.78763" lon="5.83188">
        <ele>597</ele>
        <time>2022-03-09T12:14:05Z</time>
      </trkpt>
      <trkpt lat="46.78771" lon="5.83188">
        <ele>596.8</ele>
        <time>2022-03-09T12:14:06Z</time>
      </trkpt>
      <trkpt lat="46.78778" lon="5.83188">
        <ele>596.6</ele>
        <time>2022-03-09T12:14:07Z</time>
      </trkpt>
      <trkpt lat="46.78786" lon="5.83188">
        <ele>596.6</ele>
        <time>2022-03-09T12:14:08Z</time>
      </trkpt>
      <trkpt lat="46.78794" lon="5.83189">
        <ele>596.2</ele>
        <time>2022-03-09T12:14:09Z</time>
      </trkpt>
      <trkpt lat="46.78802" lon="5.83189">
        <ele>596.2</ele>
        <time>2022-03-09T12:14:10Z</time>
      </trkpt>
      <trkpt lat="46.7881" lon="5.8319">
        <ele>596.2</ele>
        <time>2022-03-09T12:14:11Z</time>
      </trkpt>
      <trkpt lat="46.78818" lon="5.83191">
        <ele>596.2</ele>
        <time>2022-03-09T12:14:12Z</time>
      </trkpt>
      <trkpt lat="46.78825" lon="5.83193">
        <ele>596.2</ele>
        <time>2022-03-09T12:14:13Z</time>
      </trkpt>
      <trkpt lat="46.78832" lon="5.83195">
        <ele>596</ele>
        <time>2022-03-09T12:14:14Z</time>
      </trkpt>
      <trkpt lat="46.78839" lon="5.83199">
        <ele>596</ele>
        <time>2022-03-09T12:14:15Z</time>
      </trkpt>
      <trkpt lat="46.78846" lon="5.83203">
        <ele>596</ele>
        <time>2022-03-09T12:14:16Z</time>
      </trkpt>
      <trkpt lat="46.78853" lon="5.83208">
        <ele>596</ele>
        <time>2022-03-09T12:14:17Z</time>
      </trkpt>
      <trkpt lat="46.7886" lon="5.83213">
        <ele>596</ele>
        <time>2022-03-09T12:14:18Z</time>
      </trkpt>
      <trkpt lat="46.78867" lon="5.83218">
        <ele>596</ele>
        <time>2022-03-09T12:14:19Z</time>
      </trkpt>
      <trkpt lat="46.78873" lon="5.83223">
        <ele>596</ele>
        <time>2022-03-09T12:14:20Z</time>
      </trkpt>
      <trkpt lat="46.78879" lon="5.83229">
        <ele>595.8</ele>
        <time>2022-03-09T12:14:21Z</time>
      </trkpt>
      <trkpt lat="46.78885" lon="5.83234">
        <ele>595.8</ele>
        <time>2022-03-09T12:14:22Z</time>
      </trkpt>
      <trkpt lat="46.7889" lon="5.83239">
        <ele>595.8</ele>
        <time>2022-03-09T12:14:23Z</time>
      </trkpt>
      <trkpt lat="46.7889" lon="5.83239">
        <ele>595.8</ele>
        <time>2022-03-09T12:14:24Z</time>
      </trkpt>
      <trkpt lat="46.78896" lon="5.83245">
        <ele>596</ele>
        <time>2022-03-09T12:14:25Z</time>
      </trkpt>
      <trkpt lat="46.78901" lon="5.83251">
        <ele>596</ele>
        <time>2022-03-09T12:14:26Z</time>
      </trkpt>
      <trkpt lat="46.78906" lon="5.83257">
        <ele>596</ele>
        <time>2022-03-09T12:14:27Z</time>
      </trkpt>
      <trkpt lat="46.78912" lon="5.83263">
        <ele>596</ele>
        <time>2022-03-09T12:14:28Z</time>
      </trkpt>
      <trkpt lat="46.78917" lon="5.8327">
        <ele>596</ele>
        <time>2022-03-09T12:14:29Z</time>
      </trkpt>
      <trkpt lat="46.78922" lon="5.83278">
        <ele>596</ele>
        <time>2022-03-09T12:14:30Z</time>
      </trkpt>
      <trkpt lat="46.78927" lon="5.83285">
        <ele>596</ele>
        <time>2022-03-09T12:14:31Z</time>
      </trkpt>
      <trkpt lat="46.78932" lon="5.83293">
        <ele>596</ele>
        <time>2022-03-09T12:14:32Z</time>
      </trkpt>
      <trkpt lat="46.78938" lon="5.83301">
        <ele>596</ele>
        <time>2022-03-09T12:14:33Z</time>
      </trkpt>
      <trkpt lat="46.78943" lon="5.83309">
        <ele>596</ele>
        <time>2022-03-09T12:14:34Z</time>
      </trkpt>
      <trkpt lat="46.78949" lon="5.83316">
        <ele>596</ele>
        <time>2022-03-09T12:14:35Z</time>
      </trkpt>
      <trkpt lat="46.78954" lon="5.83323">
        <ele>596.2</ele>
        <time>2022-03-09T12:14:36Z</time>
      </trkpt>
      <trkpt lat="46.7896" lon="5.83331">
        <ele>596.2</ele>
        <time>2022-03-09T12:14:37Z</time>
      </trkpt>
      <trkpt lat="46.78965" lon="5.83338">
        <ele>596.2</ele>
        <time>2022-03-09T12:14:38Z</time>
      </trkpt>
      <trkpt lat="46.7897" lon="5.83346">
        <ele>596.2</ele>
        <time>2022-03-09T12:14:39Z</time>
      </trkpt>
      <trkpt lat="46.78975" lon="5.83353">
        <ele>596.2</ele>
        <time>2022-03-09T12:14:40Z</time>
      </trkpt>
      <trkpt lat="46.7898" lon="5.8336">
        <ele>596.4</ele>
        <time>2022-03-09T12:14:41Z</time>
      </trkpt>
      <trkpt lat="46.78986" lon="5.83368">
        <ele>596.4</ele>
        <time>2022-03-09T12:14:42Z</time>
      </trkpt>
      <trkpt lat="46.78991" lon="5.83375">
        <ele>596.4</ele>
        <time>2022-03-09T12:14:43Z</time>
      </trkpt>
      <trkpt lat="46.78996" lon="5.83383">
        <ele>596.4</ele>
        <time>2022-03-09T12:14:44Z</time>
      </trkpt>
      <trkpt lat="46.79002" lon="5.8339">
        <ele>596.4</ele>
        <time>2022-03-09T12:14:45Z</time>
      </trkpt>
      <trkpt lat="46.79007" lon="5.83397">
        <ele>596.6</ele>
        <time>2022-03-09T12:14:46Z</time>
      </trkpt>
      <trkpt lat="46.79012" lon="5.83404">
        <ele>596.6</ele>
        <time>2022-03-09T12:14:47Z</time>
      </trkpt>
      <trkpt lat="46.79017" lon="5.83412">
        <ele>596.8</ele>
        <time>2022-03-09T12:14:48Z</time>
      </trkpt>
      <trkpt lat="46.79021" lon="5.83418">
        <ele>597</ele>
        <time>2022-03-09T12:14:49Z</time>
      </trkpt>
      <trkpt lat="46.79026" lon="5.83425">
        <ele>597.2</ele>
        <time>2022-03-09T12:14:50Z</time>
      </trkpt>
      <trkpt lat="46.79031" lon="5.83432">
        <ele>597.6</ele>
        <time>2022-03-09T12:14:51Z</time>
      </trkpt>
      <trkpt lat="46.79035" lon="5.83438">
        <ele>597.6</ele>
        <time>2022-03-09T12:14:52Z</time>
      </trkpt>
      <trkpt lat="46.7904" lon="5.83445">
        <ele>597.8</ele>
        <time>2022-03-09T12:14:53Z</time>
      </trkpt>
      <trkpt lat="46.79044" lon="5.83452">
        <ele>597.8</ele>
        <time>2022-03-09T12:14:54Z</time>
      </trkpt>
      <trkpt lat="46.79049" lon="5.83458">
        <ele>598</ele>
        <time>2022-03-09T12:14:55Z</time>
      </trkpt>
      <trkpt lat="46.79053" lon="5.83465">
        <ele>598</ele>
        <time>2022-03-09T12:14:56Z</time>
      </trkpt>
      <trkpt lat="46.79058" lon="5.83472">
        <ele>598</ele>
        <time>2022-03-09T12:14:57Z</time>
      </trkpt>
      <trkpt lat="46.79062" lon="5.83478">
        <ele>598</ele>
        <time>2022-03-09T12:14:58Z</time>
      </trkpt>
      <trkpt lat="46.79067" lon="5.83484">
        <ele>598</ele>
        <time>2022-03-09T12:14:59Z</time>
      </trkpt>
      <trkpt lat="46.79071" lon="5.83491">
        <ele>598.2</ele>
        <time>2022-03-09T12:15:00Z</time>
      </trkpt>
      <trkpt lat="46.79076" lon="5.83497">
        <ele>598.2</ele>
        <time>2022-03-09T12:15:01Z</time>
      </trkpt>
      <trkpt lat="46.7908" lon="5.83503">
        <ele>598.2</ele>
        <time>2022-03-09T12:15:02Z</time>
      </trkpt>
      <trkpt lat="46.79085" lon="5.83509">
        <ele>598.6</ele>
        <time>2022-03-09T12:15:03Z</time>
      </trkpt>
      <trkpt lat="46.79089" lon="5.83516">
        <ele>598.6</ele>
        <time>2022-03-09T12:15:04Z</time>
      </trkpt>
      <trkpt lat="46.79094" lon="5.83522">
        <ele>598.6</ele>
        <time>2022-03-09T12:15:05Z</time>
      </trkpt>
      <trkpt lat="46.79099" lon="5.83528">
        <ele>598.6</ele>
        <time>2022-03-09T12:15:06Z</time>
      </trkpt>
      <trkpt lat="46.79104" lon="5.83534">
        <ele>598.6</ele>
        <time>2022-03-09T12:15:07Z</time>
      </trkpt>
      <trkpt lat="46.79109" lon="5.8354">
        <ele>598.6</ele>
        <time>2022-03-09T12:15:08Z</time>
      </trkpt>
      <trkpt lat="46.79115" lon="5.83545">
        <ele>598.2</ele>
        <time>2022-03-09T12:15:09Z</time>
      </trkpt>
      <trkpt lat="46.79122" lon="5.83549">
        <ele>598.2</ele>
        <time>2022-03-09T12:15:10Z</time>
      </trkpt>
      <trkpt lat="46.79128" lon="5.83553">
        <ele>598</ele>
        <time>2022-03-09T12:15:11Z</time>
      </trkpt>
      <trkpt lat="46.79136" lon="5.83556">
        <ele>598</ele>
        <time>2022-03-09T12:15:12Z</time>
      </trkpt>
      <trkpt lat="46.79143" lon="5.8356">
        <ele>597.6</ele>
        <time>2022-03-09T12:15:13Z</time>
      </trkpt>
      <trkpt lat="46.7915" lon="5.83563">
        <ele>597.4</ele>
        <time>2022-03-09T12:15:14Z</time>
      </trkpt>
      <trkpt lat="46.79158" lon="5.83566">
        <ele>597.4</ele>
        <time>2022-03-09T12:15:15Z</time>
      </trkpt>
      <trkpt lat="46.79166" lon="5.8357">
        <ele>597</ele>
        <time>2022-03-09T12:15:16Z</time>
      </trkpt>
      <trkpt lat="46.79173" lon="5.83574">
        <ele>597</ele>
        <time>2022-03-09T12:15:17Z</time>
      </trkpt>
      <trkpt lat="46.79181" lon="5.83577">
        <ele>596.6</ele>
        <time>2022-03-09T12:15:18Z</time>
      </trkpt>
      <trkpt lat="46.79189" lon="5.83581">
        <ele>596.6</ele>
        <time>2022-03-09T12:15:19Z</time>
      </trkpt>
      <trkpt lat="46.79196" lon="5.83584">
        <ele>596.6</ele>
        <time>2022-03-09T12:15:20Z</time>
      </trkpt>
      <trkpt lat="46.79204" lon="5.83587">
        <ele>596.4</ele>
        <time>2022-03-09T12:15:21Z</time>
      </trkpt>
      <trkpt lat="46.79211" lon="5.83591">
        <ele>596.4</ele>
        <time>2022-03-09T12:15:22Z</time>
      </trkpt>
      <trkpt lat="46.79219" lon="5.83594">
        <ele>596.4</ele>
        <time>2022-03-09T12:15:23Z</time>
      </trkpt>
      <trkpt lat="46.79225" lon="5.83598">
        <ele>596.4</ele>
        <time>2022-03-09T12:15:24Z</time>
      </trkpt>
      <trkpt lat="46.79233" lon="5.83601">
        <ele>596.4</ele>
        <time>2022-03-09T12:15:25Z</time>
      </trkpt>
      <trkpt lat="46.79239" lon="5.83603">
        <ele>596.4</ele>
        <time>2022-03-09T12:15:26Z</time>
      </trkpt>
      <trkpt lat="46.79246" lon="5.83606">
        <ele>596.4</ele>
        <time>2022-03-09T12:15:27Z</time>
      </trkpt>
      <trkpt lat="46.79253" lon="5.83608">
        <ele>596.4</ele>
        <time>2022-03-09T12:15:28Z</time>
      </trkpt>
      <trkpt lat="46.7926" lon="5.83611">
        <ele>596.8</ele>
        <time>2022-03-09T12:15:29Z</time>
      </trkpt>
      <trkpt lat="46.79266" lon="5.83614">
        <ele>597</ele>
        <time>2022-03-09T12:15:30Z</time>
      </trkpt>
      <trkpt lat="46.79272" lon="5.83617">
        <ele>597</ele>
        <time>2022-03-09T12:15:31Z</time>
      </trkpt>
      <trkpt lat="46.79279" lon="5.83619">
        <ele>597.2</ele>
        <time>2022-03-09T12:15:32Z</time>
      </trkpt>
      <trkpt lat="46.79285" lon="5.83622">
        <ele>597.2</ele>
        <time>2022-03-09T12:15:33Z</time>
      </trkpt>
      <trkpt lat="46.79292" lon="5.83624">
        <ele>597.6</ele>
        <time>2022-03-09T12:15:34Z</time>
      </trkpt>
      <trkpt lat="46.79298" lon="5.83628">
        <ele>597.6</ele>
        <time>2022-03-09T12:15:35Z</time>
      </trkpt>
      <trkpt lat="46.79304" lon="5.83631">
        <ele>597.8</ele>
        <time>2022-03-09T12:15:36Z</time>
      </trkpt>
      <trkpt lat="46.7931" lon="5.83633">
        <ele>597.8</ele>
        <time>2022-03-09T12:15:37Z</time>
      </trkpt>
      <trkpt lat="46.79316" lon="5.83636">
        <ele>597.8</ele>
        <time>2022-03-09T12:15:38Z</time>
      </trkpt>
      <trkpt lat="46.79322" lon="5.83639">
        <ele>598</ele>
        <time>2022-03-09T12:15:39Z</time>
      </trkpt>
      <trkpt lat="46.79329" lon="5.83641">
        <ele>598</ele>
        <time>2022-03-09T12:15:40Z</time>
      </trkpt>
      <trkpt lat="46.79335" lon="5.83643">
        <ele>598.4</ele>
        <time>2022-03-09T12:15:41Z</time>
      </trkpt>
      <trkpt lat="46.79341" lon="5.83646">
        <ele>598.4</ele>
        <time>2022-03-09T12:15:42Z</time>
      </trkpt>
      <trkpt lat="46.79348" lon="5.83649">
        <ele>598.8</ele>
        <time>2022-03-09T12:15:43Z</time>
      </trkpt>
      <trkpt lat="46.79354" lon="5.83651">
        <ele>599</ele>
        <time>2022-03-09T12:15:44Z</time>
      </trkpt>
      <trkpt lat="46.7936" lon="5.83654">
        <ele>599.2</ele>
        <time>2022-03-09T12:15:45Z</time>
      </trkpt>
      <trkpt lat="46.79365" lon="5.83657">
        <ele>599.6</ele>
        <time>2022-03-09T12:15:46Z</time>
      </trkpt>
      <trkpt lat="46.79371" lon="5.83659">
        <ele>599.6</ele>
        <time>2022-03-09T12:15:47Z</time>
      </trkpt>
      <trkpt lat="46.79376" lon="5.83662">
        <ele>600</ele>
        <time>2022-03-09T12:15:48Z</time>
      </trkpt>
      <trkpt lat="46.79382" lon="5.83664">
        <ele>600</ele>
        <time>2022-03-09T12:15:49Z</time>
      </trkpt>
      <trkpt lat="46.79387" lon="5.83667">
        <ele>600.2</ele>
        <time>2022-03-09T12:15:50Z</time>
      </trkpt>
      <trkpt lat="46.79392" lon="5.83669">
        <ele>600.2</ele>
        <time>2022-03-09T12:15:51Z</time>
      </trkpt>
      <trkpt lat="46.79397" lon="5.83672">
        <ele>600.4</ele>
        <time>2022-03-09T12:15:52Z</time>
      </trkpt>
      <trkpt lat="46.79401" lon="5.83674">
        <ele>600.4</ele>
        <time>2022-03-09T12:15:53Z</time>
      </trkpt>
      <trkpt lat="46.79406" lon="5.83676">
        <ele>600.8</ele>
        <time>2022-03-09T12:15:54Z</time>
      </trkpt>
      <trkpt lat="46.79411" lon="5.83678">
        <ele>600.8</ele>
        <time>2022-03-09T12:15:55Z</time>
      </trkpt>
      <trkpt lat="46.79416" lon="5.8368">
        <ele>600.8</ele>
        <time>2022-03-09T12:15:56Z</time>
      </trkpt>
      <trkpt lat="46.79421" lon="5.83683">
        <ele>600.8</ele>
        <time>2022-03-09T12:15:57Z</time>
      </trkpt>
      <trkpt lat="46.79427" lon="5.83685">
        <ele>600.4</ele>
        <time>2022-03-09T12:15:58Z</time>
      </trkpt>
      <trkpt lat="46.79432" lon="5.83688">
        <ele>600.4</ele>
        <time>2022-03-09T12:15:59Z</time>
      </trkpt>
      <trkpt lat="46.79437" lon="5.83691">
        <ele>600</ele>
        <time>2022-03-09T12:16:00Z</time>
      </trkpt>
      <trkpt lat="46.79443" lon="5.83694">
        <ele>599.8</ele>
        <time>2022-03-09T12:16:01Z</time>
      </trkpt>
      <trkpt lat="46.79447" lon="5.83698">
        <ele>599.4</ele>
        <time>2022-03-09T12:16:02Z</time>
      </trkpt>
      <trkpt lat="46.79452" lon="5.83703">
        <ele>599</ele>
        <time>2022-03-09T12:16:03Z</time>
      </trkpt>
      <trkpt lat="46.79456" lon="5.83708">
        <ele>598.8</ele>
        <time>2022-03-09T12:16:04Z</time>
      </trkpt>
      <trkpt lat="46.7946" lon="5.83713">
        <ele>598.8</ele>
        <time>2022-03-09T12:16:05Z</time>
      </trkpt>
      <trkpt lat="46.79464" lon="5.83717">
        <ele>598.4</ele>
        <time>2022-03-09T12:16:06Z</time>
      </trkpt>
      <trkpt lat="46.79467" lon="5.8372">
        <ele>598.4</ele>
        <time>2022-03-09T12:16:07Z</time>
      </trkpt>
      <trkpt lat="46.7947" lon="5.83722">
        <ele>598</ele>
        <time>2022-03-09T12:16:08Z</time>
      </trkpt>
      <trkpt lat="46.79473" lon="5.83723">
        <ele>598</ele>
        <time>2022-03-09T12:16:09Z</time>
      </trkpt>
      <trkpt lat="46.79475" lon="5.83723">
        <ele>597.8</ele>
        <time>2022-03-09T12:16:10Z</time>
      </trkpt>
      <trkpt lat="46.79478" lon="5.83721">
        <ele>597.8</ele>
        <time>2022-03-09T12:16:11Z</time>
      </trkpt>
      <trkpt lat="46.79481" lon="5.83718">
        <ele>597.8</ele>
        <time>2022-03-09T12:16:12Z</time>
      </trkpt>
      <trkpt lat="46.79483" lon="5.83714">
        <ele>597.8</ele>
        <time>2022-03-09T12:16:13Z</time>
      </trkpt>
      <trkpt lat="46.79485" lon="5.83709">
        <ele>597.4</ele>
        <time>2022-03-09T12:16:14Z</time>
      </trkpt>
      <trkpt lat="46.79486" lon="5.83703">
        <ele>597.4</ele>
        <time>2022-03-09T12:16:15Z</time>
      </trkpt>
      <trkpt lat="46.79488" lon="5.83696">
        <ele>597.4</ele>
        <time>2022-03-09T12:16:16Z</time>
      </trkpt>
      <trkpt lat="46.7949" lon="5.8369">
        <ele>597.4</ele>
        <time>2022-03-09T12:16:17Z</time>
      </trkpt>
      <trkpt lat="46.79492" lon="5.83683">
        <ele>597.4</ele>
        <time>2022-03-09T12:16:18Z</time>
      </trkpt>
      <trkpt lat="46.79493" lon="5.83675">
        <ele>597.2</ele>
        <time>2022-03-09T12:16:19Z</time>
      </trkpt>
      <trkpt lat="46.79495" lon="5.83668">
        <ele>597.2</ele>
        <time>2022-03-09T12:16:20Z</time>
      </trkpt>
      <trkpt lat="46.79497" lon="5.83661">
        <ele>597.2</ele>
        <time>2022-03-09T12:16:21Z</time>
      </trkpt>
      <trkpt lat="46.79499" lon="5.83653">
        <ele>597.2</ele>
        <time>2022-03-09T12:16:22Z</time>
      </trkpt>
      <trkpt lat="46.79502" lon="5.83646">
        <ele>597.2</ele>
        <time>2022-03-09T12:16:23Z</time>
      </trkpt>
      <trkpt lat="46.79504" lon="5.83639">
        <ele>597.2</ele>
        <time>2022-03-09T12:16:24Z</time>
      </trkpt>
      <trkpt lat="46.79507" lon="5.83632">
        <ele>597.2</ele>
        <time>2022-03-09T12:16:25Z</time>
      </trkpt>
      <trkpt lat="46.7951" lon="5.83624">
        <ele>597.2</ele>
        <time>2022-03-09T12:16:26Z</time>
      </trkpt>
      <trkpt lat="46.79514" lon="5.83617">
        <ele>597</ele>
        <time>2022-03-09T12:16:27Z</time>
      </trkpt>
      <trkpt lat="46.79517" lon="5.83609">
        <ele>597</ele>
        <time>2022-03-09T12:16:28Z</time>
      </trkpt>
      <trkpt lat="46.79521" lon="5.83602">
        <ele>596.6</ele>
        <time>2022-03-09T12:16:29Z</time>
      </trkpt>
      <trkpt lat="46.79526" lon="5.83594">
        <ele>596.4</ele>
        <time>2022-03-09T12:16:30Z</time>
      </trkpt>
      <trkpt lat="46.79531" lon="5.83587">
        <ele>596.4</ele>
        <time>2022-03-09T12:16:31Z</time>
      </trkpt>
      <trkpt lat="46.79537" lon="5.83581">
        <ele>596</ele>
        <time>2022-03-09T12:16:32Z</time>
      </trkpt>
      <trkpt lat="46.79542" lon="5.83574">
        <ele>596</ele>
        <time>2022-03-09T12:16:33Z</time>
      </trkpt>
      <trkpt lat="46.79549" lon="5.83568">
        <ele>595.6</ele>
        <time>2022-03-09T12:16:34Z</time>
      </trkpt>
      <trkpt lat="46.79555" lon="5.83562">
        <ele>595.6</ele>
        <time>2022-03-09T12:16:35Z</time>
      </trkpt>
      <trkpt lat="46.79562" lon="5.83557">
        <ele>595.4</ele>
        <time>2022-03-09T12:16:36Z</time>
      </trkpt>
      <trkpt lat="46.79569" lon="5.83552">
        <ele>595.4</ele>
        <time>2022-03-09T12:16:37Z</time>
      </trkpt>
      <trkpt lat="46.79576" lon="5.83547">
        <ele>595</ele>
        <time>2022-03-09T12:16:38Z</time>
      </trkpt>
      <trkpt lat="46.79583" lon="5.83541">
        <ele>595</ele>
        <time>2022-03-09T12:16:39Z</time>
      </trkpt>
      <trkpt lat="46.79591" lon="5.83535">
        <ele>594.6</ele>
        <time>2022-03-09T12:16:40Z</time>
      </trkpt>
      <trkpt lat="46.79598" lon="5.83529">
        <ele>594.4</ele>
        <time>2022-03-09T12:16:41Z</time>
      </trkpt>
      <trkpt lat="46.79606" lon="5.83523">
        <ele>594.4</ele>
        <time>2022-03-09T12:16:42Z</time>
      </trkpt>
      <trkpt lat="46.79613" lon="5.83517">
        <ele>594</ele>
        <time>2022-03-09T12:16:43Z</time>
      </trkpt>
      <trkpt lat="46.79621" lon="5.83511">
        <ele>593.8</ele>
        <time>2022-03-09T12:16:44Z</time>
      </trkpt>
      <trkpt lat="46.79629" lon="5.83505">
        <ele>593.6</ele>
        <time>2022-03-09T12:16:45Z</time>
      </trkpt>
      <trkpt lat="46.79637" lon="5.83499">
        <ele>593.2</ele>
        <time>2022-03-09T12:16:46Z</time>
      </trkpt>
      <trkpt lat="46.79645" lon="5.83491">
        <ele>592.8</ele>
        <time>2022-03-09T12:16:47Z</time>
      </trkpt>
      <trkpt lat="46.79653" lon="5.83485">
        <ele>592.4</ele>
        <time>2022-03-09T12:16:48Z</time>
      </trkpt>
      <trkpt lat="46.79662" lon="5.83481">
        <ele>592.2</ele>
        <time>2022-03-09T12:16:49Z</time>
      </trkpt>
      <trkpt lat="46.79671" lon="5.83477">
        <ele>591.6</ele>
        <time>2022-03-09T12:16:50Z</time>
      </trkpt>
      <trkpt lat="46.7968" lon="5.83474">
        <ele>591.2</ele>
        <time>2022-03-09T12:16:51Z</time>
      </trkpt>
      <trkpt lat="46.7969" lon="5.83472">
        <ele>590.6</ele>
        <time>2022-03-09T12:16:52Z</time>
      </trkpt>
      <trkpt lat="46.797" lon="5.83471">
        <ele>590.2</ele>
        <time>2022-03-09T12:16:53Z</time>
      </trkpt>
      <trkpt lat="46.79711" lon="5.83471">
        <ele>589.8</ele>
        <time>2022-03-09T12:16:54Z</time>
      </trkpt>
      <trkpt lat="46.79722" lon="5.8347">
        <ele>589.4</ele>
        <time>2022-03-09T12:16:55Z</time>
      </trkpt>
      <trkpt lat="46.79731" lon="5.8347">
        <ele>588.8</ele>
        <time>2022-03-09T12:16:56Z</time>
      </trkpt>
      <trkpt lat="46.79742" lon="5.83469">
        <ele>588.6</ele>
        <time>2022-03-09T12:16:57Z</time>
      </trkpt>
      <trkpt lat="46.79752" lon="5.83468">
        <ele>588.2</ele>
        <time>2022-03-09T12:16:58Z</time>
      </trkpt>
      <trkpt lat="46.79761" lon="5.83465">
        <ele>587.6</ele>
        <time>2022-03-09T12:16:59Z</time>
      </trkpt>
      <trkpt lat="46.79771" lon="5.83462">
        <ele>587.2</ele>
        <time>2022-03-09T12:17:00Z</time>
      </trkpt>
      <trkpt lat="46.79781" lon="5.83457">
        <ele>586.8</ele>
        <time>2022-03-09T12:17:01Z</time>
      </trkpt>
      <trkpt lat="46.7979" lon="5.83452">
        <ele>586.4</ele>
        <time>2022-03-09T12:17:02Z</time>
      </trkpt>
      <trkpt lat="46.79798" lon="5.83445">
        <ele>585.8</ele>
        <time>2022-03-09T12:17:03Z</time>
      </trkpt>
      <trkpt lat="46.79807" lon="5.83439">
        <ele>585.4</ele>
        <time>2022-03-09T12:17:04Z</time>
      </trkpt>
      <trkpt lat="46.79815" lon="5.83431">
        <ele>584.8</ele>
        <time>2022-03-09T12:17:05Z</time>
      </trkpt>
      <trkpt lat="46.79824" lon="5.83424">
        <ele>584.2</ele>
        <time>2022-03-09T12:17:06Z</time>
      </trkpt>
      <trkpt lat="46.79833" lon="5.83416">
        <ele>583.6</ele>
        <time>2022-03-09T12:17:07Z</time>
      </trkpt>
      <trkpt lat="46.79843" lon="5.83408">
        <ele>583.2</ele>
        <time>2022-03-09T12:17:08Z</time>
      </trkpt>
      <trkpt lat="46.79852" lon="5.834">
        <ele>582.4</ele>
        <time>2022-03-09T12:17:09Z</time>
      </trkpt>
      <trkpt lat="46.79861" lon="5.83391">
        <ele>581.8</ele>
        <time>2022-03-09T12:17:10Z</time>
      </trkpt>
      <trkpt lat="46.7987" lon="5.83384">
        <ele>581.2</ele>
        <time>2022-03-09T12:17:11Z</time>
      </trkpt>
      <trkpt lat="46.7988" lon="5.83376">
        <ele>580.6</ele>
        <time>2022-03-09T12:17:12Z</time>
      </trkpt>
      <trkpt lat="46.79889" lon="5.83368">
        <ele>580.2</ele>
        <time>2022-03-09T12:17:13Z</time>
      </trkpt>
      <trkpt lat="46.79899" lon="5.83359">
        <ele>579.6</ele>
        <time>2022-03-09T12:17:14Z</time>
      </trkpt>
      <trkpt lat="46.79909" lon="5.83352">
        <ele>579.2</ele>
        <time>2022-03-09T12:17:15Z</time>
      </trkpt>
      <trkpt lat="46.7992" lon="5.83346">
        <ele>578.6</ele>
        <time>2022-03-09T12:17:16Z</time>
      </trkpt>
      <trkpt lat="46.79931" lon="5.83339">
        <ele>578.4</ele>
        <time>2022-03-09T12:17:17Z</time>
      </trkpt>
      <trkpt lat="46.79942" lon="5.83332">
        <ele>578.2</ele>
        <time>2022-03-09T12:17:18Z</time>
      </trkpt>
      <trkpt lat="46.79952" lon="5.83326">
        <ele>577.8</ele>
        <time>2022-03-09T12:17:19Z</time>
      </trkpt>
      <trkpt lat="46.79973" lon="5.83315">
        <ele>577.6</ele>
        <time>2022-03-09T12:17:20Z</time>
      </trkpt>
      <trkpt lat="46.79984" lon="5.83309">
        <ele>577.4</ele>
        <time>2022-03-09T12:17:21Z</time>
      </trkpt>
      <trkpt lat="46.79993" lon="5.83302">
        <ele>577</ele>
        <time>2022-03-09T12:17:22Z</time>
      </trkpt>
      <trkpt lat="46.80001" lon="5.83294">
        <ele>577</ele>
        <time>2022-03-09T12:17:23Z</time>
      </trkpt>
      <trkpt lat="46.80008" lon="5.83285">
        <ele>576.8</ele>
        <time>2022-03-09T12:17:24Z</time>
      </trkpt>
      <trkpt lat="46.80015" lon="5.83274">
        <ele>576.8</ele>
        <time>2022-03-09T12:17:25Z</time>
      </trkpt>
      <trkpt lat="46.80022" lon="5.83262">
        <ele>576.6</ele>
        <time>2022-03-09T12:17:26Z</time>
      </trkpt>
      <trkpt lat="46.80028" lon="5.8325">
        <ele>576.6</ele>
        <time>2022-03-09T12:17:27Z</time>
      </trkpt>
      <trkpt lat="46.80034" lon="5.8324">
        <ele>576.2</ele>
        <time>2022-03-09T12:17:28Z</time>
      </trkpt>
      <trkpt lat="46.80041" lon="5.8323">
        <ele>576.2</ele>
        <time>2022-03-09T12:17:29Z</time>
      </trkpt>
      <trkpt lat="46.80048" lon="5.83221">
        <ele>575.8</ele>
        <time>2022-03-09T12:17:30Z</time>
      </trkpt>
      <trkpt lat="46.80056" lon="5.83214">
        <ele>575.8</ele>
        <time>2022-03-09T12:17:31Z</time>
      </trkpt>
      <trkpt lat="46.80065" lon="5.83209">
        <ele>575.6</ele>
        <time>2022-03-09T12:17:32Z</time>
      </trkpt>
      <trkpt lat="46.80073" lon="5.83205">
        <ele>575.6</ele>
        <time>2022-03-09T12:17:33Z</time>
      </trkpt>
      <trkpt lat="46.80083" lon="5.832">
        <ele>575.2</ele>
        <time>2022-03-09T12:17:34Z</time>
      </trkpt>
      <trkpt lat="46.80093" lon="5.83195">
        <ele>575.2</ele>
        <time>2022-03-09T12:17:35Z</time>
      </trkpt>
      <trkpt lat="46.80103" lon="5.8319">
        <ele>575</ele>
        <time>2022-03-09T12:17:36Z</time>
      </trkpt>
      <trkpt lat="46.80112" lon="5.83186">
        <ele>575</ele>
        <time>2022-03-09T12:17:37Z</time>
      </trkpt>
      <trkpt lat="46.80122" lon="5.83181">
        <ele>574.6</ele>
        <time>2022-03-09T12:17:38Z</time>
      </trkpt>
      <trkpt lat="46.8013" lon="5.83175">
        <ele>574.4</ele>
        <time>2022-03-09T12:17:39Z</time>
      </trkpt>
      <trkpt lat="46.8014" lon="5.83171">
        <ele>574.4</ele>
        <time>2022-03-09T12:17:40Z</time>
      </trkpt>
      <trkpt lat="46.80149" lon="5.83167">
        <ele>574.2</ele>
        <time>2022-03-09T12:17:41Z</time>
      </trkpt>
      <trkpt lat="46.80159" lon="5.83163">
        <ele>573.8</ele>
        <time>2022-03-09T12:17:42Z</time>
      </trkpt>
      <trkpt lat="46.80168" lon="5.83157">
        <ele>573.6</ele>
        <time>2022-03-09T12:17:43Z</time>
      </trkpt>
      <trkpt lat="46.80176" lon="5.83153">
        <ele>573.6</ele>
        <time>2022-03-09T12:17:44Z</time>
      </trkpt>
      <trkpt lat="46.80185" lon="5.83148">
        <ele>573.4</ele>
        <time>2022-03-09T12:17:45Z</time>
      </trkpt>
      <trkpt lat="46.80194" lon="5.83144">
        <ele>573.4</ele>
        <time>2022-03-09T12:17:46Z</time>
      </trkpt>
      <trkpt lat="46.80203" lon="5.8314">
        <ele>573.4</ele>
        <time>2022-03-09T12:17:47Z</time>
      </trkpt>
      <trkpt lat="46.80212" lon="5.83134">
        <ele>573</ele>
        <time>2022-03-09T12:17:48Z</time>
      </trkpt>
      <trkpt lat="46.80221" lon="5.8313">
        <ele>573</ele>
        <time>2022-03-09T12:17:49Z</time>
      </trkpt>
      <trkpt lat="46.8023" lon="5.83125">
        <ele>573</ele>
        <time>2022-03-09T12:17:50Z</time>
      </trkpt>
      <trkpt lat="46.8024" lon="5.83121">
        <ele>572.6</ele>
        <time>2022-03-09T12:17:51Z</time>
      </trkpt>
      <trkpt lat="46.80248" lon="5.83116">
        <ele>572.6</ele>
        <time>2022-03-09T12:17:52Z</time>
      </trkpt>
      <trkpt lat="46.80257" lon="5.83111">
        <ele>572.4</ele>
        <time>2022-03-09T12:17:53Z</time>
      </trkpt>
      <trkpt lat="46.80267" lon="5.83106">
        <ele>572.8</ele>
        <time>2022-03-09T12:17:54Z</time>
      </trkpt>
      <trkpt lat="46.80276" lon="5.83102">
        <ele>572.4</ele>
        <time>2022-03-09T12:17:55Z</time>
      </trkpt>
      <trkpt lat="46.80285" lon="5.83096">
        <ele>572.4</ele>
        <time>2022-03-09T12:17:56Z</time>
      </trkpt>
      <trkpt lat="46.80294" lon="5.8309">
        <ele>572</ele>
        <time>2022-03-09T12:17:57Z</time>
      </trkpt>
      <trkpt lat="46.80302" lon="5.83084">
        <ele>571.8</ele>
        <time>2022-03-09T12:17:58Z</time>
      </trkpt>
      <trkpt lat="46.80311" lon="5.83077">
        <ele>571.6</ele>
        <time>2022-03-09T12:17:59Z</time>
      </trkpt>
      <trkpt lat="46.80319" lon="5.83069">
        <ele>571.6</ele>
        <time>2022-03-09T12:18:00Z</time>
      </trkpt>
      <trkpt lat="46.80327" lon="5.83061">
        <ele>571.2</ele>
        <time>2022-03-09T12:18:01Z</time>
      </trkpt>
      <trkpt lat="46.80336" lon="5.83053">
        <ele>571.2</ele>
        <time>2022-03-09T12:18:02Z</time>
      </trkpt>
      <trkpt lat="46.80344" lon="5.83043">
        <ele>571</ele>
        <time>2022-03-09T12:18:03Z</time>
      </trkpt>
      <trkpt lat="46.80352" lon="5.83034">
        <ele>571</ele>
        <time>2022-03-09T12:18:04Z</time>
      </trkpt>
      <trkpt lat="46.80359" lon="5.83024">
        <ele>570.6</ele>
        <time>2022-03-09T12:18:05Z</time>
      </trkpt>
      <trkpt lat="46.80366" lon="5.83013">
        <ele>570.6</ele>
        <time>2022-03-09T12:18:06Z</time>
      </trkpt>
      <trkpt lat="46.80373" lon="5.83002">
        <ele>570.4</ele>
        <time>2022-03-09T12:18:07Z</time>
      </trkpt>
      <trkpt lat="46.80379" lon="5.82991">
        <ele>570.2</ele>
        <time>2022-03-09T12:18:08Z</time>
      </trkpt>
      <trkpt lat="46.80385" lon="5.82979">
        <ele>570.2</ele>
        <time>2022-03-09T12:18:09Z</time>
      </trkpt>
      <trkpt lat="46.8039" lon="5.82968">
        <ele>570.2</ele>
        <time>2022-03-09T12:18:10Z</time>
      </trkpt>
      <trkpt lat="46.80396" lon="5.82956">
        <ele>569.8</ele>
        <time>2022-03-09T12:18:11Z</time>
      </trkpt>
      <trkpt lat="46.80401" lon="5.82944">
        <ele>569.6</ele>
        <time>2022-03-09T12:18:12Z</time>
      </trkpt>
      <trkpt lat="46.80405" lon="5.82932">
        <ele>569.6</ele>
        <time>2022-03-09T12:18:13Z</time>
      </trkpt>
      <trkpt lat="46.8041" lon="5.82921">
        <ele>569.2</ele>
        <time>2022-03-09T12:18:14Z</time>
      </trkpt>
      <trkpt lat="46.80413" lon="5.82909">
        <ele>569</ele>
        <time>2022-03-09T12:18:15Z</time>
      </trkpt>
      <trkpt lat="46.80416" lon="5.82897">
        <ele>569</ele>
        <time>2022-03-09T12:18:16Z</time>
      </trkpt>
      <trkpt lat="46.80419" lon="5.82885">
        <ele>568.6</ele>
        <time>2022-03-09T12:18:17Z</time>
      </trkpt>
      <trkpt lat="46.80422" lon="5.82873">
        <ele>568.4</ele>
        <time>2022-03-09T12:18:18Z</time>
      </trkpt>
      <trkpt lat="46.80425" lon="5.82861">
        <ele>568</ele>
        <time>2022-03-09T12:18:19Z</time>
      </trkpt>
      <trkpt lat="46.80427" lon="5.82849">
        <ele>567.8</ele>
        <time>2022-03-09T12:18:20Z</time>
      </trkpt>
      <trkpt lat="46.8043" lon="5.82837">
        <ele>567.8</ele>
        <time>2022-03-09T12:18:21Z</time>
      </trkpt>
      <trkpt lat="46.80432" lon="5.82825">
        <ele>567.6</ele>
        <time>2022-03-09T12:18:22Z</time>
      </trkpt>
      <trkpt lat="46.80435" lon="5.82814">
        <ele>567.2</ele>
        <time>2022-03-09T12:18:23Z</time>
      </trkpt>
      <trkpt lat="46.80437" lon="5.82802">
        <ele>567.2</ele>
        <time>2022-03-09T12:18:24Z</time>
      </trkpt>
      <trkpt lat="46.8044" lon="5.8279">
        <ele>567</ele>
        <time>2022-03-09T12:18:25Z</time>
      </trkpt>
      <trkpt lat="46.80443" lon="5.82778">
        <ele>567</ele>
        <time>2022-03-09T12:18:26Z</time>
      </trkpt>
      <trkpt lat="46.80445" lon="5.82766">
        <ele>566.6</ele>
        <time>2022-03-09T12:18:27Z</time>
      </trkpt>
      <trkpt lat="46.80448" lon="5.82754">
        <ele>566.6</ele>
        <time>2022-03-09T12:18:28Z</time>
      </trkpt>
      <trkpt lat="46.80451" lon="5.82742">
        <ele>566.2</ele>
        <time>2022-03-09T12:18:29Z</time>
      </trkpt>
      <trkpt lat="46.80453" lon="5.8273">
        <ele>566</ele>
        <time>2022-03-09T12:18:30Z</time>
      </trkpt>
      <trkpt lat="46.80456" lon="5.82718">
        <ele>566</ele>
        <time>2022-03-09T12:18:31Z</time>
      </trkpt>
      <trkpt lat="46.80459" lon="5.82707">
        <ele>565.4</ele>
        <time>2022-03-09T12:18:32Z</time>
      </trkpt>
      <trkpt lat="46.80461" lon="5.82695">
        <ele>565.2</ele>
        <time>2022-03-09T12:18:33Z</time>
      </trkpt>
      <trkpt lat="46.80464" lon="5.82683">
        <ele>565.2</ele>
        <time>2022-03-09T12:18:34Z</time>
      </trkpt>
      <trkpt lat="46.80467" lon="5.82671">
        <ele>565</ele>
        <time>2022-03-09T12:18:35Z</time>
      </trkpt>
      <trkpt lat="46.80469" lon="5.82659">
        <ele>565</ele>
        <time>2022-03-09T12:18:36Z</time>
      </trkpt>
      <trkpt lat="46.80472" lon="5.82648">
        <ele>564.8</ele>
        <time>2022-03-09T12:18:37Z</time>
      </trkpt>
      <trkpt lat="46.80474" lon="5.82636">
        <ele>564.8</ele>
        <time>2022-03-09T12:18:38Z</time>
      </trkpt>
      <trkpt lat="46.80477" lon="5.82624">
        <ele>564.8</ele>
        <time>2022-03-09T12:18:39Z</time>
      </trkpt>
      <trkpt lat="46.80479" lon="5.82612">
        <ele>564.6</ele>
        <time>2022-03-09T12:18:40Z</time>
      </trkpt>
      <trkpt lat="46.80482" lon="5.826">
        <ele>564.6</ele>
        <time>2022-03-09T12:18:41Z</time>
      </trkpt>
      <trkpt lat="46.80485" lon="5.82588">
        <ele>564.2</ele>
        <time>2022-03-09T12:18:42Z</time>
      </trkpt>
      <trkpt lat="46.80485" lon="5.82588">
        <ele>564.2</ele>
        <time>2022-03-09T12:18:43Z</time>
      </trkpt>
      <trkpt lat="46.80487" lon="5.82576">
        <ele>564</ele>
        <time>2022-03-09T12:18:44Z</time>
      </trkpt>
      <trkpt lat="46.8049" lon="5.82565">
        <ele>564</ele>
        <time>2022-03-09T12:18:45Z</time>
      </trkpt>
      <trkpt lat="46.80492" lon="5.82553">
        <ele>563.8</ele>
        <time>2022-03-09T12:18:46Z</time>
      </trkpt>
      <trkpt lat="46.80495" lon="5.82541">
        <ele>563.8</ele>
        <time>2022-03-09T12:18:47Z</time>
      </trkpt>
      <trkpt lat="46.80497" lon="5.8253">
        <ele>563.8</ele>
        <time>2022-03-09T12:18:48Z</time>
      </trkpt>
      <trkpt lat="46.805" lon="5.82519">
        <ele>563.8</ele>
        <time>2022-03-09T12:18:49Z</time>
      </trkpt>
      <trkpt lat="46.80502" lon="5.82508">
        <ele>563.8</ele>
        <time>2022-03-09T12:18:50Z</time>
      </trkpt>
      <trkpt lat="46.80505" lon="5.82497">
        <ele>563.8</ele>
        <time>2022-03-09T12:18:51Z</time>
      </trkpt>
      <trkpt lat="46.80507" lon="5.82486">
        <ele>563.8</ele>
        <time>2022-03-09T12:18:52Z</time>
      </trkpt>
      <trkpt lat="46.8051" lon="5.82475">
        <ele>563.6</ele>
        <time>2022-03-09T12:18:53Z</time>
      </trkpt>
      <trkpt lat="46.80512" lon="5.82465">
        <ele>563.6</ele>
        <time>2022-03-09T12:18:54Z</time>
      </trkpt>
      <trkpt lat="46.80514" lon="5.82454">
        <ele>563.2</ele>
        <time>2022-03-09T12:18:55Z</time>
      </trkpt>
      <trkpt lat="46.80517" lon="5.82444">
        <ele>563.2</ele>
        <time>2022-03-09T12:18:56Z</time>
      </trkpt>
      <trkpt lat="46.80519" lon="5.82433">
        <ele>563.2</ele>
        <time>2022-03-09T12:18:57Z</time>
      </trkpt>
      <trkpt lat="46.80521" lon="5.82423">
        <ele>563.2</ele>
        <time>2022-03-09T12:18:58Z</time>
      </trkpt>
      <trkpt lat="46.80524" lon="5.82412">
        <ele>563.2</ele>
        <time>2022-03-09T12:18:59Z</time>
      </trkpt>
      <trkpt lat="46.80526" lon="5.82402">
        <ele>563.2</ele>
        <time>2022-03-09T12:19:00Z</time>
      </trkpt>
      <trkpt lat="46.80528" lon="5.82392">
        <ele>563.2</ele>
        <time>2022-03-09T12:19:01Z</time>
      </trkpt>
      <trkpt lat="46.8053" lon="5.82382">
        <ele>563.2</ele>
        <time>2022-03-09T12:19:02Z</time>
      </trkpt>
      <trkpt lat="46.80533" lon="5.82372">
        <ele>563.2</ele>
        <time>2022-03-09T12:19:03Z</time>
      </trkpt>
      <trkpt lat="46.80535" lon="5.82362">
        <ele>563.2</ele>
        <time>2022-03-09T12:19:04Z</time>
      </trkpt>
      <trkpt lat="46.80537" lon="5.82352">
        <ele>563.2</ele>
        <time>2022-03-09T12:19:05Z</time>
      </trkpt>
      <trkpt lat="46.80539" lon="5.82343">
        <ele>563.2</ele>
        <time>2022-03-09T12:19:06Z</time>
      </trkpt>
      <trkpt lat="46.80541" lon="5.82333">
        <ele>563.2</ele>
        <time>2022-03-09T12:19:07Z</time>
      </trkpt>
      <trkpt lat="46.80543" lon="5.82323">
        <ele>563.2</ele>
        <time>2022-03-09T12:19:08Z</time>
      </trkpt>
      <trkpt lat="46.80545" lon="5.82314">
        <ele>563.2</ele>
        <time>2022-03-09T12:19:09Z</time>
      </trkpt>
      <trkpt lat="46.80547" lon="5.82304">
        <ele>563.2</ele>
        <time>2022-03-09T12:19:10Z</time>
      </trkpt>
      <trkpt lat="46.80549" lon="5.82295">
        <ele>563.2</ele>
        <time>2022-03-09T12:19:11Z</time>
      </trkpt>
      <trkpt lat="46.80551" lon="5.82286">
        <ele>563.2</ele>
        <time>2022-03-09T12:19:12Z</time>
      </trkpt>
      <trkpt lat="46.80553" lon="5.82277">
        <ele>563.2</ele>
        <time>2022-03-09T12:19:13Z</time>
      </trkpt>
      <trkpt lat="46.80555" lon="5.82268">
        <ele>563.2</ele>
        <time>2022-03-09T12:19:14Z</time>
      </trkpt>
      <trkpt lat="46.80557" lon="5.82259">
        <ele>563.2</ele>
        <time>2022-03-09T12:19:15Z</time>
      </trkpt>
      <trkpt lat="46.80559" lon="5.8225">
        <ele>563.6</ele>
        <time>2022-03-09T12:19:16Z</time>
      </trkpt>
      <trkpt lat="46.80561" lon="5.82241">
        <ele>563.6</ele>
        <time>2022-03-09T12:19:17Z</time>
      </trkpt>
      <trkpt lat="46.80563" lon="5.82232">
        <ele>563.6</ele>
        <time>2022-03-09T12:19:18Z</time>
      </trkpt>
      <trkpt lat="46.80566" lon="5.82223">
        <ele>563.6</ele>
        <time>2022-03-09T12:19:19Z</time>
      </trkpt>
      <trkpt lat="46.80568" lon="5.82214">
        <ele>563.6</ele>
        <time>2022-03-09T12:19:20Z</time>
      </trkpt>
      <trkpt lat="46.8057" lon="5.82205">
        <ele>563.6</ele>
        <time>2022-03-09T12:19:21Z</time>
      </trkpt>
      <trkpt lat="46.80572" lon="5.82196">
        <ele>563.8</ele>
        <time>2022-03-09T12:19:22Z</time>
      </trkpt>
      <trkpt lat="46.80573" lon="5.82187">
        <ele>563.8</ele>
        <time>2022-03-09T12:19:23Z</time>
      </trkpt>
      <trkpt lat="46.80575" lon="5.82178">
        <ele>563.8</ele>
        <time>2022-03-09T12:19:24Z</time>
      </trkpt>
      <trkpt lat="46.80577" lon="5.8217">
        <ele>563.8</ele>
        <time>2022-03-09T12:19:25Z</time>
      </trkpt>
      <trkpt lat="46.80579" lon="5.82161">
        <ele>564</ele>
        <time>2022-03-09T12:19:26Z</time>
      </trkpt>
      <trkpt lat="46.80582" lon="5.82152">
        <ele>564</ele>
        <time>2022-03-09T12:19:27Z</time>
      </trkpt>
      <trkpt lat="46.80584" lon="5.82143">
        <ele>564</ele>
        <time>2022-03-09T12:19:28Z</time>
      </trkpt>
      <trkpt lat="46.80585" lon="5.82134">
        <ele>564</ele>
        <time>2022-03-09T12:19:29Z</time>
      </trkpt>
      <trkpt lat="46.80588" lon="5.82124">
        <ele>564</ele>
        <time>2022-03-09T12:19:30Z</time>
      </trkpt>
      <trkpt lat="46.8059" lon="5.82115">
        <ele>564</ele>
        <time>2022-03-09T12:19:31Z</time>
      </trkpt>
      <trkpt lat="46.80592" lon="5.82106">
        <ele>564</ele>
        <time>2022-03-09T12:19:32Z</time>
      </trkpt>
      <trkpt lat="46.80594" lon="5.82097">
        <ele>564</ele>
        <time>2022-03-09T12:19:33Z</time>
      </trkpt>
      <trkpt lat="46.80596" lon="5.82088">
        <ele>564</ele>
        <time>2022-03-09T12:19:34Z</time>
      </trkpt>
      <trkpt lat="46.80598" lon="5.82079">
        <ele>564</ele>
        <time>2022-03-09T12:19:35Z</time>
      </trkpt>
      <trkpt lat="46.806" lon="5.82069">
        <ele>564</ele>
        <time>2022-03-09T12:19:36Z</time>
      </trkpt>
      <trkpt lat="46.80602" lon="5.8206">
        <ele>564</ele>
        <time>2022-03-09T12:19:37Z</time>
      </trkpt>
      <trkpt lat="46.80604" lon="5.8205">
        <ele>564</ele>
        <time>2022-03-09T12:19:38Z</time>
      </trkpt>
      <trkpt lat="46.80607" lon="5.8204">
        <ele>564</ele>
        <time>2022-03-09T12:19:39Z</time>
      </trkpt>
      <trkpt lat="46.80609" lon="5.82031">
        <ele>563.8</ele>
        <time>2022-03-09T12:19:40Z</time>
      </trkpt>
      <trkpt lat="46.80611" lon="5.82021">
        <ele>563.8</ele>
        <time>2022-03-09T12:19:41Z</time>
      </trkpt>
      <trkpt lat="46.80613" lon="5.82011">
        <ele>563.8</ele>
        <time>2022-03-09T12:19:42Z</time>
      </trkpt>
      <trkpt lat="46.80616" lon="5.82001">
        <ele>563.8</ele>
        <time>2022-03-09T12:19:43Z</time>
      </trkpt>
      <trkpt lat="46.80618" lon="5.81991">
        <ele>563.8</ele>
        <time>2022-03-09T12:19:44Z</time>
      </trkpt>
      <trkpt lat="46.8062" lon="5.81982">
        <ele>563.8</ele>
        <time>2022-03-09T12:19:45Z</time>
      </trkpt>
      <trkpt lat="46.80622" lon="5.81972">
        <ele>563.8</ele>
        <time>2022-03-09T12:19:46Z</time>
      </trkpt>
      <trkpt lat="46.80624" lon="5.81962">
        <ele>563.8</ele>
        <time>2022-03-09T12:19:47Z</time>
      </trkpt>
      <trkpt lat="46.80626" lon="5.81953">
        <ele>563.8</ele>
        <time>2022-03-09T12:19:48Z</time>
      </trkpt>
      <trkpt lat="46.80629" lon="5.81943">
        <ele>563.8</ele>
        <time>2022-03-09T12:19:49Z</time>
      </trkpt>
      <trkpt lat="46.80631" lon="5.81933">
        <ele>563.8</ele>
        <time>2022-03-09T12:19:50Z</time>
      </trkpt>
      <trkpt lat="46.80633" lon="5.81924">
        <ele>563.8</ele>
        <time>2022-03-09T12:19:51Z</time>
      </trkpt>
      <trkpt lat="46.80635" lon="5.81914">
        <ele>563.8</ele>
        <time>2022-03-09T12:19:52Z</time>
      </trkpt>
      <trkpt lat="46.80638" lon="5.81905">
        <ele>563.8</ele>
        <time>2022-03-09T12:19:53Z</time>
      </trkpt>
      <trkpt lat="46.8064" lon="5.81895">
        <ele>563.8</ele>
        <time>2022-03-09T12:19:54Z</time>
      </trkpt>
      <trkpt lat="46.80642" lon="5.81886">
        <ele>563.8</ele>
        <time>2022-03-09T12:19:55Z</time>
      </trkpt>
      <trkpt lat="46.80644" lon="5.81876">
        <ele>563.8</ele>
        <time>2022-03-09T12:19:56Z</time>
      </trkpt>
      <trkpt lat="46.80646" lon="5.81867">
        <ele>563.8</ele>
        <time>2022-03-09T12:19:57Z</time>
      </trkpt>
      <trkpt lat="46.80648" lon="5.81857">
        <ele>563.8</ele>
        <time>2022-03-09T12:19:58Z</time>
      </trkpt>
      <trkpt lat="46.80651" lon="5.81847">
        <ele>563.8</ele>
        <time>2022-03-09T12:19:59Z</time>
      </trkpt>
      <trkpt lat="46.80653" lon="5.81837">
        <ele>563.8</ele>
        <time>2022-03-09T12:20:00Z</time>
      </trkpt>
      <trkpt lat="46.80655" lon="5.81827">
        <ele>563.8</ele>
        <time>2022-03-09T12:20:01Z</time>
      </trkpt>
      <trkpt lat="46.80657" lon="5.81818">
        <ele>563.8</ele>
        <time>2022-03-09T12:20:02Z</time>
      </trkpt>
      <trkpt lat="46.80659" lon="5.81807">
        <ele>563.8</ele>
        <time>2022-03-09T12:20:03Z</time>
      </trkpt>
      <trkpt lat="46.80661" lon="5.81797">
        <ele>563.8</ele>
        <time>2022-03-09T12:20:04Z</time>
      </trkpt>
      <trkpt lat="46.80664" lon="5.81787">
        <ele>563.8</ele>
        <time>2022-03-09T12:20:05Z</time>
      </trkpt>
      <trkpt lat="46.80666" lon="5.81777">
        <ele>563.8</ele>
        <time>2022-03-09T12:20:06Z</time>
      </trkpt>
      <trkpt lat="46.80668" lon="5.81767">
        <ele>563.8</ele>
        <time>2022-03-09T12:20:07Z</time>
      </trkpt>
      <trkpt lat="46.80671" lon="5.81757">
        <ele>563.8</ele>
        <time>2022-03-09T12:20:08Z</time>
      </trkpt>
      <trkpt lat="46.80673" lon="5.81747">
        <ele>563.4</ele>
        <time>2022-03-09T12:20:09Z</time>
      </trkpt>
      <trkpt lat="46.80675" lon="5.81737">
        <ele>563.4</ele>
        <time>2022-03-09T12:20:10Z</time>
      </trkpt>
      <trkpt lat="46.80677" lon="5.81727">
        <ele>563.2</ele>
        <time>2022-03-09T12:20:11Z</time>
      </trkpt>
      <trkpt lat="46.8068" lon="5.81717">
        <ele>563.2</ele>
        <time>2022-03-09T12:20:12Z</time>
      </trkpt>
      <trkpt lat="46.80682" lon="5.81707">
        <ele>563.2</ele>
        <time>2022-03-09T12:20:13Z</time>
      </trkpt>
      <trkpt lat="46.80684" lon="5.81697">
        <ele>563.2</ele>
        <time>2022-03-09T12:20:14Z</time>
      </trkpt>
      <trkpt lat="46.80686" lon="5.81687">
        <ele>563.2</ele>
        <time>2022-03-09T12:20:15Z</time>
      </trkpt>
      <trkpt lat="46.80688" lon="5.81677">
        <ele>563.2</ele>
        <time>2022-03-09T12:20:16Z</time>
      </trkpt>
      <trkpt lat="46.8069" lon="5.81667">
        <ele>563.2</ele>
        <time>2022-03-09T12:20:17Z</time>
      </trkpt>
      <trkpt lat="46.80693" lon="5.81657">
        <ele>563.2</ele>
        <time>2022-03-09T12:20:18Z</time>
      </trkpt>
      <trkpt lat="46.80695" lon="5.81647">
        <ele>563</ele>
        <time>2022-03-09T12:20:19Z</time>
      </trkpt>
      <trkpt lat="46.80697" lon="5.81637">
        <ele>563</ele>
        <time>2022-03-09T12:20:20Z</time>
      </trkpt>
      <trkpt lat="46.80699" lon="5.81626">
        <ele>563</ele>
        <time>2022-03-09T12:20:21Z</time>
      </trkpt>
      <trkpt lat="46.80702" lon="5.81616">
        <ele>562.8</ele>
        <time>2022-03-09T12:20:22Z</time>
      </trkpt>
      <trkpt lat="46.80704" lon="5.81605">
        <ele>562.8</ele>
        <time>2022-03-09T12:20:23Z</time>
      </trkpt>
      <trkpt lat="46.80707" lon="5.81594">
        <ele>562.4</ele>
        <time>2022-03-09T12:20:24Z</time>
      </trkpt>
      <trkpt lat="46.80709" lon="5.81583">
        <ele>562.4</ele>
        <time>2022-03-09T12:20:25Z</time>
      </trkpt>
      <trkpt lat="46.80712" lon="5.81572">
        <ele>562.4</ele>
        <time>2022-03-09T12:20:26Z</time>
      </trkpt>
      <trkpt lat="46.80714" lon="5.81561">
        <ele>562.4</ele>
        <time>2022-03-09T12:20:27Z</time>
      </trkpt>
      <trkpt lat="46.80717" lon="5.8155">
        <ele>562.4</ele>
        <time>2022-03-09T12:20:28Z</time>
      </trkpt>
      <trkpt lat="46.80719" lon="5.81539">
        <ele>562.4</ele>
        <time>2022-03-09T12:20:29Z</time>
      </trkpt>
      <trkpt lat="46.80722" lon="5.81528">
        <ele>562.4</ele>
        <time>2022-03-09T12:20:30Z</time>
      </trkpt>
      <trkpt lat="46.80724" lon="5.81517">
        <ele>562.4</ele>
        <time>2022-03-09T12:20:31Z</time>
      </trkpt>
      <trkpt lat="46.80727" lon="5.81507">
        <ele>562.4</ele>
        <time>2022-03-09T12:20:32Z</time>
      </trkpt>
      <trkpt lat="46.80729" lon="5.81497">
        <ele>562.4</ele>
        <time>2022-03-09T12:20:33Z</time>
      </trkpt>
      <trkpt lat="46.80731" lon="5.81487">
        <ele>562.4</ele>
        <time>2022-03-09T12:20:34Z</time>
      </trkpt>
      <trkpt lat="46.80734" lon="5.81478">
        <ele>562.8</ele>
        <time>2022-03-09T12:20:35Z</time>
      </trkpt>
      <trkpt lat="46.80736" lon="5.81468">
        <ele>562.8</ele>
        <time>2022-03-09T12:20:36Z</time>
      </trkpt>
      <trkpt lat="46.80738" lon="5.81459">
        <ele>562.8</ele>
        <time>2022-03-09T12:20:37Z</time>
      </trkpt>
      <trkpt lat="46.8074" lon="5.8145">
        <ele>562.8</ele>
        <time>2022-03-09T12:20:38Z</time>
      </trkpt>
      <trkpt lat="46.80742" lon="5.81441">
        <ele>562.8</ele>
        <time>2022-03-09T12:20:39Z</time>
      </trkpt>
      <trkpt lat="46.80744" lon="5.81432">
        <ele>563.2</ele>
        <time>2022-03-09T12:20:40Z</time>
      </trkpt>
      <trkpt lat="46.80746" lon="5.81423">
        <ele>563.2</ele>
        <time>2022-03-09T12:20:41Z</time>
      </trkpt>
      <trkpt lat="46.80749" lon="5.81414">
        <ele>563.4</ele>
        <time>2022-03-09T12:20:42Z</time>
      </trkpt>
      <trkpt lat="46.80751" lon="5.81405">
        <ele>563.4</ele>
        <time>2022-03-09T12:20:43Z</time>
      </trkpt>
      <trkpt lat="46.80753" lon="5.81397">
        <ele>563.6</ele>
        <time>2022-03-09T12:20:44Z</time>
      </trkpt>
      <trkpt lat="46.80755" lon="5.81389">
        <ele>563.6</ele>
        <time>2022-03-09T12:20:45Z</time>
      </trkpt>
      <trkpt lat="46.80757" lon="5.8138">
        <ele>563.8</ele>
        <time>2022-03-09T12:20:46Z</time>
      </trkpt>
      <trkpt lat="46.80759" lon="5.81372">
        <ele>564.2</ele>
        <time>2022-03-09T12:20:47Z</time>
      </trkpt>
      <trkpt lat="46.80761" lon="5.81363">
        <ele>564.4</ele>
        <time>2022-03-09T12:20:48Z</time>
      </trkpt>
      <trkpt lat="46.80763" lon="5.81355">
        <ele>564.4</ele>
        <time>2022-03-09T12:20:49Z</time>
      </trkpt>
      <trkpt lat="46.80765" lon="5.81346">
        <ele>564.6</ele>
        <time>2022-03-09T12:20:50Z</time>
      </trkpt>
      <trkpt lat="46.80767" lon="5.81336">
        <ele>565</ele>
        <time>2022-03-09T12:20:51Z</time>
      </trkpt>
      <trkpt lat="46.80769" lon="5.81327">
        <ele>565.2</ele>
        <time>2022-03-09T12:20:52Z</time>
      </trkpt>
      <trkpt lat="46.8077" lon="5.81318">
        <ele>565.4</ele>
        <time>2022-03-09T12:20:53Z</time>
      </trkpt>
      <trkpt lat="46.80772" lon="5.81309">
        <ele>565.4</ele>
        <time>2022-03-09T12:20:54Z</time>
      </trkpt>
      <trkpt lat="46.80774" lon="5.813">
        <ele>565.8</ele>
        <time>2022-03-09T12:20:55Z</time>
      </trkpt>
      <trkpt lat="46.80777" lon="5.81291">
        <ele>565.8</ele>
        <time>2022-03-09T12:20:56Z</time>
      </trkpt>
      <trkpt lat="46.80779" lon="5.81282">
        <ele>566</ele>
        <time>2022-03-09T12:20:57Z</time>
      </trkpt>
      <trkpt lat="46.80781" lon="5.81273">
        <ele>566</ele>
        <time>2022-03-09T12:20:58Z</time>
      </trkpt>
      <trkpt lat="46.80783" lon="5.81263">
        <ele>566</ele>
        <time>2022-03-09T12:20:59Z</time>
      </trkpt>
      <trkpt lat="46.80786" lon="5.81253">
        <ele>566</ele>
        <time>2022-03-09T12:21:00Z</time>
      </trkpt>
      <trkpt lat="46.80788" lon="5.81243">
        <ele>566</ele>
        <time>2022-03-09T12:21:01Z</time>
      </trkpt>
      <trkpt lat="46.8079" lon="5.81233">
        <ele>565.6</ele>
        <time>2022-03-09T12:21:02Z</time>
      </trkpt>
      <trkpt lat="46.80792" lon="5.81224">
        <ele>565.6</ele>
        <time>2022-03-09T12:21:03Z</time>
      </trkpt>
      <trkpt lat="46.80794" lon="5.81214">
        <ele>565.6</ele>
        <time>2022-03-09T12:21:04Z</time>
      </trkpt>
      <trkpt lat="46.80796" lon="5.81204">
        <ele>565.6</ele>
        <time>2022-03-09T12:21:05Z</time>
      </trkpt>
      <trkpt lat="46.80799" lon="5.81194">
        <ele>565.6</ele>
        <time>2022-03-09T12:21:06Z</time>
      </trkpt>
      <trkpt lat="46.80801" lon="5.81184">
        <ele>565.4</ele>
        <time>2022-03-09T12:21:07Z</time>
      </trkpt>
      <trkpt lat="46.80804" lon="5.81174">
        <ele>565.4</ele>
        <time>2022-03-09T12:21:08Z</time>
      </trkpt>
      <trkpt lat="46.80806" lon="5.81164">
        <ele>565.4</ele>
        <time>2022-03-09T12:21:09Z</time>
      </trkpt>
      <trkpt lat="46.80809" lon="5.81154">
        <ele>565.4</ele>
        <time>2022-03-09T12:21:10Z</time>
      </trkpt>
      <trkpt lat="46.80811" lon="5.81144">
        <ele>565.4</ele>
        <time>2022-03-09T12:21:11Z</time>
      </trkpt>
      <trkpt lat="46.80812" lon="5.81134">
        <ele>565.4</ele>
        <time>2022-03-09T12:21:12Z</time>
      </trkpt>
      <trkpt lat="46.80814" lon="5.81124">
        <ele>565.4</ele>
        <time>2022-03-09T12:21:13Z</time>
      </trkpt>
      <trkpt lat="46.80817" lon="5.81114">
        <ele>565.4</ele>
        <time>2022-03-09T12:21:14Z</time>
      </trkpt>
      <trkpt lat="46.80819" lon="5.81104">
        <ele>565.4</ele>
        <time>2022-03-09T12:21:15Z</time>
      </trkpt>
      <trkpt lat="46.80821" lon="5.81093">
        <ele>565.4</ele>
        <time>2022-03-09T12:21:16Z</time>
      </trkpt>
      <trkpt lat="46.80824" lon="5.81083">
        <ele>565.4</ele>
        <time>2022-03-09T12:21:17Z</time>
      </trkpt>
      <trkpt lat="46.80826" lon="5.81073">
        <ele>565.4</ele>
        <time>2022-03-09T12:21:18Z</time>
      </trkpt>
      <trkpt lat="46.80828" lon="5.81062">
        <ele>565.4</ele>
        <time>2022-03-09T12:21:19Z</time>
      </trkpt>
      <trkpt lat="46.8083" lon="5.81051">
        <ele>565.4</ele>
        <time>2022-03-09T12:21:20Z</time>
      </trkpt>
      <trkpt lat="46.80833" lon="5.8104">
        <ele>565.2</ele>
        <time>2022-03-09T12:21:21Z</time>
      </trkpt>
      <trkpt lat="46.80835" lon="5.81028">
        <ele>565.2</ele>
        <time>2022-03-09T12:21:22Z</time>
      </trkpt>
      <trkpt lat="46.80838" lon="5.81017">
        <ele>564.8</ele>
        <time>2022-03-09T12:21:23Z</time>
      </trkpt>
      <trkpt lat="46.80841" lon="5.81005">
        <ele>564.8</ele>
        <time>2022-03-09T12:21:24Z</time>
      </trkpt>
      <trkpt lat="46.80843" lon="5.80993">
        <ele>564.6</ele>
        <time>2022-03-09T12:21:25Z</time>
      </trkpt>
      <trkpt lat="46.80846" lon="5.80981">
        <ele>564.6</ele>
        <time>2022-03-09T12:21:26Z</time>
      </trkpt>
      <trkpt lat="46.80849" lon="5.80969">
        <ele>564.2</ele>
        <time>2022-03-09T12:21:27Z</time>
      </trkpt>
      <trkpt lat="46.80852" lon="5.80957">
        <ele>564.2</ele>
        <time>2022-03-09T12:21:28Z</time>
      </trkpt>
      <trkpt lat="46.80855" lon="5.80945">
        <ele>563.8</ele>
        <time>2022-03-09T12:21:29Z</time>
      </trkpt>
      <trkpt lat="46.80858" lon="5.80932">
        <ele>563.6</ele>
        <time>2022-03-09T12:21:30Z</time>
      </trkpt>
      <trkpt lat="46.80861" lon="5.80919">
        <ele>563.4</ele>
        <time>2022-03-09T12:21:31Z</time>
      </trkpt>
      <trkpt lat="46.80863" lon="5.80906">
        <ele>563.2</ele>
        <time>2022-03-09T12:21:32Z</time>
      </trkpt>
      <trkpt lat="46.80866" lon="5.80894">
        <ele>563.2</ele>
        <time>2022-03-09T12:21:33Z</time>
      </trkpt>
      <trkpt lat="46.80869" lon="5.80881">
        <ele>562.8</ele>
        <time>2022-03-09T12:21:34Z</time>
      </trkpt>
      <trkpt lat="46.80872" lon="5.80869">
        <ele>562.8</ele>
        <time>2022-03-09T12:21:35Z</time>
      </trkpt>
      <trkpt lat="46.80875" lon="5.80857">
        <ele>562.6</ele>
        <time>2022-03-09T12:21:36Z</time>
      </trkpt>
      <trkpt lat="46.80877" lon="5.80844">
        <ele>562.6</ele>
        <time>2022-03-09T12:21:37Z</time>
      </trkpt>
      <trkpt lat="46.80882" lon="5.8082">
        <ele>562.2</ele>
        <time>2022-03-09T12:21:38Z</time>
      </trkpt>
      <trkpt lat="46.80885" lon="5.80808">
        <ele>562.2</ele>
        <time>2022-03-09T12:21:39Z</time>
      </trkpt>
      <trkpt lat="46.80887" lon="5.80796">
        <ele>562.2</ele>
        <time>2022-03-09T12:21:40Z</time>
      </trkpt>
      <trkpt lat="46.80889" lon="5.80784">
        <ele>562</ele>
        <time>2022-03-09T12:21:41Z</time>
      </trkpt>
      <trkpt lat="46.80892" lon="5.80772">
        <ele>562</ele>
        <time>2022-03-09T12:21:42Z</time>
      </trkpt>
      <trkpt lat="46.80895" lon="5.8076">
        <ele>561.6</ele>
        <time>2022-03-09T12:21:43Z</time>
      </trkpt>
      <trkpt lat="46.80897" lon="5.80748">
        <ele>561.6</ele>
        <time>2022-03-09T12:21:44Z</time>
      </trkpt>
      <trkpt lat="46.809" lon="5.80737">
        <ele>561.2</ele>
        <time>2022-03-09T12:21:45Z</time>
      </trkpt>
      <trkpt lat="46.80902" lon="5.80725">
        <ele>561.6</ele>
        <time>2022-03-09T12:21:46Z</time>
      </trkpt>
      <trkpt lat="46.80905" lon="5.80713">
        <ele>561.4</ele>
        <time>2022-03-09T12:21:47Z</time>
      </trkpt>
      <trkpt lat="46.80908" lon="5.80701">
        <ele>561.4</ele>
        <time>2022-03-09T12:21:48Z</time>
      </trkpt>
      <trkpt lat="46.8091" lon="5.8069">
        <ele>561.4</ele>
        <time>2022-03-09T12:21:49Z</time>
      </trkpt>
      <trkpt lat="46.80913" lon="5.80679">
        <ele>561.4</ele>
        <time>2022-03-09T12:21:50Z</time>
      </trkpt>
      <trkpt lat="46.80915" lon="5.80668">
        <ele>561.4</ele>
        <time>2022-03-09T12:21:51Z</time>
      </trkpt>
      <trkpt lat="46.80918" lon="5.80656">
        <ele>561.4</ele>
        <time>2022-03-09T12:21:52Z</time>
      </trkpt>
      <trkpt lat="46.8092" lon="5.80646">
        <ele>561.4</ele>
        <time>2022-03-09T12:21:53Z</time>
      </trkpt>
      <trkpt lat="46.80923" lon="5.80635">
        <ele>561.4</ele>
        <time>2022-03-09T12:21:54Z</time>
      </trkpt>
      <trkpt lat="46.80925" lon="5.80624">
        <ele>561.4</ele>
        <time>2022-03-09T12:21:55Z</time>
      </trkpt>
      <trkpt lat="46.80927" lon="5.80614">
        <ele>561.4</ele>
        <time>2022-03-09T12:21:56Z</time>
      </trkpt>
      <trkpt lat="46.8093" lon="5.80603">
        <ele>561.4</ele>
        <time>2022-03-09T12:21:57Z</time>
      </trkpt>
      <trkpt lat="46.80932" lon="5.80593">
        <ele>561.6</ele>
        <time>2022-03-09T12:21:58Z</time>
      </trkpt>
      <trkpt lat="46.80934" lon="5.80583">
        <ele>561.6</ele>
        <time>2022-03-09T12:21:59Z</time>
      </trkpt>
      <trkpt lat="46.80936" lon="5.80573">
        <ele>562</ele>
        <time>2022-03-09T12:22:00Z</time>
      </trkpt>
      <trkpt lat="46.80938" lon="5.80563">
        <ele>562.2</ele>
        <time>2022-03-09T12:22:01Z</time>
      </trkpt>
      <trkpt lat="46.80941" lon="5.80553">
        <ele>562.2</ele>
        <time>2022-03-09T12:22:02Z</time>
      </trkpt>
      <trkpt lat="46.80943" lon="5.80543">
        <ele>562.4</ele>
        <time>2022-03-09T12:22:03Z</time>
      </trkpt>
      <trkpt lat="46.80945" lon="5.80534">
        <ele>562.4</ele>
        <time>2022-03-09T12:22:04Z</time>
      </trkpt>
      <trkpt lat="46.80947" lon="5.80524">
        <ele>562.6</ele>
        <time>2022-03-09T12:22:05Z</time>
      </trkpt>
      <trkpt lat="46.80949" lon="5.80515">
        <ele>562.6</ele>
        <time>2022-03-09T12:22:06Z</time>
      </trkpt>
      <trkpt lat="46.80951" lon="5.80505">
        <ele>563</ele>
        <time>2022-03-09T12:22:07Z</time>
      </trkpt>
      <trkpt lat="46.80953" lon="5.80496">
        <ele>563</ele>
        <time>2022-03-09T12:22:08Z</time>
      </trkpt>
      <trkpt lat="46.80955" lon="5.80486">
        <ele>563</ele>
        <time>2022-03-09T12:22:09Z</time>
      </trkpt>
      <trkpt lat="46.80957" lon="5.80476">
        <ele>563</ele>
        <time>2022-03-09T12:22:10Z</time>
      </trkpt>
      <trkpt lat="46.80959" lon="5.80467">
        <ele>563.2</ele>
        <time>2022-03-09T12:22:11Z</time>
      </trkpt>
      <trkpt lat="46.80962" lon="5.80457">
        <ele>563.6</ele>
        <time>2022-03-09T12:22:12Z</time>
      </trkpt>
      <trkpt lat="46.80964" lon="5.80448">
        <ele>563.8</ele>
        <time>2022-03-09T12:22:13Z</time>
      </trkpt>
      <trkpt lat="46.80966" lon="5.80439">
        <ele>563.8</ele>
        <time>2022-03-09T12:22:14Z</time>
      </trkpt>
      <trkpt lat="46.80968" lon="5.8043">
        <ele>564</ele>
        <time>2022-03-09T12:22:15Z</time>
      </trkpt>
      <trkpt lat="46.8097" lon="5.80422">
        <ele>564.2</ele>
        <time>2022-03-09T12:22:16Z</time>
      </trkpt>
      <trkpt lat="46.80972" lon="5.80413">
        <ele>564.2</ele>
        <time>2022-03-09T12:22:17Z</time>
      </trkpt>
      <trkpt lat="46.80974" lon="5.80404">
        <ele>564.6</ele>
        <time>2022-03-09T12:22:18Z</time>
      </trkpt>
      <trkpt lat="46.80976" lon="5.80396">
        <ele>565</ele>
        <time>2022-03-09T12:22:19Z</time>
      </trkpt>
      <trkpt lat="46.80978" lon="5.80388">
        <ele>565</ele>
        <time>2022-03-09T12:22:20Z</time>
      </trkpt>
      <trkpt lat="46.8098" lon="5.8038">
        <ele>565.2</ele>
        <time>2022-03-09T12:22:21Z</time>
      </trkpt>
      <trkpt lat="46.80982" lon="5.80371">
        <ele>565.2</ele>
        <time>2022-03-09T12:22:22Z</time>
      </trkpt>
      <trkpt lat="46.80984" lon="5.80363">
        <ele>565.6</ele>
        <time>2022-03-09T12:22:23Z</time>
      </trkpt>
      <trkpt lat="46.80986" lon="5.80355">
        <ele>565.6</ele>
        <time>2022-03-09T12:22:24Z</time>
      </trkpt>
      <trkpt lat="46.80987" lon="5.80347">
        <ele>566</ele>
        <time>2022-03-09T12:22:25Z</time>
      </trkpt>
      <trkpt lat="46.80989" lon="5.80339">
        <ele>566.2</ele>
        <time>2022-03-09T12:22:26Z</time>
      </trkpt>
      <trkpt lat="46.80991" lon="5.80331">
        <ele>566.2</ele>
        <time>2022-03-09T12:22:27Z</time>
      </trkpt>
      <trkpt lat="46.80993" lon="5.80323">
        <ele>566.4</ele>
        <time>2022-03-09T12:22:28Z</time>
      </trkpt>
      <trkpt lat="46.80995" lon="5.80315">
        <ele>566.4</ele>
        <time>2022-03-09T12:22:29Z</time>
      </trkpt>
      <trkpt lat="46.80997" lon="5.80307">
        <ele>566.4</ele>
        <time>2022-03-09T12:22:30Z</time>
      </trkpt>
      <trkpt lat="46.80999" lon="5.80299">
        <ele>566.6</ele>
        <time>2022-03-09T12:22:31Z</time>
      </trkpt>
      <trkpt lat="46.81001" lon="5.80291">
        <ele>566.6</ele>
        <time>2022-03-09T12:22:32Z</time>
      </trkpt>
      <trkpt lat="46.81003" lon="5.80283">
        <ele>566.8</ele>
        <time>2022-03-09T12:22:33Z</time>
      </trkpt>
      <trkpt lat="46.81005" lon="5.80274">
        <ele>566.8</ele>
        <time>2022-03-09T12:22:34Z</time>
      </trkpt>
      <trkpt lat="46.81006" lon="5.80266">
        <ele>567.4</ele>
        <time>2022-03-09T12:22:35Z</time>
      </trkpt>
      <trkpt lat="46.81006" lon="5.80266">
        <ele>567.4</ele>
        <time>2022-03-09T12:22:36Z</time>
      </trkpt>
      <trkpt lat="46.81008" lon="5.80258">
        <ele>567.4</ele>
        <time>2022-03-09T12:22:37Z</time>
      </trkpt>
      <trkpt lat="46.8101" lon="5.80249">
        <ele>567.4</ele>
        <time>2022-03-09T12:22:38Z</time>
      </trkpt>
      <trkpt lat="46.81012" lon="5.80241">
        <ele>567.4</ele>
        <time>2022-03-09T12:22:39Z</time>
      </trkpt>
      <trkpt lat="46.81013" lon="5.80232">
        <ele>567.4</ele>
        <time>2022-03-09T12:22:40Z</time>
      </trkpt>
      <trkpt lat="46.81015" lon="5.80224">
        <ele>567.4</ele>
        <time>2022-03-09T12:22:41Z</time>
      </trkpt>
      <trkpt lat="46.81017" lon="5.80215">
        <ele>567.4</ele>
        <time>2022-03-09T12:22:42Z</time>
      </trkpt>
      <trkpt lat="46.81019" lon="5.80206">
        <ele>567.8</ele>
        <time>2022-03-09T12:22:43Z</time>
      </trkpt>
      <trkpt lat="46.81021" lon="5.80198">
        <ele>567.8</ele>
        <time>2022-03-09T12:22:44Z</time>
      </trkpt>
      <trkpt lat="46.81022" lon="5.80189">
        <ele>567.8</ele>
        <time>2022-03-09T12:22:45Z</time>
      </trkpt>
      <trkpt lat="46.81024" lon="5.80181">
        <ele>568</ele>
        <time>2022-03-09T12:22:46Z</time>
      </trkpt>
      <trkpt lat="46.81026" lon="5.80172">
        <ele>568</ele>
        <time>2022-03-09T12:22:47Z</time>
      </trkpt>
      <trkpt lat="46.81028" lon="5.80163">
        <ele>568</ele>
        <time>2022-03-09T12:22:48Z</time>
      </trkpt>
      <trkpt lat="46.8103" lon="5.80155">
        <ele>568</ele>
        <time>2022-03-09T12:22:49Z</time>
      </trkpt>
      <trkpt lat="46.81032" lon="5.80146">
        <ele>568</ele>
        <time>2022-03-09T12:22:50Z</time>
      </trkpt>
      <trkpt lat="46.81034" lon="5.80137">
        <ele>568.2</ele>
        <time>2022-03-09T12:22:51Z</time>
      </trkpt>
      <trkpt lat="46.81036" lon="5.80129">
        <ele>568.2</ele>
        <time>2022-03-09T12:22:52Z</time>
      </trkpt>
      <trkpt lat="46.81038" lon="5.8012">
        <ele>568.2</ele>
        <time>2022-03-09T12:22:53Z</time>
      </trkpt>
      <trkpt lat="46.8104" lon="5.80111">
        <ele>568.2</ele>
        <time>2022-03-09T12:22:54Z</time>
      </trkpt>
      <trkpt lat="46.81042" lon="5.80103">
        <ele>568.2</ele>
        <time>2022-03-09T12:22:55Z</time>
      </trkpt>
      <trkpt lat="46.81044" lon="5.80094">
        <ele>568.2</ele>
        <time>2022-03-09T12:22:56Z</time>
      </trkpt>
      <trkpt lat="46.81046" lon="5.80085">
        <ele>568.2</ele>
        <time>2022-03-09T12:22:57Z</time>
      </trkpt>
      <trkpt lat="46.81048" lon="5.80076">
        <ele>568.2</ele>
        <time>2022-03-09T12:22:58Z</time>
      </trkpt>
      <trkpt lat="46.8105" lon="5.80067">
        <ele>568.2</ele>
        <time>2022-03-09T12:22:59Z</time>
      </trkpt>
      <trkpt lat="46.81052" lon="5.80058">
        <ele>568.2</ele>
        <time>2022-03-09T12:23:00Z</time>
      </trkpt>
      <trkpt lat="46.81054" lon="5.80049">
        <ele>568</ele>
        <time>2022-03-09T12:23:01Z</time>
      </trkpt>
      <trkpt lat="46.81056" lon="5.80039">
        <ele>568</ele>
        <time>2022-03-09T12:23:02Z</time>
      </trkpt>
      <trkpt lat="46.81058" lon="5.8003">
        <ele>568</ele>
        <time>2022-03-09T12:23:03Z</time>
      </trkpt>
      <trkpt lat="46.81061" lon="5.80021">
        <ele>567.8</ele>
        <time>2022-03-09T12:23:04Z</time>
      </trkpt>
      <trkpt lat="46.81063" lon="5.80011">
        <ele>567.8</ele>
        <time>2022-03-09T12:23:05Z</time>
      </trkpt>
      <trkpt lat="46.81065" lon="5.80002">
        <ele>567.8</ele>
        <time>2022-03-09T12:23:06Z</time>
      </trkpt>
      <trkpt lat="46.81068" lon="5.79992">
        <ele>567.8</ele>
        <time>2022-03-09T12:23:07Z</time>
      </trkpt>
      <trkpt lat="46.8107" lon="5.79983">
        <ele>567.4</ele>
        <time>2022-03-09T12:23:08Z</time>
      </trkpt>
      <trkpt lat="46.81073" lon="5.79973">
        <ele>567.4</ele>
        <time>2022-03-09T12:23:09Z</time>
      </trkpt>
      <trkpt lat="46.81075" lon="5.79963">
        <ele>567.4</ele>
        <time>2022-03-09T12:23:10Z</time>
      </trkpt>
      <trkpt lat="46.81077" lon="5.79953">
        <ele>567.4</ele>
        <time>2022-03-09T12:23:11Z</time>
      </trkpt>
      <trkpt lat="46.81079" lon="5.79943">
        <ele>567.2</ele>
        <time>2022-03-09T12:23:12Z</time>
      </trkpt>
      <trkpt lat="46.81081" lon="5.79933">
        <ele>567.2</ele>
        <time>2022-03-09T12:23:13Z</time>
      </trkpt>
      <trkpt lat="46.81084" lon="5.79923">
        <ele>567</ele>
        <time>2022-03-09T12:23:14Z</time>
      </trkpt>
      <trkpt lat="46.81086" lon="5.79913">
        <ele>566.6</ele>
        <time>2022-03-09T12:23:15Z</time>
      </trkpt>
      <trkpt lat="46.81088" lon="5.79902">
        <ele>566.6</ele>
        <time>2022-03-09T12:23:16Z</time>
      </trkpt>
      <trkpt lat="46.8109" lon="5.79892">
        <ele>566.6</ele>
        <time>2022-03-09T12:23:17Z</time>
      </trkpt>
      <trkpt lat="46.81093" lon="5.79882">
        <ele>566.6</ele>
        <time>2022-03-09T12:23:18Z</time>
      </trkpt>
      <trkpt lat="46.81095" lon="5.79872">
        <ele>566.6</ele>
        <time>2022-03-09T12:23:19Z</time>
      </trkpt>
      <trkpt lat="46.81097" lon="5.79861">
        <ele>566.4</ele>
        <time>2022-03-09T12:23:20Z</time>
      </trkpt>
      <trkpt lat="46.81099" lon="5.79851">
        <ele>567</ele>
        <time>2022-03-09T12:23:21Z</time>
      </trkpt>
      <trkpt lat="46.81101" lon="5.79841">
        <ele>567</ele>
        <time>2022-03-09T12:23:22Z</time>
      </trkpt>
      <trkpt lat="46.81103" lon="5.79831">
        <ele>567</ele>
        <time>2022-03-09T12:23:23Z</time>
      </trkpt>
      <trkpt lat="46.81105" lon="5.79821">
        <ele>566.8</ele>
        <time>2022-03-09T12:23:24Z</time>
      </trkpt>
      <trkpt lat="46.81108" lon="5.7981">
        <ele>566.8</ele>
        <time>2022-03-09T12:23:25Z</time>
      </trkpt>
      <trkpt lat="46.8111" lon="5.798">
        <ele>566.8</ele>
        <time>2022-03-09T12:23:26Z</time>
      </trkpt>
      <trkpt lat="46.81112" lon="5.7979">
        <ele>566.6</ele>
        <time>2022-03-09T12:23:27Z</time>
      </trkpt>
      <trkpt lat="46.81115" lon="5.79779">
        <ele>566.6</ele>
        <time>2022-03-09T12:23:28Z</time>
      </trkpt>
      <trkpt lat="46.81117" lon="5.79769">
        <ele>566.6</ele>
        <time>2022-03-09T12:23:29Z</time>
      </trkpt>
      <trkpt lat="46.8112" lon="5.79759">
        <ele>566.6</ele>
        <time>2022-03-09T12:23:30Z</time>
      </trkpt>
      <trkpt lat="46.81122" lon="5.79749">
        <ele>566.6</ele>
        <time>2022-03-09T12:23:31Z</time>
      </trkpt>
      <trkpt lat="46.81125" lon="5.79739">
        <ele>566.6</ele>
        <time>2022-03-09T12:23:32Z</time>
      </trkpt>
      <trkpt lat="46.81127" lon="5.79729">
        <ele>566.6</ele>
        <time>2022-03-09T12:23:33Z</time>
      </trkpt>
      <trkpt lat="46.8113" lon="5.79718">
        <ele>566.6</ele>
        <time>2022-03-09T12:23:34Z</time>
      </trkpt>
      <trkpt lat="46.81132" lon="5.79708">
        <ele>566.6</ele>
        <time>2022-03-09T12:23:35Z</time>
      </trkpt>
      <trkpt lat="46.81134" lon="5.79698">
        <ele>566.6</ele>
        <time>2022-03-09T12:23:36Z</time>
      </trkpt>
      <trkpt lat="46.81137" lon="5.79687">
        <ele>566.6</ele>
        <time>2022-03-09T12:23:37Z</time>
      </trkpt>
      <trkpt lat="46.81139" lon="5.79676">
        <ele>566.4</ele>
        <time>2022-03-09T12:23:38Z</time>
      </trkpt>
      <trkpt lat="46.81142" lon="5.79665">
        <ele>566.4</ele>
        <time>2022-03-09T12:23:39Z</time>
      </trkpt>
      <trkpt lat="46.81144" lon="5.79654">
        <ele>566</ele>
        <time>2022-03-09T12:23:40Z</time>
      </trkpt>
      <trkpt lat="46.81147" lon="5.79643">
        <ele>566</ele>
        <time>2022-03-09T12:23:41Z</time>
      </trkpt>
      <trkpt lat="46.81149" lon="5.79632">
        <ele>566</ele>
        <time>2022-03-09T12:23:42Z</time>
      </trkpt>
      <trkpt lat="46.81152" lon="5.79621">
        <ele>565.8</ele>
        <time>2022-03-09T12:23:43Z</time>
      </trkpt>
      <trkpt lat="46.81154" lon="5.7961">
        <ele>565.8</ele>
        <time>2022-03-09T12:23:44Z</time>
      </trkpt>
      <trkpt lat="46.81157" lon="5.79599">
        <ele>565.8</ele>
        <time>2022-03-09T12:23:45Z</time>
      </trkpt>
      <trkpt lat="46.8116" lon="5.79588">
        <ele>565.8</ele>
        <time>2022-03-09T12:23:46Z</time>
      </trkpt>
      <trkpt lat="46.81162" lon="5.79577">
        <ele>565.8</ele>
        <time>2022-03-09T12:23:47Z</time>
      </trkpt>
      <trkpt lat="46.81165" lon="5.79566">
        <ele>565.6</ele>
        <time>2022-03-09T12:23:48Z</time>
      </trkpt>
      <trkpt lat="46.81167" lon="5.79555">
        <ele>565.6</ele>
        <time>2022-03-09T12:23:49Z</time>
      </trkpt>
      <trkpt lat="46.81169" lon="5.79544">
        <ele>565.6</ele>
        <time>2022-03-09T12:23:50Z</time>
      </trkpt>
      <trkpt lat="46.81171" lon="5.79533">
        <ele>565.4</ele>
        <time>2022-03-09T12:23:51Z</time>
      </trkpt>
      <trkpt lat="46.81173" lon="5.79522">
        <ele>565.4</ele>
        <time>2022-03-09T12:23:52Z</time>
      </trkpt>
      <trkpt lat="46.81176" lon="5.79511">
        <ele>565.4</ele>
        <time>2022-03-09T12:23:53Z</time>
      </trkpt>
      <trkpt lat="46.81178" lon="5.79501">
        <ele>565.4</ele>
        <time>2022-03-09T12:23:54Z</time>
      </trkpt>
      <trkpt lat="46.81181" lon="5.7949">
        <ele>565.4</ele>
        <time>2022-03-09T12:23:55Z</time>
      </trkpt>
      <trkpt lat="46.81184" lon="5.79479">
        <ele>565.4</ele>
        <time>2022-03-09T12:23:56Z</time>
      </trkpt>
      <trkpt lat="46.81186" lon="5.79468">
        <ele>565.4</ele>
        <time>2022-03-09T12:23:57Z</time>
      </trkpt>
      <trkpt lat="46.81188" lon="5.79457">
        <ele>565.2</ele>
        <time>2022-03-09T12:23:58Z</time>
      </trkpt>
      <trkpt lat="46.81191" lon="5.79447">
        <ele>565.2</ele>
        <time>2022-03-09T12:23:59Z</time>
      </trkpt>
      <trkpt lat="46.81193" lon="5.79436">
        <ele>564.8</ele>
        <time>2022-03-09T12:24:00Z</time>
      </trkpt>
      <trkpt lat="46.81196" lon="5.79425">
        <ele>564.8</ele>
        <time>2022-03-09T12:24:01Z</time>
      </trkpt>
      <trkpt lat="46.81198" lon="5.79414">
        <ele>564.8</ele>
        <time>2022-03-09T12:24:02Z</time>
      </trkpt>
      <trkpt lat="46.81201" lon="5.79403">
        <ele>564.6</ele>
        <time>2022-03-09T12:24:03Z</time>
      </trkpt>
      <trkpt lat="46.81203" lon="5.79392">
        <ele>564.6</ele>
        <time>2022-03-09T12:24:04Z</time>
      </trkpt>
      <trkpt lat="46.81206" lon="5.79381">
        <ele>564.6</ele>
        <time>2022-03-09T12:24:05Z</time>
      </trkpt>
      <trkpt lat="46.81208" lon="5.7937">
        <ele>564.6</ele>
        <time>2022-03-09T12:24:06Z</time>
      </trkpt>
      <trkpt lat="46.81211" lon="5.79358">
        <ele>564.6</ele>
        <time>2022-03-09T12:24:07Z</time>
      </trkpt>
      <trkpt lat="46.81213" lon="5.79347">
        <ele>564.6</ele>
        <time>2022-03-09T12:24:08Z</time>
      </trkpt>
      <trkpt lat="46.81216" lon="5.79336">
        <ele>564.4</ele>
        <time>2022-03-09T12:24:09Z</time>
      </trkpt>
      <trkpt lat="46.81218" lon="5.79325">
        <ele>564.4</ele>
        <time>2022-03-09T12:24:10Z</time>
      </trkpt>
      <trkpt lat="46.81221" lon="5.79314">
        <ele>564.2</ele>
        <time>2022-03-09T12:24:11Z</time>
      </trkpt>
      <trkpt lat="46.81223" lon="5.79303">
        <ele>564.2</ele>
        <time>2022-03-09T12:24:12Z</time>
      </trkpt>
      <trkpt lat="46.81226" lon="5.79292">
        <ele>563.8</ele>
        <time>2022-03-09T12:24:13Z</time>
      </trkpt>
      <trkpt lat="46.81228" lon="5.79281">
        <ele>563.8</ele>
        <time>2022-03-09T12:24:14Z</time>
      </trkpt>
      <trkpt lat="46.81231" lon="5.79271">
        <ele>563.4</ele>
        <time>2022-03-09T12:24:15Z</time>
      </trkpt>
      <trkpt lat="46.81234" lon="5.7926">
        <ele>563.4</ele>
        <time>2022-03-09T12:24:16Z</time>
      </trkpt>
      <trkpt lat="46.81236" lon="5.79249">
        <ele>563.2</ele>
        <time>2022-03-09T12:24:17Z</time>
      </trkpt>
      <trkpt lat="46.81239" lon="5.79237">
        <ele>563.2</ele>
        <time>2022-03-09T12:24:18Z</time>
      </trkpt>
      <trkpt lat="46.81241" lon="5.79226">
        <ele>563</ele>
        <time>2022-03-09T12:24:19Z</time>
      </trkpt>
      <trkpt lat="46.81244" lon="5.79215">
        <ele>563</ele>
        <time>2022-03-09T12:24:20Z</time>
      </trkpt>
      <trkpt lat="46.81246" lon="5.79203">
        <ele>562.6</ele>
        <time>2022-03-09T12:24:21Z</time>
      </trkpt>
      <trkpt lat="46.81249" lon="5.79191">
        <ele>562.6</ele>
        <time>2022-03-09T12:24:22Z</time>
      </trkpt>
      <trkpt lat="46.81251" lon="5.7918">
        <ele>562.4</ele>
        <time>2022-03-09T12:24:23Z</time>
      </trkpt>
      <trkpt lat="46.81254" lon="5.79168">
        <ele>562.4</ele>
        <time>2022-03-09T12:24:24Z</time>
      </trkpt>
      <trkpt lat="46.81256" lon="5.79156">
        <ele>562.2</ele>
        <time>2022-03-09T12:24:25Z</time>
      </trkpt>
      <trkpt lat="46.81259" lon="5.79145">
        <ele>562.2</ele>
        <time>2022-03-09T12:24:26Z</time>
      </trkpt>
      <trkpt lat="46.81261" lon="5.79134">
        <ele>562.2</ele>
        <time>2022-03-09T12:24:27Z</time>
      </trkpt>
      <trkpt lat="46.81264" lon="5.79122">
        <ele>561.8</ele>
        <time>2022-03-09T12:24:28Z</time>
      </trkpt>
      <trkpt lat="46.81266" lon="5.79111">
        <ele>561.8</ele>
        <time>2022-03-09T12:24:29Z</time>
      </trkpt>
      <trkpt lat="46.81269" lon="5.791">
        <ele>561.8</ele>
        <time>2022-03-09T12:24:30Z</time>
      </trkpt>
      <trkpt lat="46.81271" lon="5.79088">
        <ele>561.6</ele>
        <time>2022-03-09T12:24:31Z</time>
      </trkpt>
      <trkpt lat="46.81274" lon="5.79077">
        <ele>561.6</ele>
        <time>2022-03-09T12:24:32Z</time>
      </trkpt>
      <trkpt lat="46.81277" lon="5.79066">
        <ele>561.4</ele>
        <time>2022-03-09T12:24:33Z</time>
      </trkpt>
      <trkpt lat="46.81279" lon="5.79055">
        <ele>561.4</ele>
        <time>2022-03-09T12:24:34Z</time>
      </trkpt>
      <trkpt lat="46.81282" lon="5.79044">
        <ele>561.4</ele>
        <time>2022-03-09T12:24:35Z</time>
      </trkpt>
      <trkpt lat="46.81284" lon="5.79033">
        <ele>561.4</ele>
        <time>2022-03-09T12:24:36Z</time>
      </trkpt>
      <trkpt lat="46.81287" lon="5.79022">
        <ele>561.4</ele>
        <time>2022-03-09T12:24:37Z</time>
      </trkpt>
      <trkpt lat="46.81289" lon="5.79011">
        <ele>561.4</ele>
        <time>2022-03-09T12:24:38Z</time>
      </trkpt>
      <trkpt lat="46.81291" lon="5.79">
        <ele>561.4</ele>
        <time>2022-03-09T12:24:39Z</time>
      </trkpt>
      <trkpt lat="46.81294" lon="5.78989">
        <ele>561.4</ele>
        <time>2022-03-09T12:24:40Z</time>
      </trkpt>
      <trkpt lat="46.81296" lon="5.78979">
        <ele>561.4</ele>
        <time>2022-03-09T12:24:41Z</time>
      </trkpt>
      <trkpt lat="46.81298" lon="5.78969">
        <ele>561.6</ele>
        <time>2022-03-09T12:24:42Z</time>
      </trkpt>
      <trkpt lat="46.81301" lon="5.78958">
        <ele>561.6</ele>
        <time>2022-03-09T12:24:43Z</time>
      </trkpt>
      <trkpt lat="46.81303" lon="5.78948">
        <ele>561.6</ele>
        <time>2022-03-09T12:24:44Z</time>
      </trkpt>
      <trkpt lat="46.81305" lon="5.78938">
        <ele>561.6</ele>
        <time>2022-03-09T12:24:45Z</time>
      </trkpt>
      <trkpt lat="46.81307" lon="5.78928">
        <ele>561.6</ele>
        <time>2022-03-09T12:24:46Z</time>
      </trkpt>
      <trkpt lat="46.81309" lon="5.78918">
        <ele>561.6</ele>
        <time>2022-03-09T12:24:47Z</time>
      </trkpt>
      <trkpt lat="46.81312" lon="5.78909">
        <ele>561.8</ele>
        <time>2022-03-09T12:24:48Z</time>
      </trkpt>
      <trkpt lat="46.81314" lon="5.78899">
        <ele>561.8</ele>
        <time>2022-03-09T12:24:49Z</time>
      </trkpt>
      <trkpt lat="46.81316" lon="5.78889">
        <ele>562.2</ele>
        <time>2022-03-09T12:24:50Z</time>
      </trkpt>
      <trkpt lat="46.81318" lon="5.78879">
        <ele>562.2</ele>
        <time>2022-03-09T12:24:51Z</time>
      </trkpt>
      <trkpt lat="46.81321" lon="5.78869">
        <ele>562.2</ele>
        <time>2022-03-09T12:24:52Z</time>
      </trkpt>
      <trkpt lat="46.81323" lon="5.78859">
        <ele>562.2</ele>
        <time>2022-03-09T12:24:53Z</time>
      </trkpt>
      <trkpt lat="46.81326" lon="5.7885">
        <ele>562.4</ele>
        <time>2022-03-09T12:24:54Z</time>
      </trkpt>
      <trkpt lat="46.81329" lon="5.7884">
        <ele>562.4</ele>
        <time>2022-03-09T12:24:55Z</time>
      </trkpt>
      <trkpt lat="46.81331" lon="5.7883">
        <ele>562.4</ele>
        <time>2022-03-09T12:24:56Z</time>
      </trkpt>
      <trkpt lat="46.81333" lon="5.7882">
        <ele>562.6</ele>
        <time>2022-03-09T12:24:57Z</time>
      </trkpt>
      <trkpt lat="46.81335" lon="5.78809">
        <ele>562.6</ele>
        <time>2022-03-09T12:24:58Z</time>
      </trkpt>
      <trkpt lat="46.81337" lon="5.78799">
        <ele>562.6</ele>
        <time>2022-03-09T12:24:59Z</time>
      </trkpt>
      <trkpt lat="46.8134" lon="5.78789">
        <ele>563</ele>
        <time>2022-03-09T12:25:00Z</time>
      </trkpt>
      <trkpt lat="46.81342" lon="5.78779">
        <ele>563</ele>
        <time>2022-03-09T12:25:01Z</time>
      </trkpt>
      <trkpt lat="46.81344" lon="5.78769">
        <ele>563.2</ele>
        <time>2022-03-09T12:25:02Z</time>
      </trkpt>
      <trkpt lat="46.81346" lon="5.78758">
        <ele>563.2</ele>
        <time>2022-03-09T12:25:03Z</time>
      </trkpt>
      <trkpt lat="46.81348" lon="5.78748">
        <ele>563.2</ele>
        <time>2022-03-09T12:25:04Z</time>
      </trkpt>
      <trkpt lat="46.8135" lon="5.78738">
        <ele>563.4</ele>
        <time>2022-03-09T12:25:05Z</time>
      </trkpt>
      <trkpt lat="46.81353" lon="5.78727">
        <ele>563.4</ele>
        <time>2022-03-09T12:25:06Z</time>
      </trkpt>
      <trkpt lat="46.81355" lon="5.78717">
        <ele>563.4</ele>
        <time>2022-03-09T12:25:07Z</time>
      </trkpt>
      <trkpt lat="46.81357" lon="5.78707">
        <ele>563.4</ele>
        <time>2022-03-09T12:25:08Z</time>
      </trkpt>
      <trkpt lat="46.81359" lon="5.78697">
        <ele>563.4</ele>
        <time>2022-03-09T12:25:09Z</time>
      </trkpt>
      <trkpt lat="46.81362" lon="5.78687">
        <ele>563.4</ele>
        <time>2022-03-09T12:25:10Z</time>
      </trkpt>
      <trkpt lat="46.81364" lon="5.78677">
        <ele>563.4</ele>
        <time>2022-03-09T12:25:11Z</time>
      </trkpt>
      <trkpt lat="46.81366" lon="5.78667">
        <ele>563.4</ele>
        <time>2022-03-09T12:25:12Z</time>
      </trkpt>
      <trkpt lat="46.81369" lon="5.78656">
        <ele>563.4</ele>
        <time>2022-03-09T12:25:13Z</time>
      </trkpt>
      <trkpt lat="46.81371" lon="5.78645">
        <ele>563.2</ele>
        <time>2022-03-09T12:25:14Z</time>
      </trkpt>
      <trkpt lat="46.81373" lon="5.78635">
        <ele>563.2</ele>
        <time>2022-03-09T12:25:15Z</time>
      </trkpt>
      <trkpt lat="46.81376" lon="5.78624">
        <ele>562.8</ele>
        <time>2022-03-09T12:25:16Z</time>
      </trkpt>
      <trkpt lat="46.81378" lon="5.78613">
        <ele>562.8</ele>
        <time>2022-03-09T12:25:17Z</time>
      </trkpt>
      <trkpt lat="46.81381" lon="5.78601">
        <ele>562.6</ele>
        <time>2022-03-09T12:25:18Z</time>
      </trkpt>
      <trkpt lat="46.81383" lon="5.7859">
        <ele>562.6</ele>
        <time>2022-03-09T12:25:19Z</time>
      </trkpt>
      <trkpt lat="46.81386" lon="5.78578">
        <ele>562.2</ele>
        <time>2022-03-09T12:25:20Z</time>
      </trkpt>
      <trkpt lat="46.81389" lon="5.78566">
        <ele>561.8</ele>
        <time>2022-03-09T12:25:21Z</time>
      </trkpt>
      <trkpt lat="46.81392" lon="5.78553">
        <ele>561.6</ele>
        <time>2022-03-09T12:25:22Z</time>
      </trkpt>
      <trkpt lat="46.81394" lon="5.78539">
        <ele>561.4</ele>
        <time>2022-03-09T12:25:23Z</time>
      </trkpt>
      <trkpt lat="46.81397" lon="5.78527">
        <ele>561</ele>
        <time>2022-03-09T12:25:24Z</time>
      </trkpt>
      <trkpt lat="46.81401" lon="5.78513">
        <ele>560.6</ele>
        <time>2022-03-09T12:25:25Z</time>
      </trkpt>
      <trkpt lat="46.81403" lon="5.78501">
        <ele>560.2</ele>
        <time>2022-03-09T12:25:26Z</time>
      </trkpt>
      <trkpt lat="46.81406" lon="5.78487">
        <ele>560</ele>
        <time>2022-03-09T12:25:27Z</time>
      </trkpt>
      <trkpt lat="46.81409" lon="5.78473">
        <ele>559.6</ele>
        <time>2022-03-09T12:25:28Z</time>
      </trkpt>
      <trkpt lat="46.81412" lon="5.78459">
        <ele>559.2</ele>
        <time>2022-03-09T12:25:29Z</time>
      </trkpt>
      <trkpt lat="46.81415" lon="5.78445">
        <ele>558.8</ele>
        <time>2022-03-09T12:25:30Z</time>
      </trkpt>
      <trkpt lat="46.81417" lon="5.78431">
        <ele>558.6</ele>
        <time>2022-03-09T12:25:31Z</time>
      </trkpt>
      <trkpt lat="46.8142" lon="5.78417">
        <ele>558.2</ele>
        <time>2022-03-09T12:25:32Z</time>
      </trkpt>
      <trkpt lat="46.81424" lon="5.78402">
        <ele>558</ele>
        <time>2022-03-09T12:25:33Z</time>
      </trkpt>
      <trkpt lat="46.81426" lon="5.78389">
        <ele>558</ele>
        <time>2022-03-09T12:25:34Z</time>
      </trkpt>
      <trkpt lat="46.81429" lon="5.78375">
        <ele>557.8</ele>
        <time>2022-03-09T12:25:35Z</time>
      </trkpt>
      <trkpt lat="46.81432" lon="5.78362">
        <ele>557.8</ele>
        <time>2022-03-09T12:25:36Z</time>
      </trkpt>
      <trkpt lat="46.81435" lon="5.78349">
        <ele>557.8</ele>
        <time>2022-03-09T12:25:37Z</time>
      </trkpt>
      <trkpt lat="46.81438" lon="5.78336">
        <ele>557.8</ele>
        <time>2022-03-09T12:25:38Z</time>
      </trkpt>
      <trkpt lat="46.8144" lon="5.78324">
        <ele>557.8</ele>
        <time>2022-03-09T12:25:39Z</time>
      </trkpt>
      <trkpt lat="46.81443" lon="5.78312">
        <ele>557.8</ele>
        <time>2022-03-09T12:25:40Z</time>
      </trkpt>
      <trkpt lat="46.81446" lon="5.783">
        <ele>557.8</ele>
        <time>2022-03-09T12:25:41Z</time>
      </trkpt>
      <trkpt lat="46.81448" lon="5.78289">
        <ele>557.8</ele>
        <time>2022-03-09T12:25:42Z</time>
      </trkpt>
      <trkpt lat="46.81451" lon="5.78278">
        <ele>557.8</ele>
        <time>2022-03-09T12:25:43Z</time>
      </trkpt>
      <trkpt lat="46.81453" lon="5.78267">
        <ele>558</ele>
        <time>2022-03-09T12:25:44Z</time>
      </trkpt>
      <trkpt lat="46.81456" lon="5.78257">
        <ele>558</ele>
        <time>2022-03-09T12:25:45Z</time>
      </trkpt>
      <trkpt lat="46.8146" lon="5.78237">
        <ele>558.2</ele>
        <time>2022-03-09T12:25:46Z</time>
      </trkpt>
      <trkpt lat="46.81462" lon="5.78227">
        <ele>558.4</ele>
        <time>2022-03-09T12:25:47Z</time>
      </trkpt>
      <trkpt lat="46.81464" lon="5.78218">
        <ele>558.6</ele>
        <time>2022-03-09T12:25:48Z</time>
      </trkpt>
      <trkpt lat="46.81466" lon="5.78208">
        <ele>558.6</ele>
        <time>2022-03-09T12:25:49Z</time>
      </trkpt>
      <trkpt lat="46.81468" lon="5.782">
        <ele>558.6</ele>
        <time>2022-03-09T12:25:50Z</time>
      </trkpt>
      <trkpt lat="46.8147" lon="5.78191">
        <ele>559</ele>
        <time>2022-03-09T12:25:51Z</time>
      </trkpt>
      <trkpt lat="46.81472" lon="5.78183">
        <ele>559.2</ele>
        <time>2022-03-09T12:25:52Z</time>
      </trkpt>
      <trkpt lat="46.81474" lon="5.78174">
        <ele>559.2</ele>
        <time>2022-03-09T12:25:53Z</time>
      </trkpt>
      <trkpt lat="46.81476" lon="5.78166">
        <ele>559.6</ele>
        <time>2022-03-09T12:25:54Z</time>
      </trkpt>
      <trkpt lat="46.81478" lon="5.78157">
        <ele>559.6</ele>
        <time>2022-03-09T12:25:55Z</time>
      </trkpt>
      <trkpt lat="46.8148" lon="5.78149">
        <ele>560</ele>
        <time>2022-03-09T12:25:56Z</time>
      </trkpt>
      <trkpt lat="46.81482" lon="5.7814">
        <ele>560.4</ele>
        <time>2022-03-09T12:25:57Z</time>
      </trkpt>
      <trkpt lat="46.81484" lon="5.78132">
        <ele>560.6</ele>
        <time>2022-03-09T12:25:58Z</time>
      </trkpt>
      <trkpt lat="46.81486" lon="5.78124">
        <ele>561</ele>
        <time>2022-03-09T12:25:59Z</time>
      </trkpt>
      <trkpt lat="46.81487" lon="5.78116">
        <ele>561.2</ele>
        <time>2022-03-09T12:26:00Z</time>
      </trkpt>
      <trkpt lat="46.81489" lon="5.78108">
        <ele>561.6</ele>
        <time>2022-03-09T12:26:01Z</time>
      </trkpt>
      <trkpt lat="46.81491" lon="5.781">
        <ele>561.8</ele>
        <time>2022-03-09T12:26:02Z</time>
      </trkpt>
      <trkpt lat="46.81493" lon="5.78092">
        <ele>561.8</ele>
        <time>2022-03-09T12:26:03Z</time>
      </trkpt>
      <trkpt lat="46.81494" lon="5.78085">
        <ele>562</ele>
        <time>2022-03-09T12:26:04Z</time>
      </trkpt>
      <trkpt lat="46.81496" lon="5.78077">
        <ele>562.2</ele>
        <time>2022-03-09T12:26:05Z</time>
      </trkpt>
      <trkpt lat="46.81498" lon="5.7807">
        <ele>562.6</ele>
        <time>2022-03-09T12:26:06Z</time>
      </trkpt>
      <trkpt lat="46.81499" lon="5.78062">
        <ele>562.8</ele>
        <time>2022-03-09T12:26:07Z</time>
      </trkpt>
      <trkpt lat="46.81501" lon="5.78055">
        <ele>562.8</ele>
        <time>2022-03-09T12:26:08Z</time>
      </trkpt>
      <trkpt lat="46.81502" lon="5.78048">
        <ele>563.2</ele>
        <time>2022-03-09T12:26:09Z</time>
      </trkpt>
      <trkpt lat="46.81504" lon="5.78041">
        <ele>563.2</ele>
        <time>2022-03-09T12:26:10Z</time>
      </trkpt>
      <trkpt lat="46.81505" lon="5.78035">
        <ele>563.2</ele>
        <time>2022-03-09T12:26:11Z</time>
      </trkpt>
      <trkpt lat="46.81507" lon="5.78028">
        <ele>563.4</ele>
        <time>2022-03-09T12:26:12Z</time>
      </trkpt>
      <trkpt lat="46.81508" lon="5.78021">
        <ele>563.4</ele>
        <time>2022-03-09T12:26:13Z</time>
      </trkpt>
      <trkpt lat="46.8151" lon="5.78015">
        <ele>563.6</ele>
        <time>2022-03-09T12:26:14Z</time>
      </trkpt>
      <trkpt lat="46.81511" lon="5.78008">
        <ele>563.6</ele>
        <time>2022-03-09T12:26:15Z</time>
      </trkpt>
      <trkpt lat="46.81513" lon="5.78002">
        <ele>564</ele>
        <time>2022-03-09T12:26:16Z</time>
      </trkpt>
      <trkpt lat="46.81515" lon="5.77995">
        <ele>564</ele>
        <time>2022-03-09T12:26:17Z</time>
      </trkpt>
      <trkpt lat="46.81516" lon="5.77988">
        <ele>564.2</ele>
        <time>2022-03-09T12:26:18Z</time>
      </trkpt>
      <trkpt lat="46.81518" lon="5.77982">
        <ele>564.2</ele>
        <time>2022-03-09T12:26:19Z</time>
      </trkpt>
      <trkpt lat="46.81519" lon="5.77975">
        <ele>564.6</ele>
        <time>2022-03-09T12:26:20Z</time>
      </trkpt>
      <trkpt lat="46.81521" lon="5.77969">
        <ele>564.6</ele>
        <time>2022-03-09T12:26:21Z</time>
      </trkpt>
      <trkpt lat="46.81522" lon="5.77963">
        <ele>564.8</ele>
        <time>2022-03-09T12:26:22Z</time>
      </trkpt>
      <trkpt lat="46.81524" lon="5.77956">
        <ele>564.8</ele>
        <time>2022-03-09T12:26:23Z</time>
      </trkpt>
      <trkpt lat="46.81525" lon="5.77949">
        <ele>565.2</ele>
        <time>2022-03-09T12:26:24Z</time>
      </trkpt>
      <trkpt lat="46.81527" lon="5.77943">
        <ele>565.2</ele>
        <time>2022-03-09T12:26:25Z</time>
      </trkpt>
      <trkpt lat="46.81529" lon="5.77936">
        <ele>565.6</ele>
        <time>2022-03-09T12:26:26Z</time>
      </trkpt>
      <trkpt lat="46.8153" lon="5.7793">
        <ele>565.6</ele>
        <time>2022-03-09T12:26:27Z</time>
      </trkpt>
      <trkpt lat="46.81532" lon="5.77923">
        <ele>565.6</ele>
        <time>2022-03-09T12:26:28Z</time>
      </trkpt>
      <trkpt lat="46.81534" lon="5.77916">
        <ele>565.8</ele>
        <time>2022-03-09T12:26:29Z</time>
      </trkpt>
      <trkpt lat="46.81535" lon="5.7791">
        <ele>565.8</ele>
        <time>2022-03-09T12:26:30Z</time>
      </trkpt>
      <trkpt lat="46.81537" lon="5.77903">
        <ele>566.2</ele>
        <time>2022-03-09T12:26:31Z</time>
      </trkpt>
      <trkpt lat="46.81538" lon="5.77896">
        <ele>566.2</ele>
        <time>2022-03-09T12:26:32Z</time>
      </trkpt>
      <trkpt lat="46.8154" lon="5.77889">
        <ele>566.4</ele>
        <time>2022-03-09T12:26:33Z</time>
      </trkpt>
      <trkpt lat="46.81541" lon="5.77882">
        <ele>566.4</ele>
        <time>2022-03-09T12:26:34Z</time>
      </trkpt>
      <trkpt lat="46.81543" lon="5.77875">
        <ele>566.4</ele>
        <time>2022-03-09T12:26:35Z</time>
      </trkpt>
      <trkpt lat="46.81544" lon="5.77868">
        <ele>566.6</ele>
        <time>2022-03-09T12:26:36Z</time>
      </trkpt>
      <trkpt lat="46.81546" lon="5.77862">
        <ele>566.6</ele>
        <time>2022-03-09T12:26:37Z</time>
      </trkpt>
      <trkpt lat="46.81547" lon="5.77855">
        <ele>566.8</ele>
        <time>2022-03-09T12:26:38Z</time>
      </trkpt>
      <trkpt lat="46.81549" lon="5.77848">
        <ele>566.8</ele>
        <time>2022-03-09T12:26:39Z</time>
      </trkpt>
      <trkpt lat="46.8155" lon="5.77842">
        <ele>567.2</ele>
        <time>2022-03-09T12:26:40Z</time>
      </trkpt>
      <trkpt lat="46.81552" lon="5.77835">
        <ele>567.2</ele>
        <time>2022-03-09T12:26:41Z</time>
      </trkpt>
      <trkpt lat="46.81554" lon="5.77829">
        <ele>567.4</ele>
        <time>2022-03-09T12:26:42Z</time>
      </trkpt>
      <trkpt lat="46.81555" lon="5.77823">
        <ele>567.4</ele>
        <time>2022-03-09T12:26:43Z</time>
      </trkpt>
      <trkpt lat="46.81557" lon="5.77816">
        <ele>567.6</ele>
        <time>2022-03-09T12:26:44Z</time>
      </trkpt>
      <trkpt lat="46.81558" lon="5.7781">
        <ele>567.6</ele>
        <time>2022-03-09T12:26:45Z</time>
      </trkpt>
      <trkpt lat="46.8156" lon="5.77803">
        <ele>567.8</ele>
        <time>2022-03-09T12:26:46Z</time>
      </trkpt>
      <trkpt lat="46.81561" lon="5.77797">
        <ele>567.8</ele>
        <time>2022-03-09T12:26:47Z</time>
      </trkpt>
      <trkpt lat="46.81562" lon="5.77791">
        <ele>568.2</ele>
        <time>2022-03-09T12:26:48Z</time>
      </trkpt>
      <trkpt lat="46.81563" lon="5.77784">
        <ele>568.2</ele>
        <time>2022-03-09T12:26:49Z</time>
      </trkpt>
      <trkpt lat="46.81564" lon="5.77778">
        <ele>568.6</ele>
        <time>2022-03-09T12:26:50Z</time>
      </trkpt>
      <trkpt lat="46.81566" lon="5.77772">
        <ele>568.8</ele>
        <time>2022-03-09T12:26:51Z</time>
      </trkpt>
      <trkpt lat="46.81567" lon="5.77766">
        <ele>568.8</ele>
        <time>2022-03-09T12:26:52Z</time>
      </trkpt>
      <trkpt lat="46.81568" lon="5.7776">
        <ele>569</ele>
        <time>2022-03-09T12:26:53Z</time>
      </trkpt>
      <trkpt lat="46.81569" lon="5.77754">
        <ele>569</ele>
        <time>2022-03-09T12:26:54Z</time>
      </trkpt>
      <trkpt lat="46.81571" lon="5.77748">
        <ele>569.2</ele>
        <time>2022-03-09T12:26:55Z</time>
      </trkpt>
      <trkpt lat="46.81572" lon="5.77742">
        <ele>569.2</ele>
        <time>2022-03-09T12:26:56Z</time>
      </trkpt>
      <trkpt lat="46.81573" lon="5.77736">
        <ele>569.6</ele>
        <time>2022-03-09T12:26:57Z</time>
      </trkpt>
      <trkpt lat="46.81574" lon="5.7773">
        <ele>569.6</ele>
        <time>2022-03-09T12:26:58Z</time>
      </trkpt>
      <trkpt lat="46.81576" lon="5.77724">
        <ele>569.8</ele>
        <time>2022-03-09T12:26:59Z</time>
      </trkpt>
      <trkpt lat="46.81576" lon="5.77724">
        <ele>569.8</ele>
        <time>2022-03-09T12:27:00Z</time>
      </trkpt>
      <trkpt lat="46.81577" lon="5.77718">
        <ele>570.2</ele>
        <time>2022-03-09T12:27:01Z</time>
      </trkpt>
      <trkpt lat="46.81578" lon="5.77712">
        <ele>570.2</ele>
        <time>2022-03-09T12:27:02Z</time>
      </trkpt>
      <trkpt lat="46.8158" lon="5.77706">
        <ele>570.6</ele>
        <time>2022-03-09T12:27:03Z</time>
      </trkpt>
      <trkpt lat="46.81581" lon="5.777">
        <ele>570.6</ele>
        <time>2022-03-09T12:27:04Z</time>
      </trkpt>
      <trkpt lat="46.81582" lon="5.77694">
        <ele>570.8</ele>
        <time>2022-03-09T12:27:05Z</time>
      </trkpt>
      <trkpt lat="46.81584" lon="5.77688">
        <ele>570.8</ele>
        <time>2022-03-09T12:27:06Z</time>
      </trkpt>
      <trkpt lat="46.81585" lon="5.77682">
        <ele>570.8</ele>
        <time>2022-03-09T12:27:07Z</time>
      </trkpt>
      <trkpt lat="46.81586" lon="5.77676">
        <ele>571</ele>
        <time>2022-03-09T12:27:08Z</time>
      </trkpt>
      <trkpt lat="46.81588" lon="5.7767">
        <ele>571</ele>
        <time>2022-03-09T12:27:09Z</time>
      </trkpt>
      <trkpt lat="46.81589" lon="5.77664">
        <ele>571.4</ele>
        <time>2022-03-09T12:27:10Z</time>
      </trkpt>
      <trkpt lat="46.8159" lon="5.77658">
        <ele>571.4</ele>
        <time>2022-03-09T12:27:11Z</time>
      </trkpt>
      <trkpt lat="46.81592" lon="5.77652">
        <ele>571.4</ele>
        <time>2022-03-09T12:27:12Z</time>
      </trkpt>
      <trkpt lat="46.81593" lon="5.77645">
        <ele>571.4</ele>
        <time>2022-03-09T12:27:13Z</time>
      </trkpt>
      <trkpt lat="46.81595" lon="5.77639">
        <ele>572.2</ele>
        <time>2022-03-09T12:27:14Z</time>
      </trkpt>
      <trkpt lat="46.81596" lon="5.77633">
        <ele>572.6</ele>
        <time>2022-03-09T12:27:15Z</time>
      </trkpt>
      <trkpt lat="46.81597" lon="5.77626">
        <ele>572.6</ele>
        <time>2022-03-09T12:27:16Z</time>
      </trkpt>
      <trkpt lat="46.81598" lon="5.7762">
        <ele>572.6</ele>
        <time>2022-03-09T12:27:17Z</time>
      </trkpt>
      <trkpt lat="46.816" lon="5.77614">
        <ele>572.6</ele>
        <time>2022-03-09T12:27:18Z</time>
      </trkpt>
      <trkpt lat="46.81601" lon="5.77607">
        <ele>572.6</ele>
        <time>2022-03-09T12:27:19Z</time>
      </trkpt>
      <trkpt lat="46.81602" lon="5.77601">
        <ele>572.8</ele>
        <time>2022-03-09T12:27:20Z</time>
      </trkpt>
      <trkpt lat="46.81604" lon="5.77595">
        <ele>572.8</ele>
        <time>2022-03-09T12:27:21Z</time>
      </trkpt>
      <trkpt lat="46.81605" lon="5.77588">
        <ele>573</ele>
        <time>2022-03-09T12:27:22Z</time>
      </trkpt>
      <trkpt lat="46.81606" lon="5.77582">
        <ele>573</ele>
        <time>2022-03-09T12:27:23Z</time>
      </trkpt>
      <trkpt lat="46.81608" lon="5.77575">
        <ele>573</ele>
        <time>2022-03-09T12:27:24Z</time>
      </trkpt>
      <trkpt lat="46.81609" lon="5.77568">
        <ele>573.4</ele>
        <time>2022-03-09T12:27:25Z</time>
      </trkpt>
      <trkpt lat="46.81611" lon="5.77561">
        <ele>573.4</ele>
        <time>2022-03-09T12:27:26Z</time>
      </trkpt>
      <trkpt lat="46.81612" lon="5.77555">
        <ele>573.4</ele>
        <time>2022-03-09T12:27:27Z</time>
      </trkpt>
      <trkpt lat="46.81614" lon="5.77548">
        <ele>573.6</ele>
        <time>2022-03-09T12:27:28Z</time>
      </trkpt>
      <trkpt lat="46.81615" lon="5.77542">
        <ele>573.6</ele>
        <time>2022-03-09T12:27:29Z</time>
      </trkpt>
      <trkpt lat="46.81617" lon="5.77536">
        <ele>574</ele>
        <time>2022-03-09T12:27:30Z</time>
      </trkpt>
      <trkpt lat="46.81618" lon="5.7753">
        <ele>574</ele>
        <time>2022-03-09T12:27:31Z</time>
      </trkpt>
      <trkpt lat="46.81619" lon="5.77523">
        <ele>574.2</ele>
        <time>2022-03-09T12:27:32Z</time>
      </trkpt>
      <trkpt lat="46.81621" lon="5.77517">
        <ele>574.2</ele>
        <time>2022-03-09T12:27:33Z</time>
      </trkpt>
      <trkpt lat="46.81622" lon="5.77511">
        <ele>574.6</ele>
        <time>2022-03-09T12:27:34Z</time>
      </trkpt>
      <trkpt lat="46.81623" lon="5.77505">
        <ele>574.6</ele>
        <time>2022-03-09T12:27:35Z</time>
      </trkpt>
      <trkpt lat="46.81624" lon="5.77499">
        <ele>575</ele>
        <time>2022-03-09T12:27:36Z</time>
      </trkpt>
      <trkpt lat="46.81626" lon="5.77493">
        <ele>575</ele>
        <time>2022-03-09T12:27:37Z</time>
      </trkpt>
      <trkpt lat="46.81627" lon="5.77487">
        <ele>575</ele>
        <time>2022-03-09T12:27:38Z</time>
      </trkpt>
      <trkpt lat="46.81628" lon="5.77482">
        <ele>575.4</ele>
        <time>2022-03-09T12:27:39Z</time>
      </trkpt>
      <trkpt lat="46.81629" lon="5.77476">
        <ele>575.4</ele>
        <time>2022-03-09T12:27:40Z</time>
      </trkpt>
      <trkpt lat="46.8163" lon="5.7747">
        <ele>575.8</ele>
        <time>2022-03-09T12:27:41Z</time>
      </trkpt>
      <trkpt lat="46.81631" lon="5.77464">
        <ele>575.8</ele>
        <time>2022-03-09T12:27:42Z</time>
      </trkpt>
      <trkpt lat="46.81633" lon="5.77459">
        <ele>576</ele>
        <time>2022-03-09T12:27:43Z</time>
      </trkpt>
      <trkpt lat="46.81634" lon="5.77453">
        <ele>576</ele>
        <time>2022-03-09T12:27:44Z</time>
      </trkpt>
      <trkpt lat="46.81635" lon="5.77448">
        <ele>576.4</ele>
        <time>2022-03-09T12:27:45Z</time>
      </trkpt>
      <trkpt lat="46.81636" lon="5.77442">
        <ele>576.6</ele>
        <time>2022-03-09T12:27:46Z</time>
      </trkpt>
      <trkpt lat="46.81637" lon="5.77437">
        <ele>576.6</ele>
        <time>2022-03-09T12:27:47Z</time>
      </trkpt>
      <trkpt lat="46.81638" lon="5.77431">
        <ele>577</ele>
        <time>2022-03-09T12:27:48Z</time>
      </trkpt>
      <trkpt lat="46.81639" lon="5.77426">
        <ele>577.4</ele>
        <time>2022-03-09T12:27:49Z</time>
      </trkpt>
      <trkpt lat="46.81641" lon="5.7742">
        <ele>577.4</ele>
        <time>2022-03-09T12:27:50Z</time>
      </trkpt>
      <trkpt lat="46.81642" lon="5.77415">
        <ele>577.6</ele>
        <time>2022-03-09T12:27:51Z</time>
      </trkpt>
      <trkpt lat="46.81643" lon="5.7741">
        <ele>577.6</ele>
        <time>2022-03-09T12:27:52Z</time>
      </trkpt>
      <trkpt lat="46.81644" lon="5.77404">
        <ele>577.8</ele>
        <time>2022-03-09T12:27:53Z</time>
      </trkpt>
      <trkpt lat="46.81645" lon="5.77399">
        <ele>577.8</ele>
        <time>2022-03-09T12:27:54Z</time>
      </trkpt>
      <trkpt lat="46.81646" lon="5.77393">
        <ele>577.8</ele>
        <time>2022-03-09T12:27:55Z</time>
      </trkpt>
      <trkpt lat="46.81648" lon="5.77387">
        <ele>578.2</ele>
        <time>2022-03-09T12:27:56Z</time>
      </trkpt>
      <trkpt lat="46.81649" lon="5.77381">
        <ele>578.2</ele>
        <time>2022-03-09T12:27:57Z</time>
      </trkpt>
      <trkpt lat="46.8165" lon="5.77375">
        <ele>578.2</ele>
        <time>2022-03-09T12:27:58Z</time>
      </trkpt>
      <trkpt lat="46.81652" lon="5.77369">
        <ele>578.2</ele>
        <time>2022-03-09T12:27:59Z</time>
      </trkpt>
      <trkpt lat="46.81653" lon="5.77362">
        <ele>578.2</ele>
        <time>2022-03-09T12:28:00Z</time>
      </trkpt>
      <trkpt lat="46.81654" lon="5.77356">
        <ele>578.2</ele>
        <time>2022-03-09T12:28:01Z</time>
      </trkpt>
      <trkpt lat="46.81656" lon="5.77349">
        <ele>578.2</ele>
        <time>2022-03-09T12:28:02Z</time>
      </trkpt>
      <trkpt lat="46.81657" lon="5.77342">
        <ele>578.2</ele>
        <time>2022-03-09T12:28:03Z</time>
      </trkpt>
      <trkpt lat="46.81659" lon="5.77335">
        <ele>578.2</ele>
        <time>2022-03-09T12:28:04Z</time>
      </trkpt>
      <trkpt lat="46.8166" lon="5.77328">
        <ele>578.2</ele>
        <time>2022-03-09T12:28:05Z</time>
      </trkpt>
      <trkpt lat="46.81661" lon="5.77322">
        <ele>578.2</ele>
        <time>2022-03-09T12:28:06Z</time>
      </trkpt>
      <trkpt lat="46.81663" lon="5.77315">
        <ele>578.2</ele>
        <time>2022-03-09T12:28:07Z</time>
      </trkpt>
      <trkpt lat="46.81664" lon="5.77309">
        <ele>578.2</ele>
        <time>2022-03-09T12:28:08Z</time>
      </trkpt>
      <trkpt lat="46.81666" lon="5.77302">
        <ele>578.2</ele>
        <time>2022-03-09T12:28:09Z</time>
      </trkpt>
      <trkpt lat="46.81668" lon="5.77295">
        <ele>578.2</ele>
        <time>2022-03-09T12:28:10Z</time>
      </trkpt>
      <trkpt lat="46.81669" lon="5.77288">
        <ele>578.2</ele>
        <time>2022-03-09T12:28:11Z</time>
      </trkpt>
      <trkpt lat="46.81671" lon="5.7728">
        <ele>578.2</ele>
        <time>2022-03-09T12:28:12Z</time>
      </trkpt>
      <trkpt lat="46.81672" lon="5.77272">
        <ele>577.8</ele>
        <time>2022-03-09T12:28:13Z</time>
      </trkpt>
      <trkpt lat="46.81674" lon="5.77264">
        <ele>577.8</ele>
        <time>2022-03-09T12:28:14Z</time>
      </trkpt>
      <trkpt lat="46.81675" lon="5.77255">
        <ele>577.6</ele>
        <time>2022-03-09T12:28:15Z</time>
      </trkpt>
      <trkpt lat="46.81677" lon="5.77246">
        <ele>577.4</ele>
        <time>2022-03-09T12:28:16Z</time>
      </trkpt>
      <trkpt lat="46.81678" lon="5.77236">
        <ele>577.2</ele>
        <time>2022-03-09T12:28:17Z</time>
      </trkpt>
      <trkpt lat="46.81679" lon="5.77226">
        <ele>576.8</ele>
        <time>2022-03-09T12:28:18Z</time>
      </trkpt>
      <trkpt lat="46.8168" lon="5.77215">
        <ele>576.8</ele>
        <time>2022-03-09T12:28:19Z</time>
      </trkpt>
      <trkpt lat="46.8168" lon="5.77204">
        <ele>576.4</ele>
        <time>2022-03-09T12:28:20Z</time>
      </trkpt>
      <trkpt lat="46.81681" lon="5.77193">
        <ele>576</ele>
        <time>2022-03-09T12:28:21Z</time>
      </trkpt>
      <trkpt lat="46.81681" lon="5.7718">
        <ele>575.6</ele>
        <time>2022-03-09T12:28:22Z</time>
      </trkpt>
      <trkpt lat="46.8168" lon="5.77168">
        <ele>575</ele>
        <time>2022-03-09T12:28:23Z</time>
      </trkpt>
      <trkpt lat="46.8168" lon="5.77155">
        <ele>574.4</ele>
        <time>2022-03-09T12:28:24Z</time>
      </trkpt>
      <trkpt lat="46.81679" lon="5.77142">
        <ele>574</ele>
        <time>2022-03-09T12:28:25Z</time>
      </trkpt>
      <trkpt lat="46.81678" lon="5.7713">
        <ele>573.6</ele>
        <time>2022-03-09T12:28:26Z</time>
      </trkpt>
      <trkpt lat="46.81676" lon="5.77117">
        <ele>573.2</ele>
        <time>2022-03-09T12:28:27Z</time>
      </trkpt>
      <trkpt lat="46.81674" lon="5.77104">
        <ele>572.6</ele>
        <time>2022-03-09T12:28:28Z</time>
      </trkpt>
      <trkpt lat="46.81671" lon="5.77092">
        <ele>572.2</ele>
        <time>2022-03-09T12:28:29Z</time>
      </trkpt>
      <trkpt lat="46.81668" lon="5.7708">
        <ele>571.8</ele>
        <time>2022-03-09T12:28:30Z</time>
      </trkpt>
      <trkpt lat="46.81665" lon="5.77069">
        <ele>571.6</ele>
        <time>2022-03-09T12:28:31Z</time>
      </trkpt>
      <trkpt lat="46.81661" lon="5.77058">
        <ele>571.2</ele>
        <time>2022-03-09T12:28:32Z</time>
      </trkpt>
      <trkpt lat="46.81656" lon="5.77047">
        <ele>570.8</ele>
        <time>2022-03-09T12:28:33Z</time>
      </trkpt>
      <trkpt lat="46.81651" lon="5.77036">
        <ele>570.4</ele>
        <time>2022-03-09T12:28:34Z</time>
      </trkpt>
      <trkpt lat="46.81646" lon="5.77026">
        <ele>570</ele>
        <time>2022-03-09T12:28:35Z</time>
      </trkpt>
      <trkpt lat="46.8164" lon="5.77016">
        <ele>569.6</ele>
        <time>2022-03-09T12:28:36Z</time>
      </trkpt>
      <trkpt lat="46.81634" lon="5.77007">
        <ele>569.2</ele>
        <time>2022-03-09T12:28:37Z</time>
      </trkpt>
      <trkpt lat="46.81628" lon="5.76997">
        <ele>568.8</ele>
        <time>2022-03-09T12:28:38Z</time>
      </trkpt>
      <trkpt lat="46.81621" lon="5.76986">
        <ele>568.2</ele>
        <time>2022-03-09T12:28:39Z</time>
      </trkpt>
      <trkpt lat="46.81614" lon="5.76975">
        <ele>568</ele>
        <time>2022-03-09T12:28:40Z</time>
      </trkpt>
      <trkpt lat="46.81607" lon="5.76965">
        <ele>567.4</ele>
        <time>2022-03-09T12:28:41Z</time>
      </trkpt>
      <trkpt lat="46.816" lon="5.76954">
        <ele>566.6</ele>
        <time>2022-03-09T12:28:42Z</time>
      </trkpt>
      <trkpt lat="46.81594" lon="5.76942">
        <ele>566.2</ele>
        <time>2022-03-09T12:28:43Z</time>
      </trkpt>
      <trkpt lat="46.81589" lon="5.7693">
        <ele>565.6</ele>
        <time>2022-03-09T12:28:44Z</time>
      </trkpt>
      <trkpt lat="46.81584" lon="5.76916">
        <ele>565</ele>
        <time>2022-03-09T12:28:45Z</time>
      </trkpt>
      <trkpt lat="46.8158" lon="5.76901">
        <ele>564.4</ele>
        <time>2022-03-09T12:28:46Z</time>
      </trkpt>
      <trkpt lat="46.81577" lon="5.76885">
        <ele>564</ele>
        <time>2022-03-09T12:28:47Z</time>
      </trkpt>
      <trkpt lat="46.81574" lon="5.76863">
        <ele>563.4</ele>
        <time>2022-03-09T12:28:48Z</time>
      </trkpt>
      <trkpt lat="46.81574" lon="5.76856">
        <ele>563</ele>
        <time>2022-03-09T12:28:49Z</time>
      </trkpt>
      <trkpt lat="46.81573" lon="5.76841">
        <ele>562.6</ele>
        <time>2022-03-09T12:28:50Z</time>
      </trkpt>
      <trkpt lat="46.81574" lon="5.76826">
        <ele>562.4</ele>
        <time>2022-03-09T12:28:51Z</time>
      </trkpt>
      <trkpt lat="46.81574" lon="5.76811">
        <ele>562.2</ele>
        <time>2022-03-09T12:28:52Z</time>
      </trkpt>
      <trkpt lat="46.81575" lon="5.76797">
        <ele>562.2</ele>
        <time>2022-03-09T12:28:53Z</time>
      </trkpt>
      <trkpt lat="46.81575" lon="5.76783">
        <ele>561.8</ele>
        <time>2022-03-09T12:28:54Z</time>
      </trkpt>
      <trkpt lat="46.81576" lon="5.7677">
        <ele>561.8</ele>
        <time>2022-03-09T12:28:55Z</time>
      </trkpt>
      <trkpt lat="46.81577" lon="5.76757">
        <ele>561.8</ele>
        <time>2022-03-09T12:28:56Z</time>
      </trkpt>
      <trkpt lat="46.81577" lon="5.76745">
        <ele>562</ele>
        <time>2022-03-09T12:28:57Z</time>
      </trkpt>
      <trkpt lat="46.81578" lon="5.76733">
        <ele>562</ele>
        <time>2022-03-09T12:28:58Z</time>
      </trkpt>
      <trkpt lat="46.81578" lon="5.76722">
        <ele>562.4</ele>
        <time>2022-03-09T12:28:59Z</time>
      </trkpt>
      <trkpt lat="46.81579" lon="5.76712">
        <ele>562.6</ele>
        <time>2022-03-09T12:29:00Z</time>
      </trkpt>
      <trkpt lat="46.81579" lon="5.76702">
        <ele>562.8</ele>
        <time>2022-03-09T12:29:01Z</time>
      </trkpt>
      <trkpt lat="46.8158" lon="5.76693">
        <ele>563</ele>
        <time>2022-03-09T12:29:02Z</time>
      </trkpt>
      <trkpt lat="46.8158" lon="5.76684">
        <ele>563.2</ele>
        <time>2022-03-09T12:29:03Z</time>
      </trkpt>
      <trkpt lat="46.81581" lon="5.76675">
        <ele>563.6</ele>
        <time>2022-03-09T12:29:04Z</time>
      </trkpt>
      <trkpt lat="46.81582" lon="5.76666">
        <ele>563.8</ele>
        <time>2022-03-09T12:29:05Z</time>
      </trkpt>
      <trkpt lat="46.81582" lon="5.76658">
        <ele>564</ele>
        <time>2022-03-09T12:29:06Z</time>
      </trkpt>
      <trkpt lat="46.81583" lon="5.7665">
        <ele>564.2</ele>
        <time>2022-03-09T12:29:07Z</time>
      </trkpt>
      <trkpt lat="46.81583" lon="5.76643">
        <ele>564.2</ele>
        <time>2022-03-09T12:29:08Z</time>
      </trkpt>
      <trkpt lat="46.81584" lon="5.76636">
        <ele>564.8</ele>
        <time>2022-03-09T12:29:09Z</time>
      </trkpt>
      <trkpt lat="46.81584" lon="5.76629">
        <ele>564.8</ele>
        <time>2022-03-09T12:29:10Z</time>
      </trkpt>
      <trkpt lat="46.81585" lon="5.76621">
        <ele>565.2</ele>
        <time>2022-03-09T12:29:11Z</time>
      </trkpt>
      <trkpt lat="46.81585" lon="5.76614">
        <ele>565.2</ele>
        <time>2022-03-09T12:29:12Z</time>
      </trkpt>
      <trkpt lat="46.81586" lon="5.76607">
        <ele>565.4</ele>
        <time>2022-03-09T12:29:13Z</time>
      </trkpt>
      <trkpt lat="46.81586" lon="5.766">
        <ele>565.4</ele>
        <time>2022-03-09T12:29:14Z</time>
      </trkpt>
      <trkpt lat="46.81586" lon="5.76592">
        <ele>565.4</ele>
        <time>2022-03-09T12:29:15Z</time>
      </trkpt>
      <trkpt lat="46.81585" lon="5.76585">
        <ele>565.4</ele>
        <time>2022-03-09T12:29:16Z</time>
      </trkpt>
      <trkpt lat="46.81585" lon="5.76577">
        <ele>565.4</ele>
        <time>2022-03-09T12:29:17Z</time>
      </trkpt>
      <trkpt lat="46.81584" lon="5.7657">
        <ele>565.4</ele>
        <time>2022-03-09T12:29:18Z</time>
      </trkpt>
      <trkpt lat="46.81584" lon="5.76564">
        <ele>565.4</ele>
        <time>2022-03-09T12:29:19Z</time>
      </trkpt>
      <trkpt lat="46.81584" lon="5.76558">
        <ele>565.4</ele>
        <time>2022-03-09T12:29:20Z</time>
      </trkpt>
      <trkpt lat="46.81582" lon="5.76555">
        <ele>565.2</ele>
        <time>2022-03-09T12:29:21Z</time>
      </trkpt>
      <trkpt lat="46.8158" lon="5.76552">
        <ele>565.2</ele>
        <time>2022-03-09T12:29:22Z</time>
      </trkpt>
      <trkpt lat="46.81577" lon="5.76552">
        <ele>564.8</ele>
        <time>2022-03-09T12:29:23Z</time>
      </trkpt>
      <trkpt lat="46.81574" lon="5.76554">
        <ele>564.8</ele>
        <time>2022-03-09T12:29:24Z</time>
      </trkpt>
      <trkpt lat="46.81572" lon="5.76557">
        <ele>564.6</ele>
        <time>2022-03-09T12:29:25Z</time>
      </trkpt>
      <trkpt lat="46.8157" lon="5.76561">
        <ele>564.6</ele>
        <time>2022-03-09T12:29:26Z</time>
      </trkpt>
      <trkpt lat="46.81568" lon="5.76566">
        <ele>564.4</ele>
        <time>2022-03-09T12:29:27Z</time>
      </trkpt>
      <trkpt lat="46.81566" lon="5.76571">
        <ele>564.4</ele>
        <time>2022-03-09T12:29:28Z</time>
      </trkpt>
      <trkpt lat="46.81564" lon="5.76576">
        <ele>564.4</ele>
        <time>2022-03-09T12:29:29Z</time>
      </trkpt>
      <trkpt lat="46.81562" lon="5.76581">
        <ele>564.4</ele>
        <time>2022-03-09T12:29:30Z</time>
      </trkpt>
      <trkpt lat="46.8156" lon="5.76587">
        <ele>564.4</ele>
        <time>2022-03-09T12:29:31Z</time>
      </trkpt>
      <trkpt lat="46.81558" lon="5.76592">
        <ele>564.4</ele>
        <time>2022-03-09T12:29:32Z</time>
      </trkpt>
      <trkpt lat="46.81555" lon="5.76597">
        <ele>564.4</ele>
        <time>2022-03-09T12:29:33Z</time>
      </trkpt>
      <trkpt lat="46.81553" lon="5.76602">
        <ele>564.6</ele>
        <time>2022-03-09T12:29:34Z</time>
      </trkpt>
      <trkpt lat="46.8155" lon="5.76607">
        <ele>564.6</ele>
        <time>2022-03-09T12:29:35Z</time>
      </trkpt>
      <trkpt lat="46.81547" lon="5.76612">
        <ele>564.6</ele>
        <time>2022-03-09T12:29:36Z</time>
      </trkpt>
      <trkpt lat="46.81544" lon="5.76616">
        <ele>564.6</ele>
        <time>2022-03-09T12:29:37Z</time>
      </trkpt>
      <trkpt lat="46.81544" lon="5.76616">
        <ele>564.6</ele>
        <time>2022-03-09T12:29:38Z</time>
      </trkpt>
      <trkpt lat="46.81541" lon="5.76621">
        <ele>564.6</ele>
        <time>2022-03-09T12:29:39Z</time>
      </trkpt>
      <trkpt lat="46.81538" lon="5.76627">
        <ele>564.4</ele>
        <time>2022-03-09T12:29:40Z</time>
      </trkpt>
      <trkpt lat="46.81534" lon="5.76633">
        <ele>564.4</ele>
        <time>2022-03-09T12:29:41Z</time>
      </trkpt>
      <trkpt lat="46.81532" lon="5.7664">
        <ele>564</ele>
        <time>2022-03-09T12:29:42Z</time>
      </trkpt>
      <trkpt lat="46.81529" lon="5.76648">
        <ele>563.8</ele>
        <time>2022-03-09T12:29:43Z</time>
      </trkpt>
      <trkpt lat="46.81528" lon="5.76656">
        <ele>563.6</ele>
        <time>2022-03-09T12:29:44Z</time>
      </trkpt>
      <trkpt lat="46.81527" lon="5.76665">
        <ele>563.2</ele>
        <time>2022-03-09T12:29:45Z</time>
      </trkpt>
      <trkpt lat="46.81526" lon="5.76673">
        <ele>562.8</ele>
        <time>2022-03-09T12:29:46Z</time>
      </trkpt>
      <trkpt lat="46.81525" lon="5.76681">
        <ele>562.4</ele>
        <time>2022-03-09T12:29:47Z</time>
      </trkpt>
      <trkpt lat="46.81524" lon="5.76689">
        <ele>561.8</ele>
        <time>2022-03-09T12:29:48Z</time>
      </trkpt>
      <trkpt lat="46.81522" lon="5.76697">
        <ele>561.2</ele>
        <time>2022-03-09T12:29:49Z</time>
      </trkpt>
      <trkpt lat="46.81518" lon="5.76705">
        <ele>560.6</ele>
        <time>2022-03-09T12:29:50Z</time>
      </trkpt>
      <trkpt lat="46.81515" lon="5.76713">
        <ele>559.8</ele>
        <time>2022-03-09T12:29:51Z</time>
      </trkpt>
      <trkpt lat="46.81511" lon="5.76721">
        <ele>559.2</ele>
        <time>2022-03-09T12:29:52Z</time>
      </trkpt>
      <trkpt lat="46.81506" lon="5.76728">
        <ele>558.4</ele>
        <time>2022-03-09T12:29:53Z</time>
      </trkpt>
      <trkpt lat="46.81501" lon="5.76735">
        <ele>557.8</ele>
        <time>2022-03-09T12:29:54Z</time>
      </trkpt>
      <trkpt lat="46.81494" lon="5.76742">
        <ele>557.2</ele>
        <time>2022-03-09T12:29:55Z</time>
      </trkpt>
      <trkpt lat="46.81487" lon="5.76747">
        <ele>556.4</ele>
        <time>2022-03-09T12:29:56Z</time>
      </trkpt>
      <trkpt lat="46.81479" lon="5.76751">
        <ele>556</ele>
        <time>2022-03-09T12:29:57Z</time>
      </trkpt>
      <trkpt lat="46.8147" lon="5.76754">
        <ele>555.6</ele>
        <time>2022-03-09T12:29:58Z</time>
      </trkpt>
      <trkpt lat="46.81461" lon="5.76756">
        <ele>555.2</ele>
        <time>2022-03-09T12:29:59Z</time>
      </trkpt>
      <trkpt lat="46.81452" lon="5.76759">
        <ele>554.6</ele>
        <time>2022-03-09T12:30:00Z</time>
      </trkpt>
      <trkpt lat="46.81443" lon="5.76761">
        <ele>554.2</ele>
        <time>2022-03-09T12:30:01Z</time>
      </trkpt>
      <trkpt lat="46.81434" lon="5.76763">
        <ele>553.8</ele>
        <time>2022-03-09T12:30:02Z</time>
      </trkpt>
      <trkpt lat="46.81425" lon="5.76765">
        <ele>553.4</ele>
        <time>2022-03-09T12:30:03Z</time>
      </trkpt>
      <trkpt lat="46.81416" lon="5.76767">
        <ele>553</ele>
        <time>2022-03-09T12:30:04Z</time>
      </trkpt>
      <trkpt lat="46.81408" lon="5.76768">
        <ele>552.6</ele>
        <time>2022-03-09T12:30:05Z</time>
      </trkpt>
      <trkpt lat="46.81399" lon="5.7677">
        <ele>552.2</ele>
        <time>2022-03-09T12:30:06Z</time>
      </trkpt>
      <trkpt lat="46.81391" lon="5.76771">
        <ele>551.8</ele>
        <time>2022-03-09T12:30:07Z</time>
      </trkpt>
      <trkpt lat="46.81382" lon="5.76772">
        <ele>551.4</ele>
        <time>2022-03-09T12:30:08Z</time>
      </trkpt>
      <trkpt lat="46.81374" lon="5.76772">
        <ele>551.2</ele>
        <time>2022-03-09T12:30:09Z</time>
      </trkpt>
      <trkpt lat="46.81365" lon="5.76771">
        <ele>550.8</ele>
        <time>2022-03-09T12:30:10Z</time>
      </trkpt>
      <trkpt lat="46.81356" lon="5.76768">
        <ele>550.4</ele>
        <time>2022-03-09T12:30:11Z</time>
      </trkpt>
      <trkpt lat="46.81339" lon="5.76761">
        <ele>550</ele>
        <time>2022-03-09T12:30:12Z</time>
      </trkpt>
      <trkpt lat="46.81331" lon="5.76757">
        <ele>549.8</ele>
        <time>2022-03-09T12:30:13Z</time>
      </trkpt>
      <trkpt lat="46.81322" lon="5.76753">
        <ele>549.6</ele>
        <time>2022-03-09T12:30:14Z</time>
      </trkpt>
      <trkpt lat="46.81314" lon="5.76749">
        <ele>549.6</ele>
        <time>2022-03-09T12:30:15Z</time>
      </trkpt>
      <trkpt lat="46.81306" lon="5.76746">
        <ele>549.4</ele>
        <time>2022-03-09T12:30:16Z</time>
      </trkpt>
      <trkpt lat="46.81298" lon="5.76743">
        <ele>549.4</ele>
        <time>2022-03-09T12:30:17Z</time>
      </trkpt>
      <trkpt lat="46.81291" lon="5.76741">
        <ele>549.4</ele>
        <time>2022-03-09T12:30:18Z</time>
      </trkpt>
      <trkpt lat="46.81283" lon="5.76739">
        <ele>549</ele>
        <time>2022-03-09T12:30:19Z</time>
      </trkpt>
      <trkpt lat="46.81276" lon="5.76736">
        <ele>549</ele>
        <time>2022-03-09T12:30:20Z</time>
      </trkpt>
      <trkpt lat="46.81269" lon="5.76734">
        <ele>549</ele>
        <time>2022-03-09T12:30:21Z</time>
      </trkpt>
      <trkpt lat="46.81262" lon="5.76733">
        <ele>549</ele>
        <time>2022-03-09T12:30:22Z</time>
      </trkpt>
      <trkpt lat="46.81254" lon="5.76732">
        <ele>549</ele>
        <time>2022-03-09T12:30:23Z</time>
      </trkpt>
      <trkpt lat="46.81248" lon="5.76731">
        <ele>549</ele>
        <time>2022-03-09T12:30:24Z</time>
      </trkpt>
      <trkpt lat="46.81241" lon="5.76729">
        <ele>549</ele>
        <time>2022-03-09T12:30:25Z</time>
      </trkpt>
      <trkpt lat="46.81235" lon="5.76728">
        <ele>549</ele>
        <time>2022-03-09T12:30:26Z</time>
      </trkpt>
      <trkpt lat="46.81228" lon="5.76726">
        <ele>549</ele>
        <time>2022-03-09T12:30:27Z</time>
      </trkpt>
      <trkpt lat="46.81222" lon="5.76723">
        <ele>549</ele>
        <time>2022-03-09T12:30:28Z</time>
      </trkpt>
      <trkpt lat="46.81216" lon="5.76721">
        <ele>549</ele>
        <time>2022-03-09T12:30:29Z</time>
      </trkpt>
      <trkpt lat="46.81209" lon="5.76718">
        <ele>549</ele>
        <time>2022-03-09T12:30:30Z</time>
      </trkpt>
      <trkpt lat="46.81202" lon="5.76717">
        <ele>549</ele>
        <time>2022-03-09T12:30:31Z</time>
      </trkpt>
      <trkpt lat="46.81196" lon="5.76715">
        <ele>549</ele>
        <time>2022-03-09T12:30:32Z</time>
      </trkpt>
      <trkpt lat="46.8119" lon="5.76713">
        <ele>549</ele>
        <time>2022-03-09T12:30:33Z</time>
      </trkpt>
      <trkpt lat="46.81185" lon="5.76712">
        <ele>549</ele>
        <time>2022-03-09T12:30:34Z</time>
      </trkpt>
      <trkpt lat="46.8118" lon="5.7671">
        <ele>549</ele>
        <time>2022-03-09T12:30:35Z</time>
      </trkpt>
      <trkpt lat="46.81176" lon="5.76709">
        <ele>549.2</ele>
        <time>2022-03-09T12:30:36Z</time>
      </trkpt>
      <trkpt lat="46.81172" lon="5.76707">
        <ele>549.2</ele>
        <time>2022-03-09T12:30:37Z</time>
      </trkpt>
      <trkpt lat="46.81169" lon="5.76707">
        <ele>549.2</ele>
        <time>2022-03-09T12:30:38Z</time>
      </trkpt>
      <trkpt lat="46.81167" lon="5.76706">
        <ele>549.6</ele>
        <time>2022-03-09T12:30:39Z</time>
      </trkpt>
      <trkpt lat="46.81166" lon="5.76706">
        <ele>549.6</ele>
        <time>2022-03-09T12:30:40Z</time>
      </trkpt>
      <trkpt lat="46.81166" lon="5.76706">
        <ele>550</ele>
        <time>2022-03-09T12:30:41Z</time>
      </trkpt>
      <trkpt lat="46.81166" lon="5.76706">
        <ele>550</ele>
        <time>2022-03-09T12:30:42Z</time>
      </trkpt>
      <trkpt lat="46.81166" lon="5.76706">
        <ele>550</ele>
        <time>2022-03-09T12:30:45Z</time>
      </trkpt>
      <trkpt lat="46.81166" lon="5.76706">
        <ele>550</ele>
        <time>2022-03-09T12:30:46Z</time>
      </trkpt>
      <trkpt lat="46.81166" lon="5.76706">
        <ele>550</ele>
        <time>2022-03-09T12:30:47Z</time>
      </trkpt>
      <trkpt lat="46.81166" lon="5.76706">
        <ele>550</ele>
        <time>2022-03-09T12:30:48Z</time>
      </trkpt>
      <trkpt lat="46.81166" lon="5.76706">
        <ele>550</ele>
        <time>2022-03-09T12:30:49Z</time>
      </trkpt>
      <trkpt lat="46.81166" lon="5.76706">
        <ele>550</ele>
        <time>2022-03-09T12:30:50Z</time>
      </trkpt>
      <trkpt lat="46.81166" lon="5.76706">
        <ele>550.2</ele>
        <time>2022-03-09T12:30:57Z</time>
      </trkpt>
      <trkpt lat="46.81166" lon="5.76706">
        <ele>550.2</ele>
        <time>2022-03-09T12:30:58Z</time>
      </trkpt>
      <trkpt lat="46.81164" lon="5.76705">
        <ele>550.2</ele>
        <time>2022-03-09T12:30:59Z</time>
      </trkpt>
      <trkpt lat="46.81163" lon="5.76705">
        <ele>550.2</ele>
        <time>2022-03-09T12:31:00Z</time>
      </trkpt>
      <trkpt lat="46.81161" lon="5.76704">
        <ele>550.2</ele>
        <time>2022-03-09T12:31:01Z</time>
      </trkpt>
      <trkpt lat="46.81159" lon="5.76704">
        <ele>550.2</ele>
        <time>2022-03-09T12:31:02Z</time>
      </trkpt>
      <trkpt lat="46.81156" lon="5.76703">
        <ele>550.2</ele>
        <time>2022-03-09T12:31:03Z</time>
      </trkpt>
      <trkpt lat="46.81154" lon="5.76703">
        <ele>550.2</ele>
        <time>2022-03-09T12:31:04Z</time>
      </trkpt>
      <trkpt lat="46.8115" lon="5.76703">
        <ele>550.2</ele>
        <time>2022-03-09T12:31:05Z</time>
      </trkpt>
      <trkpt lat="46.81147" lon="5.76703">
        <ele>550.2</ele>
        <time>2022-03-09T12:31:06Z</time>
      </trkpt>
      <trkpt lat="46.81143" lon="5.76702">
        <ele>550.4</ele>
        <time>2022-03-09T12:31:07Z</time>
      </trkpt>
      <trkpt lat="46.81139" lon="5.76701">
        <ele>550.4</ele>
        <time>2022-03-09T12:31:08Z</time>
      </trkpt>
      <trkpt lat="46.81134" lon="5.767">
        <ele>550.4</ele>
        <time>2022-03-09T12:31:09Z</time>
      </trkpt>
      <trkpt lat="46.81129" lon="5.76699">
        <ele>550.4</ele>
        <time>2022-03-09T12:31:10Z</time>
      </trkpt>
      <trkpt lat="46.81125" lon="5.76698">
        <ele>550.4</ele>
        <time>2022-03-09T12:31:11Z</time>
      </trkpt>
      <trkpt lat="46.81119" lon="5.76696">
        <ele>550.4</ele>
        <time>2022-03-09T12:31:12Z</time>
      </trkpt>
      <trkpt lat="46.81114" lon="5.76694">
        <ele>550.6</ele>
        <time>2022-03-09T12:31:13Z</time>
      </trkpt>
      <trkpt lat="46.81109" lon="5.76692">
        <ele>550.6</ele>
        <time>2022-03-09T12:31:14Z</time>
      </trkpt>
      <trkpt lat="46.81103" lon="5.76691">
        <ele>550.6</ele>
        <time>2022-03-09T12:31:15Z</time>
      </trkpt>
      <trkpt lat="46.81098" lon="5.7669">
        <ele>551</ele>
        <time>2022-03-09T12:31:16Z</time>
      </trkpt>
      <trkpt lat="46.81092" lon="5.76689">
        <ele>551</ele>
        <time>2022-03-09T12:31:17Z</time>
      </trkpt>
      <trkpt lat="46.81086" lon="5.76687">
        <ele>551</ele>
        <time>2022-03-09T12:31:18Z</time>
      </trkpt>
      <trkpt lat="46.8108" lon="5.76685">
        <ele>551</ele>
        <time>2022-03-09T12:31:19Z</time>
      </trkpt>
      <trkpt lat="46.81074" lon="5.76683">
        <ele>551.2</ele>
        <time>2022-03-09T12:31:20Z</time>
      </trkpt>
      <trkpt lat="46.81068" lon="5.76681">
        <ele>551.2</ele>
        <time>2022-03-09T12:31:21Z</time>
      </trkpt>
      <trkpt lat="46.81063" lon="5.76679">
        <ele>551.2</ele>
        <time>2022-03-09T12:31:22Z</time>
      </trkpt>
      <trkpt lat="46.81057" lon="5.76675">
        <ele>551.4</ele>
        <time>2022-03-09T12:31:23Z</time>
      </trkpt>
      <trkpt lat="46.81051" lon="5.76673">
        <ele>551.4</ele>
        <time>2022-03-09T12:31:24Z</time>
      </trkpt>
      <trkpt lat="46.81046" lon="5.7667">
        <ele>551.4</ele>
        <time>2022-03-09T12:31:25Z</time>
      </trkpt>
      <trkpt lat="46.81041" lon="5.76669">
        <ele>551.4</ele>
        <time>2022-03-09T12:31:26Z</time>
      </trkpt>
      <trkpt lat="46.81036" lon="5.76667">
        <ele>551.6</ele>
        <time>2022-03-09T12:31:27Z</time>
      </trkpt>
      <trkpt lat="46.8103" lon="5.76667">
        <ele>551.6</ele>
        <time>2022-03-09T12:31:28Z</time>
      </trkpt>
      <trkpt lat="46.81025" lon="5.76667">
        <ele>552.2</ele>
        <time>2022-03-09T12:31:29Z</time>
      </trkpt>
      <trkpt lat="46.8102" lon="5.76666">
        <ele>552.4</ele>
        <time>2022-03-09T12:31:30Z</time>
      </trkpt>
      <trkpt lat="46.81015" lon="5.76666">
        <ele>552.8</ele>
        <time>2022-03-09T12:31:31Z</time>
      </trkpt>
      <trkpt lat="46.8101" lon="5.76667">
        <ele>553</ele>
        <time>2022-03-09T12:31:32Z</time>
      </trkpt>
      <trkpt lat="46.81005" lon="5.76668">
        <ele>553.4</ele>
        <time>2022-03-09T12:31:33Z</time>
      </trkpt>
      <trkpt lat="46.81" lon="5.76669">
        <ele>553.6</ele>
        <time>2022-03-09T12:31:34Z</time>
      </trkpt>
      <trkpt lat="46.80994" lon="5.7667">
        <ele>553.6</ele>
        <time>2022-03-09T12:31:35Z</time>
      </trkpt>
      <trkpt lat="46.80989" lon="5.76672">
        <ele>554</ele>
        <time>2022-03-09T12:31:36Z</time>
      </trkpt>
      <trkpt lat="46.80984" lon="5.76674">
        <ele>554</ele>
        <time>2022-03-09T12:31:37Z</time>
      </trkpt>
      <trkpt lat="46.80979" lon="5.76676">
        <ele>554.2</ele>
        <time>2022-03-09T12:31:38Z</time>
      </trkpt>
      <trkpt lat="46.80973" lon="5.76678">
        <ele>554.2</ele>
        <time>2022-03-09T12:31:39Z</time>
      </trkpt>
      <trkpt lat="46.80967" lon="5.7668">
        <ele>554.4</ele>
        <time>2022-03-09T12:31:40Z</time>
      </trkpt>
      <trkpt lat="46.80962" lon="5.76683">
        <ele>554.4</ele>
        <time>2022-03-09T12:31:41Z</time>
      </trkpt>
      <trkpt lat="46.80956" lon="5.76686">
        <ele>554.4</ele>
        <time>2022-03-09T12:31:42Z</time>
      </trkpt>
      <trkpt lat="46.80951" lon="5.76689">
        <ele>554.6</ele>
        <time>2022-03-09T12:31:43Z</time>
      </trkpt>
      <trkpt lat="46.80945" lon="5.76693">
        <ele>554.6</ele>
        <time>2022-03-09T12:31:44Z</time>
      </trkpt>
      <trkpt lat="46.8094" lon="5.76696">
        <ele>554.6</ele>
        <time>2022-03-09T12:31:45Z</time>
      </trkpt>
      <trkpt lat="46.80935" lon="5.767">
        <ele>554.6</ele>
        <time>2022-03-09T12:31:46Z</time>
      </trkpt>
      <trkpt lat="46.8093" lon="5.76704">
        <ele>555</ele>
        <time>2022-03-09T12:31:47Z</time>
      </trkpt>
      <trkpt lat="46.80924" lon="5.76706">
        <ele>555.2</ele>
        <time>2022-03-09T12:31:48Z</time>
      </trkpt>
      <trkpt lat="46.80919" lon="5.76709">
        <ele>555.2</ele>
        <time>2022-03-09T12:31:49Z</time>
      </trkpt>
      <trkpt lat="46.80913" lon="5.76712">
        <ele>555.6</ele>
        <time>2022-03-09T12:31:50Z</time>
      </trkpt>
      <trkpt lat="46.80907" lon="5.76715">
        <ele>555.6</ele>
        <time>2022-03-09T12:31:51Z</time>
      </trkpt>
      <trkpt lat="46.80902" lon="5.76718">
        <ele>555.8</ele>
        <time>2022-03-09T12:31:52Z</time>
      </trkpt>
      <trkpt lat="46.80897" lon="5.76719">
        <ele>556.2</ele>
        <time>2022-03-09T12:31:53Z</time>
      </trkpt>
      <trkpt lat="46.80892" lon="5.76721">
        <ele>556.2</ele>
        <time>2022-03-09T12:31:54Z</time>
      </trkpt>
      <trkpt lat="46.80887" lon="5.76723">
        <ele>556.4</ele>
        <time>2022-03-09T12:31:55Z</time>
      </trkpt>
      <trkpt lat="46.80882" lon="5.76725">
        <ele>556.4</ele>
        <time>2022-03-09T12:31:56Z</time>
      </trkpt>
      <trkpt lat="46.80878" lon="5.76727">
        <ele>556.8</ele>
        <time>2022-03-09T12:31:57Z</time>
      </trkpt>
      <trkpt lat="46.80873" lon="5.7673">
        <ele>556.8</ele>
        <time>2022-03-09T12:31:58Z</time>
      </trkpt>
      <trkpt lat="46.80868" lon="5.76731">
        <ele>557</ele>
        <time>2022-03-09T12:31:59Z</time>
      </trkpt>
      <trkpt lat="46.80863" lon="5.76732">
        <ele>557</ele>
        <time>2022-03-09T12:32:00Z</time>
      </trkpt>
      <trkpt lat="46.80858" lon="5.76733">
        <ele>557</ele>
        <time>2022-03-09T12:32:01Z</time>
      </trkpt>
      <trkpt lat="46.80853" lon="5.76735">
        <ele>557</ele>
        <time>2022-03-09T12:32:02Z</time>
      </trkpt>
      <trkpt lat="46.80847" lon="5.76737">
        <ele>556.6</ele>
        <time>2022-03-09T12:32:03Z</time>
      </trkpt>
      <trkpt lat="46.80841" lon="5.76739">
        <ele>556.4</ele>
        <time>2022-03-09T12:32:04Z</time>
      </trkpt>
      <trkpt lat="46.80834" lon="5.76742">
        <ele>556.2</ele>
        <time>2022-03-09T12:32:05Z</time>
      </trkpt>
      <trkpt lat="46.80828" lon="5.76745">
        <ele>555.8</ele>
        <time>2022-03-09T12:32:06Z</time>
      </trkpt>
      <trkpt lat="46.80821" lon="5.76748">
        <ele>555.8</ele>
        <time>2022-03-09T12:32:07Z</time>
      </trkpt>
      <trkpt lat="46.80815" lon="5.76751">
        <ele>555.4</ele>
        <time>2022-03-09T12:32:08Z</time>
      </trkpt>
      <trkpt lat="46.80808" lon="5.76756">
        <ele>555.2</ele>
        <time>2022-03-09T12:32:09Z</time>
      </trkpt>
      <trkpt lat="46.80802" lon="5.76761">
        <ele>555</ele>
        <time>2022-03-09T12:32:10Z</time>
      </trkpt>
      <trkpt lat="46.80796" lon="5.76767">
        <ele>554.6</ele>
        <time>2022-03-09T12:32:11Z</time>
      </trkpt>
      <trkpt lat="46.8079" lon="5.76774">
        <ele>554.2</ele>
        <time>2022-03-09T12:32:12Z</time>
      </trkpt>
      <trkpt lat="46.80784" lon="5.76781">
        <ele>553.8</ele>
        <time>2022-03-09T12:32:13Z</time>
      </trkpt>
      <trkpt lat="46.80779" lon="5.76789">
        <ele>553.4</ele>
        <time>2022-03-09T12:32:14Z</time>
      </trkpt>
      <trkpt lat="46.80773" lon="5.76797">
        <ele>553</ele>
        <time>2022-03-09T12:32:15Z</time>
      </trkpt>
      <trkpt lat="46.80768" lon="5.76805">
        <ele>552.8</ele>
        <time>2022-03-09T12:32:16Z</time>
      </trkpt>
      <trkpt lat="46.80762" lon="5.76813">
        <ele>552.6</ele>
        <time>2022-03-09T12:32:17Z</time>
      </trkpt>
      <trkpt lat="46.80756" lon="5.7682">
        <ele>552.6</ele>
        <time>2022-03-09T12:32:18Z</time>
      </trkpt>
      <trkpt lat="46.8075" lon="5.76827">
        <ele>552.6</ele>
        <time>2022-03-09T12:32:19Z</time>
      </trkpt>
      <trkpt lat="46.80744" lon="5.76832">
        <ele>552.6</ele>
        <time>2022-03-09T12:32:20Z</time>
      </trkpt>
      <trkpt lat="46.80738" lon="5.76837">
        <ele>552.6</ele>
        <time>2022-03-09T12:32:21Z</time>
      </trkpt>
      <trkpt lat="46.80732" lon="5.76842">
        <ele>552.6</ele>
        <time>2022-03-09T12:32:22Z</time>
      </trkpt>
      <trkpt lat="46.80725" lon="5.76846">
        <ele>552.6</ele>
        <time>2022-03-09T12:32:23Z</time>
      </trkpt>
      <trkpt lat="46.80719" lon="5.7685">
        <ele>553</ele>
        <time>2022-03-09T12:32:24Z</time>
      </trkpt>
      <trkpt lat="46.80713" lon="5.76853">
        <ele>553.4</ele>
        <time>2022-03-09T12:32:25Z</time>
      </trkpt>
      <trkpt lat="46.80708" lon="5.76855">
        <ele>553.6</ele>
        <time>2022-03-09T12:32:26Z</time>
      </trkpt>
      <trkpt lat="46.80703" lon="5.76857">
        <ele>554</ele>
        <time>2022-03-09T12:32:27Z</time>
      </trkpt>
      <trkpt lat="46.80698" lon="5.76858">
        <ele>554.2</ele>
        <time>2022-03-09T12:32:28Z</time>
      </trkpt>
      <trkpt lat="46.80693" lon="5.7686">
        <ele>554.6</ele>
        <time>2022-03-09T12:32:29Z</time>
      </trkpt>
      <trkpt lat="46.80687" lon="5.76862">
        <ele>554.8</ele>
        <time>2022-03-09T12:32:30Z</time>
      </trkpt>
      <trkpt lat="46.80682" lon="5.76864">
        <ele>555.2</ele>
        <time>2022-03-09T12:32:31Z</time>
      </trkpt>
      <trkpt lat="46.80676" lon="5.76866">
        <ele>555.4</ele>
        <time>2022-03-09T12:32:32Z</time>
      </trkpt>
      <trkpt lat="46.80671" lon="5.76868">
        <ele>555.6</ele>
        <time>2022-03-09T12:32:33Z</time>
      </trkpt>
      <trkpt lat="46.80665" lon="5.76871">
        <ele>555.8</ele>
        <time>2022-03-09T12:32:34Z</time>
      </trkpt>
      <trkpt lat="46.8066" lon="5.76874">
        <ele>555.8</ele>
        <time>2022-03-09T12:32:35Z</time>
      </trkpt>
      <trkpt lat="46.80654" lon="5.76877">
        <ele>556.2</ele>
        <time>2022-03-09T12:32:36Z</time>
      </trkpt>
      <trkpt lat="46.80648" lon="5.76879">
        <ele>556.2</ele>
        <time>2022-03-09T12:32:37Z</time>
      </trkpt>
      <trkpt lat="46.80642" lon="5.76882">
        <ele>556.6</ele>
        <time>2022-03-09T12:32:38Z</time>
      </trkpt>
      <trkpt lat="46.80636" lon="5.76884">
        <ele>556.6</ele>
        <time>2022-03-09T12:32:39Z</time>
      </trkpt>
      <trkpt lat="46.8063" lon="5.76886">
        <ele>557</ele>
        <time>2022-03-09T12:32:40Z</time>
      </trkpt>
      <trkpt lat="46.80624" lon="5.76888">
        <ele>557.2</ele>
        <time>2022-03-09T12:32:41Z</time>
      </trkpt>
      <trkpt lat="46.80619" lon="5.7689">
        <ele>557.2</ele>
        <time>2022-03-09T12:32:42Z</time>
      </trkpt>
      <trkpt lat="46.80613" lon="5.76892">
        <ele>557.2</ele>
        <time>2022-03-09T12:32:43Z</time>
      </trkpt>
      <trkpt lat="46.80608" lon="5.76895">
        <ele>557.4</ele>
        <time>2022-03-09T12:32:44Z</time>
      </trkpt>
      <trkpt lat="46.80602" lon="5.76897">
        <ele>557.4</ele>
        <time>2022-03-09T12:32:45Z</time>
      </trkpt>
      <trkpt lat="46.80596" lon="5.76899">
        <ele>557.2</ele>
        <time>2022-03-09T12:32:46Z</time>
      </trkpt>
      <trkpt lat="46.80589" lon="5.76902">
        <ele>557</ele>
        <time>2022-03-09T12:32:47Z</time>
      </trkpt>
      <trkpt lat="46.80582" lon="5.76904">
        <ele>556.8</ele>
        <time>2022-03-09T12:32:48Z</time>
      </trkpt>
      <trkpt lat="46.80574" lon="5.76907">
        <ele>556.2</ele>
        <time>2022-03-09T12:32:49Z</time>
      </trkpt>
      <trkpt lat="46.80567" lon="5.7691">
        <ele>556</ele>
        <time>2022-03-09T12:32:50Z</time>
      </trkpt>
      <trkpt lat="46.80558" lon="5.76913">
        <ele>555.6</ele>
        <time>2022-03-09T12:32:51Z</time>
      </trkpt>
      <trkpt lat="46.8055" lon="5.76916">
        <ele>555.2</ele>
        <time>2022-03-09T12:32:52Z</time>
      </trkpt>
      <trkpt lat="46.80541" lon="5.76919">
        <ele>555</ele>
        <time>2022-03-09T12:32:53Z</time>
      </trkpt>
      <trkpt lat="46.80532" lon="5.76923">
        <ele>554.8</ele>
        <time>2022-03-09T12:32:54Z</time>
      </trkpt>
      <trkpt lat="46.80523" lon="5.76926">
        <ele>554.4</ele>
        <time>2022-03-09T12:32:55Z</time>
      </trkpt>
      <trkpt lat="46.80515" lon="5.76929">
        <ele>554</ele>
        <time>2022-03-09T12:32:56Z</time>
      </trkpt>
      <trkpt lat="46.80506" lon="5.76931">
        <ele>553.6</ele>
        <time>2022-03-09T12:32:57Z</time>
      </trkpt>
      <trkpt lat="46.80498" lon="5.76933">
        <ele>553.2</ele>
        <time>2022-03-09T12:32:58Z</time>
      </trkpt>
      <trkpt lat="46.80491" lon="5.76934">
        <ele>553</ele>
        <time>2022-03-09T12:32:59Z</time>
      </trkpt>
      <trkpt lat="46.80482" lon="5.76935">
        <ele>552.8</ele>
        <time>2022-03-09T12:33:00Z</time>
      </trkpt>
      <trkpt lat="46.80474" lon="5.76936">
        <ele>552.6</ele>
        <time>2022-03-09T12:33:01Z</time>
      </trkpt>
      <trkpt lat="46.80466" lon="5.76937">
        <ele>552.6</ele>
        <time>2022-03-09T12:33:02Z</time>
      </trkpt>
      <trkpt lat="46.80458" lon="5.76939">
        <ele>552.2</ele>
        <time>2022-03-09T12:33:03Z</time>
      </trkpt>
      <trkpt lat="46.8045" lon="5.7694">
        <ele>552.2</ele>
        <time>2022-03-09T12:33:04Z</time>
      </trkpt>
      <trkpt lat="46.80442" lon="5.76941">
        <ele>551.8</ele>
        <time>2022-03-09T12:33:05Z</time>
      </trkpt>
      <trkpt lat="46.80434" lon="5.76942">
        <ele>551.8</ele>
        <time>2022-03-09T12:33:06Z</time>
      </trkpt>
      <trkpt lat="46.80427" lon="5.76943">
        <ele>551.6</ele>
        <time>2022-03-09T12:33:07Z</time>
      </trkpt>
      <trkpt lat="46.80419" lon="5.76943">
        <ele>551.4</ele>
        <time>2022-03-09T12:33:08Z</time>
      </trkpt>
      <trkpt lat="46.80411" lon="5.76944">
        <ele>551.4</ele>
        <time>2022-03-09T12:33:09Z</time>
      </trkpt>
      <trkpt lat="46.80403" lon="5.76945">
        <ele>551.2</ele>
        <time>2022-03-09T12:33:10Z</time>
      </trkpt>
      <trkpt lat="46.80396" lon="5.76947">
        <ele>551.2</ele>
        <time>2022-03-09T12:33:11Z</time>
      </trkpt>
      <trkpt lat="46.80389" lon="5.76948">
        <ele>550.8</ele>
        <time>2022-03-09T12:33:12Z</time>
      </trkpt>
      <trkpt lat="46.80382" lon="5.76949">
        <ele>550.8</ele>
        <time>2022-03-09T12:33:13Z</time>
      </trkpt>
      <trkpt lat="46.80376" lon="5.7695">
        <ele>550.8</ele>
        <time>2022-03-09T12:33:14Z</time>
      </trkpt>
      <trkpt lat="46.80369" lon="5.76951">
        <ele>550.8</ele>
        <time>2022-03-09T12:33:15Z</time>
      </trkpt>
      <trkpt lat="46.80363" lon="5.76952">
        <ele>550.8</ele>
        <time>2022-03-09T12:33:16Z</time>
      </trkpt>
      <trkpt lat="46.80357" lon="5.76953">
        <ele>550.8</ele>
        <time>2022-03-09T12:33:17Z</time>
      </trkpt>
      <trkpt lat="46.80351" lon="5.76954">
        <ele>550.8</ele>
        <time>2022-03-09T12:33:18Z</time>
      </trkpt>
      <trkpt lat="46.80344" lon="5.76955">
        <ele>550.8</ele>
        <time>2022-03-09T12:33:19Z</time>
      </trkpt>
      <trkpt lat="46.80338" lon="5.76956">
        <ele>550.8</ele>
        <time>2022-03-09T12:33:20Z</time>
      </trkpt>
      <trkpt lat="46.80331" lon="5.76958">
        <ele>550.6</ele>
        <time>2022-03-09T12:33:21Z</time>
      </trkpt>
      <trkpt lat="46.80324" lon="5.76961">
        <ele>550.2</ele>
        <time>2022-03-09T12:33:22Z</time>
      </trkpt>
      <trkpt lat="46.80317" lon="5.76965">
        <ele>550.2</ele>
        <time>2022-03-09T12:33:23Z</time>
      </trkpt>
      <trkpt lat="46.80309" lon="5.7697">
        <ele>550</ele>
        <time>2022-03-09T12:33:24Z</time>
      </trkpt>
      <trkpt lat="46.80302" lon="5.76975">
        <ele>549.8</ele>
        <time>2022-03-09T12:33:25Z</time>
      </trkpt>
      <trkpt lat="46.80295" lon="5.7698">
        <ele>549.8</ele>
        <time>2022-03-09T12:33:26Z</time>
      </trkpt>
      <trkpt lat="46.80288" lon="5.76985">
        <ele>549.4</ele>
        <time>2022-03-09T12:33:27Z</time>
      </trkpt>
      <trkpt lat="46.80281" lon="5.7699">
        <ele>549.4</ele>
        <time>2022-03-09T12:33:28Z</time>
      </trkpt>
      <trkpt lat="46.80274" lon="5.76995">
        <ele>549.2</ele>
        <time>2022-03-09T12:33:29Z</time>
      </trkpt>
      <trkpt lat="46.80267" lon="5.77001">
        <ele>549</ele>
        <time>2022-03-09T12:33:30Z</time>
      </trkpt>
      <trkpt lat="46.8026" lon="5.77005">
        <ele>549</ele>
        <time>2022-03-09T12:33:31Z</time>
      </trkpt>
      <trkpt lat="46.80254" lon="5.7701">
        <ele>548.8</ele>
        <time>2022-03-09T12:33:32Z</time>
      </trkpt>
      <trkpt lat="46.80247" lon="5.77015">
        <ele>548.8</ele>
        <time>2022-03-09T12:33:33Z</time>
      </trkpt>
      <trkpt lat="46.8024" lon="5.7702">
        <ele>548.4</ele>
        <time>2022-03-09T12:33:34Z</time>
      </trkpt>
      <trkpt lat="46.80234" lon="5.77024">
        <ele>548.4</ele>
        <time>2022-03-09T12:33:35Z</time>
      </trkpt>
      <trkpt lat="46.80228" lon="5.77029">
        <ele>548.2</ele>
        <time>2022-03-09T12:33:36Z</time>
      </trkpt>
      <trkpt lat="46.80221" lon="5.77033">
        <ele>548.2</ele>
        <time>2022-03-09T12:33:37Z</time>
      </trkpt>
      <trkpt lat="46.80215" lon="5.77038">
        <ele>548.2</ele>
        <time>2022-03-09T12:33:38Z</time>
      </trkpt>
      <trkpt lat="46.80209" lon="5.77042">
        <ele>548.4</ele>
        <time>2022-03-09T12:33:39Z</time>
      </trkpt>
      <trkpt lat="46.80204" lon="5.77046">
        <ele>548.6</ele>
        <time>2022-03-09T12:33:40Z</time>
      </trkpt>
      <trkpt lat="46.80199" lon="5.7705">
        <ele>549</ele>
        <time>2022-03-09T12:33:41Z</time>
      </trkpt>
      <trkpt lat="46.80194" lon="5.77053">
        <ele>549.4</ele>
        <time>2022-03-09T12:33:42Z</time>
      </trkpt>
      <trkpt lat="46.8019" lon="5.77056">
        <ele>549.8</ele>
        <time>2022-03-09T12:33:43Z</time>
      </trkpt>
      <trkpt lat="46.80185" lon="5.77059">
        <ele>550.2</ele>
        <time>2022-03-09T12:33:44Z</time>
      </trkpt>
      <trkpt lat="46.80181" lon="5.77061">
        <ele>550.4</ele>
        <time>2022-03-09T12:33:45Z</time>
      </trkpt>
      <trkpt lat="46.80176" lon="5.77064">
        <ele>550.8</ele>
        <time>2022-03-09T12:33:46Z</time>
      </trkpt>
      <trkpt lat="46.80172" lon="5.77067">
        <ele>551</ele>
        <time>2022-03-09T12:33:47Z</time>
      </trkpt>
      <trkpt lat="46.80167" lon="5.77071">
        <ele>551</ele>
        <time>2022-03-09T12:33:48Z</time>
      </trkpt>
      <trkpt lat="46.80163" lon="5.77074">
        <ele>551.4</ele>
        <time>2022-03-09T12:33:49Z</time>
      </trkpt>
      <trkpt lat="46.80158" lon="5.77077">
        <ele>551.4</ele>
        <time>2022-03-09T12:33:50Z</time>
      </trkpt>
      <trkpt lat="46.80153" lon="5.77081">
        <ele>551.4</ele>
        <time>2022-03-09T12:33:51Z</time>
      </trkpt>
      <trkpt lat="46.80148" lon="5.77085">
        <ele>551.4</ele>
        <time>2022-03-09T12:33:52Z</time>
      </trkpt>
      <trkpt lat="46.80142" lon="5.7709">
        <ele>551</ele>
        <time>2022-03-09T12:33:53Z</time>
      </trkpt>
      <trkpt lat="46.80136" lon="5.77095">
        <ele>550.8</ele>
        <time>2022-03-09T12:33:54Z</time>
      </trkpt>
      <trkpt lat="46.80131" lon="5.771">
        <ele>550.8</ele>
        <time>2022-03-09T12:33:55Z</time>
      </trkpt>
      <trkpt lat="46.80126" lon="5.77106">
        <ele>550.6</ele>
        <time>2022-03-09T12:33:56Z</time>
      </trkpt>
      <trkpt lat="46.80121" lon="5.77113">
        <ele>550.6</ele>
        <time>2022-03-09T12:33:57Z</time>
      </trkpt>
      <trkpt lat="46.80117" lon="5.7712">
        <ele>550.2</ele>
        <time>2022-03-09T12:33:58Z</time>
      </trkpt>
      <trkpt lat="46.80113" lon="5.77127">
        <ele>550.2</ele>
        <time>2022-03-09T12:33:59Z</time>
      </trkpt>
      <trkpt lat="46.8011" lon="5.77133">
        <ele>550.2</ele>
        <time>2022-03-09T12:34:00Z</time>
      </trkpt>
      <trkpt lat="46.80107" lon="5.7714">
        <ele>550.2</ele>
        <time>2022-03-09T12:34:01Z</time>
      </trkpt>
      <trkpt lat="46.80104" lon="5.77146">
        <ele>550.2</ele>
        <time>2022-03-09T12:34:02Z</time>
      </trkpt>
      <trkpt lat="46.80101" lon="5.77153">
        <ele>550.4</ele>
        <time>2022-03-09T12:34:03Z</time>
      </trkpt>
      <trkpt lat="46.80099" lon="5.7716">
        <ele>550.4</ele>
        <time>2022-03-09T12:34:04Z</time>
      </trkpt>
      <trkpt lat="46.80096" lon="5.77168">
        <ele>550.4</ele>
        <time>2022-03-09T12:34:05Z</time>
      </trkpt>
      <trkpt lat="46.80093" lon="5.77177">
        <ele>550.4</ele>
        <time>2022-03-09T12:34:06Z</time>
      </trkpt>
      <trkpt lat="46.80091" lon="5.77184">
        <ele>550.4</ele>
        <time>2022-03-09T12:34:07Z</time>
      </trkpt>
      <trkpt lat="46.80088" lon="5.77193">
        <ele>550.4</ele>
        <time>2022-03-09T12:34:08Z</time>
      </trkpt>
      <trkpt lat="46.80085" lon="5.77201">
        <ele>550.4</ele>
        <time>2022-03-09T12:34:09Z</time>
      </trkpt>
      <trkpt lat="46.80082" lon="5.77208">
        <ele>550.4</ele>
        <time>2022-03-09T12:34:10Z</time>
      </trkpt>
      <trkpt lat="46.80078" lon="5.77215">
        <ele>550.4</ele>
        <time>2022-03-09T12:34:11Z</time>
      </trkpt>
      <trkpt lat="46.80075" lon="5.77221">
        <ele>550.4</ele>
        <time>2022-03-09T12:34:12Z</time>
      </trkpt>
      <trkpt lat="46.80072" lon="5.77228">
        <ele>550.4</ele>
        <time>2022-03-09T12:34:13Z</time>
      </trkpt>
      <trkpt lat="46.80068" lon="5.77235">
        <ele>550.4</ele>
        <time>2022-03-09T12:34:14Z</time>
      </trkpt>
      <trkpt lat="46.80065" lon="5.7724">
        <ele>550.2</ele>
        <time>2022-03-09T12:34:15Z</time>
      </trkpt>
      <trkpt lat="46.80061" lon="5.77246">
        <ele>549.8</ele>
        <time>2022-03-09T12:34:16Z</time>
      </trkpt>
      <trkpt lat="46.80057" lon="5.77251">
        <ele>549.6</ele>
        <time>2022-03-09T12:34:17Z</time>
      </trkpt>
      <trkpt lat="46.80053" lon="5.77255">
        <ele>549.2</ele>
        <time>2022-03-09T12:34:18Z</time>
      </trkpt>
      <trkpt lat="46.80049" lon="5.77258">
        <ele>548.8</ele>
        <time>2022-03-09T12:34:19Z</time>
      </trkpt>
      <trkpt lat="46.80045" lon="5.77261">
        <ele>548.4</ele>
        <time>2022-03-09T12:34:20Z</time>
      </trkpt>
      <trkpt lat="46.80041" lon="5.77263">
        <ele>548</ele>
        <time>2022-03-09T12:34:21Z</time>
      </trkpt>
      <trkpt lat="46.80036" lon="5.77265">
        <ele>547.6</ele>
        <time>2022-03-09T12:34:22Z</time>
      </trkpt>
      <trkpt lat="46.80031" lon="5.77268">
        <ele>547</ele>
        <time>2022-03-09T12:34:23Z</time>
      </trkpt>
      <trkpt lat="46.80024" lon="5.77271">
        <ele>546.4</ele>
        <time>2022-03-09T12:34:24Z</time>
      </trkpt>
      <trkpt lat="46.80017" lon="5.77274">
        <ele>545.6</ele>
        <time>2022-03-09T12:34:25Z</time>
      </trkpt>
      <trkpt lat="46.8001" lon="5.77277">
        <ele>545</ele>
        <time>2022-03-09T12:34:26Z</time>
      </trkpt>
      <trkpt lat="46.80001" lon="5.7728">
        <ele>544.4</ele>
        <time>2022-03-09T12:34:27Z</time>
      </trkpt>
      <trkpt lat="46.79994" lon="5.77283">
        <ele>543.6</ele>
        <time>2022-03-09T12:34:28Z</time>
      </trkpt>
      <trkpt lat="46.79985" lon="5.77287">
        <ele>543</ele>
        <time>2022-03-09T12:34:29Z</time>
      </trkpt>
      <trkpt lat="46.79977" lon="5.77291">
        <ele>542.4</ele>
        <time>2022-03-09T12:34:30Z</time>
      </trkpt>
      <trkpt lat="46.79969" lon="5.77295">
        <ele>541.8</ele>
        <time>2022-03-09T12:34:31Z</time>
      </trkpt>
      <trkpt lat="46.7996" lon="5.77299">
        <ele>541.2</ele>
        <time>2022-03-09T12:34:32Z</time>
      </trkpt>
      <trkpt lat="46.79951" lon="5.77303">
        <ele>540.8</ele>
        <time>2022-03-09T12:34:33Z</time>
      </trkpt>
      <trkpt lat="46.79942" lon="5.77307">
        <ele>540.2</ele>
        <time>2022-03-09T12:34:34Z</time>
      </trkpt>
      <trkpt lat="46.79933" lon="5.77311">
        <ele>539.8</ele>
        <time>2022-03-09T12:34:35Z</time>
      </trkpt>
      <trkpt lat="46.79924" lon="5.77315">
        <ele>539.4</ele>
        <time>2022-03-09T12:34:36Z</time>
      </trkpt>
      <trkpt lat="46.79915" lon="5.77319">
        <ele>539</ele>
        <time>2022-03-09T12:34:37Z</time>
      </trkpt>
      <trkpt lat="46.79907" lon="5.77322">
        <ele>538.8</ele>
        <time>2022-03-09T12:34:38Z</time>
      </trkpt>
      <trkpt lat="46.79898" lon="5.77326">
        <ele>538.4</ele>
        <time>2022-03-09T12:34:39Z</time>
      </trkpt>
      <trkpt lat="46.7989" lon="5.77329">
        <ele>538</ele>
        <time>2022-03-09T12:34:40Z</time>
      </trkpt>
      <trkpt lat="46.79882" lon="5.77332">
        <ele>537.8</ele>
        <time>2022-03-09T12:34:41Z</time>
      </trkpt>
      <trkpt lat="46.79873" lon="5.77335">
        <ele>537.6</ele>
        <time>2022-03-09T12:34:42Z</time>
      </trkpt>
      <trkpt lat="46.79865" lon="5.77337">
        <ele>537.6</ele>
        <time>2022-03-09T12:34:43Z</time>
      </trkpt>
      <trkpt lat="46.79858" lon="5.7734">
        <ele>537.2</ele>
        <time>2022-03-09T12:34:44Z</time>
      </trkpt>
      <trkpt lat="46.7985" lon="5.77343">
        <ele>536.8</ele>
        <time>2022-03-09T12:34:45Z</time>
      </trkpt>
      <trkpt lat="46.79842" lon="5.77346">
        <ele>536.6</ele>
        <time>2022-03-09T12:34:46Z</time>
      </trkpt>
      <trkpt lat="46.79833" lon="5.77349">
        <ele>536.2</ele>
        <time>2022-03-09T12:34:47Z</time>
      </trkpt>
      <trkpt lat="46.79824" lon="5.77352">
        <ele>535.6</ele>
        <time>2022-03-09T12:34:48Z</time>
      </trkpt>
      <trkpt lat="46.79815" lon="5.77354">
        <ele>535.4</ele>
        <time>2022-03-09T12:34:49Z</time>
      </trkpt>
      <trkpt lat="46.79807" lon="5.77356">
        <ele>535</ele>
        <time>2022-03-09T12:34:50Z</time>
      </trkpt>
      <trkpt lat="46.79797" lon="5.77359">
        <ele>534.8</ele>
        <time>2022-03-09T12:34:51Z</time>
      </trkpt>
      <trkpt lat="46.79788" lon="5.77361">
        <ele>534.4</ele>
        <time>2022-03-09T12:34:52Z</time>
      </trkpt>
      <trkpt lat="46.79779" lon="5.77363">
        <ele>534.2</ele>
        <time>2022-03-09T12:34:53Z</time>
      </trkpt>
      <trkpt lat="46.79762" lon="5.77367">
        <ele>534</ele>
        <time>2022-03-09T12:34:54Z</time>
      </trkpt>
      <trkpt lat="46.79754" lon="5.77369">
        <ele>533.8</ele>
        <time>2022-03-09T12:34:55Z</time>
      </trkpt>
      <trkpt lat="46.79745" lon="5.7737">
        <ele>533.4</ele>
        <time>2022-03-09T12:34:56Z</time>
      </trkpt>
      <trkpt lat="46.79737" lon="5.77371">
        <ele>533</ele>
        <time>2022-03-09T12:34:57Z</time>
      </trkpt>
      <trkpt lat="46.79729" lon="5.77372">
        <ele>533</ele>
        <time>2022-03-09T12:34:58Z</time>
      </trkpt>
      <trkpt lat="46.79721" lon="5.77374">
        <ele>532.6</ele>
        <time>2022-03-09T12:34:59Z</time>
      </trkpt>
      <trkpt lat="46.79714" lon="5.77375">
        <ele>532.4</ele>
        <time>2022-03-09T12:35:00Z</time>
      </trkpt>
      <trkpt lat="46.79706" lon="5.77376">
        <ele>532.4</ele>
        <time>2022-03-09T12:35:01Z</time>
      </trkpt>
      <trkpt lat="46.79699" lon="5.77378">
        <ele>532</ele>
        <time>2022-03-09T12:35:02Z</time>
      </trkpt>
      <trkpt lat="46.79691" lon="5.77379">
        <ele>532</ele>
        <time>2022-03-09T12:35:03Z</time>
      </trkpt>
      <trkpt lat="46.79684" lon="5.77381">
        <ele>532</ele>
        <time>2022-03-09T12:35:04Z</time>
      </trkpt>
      <trkpt lat="46.79677" lon="5.77383">
        <ele>532</ele>
        <time>2022-03-09T12:35:05Z</time>
      </trkpt>
      <trkpt lat="46.7967" lon="5.77385">
        <ele>532</ele>
        <time>2022-03-09T12:35:06Z</time>
      </trkpt>
      <trkpt lat="46.79664" lon="5.77386">
        <ele>532</ele>
        <time>2022-03-09T12:35:07Z</time>
      </trkpt>
      <trkpt lat="46.79658" lon="5.77388">
        <ele>532</ele>
        <time>2022-03-09T12:35:08Z</time>
      </trkpt>
      <trkpt lat="46.79652" lon="5.7739">
        <ele>532.4</ele>
        <time>2022-03-09T12:35:09Z</time>
      </trkpt>
      <trkpt lat="46.79646" lon="5.77391">
        <ele>532.8</ele>
        <time>2022-03-09T12:35:10Z</time>
      </trkpt>
      <trkpt lat="46.79641" lon="5.77392">
        <ele>533</ele>
        <time>2022-03-09T12:35:11Z</time>
      </trkpt>
      <trkpt lat="46.79632" lon="5.77392">
        <ele>533.4</ele>
        <time>2022-03-09T12:35:12Z</time>
      </trkpt>
      <trkpt lat="46.7963" lon="5.77392">
        <ele>533.6</ele>
        <time>2022-03-09T12:35:13Z</time>
      </trkpt>
      <trkpt lat="46.79624" lon="5.77392">
        <ele>534</ele>
        <time>2022-03-09T12:35:14Z</time>
      </trkpt>
      <trkpt lat="46.79619" lon="5.77392">
        <ele>534.2</ele>
        <time>2022-03-09T12:35:15Z</time>
      </trkpt>
      <trkpt lat="46.79619" lon="5.77392">
        <ele>534.4</ele>
        <time>2022-03-09T12:35:16Z</time>
      </trkpt>
      <trkpt lat="46.79613" lon="5.77392">
        <ele>534.4</ele>
        <time>2022-03-09T12:35:17Z</time>
      </trkpt>
      <trkpt lat="46.79608" lon="5.77391">
        <ele>534.4</ele>
        <time>2022-03-09T12:35:18Z</time>
      </trkpt>
      <trkpt lat="46.79602" lon="5.7739">
        <ele>534.4</ele>
        <time>2022-03-09T12:35:19Z</time>
      </trkpt>
      <trkpt lat="46.79593" lon="5.77387">
        <ele>534.4</ele>
        <time>2022-03-09T12:35:20Z</time>
      </trkpt>
      <trkpt lat="46.7959" lon="5.77386">
        <ele>534.6</ele>
        <time>2022-03-09T12:35:21Z</time>
      </trkpt>
      <trkpt lat="46.79584" lon="5.77384">
        <ele>534.6</ele>
        <time>2022-03-09T12:35:22Z</time>
      </trkpt>
      <trkpt lat="46.79578" lon="5.77382">
        <ele>534.6</ele>
        <time>2022-03-09T12:35:23Z</time>
      </trkpt>
      <trkpt lat="46.79572" lon="5.77378">
        <ele>534.6</ele>
        <time>2022-03-09T12:35:24Z</time>
      </trkpt>
      <trkpt lat="46.79566" lon="5.77374">
        <ele>534.4</ele>
        <time>2022-03-09T12:35:25Z</time>
      </trkpt>
      <trkpt lat="46.7956" lon="5.77371">
        <ele>534.4</ele>
        <time>2022-03-09T12:35:26Z</time>
      </trkpt>
      <trkpt lat="46.79555" lon="5.77366">
        <ele>534.4</ele>
        <time>2022-03-09T12:35:27Z</time>
      </trkpt>
      <trkpt lat="46.79549" lon="5.77362">
        <ele>534.4</ele>
        <time>2022-03-09T12:35:28Z</time>
      </trkpt>
      <trkpt lat="46.79543" lon="5.77357">
        <ele>534.4</ele>
        <time>2022-03-09T12:35:29Z</time>
      </trkpt>
      <trkpt lat="46.79537" lon="5.77352">
        <ele>534.4</ele>
        <time>2022-03-09T12:35:30Z</time>
      </trkpt>
      <trkpt lat="46.79531" lon="5.77348">
        <ele>534.4</ele>
        <time>2022-03-09T12:35:31Z</time>
      </trkpt>
      <trkpt lat="46.79525" lon="5.77343">
        <ele>534.4</ele>
        <time>2022-03-09T12:35:32Z</time>
      </trkpt>
      <trkpt lat="46.7952" lon="5.77338">
        <ele>534.4</ele>
        <time>2022-03-09T12:35:33Z</time>
      </trkpt>
      <trkpt lat="46.79513" lon="5.77334">
        <ele>534.4</ele>
        <time>2022-03-09T12:35:34Z</time>
      </trkpt>
      <trkpt lat="46.79508" lon="5.77329">
        <ele>534.6</ele>
        <time>2022-03-09T12:35:35Z</time>
      </trkpt>
      <trkpt lat="46.79502" lon="5.77324">
        <ele>534.6</ele>
        <time>2022-03-09T12:35:36Z</time>
      </trkpt>
      <trkpt lat="46.79496" lon="5.7732">
        <ele>534.6</ele>
        <time>2022-03-09T12:35:37Z</time>
      </trkpt>
      <trkpt lat="46.7949" lon="5.77315">
        <ele>534.6</ele>
        <time>2022-03-09T12:35:38Z</time>
      </trkpt>
      <trkpt lat="46.79485" lon="5.7731">
        <ele>534.8</ele>
        <time>2022-03-09T12:35:39Z</time>
      </trkpt>
      <trkpt lat="46.79479" lon="5.77306">
        <ele>534.8</ele>
        <time>2022-03-09T12:35:40Z</time>
      </trkpt>
      <trkpt lat="46.79473" lon="5.77302">
        <ele>534.8</ele>
        <time>2022-03-09T12:35:41Z</time>
      </trkpt>
      <trkpt lat="46.79468" lon="5.77297">
        <ele>535</ele>
        <time>2022-03-09T12:35:42Z</time>
      </trkpt>
      <trkpt lat="46.79462" lon="5.77293">
        <ele>535</ele>
        <time>2022-03-09T12:35:43Z</time>
      </trkpt>
      <trkpt lat="46.79456" lon="5.77289">
        <ele>535</ele>
        <time>2022-03-09T12:35:44Z</time>
      </trkpt>
      <trkpt lat="46.79451" lon="5.77285">
        <ele>535.2</ele>
        <time>2022-03-09T12:35:45Z</time>
      </trkpt>
      <trkpt lat="46.79446" lon="5.77281">
        <ele>535.2</ele>
        <time>2022-03-09T12:35:46Z</time>
      </trkpt>
      <trkpt lat="46.7944" lon="5.77276">
        <ele>535.2</ele>
        <time>2022-03-09T12:35:47Z</time>
      </trkpt>
      <trkpt lat="46.79435" lon="5.77272">
        <ele>535.6</ele>
        <time>2022-03-09T12:35:48Z</time>
      </trkpt>
      <trkpt lat="46.7943" lon="5.77268">
        <ele>535.6</ele>
        <time>2022-03-09T12:35:49Z</time>
      </trkpt>
      <trkpt lat="46.79425" lon="5.77264">
        <ele>535.8</ele>
        <time>2022-03-09T12:35:50Z</time>
      </trkpt>
      <trkpt lat="46.7942" lon="5.7726">
        <ele>535.8</ele>
        <time>2022-03-09T12:35:51Z</time>
      </trkpt>
      <trkpt lat="46.79415" lon="5.77257">
        <ele>536.2</ele>
        <time>2022-03-09T12:35:52Z</time>
      </trkpt>
      <trkpt lat="46.7941" lon="5.77254">
        <ele>536.2</ele>
        <time>2022-03-09T12:35:53Z</time>
      </trkpt>
      <trkpt lat="46.79405" lon="5.77251">
        <ele>536.6</ele>
        <time>2022-03-09T12:35:54Z</time>
      </trkpt>
      <trkpt lat="46.794" lon="5.77248">
        <ele>536.8</ele>
        <time>2022-03-09T12:35:55Z</time>
      </trkpt>
      <trkpt lat="46.79396" lon="5.77245">
        <ele>537</ele>
        <time>2022-03-09T12:35:56Z</time>
      </trkpt>
      <trkpt lat="46.79391" lon="5.77242">
        <ele>537</ele>
        <time>2022-03-09T12:35:57Z</time>
      </trkpt>
      <trkpt lat="46.79387" lon="5.77239">
        <ele>537.2</ele>
        <time>2022-03-09T12:35:58Z</time>
      </trkpt>
      <trkpt lat="46.79381" lon="5.77236">
        <ele>537.2</ele>
        <time>2022-03-09T12:35:59Z</time>
      </trkpt>
      <trkpt lat="46.79377" lon="5.77233">
        <ele>537.2</ele>
        <time>2022-03-09T12:36:00Z</time>
      </trkpt>
      <trkpt lat="46.79372" lon="5.7723">
        <ele>537.2</ele>
        <time>2022-03-09T12:36:01Z</time>
      </trkpt>
      <trkpt lat="46.79367" lon="5.77226">
        <ele>537.2</ele>
        <time>2022-03-09T12:36:02Z</time>
      </trkpt>
      <trkpt lat="46.79362" lon="5.77223">
        <ele>537.2</ele>
        <time>2022-03-09T12:36:03Z</time>
      </trkpt>
      <trkpt lat="46.79356" lon="5.7722">
        <ele>537.2</ele>
        <time>2022-03-09T12:36:04Z</time>
      </trkpt>
      <trkpt lat="46.7935" lon="5.77217">
        <ele>537</ele>
        <time>2022-03-09T12:36:05Z</time>
      </trkpt>
      <trkpt lat="46.79345" lon="5.77214">
        <ele>537</ele>
        <time>2022-03-09T12:36:06Z</time>
      </trkpt>
      <trkpt lat="46.79339" lon="5.77211">
        <ele>537</ele>
        <time>2022-03-09T12:36:07Z</time>
      </trkpt>
      <trkpt lat="46.79333" lon="5.77207">
        <ele>537</ele>
        <time>2022-03-09T12:36:08Z</time>
      </trkpt>
      <trkpt lat="46.79327" lon="5.77204">
        <ele>536.6</ele>
        <time>2022-03-09T12:36:09Z</time>
      </trkpt>
      <trkpt lat="46.79321" lon="5.77201">
        <ele>536.6</ele>
        <time>2022-03-09T12:36:10Z</time>
      </trkpt>
      <trkpt lat="46.79314" lon="5.77198">
        <ele>536.2</ele>
        <time>2022-03-09T12:36:11Z</time>
      </trkpt>
      <trkpt lat="46.79307" lon="5.77195">
        <ele>536.2</ele>
        <time>2022-03-09T12:36:12Z</time>
      </trkpt>
      <trkpt lat="46.79301" lon="5.77191">
        <ele>535.8</ele>
        <time>2022-03-09T12:36:13Z</time>
      </trkpt>
      <trkpt lat="46.79294" lon="5.77187">
        <ele>535.8</ele>
        <time>2022-03-09T12:36:14Z</time>
      </trkpt>
      <trkpt lat="46.79288" lon="5.77183">
        <ele>535.6</ele>
        <time>2022-03-09T12:36:15Z</time>
      </trkpt>
      <trkpt lat="46.79281" lon="5.7718">
        <ele>535.6</ele>
        <time>2022-03-09T12:36:16Z</time>
      </trkpt>
      <trkpt lat="46.79275" lon="5.77176">
        <ele>535.6</ele>
        <time>2022-03-09T12:36:17Z</time>
      </trkpt>
      <trkpt lat="46.79269" lon="5.77171">
        <ele>535.6</ele>
        <time>2022-03-09T12:36:18Z</time>
      </trkpt>
      <trkpt lat="46.79263" lon="5.77167">
        <ele>535.4</ele>
        <time>2022-03-09T12:36:19Z</time>
      </trkpt>
      <trkpt lat="46.79257" lon="5.77163">
        <ele>535.4</ele>
        <time>2022-03-09T12:36:20Z</time>
      </trkpt>
      <trkpt lat="46.79251" lon="5.77159">
        <ele>535.4</ele>
        <time>2022-03-09T12:36:21Z</time>
      </trkpt>
      <trkpt lat="46.79245" lon="5.77154">
        <ele>535.4</ele>
        <time>2022-03-09T12:36:22Z</time>
      </trkpt>
      <trkpt lat="46.7924" lon="5.77149">
        <ele>535.6</ele>
        <time>2022-03-09T12:36:23Z</time>
      </trkpt>
      <trkpt lat="46.79235" lon="5.77144">
        <ele>535.6</ele>
        <time>2022-03-09T12:36:24Z</time>
      </trkpt>
      <trkpt lat="46.7923" lon="5.77139">
        <ele>535.6</ele>
        <time>2022-03-09T12:36:25Z</time>
      </trkpt>
      <trkpt lat="46.79225" lon="5.77134">
        <ele>535.8</ele>
        <time>2022-03-09T12:36:26Z</time>
      </trkpt>
      <trkpt lat="46.79221" lon="5.77128">
        <ele>535.8</ele>
        <time>2022-03-09T12:36:27Z</time>
      </trkpt>
      <trkpt lat="46.79216" lon="5.77124">
        <ele>535.8</ele>
        <time>2022-03-09T12:36:28Z</time>
      </trkpt>
      <trkpt lat="46.79211" lon="5.77119">
        <ele>536</ele>
        <time>2022-03-09T12:36:29Z</time>
      </trkpt>
      <trkpt lat="46.79206" lon="5.77114">
        <ele>536</ele>
        <time>2022-03-09T12:36:30Z</time>
      </trkpt>
      <trkpt lat="46.79202" lon="5.77109">
        <ele>536.4</ele>
        <time>2022-03-09T12:36:31Z</time>
      </trkpt>
      <trkpt lat="46.79198" lon="5.77104">
        <ele>536.4</ele>
        <time>2022-03-09T12:36:32Z</time>
      </trkpt>
      <trkpt lat="46.79193" lon="5.77099">
        <ele>536.6</ele>
        <time>2022-03-09T12:36:33Z</time>
      </trkpt>
      <trkpt lat="46.79189" lon="5.77094">
        <ele>536.6</ele>
        <time>2022-03-09T12:36:34Z</time>
      </trkpt>
      <trkpt lat="46.79185" lon="5.77089">
        <ele>537</ele>
        <time>2022-03-09T12:36:35Z</time>
      </trkpt>
      <trkpt lat="46.79181" lon="5.77085">
        <ele>537</ele>
        <time>2022-03-09T12:36:36Z</time>
      </trkpt>
      <trkpt lat="46.79177" lon="5.7708">
        <ele>537.2</ele>
        <time>2022-03-09T12:36:37Z</time>
      </trkpt>
      <trkpt lat="46.79173" lon="5.77075">
        <ele>537.2</ele>
        <time>2022-03-09T12:36:38Z</time>
      </trkpt>
      <trkpt lat="46.7917" lon="5.7707">
        <ele>537.6</ele>
        <time>2022-03-09T12:36:39Z</time>
      </trkpt>
      <trkpt lat="46.79166" lon="5.77065">
        <ele>537.6</ele>
        <time>2022-03-09T12:36:40Z</time>
      </trkpt>
      <trkpt lat="46.79162" lon="5.7706">
        <ele>537.8</ele>
        <time>2022-03-09T12:36:41Z</time>
      </trkpt>
      <trkpt lat="46.79158" lon="5.77054">
        <ele>537.8</ele>
        <time>2022-03-09T12:36:42Z</time>
      </trkpt>
      <trkpt lat="46.79154" lon="5.77049">
        <ele>538.2</ele>
        <time>2022-03-09T12:36:43Z</time>
      </trkpt>
      <trkpt lat="46.79151" lon="5.77043">
        <ele>538.2</ele>
        <time>2022-03-09T12:36:44Z</time>
      </trkpt>
      <trkpt lat="46.79147" lon="5.77038">
        <ele>538.6</ele>
        <time>2022-03-09T12:36:45Z</time>
      </trkpt>
      <trkpt lat="46.79143" lon="5.77032">
        <ele>538.6</ele>
        <time>2022-03-09T12:36:46Z</time>
      </trkpt>
      <trkpt lat="46.79138" lon="5.77026">
        <ele>538.6</ele>
        <time>2022-03-09T12:36:47Z</time>
      </trkpt>
      <trkpt lat="46.79134" lon="5.7702">
        <ele>538.6</ele>
        <time>2022-03-09T12:36:48Z</time>
      </trkpt>
      <trkpt lat="46.7913" lon="5.77015">
        <ele>538.8</ele>
        <time>2022-03-09T12:36:49Z</time>
      </trkpt>
      <trkpt lat="46.79126" lon="5.77009">
        <ele>538.8</ele>
        <time>2022-03-09T12:36:50Z</time>
      </trkpt>
      <trkpt lat="46.79122" lon="5.77003">
        <ele>539</ele>
        <time>2022-03-09T12:36:51Z</time>
      </trkpt>
      <trkpt lat="46.79118" lon="5.76997">
        <ele>539</ele>
        <time>2022-03-09T12:36:52Z</time>
      </trkpt>
      <trkpt lat="46.79114" lon="5.76991">
        <ele>539.4</ele>
        <time>2022-03-09T12:36:53Z</time>
      </trkpt>
      <trkpt lat="46.79111" lon="5.76986">
        <ele>539.4</ele>
        <time>2022-03-09T12:36:54Z</time>
      </trkpt>
      <trkpt lat="46.79108" lon="5.76981">
        <ele>539.8</ele>
        <time>2022-03-09T12:36:55Z</time>
      </trkpt>
      <trkpt lat="46.79105" lon="5.76975">
        <ele>540</ele>
        <time>2022-03-09T12:36:56Z</time>
      </trkpt>
      <trkpt lat="46.79102" lon="5.7697">
        <ele>540</ele>
        <time>2022-03-09T12:36:57Z</time>
      </trkpt>
      <trkpt lat="46.79099" lon="5.76965">
        <ele>540.4</ele>
        <time>2022-03-09T12:36:58Z</time>
      </trkpt>
      <trkpt lat="46.79096" lon="5.76959">
        <ele>540.4</ele>
        <time>2022-03-09T12:36:59Z</time>
      </trkpt>
      <trkpt lat="46.79094" lon="5.76954">
        <ele>540.6</ele>
        <time>2022-03-09T12:37:00Z</time>
      </trkpt>
      <trkpt lat="46.7909" lon="5.76949">
        <ele>540.6</ele>
        <time>2022-03-09T12:37:01Z</time>
      </trkpt>
      <trkpt lat="46.79087" lon="5.76944">
        <ele>541</ele>
        <time>2022-03-09T12:37:02Z</time>
      </trkpt>
      <trkpt lat="46.79085" lon="5.76938">
        <ele>541</ele>
        <time>2022-03-09T12:37:03Z</time>
      </trkpt>
      <trkpt lat="46.79082" lon="5.76932">
        <ele>541.2</ele>
        <time>2022-03-09T12:37:04Z</time>
      </trkpt>
      <trkpt lat="46.7908" lon="5.76926">
        <ele>541.2</ele>
        <time>2022-03-09T12:37:05Z</time>
      </trkpt>
      <trkpt lat="46.79077" lon="5.76921">
        <ele>541.6</ele>
        <time>2022-03-09T12:37:06Z</time>
      </trkpt>
      <trkpt lat="46.79075" lon="5.76915">
        <ele>541.6</ele>
        <time>2022-03-09T12:37:07Z</time>
      </trkpt>
      <trkpt lat="46.79072" lon="5.7691">
        <ele>541.8</ele>
        <time>2022-03-09T12:37:08Z</time>
      </trkpt>
      <trkpt lat="46.7907" lon="5.76904">
        <ele>541.8</ele>
        <time>2022-03-09T12:37:09Z</time>
      </trkpt>
      <trkpt lat="46.79068" lon="5.76899">
        <ele>542.2</ele>
        <time>2022-03-09T12:37:10Z</time>
      </trkpt>
      <trkpt lat="46.79065" lon="5.76894">
        <ele>542.2</ele>
        <time>2022-03-09T12:37:11Z</time>
      </trkpt>
      <trkpt lat="46.79062" lon="5.76889">
        <ele>542.2</ele>
        <time>2022-03-09T12:37:12Z</time>
      </trkpt>
      <trkpt lat="46.79059" lon="5.76883">
        <ele>542.4</ele>
        <time>2022-03-09T12:37:13Z</time>
      </trkpt>
      <trkpt lat="46.79055" lon="5.76878">
        <ele>542.4</ele>
        <time>2022-03-09T12:37:14Z</time>
      </trkpt>
      <trkpt lat="46.79052" lon="5.76873">
        <ele>542.4</ele>
        <time>2022-03-09T12:37:15Z</time>
      </trkpt>
      <trkpt lat="46.79048" lon="5.76867">
        <ele>542.4</ele>
        <time>2022-03-09T12:37:16Z</time>
      </trkpt>
      <trkpt lat="46.79045" lon="5.76862">
        <ele>542.4</ele>
        <time>2022-03-09T12:37:17Z</time>
      </trkpt>
      <trkpt lat="46.79041" lon="5.76857">
        <ele>542.8</ele>
        <time>2022-03-09T12:37:18Z</time>
      </trkpt>
      <trkpt lat="46.79037" lon="5.76853">
        <ele>542.8</ele>
        <time>2022-03-09T12:37:19Z</time>
      </trkpt>
      <trkpt lat="46.79033" lon="5.76847">
        <ele>542.8</ele>
        <time>2022-03-09T12:37:20Z</time>
      </trkpt>
      <trkpt lat="46.79029" lon="5.76842">
        <ele>542.8</ele>
        <time>2022-03-09T12:37:21Z</time>
      </trkpt>
      <trkpt lat="46.79025" lon="5.76837">
        <ele>542.8</ele>
        <time>2022-03-09T12:37:22Z</time>
      </trkpt>
      <trkpt lat="46.79021" lon="5.76832">
        <ele>542.8</ele>
        <time>2022-03-09T12:37:23Z</time>
      </trkpt>
      <trkpt lat="46.79016" lon="5.76827">
        <ele>542.8</ele>
        <time>2022-03-09T12:37:24Z</time>
      </trkpt>
      <trkpt lat="46.79011" lon="5.76822">
        <ele>542.8</ele>
        <time>2022-03-09T12:37:25Z</time>
      </trkpt>
      <trkpt lat="46.79007" lon="5.76817">
        <ele>542.8</ele>
        <time>2022-03-09T12:37:26Z</time>
      </trkpt>
      <trkpt lat="46.79002" lon="5.76812">
        <ele>542.8</ele>
        <time>2022-03-09T12:37:27Z</time>
      </trkpt>
      <trkpt lat="46.78998" lon="5.76807">
        <ele>543</ele>
        <time>2022-03-09T12:37:28Z</time>
      </trkpt>
      <trkpt lat="46.78993" lon="5.76803">
        <ele>543</ele>
        <time>2022-03-09T12:37:29Z</time>
      </trkpt>
      <trkpt lat="46.78988" lon="5.76798">
        <ele>543</ele>
        <time>2022-03-09T12:37:30Z</time>
      </trkpt>
      <trkpt lat="46.78988" lon="5.76798">
        <ele>543</ele>
        <time>2022-03-09T12:37:31Z</time>
      </trkpt>
      <trkpt lat="46.78983" lon="5.76793">
        <ele>543</ele>
        <time>2022-03-09T12:37:32Z</time>
      </trkpt>
      <trkpt lat="46.78979" lon="5.76788">
        <ele>543</ele>
        <time>2022-03-09T12:37:33Z</time>
      </trkpt>
      <trkpt lat="46.78974" lon="5.76783">
        <ele>542.8</ele>
        <time>2022-03-09T12:37:34Z</time>
      </trkpt>
      <trkpt lat="46.78969" lon="5.76777">
        <ele>542.8</ele>
        <time>2022-03-09T12:37:35Z</time>
      </trkpt>
      <trkpt lat="46.78965" lon="5.76772">
        <ele>542.4</ele>
        <time>2022-03-09T12:37:36Z</time>
      </trkpt>
      <trkpt lat="46.78961" lon="5.76766">
        <ele>542.4</ele>
        <time>2022-03-09T12:37:37Z</time>
      </trkpt>
      <trkpt lat="46.78956" lon="5.76761">
        <ele>542.2</ele>
        <time>2022-03-09T12:37:38Z</time>
      </trkpt>
      <trkpt lat="46.78951" lon="5.76755">
        <ele>542.2</ele>
        <time>2022-03-09T12:37:39Z</time>
      </trkpt>
      <trkpt lat="46.78946" lon="5.7675">
        <ele>541.8</ele>
        <time>2022-03-09T12:37:40Z</time>
      </trkpt>
      <trkpt lat="46.7894" lon="5.76744">
        <ele>541.8</ele>
        <time>2022-03-09T12:37:41Z</time>
      </trkpt>
      <trkpt lat="46.78935" lon="5.76739">
        <ele>541.6</ele>
        <time>2022-03-09T12:37:42Z</time>
      </trkpt>
      <trkpt lat="46.7893" lon="5.76734">
        <ele>541.6</ele>
        <time>2022-03-09T12:37:43Z</time>
      </trkpt>
      <trkpt lat="46.78925" lon="5.76729">
        <ele>541.6</ele>
        <time>2022-03-09T12:37:44Z</time>
      </trkpt>
      <trkpt lat="46.7892" lon="5.76724">
        <ele>541.6</ele>
        <time>2022-03-09T12:37:45Z</time>
      </trkpt>
      <trkpt lat="46.78915" lon="5.7672">
        <ele>541.6</ele>
        <time>2022-03-09T12:37:46Z</time>
      </trkpt>
      <trkpt lat="46.7891" lon="5.76715">
        <ele>541.6</ele>
        <time>2022-03-09T12:37:47Z</time>
      </trkpt>
      <trkpt lat="46.78905" lon="5.7671">
        <ele>541.8</ele>
        <time>2022-03-09T12:37:48Z</time>
      </trkpt>
      <trkpt lat="46.78901" lon="5.76705">
        <ele>541.8</ele>
        <time>2022-03-09T12:37:49Z</time>
      </trkpt>
      <trkpt lat="46.78896" lon="5.76701">
        <ele>542.2</ele>
        <time>2022-03-09T12:37:50Z</time>
      </trkpt>
      <trkpt lat="46.78892" lon="5.76696">
        <ele>542.2</ele>
        <time>2022-03-09T12:37:51Z</time>
      </trkpt>
      <trkpt lat="46.78887" lon="5.76692">
        <ele>542.6</ele>
        <time>2022-03-09T12:37:52Z</time>
      </trkpt>
      <trkpt lat="46.78883" lon="5.76689">
        <ele>542.8</ele>
        <time>2022-03-09T12:37:53Z</time>
      </trkpt>
      <trkpt lat="46.78879" lon="5.76685">
        <ele>543.2</ele>
        <time>2022-03-09T12:37:54Z</time>
      </trkpt>
      <trkpt lat="46.78875" lon="5.76681">
        <ele>543.4</ele>
        <time>2022-03-09T12:37:55Z</time>
      </trkpt>
      <trkpt lat="46.78871" lon="5.76677">
        <ele>543.8</ele>
        <time>2022-03-09T12:37:56Z</time>
      </trkpt>
      <trkpt lat="46.78867" lon="5.76672">
        <ele>544.2</ele>
        <time>2022-03-09T12:37:57Z</time>
      </trkpt>
      <trkpt lat="46.78864" lon="5.76667">
        <ele>544.4</ele>
        <time>2022-03-09T12:37:58Z</time>
      </trkpt>
      <trkpt lat="46.7886" lon="5.76662">
        <ele>544.6</ele>
        <time>2022-03-09T12:37:59Z</time>
      </trkpt>
      <trkpt lat="46.78857" lon="5.76656">
        <ele>544.8</ele>
        <time>2022-03-09T12:38:00Z</time>
      </trkpt>
      <trkpt lat="46.78853" lon="5.76651">
        <ele>545.2</ele>
        <time>2022-03-09T12:38:01Z</time>
      </trkpt>
      <trkpt lat="46.7885" lon="5.76645">
        <ele>545.2</ele>
        <time>2022-03-09T12:38:02Z</time>
      </trkpt>
      <trkpt lat="46.78847" lon="5.76639">
        <ele>545.4</ele>
        <time>2022-03-09T12:38:03Z</time>
      </trkpt>
      <trkpt lat="46.78844" lon="5.76633">
        <ele>545.4</ele>
        <time>2022-03-09T12:38:04Z</time>
      </trkpt>
      <trkpt lat="46.78841" lon="5.76627">
        <ele>545.4</ele>
        <time>2022-03-09T12:38:05Z</time>
      </trkpt>
      <trkpt lat="46.78837" lon="5.7662">
        <ele>545.4</ele>
        <time>2022-03-09T12:38:06Z</time>
      </trkpt>
      <trkpt lat="46.78834" lon="5.76613">
        <ele>545.4</ele>
        <time>2022-03-09T12:38:07Z</time>
      </trkpt>
      <trkpt lat="46.78831" lon="5.76606">
        <ele>545.4</ele>
        <time>2022-03-09T12:38:08Z</time>
      </trkpt>
      <trkpt lat="46.78828" lon="5.76599">
        <ele>545.4</ele>
        <time>2022-03-09T12:38:09Z</time>
      </trkpt>
      <trkpt lat="46.78824" lon="5.76592">
        <ele>545.4</ele>
        <time>2022-03-09T12:38:10Z</time>
      </trkpt>
      <trkpt lat="46.78821" lon="5.76586">
        <ele>545.4</ele>
        <time>2022-03-09T12:38:11Z</time>
      </trkpt>
      <trkpt lat="46.78817" lon="5.76579">
        <ele>545.6</ele>
        <time>2022-03-09T12:38:12Z</time>
      </trkpt>
      <trkpt lat="46.78813" lon="5.76574">
        <ele>545.6</ele>
        <time>2022-03-09T12:38:13Z</time>
      </trkpt>
      <trkpt lat="46.78809" lon="5.76568">
        <ele>545.8</ele>
        <time>2022-03-09T12:38:14Z</time>
      </trkpt>
      <trkpt lat="46.78806" lon="5.76562">
        <ele>545.8</ele>
        <time>2022-03-09T12:38:15Z</time>
      </trkpt>
      <trkpt lat="46.78802" lon="5.76557">
        <ele>546.2</ele>
        <time>2022-03-09T12:38:16Z</time>
      </trkpt>
      <trkpt lat="46.78799" lon="5.76552">
        <ele>546.2</ele>
        <time>2022-03-09T12:38:17Z</time>
      </trkpt>
      <trkpt lat="46.78795" lon="5.76547">
        <ele>546.6</ele>
        <time>2022-03-09T12:38:18Z</time>
      </trkpt>
      <trkpt lat="46.78793" lon="5.76541">
        <ele>546.8</ele>
        <time>2022-03-09T12:38:19Z</time>
      </trkpt>
      <trkpt lat="46.7879" lon="5.76536">
        <ele>546.8</ele>
        <time>2022-03-09T12:38:20Z</time>
      </trkpt>
      <trkpt lat="46.78787" lon="5.76531">
        <ele>547</ele>
        <time>2022-03-09T12:38:21Z</time>
      </trkpt>
      <trkpt lat="46.78784" lon="5.76526">
        <ele>547</ele>
        <time>2022-03-09T12:38:22Z</time>
      </trkpt>
      <trkpt lat="46.78782" lon="5.7652">
        <ele>547.4</ele>
        <time>2022-03-09T12:38:23Z</time>
      </trkpt>
      <trkpt lat="46.78779" lon="5.76515">
        <ele>547.4</ele>
        <time>2022-03-09T12:38:24Z</time>
      </trkpt>
      <trkpt lat="46.78776" lon="5.7651">
        <ele>547.4</ele>
        <time>2022-03-09T12:38:25Z</time>
      </trkpt>
      <trkpt lat="46.78772" lon="5.76505">
        <ele>547.4</ele>
        <time>2022-03-09T12:38:26Z</time>
      </trkpt>
      <trkpt lat="46.78769" lon="5.765">
        <ele>547.6</ele>
        <time>2022-03-09T12:38:27Z</time>
      </trkpt>
      <trkpt lat="46.78766" lon="5.76494">
        <ele>547.6</ele>
        <time>2022-03-09T12:38:28Z</time>
      </trkpt>
      <trkpt lat="46.78763" lon="5.76488">
        <ele>547.6</ele>
        <time>2022-03-09T12:38:29Z</time>
      </trkpt>
      <trkpt lat="46.7876" lon="5.76482">
        <ele>547.6</ele>
        <time>2022-03-09T12:38:30Z</time>
      </trkpt>
      <trkpt lat="46.78757" lon="5.76476">
        <ele>547.6</ele>
        <time>2022-03-09T12:38:31Z</time>
      </trkpt>
      <trkpt lat="46.78754" lon="5.7647">
        <ele>547.6</ele>
        <time>2022-03-09T12:38:32Z</time>
      </trkpt>
      <trkpt lat="46.78751" lon="5.76463">
        <ele>547.6</ele>
        <time>2022-03-09T12:38:33Z</time>
      </trkpt>
      <trkpt lat="46.78748" lon="5.76457">
        <ele>547.8</ele>
        <time>2022-03-09T12:38:34Z</time>
      </trkpt>
      <trkpt lat="46.78745" lon="5.76451">
        <ele>547.8</ele>
        <time>2022-03-09T12:38:35Z</time>
      </trkpt>
      <trkpt lat="46.78741" lon="5.76445">
        <ele>547.8</ele>
        <time>2022-03-09T12:38:36Z</time>
      </trkpt>
      <trkpt lat="46.78737" lon="5.76439">
        <ele>547.8</ele>
        <time>2022-03-09T12:38:37Z</time>
      </trkpt>
      <trkpt lat="46.78733" lon="5.76434">
        <ele>547.8</ele>
        <time>2022-03-09T12:38:38Z</time>
      </trkpt>
      <trkpt lat="46.78729" lon="5.7643">
        <ele>547.8</ele>
        <time>2022-03-09T12:38:39Z</time>
      </trkpt>
      <trkpt lat="46.78724" lon="5.76425">
        <ele>547.8</ele>
        <time>2022-03-09T12:38:40Z</time>
      </trkpt>
      <trkpt lat="46.78719" lon="5.7642">
        <ele>547.8</ele>
        <time>2022-03-09T12:38:41Z</time>
      </trkpt>
      <trkpt lat="46.78715" lon="5.76416">
        <ele>547.8</ele>
        <time>2022-03-09T12:38:42Z</time>
      </trkpt>
      <trkpt lat="46.7871" lon="5.76412">
        <ele>547.8</ele>
        <time>2022-03-09T12:38:43Z</time>
      </trkpt>
      <trkpt lat="46.78705" lon="5.76408">
        <ele>547.8</ele>
        <time>2022-03-09T12:38:44Z</time>
      </trkpt>
      <trkpt lat="46.78701" lon="5.76404">
        <ele>547.8</ele>
        <time>2022-03-09T12:38:45Z</time>
      </trkpt>
      <trkpt lat="46.78696" lon="5.76399">
        <ele>547.8</ele>
        <time>2022-03-09T12:38:46Z</time>
      </trkpt>
      <trkpt lat="46.78691" lon="5.76395">
        <ele>547.8</ele>
        <time>2022-03-09T12:38:47Z</time>
      </trkpt>
      <trkpt lat="46.78686" lon="5.7639">
        <ele>547.8</ele>
        <time>2022-03-09T12:38:48Z</time>
      </trkpt>
      <trkpt lat="46.78681" lon="5.76385">
        <ele>547.6</ele>
        <time>2022-03-09T12:38:49Z</time>
      </trkpt>
      <trkpt lat="46.78675" lon="5.7638">
        <ele>547.6</ele>
        <time>2022-03-09T12:38:50Z</time>
      </trkpt>
      <trkpt lat="46.7867" lon="5.76375">
        <ele>547.4</ele>
        <time>2022-03-09T12:38:51Z</time>
      </trkpt>
      <trkpt lat="46.78665" lon="5.7637">
        <ele>547.4</ele>
        <time>2022-03-09T12:38:52Z</time>
      </trkpt>
      <trkpt lat="46.78659" lon="5.76365">
        <ele>547</ele>
        <time>2022-03-09T12:38:53Z</time>
      </trkpt>
      <trkpt lat="46.78653" lon="5.7636">
        <ele>547</ele>
        <time>2022-03-09T12:38:54Z</time>
      </trkpt>
      <trkpt lat="46.78648" lon="5.76355">
        <ele>546.8</ele>
        <time>2022-03-09T12:38:55Z</time>
      </trkpt>
      <trkpt lat="46.78642" lon="5.76351">
        <ele>546.8</ele>
        <time>2022-03-09T12:38:56Z</time>
      </trkpt>
      <trkpt lat="46.78637" lon="5.76347">
        <ele>546.8</ele>
        <time>2022-03-09T12:38:57Z</time>
      </trkpt>
      <trkpt lat="46.78631" lon="5.76344">
        <ele>546.8</ele>
        <time>2022-03-09T12:38:58Z</time>
      </trkpt>
      <trkpt lat="46.78626" lon="5.76341">
        <ele>546.8</ele>
        <time>2022-03-09T12:38:59Z</time>
      </trkpt>
      <trkpt lat="46.78621" lon="5.76338">
        <ele>546.8</ele>
        <time>2022-03-09T12:39:00Z</time>
      </trkpt>
      <trkpt lat="46.78616" lon="5.76335">
        <ele>546.8</ele>
        <time>2022-03-09T12:39:01Z</time>
      </trkpt>
      <trkpt lat="46.78611" lon="5.76332">
        <ele>546.8</ele>
        <time>2022-03-09T12:39:02Z</time>
      </trkpt>
      <trkpt lat="46.78606" lon="5.7633">
        <ele>546.8</ele>
        <time>2022-03-09T12:39:03Z</time>
      </trkpt>
      <trkpt lat="46.78601" lon="5.76329">
        <ele>546.8</ele>
        <time>2022-03-09T12:39:04Z</time>
      </trkpt>
      <trkpt lat="46.78596" lon="5.76328">
        <ele>546.8</ele>
        <time>2022-03-09T12:39:05Z</time>
      </trkpt>
      <trkpt lat="46.7859" lon="5.76327">
        <ele>546.8</ele>
        <time>2022-03-09T12:39:06Z</time>
      </trkpt>
      <trkpt lat="46.78585" lon="5.76326">
        <ele>546.8</ele>
        <time>2022-03-09T12:39:07Z</time>
      </trkpt>
      <trkpt lat="46.7858" lon="5.76326">
        <ele>546.8</ele>
        <time>2022-03-09T12:39:08Z</time>
      </trkpt>
      <trkpt lat="46.78575" lon="5.76326">
        <ele>547</ele>
        <time>2022-03-09T12:39:09Z</time>
      </trkpt>
      <trkpt lat="46.78569" lon="5.76327">
        <ele>547</ele>
        <time>2022-03-09T12:39:10Z</time>
      </trkpt>
      <trkpt lat="46.78564" lon="5.76329">
        <ele>547</ele>
        <time>2022-03-09T12:39:11Z</time>
      </trkpt>
      <trkpt lat="46.78559" lon="5.76329">
        <ele>547</ele>
        <time>2022-03-09T12:39:12Z</time>
      </trkpt>
      <trkpt lat="46.78554" lon="5.76329">
        <ele>547</ele>
        <time>2022-03-09T12:39:13Z</time>
      </trkpt>
      <trkpt lat="46.78548" lon="5.7633">
        <ele>547</ele>
        <time>2022-03-09T12:39:14Z</time>
      </trkpt>
      <trkpt lat="46.78537" lon="5.76331">
        <ele>547</ele>
        <time>2022-03-09T12:39:15Z</time>
      </trkpt>
      <trkpt lat="46.78532" lon="5.76331">
        <ele>547.2</ele>
        <time>2022-03-09T12:39:16Z</time>
      </trkpt>
      <trkpt lat="46.78527" lon="5.76331">
        <ele>547.2</ele>
        <time>2022-03-09T12:39:17Z</time>
      </trkpt>
      <trkpt lat="46.78522" lon="5.76331">
        <ele>547.4</ele>
        <time>2022-03-09T12:39:18Z</time>
      </trkpt>
      <trkpt lat="46.78517" lon="5.7633">
        <ele>547.4</ele>
        <time>2022-03-09T12:39:19Z</time>
      </trkpt>
      <trkpt lat="46.78512" lon="5.76328">
        <ele>547.8</ele>
        <time>2022-03-09T12:39:20Z</time>
      </trkpt>
      <trkpt lat="46.78508" lon="5.76327">
        <ele>547.8</ele>
        <time>2022-03-09T12:39:21Z</time>
      </trkpt>
      <trkpt lat="46.78503" lon="5.76326">
        <ele>548</ele>
        <time>2022-03-09T12:39:22Z</time>
      </trkpt>
      <trkpt lat="46.78499" lon="5.76325">
        <ele>548</ele>
        <time>2022-03-09T12:39:23Z</time>
      </trkpt>
      <trkpt lat="46.78495" lon="5.76323">
        <ele>548.2</ele>
        <time>2022-03-09T12:39:24Z</time>
      </trkpt>
      <trkpt lat="46.78491" lon="5.76322">
        <ele>548.2</ele>
        <time>2022-03-09T12:39:25Z</time>
      </trkpt>
      <trkpt lat="46.78485" lon="5.7632">
        <ele>548.6</ele>
        <time>2022-03-09T12:39:26Z</time>
      </trkpt>
      <trkpt lat="46.7848" lon="5.76318">
        <ele>548.6</ele>
        <time>2022-03-09T12:39:27Z</time>
      </trkpt>
      <trkpt lat="46.78475" lon="5.76317">
        <ele>549</ele>
        <time>2022-03-09T12:39:28Z</time>
      </trkpt>
      <trkpt lat="46.7847" lon="5.76315">
        <ele>549</ele>
        <time>2022-03-09T12:39:29Z</time>
      </trkpt>
      <trkpt lat="46.78465" lon="5.76313">
        <ele>549.4</ele>
        <time>2022-03-09T12:39:30Z</time>
      </trkpt>
      <trkpt lat="46.78461" lon="5.7631">
        <ele>549.6</ele>
        <time>2022-03-09T12:39:31Z</time>
      </trkpt>
      <trkpt lat="46.78456" lon="5.76308">
        <ele>550</ele>
        <time>2022-03-09T12:39:32Z</time>
      </trkpt>
      <trkpt lat="46.78452" lon="5.76305">
        <ele>550.2</ele>
        <time>2022-03-09T12:39:33Z</time>
      </trkpt>
      <trkpt lat="46.78448" lon="5.76302">
        <ele>550.6</ele>
        <time>2022-03-09T12:39:34Z</time>
      </trkpt>
      <trkpt lat="46.78444" lon="5.76299">
        <ele>550.8</ele>
        <time>2022-03-09T12:39:35Z</time>
      </trkpt>
      <trkpt lat="46.7844" lon="5.76295">
        <ele>550.8</ele>
        <time>2022-03-09T12:39:36Z</time>
      </trkpt>
      <trkpt lat="46.78437" lon="5.76292">
        <ele>551.2</ele>
        <time>2022-03-09T12:39:37Z</time>
      </trkpt>
      <trkpt lat="46.78433" lon="5.76288">
        <ele>551.2</ele>
        <time>2022-03-09T12:39:38Z</time>
      </trkpt>
      <trkpt lat="46.7843" lon="5.76284">
        <ele>551.6</ele>
        <time>2022-03-09T12:39:39Z</time>
      </trkpt>
      <trkpt lat="46.78427" lon="5.76279">
        <ele>551.8</ele>
        <time>2022-03-09T12:39:40Z</time>
      </trkpt>
      <trkpt lat="46.78424" lon="5.76275">
        <ele>552</ele>
        <time>2022-03-09T12:39:41Z</time>
      </trkpt>
      <trkpt lat="46.78422" lon="5.7627">
        <ele>552</ele>
        <time>2022-03-09T12:39:42Z</time>
      </trkpt>
      <trkpt lat="46.7842" lon="5.76265">
        <ele>552.4</ele>
        <time>2022-03-09T12:39:43Z</time>
      </trkpt>
      <trkpt lat="46.78419" lon="5.76261">
        <ele>552.6</ele>
        <time>2022-03-09T12:39:44Z</time>
      </trkpt>
      <trkpt lat="46.78418" lon="5.76257">
        <ele>552.6</ele>
        <time>2022-03-09T12:39:45Z</time>
      </trkpt>
      <trkpt lat="46.78417" lon="5.76252">
        <ele>553</ele>
        <time>2022-03-09T12:39:46Z</time>
      </trkpt>
      <trkpt lat="46.78417" lon="5.76248">
        <ele>553.2</ele>
        <time>2022-03-09T12:39:47Z</time>
      </trkpt>
      <trkpt lat="46.78416" lon="5.76244">
        <ele>553.4</ele>
        <time>2022-03-09T12:39:48Z</time>
      </trkpt>
      <trkpt lat="46.78416" lon="5.7624">
        <ele>553.6</ele>
        <time>2022-03-09T12:39:49Z</time>
      </trkpt>
      <trkpt lat="46.78415" lon="5.76236">
        <ele>553.6</ele>
        <time>2022-03-09T12:39:50Z</time>
      </trkpt>
      <trkpt lat="46.78414" lon="5.76232">
        <ele>554.2</ele>
        <time>2022-03-09T12:39:51Z</time>
      </trkpt>
      <trkpt lat="46.78414" lon="5.76228">
        <ele>554.4</ele>
        <time>2022-03-09T12:39:52Z</time>
      </trkpt>
      <trkpt lat="46.78413" lon="5.76224">
        <ele>554.4</ele>
        <time>2022-03-09T12:39:53Z</time>
      </trkpt>
      <trkpt lat="46.78412" lon="5.76221">
        <ele>554.8</ele>
        <time>2022-03-09T12:39:54Z</time>
      </trkpt>
      <trkpt lat="46.78412" lon="5.76217">
        <ele>555</ele>
        <time>2022-03-09T12:39:55Z</time>
      </trkpt>
      <trkpt lat="46.78412" lon="5.76214">
        <ele>555.4</ele>
        <time>2022-03-09T12:39:56Z</time>
      </trkpt>
      <trkpt lat="46.78412" lon="5.7621">
        <ele>555.6</ele>
        <time>2022-03-09T12:39:57Z</time>
      </trkpt>
      <trkpt lat="46.78412" lon="5.76206">
        <ele>556</ele>
        <time>2022-03-09T12:39:58Z</time>
      </trkpt>
      <trkpt lat="46.78411" lon="5.76203">
        <ele>556.2</ele>
        <time>2022-03-09T12:39:59Z</time>
      </trkpt>
      <trkpt lat="46.78411" lon="5.76199">
        <ele>556.4</ele>
        <time>2022-03-09T12:40:00Z</time>
      </trkpt>
      <trkpt lat="46.7841" lon="5.76195">
        <ele>556.4</ele>
        <time>2022-03-09T12:40:01Z</time>
      </trkpt>
      <trkpt lat="46.78409" lon="5.76191">
        <ele>556.8</ele>
        <time>2022-03-09T12:40:02Z</time>
      </trkpt>
      <trkpt lat="46.78409" lon="5.76187">
        <ele>556.8</ele>
        <time>2022-03-09T12:40:03Z</time>
      </trkpt>
      <trkpt lat="46.78409" lon="5.76183">
        <ele>557.2</ele>
        <time>2022-03-09T12:40:04Z</time>
      </trkpt>
      <trkpt lat="46.78408" lon="5.7618">
        <ele>557.2</ele>
        <time>2022-03-09T12:40:05Z</time>
      </trkpt>
      <trkpt lat="46.78408" lon="5.76176">
        <ele>557.4</ele>
        <time>2022-03-09T12:40:06Z</time>
      </trkpt>
      <trkpt lat="46.78408" lon="5.76172">
        <ele>557.4</ele>
        <time>2022-03-09T12:40:07Z</time>
      </trkpt>
      <trkpt lat="46.78408" lon="5.76169">
        <ele>557.8</ele>
        <time>2022-03-09T12:40:08Z</time>
      </trkpt>
      <trkpt lat="46.78407" lon="5.76166">
        <ele>557.8</ele>
        <time>2022-03-09T12:40:09Z</time>
      </trkpt>
      <trkpt lat="46.78407" lon="5.76162">
        <ele>558.2</ele>
        <time>2022-03-09T12:40:10Z</time>
      </trkpt>
      <trkpt lat="46.78406" lon="5.76159">
        <ele>558.4</ele>
        <time>2022-03-09T12:40:11Z</time>
      </trkpt>
      <trkpt lat="46.78406" lon="5.76156">
        <ele>558.6</ele>
        <time>2022-03-09T12:40:12Z</time>
      </trkpt>
      <trkpt lat="46.78405" lon="5.76152">
        <ele>558.6</ele>
        <time>2022-03-09T12:40:13Z</time>
      </trkpt>
      <trkpt lat="46.78405" lon="5.76149">
        <ele>559</ele>
        <time>2022-03-09T12:40:14Z</time>
      </trkpt>
      <trkpt lat="46.78404" lon="5.76146">
        <ele>559</ele>
        <time>2022-03-09T12:40:15Z</time>
      </trkpt>
      <trkpt lat="46.78404" lon="5.76143">
        <ele>559.4</ele>
        <time>2022-03-09T12:40:16Z</time>
      </trkpt>
      <trkpt lat="46.78404" lon="5.7614">
        <ele>559.4</ele>
        <time>2022-03-09T12:40:17Z</time>
      </trkpt>
      <trkpt lat="46.78404" lon="5.76136">
        <ele>559.8</ele>
        <time>2022-03-09T12:40:18Z</time>
      </trkpt>
      <trkpt lat="46.78404" lon="5.76133">
        <ele>559.8</ele>
        <time>2022-03-09T12:40:19Z</time>
      </trkpt>
      <trkpt lat="46.78403" lon="5.7613">
        <ele>560.2</ele>
        <time>2022-03-09T12:40:20Z</time>
      </trkpt>
      <trkpt lat="46.78403" lon="5.76127">
        <ele>560.2</ele>
        <time>2022-03-09T12:40:21Z</time>
      </trkpt>
      <trkpt lat="46.78403" lon="5.76123">
        <ele>560.6</ele>
        <time>2022-03-09T12:40:22Z</time>
      </trkpt>
      <trkpt lat="46.78403" lon="5.7612">
        <ele>561</ele>
        <time>2022-03-09T12:40:23Z</time>
      </trkpt>
      <trkpt lat="46.78402" lon="5.76117">
        <ele>561.2</ele>
        <time>2022-03-09T12:40:24Z</time>
      </trkpt>
      <trkpt lat="46.78402" lon="5.76114">
        <ele>561.4</ele>
        <time>2022-03-09T12:40:25Z</time>
      </trkpt>
      <trkpt lat="46.78402" lon="5.76111">
        <ele>561.6</ele>
        <time>2022-03-09T12:40:26Z</time>
      </trkpt>
      <trkpt lat="46.78402" lon="5.76108">
        <ele>562</ele>
        <time>2022-03-09T12:40:27Z</time>
      </trkpt>
      <trkpt lat="46.78402" lon="5.76105">
        <ele>562.2</ele>
        <time>2022-03-09T12:40:28Z</time>
      </trkpt>
      <trkpt lat="46.78402" lon="5.76102">
        <ele>562.4</ele>
        <time>2022-03-09T12:40:29Z</time>
      </trkpt>
      <trkpt lat="46.78402" lon="5.76098">
        <ele>562.8</ele>
        <time>2022-03-09T12:40:30Z</time>
      </trkpt>
      <trkpt lat="46.78403" lon="5.76095">
        <ele>563</ele>
        <time>2022-03-09T12:40:31Z</time>
      </trkpt>
      <trkpt lat="46.78404" lon="5.76093">
        <ele>563.4</ele>
        <time>2022-03-09T12:40:32Z</time>
      </trkpt>
      <trkpt lat="46.78405" lon="5.76091">
        <ele>563.4</ele>
        <time>2022-03-09T12:40:33Z</time>
      </trkpt>
      <trkpt lat="46.78407" lon="5.76089">
        <ele>563.6</ele>
        <time>2022-03-09T12:40:34Z</time>
      </trkpt>
      <trkpt lat="46.7841" lon="5.76088">
        <ele>563.6</ele>
        <time>2022-03-09T12:40:35Z</time>
      </trkpt>
      <trkpt lat="46.78412" lon="5.76087">
        <ele>564</ele>
        <time>2022-03-09T12:40:36Z</time>
      </trkpt>
      <trkpt lat="46.78414" lon="5.76086">
        <ele>564</ele>
        <time>2022-03-09T12:40:37Z</time>
      </trkpt>
      <trkpt lat="46.78417" lon="5.76083">
        <ele>564</ele>
        <time>2022-03-09T12:40:38Z</time>
      </trkpt>
      <trkpt lat="46.78419" lon="5.76081">
        <ele>564</ele>
        <time>2022-03-09T12:40:39Z</time>
      </trkpt>
      <trkpt lat="46.78423" lon="5.76079">
        <ele>564.2</ele>
        <time>2022-03-09T12:40:40Z</time>
      </trkpt>
      <trkpt lat="46.78426" lon="5.76077">
        <ele>564.2</ele>
        <time>2022-03-09T12:40:41Z</time>
      </trkpt>
      <trkpt lat="46.7843" lon="5.76074">
        <ele>564.2</ele>
        <time>2022-03-09T12:40:42Z</time>
      </trkpt>
      <trkpt lat="46.78434" lon="5.76071">
        <ele>563.8</ele>
        <time>2022-03-09T12:40:43Z</time>
      </trkpt>
      <trkpt lat="46.78438" lon="5.76067">
        <ele>563.6</ele>
        <time>2022-03-09T12:40:44Z</time>
      </trkpt>
      <trkpt lat="46.78443" lon="5.76063">
        <ele>563.6</ele>
        <time>2022-03-09T12:40:45Z</time>
      </trkpt>
      <trkpt lat="46.78447" lon="5.76057">
        <ele>563.2</ele>
        <time>2022-03-09T12:40:46Z</time>
      </trkpt>
      <trkpt lat="46.78451" lon="5.76051">
        <ele>563</ele>
        <time>2022-03-09T12:40:47Z</time>
      </trkpt>
      <trkpt lat="46.78455" lon="5.76044">
        <ele>562.8</ele>
        <time>2022-03-09T12:40:48Z</time>
      </trkpt>
      <trkpt lat="46.78459" lon="5.76036">
        <ele>562.6</ele>
        <time>2022-03-09T12:40:49Z</time>
      </trkpt>
      <trkpt lat="46.78463" lon="5.76028">
        <ele>562.4</ele>
        <time>2022-03-09T12:40:50Z</time>
      </trkpt>
      <trkpt lat="46.78466" lon="5.7602">
        <ele>562</ele>
        <time>2022-03-09T12:40:51Z</time>
      </trkpt>
      <trkpt lat="46.7847" lon="5.76011">
        <ele>561.6</ele>
        <time>2022-03-09T12:40:52Z</time>
      </trkpt>
      <trkpt lat="46.78473" lon="5.76001">
        <ele>561.4</ele>
        <time>2022-03-09T12:40:53Z</time>
      </trkpt>
      <trkpt lat="46.78477" lon="5.75992">
        <ele>561.2</ele>
        <time>2022-03-09T12:40:54Z</time>
      </trkpt>
      <trkpt lat="46.78481" lon="5.75983">
        <ele>561</ele>
        <time>2022-03-09T12:40:55Z</time>
      </trkpt>
      <trkpt lat="46.78484" lon="5.75973">
        <ele>560.6</ele>
        <time>2022-03-09T12:40:56Z</time>
      </trkpt>
      <trkpt lat="46.78488" lon="5.75963">
        <ele>560.4</ele>
        <time>2022-03-09T12:40:57Z</time>
      </trkpt>
      <trkpt lat="46.78492" lon="5.75954">
        <ele>560.4</ele>
        <time>2022-03-09T12:40:58Z</time>
      </trkpt>
      <trkpt lat="46.78496" lon="5.75945">
        <ele>560</ele>
        <time>2022-03-09T12:40:59Z</time>
      </trkpt>
      <trkpt lat="46.785" lon="5.75936">
        <ele>560</ele>
        <time>2022-03-09T12:41:00Z</time>
      </trkpt>
      <trkpt lat="46.78505" lon="5.75928">
        <ele>559.8</ele>
        <time>2022-03-09T12:41:01Z</time>
      </trkpt>
      <trkpt lat="46.78509" lon="5.7592">
        <ele>559.8</ele>
        <time>2022-03-09T12:41:02Z</time>
      </trkpt>
      <trkpt lat="46.78513" lon="5.75913">
        <ele>559.8</ele>
        <time>2022-03-09T12:41:03Z</time>
      </trkpt>
      <trkpt lat="46.78518" lon="5.75906">
        <ele>559.8</ele>
        <time>2022-03-09T12:41:04Z</time>
      </trkpt>
      <trkpt lat="46.78522" lon="5.759">
        <ele>559.8</ele>
        <time>2022-03-09T12:41:05Z</time>
      </trkpt>
      <trkpt lat="46.78527" lon="5.75894">
        <ele>559.8</ele>
        <time>2022-03-09T12:41:06Z</time>
      </trkpt>
      <trkpt lat="46.78532" lon="5.75889">
        <ele>560</ele>
        <time>2022-03-09T12:41:07Z</time>
      </trkpt>
      <trkpt lat="46.78537" lon="5.75884">
        <ele>560</ele>
        <time>2022-03-09T12:41:08Z</time>
      </trkpt>
      <trkpt lat="46.78542" lon="5.75881">
        <ele>560.2</ele>
        <time>2022-03-09T12:41:09Z</time>
      </trkpt>
      <trkpt lat="46.78547" lon="5.75877">
        <ele>560.4</ele>
        <time>2022-03-09T12:41:10Z</time>
      </trkpt>
      <trkpt lat="46.78552" lon="5.75874">
        <ele>560.4</ele>
        <time>2022-03-09T12:41:11Z</time>
      </trkpt>
      <trkpt lat="46.78557" lon="5.75872">
        <ele>560.8</ele>
        <time>2022-03-09T12:41:12Z</time>
      </trkpt>
      <trkpt lat="46.78563" lon="5.7587">
        <ele>560.8</ele>
        <time>2022-03-09T12:41:13Z</time>
      </trkpt>
      <trkpt lat="46.78568" lon="5.75868">
        <ele>561.2</ele>
        <time>2022-03-09T12:41:14Z</time>
      </trkpt>
      <trkpt lat="46.78574" lon="5.75867">
        <ele>561.2</ele>
        <time>2022-03-09T12:41:15Z</time>
      </trkpt>
      <trkpt lat="46.78579" lon="5.75864">
        <ele>561.6</ele>
        <time>2022-03-09T12:41:16Z</time>
      </trkpt>
      <trkpt lat="46.78585" lon="5.75862">
        <ele>561.6</ele>
        <time>2022-03-09T12:41:17Z</time>
      </trkpt>
      <trkpt lat="46.7859" lon="5.75858">
        <ele>561.8</ele>
        <time>2022-03-09T12:41:18Z</time>
      </trkpt>
      <trkpt lat="46.78595" lon="5.75855">
        <ele>561.8</ele>
        <time>2022-03-09T12:41:19Z</time>
      </trkpt>
      <trkpt lat="46.786" lon="5.75851">
        <ele>562</ele>
        <time>2022-03-09T12:41:20Z</time>
      </trkpt>
      <trkpt lat="46.78604" lon="5.75846">
        <ele>562</ele>
        <time>2022-03-09T12:41:21Z</time>
      </trkpt>
      <trkpt lat="46.78608" lon="5.75841">
        <ele>562.4</ele>
        <time>2022-03-09T12:41:22Z</time>
      </trkpt>
      <trkpt lat="46.78612" lon="5.75836">
        <ele>562.4</ele>
        <time>2022-03-09T12:41:23Z</time>
      </trkpt>
      <trkpt lat="46.78616" lon="5.7583">
        <ele>562.6</ele>
        <time>2022-03-09T12:41:24Z</time>
      </trkpt>
      <trkpt lat="46.7862" lon="5.75826">
        <ele>562.6</ele>
        <time>2022-03-09T12:41:25Z</time>
      </trkpt>
      <trkpt lat="46.78624" lon="5.75821">
        <ele>562.6</ele>
        <time>2022-03-09T12:41:26Z</time>
      </trkpt>
      <trkpt lat="46.78628" lon="5.75816">
        <ele>562.6</ele>
        <time>2022-03-09T12:41:27Z</time>
      </trkpt>
      <trkpt lat="46.78633" lon="5.75812">
        <ele>562.8</ele>
        <time>2022-03-09T12:41:28Z</time>
      </trkpt>
      <trkpt lat="46.78637" lon="5.75808">
        <ele>562.8</ele>
        <time>2022-03-09T12:41:29Z</time>
      </trkpt>
      <trkpt lat="46.78642" lon="5.75804">
        <ele>562.8</ele>
        <time>2022-03-09T12:41:30Z</time>
      </trkpt>
      <trkpt lat="46.78647" lon="5.75799">
        <ele>562.8</ele>
        <time>2022-03-09T12:41:31Z</time>
      </trkpt>
      <trkpt lat="46.78652" lon="5.75794">
        <ele>562.8</ele>
        <time>2022-03-09T12:41:32Z</time>
      </trkpt>
      <trkpt lat="46.78657" lon="5.7579">
        <ele>562.8</ele>
        <time>2022-03-09T12:41:33Z</time>
      </trkpt>
      <trkpt lat="46.78663" lon="5.75785">
        <ele>562.6</ele>
        <time>2022-03-09T12:41:34Z</time>
      </trkpt>
      <trkpt lat="46.78669" lon="5.75781">
        <ele>562.6</ele>
        <time>2022-03-09T12:41:35Z</time>
      </trkpt>
      <trkpt lat="46.78674" lon="5.75776">
        <ele>562.2</ele>
        <time>2022-03-09T12:41:36Z</time>
      </trkpt>
      <trkpt lat="46.7868" lon="5.75772">
        <ele>562</ele>
        <time>2022-03-09T12:41:37Z</time>
      </trkpt>
      <trkpt lat="46.78687" lon="5.75768">
        <ele>562</ele>
        <time>2022-03-09T12:41:38Z</time>
      </trkpt>
      <trkpt lat="46.78693" lon="5.75763">
        <ele>561.6</ele>
        <time>2022-03-09T12:41:39Z</time>
      </trkpt>
      <trkpt lat="46.78699" lon="5.75759">
        <ele>561.6</ele>
        <time>2022-03-09T12:41:40Z</time>
      </trkpt>
      <trkpt lat="46.78699" lon="5.75759">
        <ele>561.2</ele>
        <time>2022-03-09T12:41:41Z</time>
      </trkpt>
      <trkpt lat="46.78704" lon="5.75755">
        <ele>561.2</ele>
        <time>2022-03-09T12:41:42Z</time>
      </trkpt>
      <trkpt lat="46.7871" lon="5.75751">
        <ele>561</ele>
        <time>2022-03-09T12:41:43Z</time>
      </trkpt>
      <trkpt lat="46.78716" lon="5.75747">
        <ele>561</ele>
        <time>2022-03-09T12:41:44Z</time>
      </trkpt>
      <trkpt lat="46.78723" lon="5.75744">
        <ele>561</ele>
        <time>2022-03-09T12:41:45Z</time>
      </trkpt>
      <trkpt lat="46.78729" lon="5.75741">
        <ele>561</ele>
        <time>2022-03-09T12:41:46Z</time>
      </trkpt>
      <trkpt lat="46.78735" lon="5.75738">
        <ele>561</ele>
        <time>2022-03-09T12:41:47Z</time>
      </trkpt>
      <trkpt lat="46.7874" lon="5.75736">
        <ele>561</ele>
        <time>2022-03-09T12:41:48Z</time>
      </trkpt>
      <trkpt lat="46.78746" lon="5.75733">
        <ele>561</ele>
        <time>2022-03-09T12:41:49Z</time>
      </trkpt>
      <trkpt lat="46.78751" lon="5.75731">
        <ele>561</ele>
        <time>2022-03-09T12:41:50Z</time>
      </trkpt>
      <trkpt lat="46.78757" lon="5.75728">
        <ele>561</ele>
        <time>2022-03-09T12:41:51Z</time>
      </trkpt>
      <trkpt lat="46.78762" lon="5.75725">
        <ele>561</ele>
        <time>2022-03-09T12:41:52Z</time>
      </trkpt>
      <trkpt lat="46.78768" lon="5.75722">
        <ele>561</ele>
        <time>2022-03-09T12:41:53Z</time>
      </trkpt>
      <trkpt lat="46.78774" lon="5.75719">
        <ele>561</ele>
        <time>2022-03-09T12:41:54Z</time>
      </trkpt>
      <trkpt lat="46.7878" lon="5.75716">
        <ele>561</ele>
        <time>2022-03-09T12:41:55Z</time>
      </trkpt>
      <trkpt lat="46.7879" lon="5.75707">
        <ele>561</ele>
        <time>2022-03-09T12:41:56Z</time>
      </trkpt>
      <trkpt lat="46.78795" lon="5.75702">
        <ele>561</ele>
        <time>2022-03-09T12:41:57Z</time>
      </trkpt>
      <trkpt lat="46.788" lon="5.75697">
        <ele>561.2</ele>
        <time>2022-03-09T12:41:58Z</time>
      </trkpt>
      <trkpt lat="46.78805" lon="5.75691">
        <ele>561.2</ele>
        <time>2022-03-09T12:41:59Z</time>
      </trkpt>
      <trkpt lat="46.7881" lon="5.75685">
        <ele>561.4</ele>
        <time>2022-03-09T12:42:00Z</time>
      </trkpt>
      <trkpt lat="46.78814" lon="5.75679">
        <ele>561.4</ele>
        <time>2022-03-09T12:42:01Z</time>
      </trkpt>
      <trkpt lat="46.78818" lon="5.75673">
        <ele>561.4</ele>
        <time>2022-03-09T12:42:02Z</time>
      </trkpt>
      <trkpt lat="46.78821" lon="5.75667">
        <ele>561.4</ele>
        <time>2022-03-09T12:42:03Z</time>
      </trkpt>
      <trkpt lat="46.78824" lon="5.75661">
        <ele>561.8</ele>
        <time>2022-03-09T12:42:04Z</time>
      </trkpt>
      <trkpt lat="46.78827" lon="5.75655">
        <ele>561.8</ele>
        <time>2022-03-09T12:42:05Z</time>
      </trkpt>
      <trkpt lat="46.7883" lon="5.75648">
        <ele>561.8</ele>
        <time>2022-03-09T12:42:06Z</time>
      </trkpt>
      <trkpt lat="46.78834" lon="5.75642">
        <ele>561.4</ele>
        <time>2022-03-09T12:42:07Z</time>
      </trkpt>
      <trkpt lat="46.78837" lon="5.75635">
        <ele>561.2</ele>
        <time>2022-03-09T12:42:08Z</time>
      </trkpt>
      <trkpt lat="46.78842" lon="5.75629">
        <ele>561.2</ele>
        <time>2022-03-09T12:42:09Z</time>
      </trkpt>
      <trkpt lat="46.78847" lon="5.75623">
        <ele>561</ele>
        <time>2022-03-09T12:42:10Z</time>
      </trkpt>
      <trkpt lat="46.78852" lon="5.75618">
        <ele>561</ele>
        <time>2022-03-09T12:42:11Z</time>
      </trkpt>
      <trkpt lat="46.78857" lon="5.75613">
        <ele>560.6</ele>
        <time>2022-03-09T12:42:12Z</time>
      </trkpt>
      <trkpt lat="46.78862" lon="5.75608">
        <ele>560.4</ele>
        <time>2022-03-09T12:42:13Z</time>
      </trkpt>
      <trkpt lat="46.78866" lon="5.75603">
        <ele>560.2</ele>
        <time>2022-03-09T12:42:14Z</time>
      </trkpt>
      <trkpt lat="46.78871" lon="5.75597">
        <ele>559.8</ele>
        <time>2022-03-09T12:42:15Z</time>
      </trkpt>
      <trkpt lat="46.78876" lon="5.75593">
        <ele>559.4</ele>
        <time>2022-03-09T12:42:16Z</time>
      </trkpt>
      <trkpt lat="46.78882" lon="5.75589">
        <ele>559</ele>
        <time>2022-03-09T12:42:17Z</time>
      </trkpt>
      <trkpt lat="46.78889" lon="5.75586">
        <ele>558.6</ele>
        <time>2022-03-09T12:42:18Z</time>
      </trkpt>
      <trkpt lat="46.78896" lon="5.75583">
        <ele>558</ele>
        <time>2022-03-09T12:42:19Z</time>
      </trkpt>
      <trkpt lat="46.78903" lon="5.7558">
        <ele>557.6</ele>
        <time>2022-03-09T12:42:20Z</time>
      </trkpt>
      <trkpt lat="46.7891" lon="5.75576">
        <ele>557.2</ele>
        <time>2022-03-09T12:42:21Z</time>
      </trkpt>
      <trkpt lat="46.78917" lon="5.7557">
        <ele>556.8</ele>
        <time>2022-03-09T12:42:22Z</time>
      </trkpt>
      <trkpt lat="46.78924" lon="5.75564">
        <ele>556.2</ele>
        <time>2022-03-09T12:42:23Z</time>
      </trkpt>
      <trkpt lat="46.7893" lon="5.75558">
        <ele>556</ele>
        <time>2022-03-09T12:42:24Z</time>
      </trkpt>
      <trkpt lat="46.78937" lon="5.75553">
        <ele>555.6</ele>
        <time>2022-03-09T12:42:25Z</time>
      </trkpt>
      <trkpt lat="46.78943" lon="5.75547">
        <ele>555.4</ele>
        <time>2022-03-09T12:42:26Z</time>
      </trkpt>
      <trkpt lat="46.78949" lon="5.75541">
        <ele>555.2</ele>
        <time>2022-03-09T12:42:27Z</time>
      </trkpt>
      <trkpt lat="46.78956" lon="5.75536">
        <ele>555</ele>
        <time>2022-03-09T12:42:28Z</time>
      </trkpt>
      <trkpt lat="46.78962" lon="5.75532">
        <ele>554.8</ele>
        <time>2022-03-09T12:42:29Z</time>
      </trkpt>
      <trkpt lat="46.78967" lon="5.75529">
        <ele>554.4</ele>
        <time>2022-03-09T12:42:30Z</time>
      </trkpt>
      <trkpt lat="46.78973" lon="5.75527">
        <ele>554</ele>
        <time>2022-03-09T12:42:31Z</time>
      </trkpt>
      <trkpt lat="46.78979" lon="5.75524">
        <ele>553.8</ele>
        <time>2022-03-09T12:42:32Z</time>
      </trkpt>
      <trkpt lat="46.78986" lon="5.75522">
        <ele>553.2</ele>
        <time>2022-03-09T12:42:33Z</time>
      </trkpt>
      <trkpt lat="46.78994" lon="5.7552">
        <ele>552.8</ele>
        <time>2022-03-09T12:42:34Z</time>
      </trkpt>
      <trkpt lat="46.79001" lon="5.75517">
        <ele>552.2</ele>
        <time>2022-03-09T12:42:35Z</time>
      </trkpt>
      <trkpt lat="46.79009" lon="5.75515">
        <ele>551.4</ele>
        <time>2022-03-09T12:42:36Z</time>
      </trkpt>
      <trkpt lat="46.79016" lon="5.75512">
        <ele>550.8</ele>
        <time>2022-03-09T12:42:37Z</time>
      </trkpt>
      <trkpt lat="46.79022" lon="5.75509">
        <ele>550</ele>
        <time>2022-03-09T12:42:38Z</time>
      </trkpt>
      <trkpt lat="46.79029" lon="5.75506">
        <ele>549.4</ele>
        <time>2022-03-09T12:42:39Z</time>
      </trkpt>
      <trkpt lat="46.79036" lon="5.75502">
        <ele>548.6</ele>
        <time>2022-03-09T12:42:40Z</time>
      </trkpt>
      <trkpt lat="46.79043" lon="5.75498">
        <ele>547.8</ele>
        <time>2022-03-09T12:42:41Z</time>
      </trkpt>
      <trkpt lat="46.7905" lon="5.75492">
        <ele>547</ele>
        <time>2022-03-09T12:42:42Z</time>
      </trkpt>
      <trkpt lat="46.79057" lon="5.75486">
        <ele>546.6</ele>
        <time>2022-03-09T12:42:43Z</time>
      </trkpt>
      <trkpt lat="46.79064" lon="5.75479">
        <ele>546</ele>
        <time>2022-03-09T12:42:44Z</time>
      </trkpt>
      <trkpt lat="46.7907" lon="5.75473">
        <ele>545.6</ele>
        <time>2022-03-09T12:42:45Z</time>
      </trkpt>
      <trkpt lat="46.79076" lon="5.75468">
        <ele>545.2</ele>
        <time>2022-03-09T12:42:46Z</time>
      </trkpt>
      <trkpt lat="46.79083" lon="5.75464">
        <ele>544.8</ele>
        <time>2022-03-09T12:42:47Z</time>
      </trkpt>
      <trkpt lat="46.7909" lon="5.75461">
        <ele>544.6</ele>
        <time>2022-03-09T12:42:48Z</time>
      </trkpt>
      <trkpt lat="46.79098" lon="5.75459">
        <ele>544.6</ele>
        <time>2022-03-09T12:42:49Z</time>
      </trkpt>
      <trkpt lat="46.79105" lon="5.75457">
        <ele>544.6</ele>
        <time>2022-03-09T12:42:50Z</time>
      </trkpt>
      <trkpt lat="46.79112" lon="5.75456">
        <ele>544.6</ele>
        <time>2022-03-09T12:42:51Z</time>
      </trkpt>
      <trkpt lat="46.79118" lon="5.75455">
        <ele>544.6</ele>
        <time>2022-03-09T12:42:52Z</time>
      </trkpt>
      <trkpt lat="46.79124" lon="5.75454">
        <ele>544.6</ele>
        <time>2022-03-09T12:42:53Z</time>
      </trkpt>
      <trkpt lat="46.79129" lon="5.75454">
        <ele>545</ele>
        <time>2022-03-09T12:42:54Z</time>
      </trkpt>
      <trkpt lat="46.79134" lon="5.75454">
        <ele>545</ele>
        <time>2022-03-09T12:42:55Z</time>
      </trkpt>
      <trkpt lat="46.79139" lon="5.75454">
        <ele>545</ele>
        <time>2022-03-09T12:42:56Z</time>
      </trkpt>
      <trkpt lat="46.79143" lon="5.75454">
        <ele>545.4</ele>
        <time>2022-03-09T12:42:57Z</time>
      </trkpt>
      <trkpt lat="46.79148" lon="5.75453">
        <ele>545.4</ele>
        <time>2022-03-09T12:42:58Z</time>
      </trkpt>
      <trkpt lat="46.79152" lon="5.75452">
        <ele>545.4</ele>
        <time>2022-03-09T12:42:59Z</time>
      </trkpt>
      <trkpt lat="46.79157" lon="5.7545">
        <ele>545.4</ele>
        <time>2022-03-09T12:43:00Z</time>
      </trkpt>
      <trkpt lat="46.79157" lon="5.7545">
        <ele>545</ele>
        <time>2022-03-09T12:43:01Z</time>
      </trkpt>
      <trkpt lat="46.79163" lon="5.75449">
        <ele>544.8</ele>
        <time>2022-03-09T12:43:02Z</time>
      </trkpt>
      <trkpt lat="46.79169" lon="5.75446">
        <ele>544.6</ele>
        <time>2022-03-09T12:43:03Z</time>
      </trkpt>
      <trkpt lat="46.79175" lon="5.75444">
        <ele>544.2</ele>
        <time>2022-03-09T12:43:04Z</time>
      </trkpt>
      <trkpt lat="46.79181" lon="5.75442">
        <ele>544</ele>
        <time>2022-03-09T12:43:05Z</time>
      </trkpt>
      <trkpt lat="46.79188" lon="5.75441">
        <ele>543.6</ele>
        <time>2022-03-09T12:43:06Z</time>
      </trkpt>
      <trkpt lat="46.79195" lon="5.7544">
        <ele>543.6</ele>
        <time>2022-03-09T12:43:07Z</time>
      </trkpt>
      <trkpt lat="46.79202" lon="5.7544">
        <ele>543.4</ele>
        <time>2022-03-09T12:43:08Z</time>
      </trkpt>
      <trkpt lat="46.79209" lon="5.75441">
        <ele>543.4</ele>
        <time>2022-03-09T12:43:09Z</time>
      </trkpt>
      <trkpt lat="46.79216" lon="5.75441">
        <ele>543.4</ele>
        <time>2022-03-09T12:43:10Z</time>
      </trkpt>
      <trkpt lat="46.79223" lon="5.75442">
        <ele>543.4</ele>
        <time>2022-03-09T12:43:11Z</time>
      </trkpt>
      <trkpt lat="46.79229" lon="5.75442">
        <ele>543.4</ele>
        <time>2022-03-09T12:43:12Z</time>
      </trkpt>
      <trkpt lat="46.79235" lon="5.75442">
        <ele>543.4</ele>
        <time>2022-03-09T12:43:13Z</time>
      </trkpt>
      <trkpt lat="46.79241" lon="5.75442">
        <ele>543.4</ele>
        <time>2022-03-09T12:43:14Z</time>
      </trkpt>
      <trkpt lat="46.79247" lon="5.75442">
        <ele>543.4</ele>
        <time>2022-03-09T12:43:15Z</time>
      </trkpt>
      <trkpt lat="46.79252" lon="5.75443">
        <ele>543.4</ele>
        <time>2022-03-09T12:43:16Z</time>
      </trkpt>
      <trkpt lat="46.79259" lon="5.75442">
        <ele>543.4</ele>
        <time>2022-03-09T12:43:17Z</time>
      </trkpt>
      <trkpt lat="46.79265" lon="5.75442">
        <ele>543.4</ele>
        <time>2022-03-09T12:43:18Z</time>
      </trkpt>
      <trkpt lat="46.79272" lon="5.75441">
        <ele>543</ele>
        <time>2022-03-09T12:43:19Z</time>
      </trkpt>
      <trkpt lat="46.79278" lon="5.75439">
        <ele>542.8</ele>
        <time>2022-03-09T12:43:20Z</time>
      </trkpt>
      <trkpt lat="46.79285" lon="5.75437">
        <ele>542.8</ele>
        <time>2022-03-09T12:43:21Z</time>
      </trkpt>
      <trkpt lat="46.79292" lon="5.75435">
        <ele>542.6</ele>
        <time>2022-03-09T12:43:22Z</time>
      </trkpt>
      <trkpt lat="46.79298" lon="5.75433">
        <ele>542.6</ele>
        <time>2022-03-09T12:43:23Z</time>
      </trkpt>
      <trkpt lat="46.79306" lon="5.75431">
        <ele>542.6</ele>
        <time>2022-03-09T12:43:24Z</time>
      </trkpt>
      <trkpt lat="46.79313" lon="5.7543">
        <ele>542.2</ele>
        <time>2022-03-09T12:43:25Z</time>
      </trkpt>
      <trkpt lat="46.7932" lon="5.75429">
        <ele>542.2</ele>
        <time>2022-03-09T12:43:26Z</time>
      </trkpt>
      <trkpt lat="46.79326" lon="5.75429">
        <ele>542</ele>
        <time>2022-03-09T12:43:27Z</time>
      </trkpt>
      <trkpt lat="46.79332" lon="5.75429">
        <ele>542</ele>
        <time>2022-03-09T12:43:28Z</time>
      </trkpt>
      <trkpt lat="46.79339" lon="5.75429">
        <ele>541.6</ele>
        <time>2022-03-09T12:43:29Z</time>
      </trkpt>
      <trkpt lat="46.79345" lon="5.75429">
        <ele>541.6</ele>
        <time>2022-03-09T12:43:30Z</time>
      </trkpt>
      <trkpt lat="46.79351" lon="5.75429">
        <ele>541.6</ele>
        <time>2022-03-09T12:43:31Z</time>
      </trkpt>
      <trkpt lat="46.79356" lon="5.75429">
        <ele>541.6</ele>
        <time>2022-03-09T12:43:32Z</time>
      </trkpt>
      <trkpt lat="46.79362" lon="5.7543">
        <ele>541.6</ele>
        <time>2022-03-09T12:43:33Z</time>
      </trkpt>
      <trkpt lat="46.79368" lon="5.7543">
        <ele>541.6</ele>
        <time>2022-03-09T12:43:34Z</time>
      </trkpt>
      <trkpt lat="46.79374" lon="5.7543">
        <ele>541.6</ele>
        <time>2022-03-09T12:43:35Z</time>
      </trkpt>
      <trkpt lat="46.7938" lon="5.75431">
        <ele>541.6</ele>
        <time>2022-03-09T12:43:36Z</time>
      </trkpt>
      <trkpt lat="46.79386" lon="5.75432">
        <ele>541.4</ele>
        <time>2022-03-09T12:43:37Z</time>
      </trkpt>
      <trkpt lat="46.79398" lon="5.75433">
        <ele>541.4</ele>
        <time>2022-03-09T12:43:38Z</time>
      </trkpt>
      <trkpt lat="46.79404" lon="5.75435">
        <ele>541.4</ele>
        <time>2022-03-09T12:43:39Z</time>
      </trkpt>
      <trkpt lat="46.79411" lon="5.75436">
        <ele>541.4</ele>
        <time>2022-03-09T12:43:40Z</time>
      </trkpt>
      <trkpt lat="46.79417" lon="5.75437">
        <ele>541.2</ele>
        <time>2022-03-09T12:43:41Z</time>
      </trkpt>
      <trkpt lat="46.79423" lon="5.75439">
        <ele>541.2</ele>
        <time>2022-03-09T12:43:42Z</time>
      </trkpt>
      <trkpt lat="46.7943" lon="5.7544">
        <ele>541.2</ele>
        <time>2022-03-09T12:43:43Z</time>
      </trkpt>
      <trkpt lat="46.79436" lon="5.7544">
        <ele>541.2</ele>
        <time>2022-03-09T12:43:44Z</time>
      </trkpt>
      <trkpt lat="46.79441" lon="5.75442">
        <ele>540.8</ele>
        <time>2022-03-09T12:43:45Z</time>
      </trkpt>
      <trkpt lat="46.79447" lon="5.75443">
        <ele>540.8</ele>
        <time>2022-03-09T12:43:46Z</time>
      </trkpt>
      <trkpt lat="46.79453" lon="5.75444">
        <ele>540.8</ele>
        <time>2022-03-09T12:43:47Z</time>
      </trkpt>
      <trkpt lat="46.79458" lon="5.75445">
        <ele>540.8</ele>
        <time>2022-03-09T12:43:48Z</time>
      </trkpt>
      <trkpt lat="46.79464" lon="5.75445">
        <ele>540.8</ele>
        <time>2022-03-09T12:43:49Z</time>
      </trkpt>
      <trkpt lat="46.79469" lon="5.75445">
        <ele>540.8</ele>
        <time>2022-03-09T12:43:50Z</time>
      </trkpt>
      <trkpt lat="46.79475" lon="5.75444">
        <ele>540.8</ele>
        <time>2022-03-09T12:43:51Z</time>
      </trkpt>
      <trkpt lat="46.7948" lon="5.75443">
        <ele>540.8</ele>
        <time>2022-03-09T12:43:52Z</time>
      </trkpt>
      <trkpt lat="46.79486" lon="5.75442">
        <ele>541</ele>
        <time>2022-03-09T12:43:53Z</time>
      </trkpt>
      <trkpt lat="46.79491" lon="5.7544">
        <ele>541</ele>
        <time>2022-03-09T12:43:54Z</time>
      </trkpt>
      <trkpt lat="46.79497" lon="5.75437">
        <ele>541</ele>
        <time>2022-03-09T12:43:55Z</time>
      </trkpt>
      <trkpt lat="46.79502" lon="5.75434">
        <ele>541</ele>
        <time>2022-03-09T12:43:56Z</time>
      </trkpt>
      <trkpt lat="46.79508" lon="5.7543">
        <ele>541</ele>
        <time>2022-03-09T12:43:57Z</time>
      </trkpt>
      <trkpt lat="46.79513" lon="5.75426">
        <ele>541</ele>
        <time>2022-03-09T12:43:58Z</time>
      </trkpt>
      <trkpt lat="46.79519" lon="5.75421">
        <ele>540.8</ele>
        <time>2022-03-09T12:43:59Z</time>
      </trkpt>
      <trkpt lat="46.79524" lon="5.75415">
        <ele>540.8</ele>
        <time>2022-03-09T12:44:00Z</time>
      </trkpt>
      <trkpt lat="46.79529" lon="5.75409">
        <ele>540.6</ele>
        <time>2022-03-09T12:44:01Z</time>
      </trkpt>
      <trkpt lat="46.79534" lon="5.75404">
        <ele>540.4</ele>
        <time>2022-03-09T12:44:02Z</time>
      </trkpt>
      <trkpt lat="46.79539" lon="5.75398">
        <ele>540.4</ele>
        <time>2022-03-09T12:44:03Z</time>
      </trkpt>
      <trkpt lat="46.79544" lon="5.75392">
        <ele>540.4</ele>
        <time>2022-03-09T12:44:04Z</time>
      </trkpt>
      <trkpt lat="46.79549" lon="5.75386">
        <ele>540.4</ele>
        <time>2022-03-09T12:44:05Z</time>
      </trkpt>
      <trkpt lat="46.79554" lon="5.75379">
        <ele>540.4</ele>
        <time>2022-03-09T12:44:06Z</time>
      </trkpt>
      <trkpt lat="46.79559" lon="5.75374">
        <ele>540.4</ele>
        <time>2022-03-09T12:44:07Z</time>
      </trkpt>
      <trkpt lat="46.79564" lon="5.75368">
        <ele>540.4</ele>
        <time>2022-03-09T12:44:08Z</time>
      </trkpt>
      <trkpt lat="46.79569" lon="5.75363">
        <ele>540.4</ele>
        <time>2022-03-09T12:44:09Z</time>
      </trkpt>
      <trkpt lat="46.79575" lon="5.75358">
        <ele>540.2</ele>
        <time>2022-03-09T12:44:10Z</time>
      </trkpt>
      <trkpt lat="46.79581" lon="5.75353">
        <ele>540.2</ele>
        <time>2022-03-09T12:44:11Z</time>
      </trkpt>
      <trkpt lat="46.79587" lon="5.75349">
        <ele>540.2</ele>
        <time>2022-03-09T12:44:12Z</time>
      </trkpt>
      <trkpt lat="46.79592" lon="5.75345">
        <ele>540.2</ele>
        <time>2022-03-09T12:44:13Z</time>
      </trkpt>
      <trkpt lat="46.79598" lon="5.75341">
        <ele>540.2</ele>
        <time>2022-03-09T12:44:14Z</time>
      </trkpt>
      <trkpt lat="46.79603" lon="5.75337">
        <ele>540.6</ele>
        <time>2022-03-09T12:44:15Z</time>
      </trkpt>
      <trkpt lat="46.79608" lon="5.75334">
        <ele>540.6</ele>
        <time>2022-03-09T12:44:16Z</time>
      </trkpt>
      <trkpt lat="46.79613" lon="5.7533">
        <ele>540.8</ele>
        <time>2022-03-09T12:44:17Z</time>
      </trkpt>
      <trkpt lat="46.79617" lon="5.75326">
        <ele>540.8</ele>
        <time>2022-03-09T12:44:18Z</time>
      </trkpt>
      <trkpt lat="46.79621" lon="5.75322">
        <ele>541.2</ele>
        <time>2022-03-09T12:44:19Z</time>
      </trkpt>
      <trkpt lat="46.79626" lon="5.75318">
        <ele>541.2</ele>
        <time>2022-03-09T12:44:20Z</time>
      </trkpt>
      <trkpt lat="46.7963" lon="5.75313">
        <ele>541.4</ele>
        <time>2022-03-09T12:44:21Z</time>
      </trkpt>
      <trkpt lat="46.79635" lon="5.7531">
        <ele>541.4</ele>
        <time>2022-03-09T12:44:22Z</time>
      </trkpt>
      <trkpt lat="46.7964" lon="5.75305">
        <ele>541.4</ele>
        <time>2022-03-09T12:44:23Z</time>
      </trkpt>
      <trkpt lat="46.79644" lon="5.75301">
        <ele>541.4</ele>
        <time>2022-03-09T12:44:24Z</time>
      </trkpt>
      <trkpt lat="46.79649" lon="5.75297">
        <ele>541.6</ele>
        <time>2022-03-09T12:44:25Z</time>
      </trkpt>
      <trkpt lat="46.79654" lon="5.75292">
        <ele>541.6</ele>
        <time>2022-03-09T12:44:26Z</time>
      </trkpt>
      <trkpt lat="46.79659" lon="5.75288">
        <ele>541.6</ele>
        <time>2022-03-09T12:44:27Z</time>
      </trkpt>
      <trkpt lat="46.79664" lon="5.75283">
        <ele>541.6</ele>
        <time>2022-03-09T12:44:28Z</time>
      </trkpt>
      <trkpt lat="46.79669" lon="5.75279">
        <ele>541.6</ele>
        <time>2022-03-09T12:44:29Z</time>
      </trkpt>
      <trkpt lat="46.79674" lon="5.75275">
        <ele>541.6</ele>
        <time>2022-03-09T12:44:30Z</time>
      </trkpt>
      <trkpt lat="46.7968" lon="5.75271">
        <ele>541.6</ele>
        <time>2022-03-09T12:44:31Z</time>
      </trkpt>
      <trkpt lat="46.79685" lon="5.75267">
        <ele>541.8</ele>
        <time>2022-03-09T12:44:32Z</time>
      </trkpt>
      <trkpt lat="46.79691" lon="5.75264">
        <ele>541.8</ele>
        <time>2022-03-09T12:44:33Z</time>
      </trkpt>
      <trkpt lat="46.79697" lon="5.7526">
        <ele>542</ele>
        <time>2022-03-09T12:44:34Z</time>
      </trkpt>
      <trkpt lat="46.79703" lon="5.75258">
        <ele>542</ele>
        <time>2022-03-09T12:44:35Z</time>
      </trkpt>
      <trkpt lat="46.79708" lon="5.75256">
        <ele>542</ele>
        <time>2022-03-09T12:44:36Z</time>
      </trkpt>
      <trkpt lat="46.79714" lon="5.75254">
        <ele>542.2</ele>
        <time>2022-03-09T12:44:37Z</time>
      </trkpt>
      <trkpt lat="46.7972" lon="5.75252">
        <ele>542.2</ele>
        <time>2022-03-09T12:44:38Z</time>
      </trkpt>
      <trkpt lat="46.79725" lon="5.7525">
        <ele>542.6</ele>
        <time>2022-03-09T12:44:39Z</time>
      </trkpt>
      <trkpt lat="46.7973" lon="5.75247">
        <ele>542.6</ele>
        <time>2022-03-09T12:44:40Z</time>
      </trkpt>
      <trkpt lat="46.79736" lon="5.75244">
        <ele>542.8</ele>
        <time>2022-03-09T12:44:41Z</time>
      </trkpt>
      <trkpt lat="46.79741" lon="5.75241">
        <ele>542.8</ele>
        <time>2022-03-09T12:44:42Z</time>
      </trkpt>
      <trkpt lat="46.79746" lon="5.75236">
        <ele>542.8</ele>
        <time>2022-03-09T12:44:43Z</time>
      </trkpt>
      <trkpt lat="46.79751" lon="5.75231">
        <ele>542.8</ele>
        <time>2022-03-09T12:44:44Z</time>
      </trkpt>
      <trkpt lat="46.79757" lon="5.75226">
        <ele>542.8</ele>
        <time>2022-03-09T12:44:45Z</time>
      </trkpt>
      <trkpt lat="46.79762" lon="5.7522">
        <ele>542.8</ele>
        <time>2022-03-09T12:44:46Z</time>
      </trkpt>
      <trkpt lat="46.79767" lon="5.75214">
        <ele>542.8</ele>
        <time>2022-03-09T12:44:47Z</time>
      </trkpt>
      <trkpt lat="46.79773" lon="5.75209">
        <ele>542.8</ele>
        <time>2022-03-09T12:44:48Z</time>
      </trkpt>
      <trkpt lat="46.79778" lon="5.75203">
        <ele>542.8</ele>
        <time>2022-03-09T12:44:49Z</time>
      </trkpt>
      <trkpt lat="46.79784" lon="5.75197">
        <ele>542.8</ele>
        <time>2022-03-09T12:44:50Z</time>
      </trkpt>
      <trkpt lat="46.79789" lon="5.75192">
        <ele>542.6</ele>
        <time>2022-03-09T12:44:51Z</time>
      </trkpt>
      <trkpt lat="46.79794" lon="5.75187">
        <ele>542.6</ele>
        <time>2022-03-09T12:44:52Z</time>
      </trkpt>
      <trkpt lat="46.79799" lon="5.75182">
        <ele>542.6</ele>
        <time>2022-03-09T12:44:53Z</time>
      </trkpt>
      <trkpt lat="46.79804" lon="5.75178">
        <ele>542.6</ele>
        <time>2022-03-09T12:44:54Z</time>
      </trkpt>
      <trkpt lat="46.79809" lon="5.75173">
        <ele>542.6</ele>
        <time>2022-03-09T12:44:55Z</time>
      </trkpt>
      <trkpt lat="46.79814" lon="5.75169">
        <ele>542.4</ele>
        <time>2022-03-09T12:44:56Z</time>
      </trkpt>
      <trkpt lat="46.79819" lon="5.75164">
        <ele>542.4</ele>
        <time>2022-03-09T12:44:57Z</time>
      </trkpt>
      <trkpt lat="46.79824" lon="5.75159">
        <ele>542</ele>
        <time>2022-03-09T12:44:58Z</time>
      </trkpt>
      <trkpt lat="46.7983" lon="5.75155">
        <ele>542</ele>
        <time>2022-03-09T12:44:59Z</time>
      </trkpt>
      <trkpt lat="46.79835" lon="5.7515">
        <ele>541.6</ele>
        <time>2022-03-09T12:45:00Z</time>
      </trkpt>
      <trkpt lat="46.7984" lon="5.75146">
        <ele>541.6</ele>
        <time>2022-03-09T12:45:01Z</time>
      </trkpt>
      <trkpt lat="46.79845" lon="5.75143">
        <ele>541.4</ele>
        <time>2022-03-09T12:45:02Z</time>
      </trkpt>
      <trkpt lat="46.79849" lon="5.7514">
        <ele>541.4</ele>
        <time>2022-03-09T12:45:03Z</time>
      </trkpt>
      <trkpt lat="46.79852" lon="5.75137">
        <ele>541.2</ele>
        <time>2022-03-09T12:45:04Z</time>
      </trkpt>
      <trkpt lat="46.79854" lon="5.75133">
        <ele>541</ele>
        <time>2022-03-09T12:45:05Z</time>
      </trkpt>
      <trkpt lat="46.79855" lon="5.75128">
        <ele>541</ele>
        <time>2022-03-09T12:45:06Z</time>
      </trkpt>
      <trkpt lat="46.79855" lon="5.75124">
        <ele>540.6</ele>
        <time>2022-03-09T12:45:07Z</time>
      </trkpt>
      <trkpt lat="46.79854" lon="5.7512">
        <ele>540.6</ele>
        <time>2022-03-09T12:45:08Z</time>
      </trkpt>
      <trkpt lat="46.79852" lon="5.75117">
        <ele>540.4</ele>
        <time>2022-03-09T12:45:09Z</time>
      </trkpt>
      <trkpt lat="46.79849" lon="5.75113">
        <ele>540.4</ele>
        <time>2022-03-09T12:45:10Z</time>
      </trkpt>
      <trkpt lat="46.79847" lon="5.75109">
        <ele>540.4</ele>
        <time>2022-03-09T12:45:11Z</time>
      </trkpt>
      <trkpt lat="46.79844" lon="5.75105">
        <ele>540.4</ele>
        <time>2022-03-09T12:45:12Z</time>
      </trkpt>
      <trkpt lat="46.79841" lon="5.75101">
        <ele>540.4</ele>
        <time>2022-03-09T12:45:13Z</time>
      </trkpt>
      <trkpt lat="46.79837" lon="5.75097">
        <ele>540.4</ele>
        <time>2022-03-09T12:45:14Z</time>
      </trkpt>
      <trkpt lat="46.79833" lon="5.75094">
        <ele>540.4</ele>
        <time>2022-03-09T12:45:15Z</time>
      </trkpt>
      <trkpt lat="46.79829" lon="5.7509">
        <ele>540.2</ele>
        <time>2022-03-09T12:45:16Z</time>
      </trkpt>
      <trkpt lat="46.79824" lon="5.75087">
        <ele>540.2</ele>
        <time>2022-03-09T12:45:17Z</time>
      </trkpt>
      <trkpt lat="46.79819" lon="5.75083">
        <ele>539.8</ele>
        <time>2022-03-09T12:45:18Z</time>
      </trkpt>
      <trkpt lat="46.79814" lon="5.7508">
        <ele>539.8</ele>
        <time>2022-03-09T12:45:19Z</time>
      </trkpt>
      <trkpt lat="46.79809" lon="5.75077">
        <ele>539.4</ele>
        <time>2022-03-09T12:45:20Z</time>
      </trkpt>
      <trkpt lat="46.79803" lon="5.75073">
        <ele>539.4</ele>
        <time>2022-03-09T12:45:21Z</time>
      </trkpt>
      <trkpt lat="46.79798" lon="5.75069">
        <ele>539.2</ele>
        <time>2022-03-09T12:45:22Z</time>
      </trkpt>
      <trkpt lat="46.79792" lon="5.75066">
        <ele>539.2</ele>
        <time>2022-03-09T12:45:23Z</time>
      </trkpt>
      <trkpt lat="46.79787" lon="5.75062">
        <ele>539.2</ele>
        <time>2022-03-09T12:45:24Z</time>
      </trkpt>
      <trkpt lat="46.79782" lon="5.75058">
        <ele>539</ele>
        <time>2022-03-09T12:45:25Z</time>
      </trkpt>
      <trkpt lat="46.79776" lon="5.75054">
        <ele>539</ele>
        <time>2022-03-09T12:45:26Z</time>
      </trkpt>
      <trkpt lat="46.79771" lon="5.75049">
        <ele>539</ele>
        <time>2022-03-09T12:45:27Z</time>
      </trkpt>
      <trkpt lat="46.79765" lon="5.75045">
        <ele>539</ele>
        <time>2022-03-09T12:45:28Z</time>
      </trkpt>
      <trkpt lat="46.79759" lon="5.75041">
        <ele>539</ele>
        <time>2022-03-09T12:45:29Z</time>
      </trkpt>
      <trkpt lat="46.79753" lon="5.75036">
        <ele>539</ele>
        <time>2022-03-09T12:45:30Z</time>
      </trkpt>
      <trkpt lat="46.79747" lon="5.75032">
        <ele>539</ele>
        <time>2022-03-09T12:45:31Z</time>
      </trkpt>
      <trkpt lat="46.79742" lon="5.75028">
        <ele>539.4</ele>
        <time>2022-03-09T12:45:32Z</time>
      </trkpt>
      <trkpt lat="46.79736" lon="5.75025">
        <ele>539.6</ele>
        <time>2022-03-09T12:45:33Z</time>
      </trkpt>
      <trkpt lat="46.79731" lon="5.75021">
        <ele>539.8</ele>
        <time>2022-03-09T12:45:34Z</time>
      </trkpt>
      <trkpt lat="46.79725" lon="5.75017">
        <ele>540.2</ele>
        <time>2022-03-09T12:45:35Z</time>
      </trkpt>
      <trkpt lat="46.7972" lon="5.75015">
        <ele>540.4</ele>
        <time>2022-03-09T12:45:36Z</time>
      </trkpt>
      <trkpt lat="46.79715" lon="5.75012">
        <ele>540.8</ele>
        <time>2022-03-09T12:45:37Z</time>
      </trkpt>
      <trkpt lat="46.7971" lon="5.75009">
        <ele>541.2</ele>
        <time>2022-03-09T12:45:38Z</time>
      </trkpt>
      <trkpt lat="46.79705" lon="5.75007">
        <ele>541.6</ele>
        <time>2022-03-09T12:45:39Z</time>
      </trkpt>
      <trkpt lat="46.797" lon="5.75004">
        <ele>542</ele>
        <time>2022-03-09T12:45:40Z</time>
      </trkpt>
      <trkpt lat="46.79694" lon="5.75002">
        <ele>542.2</ele>
        <time>2022-03-09T12:45:41Z</time>
      </trkpt>
      <trkpt lat="46.79689" lon="5.75">
        <ele>542.4</ele>
        <time>2022-03-09T12:45:42Z</time>
      </trkpt>
      <trkpt lat="46.79684" lon="5.74997">
        <ele>542.6</ele>
        <time>2022-03-09T12:45:43Z</time>
      </trkpt>
      <trkpt lat="46.79679" lon="5.74995">
        <ele>542.6</ele>
        <time>2022-03-09T12:45:44Z</time>
      </trkpt>
      <trkpt lat="46.79674" lon="5.74993">
        <ele>543</ele>
        <time>2022-03-09T12:45:45Z</time>
      </trkpt>
      <trkpt lat="46.7967" lon="5.7499">
        <ele>543</ele>
        <time>2022-03-09T12:45:46Z</time>
      </trkpt>
      <trkpt lat="46.79666" lon="5.74986">
        <ele>543.2</ele>
        <time>2022-03-09T12:45:47Z</time>
      </trkpt>
      <trkpt lat="46.79661" lon="5.74983">
        <ele>543.2</ele>
        <time>2022-03-09T12:45:48Z</time>
      </trkpt>
      <trkpt lat="46.79657" lon="5.74978">
        <ele>543.6</ele>
        <time>2022-03-09T12:45:49Z</time>
      </trkpt>
      <trkpt lat="46.79653" lon="5.74973">
        <ele>543.6</ele>
        <time>2022-03-09T12:45:50Z</time>
      </trkpt>
      <trkpt lat="46.79648" lon="5.74968">
        <ele>543.8</ele>
        <time>2022-03-09T12:45:51Z</time>
      </trkpt>
      <trkpt lat="46.79644" lon="5.74963">
        <ele>543.8</ele>
        <time>2022-03-09T12:45:52Z</time>
      </trkpt>
      <trkpt lat="46.7964" lon="5.74958">
        <ele>544</ele>
        <time>2022-03-09T12:45:53Z</time>
      </trkpt>
      <trkpt lat="46.79636" lon="5.74953">
        <ele>544</ele>
        <time>2022-03-09T12:45:54Z</time>
      </trkpt>
      <trkpt lat="46.79632" lon="5.74947">
        <ele>544</ele>
        <time>2022-03-09T12:45:55Z</time>
      </trkpt>
      <trkpt lat="46.79628" lon="5.74943">
        <ele>544</ele>
        <time>2022-03-09T12:45:56Z</time>
      </trkpt>
      <trkpt lat="46.79624" lon="5.74938">
        <ele>544.2</ele>
        <time>2022-03-09T12:45:57Z</time>
      </trkpt>
      <trkpt lat="46.7962" lon="5.74933">
        <ele>544.2</ele>
        <time>2022-03-09T12:45:58Z</time>
      </trkpt>
      <trkpt lat="46.79616" lon="5.74929">
        <ele>544.6</ele>
        <time>2022-03-09T12:45:59Z</time>
      </trkpt>
      <trkpt lat="46.79612" lon="5.74925">
        <ele>544.6</ele>
        <time>2022-03-09T12:46:00Z</time>
      </trkpt>
      <trkpt lat="46.79609" lon="5.74921">
        <ele>544.8</ele>
        <time>2022-03-09T12:46:01Z</time>
      </trkpt>
      <trkpt lat="46.79605" lon="5.74917">
        <ele>544.8</ele>
        <time>2022-03-09T12:46:02Z</time>
      </trkpt>
      <trkpt lat="46.79602" lon="5.74914">
        <ele>545.2</ele>
        <time>2022-03-09T12:46:03Z</time>
      </trkpt>
      <trkpt lat="46.79599" lon="5.7491">
        <ele>545.2</ele>
        <time>2022-03-09T12:46:04Z</time>
      </trkpt>
      <trkpt lat="46.79595" lon="5.74906">
        <ele>545.4</ele>
        <time>2022-03-09T12:46:05Z</time>
      </trkpt>
      <trkpt lat="46.79592" lon="5.74902">
        <ele>545.4</ele>
        <time>2022-03-09T12:46:06Z</time>
      </trkpt>
      <trkpt lat="46.79589" lon="5.74898">
        <ele>545.8</ele>
        <time>2022-03-09T12:46:07Z</time>
      </trkpt>
      <trkpt lat="46.79585" lon="5.74894">
        <ele>545.8</ele>
        <time>2022-03-09T12:46:08Z</time>
      </trkpt>
      <trkpt lat="46.79581" lon="5.7489">
        <ele>546</ele>
        <time>2022-03-09T12:46:09Z</time>
      </trkpt>
      <trkpt lat="46.79576" lon="5.74885">
        <ele>546</ele>
        <time>2022-03-09T12:46:10Z</time>
      </trkpt>
      <trkpt lat="46.79576" lon="5.74885">
        <ele>546</ele>
        <time>2022-03-09T12:46:11Z</time>
      </trkpt>
      <trkpt lat="46.79572" lon="5.74881">
        <ele>546</ele>
        <time>2022-03-09T12:46:12Z</time>
      </trkpt>
      <trkpt lat="46.79567" lon="5.74876">
        <ele>546</ele>
        <time>2022-03-09T12:46:13Z</time>
      </trkpt>
      <trkpt lat="46.79562" lon="5.74871">
        <ele>546</ele>
        <time>2022-03-09T12:46:14Z</time>
      </trkpt>
      <trkpt lat="46.79557" lon="5.74867">
        <ele>546</ele>
        <time>2022-03-09T12:46:15Z</time>
      </trkpt>
      <trkpt lat="46.79551" lon="5.74862">
        <ele>545.6</ele>
        <time>2022-03-09T12:46:16Z</time>
      </trkpt>
      <trkpt lat="46.79545" lon="5.74856">
        <ele>545.6</ele>
        <time>2022-03-09T12:46:17Z</time>
      </trkpt>
      <trkpt lat="46.79539" lon="5.74851">
        <ele>545.2</ele>
        <time>2022-03-09T12:46:18Z</time>
      </trkpt>
      <trkpt lat="46.79534" lon="5.74845">
        <ele>545</ele>
        <time>2022-03-09T12:46:19Z</time>
      </trkpt>
      <trkpt lat="46.79528" lon="5.74838">
        <ele>544.8</ele>
        <time>2022-03-09T12:46:20Z</time>
      </trkpt>
      <trkpt lat="46.79523" lon="5.74831">
        <ele>544.4</ele>
        <time>2022-03-09T12:46:21Z</time>
      </trkpt>
      <trkpt lat="46.79519" lon="5.74822">
        <ele>544.4</ele>
        <time>2022-03-09T12:46:22Z</time>
      </trkpt>
      <trkpt lat="46.79516" lon="5.74813">
        <ele>544.2</ele>
        <time>2022-03-09T12:46:23Z</time>
      </trkpt>
      <trkpt lat="46.79513" lon="5.74803">
        <ele>544.2</ele>
        <time>2022-03-09T12:46:24Z</time>
      </trkpt>
      <trkpt lat="46.79511" lon="5.74793">
        <ele>544.2</ele>
        <time>2022-03-09T12:46:25Z</time>
      </trkpt>
      <trkpt lat="46.79509" lon="5.74784">
        <ele>544.2</ele>
        <time>2022-03-09T12:46:26Z</time>
      </trkpt>
      <trkpt lat="46.79507" lon="5.74775">
        <ele>544</ele>
        <time>2022-03-09T12:46:27Z</time>
      </trkpt>
      <trkpt lat="46.79505" lon="5.74766">
        <ele>544</ele>
        <time>2022-03-09T12:46:28Z</time>
      </trkpt>
      <trkpt lat="46.79503" lon="5.74757">
        <ele>544</ele>
        <time>2022-03-09T12:46:29Z</time>
      </trkpt>
      <trkpt lat="46.795" lon="5.74749">
        <ele>544</ele>
        <time>2022-03-09T12:46:30Z</time>
      </trkpt>
      <trkpt lat="46.79498" lon="5.74741">
        <ele>544</ele>
        <time>2022-03-09T12:46:31Z</time>
      </trkpt>
      <trkpt lat="46.79495" lon="5.74734">
        <ele>544.4</ele>
        <time>2022-03-09T12:46:32Z</time>
      </trkpt>
      <trkpt lat="46.79492" lon="5.74727">
        <ele>544.4</ele>
        <time>2022-03-09T12:46:33Z</time>
      </trkpt>
      <trkpt lat="46.79489" lon="5.74722">
        <ele>544.8</ele>
        <time>2022-03-09T12:46:34Z</time>
      </trkpt>
      <trkpt lat="46.79486" lon="5.74717">
        <ele>545.2</ele>
        <time>2022-03-09T12:46:35Z</time>
      </trkpt>
      <trkpt lat="46.79483" lon="5.74713">
        <ele>545.6</ele>
        <time>2022-03-09T12:46:36Z</time>
      </trkpt>
      <trkpt lat="46.79479" lon="5.74708">
        <ele>545.8</ele>
        <time>2022-03-09T12:46:37Z</time>
      </trkpt>
      <trkpt lat="46.79475" lon="5.74703">
        <ele>546</ele>
        <time>2022-03-09T12:46:38Z</time>
      </trkpt>
      <trkpt lat="46.7947" lon="5.74699">
        <ele>546</ele>
        <time>2022-03-09T12:46:39Z</time>
      </trkpt>
      <trkpt lat="46.79466" lon="5.74695">
        <ele>546.4</ele>
        <time>2022-03-09T12:46:40Z</time>
      </trkpt>
      <trkpt lat="46.79462" lon="5.74691">
        <ele>546.6</ele>
        <time>2022-03-09T12:46:41Z</time>
      </trkpt>
      <trkpt lat="46.79458" lon="5.74687">
        <ele>546.8</ele>
        <time>2022-03-09T12:46:42Z</time>
      </trkpt>
      <trkpt lat="46.79453" lon="5.74684">
        <ele>546.8</ele>
        <time>2022-03-09T12:46:43Z</time>
      </trkpt>
      <trkpt lat="46.79449" lon="5.7468">
        <ele>547</ele>
        <time>2022-03-09T12:46:44Z</time>
      </trkpt>
      <trkpt lat="46.79444" lon="5.74676">
        <ele>547</ele>
        <time>2022-03-09T12:46:45Z</time>
      </trkpt>
      <trkpt lat="46.79439" lon="5.74673">
        <ele>547</ele>
        <time>2022-03-09T12:46:46Z</time>
      </trkpt>
      <trkpt lat="46.79434" lon="5.74669">
        <ele>547</ele>
        <time>2022-03-09T12:46:47Z</time>
      </trkpt>
      <trkpt lat="46.7943" lon="5.74665">
        <ele>547</ele>
        <time>2022-03-09T12:46:48Z</time>
      </trkpt>
      <trkpt lat="46.79425" lon="5.74662">
        <ele>547</ele>
        <time>2022-03-09T12:46:49Z</time>
      </trkpt>
      <trkpt lat="46.7942" lon="5.74658">
        <ele>547.2</ele>
        <time>2022-03-09T12:46:50Z</time>
      </trkpt>
      <trkpt lat="46.79415" lon="5.74655">
        <ele>547.2</ele>
        <time>2022-03-09T12:46:51Z</time>
      </trkpt>
      <trkpt lat="46.7941" lon="5.74652">
        <ele>547.2</ele>
        <time>2022-03-09T12:46:52Z</time>
      </trkpt>
      <trkpt lat="46.79406" lon="5.74648">
        <ele>547.2</ele>
        <time>2022-03-09T12:46:53Z</time>
      </trkpt>
      <trkpt lat="46.794" lon="5.74646">
        <ele>547.2</ele>
        <time>2022-03-09T12:46:54Z</time>
      </trkpt>
      <trkpt lat="46.79395" lon="5.74643">
        <ele>547.2</ele>
        <time>2022-03-09T12:46:55Z</time>
      </trkpt>
      <trkpt lat="46.79389" lon="5.7464">
        <ele>547.2</ele>
        <time>2022-03-09T12:46:56Z</time>
      </trkpt>
      <trkpt lat="46.79383" lon="5.74638">
        <ele>547.2</ele>
        <time>2022-03-09T12:46:57Z</time>
      </trkpt>
      <trkpt lat="46.79377" lon="5.74635">
        <ele>547</ele>
        <time>2022-03-09T12:46:58Z</time>
      </trkpt>
      <trkpt lat="46.79371" lon="5.74633">
        <ele>547</ele>
        <time>2022-03-09T12:46:59Z</time>
      </trkpt>
      <trkpt lat="46.79365" lon="5.7463">
        <ele>547</ele>
        <time>2022-03-09T12:47:00Z</time>
      </trkpt>
      <trkpt lat="46.79358" lon="5.74628">
        <ele>547</ele>
        <time>2022-03-09T12:47:01Z</time>
      </trkpt>
      <trkpt lat="46.79352" lon="5.74626">
        <ele>547</ele>
        <time>2022-03-09T12:47:02Z</time>
      </trkpt>
      <trkpt lat="46.79346" lon="5.74623">
        <ele>547</ele>
        <time>2022-03-09T12:47:03Z</time>
      </trkpt>
      <trkpt lat="46.79339" lon="5.7462">
        <ele>547</ele>
        <time>2022-03-09T12:47:04Z</time>
      </trkpt>
      <trkpt lat="46.79333" lon="5.74618">
        <ele>547</ele>
        <time>2022-03-09T12:47:05Z</time>
      </trkpt>
      <trkpt lat="46.79327" lon="5.74614">
        <ele>547</ele>
        <time>2022-03-09T12:47:06Z</time>
      </trkpt>
      <trkpt lat="46.7932" lon="5.74611">
        <ele>546.8</ele>
        <time>2022-03-09T12:47:07Z</time>
      </trkpt>
      <trkpt lat="46.79314" lon="5.74609">
        <ele>546.8</ele>
        <time>2022-03-09T12:47:08Z</time>
      </trkpt>
      <trkpt lat="46.79306" lon="5.74606">
        <ele>546.4</ele>
        <time>2022-03-09T12:47:09Z</time>
      </trkpt>
      <trkpt lat="46.79299" lon="5.74604">
        <ele>546.2</ele>
        <time>2022-03-09T12:47:10Z</time>
      </trkpt>
      <trkpt lat="46.79292" lon="5.74601">
        <ele>545.8</ele>
        <time>2022-03-09T12:47:11Z</time>
      </trkpt>
      <trkpt lat="46.79285" lon="5.74598">
        <ele>545.6</ele>
        <time>2022-03-09T12:47:12Z</time>
      </trkpt>
      <trkpt lat="46.79278" lon="5.74595">
        <ele>545.2</ele>
        <time>2022-03-09T12:47:13Z</time>
      </trkpt>
      <trkpt lat="46.7927" lon="5.74592">
        <ele>545</ele>
        <time>2022-03-09T12:47:14Z</time>
      </trkpt>
      <trkpt lat="46.79262" lon="5.7459">
        <ele>544.6</ele>
        <time>2022-03-09T12:47:15Z</time>
      </trkpt>
      <trkpt lat="46.79253" lon="5.74587">
        <ele>544.4</ele>
        <time>2022-03-09T12:47:16Z</time>
      </trkpt>
      <trkpt lat="46.79245" lon="5.74585">
        <ele>544</ele>
        <time>2022-03-09T12:47:17Z</time>
      </trkpt>
      <trkpt lat="46.79237" lon="5.74583">
        <ele>543.8</ele>
        <time>2022-03-09T12:47:18Z</time>
      </trkpt>
      <trkpt lat="46.79229" lon="5.74581">
        <ele>543.6</ele>
        <time>2022-03-09T12:47:19Z</time>
      </trkpt>
      <trkpt lat="46.79222" lon="5.74579">
        <ele>543.2</ele>
        <time>2022-03-09T12:47:20Z</time>
      </trkpt>
      <trkpt lat="46.79214" lon="5.74577">
        <ele>543</ele>
        <time>2022-03-09T12:47:21Z</time>
      </trkpt>
      <trkpt lat="46.79206" lon="5.74576">
        <ele>543</ele>
        <time>2022-03-09T12:47:22Z</time>
      </trkpt>
      <trkpt lat="46.79199" lon="5.74574">
        <ele>542.8</ele>
        <time>2022-03-09T12:47:23Z</time>
      </trkpt>
      <trkpt lat="46.79192" lon="5.74572">
        <ele>542.8</ele>
        <time>2022-03-09T12:47:24Z</time>
      </trkpt>
      <trkpt lat="46.79185" lon="5.74571">
        <ele>542.8</ele>
        <time>2022-03-09T12:47:25Z</time>
      </trkpt>
      <trkpt lat="46.79178" lon="5.74569">
        <ele>542.8</ele>
        <time>2022-03-09T12:47:26Z</time>
      </trkpt>
      <trkpt lat="46.79172" lon="5.74568">
        <ele>542.8</ele>
        <time>2022-03-09T12:47:27Z</time>
      </trkpt>
      <trkpt lat="46.79167" lon="5.74567">
        <ele>543</ele>
        <time>2022-03-09T12:47:28Z</time>
      </trkpt>
      <trkpt lat="46.79162" lon="5.74566">
        <ele>543</ele>
        <time>2022-03-09T12:47:29Z</time>
      </trkpt>
      <trkpt lat="46.79157" lon="5.74565">
        <ele>543</ele>
        <time>2022-03-09T12:47:30Z</time>
      </trkpt>
      <trkpt lat="46.79151" lon="5.74564">
        <ele>543.2</ele>
        <time>2022-03-09T12:47:31Z</time>
      </trkpt>
      <trkpt lat="46.79146" lon="5.74564">
        <ele>543.2</ele>
        <time>2022-03-09T12:47:32Z</time>
      </trkpt>
      <trkpt lat="46.7914" lon="5.74563">
        <ele>542.8</ele>
        <time>2022-03-09T12:47:33Z</time>
      </trkpt>
      <trkpt lat="46.79133" lon="5.74562">
        <ele>542.6</ele>
        <time>2022-03-09T12:47:34Z</time>
      </trkpt>
      <trkpt lat="46.79126" lon="5.74561">
        <ele>542.2</ele>
        <time>2022-03-09T12:47:35Z</time>
      </trkpt>
      <trkpt lat="46.79118" lon="5.7456">
        <ele>542.2</ele>
        <time>2022-03-09T12:47:36Z</time>
      </trkpt>
      <trkpt lat="46.79111" lon="5.74558">
        <ele>541.8</ele>
        <time>2022-03-09T12:47:37Z</time>
      </trkpt>
      <trkpt lat="46.79104" lon="5.74557">
        <ele>541.8</ele>
        <time>2022-03-09T12:47:38Z</time>
      </trkpt>
      <trkpt lat="46.79096" lon="5.74556">
        <ele>541.6</ele>
        <time>2022-03-09T12:47:39Z</time>
      </trkpt>
      <trkpt lat="46.79089" lon="5.74555">
        <ele>541.6</ele>
        <time>2022-03-09T12:47:40Z</time>
      </trkpt>
      <trkpt lat="46.79082" lon="5.74554">
        <ele>541.6</ele>
        <time>2022-03-09T12:47:41Z</time>
      </trkpt>
      <trkpt lat="46.79076" lon="5.74553">
        <ele>542</ele>
        <time>2022-03-09T12:47:42Z</time>
      </trkpt>
      <trkpt lat="46.7907" lon="5.74551">
        <ele>542</ele>
        <time>2022-03-09T12:47:43Z</time>
      </trkpt>
      <trkpt lat="46.79064" lon="5.74549">
        <ele>542.4</ele>
        <time>2022-03-09T12:47:44Z</time>
      </trkpt>
      <trkpt lat="46.79059" lon="5.74548">
        <ele>542.6</ele>
        <time>2022-03-09T12:47:45Z</time>
      </trkpt>
      <trkpt lat="46.79053" lon="5.74547">
        <ele>542.6</ele>
        <time>2022-03-09T12:47:46Z</time>
      </trkpt>
      <trkpt lat="46.79047" lon="5.74546">
        <ele>542.8</ele>
        <time>2022-03-09T12:47:47Z</time>
      </trkpt>
      <trkpt lat="46.79042" lon="5.74544">
        <ele>542.8</ele>
        <time>2022-03-09T12:47:48Z</time>
      </trkpt>
      <trkpt lat="46.79037" lon="5.74543">
        <ele>542.8</ele>
        <time>2022-03-09T12:47:49Z</time>
      </trkpt>
      <trkpt lat="46.79031" lon="5.74542">
        <ele>543.2</ele>
        <time>2022-03-09T12:47:50Z</time>
      </trkpt>
      <trkpt lat="46.79026" lon="5.7454">
        <ele>543.2</ele>
        <time>2022-03-09T12:47:51Z</time>
      </trkpt>
      <trkpt lat="46.79021" lon="5.74539">
        <ele>543.6</ele>
        <time>2022-03-09T12:47:52Z</time>
      </trkpt>
      <trkpt lat="46.79015" lon="5.74538">
        <ele>543.6</ele>
        <time>2022-03-09T12:47:53Z</time>
      </trkpt>
      <trkpt lat="46.7901" lon="5.74537">
        <ele>543.8</ele>
        <time>2022-03-09T12:47:54Z</time>
      </trkpt>
      <trkpt lat="46.79005" lon="5.74536">
        <ele>543.8</ele>
        <time>2022-03-09T12:47:55Z</time>
      </trkpt>
      <trkpt lat="46.79" lon="5.74535">
        <ele>544</ele>
        <time>2022-03-09T12:47:56Z</time>
      </trkpt>
      <trkpt lat="46.78994" lon="5.74534">
        <ele>544.4</ele>
        <time>2022-03-09T12:47:57Z</time>
      </trkpt>
      <trkpt lat="46.78989" lon="5.74533">
        <ele>544.4</ele>
        <time>2022-03-09T12:47:58Z</time>
      </trkpt>
      <trkpt lat="46.78979" lon="5.74531">
        <ele>544.6</ele>
        <time>2022-03-09T12:47:59Z</time>
      </trkpt>
      <trkpt lat="46.78974" lon="5.7453">
        <ele>544.6</ele>
        <time>2022-03-09T12:48:00Z</time>
      </trkpt>
      <trkpt lat="46.7897" lon="5.74529">
        <ele>545</ele>
        <time>2022-03-09T12:48:01Z</time>
      </trkpt>
      <trkpt lat="46.78965" lon="5.74528">
        <ele>545</ele>
        <time>2022-03-09T12:48:02Z</time>
      </trkpt>
      <trkpt lat="46.7896" lon="5.74527">
        <ele>545.2</ele>
        <time>2022-03-09T12:48:03Z</time>
      </trkpt>
      <trkpt lat="46.78955" lon="5.74526">
        <ele>545.2</ele>
        <time>2022-03-09T12:48:04Z</time>
      </trkpt>
      <trkpt lat="46.7895" lon="5.74525">
        <ele>545.4</ele>
        <time>2022-03-09T12:48:05Z</time>
      </trkpt>
      <trkpt lat="46.78945" lon="5.74524">
        <ele>545.4</ele>
        <time>2022-03-09T12:48:06Z</time>
      </trkpt>
      <trkpt lat="46.7894" lon="5.74524">
        <ele>545.4</ele>
        <time>2022-03-09T12:48:07Z</time>
      </trkpt>
      <trkpt lat="46.78934" lon="5.74523">
        <ele>545.2</ele>
        <time>2022-03-09T12:48:08Z</time>
      </trkpt>
      <trkpt lat="46.78928" lon="5.74522">
        <ele>545.2</ele>
        <time>2022-03-09T12:48:09Z</time>
      </trkpt>
      <trkpt lat="46.78922" lon="5.74521">
        <ele>545.2</ele>
        <time>2022-03-09T12:48:10Z</time>
      </trkpt>
      <trkpt lat="46.78915" lon="5.74519">
        <ele>544.8</ele>
        <time>2022-03-09T12:48:11Z</time>
      </trkpt>
      <trkpt lat="46.78908" lon="5.74517">
        <ele>544.8</ele>
        <time>2022-03-09T12:48:12Z</time>
      </trkpt>
      <trkpt lat="46.78901" lon="5.74515">
        <ele>544.6</ele>
        <time>2022-03-09T12:48:13Z</time>
      </trkpt>
      <trkpt lat="46.78895" lon="5.74512">
        <ele>544.4</ele>
        <time>2022-03-09T12:48:14Z</time>
      </trkpt>
      <trkpt lat="46.78888" lon="5.74508">
        <ele>544.4</ele>
        <time>2022-03-09T12:48:15Z</time>
      </trkpt>
      <trkpt lat="46.78882" lon="5.74503">
        <ele>544.2</ele>
        <time>2022-03-09T12:48:16Z</time>
      </trkpt>
      <trkpt lat="46.78876" lon="5.74498">
        <ele>544.2</ele>
        <time>2022-03-09T12:48:17Z</time>
      </trkpt>
      <trkpt lat="46.78871" lon="5.74493">
        <ele>544.2</ele>
        <time>2022-03-09T12:48:18Z</time>
      </trkpt>
      <trkpt lat="46.78865" lon="5.74488">
        <ele>544.2</ele>
        <time>2022-03-09T12:48:19Z</time>
      </trkpt>
      <trkpt lat="46.78859" lon="5.74483">
        <ele>544.2</ele>
        <time>2022-03-09T12:48:20Z</time>
      </trkpt>
      <trkpt lat="46.78854" lon="5.74477">
        <ele>544.2</ele>
        <time>2022-03-09T12:48:21Z</time>
      </trkpt>
      <trkpt lat="46.78848" lon="5.74472">
        <ele>544.2</ele>
        <time>2022-03-09T12:48:22Z</time>
      </trkpt>
      <trkpt lat="46.78842" lon="5.74467">
        <ele>544.2</ele>
        <time>2022-03-09T12:48:23Z</time>
      </trkpt>
      <trkpt lat="46.78837" lon="5.74462">
        <ele>544.4</ele>
        <time>2022-03-09T12:48:24Z</time>
      </trkpt>
      <trkpt lat="46.78827" lon="5.74452">
        <ele>544.4</ele>
        <time>2022-03-09T12:48:25Z</time>
      </trkpt>
      <trkpt lat="46.78821" lon="5.74447">
        <ele>544.4</ele>
        <time>2022-03-09T12:48:26Z</time>
      </trkpt>
      <trkpt lat="46.78816" lon="5.74442">
        <ele>544.4</ele>
        <time>2022-03-09T12:48:27Z</time>
      </trkpt>
      <trkpt lat="46.7881" lon="5.74436">
        <ele>544.4</ele>
        <time>2022-03-09T12:48:28Z</time>
      </trkpt>
      <trkpt lat="46.78804" lon="5.74431">
        <ele>544.2</ele>
        <time>2022-03-09T12:48:29Z</time>
      </trkpt>
      <trkpt lat="46.78798" lon="5.74425">
        <ele>544.2</ele>
        <time>2022-03-09T12:48:30Z</time>
      </trkpt>
      <trkpt lat="46.78792" lon="5.7442">
        <ele>543.8</ele>
        <time>2022-03-09T12:48:31Z</time>
      </trkpt>
      <trkpt lat="46.78786" lon="5.74414">
        <ele>543.8</ele>
        <time>2022-03-09T12:48:32Z</time>
      </trkpt>
      <trkpt lat="46.7878" lon="5.74408">
        <ele>543.2</ele>
        <time>2022-03-09T12:48:33Z</time>
      </trkpt>
      <trkpt lat="46.78774" lon="5.74402">
        <ele>543</ele>
        <time>2022-03-09T12:48:34Z</time>
      </trkpt>
      <trkpt lat="46.78767" lon="5.74395">
        <ele>542.6</ele>
        <time>2022-03-09T12:48:35Z</time>
      </trkpt>
      <trkpt lat="46.7876" lon="5.74389">
        <ele>542.4</ele>
        <time>2022-03-09T12:48:36Z</time>
      </trkpt>
      <trkpt lat="46.78753" lon="5.74383">
        <ele>542</ele>
        <time>2022-03-09T12:48:37Z</time>
      </trkpt>
      <trkpt lat="46.78746" lon="5.74377">
        <ele>541.8</ele>
        <time>2022-03-09T12:48:38Z</time>
      </trkpt>
      <trkpt lat="46.78739" lon="5.74371">
        <ele>541.4</ele>
        <time>2022-03-09T12:48:39Z</time>
      </trkpt>
      <trkpt lat="46.78731" lon="5.74365">
        <ele>541.2</ele>
        <time>2022-03-09T12:48:40Z</time>
      </trkpt>
      <trkpt lat="46.78724" lon="5.74358">
        <ele>540.8</ele>
        <time>2022-03-09T12:48:41Z</time>
      </trkpt>
      <trkpt lat="46.78717" lon="5.74352">
        <ele>540.8</ele>
        <time>2022-03-09T12:48:42Z</time>
      </trkpt>
      <trkpt lat="46.7871" lon="5.74346">
        <ele>540.4</ele>
        <time>2022-03-09T12:48:43Z</time>
      </trkpt>
      <trkpt lat="46.78704" lon="5.7434">
        <ele>540.4</ele>
        <time>2022-03-09T12:48:44Z</time>
      </trkpt>
      <trkpt lat="46.78699" lon="5.74333">
        <ele>540.2</ele>
        <time>2022-03-09T12:48:45Z</time>
      </trkpt>
      <trkpt lat="46.78695" lon="5.74325">
        <ele>540.2</ele>
        <time>2022-03-09T12:48:46Z</time>
      </trkpt>
      <trkpt lat="46.7869" lon="5.74317">
        <ele>540.2</ele>
        <time>2022-03-09T12:48:47Z</time>
      </trkpt>
      <trkpt lat="46.78687" lon="5.74309">
        <ele>540.2</ele>
        <time>2022-03-09T12:48:48Z</time>
      </trkpt>
      <trkpt lat="46.78684" lon="5.74301">
        <ele>540.2</ele>
        <time>2022-03-09T12:48:49Z</time>
      </trkpt>
      <trkpt lat="46.78681" lon="5.74292">
        <ele>540</ele>
        <time>2022-03-09T12:48:50Z</time>
      </trkpt>
      <trkpt lat="46.78678" lon="5.74284">
        <ele>540</ele>
        <time>2022-03-09T12:48:51Z</time>
      </trkpt>
      <trkpt lat="46.78675" lon="5.74275">
        <ele>539.8</ele>
        <time>2022-03-09T12:48:52Z</time>
      </trkpt>
      <trkpt lat="46.78671" lon="5.74266">
        <ele>539.8</ele>
        <time>2022-03-09T12:48:53Z</time>
      </trkpt>
      <trkpt lat="46.78668" lon="5.74258">
        <ele>539.8</ele>
        <time>2022-03-09T12:48:54Z</time>
      </trkpt>
      <trkpt lat="46.78664" lon="5.74249">
        <ele>539.4</ele>
        <time>2022-03-09T12:48:55Z</time>
      </trkpt>
      <trkpt lat="46.7866" lon="5.7424">
        <ele>539</ele>
        <time>2022-03-09T12:48:57Z</time>
      </trkpt>
      <trkpt lat="46.78655" lon="5.74231">
        <ele>538.8</ele>
        <time>2022-03-09T12:48:58Z</time>
      </trkpt>
      <trkpt lat="46.7865" lon="5.74222">
        <ele>538.4</ele>
        <time>2022-03-09T12:48:59Z</time>
      </trkpt>
      <trkpt lat="46.78644" lon="5.74213">
        <ele>538</ele>
        <time>2022-03-09T12:49:00Z</time>
      </trkpt>
      <trkpt lat="46.78638" lon="5.74205">
        <ele>537.6</ele>
        <time>2022-03-09T12:49:01Z</time>
      </trkpt>
      <trkpt lat="46.78631" lon="5.74198">
        <ele>537.4</ele>
        <time>2022-03-09T12:49:02Z</time>
      </trkpt>
      <trkpt lat="46.78625" lon="5.74191">
        <ele>537</ele>
        <time>2022-03-09T12:49:03Z</time>
      </trkpt>
      <trkpt lat="46.78618" lon="5.74185">
        <ele>536.6</ele>
        <time>2022-03-09T12:49:04Z</time>
      </trkpt>
      <trkpt lat="46.78611" lon="5.7418">
        <ele>536.4</ele>
        <time>2022-03-09T12:49:05Z</time>
      </trkpt>
      <trkpt lat="46.78603" lon="5.74174">
        <ele>536.2</ele>
        <time>2022-03-09T12:49:06Z</time>
      </trkpt>
      <trkpt lat="46.78596" lon="5.74169">
        <ele>536</ele>
        <time>2022-03-09T12:49:07Z</time>
      </trkpt>
      <trkpt lat="46.78588" lon="5.74164">
        <ele>535.6</ele>
        <time>2022-03-09T12:49:08Z</time>
      </trkpt>
      <trkpt lat="46.7858" lon="5.74158">
        <ele>535.2</ele>
        <time>2022-03-09T12:49:09Z</time>
      </trkpt>
      <trkpt lat="46.78573" lon="5.74152">
        <ele>534.8</ele>
        <time>2022-03-09T12:49:10Z</time>
      </trkpt>
      <trkpt lat="46.78567" lon="5.74145">
        <ele>534.4</ele>
        <time>2022-03-09T12:49:11Z</time>
      </trkpt>
      <trkpt lat="46.7856" lon="5.74137">
        <ele>534</ele>
        <time>2022-03-09T12:49:12Z</time>
      </trkpt>
      <trkpt lat="46.78554" lon="5.74131">
        <ele>534</ele>
        <time>2022-03-09T12:49:13Z</time>
      </trkpt>
      <trkpt lat="46.78547" lon="5.74125">
        <ele>533.8</ele>
        <time>2022-03-09T12:49:14Z</time>
      </trkpt>
      <trkpt lat="46.7854" lon="5.7412">
        <ele>533.8</ele>
        <time>2022-03-09T12:49:15Z</time>
      </trkpt>
      <trkpt lat="46.78533" lon="5.74115">
        <ele>533.4</ele>
        <time>2022-03-09T12:49:16Z</time>
      </trkpt>
      <trkpt lat="46.78526" lon="5.7411">
        <ele>533.2</ele>
        <time>2022-03-09T12:49:17Z</time>
      </trkpt>
      <trkpt lat="46.78519" lon="5.74105">
        <ele>532.8</ele>
        <time>2022-03-09T12:49:18Z</time>
      </trkpt>
      <trkpt lat="46.78512" lon="5.74099">
        <ele>532.6</ele>
        <time>2022-03-09T12:49:19Z</time>
      </trkpt>
      <trkpt lat="46.78505" lon="5.74093">
        <ele>532.6</ele>
        <time>2022-03-09T12:49:20Z</time>
      </trkpt>
      <trkpt lat="46.78505" lon="5.74093">
        <ele>532.2</ele>
        <time>2022-03-09T12:49:21Z</time>
      </trkpt>
      <trkpt lat="46.785" lon="5.74087">
        <ele>532</ele>
        <time>2022-03-09T12:49:22Z</time>
      </trkpt>
      <trkpt lat="46.78494" lon="5.74081">
        <ele>532</ele>
        <time>2022-03-09T12:49:23Z</time>
      </trkpt>
      <trkpt lat="46.78489" lon="5.74074">
        <ele>531.8</ele>
        <time>2022-03-09T12:49:24Z</time>
      </trkpt>
      <trkpt lat="46.7848" lon="5.74059">
        <ele>531.4</ele>
        <time>2022-03-09T12:49:25Z</time>
      </trkpt>
      <trkpt lat="46.78475" lon="5.74051">
        <ele>531.2</ele>
        <time>2022-03-09T12:49:26Z</time>
      </trkpt>
      <trkpt lat="46.78471" lon="5.74043">
        <ele>530.8</ele>
        <time>2022-03-09T12:49:27Z</time>
      </trkpt>
      <trkpt lat="46.78466" lon="5.74035">
        <ele>530.4</ele>
        <time>2022-03-09T12:49:28Z</time>
      </trkpt>
      <trkpt lat="46.78462" lon="5.74027">
        <ele>530</ele>
        <time>2022-03-09T12:49:29Z</time>
      </trkpt>
      <trkpt lat="46.78458" lon="5.7402">
        <ele>529.6</ele>
        <time>2022-03-09T12:49:30Z</time>
      </trkpt>
      <trkpt lat="46.78453" lon="5.74013">
        <ele>529.2</ele>
        <time>2022-03-09T12:49:31Z</time>
      </trkpt>
      <trkpt lat="46.78448" lon="5.74006">
        <ele>529</ele>
        <time>2022-03-09T12:49:32Z</time>
      </trkpt>
      <trkpt lat="46.78443" lon="5.74">
        <ele>528.6</ele>
        <time>2022-03-09T12:49:33Z</time>
      </trkpt>
      <trkpt lat="46.78438" lon="5.73995">
        <ele>528.6</ele>
        <time>2022-03-09T12:49:34Z</time>
      </trkpt>
      <trkpt lat="46.78433" lon="5.7399">
        <ele>528.2</ele>
        <time>2022-03-09T12:49:35Z</time>
      </trkpt>
      <trkpt lat="46.78428" lon="5.73987">
        <ele>528.2</ele>
        <time>2022-03-09T12:49:36Z</time>
      </trkpt>
      <trkpt lat="46.78423" lon="5.73984">
        <ele>528</ele>
        <time>2022-03-09T12:49:37Z</time>
      </trkpt>
      <trkpt lat="46.78418" lon="5.73982">
        <ele>528</ele>
        <time>2022-03-09T12:49:38Z</time>
      </trkpt>
      <trkpt lat="46.78413" lon="5.73981">
        <ele>528</ele>
        <time>2022-03-09T12:49:39Z</time>
      </trkpt>
      <trkpt lat="46.78407" lon="5.7398">
        <ele>528</ele>
        <time>2022-03-09T12:49:40Z</time>
      </trkpt>
      <trkpt lat="46.78402" lon="5.73979">
        <ele>528</ele>
        <time>2022-03-09T12:49:41Z</time>
      </trkpt>
      <trkpt lat="46.78396" lon="5.73979">
        <ele>527.6</ele>
        <time>2022-03-09T12:49:42Z</time>
      </trkpt>
      <trkpt lat="46.78391" lon="5.73979">
        <ele>527.6</ele>
        <time>2022-03-09T12:49:43Z</time>
      </trkpt>
      <trkpt lat="46.78386" lon="5.7398">
        <ele>527.4</ele>
        <time>2022-03-09T12:49:44Z</time>
      </trkpt>
      <trkpt lat="46.78381" lon="5.73979">
        <ele>527.4</ele>
        <time>2022-03-09T12:49:45Z</time>
      </trkpt>
      <trkpt lat="46.78375" lon="5.7398">
        <ele>527.4</ele>
        <time>2022-03-09T12:49:46Z</time>
      </trkpt>
      <trkpt lat="46.7837" lon="5.7398">
        <ele>527.2</ele>
        <time>2022-03-09T12:49:47Z</time>
      </trkpt>
      <trkpt lat="46.78365" lon="5.7398">
        <ele>527.2</ele>
        <time>2022-03-09T12:49:48Z</time>
      </trkpt>
      <trkpt lat="46.78359" lon="5.73981">
        <ele>527.2</ele>
        <time>2022-03-09T12:49:49Z</time>
      </trkpt>
      <trkpt lat="46.78353" lon="5.73982">
        <ele>526.8</ele>
        <time>2022-03-09T12:49:50Z</time>
      </trkpt>
      <trkpt lat="46.78348" lon="5.73983">
        <ele>526.8</ele>
        <time>2022-03-09T12:49:51Z</time>
      </trkpt>
      <trkpt lat="46.78342" lon="5.73983">
        <ele>526.4</ele>
        <time>2022-03-09T12:49:52Z</time>
      </trkpt>
      <trkpt lat="46.78336" lon="5.73984">
        <ele>526.4</ele>
        <time>2022-03-09T12:49:53Z</time>
      </trkpt>
      <trkpt lat="46.7833" lon="5.73986">
        <ele>526.2</ele>
        <time>2022-03-09T12:49:54Z</time>
      </trkpt>
      <trkpt lat="46.78324" lon="5.73987">
        <ele>526.2</ele>
        <time>2022-03-09T12:49:55Z</time>
      </trkpt>
      <trkpt lat="46.78318" lon="5.73988">
        <ele>526.2</ele>
        <time>2022-03-09T12:49:56Z</time>
      </trkpt>
      <trkpt lat="46.78312" lon="5.73989">
        <ele>526</ele>
        <time>2022-03-09T12:49:57Z</time>
      </trkpt>
      <trkpt lat="46.78307" lon="5.73991">
        <ele>526</ele>
        <time>2022-03-09T12:49:58Z</time>
      </trkpt>
      <trkpt lat="46.78301" lon="5.73992">
        <ele>526</ele>
        <time>2022-03-09T12:49:59Z</time>
      </trkpt>
      <trkpt lat="46.78296" lon="5.73992">
        <ele>526</ele>
        <time>2022-03-09T12:50:00Z</time>
      </trkpt>
      <trkpt lat="46.7829" lon="5.73993">
        <ele>526</ele>
        <time>2022-03-09T12:50:01Z</time>
      </trkpt>
      <trkpt lat="46.78284" lon="5.73993">
        <ele>526</ele>
        <time>2022-03-09T12:50:02Z</time>
      </trkpt>
      <trkpt lat="46.78278" lon="5.73992">
        <ele>526</ele>
        <time>2022-03-09T12:50:03Z</time>
      </trkpt>
      <trkpt lat="46.78272" lon="5.7399">
        <ele>526</ele>
        <time>2022-03-09T12:50:04Z</time>
      </trkpt>
      <trkpt lat="46.78266" lon="5.73988">
        <ele>526</ele>
        <time>2022-03-09T12:50:05Z</time>
      </trkpt>
      <trkpt lat="46.78261" lon="5.73986">
        <ele>526</ele>
        <time>2022-03-09T12:50:06Z</time>
      </trkpt>
      <trkpt lat="46.78255" lon="5.73984">
        <ele>526</ele>
        <time>2022-03-09T12:50:07Z</time>
      </trkpt>
      <trkpt lat="46.7825" lon="5.73981">
        <ele>526</ele>
        <time>2022-03-09T12:50:08Z</time>
      </trkpt>
      <trkpt lat="46.78244" lon="5.73979">
        <ele>526</ele>
        <time>2022-03-09T12:50:09Z</time>
      </trkpt>
      <trkpt lat="46.78239" lon="5.73976">
        <ele>526</ele>
        <time>2022-03-09T12:50:10Z</time>
      </trkpt>
      <trkpt lat="46.78234" lon="5.73974">
        <ele>526</ele>
        <time>2022-03-09T12:50:11Z</time>
      </trkpt>
      <trkpt lat="46.78229" lon="5.73972">
        <ele>526</ele>
        <time>2022-03-09T12:50:12Z</time>
      </trkpt>
      <trkpt lat="46.78224" lon="5.7397">
        <ele>526</ele>
        <time>2022-03-09T12:50:13Z</time>
      </trkpt>
      <trkpt lat="46.78219" lon="5.73968">
        <ele>526</ele>
        <time>2022-03-09T12:50:14Z</time>
      </trkpt>
      <trkpt lat="46.78213" lon="5.73966">
        <ele>526</ele>
        <time>2022-03-09T12:50:15Z</time>
      </trkpt>
      <trkpt lat="46.78207" lon="5.73965">
        <ele>526</ele>
        <time>2022-03-09T12:50:16Z</time>
      </trkpt>
      <trkpt lat="46.78202" lon="5.73964">
        <ele>526</ele>
        <time>2022-03-09T12:50:17Z</time>
      </trkpt>
      <trkpt lat="46.78196" lon="5.73963">
        <ele>525.6</ele>
        <time>2022-03-09T12:50:18Z</time>
      </trkpt>
      <trkpt lat="46.78191" lon="5.73962">
        <ele>525.6</ele>
        <time>2022-03-09T12:50:19Z</time>
      </trkpt>
      <trkpt lat="46.78185" lon="5.73962">
        <ele>525.4</ele>
        <time>2022-03-09T12:50:20Z</time>
      </trkpt>
      <trkpt lat="46.78179" lon="5.73961">
        <ele>525.4</ele>
        <time>2022-03-09T12:50:21Z</time>
      </trkpt>
      <trkpt lat="46.78172" lon="5.73961">
        <ele>525.2</ele>
        <time>2022-03-09T12:50:22Z</time>
      </trkpt>
      <trkpt lat="46.78166" lon="5.73961">
        <ele>525.2</ele>
        <time>2022-03-09T12:50:23Z</time>
      </trkpt>
      <trkpt lat="46.7816" lon="5.7396">
        <ele>525.2</ele>
        <time>2022-03-09T12:50:24Z</time>
      </trkpt>
      <trkpt lat="46.78155" lon="5.7396">
        <ele>525.2</ele>
        <time>2022-03-09T12:50:25Z</time>
      </trkpt>
      <trkpt lat="46.7815" lon="5.7396">
        <ele>525.2</ele>
        <time>2022-03-09T12:50:26Z</time>
      </trkpt>
      <trkpt lat="46.78144" lon="5.73959">
        <ele>525.2</ele>
        <time>2022-03-09T12:50:27Z</time>
      </trkpt>
      <trkpt lat="46.78139" lon="5.73959">
        <ele>525.2</ele>
        <time>2022-03-09T12:50:28Z</time>
      </trkpt>
      <trkpt lat="46.78134" lon="5.73958">
        <ele>525.2</ele>
        <time>2022-03-09T12:50:29Z</time>
      </trkpt>
      <trkpt lat="46.78129" lon="5.73957">
        <ele>525.2</ele>
        <time>2022-03-09T12:50:30Z</time>
      </trkpt>
      <trkpt lat="46.78124" lon="5.73957">
        <ele>525.2</ele>
        <time>2022-03-09T12:50:31Z</time>
      </trkpt>
      <trkpt lat="46.78119" lon="5.73957">
        <ele>525.2</ele>
        <time>2022-03-09T12:50:32Z</time>
      </trkpt>
      <trkpt lat="46.78114" lon="5.73957">
        <ele>525</ele>
        <time>2022-03-09T12:50:33Z</time>
      </trkpt>
      <trkpt lat="46.78109" lon="5.73957">
        <ele>525</ele>
        <time>2022-03-09T12:50:34Z</time>
      </trkpt>
      <trkpt lat="46.78104" lon="5.73957">
        <ele>525</ele>
        <time>2022-03-09T12:50:35Z</time>
      </trkpt>
      <trkpt lat="46.78099" lon="5.73956">
        <ele>525</ele>
        <time>2022-03-09T12:50:36Z</time>
      </trkpt>
      <trkpt lat="46.78095" lon="5.73956">
        <ele>525</ele>
        <time>2022-03-09T12:50:37Z</time>
      </trkpt>
      <trkpt lat="46.78091" lon="5.73956">
        <ele>525</ele>
        <time>2022-03-09T12:50:38Z</time>
      </trkpt>
      <trkpt lat="46.78087" lon="5.73957">
        <ele>525</ele>
        <time>2022-03-09T12:50:39Z</time>
      </trkpt>
      <trkpt lat="46.78083" lon="5.73956">
        <ele>525</ele>
        <time>2022-03-09T12:50:40Z</time>
      </trkpt>
      <trkpt lat="46.78079" lon="5.73956">
        <ele>525</ele>
        <time>2022-03-09T12:50:41Z</time>
      </trkpt>
      <trkpt lat="46.78075" lon="5.73957">
        <ele>525</ele>
        <time>2022-03-09T12:50:42Z</time>
      </trkpt>
      <trkpt lat="46.78071" lon="5.73957">
        <ele>525.2</ele>
        <time>2022-03-09T12:50:43Z</time>
      </trkpt>
      <trkpt lat="46.78066" lon="5.73958">
        <ele>525.2</ele>
        <time>2022-03-09T12:50:44Z</time>
      </trkpt>
      <trkpt lat="46.78062" lon="5.73957">
        <ele>525.4</ele>
        <time>2022-03-09T12:50:45Z</time>
      </trkpt>
      <trkpt lat="46.78057" lon="5.73956">
        <ele>525.4</ele>
        <time>2022-03-09T12:50:46Z</time>
      </trkpt>
      <trkpt lat="46.78053" lon="5.73955">
        <ele>525.4</ele>
        <time>2022-03-09T12:50:47Z</time>
      </trkpt>
      <trkpt lat="46.78048" lon="5.73953">
        <ele>525.4</ele>
        <time>2022-03-09T12:50:48Z</time>
      </trkpt>
      <trkpt lat="46.78044" lon="5.73951">
        <ele>525.4</ele>
        <time>2022-03-09T12:50:49Z</time>
      </trkpt>
      <trkpt lat="46.78039" lon="5.7395">
        <ele>525.6</ele>
        <time>2022-03-09T12:50:50Z</time>
      </trkpt>
      <trkpt lat="46.78035" lon="5.73948">
        <ele>525.6</ele>
        <time>2022-03-09T12:50:51Z</time>
      </trkpt>
      <trkpt lat="46.7803" lon="5.73946">
        <ele>525.6</ele>
        <time>2022-03-09T12:50:52Z</time>
      </trkpt>
      <trkpt lat="46.78027" lon="5.73943">
        <ele>525.8</ele>
        <time>2022-03-09T12:50:53Z</time>
      </trkpt>
      <trkpt lat="46.78023" lon="5.73941">
        <ele>525.8</ele>
        <time>2022-03-09T12:50:54Z</time>
      </trkpt>
      <trkpt lat="46.78019" lon="5.7394">
        <ele>526.2</ele>
        <time>2022-03-09T12:50:55Z</time>
      </trkpt>
      <trkpt lat="46.78015" lon="5.73937">
        <ele>526.2</ele>
        <time>2022-03-09T12:50:56Z</time>
      </trkpt>
      <trkpt lat="46.78012" lon="5.73934">
        <ele>526.2</ele>
        <time>2022-03-09T12:50:57Z</time>
      </trkpt>
      <trkpt lat="46.78008" lon="5.73931">
        <ele>526.4</ele>
        <time>2022-03-09T12:50:58Z</time>
      </trkpt>
      <trkpt lat="46.78005" lon="5.73926">
        <ele>526.4</ele>
        <time>2022-03-09T12:50:59Z</time>
      </trkpt>
      <trkpt lat="46.78003" lon="5.73921">
        <ele>526.4</ele>
        <time>2022-03-09T12:51:00Z</time>
      </trkpt>
      <trkpt lat="46.78001" lon="5.73915">
        <ele>526.8</ele>
        <time>2022-03-09T12:51:01Z</time>
      </trkpt>
      <trkpt lat="46.77999" lon="5.7391">
        <ele>526.8</ele>
        <time>2022-03-09T12:51:02Z</time>
      </trkpt>
      <trkpt lat="46.77997" lon="5.73904">
        <ele>527</ele>
        <time>2022-03-09T12:51:03Z</time>
      </trkpt>
      <trkpt lat="46.77995" lon="5.73898">
        <ele>527</ele>
        <time>2022-03-09T12:51:04Z</time>
      </trkpt>
      <trkpt lat="46.77994" lon="5.73892">
        <ele>527.4</ele>
        <time>2022-03-09T12:51:05Z</time>
      </trkpt>
      <trkpt lat="46.77993" lon="5.73888">
        <ele>527.4</ele>
        <time>2022-03-09T12:51:06Z</time>
      </trkpt>
      <trkpt lat="46.77992" lon="5.73883">
        <ele>527.6</ele>
        <time>2022-03-09T12:51:07Z</time>
      </trkpt>
      <trkpt lat="46.7799" lon="5.73878">
        <ele>527.8</ele>
        <time>2022-03-09T12:51:08Z</time>
      </trkpt>
      <trkpt lat="46.77989" lon="5.73872">
        <ele>528.2</ele>
        <time>2022-03-09T12:51:09Z</time>
      </trkpt>
      <trkpt lat="46.77988" lon="5.73867">
        <ele>528.4</ele>
        <time>2022-03-09T12:51:10Z</time>
      </trkpt>
      <trkpt lat="46.77987" lon="5.73861">
        <ele>528.8</ele>
        <time>2022-03-09T12:51:11Z</time>
      </trkpt>
      <trkpt lat="46.77986" lon="5.73856">
        <ele>529</ele>
        <time>2022-03-09T12:51:12Z</time>
      </trkpt>
      <trkpt lat="46.77985" lon="5.73851">
        <ele>529.4</ele>
        <time>2022-03-09T12:51:13Z</time>
      </trkpt>
      <trkpt lat="46.77985" lon="5.73845">
        <ele>529.8</ele>
        <time>2022-03-09T12:51:14Z</time>
      </trkpt>
      <trkpt lat="46.77984" lon="5.73839">
        <ele>530</ele>
        <time>2022-03-09T12:51:15Z</time>
      </trkpt>
      <trkpt lat="46.77985" lon="5.73833">
        <ele>530.2</ele>
        <time>2022-03-09T12:51:16Z</time>
      </trkpt>
      <trkpt lat="46.77985" lon="5.73827">
        <ele>530.2</ele>
        <time>2022-03-09T12:51:17Z</time>
      </trkpt>
      <trkpt lat="46.77986" lon="5.73821">
        <ele>530.6</ele>
        <time>2022-03-09T12:51:18Z</time>
      </trkpt>
      <trkpt lat="46.77988" lon="5.73815">
        <ele>530.8</ele>
        <time>2022-03-09T12:51:19Z</time>
      </trkpt>
      <trkpt lat="46.77991" lon="5.7381">
        <ele>531.2</ele>
        <time>2022-03-09T12:51:20Z</time>
      </trkpt>
      <trkpt lat="46.77993" lon="5.73805">
        <ele>531.4</ele>
        <time>2022-03-09T12:51:21Z</time>
      </trkpt>
      <trkpt lat="46.77995" lon="5.738">
        <ele>531.6</ele>
        <time>2022-03-09T12:51:22Z</time>
      </trkpt>
      <trkpt lat="46.77997" lon="5.73795">
        <ele>531.8</ele>
        <time>2022-03-09T12:51:23Z</time>
      </trkpt>
      <trkpt lat="46.77998" lon="5.7379">
        <ele>531.8</ele>
        <time>2022-03-09T12:51:24Z</time>
      </trkpt>
      <trkpt lat="46.78" lon="5.73785">
        <ele>531.8</ele>
        <time>2022-03-09T12:51:25Z</time>
      </trkpt>
      <trkpt lat="46.78" lon="5.73779">
        <ele>532.2</ele>
        <time>2022-03-09T12:51:26Z</time>
      </trkpt>
      <trkpt lat="46.78" lon="5.73779">
        <ele>532.2</ele>
        <time>2022-03-09T12:51:27Z</time>
      </trkpt>
      <trkpt lat="46.78001" lon="5.73774">
        <ele>532.6</ele>
        <time>2022-03-09T12:51:28Z</time>
      </trkpt>
      <trkpt lat="46.78002" lon="5.73768">
        <ele>532.8</ele>
        <time>2022-03-09T12:51:29Z</time>
      </trkpt>
      <trkpt lat="46.78003" lon="5.73762">
        <ele>532.8</ele>
        <time>2022-03-09T12:51:30Z</time>
      </trkpt>
      <trkpt lat="46.78003" lon="5.73756">
        <ele>533.2</ele>
        <time>2022-03-09T12:51:31Z</time>
      </trkpt>
      <trkpt lat="46.78004" lon="5.7375">
        <ele>533.4</ele>
        <time>2022-03-09T12:51:32Z</time>
      </trkpt>
      <trkpt lat="46.78004" lon="5.73745">
        <ele>533.6</ele>
        <time>2022-03-09T12:51:33Z</time>
      </trkpt>
      <trkpt lat="46.78004" lon="5.73739">
        <ele>534</ele>
        <time>2022-03-09T12:51:34Z</time>
      </trkpt>
      <trkpt lat="46.78003" lon="5.73734">
        <ele>534.2</ele>
        <time>2022-03-09T12:51:35Z</time>
      </trkpt>
      <trkpt lat="46.78002" lon="5.73728">
        <ele>534.2</ele>
        <time>2022-03-09T12:51:36Z</time>
      </trkpt>
      <trkpt lat="46.78" lon="5.73723">
        <ele>534.4</ele>
        <time>2022-03-09T12:51:37Z</time>
      </trkpt>
      <trkpt lat="46.77999" lon="5.73717">
        <ele>534.6</ele>
        <time>2022-03-09T12:51:38Z</time>
      </trkpt>
      <trkpt lat="46.77998" lon="5.73712">
        <ele>535</ele>
        <time>2022-03-09T12:51:39Z</time>
      </trkpt>
      <trkpt lat="46.77996" lon="5.73706">
        <ele>535.2</ele>
        <time>2022-03-09T12:51:40Z</time>
      </trkpt>
      <trkpt lat="46.77994" lon="5.73701">
        <ele>535.4</ele>
        <time>2022-03-09T12:51:41Z</time>
      </trkpt>
      <trkpt lat="46.77993" lon="5.73696">
        <ele>535.6</ele>
        <time>2022-03-09T12:51:42Z</time>
      </trkpt>
      <trkpt lat="46.77991" lon="5.73691">
        <ele>536</ele>
        <time>2022-03-09T12:51:43Z</time>
      </trkpt>
      <trkpt lat="46.7799" lon="5.73686">
        <ele>536.2</ele>
        <time>2022-03-09T12:51:44Z</time>
      </trkpt>
      <trkpt lat="46.77988" lon="5.73682">
        <ele>536.2</ele>
        <time>2022-03-09T12:51:45Z</time>
      </trkpt>
      <trkpt lat="46.77986" lon="5.73678">
        <ele>536.4</ele>
        <time>2022-03-09T12:51:46Z</time>
      </trkpt>
      <trkpt lat="46.77984" lon="5.73674">
        <ele>536.4</ele>
        <time>2022-03-09T12:51:47Z</time>
      </trkpt>
      <trkpt lat="46.77982" lon="5.73671">
        <ele>536.8</ele>
        <time>2022-03-09T12:51:48Z</time>
      </trkpt>
      <trkpt lat="46.77979" lon="5.73667">
        <ele>536.8</ele>
        <time>2022-03-09T12:51:49Z</time>
      </trkpt>
      <trkpt lat="46.77976" lon="5.73663">
        <ele>537</ele>
        <time>2022-03-09T12:51:50Z</time>
      </trkpt>
      <trkpt lat="46.77974" lon="5.73658">
        <ele>537</ele>
        <time>2022-03-09T12:51:51Z</time>
      </trkpt>
      <trkpt lat="46.77971" lon="5.73654">
        <ele>537</ele>
        <time>2022-03-09T12:51:52Z</time>
      </trkpt>
      <trkpt lat="46.77969" lon="5.7365">
        <ele>537</ele>
        <time>2022-03-09T12:51:53Z</time>
      </trkpt>
      <trkpt lat="46.77967" lon="5.73644">
        <ele>537</ele>
        <time>2022-03-09T12:51:54Z</time>
      </trkpt>
      <trkpt lat="46.77965" lon="5.73638">
        <ele>537</ele>
        <time>2022-03-09T12:51:55Z</time>
      </trkpt>
      <trkpt lat="46.77964" lon="5.73632">
        <ele>536.8</ele>
        <time>2022-03-09T12:51:56Z</time>
      </trkpt>
      <trkpt lat="46.77962" lon="5.73626">
        <ele>536.8</ele>
        <time>2022-03-09T12:51:57Z</time>
      </trkpt>
      <trkpt lat="46.77961" lon="5.73619">
        <ele>536.8</ele>
        <time>2022-03-09T12:51:58Z</time>
      </trkpt>
      <trkpt lat="46.7796" lon="5.73612">
        <ele>536.4</ele>
        <time>2022-03-09T12:51:59Z</time>
      </trkpt>
      <trkpt lat="46.77958" lon="5.73605">
        <ele>536.2</ele>
        <time>2022-03-09T12:52:00Z</time>
      </trkpt>
      <trkpt lat="46.77957" lon="5.73598">
        <ele>535.8</ele>
        <time>2022-03-09T12:52:01Z</time>
      </trkpt>
      <trkpt lat="46.77956" lon="5.7359">
        <ele>535.6</ele>
        <time>2022-03-09T12:52:02Z</time>
      </trkpt>
      <trkpt lat="46.77954" lon="5.73581">
        <ele>535.4</ele>
        <time>2022-03-09T12:52:03Z</time>
      </trkpt>
      <trkpt lat="46.77953" lon="5.73573">
        <ele>535</ele>
        <time>2022-03-09T12:52:04Z</time>
      </trkpt>
      <trkpt lat="46.77949" lon="5.73556">
        <ele>534.8</ele>
        <time>2022-03-09T12:52:05Z</time>
      </trkpt>
      <trkpt lat="46.77947" lon="5.73545">
        <ele>534.4</ele>
        <time>2022-03-09T12:52:06Z</time>
      </trkpt>
      <trkpt lat="46.77944" lon="5.73535">
        <ele>534.2</ele>
        <time>2022-03-09T12:52:07Z</time>
      </trkpt>
      <trkpt lat="46.77942" lon="5.73524">
        <ele>533.8</ele>
        <time>2022-03-09T12:52:08Z</time>
      </trkpt>
      <trkpt lat="46.7794" lon="5.73514">
        <ele>533.4</ele>
        <time>2022-03-09T12:52:09Z</time>
      </trkpt>
      <trkpt lat="46.77937" lon="5.73503">
        <ele>532.8</ele>
        <time>2022-03-09T12:52:10Z</time>
      </trkpt>
      <trkpt lat="46.77935" lon="5.73493">
        <ele>532.4</ele>
        <time>2022-03-09T12:52:11Z</time>
      </trkpt>
      <trkpt lat="46.77932" lon="5.73482">
        <ele>532</ele>
        <time>2022-03-09T12:52:12Z</time>
      </trkpt>
      <trkpt lat="46.7793" lon="5.73471">
        <ele>531.6</ele>
        <time>2022-03-09T12:52:13Z</time>
      </trkpt>
      <trkpt lat="46.77927" lon="5.7346">
        <ele>531.2</ele>
        <time>2022-03-09T12:52:14Z</time>
      </trkpt>
      <trkpt lat="46.77925" lon="5.7345">
        <ele>531</ele>
        <time>2022-03-09T12:52:15Z</time>
      </trkpt>
      <trkpt lat="46.77922" lon="5.73439">
        <ele>530.6</ele>
        <time>2022-03-09T12:52:16Z</time>
      </trkpt>
      <trkpt lat="46.77919" lon="5.73429">
        <ele>530.4</ele>
        <time>2022-03-09T12:52:17Z</time>
      </trkpt>
      <trkpt lat="46.77916" lon="5.73418">
        <ele>530</ele>
        <time>2022-03-09T12:52:18Z</time>
      </trkpt>
      <trkpt lat="46.77914" lon="5.73408">
        <ele>529.8</ele>
        <time>2022-03-09T12:52:19Z</time>
      </trkpt>
      <trkpt lat="46.77912" lon="5.73399">
        <ele>529.6</ele>
        <time>2022-03-09T12:52:20Z</time>
      </trkpt>
      <trkpt lat="46.7791" lon="5.73389">
        <ele>529.6</ele>
        <time>2022-03-09T12:52:21Z</time>
      </trkpt>
      <trkpt lat="46.77907" lon="5.7338">
        <ele>529.4</ele>
        <time>2022-03-09T12:52:22Z</time>
      </trkpt>
      <trkpt lat="46.77905" lon="5.73371">
        <ele>529.4</ele>
        <time>2022-03-09T12:52:23Z</time>
      </trkpt>
      <trkpt lat="46.77903" lon="5.73364">
        <ele>529.4</ele>
        <time>2022-03-09T12:52:24Z</time>
      </trkpt>
      <trkpt lat="46.77901" lon="5.73356">
        <ele>529.4</ele>
        <time>2022-03-09T12:52:25Z</time>
      </trkpt>
      <trkpt lat="46.77899" lon="5.73349">
        <ele>529.6</ele>
        <time>2022-03-09T12:52:26Z</time>
      </trkpt>
      <trkpt lat="46.77897" lon="5.73341">
        <ele>529.6</ele>
        <time>2022-03-09T12:52:27Z</time>
      </trkpt>
      <trkpt lat="46.77895" lon="5.73334">
        <ele>529.8</ele>
        <time>2022-03-09T12:52:28Z</time>
      </trkpt>
      <trkpt lat="46.77893" lon="5.73328">
        <ele>529.8</ele>
        <time>2022-03-09T12:52:29Z</time>
      </trkpt>
      <trkpt lat="46.77891" lon="5.73321">
        <ele>529.8</ele>
        <time>2022-03-09T12:52:30Z</time>
      </trkpt>
      <trkpt lat="46.77889" lon="5.73314">
        <ele>530</ele>
        <time>2022-03-09T12:52:31Z</time>
      </trkpt>
      <trkpt lat="46.77888" lon="5.73307">
        <ele>530</ele>
        <time>2022-03-09T12:52:32Z</time>
      </trkpt>
      <trkpt lat="46.77886" lon="5.733">
        <ele>530.4</ele>
        <time>2022-03-09T12:52:33Z</time>
      </trkpt>
      <trkpt lat="46.77885" lon="5.73292">
        <ele>530.4</ele>
        <time>2022-03-09T12:52:34Z</time>
      </trkpt>
      <trkpt lat="46.77883" lon="5.73286">
        <ele>530.4</ele>
        <time>2022-03-09T12:52:35Z</time>
      </trkpt>
      <trkpt lat="46.77881" lon="5.7328">
        <ele>530.4</ele>
        <time>2022-03-09T12:52:36Z</time>
      </trkpt>
      <trkpt lat="46.77879" lon="5.73273">
        <ele>530.6</ele>
        <time>2022-03-09T12:52:37Z</time>
      </trkpt>
      <trkpt lat="46.77877" lon="5.73267">
        <ele>530.6</ele>
        <time>2022-03-09T12:52:38Z</time>
      </trkpt>
      <trkpt lat="46.77875" lon="5.7326">
        <ele>530.6</ele>
        <time>2022-03-09T12:52:39Z</time>
      </trkpt>
      <trkpt lat="46.77873" lon="5.73253">
        <ele>530.8</ele>
        <time>2022-03-09T12:52:40Z</time>
      </trkpt>
      <trkpt lat="46.77871" lon="5.73246">
        <ele>530.8</ele>
        <time>2022-03-09T12:52:41Z</time>
      </trkpt>
      <trkpt lat="46.7787" lon="5.7324">
        <ele>530.8</ele>
        <time>2022-03-09T12:52:42Z</time>
      </trkpt>
      <trkpt lat="46.77868" lon="5.73233">
        <ele>530.8</ele>
        <time>2022-03-09T12:52:43Z</time>
      </trkpt>
      <trkpt lat="46.77866" lon="5.73227">
        <ele>530.8</ele>
        <time>2022-03-09T12:52:44Z</time>
      </trkpt>
      <trkpt lat="46.77864" lon="5.7322">
        <ele>530.8</ele>
        <time>2022-03-09T12:52:45Z</time>
      </trkpt>
      <trkpt lat="46.77862" lon="5.73213">
        <ele>531</ele>
        <time>2022-03-09T12:52:46Z</time>
      </trkpt>
      <trkpt lat="46.7786" lon="5.73206">
        <ele>531</ele>
        <time>2022-03-09T12:52:47Z</time>
      </trkpt>
      <trkpt lat="46.77858" lon="5.732">
        <ele>531</ele>
        <time>2022-03-09T12:52:48Z</time>
      </trkpt>
      <trkpt lat="46.77855" lon="5.73193">
        <ele>531</ele>
        <time>2022-03-09T12:52:49Z</time>
      </trkpt>
      <trkpt lat="46.77852" lon="5.73186">
        <ele>531</ele>
        <time>2022-03-09T12:52:50Z</time>
      </trkpt>
      <trkpt lat="46.77849" lon="5.7318">
        <ele>531</ele>
        <time>2022-03-09T12:52:51Z</time>
      </trkpt>
      <trkpt lat="46.77846" lon="5.73173">
        <ele>531</ele>
        <time>2022-03-09T12:52:52Z</time>
      </trkpt>
      <trkpt lat="46.77842" lon="5.73168">
        <ele>530.8</ele>
        <time>2022-03-09T12:52:53Z</time>
      </trkpt>
      <trkpt lat="46.77838" lon="5.73162">
        <ele>530.8</ele>
        <time>2022-03-09T12:52:54Z</time>
      </trkpt>
      <trkpt lat="46.77834" lon="5.73157">
        <ele>530.8</ele>
        <time>2022-03-09T12:52:55Z</time>
      </trkpt>
      <trkpt lat="46.7783" lon="5.73152">
        <ele>530.8</ele>
        <time>2022-03-09T12:52:56Z</time>
      </trkpt>
      <trkpt lat="46.77826" lon="5.73147">
        <ele>530.8</ele>
        <time>2022-03-09T12:52:57Z</time>
      </trkpt>
      <trkpt lat="46.77821" lon="5.73142">
        <ele>530.8</ele>
        <time>2022-03-09T12:52:58Z</time>
      </trkpt>
      <trkpt lat="46.77817" lon="5.73137">
        <ele>530.8</ele>
        <time>2022-03-09T12:52:59Z</time>
      </trkpt>
      <trkpt lat="46.77813" lon="5.73133">
        <ele>530.8</ele>
        <time>2022-03-09T12:53:00Z</time>
      </trkpt>
      <trkpt lat="46.77808" lon="5.73129">
        <ele>530.8</ele>
        <time>2022-03-09T12:53:01Z</time>
      </trkpt>
      <trkpt lat="46.77804" lon="5.73125">
        <ele>531</ele>
        <time>2022-03-09T12:53:02Z</time>
      </trkpt>
      <trkpt lat="46.778" lon="5.73122">
        <ele>531.4</ele>
        <time>2022-03-09T12:53:03Z</time>
      </trkpt>
      <trkpt lat="46.77795" lon="5.73118">
        <ele>531.4</ele>
        <time>2022-03-09T12:53:04Z</time>
      </trkpt>
      <trkpt lat="46.77791" lon="5.73114">
        <ele>531.4</ele>
        <time>2022-03-09T12:53:05Z</time>
      </trkpt>
      <trkpt lat="46.77787" lon="5.73111">
        <ele>531.6</ele>
        <time>2022-03-09T12:53:06Z</time>
      </trkpt>
      <trkpt lat="46.77782" lon="5.73107">
        <ele>531.6</ele>
        <time>2022-03-09T12:53:07Z</time>
      </trkpt>
      <trkpt lat="46.77778" lon="5.73104">
        <ele>531.6</ele>
        <time>2022-03-09T12:53:08Z</time>
      </trkpt>
      <trkpt lat="46.77773" lon="5.731">
        <ele>531.6</ele>
        <time>2022-03-09T12:53:09Z</time>
      </trkpt>
      <trkpt lat="46.77769" lon="5.73096">
        <ele>531.6</ele>
        <time>2022-03-09T12:53:10Z</time>
      </trkpt>
      <trkpt lat="46.77764" lon="5.73092">
        <ele>531.6</ele>
        <time>2022-03-09T12:53:11Z</time>
      </trkpt>
      <trkpt lat="46.7776" lon="5.73088">
        <ele>531.6</ele>
        <time>2022-03-09T12:53:12Z</time>
      </trkpt>
      <trkpt lat="46.77756" lon="5.73084">
        <ele>531.6</ele>
        <time>2022-03-09T12:53:13Z</time>
      </trkpt>
      <trkpt lat="46.77751" lon="5.73081">
        <ele>531.6</ele>
        <time>2022-03-09T12:53:14Z</time>
      </trkpt>
      <trkpt lat="46.77746" lon="5.73077">
        <ele>531.4</ele>
        <time>2022-03-09T12:53:15Z</time>
      </trkpt>
      <trkpt lat="46.77742" lon="5.73074">
        <ele>531.4</ele>
        <time>2022-03-09T12:53:16Z</time>
      </trkpt>
      <trkpt lat="46.77737" lon="5.7307">
        <ele>531.2</ele>
        <time>2022-03-09T12:53:17Z</time>
      </trkpt>
      <trkpt lat="46.77732" lon="5.73065">
        <ele>531.2</ele>
        <time>2022-03-09T12:53:18Z</time>
      </trkpt>
      <trkpt lat="46.77727" lon="5.73061">
        <ele>530.8</ele>
        <time>2022-03-09T12:53:19Z</time>
      </trkpt>
      <trkpt lat="46.77722" lon="5.73058">
        <ele>530.8</ele>
        <time>2022-03-09T12:53:20Z</time>
      </trkpt>
      <trkpt lat="46.77716" lon="5.73054">
        <ele>530.6</ele>
        <time>2022-03-09T12:53:21Z</time>
      </trkpt>
      <trkpt lat="46.77711" lon="5.73051">
        <ele>530.4</ele>
        <time>2022-03-09T12:53:22Z</time>
      </trkpt>
      <trkpt lat="46.77705" lon="5.73048">
        <ele>530.4</ele>
        <time>2022-03-09T12:53:23Z</time>
      </trkpt>
      <trkpt lat="46.77698" lon="5.73045">
        <ele>529.8</ele>
        <time>2022-03-09T12:53:24Z</time>
      </trkpt>
      <trkpt lat="46.77692" lon="5.73042">
        <ele>529.4</ele>
        <time>2022-03-09T12:53:25Z</time>
      </trkpt>
      <trkpt lat="46.77685" lon="5.73039">
        <ele>529.2</ele>
        <time>2022-03-09T12:53:26Z</time>
      </trkpt>
      <trkpt lat="46.77678" lon="5.73034">
        <ele>528.8</ele>
        <time>2022-03-09T12:53:27Z</time>
      </trkpt>
      <trkpt lat="46.77672" lon="5.73029">
        <ele>528.4</ele>
        <time>2022-03-09T12:53:28Z</time>
      </trkpt>
      <trkpt lat="46.77665" lon="5.73024">
        <ele>528.2</ele>
        <time>2022-03-09T12:53:29Z</time>
      </trkpt>
      <trkpt lat="46.77659" lon="5.73018">
        <ele>528</ele>
        <time>2022-03-09T12:53:30Z</time>
      </trkpt>
      <trkpt lat="46.77654" lon="5.73012">
        <ele>528</ele>
        <time>2022-03-09T12:53:31Z</time>
      </trkpt>
      <trkpt lat="46.77648" lon="5.73005">
        <ele>528</ele>
        <time>2022-03-09T12:53:32Z</time>
      </trkpt>
      <trkpt lat="46.77643" lon="5.72999">
        <ele>527.6</ele>
        <time>2022-03-09T12:53:33Z</time>
      </trkpt>
      <trkpt lat="46.77638" lon="5.72994">
        <ele>527.6</ele>
        <time>2022-03-09T12:53:34Z</time>
      </trkpt>
      <trkpt lat="46.77632" lon="5.72989">
        <ele>527.6</ele>
        <time>2022-03-09T12:53:35Z</time>
      </trkpt>
      <trkpt lat="46.77626" lon="5.72985">
        <ele>527.2</ele>
        <time>2022-03-09T12:53:36Z</time>
      </trkpt>
      <trkpt lat="46.7762" lon="5.72981">
        <ele>527.2</ele>
        <time>2022-03-09T12:53:37Z</time>
      </trkpt>
      <trkpt lat="46.77614" lon="5.72977">
        <ele>527</ele>
        <time>2022-03-09T12:53:38Z</time>
      </trkpt>
      <trkpt lat="46.77608" lon="5.72974">
        <ele>526.8</ele>
        <time>2022-03-09T12:53:39Z</time>
      </trkpt>
      <trkpt lat="46.77601" lon="5.7297">
        <ele>526.8</ele>
        <time>2022-03-09T12:53:40Z</time>
      </trkpt>
      <trkpt lat="46.77595" lon="5.72966">
        <ele>526.6</ele>
        <time>2022-03-09T12:53:41Z</time>
      </trkpt>
      <trkpt lat="46.77589" lon="5.72963">
        <ele>526.6</ele>
        <time>2022-03-09T12:53:42Z</time>
      </trkpt>
      <trkpt lat="46.77583" lon="5.72959">
        <ele>526.6</ele>
        <time>2022-03-09T12:53:43Z</time>
      </trkpt>
      <trkpt lat="46.77577" lon="5.72956">
        <ele>526.6</ele>
        <time>2022-03-09T12:53:44Z</time>
      </trkpt>
      <trkpt lat="46.77572" lon="5.72953">
        <ele>526.6</ele>
        <time>2022-03-09T12:53:45Z</time>
      </trkpt>
      <trkpt lat="46.77566" lon="5.72949">
        <ele>526.6</ele>
        <time>2022-03-09T12:53:46Z</time>
      </trkpt>
      <trkpt lat="46.77561" lon="5.72945">
        <ele>526.8</ele>
        <time>2022-03-09T12:53:47Z</time>
      </trkpt>
      <trkpt lat="46.77556" lon="5.72941">
        <ele>526.8</ele>
        <time>2022-03-09T12:53:48Z</time>
      </trkpt>
      <trkpt lat="46.77551" lon="5.72937">
        <ele>526.8</ele>
        <time>2022-03-09T12:53:49Z</time>
      </trkpt>
      <trkpt lat="46.77546" lon="5.72932">
        <ele>526.8</ele>
        <time>2022-03-09T12:53:50Z</time>
      </trkpt>
      <trkpt lat="46.77541" lon="5.72927">
        <ele>526.8</ele>
        <time>2022-03-09T12:53:51Z</time>
      </trkpt>
      <trkpt lat="46.77537" lon="5.72922">
        <ele>526.8</ele>
        <time>2022-03-09T12:53:52Z</time>
      </trkpt>
      <trkpt lat="46.77532" lon="5.72917">
        <ele>526.8</ele>
        <time>2022-03-09T12:53:53Z</time>
      </trkpt>
      <trkpt lat="46.77528" lon="5.72913">
        <ele>526.8</ele>
        <time>2022-03-09T12:53:54Z</time>
      </trkpt>
      <trkpt lat="46.77523" lon="5.72908">
        <ele>526.8</ele>
        <time>2022-03-09T12:53:55Z</time>
      </trkpt>
      <trkpt lat="46.77518" lon="5.72903">
        <ele>526.8</ele>
        <time>2022-03-09T12:53:56Z</time>
      </trkpt>
      <trkpt lat="46.77513" lon="5.72898">
        <ele>526.6</ele>
        <time>2022-03-09T12:53:57Z</time>
      </trkpt>
      <trkpt lat="46.77508" lon="5.72893">
        <ele>526.6</ele>
        <time>2022-03-09T12:53:58Z</time>
      </trkpt>
      <trkpt lat="46.77503" lon="5.72888">
        <ele>526.2</ele>
        <time>2022-03-09T12:53:59Z</time>
      </trkpt>
      <trkpt lat="46.77498" lon="5.72882">
        <ele>526.2</ele>
        <time>2022-03-09T12:54:00Z</time>
      </trkpt>
      <trkpt lat="46.77493" lon="5.72877">
        <ele>526</ele>
        <time>2022-03-09T12:54:01Z</time>
      </trkpt>
      <trkpt lat="46.77488" lon="5.72871">
        <ele>526</ele>
        <time>2022-03-09T12:54:02Z</time>
      </trkpt>
      <trkpt lat="46.77483" lon="5.72866">
        <ele>525.8</ele>
        <time>2022-03-09T12:54:03Z</time>
      </trkpt>
      <trkpt lat="46.77477" lon="5.72861">
        <ele>525.8</ele>
        <time>2022-03-09T12:54:04Z</time>
      </trkpt>
      <trkpt lat="46.77472" lon="5.72856">
        <ele>525.6</ele>
        <time>2022-03-09T12:54:05Z</time>
      </trkpt>
      <trkpt lat="46.77467" lon="5.72851">
        <ele>525.6</ele>
        <time>2022-03-09T12:54:06Z</time>
      </trkpt>
      <trkpt lat="46.77461" lon="5.72846">
        <ele>525.6</ele>
        <time>2022-03-09T12:54:07Z</time>
      </trkpt>
      <trkpt lat="46.77456" lon="5.72841">
        <ele>525.2</ele>
        <time>2022-03-09T12:54:08Z</time>
      </trkpt>
      <trkpt lat="46.77451" lon="5.72836">
        <ele>525.2</ele>
        <time>2022-03-09T12:54:09Z</time>
      </trkpt>
      <trkpt lat="46.77445" lon="5.72831">
        <ele>525.2</ele>
        <time>2022-03-09T12:54:10Z</time>
      </trkpt>
      <trkpt lat="46.7744" lon="5.72827">
        <ele>525.2</ele>
        <time>2022-03-09T12:54:11Z</time>
      </trkpt>
      <trkpt lat="46.77434" lon="5.72823">
        <ele>525.2</ele>
        <time>2022-03-09T12:54:12Z</time>
      </trkpt>
      <trkpt lat="46.77429" lon="5.7282">
        <ele>525.4</ele>
        <time>2022-03-09T12:54:13Z</time>
      </trkpt>
      <trkpt lat="46.77423" lon="5.72818">
        <ele>525.4</ele>
        <time>2022-03-09T12:54:14Z</time>
      </trkpt>
      <trkpt lat="46.77417" lon="5.72816">
        <ele>525.4</ele>
        <time>2022-03-09T12:54:15Z</time>
      </trkpt>
      <trkpt lat="46.77412" lon="5.72814">
        <ele>525.4</ele>
        <time>2022-03-09T12:54:16Z</time>
      </trkpt>
      <trkpt lat="46.77405" lon="5.72811">
        <ele>525.4</ele>
        <time>2022-03-09T12:54:17Z</time>
      </trkpt>
      <trkpt lat="46.77399" lon="5.72809">
        <ele>525.4</ele>
        <time>2022-03-09T12:54:18Z</time>
      </trkpt>
      <trkpt lat="46.77393" lon="5.72807">
        <ele>525.4</ele>
        <time>2022-03-09T12:54:19Z</time>
      </trkpt>
      <trkpt lat="46.77388" lon="5.72804">
        <ele>525.4</ele>
        <time>2022-03-09T12:54:20Z</time>
      </trkpt>
      <trkpt lat="46.77382" lon="5.72801">
        <ele>525.4</ele>
        <time>2022-03-09T12:54:21Z</time>
      </trkpt>
      <trkpt lat="46.77377" lon="5.72797">
        <ele>525.4</ele>
        <time>2022-03-09T12:54:22Z</time>
      </trkpt>
      <trkpt lat="46.77373" lon="5.72793">
        <ele>525.8</ele>
        <time>2022-03-09T12:54:23Z</time>
      </trkpt>
      <trkpt lat="46.77369" lon="5.72789">
        <ele>525.8</ele>
        <time>2022-03-09T12:54:24Z</time>
      </trkpt>
      <trkpt lat="46.77365" lon="5.72785">
        <ele>526</ele>
        <time>2022-03-09T12:54:25Z</time>
      </trkpt>
      <trkpt lat="46.77362" lon="5.72779">
        <ele>526</ele>
        <time>2022-03-09T12:54:26Z</time>
      </trkpt>
      <trkpt lat="46.77359" lon="5.72773">
        <ele>526.4</ele>
        <time>2022-03-09T12:54:27Z</time>
      </trkpt>
      <trkpt lat="46.77357" lon="5.72767">
        <ele>526.4</ele>
        <time>2022-03-09T12:54:28Z</time>
      </trkpt>
      <trkpt lat="46.77355" lon="5.7276">
        <ele>526.6</ele>
        <time>2022-03-09T12:54:29Z</time>
      </trkpt>
      <trkpt lat="46.77353" lon="5.72753">
        <ele>526.6</ele>
        <time>2022-03-09T12:54:30Z</time>
      </trkpt>
      <trkpt lat="46.77352" lon="5.72746">
        <ele>526.6</ele>
        <time>2022-03-09T12:54:31Z</time>
      </trkpt>
      <trkpt lat="46.7735" lon="5.7274">
        <ele>526.8</ele>
        <time>2022-03-09T12:54:32Z</time>
      </trkpt>
      <trkpt lat="46.77348" lon="5.72733">
        <ele>527</ele>
        <time>2022-03-09T12:54:33Z</time>
      </trkpt>
      <trkpt lat="46.77345" lon="5.72727">
        <ele>527</ele>
        <time>2022-03-09T12:54:34Z</time>
      </trkpt>
      <trkpt lat="46.77342" lon="5.72722">
        <ele>527.4</ele>
        <time>2022-03-09T12:54:35Z</time>
      </trkpt>
      <trkpt lat="46.77338" lon="5.72717">
        <ele>527.4</ele>
        <time>2022-03-09T12:54:36Z</time>
      </trkpt>
      <trkpt lat="46.77334" lon="5.72714">
        <ele>527.8</ele>
        <time>2022-03-09T12:54:37Z</time>
      </trkpt>
      <trkpt lat="46.77329" lon="5.7271">
        <ele>528</ele>
        <time>2022-03-09T12:54:38Z</time>
      </trkpt>
      <trkpt lat="46.77325" lon="5.72708">
        <ele>528</ele>
        <time>2022-03-09T12:54:39Z</time>
      </trkpt>
      <trkpt lat="46.77321" lon="5.72705">
        <ele>528.2</ele>
        <time>2022-03-09T12:54:40Z</time>
      </trkpt>
      <trkpt lat="46.77316" lon="5.72704">
        <ele>528.2</ele>
        <time>2022-03-09T12:54:41Z</time>
      </trkpt>
      <trkpt lat="46.77311" lon="5.72702">
        <ele>528.6</ele>
        <time>2022-03-09T12:54:42Z</time>
      </trkpt>
      <trkpt lat="46.77307" lon="5.727">
        <ele>528.6</ele>
        <time>2022-03-09T12:54:43Z</time>
      </trkpt>
      <trkpt lat="46.77302" lon="5.72699">
        <ele>528.6</ele>
        <time>2022-03-09T12:54:44Z</time>
      </trkpt>
      <trkpt lat="46.77297" lon="5.72698">
        <ele>528.6</ele>
        <time>2022-03-09T12:54:45Z</time>
      </trkpt>
      <trkpt lat="46.77292" lon="5.72696">
        <ele>528.6</ele>
        <time>2022-03-09T12:54:46Z</time>
      </trkpt>
      <trkpt lat="46.77287" lon="5.72695">
        <ele>528.6</ele>
        <time>2022-03-09T12:54:47Z</time>
      </trkpt>
      <trkpt lat="46.77282" lon="5.72694">
        <ele>528.6</ele>
        <time>2022-03-09T12:54:48Z</time>
      </trkpt>
      <trkpt lat="46.77277" lon="5.72693">
        <ele>528.6</ele>
        <time>2022-03-09T12:54:49Z</time>
      </trkpt>
      <trkpt lat="46.77272" lon="5.72692">
        <ele>528.6</ele>
        <time>2022-03-09T12:54:50Z</time>
      </trkpt>
      <trkpt lat="46.77267" lon="5.7269">
        <ele>528.6</ele>
        <time>2022-03-09T12:54:51Z</time>
      </trkpt>
      <trkpt lat="46.77262" lon="5.72688">
        <ele>528.6</ele>
        <time>2022-03-09T12:54:52Z</time>
      </trkpt>
      <trkpt lat="46.77258" lon="5.72685">
        <ele>528.6</ele>
        <time>2022-03-09T12:54:53Z</time>
      </trkpt>
      <trkpt lat="46.77253" lon="5.72682">
        <ele>528.6</ele>
        <time>2022-03-09T12:54:54Z</time>
      </trkpt>
      <trkpt lat="46.77248" lon="5.72678">
        <ele>528.4</ele>
        <time>2022-03-09T12:54:55Z</time>
      </trkpt>
      <trkpt lat="46.77244" lon="5.72673">
        <ele>528.4</ele>
        <time>2022-03-09T12:54:56Z</time>
      </trkpt>
      <trkpt lat="46.77239" lon="5.72667">
        <ele>528</ele>
        <time>2022-03-09T12:54:57Z</time>
      </trkpt>
      <trkpt lat="46.77235" lon="5.72661">
        <ele>528</ele>
        <time>2022-03-09T12:54:58Z</time>
      </trkpt>
      <trkpt lat="46.77231" lon="5.72654">
        <ele>527.6</ele>
        <time>2022-03-09T12:54:59Z</time>
      </trkpt>
      <trkpt lat="46.77227" lon="5.72647">
        <ele>527.2</ele>
        <time>2022-03-09T12:55:00Z</time>
      </trkpt>
      <trkpt lat="46.77223" lon="5.7264">
        <ele>527</ele>
        <time>2022-03-09T12:55:01Z</time>
      </trkpt>
      <trkpt lat="46.77219" lon="5.72633">
        <ele>526.6</ele>
        <time>2022-03-09T12:55:02Z</time>
      </trkpt>
      <trkpt lat="46.77215" lon="5.72625">
        <ele>526.4</ele>
        <time>2022-03-09T12:55:03Z</time>
      </trkpt>
      <trkpt lat="46.77212" lon="5.72617">
        <ele>526</ele>
        <time>2022-03-09T12:55:04Z</time>
      </trkpt>
      <trkpt lat="46.77208" lon="5.72609">
        <ele>525.8</ele>
        <time>2022-03-09T12:55:05Z</time>
      </trkpt>
      <trkpt lat="46.77204" lon="5.726">
        <ele>525.4</ele>
        <time>2022-03-09T12:55:06Z</time>
      </trkpt>
      <trkpt lat="46.77199" lon="5.72592">
        <ele>525.2</ele>
        <time>2022-03-09T12:55:07Z</time>
      </trkpt>
      <trkpt lat="46.77195" lon="5.72584">
        <ele>525.2</ele>
        <time>2022-03-09T12:55:08Z</time>
      </trkpt>
      <trkpt lat="46.7719" lon="5.72576">
        <ele>524.8</ele>
        <time>2022-03-09T12:55:09Z</time>
      </trkpt>
      <trkpt lat="46.77186" lon="5.72567">
        <ele>524.6</ele>
        <time>2022-03-09T12:55:10Z</time>
      </trkpt>
      <trkpt lat="46.77182" lon="5.72559">
        <ele>524.6</ele>
        <time>2022-03-09T12:55:11Z</time>
      </trkpt>
      <trkpt lat="46.77178" lon="5.7255">
        <ele>524.2</ele>
        <time>2022-03-09T12:55:12Z</time>
      </trkpt>
      <trkpt lat="46.77174" lon="5.72542">
        <ele>524.2</ele>
        <time>2022-03-09T12:55:13Z</time>
      </trkpt>
      <trkpt lat="46.7717" lon="5.72533">
        <ele>524</ele>
        <time>2022-03-09T12:55:14Z</time>
      </trkpt>
      <trkpt lat="46.77167" lon="5.72523">
        <ele>524</ele>
        <time>2022-03-09T12:55:15Z</time>
      </trkpt>
      <trkpt lat="46.77165" lon="5.72514">
        <ele>523.6</ele>
        <time>2022-03-09T12:55:16Z</time>
      </trkpt>
      <trkpt lat="46.77163" lon="5.72505">
        <ele>523.6</ele>
        <time>2022-03-09T12:55:17Z</time>
      </trkpt>
      <trkpt lat="46.77161" lon="5.72496">
        <ele>523.6</ele>
        <time>2022-03-09T12:55:18Z</time>
      </trkpt>
      <trkpt lat="46.7716" lon="5.72486">
        <ele>523.6</ele>
        <time>2022-03-09T12:55:19Z</time>
      </trkpt>
      <trkpt lat="46.77159" lon="5.72477">
        <ele>523.6</ele>
        <time>2022-03-09T12:55:20Z</time>
      </trkpt>
      <trkpt lat="46.77157" lon="5.72468">
        <ele>523.6</ele>
        <time>2022-03-09T12:55:21Z</time>
      </trkpt>
      <trkpt lat="46.77155" lon="5.72459">
        <ele>523.6</ele>
        <time>2022-03-09T12:55:22Z</time>
      </trkpt>
      <trkpt lat="46.77153" lon="5.7245">
        <ele>523.6</ele>
        <time>2022-03-09T12:55:23Z</time>
      </trkpt>
      <trkpt lat="46.77151" lon="5.72441">
        <ele>523.6</ele>
        <time>2022-03-09T12:55:24Z</time>
      </trkpt>
      <trkpt lat="46.77149" lon="5.72432">
        <ele>523.6</ele>
        <time>2022-03-09T12:55:25Z</time>
      </trkpt>
      <trkpt lat="46.77147" lon="5.72423">
        <ele>523.4</ele>
        <time>2022-03-09T12:55:26Z</time>
      </trkpt>
      <trkpt lat="46.77145" lon="5.72414">
        <ele>523.4</ele>
        <time>2022-03-09T12:55:27Z</time>
      </trkpt>
      <trkpt lat="46.77143" lon="5.72405">
        <ele>523.2</ele>
        <time>2022-03-09T12:55:28Z</time>
      </trkpt>
      <trkpt lat="46.77141" lon="5.72396">
        <ele>523.2</ele>
        <time>2022-03-09T12:55:29Z</time>
      </trkpt>
      <trkpt lat="46.77139" lon="5.72388">
        <ele>523.2</ele>
        <time>2022-03-09T12:55:30Z</time>
      </trkpt>
      <trkpt lat="46.77137" lon="5.72379">
        <ele>523.2</ele>
        <time>2022-03-09T12:55:31Z</time>
      </trkpt>
      <trkpt lat="46.77135" lon="5.7237">
        <ele>523.2</ele>
        <time>2022-03-09T12:55:32Z</time>
      </trkpt>
      <trkpt lat="46.77132" lon="5.72361">
        <ele>523.2</ele>
        <time>2022-03-09T12:55:33Z</time>
      </trkpt>
      <trkpt lat="46.77129" lon="5.72352">
        <ele>522.8</ele>
        <time>2022-03-09T12:55:34Z</time>
      </trkpt>
      <trkpt lat="46.77127" lon="5.72343">
        <ele>522.8</ele>
        <time>2022-03-09T12:55:35Z</time>
      </trkpt>
      <trkpt lat="46.77124" lon="5.72333">
        <ele>522.6</ele>
        <time>2022-03-09T12:55:36Z</time>
      </trkpt>
      <trkpt lat="46.77121" lon="5.72324">
        <ele>522.6</ele>
        <time>2022-03-09T12:55:37Z</time>
      </trkpt>
      <trkpt lat="46.77118" lon="5.72314">
        <ele>522.2</ele>
        <time>2022-03-09T12:55:38Z</time>
      </trkpt>
      <trkpt lat="46.77115" lon="5.72304">
        <ele>522.2</ele>
        <time>2022-03-09T12:55:39Z</time>
      </trkpt>
      <trkpt lat="46.77112" lon="5.72295">
        <ele>522.2</ele>
        <time>2022-03-09T12:55:40Z</time>
      </trkpt>
      <trkpt lat="46.77108" lon="5.72285">
        <ele>522</ele>
        <time>2022-03-09T12:55:41Z</time>
      </trkpt>
      <trkpt lat="46.77105" lon="5.72276">
        <ele>522</ele>
        <time>2022-03-09T12:55:42Z</time>
      </trkpt>
      <trkpt lat="46.77102" lon="5.72267">
        <ele>521.6</ele>
        <time>2022-03-09T12:55:43Z</time>
      </trkpt>
      <trkpt lat="46.77098" lon="5.72258">
        <ele>521.4</ele>
        <time>2022-03-09T12:55:44Z</time>
      </trkpt>
      <trkpt lat="46.77095" lon="5.72249">
        <ele>521.4</ele>
        <time>2022-03-09T12:55:45Z</time>
      </trkpt>
      <trkpt lat="46.77095" lon="5.72249">
        <ele>521.2</ele>
        <time>2022-03-09T12:55:46Z</time>
      </trkpt>
      <trkpt lat="46.77091" lon="5.7224">
        <ele>520.8</ele>
        <time>2022-03-09T12:55:47Z</time>
      </trkpt>
      <trkpt lat="46.77087" lon="5.72232">
        <ele>520.8</ele>
        <time>2022-03-09T12:55:48Z</time>
      </trkpt>
      <trkpt lat="46.77083" lon="5.72223">
        <ele>520.6</ele>
        <time>2022-03-09T12:55:49Z</time>
      </trkpt>
      <trkpt lat="46.7708" lon="5.72214">
        <ele>520.6</ele>
        <time>2022-03-09T12:55:50Z</time>
      </trkpt>
      <trkpt lat="46.77076" lon="5.72204">
        <ele>520.4</ele>
        <time>2022-03-09T12:55:51Z</time>
      </trkpt>
      <trkpt lat="46.77072" lon="5.72195">
        <ele>520.4</ele>
        <time>2022-03-09T12:55:52Z</time>
      </trkpt>
      <trkpt lat="46.77068" lon="5.72186">
        <ele>520</ele>
        <time>2022-03-09T12:55:53Z</time>
      </trkpt>
      <trkpt lat="46.77064" lon="5.72178">
        <ele>520</ele>
        <time>2022-03-09T12:55:54Z</time>
      </trkpt>
      <trkpt lat="46.7706" lon="5.7217">
        <ele>520</ele>
        <time>2022-03-09T12:55:55Z</time>
      </trkpt>
      <trkpt lat="46.77056" lon="5.72161">
        <ele>520</ele>
        <time>2022-03-09T12:55:56Z</time>
      </trkpt>
      <trkpt lat="46.77053" lon="5.72153">
        <ele>520</ele>
        <time>2022-03-09T12:55:57Z</time>
      </trkpt>
      <trkpt lat="46.77049" lon="5.72144">
        <ele>520</ele>
        <time>2022-03-09T12:55:58Z</time>
      </trkpt>
      <trkpt lat="46.77046" lon="5.72136">
        <ele>520</ele>
        <time>2022-03-09T12:55:59Z</time>
      </trkpt>
      <trkpt lat="46.77042" lon="5.72129">
        <ele>520</ele>
        <time>2022-03-09T12:56:00Z</time>
      </trkpt>
      <trkpt lat="46.77038" lon="5.72121">
        <ele>520</ele>
        <time>2022-03-09T12:56:01Z</time>
      </trkpt>
      <trkpt lat="46.77035" lon="5.72114">
        <ele>520.2</ele>
        <time>2022-03-09T12:56:02Z</time>
      </trkpt>
      <trkpt lat="46.77031" lon="5.72106">
        <ele>520.2</ele>
        <time>2022-03-09T12:56:03Z</time>
      </trkpt>
      <trkpt lat="46.77027" lon="5.72098">
        <ele>520.2</ele>
        <time>2022-03-09T12:56:04Z</time>
      </trkpt>
      <trkpt lat="46.77024" lon="5.7209">
        <ele>520.6</ele>
        <time>2022-03-09T12:56:05Z</time>
      </trkpt>
      <trkpt lat="46.7702" lon="5.72083">
        <ele>520.6</ele>
        <time>2022-03-09T12:56:06Z</time>
      </trkpt>
      <trkpt lat="46.77016" lon="5.72075">
        <ele>520.6</ele>
        <time>2022-03-09T12:56:07Z</time>
      </trkpt>
      <trkpt lat="46.77013" lon="5.72067">
        <ele>520.6</ele>
        <time>2022-03-09T12:56:08Z</time>
      </trkpt>
      <trkpt lat="46.77009" lon="5.72058">
        <ele>520.6</ele>
        <time>2022-03-09T12:56:09Z</time>
      </trkpt>
      <trkpt lat="46.77006" lon="5.7205">
        <ele>520.6</ele>
        <time>2022-03-09T12:56:10Z</time>
      </trkpt>
      <trkpt lat="46.77003" lon="5.72042">
        <ele>520.6</ele>
        <time>2022-03-09T12:56:11Z</time>
      </trkpt>
      <trkpt lat="46.77001" lon="5.72034">
        <ele>520.6</ele>
        <time>2022-03-09T12:56:12Z</time>
      </trkpt>
      <trkpt lat="46.76996" lon="5.72017">
        <ele>520.6</ele>
        <time>2022-03-09T12:56:13Z</time>
      </trkpt>
      <trkpt lat="46.76994" lon="5.72009">
        <ele>520.6</ele>
        <time>2022-03-09T12:56:14Z</time>
      </trkpt>
      <trkpt lat="46.76992" lon="5.72001">
        <ele>520.6</ele>
        <time>2022-03-09T12:56:15Z</time>
      </trkpt>
      <trkpt lat="46.7699" lon="5.71992">
        <ele>520.6</ele>
        <time>2022-03-09T12:56:16Z</time>
      </trkpt>
      <trkpt lat="46.76989" lon="5.71984">
        <ele>520.6</ele>
        <time>2022-03-09T12:56:17Z</time>
      </trkpt>
      <trkpt lat="46.76987" lon="5.71975">
        <ele>520.2</ele>
        <time>2022-03-09T12:56:18Z</time>
      </trkpt>
      <trkpt lat="46.76985" lon="5.71967">
        <ele>520.2</ele>
        <time>2022-03-09T12:56:19Z</time>
      </trkpt>
      <trkpt lat="46.76983" lon="5.71959">
        <ele>520.2</ele>
        <time>2022-03-09T12:56:20Z</time>
      </trkpt>
      <trkpt lat="46.76982" lon="5.71951">
        <ele>520</ele>
        <time>2022-03-09T12:56:21Z</time>
      </trkpt>
      <trkpt lat="46.76982" lon="5.71942">
        <ele>520</ele>
        <time>2022-03-09T12:56:22Z</time>
      </trkpt>
      <trkpt lat="46.76983" lon="5.71934">
        <ele>520</ele>
        <time>2022-03-09T12:56:23Z</time>
      </trkpt>
      <trkpt lat="46.76984" lon="5.71925">
        <ele>520</ele>
        <time>2022-03-09T12:56:24Z</time>
      </trkpt>
      <trkpt lat="46.76986" lon="5.71916">
        <ele>520</ele>
        <time>2022-03-09T12:56:25Z</time>
      </trkpt>
      <trkpt lat="46.76987" lon="5.71907">
        <ele>520.2</ele>
        <time>2022-03-09T12:56:26Z</time>
      </trkpt>
      <trkpt lat="46.76989" lon="5.71899">
        <ele>520.2</ele>
        <time>2022-03-09T12:56:27Z</time>
      </trkpt>
      <trkpt lat="46.76991" lon="5.7189">
        <ele>520.2</ele>
        <time>2022-03-09T12:56:28Z</time>
      </trkpt>
      <trkpt lat="46.76993" lon="5.71882">
        <ele>520.2</ele>
        <time>2022-03-09T12:56:29Z</time>
      </trkpt>
      <trkpt lat="46.76996" lon="5.71874">
        <ele>520.2</ele>
        <time>2022-03-09T12:56:30Z</time>
      </trkpt>
      <trkpt lat="46.76998" lon="5.71866">
        <ele>520.6</ele>
        <time>2022-03-09T12:56:31Z</time>
      </trkpt>
      <trkpt lat="46.77" lon="5.71858">
        <ele>520.6</ele>
        <time>2022-03-09T12:56:32Z</time>
      </trkpt>
      <trkpt lat="46.77003" lon="5.71851">
        <ele>520.8</ele>
        <time>2022-03-09T12:56:33Z</time>
      </trkpt>
      <trkpt lat="46.77005" lon="5.71843">
        <ele>520.8</ele>
        <time>2022-03-09T12:56:34Z</time>
      </trkpt>
      <trkpt lat="46.77008" lon="5.71836">
        <ele>521</ele>
        <time>2022-03-09T12:56:35Z</time>
      </trkpt>
      <trkpt lat="46.7701" lon="5.71828">
        <ele>521.4</ele>
        <time>2022-03-09T12:56:36Z</time>
      </trkpt>
      <trkpt lat="46.77013" lon="5.71821">
        <ele>521.4</ele>
        <time>2022-03-09T12:56:37Z</time>
      </trkpt>
      <trkpt lat="46.77015" lon="5.71813">
        <ele>521.6</ele>
        <time>2022-03-09T12:56:38Z</time>
      </trkpt>
      <trkpt lat="46.77018" lon="5.71806">
        <ele>521.6</ele>
        <time>2022-03-09T12:56:39Z</time>
      </trkpt>
      <trkpt lat="46.7702" lon="5.71799">
        <ele>521.8</ele>
        <time>2022-03-09T12:56:40Z</time>
      </trkpt>
      <trkpt lat="46.77022" lon="5.71791">
        <ele>521.8</ele>
        <time>2022-03-09T12:56:41Z</time>
      </trkpt>
      <trkpt lat="46.77024" lon="5.71784">
        <ele>522.2</ele>
        <time>2022-03-09T12:56:42Z</time>
      </trkpt>
      <trkpt lat="46.77026" lon="5.71776">
        <ele>522.4</ele>
        <time>2022-03-09T12:56:43Z</time>
      </trkpt>
      <trkpt lat="46.77029" lon="5.71769">
        <ele>522.6</ele>
        <time>2022-03-09T12:56:44Z</time>
      </trkpt>
      <trkpt lat="46.77031" lon="5.71762">
        <ele>522.6</ele>
        <time>2022-03-09T12:56:45Z</time>
      </trkpt>
      <trkpt lat="46.77033" lon="5.71755">
        <ele>523</ele>
        <time>2022-03-09T12:56:46Z</time>
      </trkpt>
      <trkpt lat="46.77035" lon="5.71747">
        <ele>523</ele>
        <time>2022-03-09T12:56:47Z</time>
      </trkpt>
      <trkpt lat="46.77037" lon="5.7174">
        <ele>523.2</ele>
        <time>2022-03-09T12:56:48Z</time>
      </trkpt>
      <trkpt lat="46.7704" lon="5.71733">
        <ele>523.2</ele>
        <time>2022-03-09T12:56:49Z</time>
      </trkpt>
      <trkpt lat="46.77042" lon="5.71726">
        <ele>523.6</ele>
        <time>2022-03-09T12:56:50Z</time>
      </trkpt>
      <trkpt lat="46.77045" lon="5.71719">
        <ele>523.6</ele>
        <time>2022-03-09T12:56:51Z</time>
      </trkpt>
      <trkpt lat="46.77047" lon="5.71712">
        <ele>523.8</ele>
        <time>2022-03-09T12:56:52Z</time>
      </trkpt>
      <trkpt lat="46.7705" lon="5.71706">
        <ele>524</ele>
        <time>2022-03-09T12:56:53Z</time>
      </trkpt>
      <trkpt lat="46.77052" lon="5.71699">
        <ele>524</ele>
        <time>2022-03-09T12:56:54Z</time>
      </trkpt>
      <trkpt lat="46.77054" lon="5.71692">
        <ele>524.4</ele>
        <time>2022-03-09T12:56:55Z</time>
      </trkpt>
      <trkpt lat="46.77056" lon="5.71685">
        <ele>524.6</ele>
        <time>2022-03-09T12:56:56Z</time>
      </trkpt>
      <trkpt lat="46.77059" lon="5.71678">
        <ele>524.6</ele>
        <time>2022-03-09T12:56:57Z</time>
      </trkpt>
      <trkpt lat="46.77061" lon="5.71671">
        <ele>525</ele>
        <time>2022-03-09T12:56:58Z</time>
      </trkpt>
      <trkpt lat="46.77063" lon="5.71664">
        <ele>525.4</ele>
        <time>2022-03-09T12:56:59Z</time>
      </trkpt>
      <trkpt lat="46.77065" lon="5.71656">
        <ele>525.4</ele>
        <time>2022-03-09T12:57:00Z</time>
      </trkpt>
      <trkpt lat="46.77067" lon="5.71649">
        <ele>525.4</ele>
        <time>2022-03-09T12:57:01Z</time>
      </trkpt>
      <trkpt lat="46.7707" lon="5.71643">
        <ele>525.6</ele>
        <time>2022-03-09T12:57:02Z</time>
      </trkpt>
      <trkpt lat="46.77072" lon="5.71636">
        <ele>525.6</ele>
        <time>2022-03-09T12:57:03Z</time>
      </trkpt>
      <trkpt lat="46.77074" lon="5.71629">
        <ele>526</ele>
        <time>2022-03-09T12:57:04Z</time>
      </trkpt>
      <trkpt lat="46.77076" lon="5.71622">
        <ele>526.2</ele>
        <time>2022-03-09T12:57:05Z</time>
      </trkpt>
      <trkpt lat="46.77078" lon="5.71615">
        <ele>526.2</ele>
        <time>2022-03-09T12:57:06Z</time>
      </trkpt>
      <trkpt lat="46.7708" lon="5.71609">
        <ele>526.6</ele>
        <time>2022-03-09T12:57:07Z</time>
      </trkpt>
      <trkpt lat="46.77082" lon="5.71603">
        <ele>526.6</ele>
        <time>2022-03-09T12:57:08Z</time>
      </trkpt>
      <trkpt lat="46.77084" lon="5.71597">
        <ele>526.8</ele>
        <time>2022-03-09T12:57:09Z</time>
      </trkpt>
      <trkpt lat="46.77087" lon="5.71591">
        <ele>526.8</ele>
        <time>2022-03-09T12:57:10Z</time>
      </trkpt>
      <trkpt lat="46.7709" lon="5.71587">
        <ele>527.4</ele>
        <time>2022-03-09T12:57:11Z</time>
      </trkpt>
      <trkpt lat="46.77094" lon="5.71585">
        <ele>527.4</ele>
        <time>2022-03-09T12:57:12Z</time>
      </trkpt>
      <trkpt lat="46.77098" lon="5.71584">
        <ele>527.8</ele>
        <time>2022-03-09T12:57:13Z</time>
      </trkpt>
      <trkpt lat="46.77102" lon="5.71583">
        <ele>527.8</ele>
        <time>2022-03-09T12:57:14Z</time>
      </trkpt>
      <trkpt lat="46.77107" lon="5.71582">
        <ele>528.2</ele>
        <time>2022-03-09T12:57:15Z</time>
      </trkpt>
      <trkpt lat="46.77112" lon="5.71582">
        <ele>528.2</ele>
        <time>2022-03-09T12:57:16Z</time>
      </trkpt>
      <trkpt lat="46.77117" lon="5.71582">
        <ele>528.6</ele>
        <time>2022-03-09T12:57:17Z</time>
      </trkpt>
      <trkpt lat="46.77121" lon="5.71583">
        <ele>528.6</ele>
        <time>2022-03-09T12:57:18Z</time>
      </trkpt>
      <trkpt lat="46.77126" lon="5.71584">
        <ele>528.6</ele>
        <time>2022-03-09T12:57:19Z</time>
      </trkpt>
      <trkpt lat="46.77131" lon="5.71585">
        <ele>528.8</ele>
        <time>2022-03-09T12:57:20Z</time>
      </trkpt>
      <trkpt lat="46.77136" lon="5.71586">
        <ele>528.8</ele>
        <time>2022-03-09T12:57:21Z</time>
      </trkpt>
      <trkpt lat="46.77141" lon="5.71587">
        <ele>528.8</ele>
        <time>2022-03-09T12:57:22Z</time>
      </trkpt>
      <trkpt lat="46.77146" lon="5.71588">
        <ele>529</ele>
        <time>2022-03-09T12:57:23Z</time>
      </trkpt>
      <trkpt lat="46.77151" lon="5.71589">
        <ele>529</ele>
        <time>2022-03-09T12:57:24Z</time>
      </trkpt>
      <trkpt lat="46.77156" lon="5.7159">
        <ele>529</ele>
        <time>2022-03-09T12:57:25Z</time>
      </trkpt>
      <trkpt lat="46.77161" lon="5.71591">
        <ele>529.2</ele>
        <time>2022-03-09T12:57:26Z</time>
      </trkpt>
      <trkpt lat="46.77166" lon="5.71592">
        <ele>529.2</ele>
        <time>2022-03-09T12:57:27Z</time>
      </trkpt>
      <trkpt lat="46.7717" lon="5.71592">
        <ele>529.2</ele>
        <time>2022-03-09T12:57:28Z</time>
      </trkpt>
      <trkpt lat="46.77174" lon="5.71592">
        <ele>529.4</ele>
        <time>2022-03-09T12:57:29Z</time>
      </trkpt>
      <trkpt lat="46.77177" lon="5.71589">
        <ele>529.4</ele>
        <time>2022-03-09T12:57:30Z</time>
      </trkpt>
      <trkpt lat="46.7718" lon="5.71585">
        <ele>529.4</ele>
        <time>2022-03-09T12:57:31Z</time>
      </trkpt>
      <trkpt lat="46.77183" lon="5.71581">
        <ele>529.6</ele>
        <time>2022-03-09T12:57:32Z</time>
      </trkpt>
      <trkpt lat="46.77185" lon="5.71576">
        <ele>529.6</ele>
        <time>2022-03-09T12:57:33Z</time>
      </trkpt>
      <trkpt lat="46.77188" lon="5.71571">
        <ele>530</ele>
        <time>2022-03-09T12:57:34Z</time>
      </trkpt>
      <trkpt lat="46.7719" lon="5.71566">
        <ele>530.4</ele>
        <time>2022-03-09T12:57:35Z</time>
      </trkpt>
      <trkpt lat="46.77192" lon="5.71559">
        <ele>530.6</ele>
        <time>2022-03-09T12:57:36Z</time>
      </trkpt>
      <trkpt lat="46.77193" lon="5.71553">
        <ele>530.6</ele>
        <time>2022-03-09T12:57:37Z</time>
      </trkpt>
      <trkpt lat="46.77194" lon="5.71546">
        <ele>531</ele>
        <time>2022-03-09T12:57:38Z</time>
      </trkpt>
      <trkpt lat="46.77195" lon="5.71539">
        <ele>531.2</ele>
        <time>2022-03-09T12:57:39Z</time>
      </trkpt>
      <trkpt lat="46.77195" lon="5.71531">
        <ele>531.2</ele>
        <time>2022-03-09T12:57:40Z</time>
      </trkpt>
      <trkpt lat="46.77196" lon="5.71524">
        <ele>531.4</ele>
        <time>2022-03-09T12:57:41Z</time>
      </trkpt>
      <trkpt lat="46.77196" lon="5.71516">
        <ele>531.4</ele>
        <time>2022-03-09T12:57:42Z</time>
      </trkpt>
      <trkpt lat="46.77196" lon="5.71509">
        <ele>531.4</ele>
        <time>2022-03-09T12:57:43Z</time>
      </trkpt>
      <trkpt lat="46.77196" lon="5.71501">
        <ele>531.8</ele>
        <time>2022-03-09T12:57:44Z</time>
      </trkpt>
      <trkpt lat="46.77196" lon="5.71493">
        <ele>531.8</ele>
        <time>2022-03-09T12:57:45Z</time>
      </trkpt>
      <trkpt lat="46.77195" lon="5.71485">
        <ele>532</ele>
        <time>2022-03-09T12:57:46Z</time>
      </trkpt>
      <trkpt lat="46.77194" lon="5.71476">
        <ele>532</ele>
        <time>2022-03-09T12:57:47Z</time>
      </trkpt>
      <trkpt lat="46.77194" lon="5.71468">
        <ele>532</ele>
        <time>2022-03-09T12:57:48Z</time>
      </trkpt>
      <trkpt lat="46.77193" lon="5.71458">
        <ele>532</ele>
        <time>2022-03-09T12:57:49Z</time>
      </trkpt>
      <trkpt lat="46.77192" lon="5.71449">
        <ele>532</ele>
        <time>2022-03-09T12:57:50Z</time>
      </trkpt>
      <trkpt lat="46.77192" lon="5.7144">
        <ele>532</ele>
        <time>2022-03-09T12:57:51Z</time>
      </trkpt>
      <trkpt lat="46.77191" lon="5.71431">
        <ele>532</ele>
        <time>2022-03-09T12:57:52Z</time>
      </trkpt>
      <trkpt lat="46.77192" lon="5.71421">
        <ele>532</ele>
        <time>2022-03-09T12:57:53Z</time>
      </trkpt>
      <trkpt lat="46.77192" lon="5.71412">
        <ele>532</ele>
        <time>2022-03-09T12:57:54Z</time>
      </trkpt>
      <trkpt lat="46.77193" lon="5.71403">
        <ele>532</ele>
        <time>2022-03-09T12:57:55Z</time>
      </trkpt>
      <trkpt lat="46.77194" lon="5.71394">
        <ele>532</ele>
        <time>2022-03-09T12:57:56Z</time>
      </trkpt>
      <trkpt lat="46.77195" lon="5.71385">
        <ele>532</ele>
        <time>2022-03-09T12:57:57Z</time>
      </trkpt>
      <trkpt lat="46.77197" lon="5.71376">
        <ele>532</ele>
        <time>2022-03-09T12:57:58Z</time>
      </trkpt>
      <trkpt lat="46.77199" lon="5.71367">
        <ele>532</ele>
        <time>2022-03-09T12:57:59Z</time>
      </trkpt>
      <trkpt lat="46.772" lon="5.71358">
        <ele>532</ele>
        <time>2022-03-09T12:58:00Z</time>
      </trkpt>
      <trkpt lat="46.77202" lon="5.71349">
        <ele>531.8</ele>
        <time>2022-03-09T12:58:01Z</time>
      </trkpt>
      <trkpt lat="46.77204" lon="5.7134">
        <ele>531.8</ele>
        <time>2022-03-09T12:58:02Z</time>
      </trkpt>
      <trkpt lat="46.77205" lon="5.7133">
        <ele>531.8</ele>
        <time>2022-03-09T12:58:03Z</time>
      </trkpt>
      <trkpt lat="46.77205" lon="5.71321">
        <ele>531.6</ele>
        <time>2022-03-09T12:58:04Z</time>
      </trkpt>
      <trkpt lat="46.77204" lon="5.71311">
        <ele>531.6</ele>
        <time>2022-03-09T12:58:05Z</time>
      </trkpt>
      <trkpt lat="46.77202" lon="5.71301">
        <ele>531.6</ele>
        <time>2022-03-09T12:58:06Z</time>
      </trkpt>
      <trkpt lat="46.772" lon="5.71292">
        <ele>531.2</ele>
        <time>2022-03-09T12:58:07Z</time>
      </trkpt>
      <trkpt lat="46.77196" lon="5.71283">
        <ele>531</ele>
        <time>2022-03-09T12:58:08Z</time>
      </trkpt>
      <trkpt lat="46.77192" lon="5.71275">
        <ele>531</ele>
        <time>2022-03-09T12:58:09Z</time>
      </trkpt>
      <trkpt lat="46.77187" lon="5.71267">
        <ele>530.8</ele>
        <time>2022-03-09T12:58:10Z</time>
      </trkpt>
      <trkpt lat="46.77183" lon="5.71259">
        <ele>530.8</ele>
        <time>2022-03-09T12:58:11Z</time>
      </trkpt>
      <trkpt lat="46.77178" lon="5.71252">
        <ele>530.6</ele>
        <time>2022-03-09T12:58:12Z</time>
      </trkpt>
      <trkpt lat="46.77173" lon="5.71244">
        <ele>530.6</ele>
        <time>2022-03-09T12:58:13Z</time>
      </trkpt>
      <trkpt lat="46.77168" lon="5.71236">
        <ele>530.2</ele>
        <time>2022-03-09T12:58:14Z</time>
      </trkpt>
      <trkpt lat="46.77162" lon="5.71228">
        <ele>530.2</ele>
        <time>2022-03-09T12:58:15Z</time>
      </trkpt>
      <trkpt lat="46.77157" lon="5.7122">
        <ele>530.2</ele>
        <time>2022-03-09T12:58:16Z</time>
      </trkpt>
      <trkpt lat="46.77152" lon="5.71211">
        <ele>530</ele>
        <time>2022-03-09T12:58:17Z</time>
      </trkpt>
      <trkpt lat="46.77147" lon="5.71203">
        <ele>530</ele>
        <time>2022-03-09T12:58:18Z</time>
      </trkpt>
      <trkpt lat="46.77142" lon="5.71195">
        <ele>530</ele>
        <time>2022-03-09T12:58:19Z</time>
      </trkpt>
      <trkpt lat="46.77137" lon="5.71187">
        <ele>529.8</ele>
        <time>2022-03-09T12:58:20Z</time>
      </trkpt>
      <trkpt lat="46.77132" lon="5.7118">
        <ele>529.8</ele>
        <time>2022-03-09T12:58:21Z</time>
      </trkpt>
      <trkpt lat="46.77127" lon="5.71172">
        <ele>529.8</ele>
        <time>2022-03-09T12:58:22Z</time>
      </trkpt>
      <trkpt lat="46.77123" lon="5.71165">
        <ele>529.8</ele>
        <time>2022-03-09T12:58:23Z</time>
      </trkpt>
      <trkpt lat="46.77118" lon="5.71157">
        <ele>529.8</ele>
        <time>2022-03-09T12:58:24Z</time>
      </trkpt>
      <trkpt lat="46.77113" lon="5.7115">
        <ele>529.8</ele>
        <time>2022-03-09T12:58:25Z</time>
      </trkpt>
      <trkpt lat="46.77108" lon="5.71142">
        <ele>529.8</ele>
        <time>2022-03-09T12:58:26Z</time>
      </trkpt>
      <trkpt lat="46.77104" lon="5.71134">
        <ele>530</ele>
        <time>2022-03-09T12:58:27Z</time>
      </trkpt>
      <trkpt lat="46.77099" lon="5.71127">
        <ele>530.4</ele>
        <time>2022-03-09T12:58:28Z</time>
      </trkpt>
      <trkpt lat="46.77094" lon="5.71119">
        <ele>530.4</ele>
        <time>2022-03-09T12:58:29Z</time>
      </trkpt>
      <trkpt lat="46.77089" lon="5.71112">
        <ele>530.6</ele>
        <time>2022-03-09T12:58:30Z</time>
      </trkpt>
      <trkpt lat="46.77085" lon="5.71104">
        <ele>530.8</ele>
        <time>2022-03-09T12:58:31Z</time>
      </trkpt>
      <trkpt lat="46.7708" lon="5.71097">
        <ele>531</ele>
        <time>2022-03-09T12:58:32Z</time>
      </trkpt>
      <trkpt lat="46.77076" lon="5.7109">
        <ele>531</ele>
        <time>2022-03-09T12:58:33Z</time>
      </trkpt>
      <trkpt lat="46.77071" lon="5.71083">
        <ele>531.4</ele>
        <time>2022-03-09T12:58:34Z</time>
      </trkpt>
      <trkpt lat="46.77067" lon="5.71075">
        <ele>531.4</ele>
        <time>2022-03-09T12:58:35Z</time>
      </trkpt>
      <trkpt lat="46.77062" lon="5.71068">
        <ele>531.6</ele>
        <time>2022-03-09T12:58:36Z</time>
      </trkpt>
      <trkpt lat="46.77058" lon="5.7106">
        <ele>531.6</ele>
        <time>2022-03-09T12:58:37Z</time>
      </trkpt>
      <trkpt lat="46.77053" lon="5.71053">
        <ele>532</ele>
        <time>2022-03-09T12:58:38Z</time>
      </trkpt>
      <trkpt lat="46.77049" lon="5.71046">
        <ele>532.2</ele>
        <time>2022-03-09T12:58:39Z</time>
      </trkpt>
      <trkpt lat="46.77045" lon="5.71038">
        <ele>532.2</ele>
        <time>2022-03-09T12:58:40Z</time>
      </trkpt>
      <trkpt lat="46.7704" lon="5.71031">
        <ele>532.4</ele>
        <time>2022-03-09T12:58:41Z</time>
      </trkpt>
      <trkpt lat="46.77036" lon="5.71023">
        <ele>532.4</ele>
        <time>2022-03-09T12:58:42Z</time>
      </trkpt>
      <trkpt lat="46.77032" lon="5.71016">
        <ele>532.8</ele>
        <time>2022-03-09T12:58:43Z</time>
      </trkpt>
      <trkpt lat="46.77028" lon="5.71008">
        <ele>532.8</ele>
        <time>2022-03-09T12:58:44Z</time>
      </trkpt>
      <trkpt lat="46.77025" lon="5.71">
        <ele>533</ele>
        <time>2022-03-09T12:58:45Z</time>
      </trkpt>
      <trkpt lat="46.77021" lon="5.70992">
        <ele>533</ele>
        <time>2022-03-09T12:58:46Z</time>
      </trkpt>
      <trkpt lat="46.77018" lon="5.70983">
        <ele>533.2</ele>
        <time>2022-03-09T12:58:47Z</time>
      </trkpt>
      <trkpt lat="46.77015" lon="5.70975">
        <ele>533.2</ele>
        <time>2022-03-09T12:58:48Z</time>
      </trkpt>
      <trkpt lat="46.77012" lon="5.70967">
        <ele>533.2</ele>
        <time>2022-03-09T12:58:49Z</time>
      </trkpt>
      <trkpt lat="46.77009" lon="5.70959">
        <ele>533.2</ele>
        <time>2022-03-09T12:58:50Z</time>
      </trkpt>
      <trkpt lat="46.77005" lon="5.7095">
        <ele>533.2</ele>
        <time>2022-03-09T12:58:51Z</time>
      </trkpt>
      <trkpt lat="46.77002" lon="5.70942">
        <ele>533.6</ele>
        <time>2022-03-09T12:58:52Z</time>
      </trkpt>
      <trkpt lat="46.76999" lon="5.70934">
        <ele>533.6</ele>
        <time>2022-03-09T12:58:53Z</time>
      </trkpt>
      <trkpt lat="46.76996" lon="5.70926">
        <ele>533.6</ele>
        <time>2022-03-09T12:58:54Z</time>
      </trkpt>
      <trkpt lat="46.76992" lon="5.70917">
        <ele>533.8</ele>
        <time>2022-03-09T12:58:55Z</time>
      </trkpt>
      <trkpt lat="46.76989" lon="5.70909">
        <ele>533.8</ele>
        <time>2022-03-09T12:58:56Z</time>
      </trkpt>
      <trkpt lat="46.76985" lon="5.709">
        <ele>533.8</ele>
        <time>2022-03-09T12:58:57Z</time>
      </trkpt>
      <trkpt lat="46.76982" lon="5.70891">
        <ele>533.8</ele>
        <time>2022-03-09T12:58:58Z</time>
      </trkpt>
      <trkpt lat="46.76979" lon="5.70881">
        <ele>533.8</ele>
        <time>2022-03-09T12:58:59Z</time>
      </trkpt>
      <trkpt lat="46.76975" lon="5.70872">
        <ele>533.6</ele>
        <time>2022-03-09T12:59:00Z</time>
      </trkpt>
      <trkpt lat="46.76972" lon="5.70862">
        <ele>533.6</ele>
        <time>2022-03-09T12:59:01Z</time>
      </trkpt>
      <trkpt lat="46.76969" lon="5.70851">
        <ele>533.4</ele>
        <time>2022-03-09T12:59:02Z</time>
      </trkpt>
      <trkpt lat="46.76967" lon="5.7084">
        <ele>533.4</ele>
        <time>2022-03-09T12:59:03Z</time>
      </trkpt>
      <trkpt lat="46.76965" lon="5.70829">
        <ele>533</ele>
        <time>2022-03-09T12:59:04Z</time>
      </trkpt>
      <trkpt lat="46.76963" lon="5.70817">
        <ele>533</ele>
        <time>2022-03-09T12:59:05Z</time>
      </trkpt>
      <trkpt lat="46.76961" lon="5.70806">
        <ele>532.6</ele>
        <time>2022-03-09T12:59:06Z</time>
      </trkpt>
      <trkpt lat="46.76959" lon="5.70793">
        <ele>532.4</ele>
        <time>2022-03-09T12:59:07Z</time>
      </trkpt>
      <trkpt lat="46.76957" lon="5.70781">
        <ele>532</ele>
        <time>2022-03-09T12:59:08Z</time>
      </trkpt>
      <trkpt lat="46.76956" lon="5.70768">
        <ele>531.8</ele>
        <time>2022-03-09T12:59:09Z</time>
      </trkpt>
      <trkpt lat="46.76955" lon="5.70755">
        <ele>531.4</ele>
        <time>2022-03-09T12:59:10Z</time>
      </trkpt>
      <trkpt lat="46.76953" lon="5.70742">
        <ele>531</ele>
        <time>2022-03-09T12:59:11Z</time>
      </trkpt>
      <trkpt lat="46.76952" lon="5.70729">
        <ele>530.6</ele>
        <time>2022-03-09T12:59:12Z</time>
      </trkpt>
      <trkpt lat="46.7695" lon="5.70715">
        <ele>530.4</ele>
        <time>2022-03-09T12:59:13Z</time>
      </trkpt>
      <trkpt lat="46.76949" lon="5.70702">
        <ele>530</ele>
        <time>2022-03-09T12:59:14Z</time>
      </trkpt>
      <trkpt lat="46.76947" lon="5.70688">
        <ele>529.8</ele>
        <time>2022-03-09T12:59:15Z</time>
      </trkpt>
      <trkpt lat="46.76946" lon="5.70675">
        <ele>529.4</ele>
        <time>2022-03-09T12:59:16Z</time>
      </trkpt>
      <trkpt lat="46.76944" lon="5.70661">
        <ele>529</ele>
        <time>2022-03-09T12:59:17Z</time>
      </trkpt>
      <trkpt lat="46.76942" lon="5.70647">
        <ele>528.4</ele>
        <time>2022-03-09T12:59:18Z</time>
      </trkpt>
      <trkpt lat="46.7694" lon="5.70633">
        <ele>528</ele>
        <time>2022-03-09T12:59:19Z</time>
      </trkpt>
      <trkpt lat="46.76938" lon="5.70619">
        <ele>527.6</ele>
        <time>2022-03-09T12:59:20Z</time>
      </trkpt>
      <trkpt lat="46.76936" lon="5.70605">
        <ele>527.2</ele>
        <time>2022-03-09T12:59:21Z</time>
      </trkpt>
      <trkpt lat="46.76934" lon="5.7059">
        <ele>526.8</ele>
        <time>2022-03-09T12:59:22Z</time>
      </trkpt>
      <trkpt lat="46.76933" lon="5.70576">
        <ele>526.4</ele>
        <time>2022-03-09T12:59:23Z</time>
      </trkpt>
      <trkpt lat="46.7693" lon="5.70561">
        <ele>526</ele>
        <time>2022-03-09T12:59:24Z</time>
      </trkpt>
      <trkpt lat="46.76928" lon="5.70547">
        <ele>525.6</ele>
        <time>2022-03-09T12:59:25Z</time>
      </trkpt>
      <trkpt lat="46.76927" lon="5.70533">
        <ele>525.2</ele>
        <time>2022-03-09T12:59:26Z</time>
      </trkpt>
      <trkpt lat="46.76925" lon="5.70519">
        <ele>524.8</ele>
        <time>2022-03-09T12:59:27Z</time>
      </trkpt>
      <trkpt lat="46.76923" lon="5.70506">
        <ele>524.4</ele>
        <time>2022-03-09T12:59:28Z</time>
      </trkpt>
      <trkpt lat="46.76921" lon="5.70491">
        <ele>523.8</ele>
        <time>2022-03-09T12:59:29Z</time>
      </trkpt>
      <trkpt lat="46.76919" lon="5.70476">
        <ele>523.4</ele>
        <time>2022-03-09T12:59:30Z</time>
      </trkpt>
      <trkpt lat="46.76917" lon="5.70461">
        <ele>523.4</ele>
        <time>2022-03-09T12:59:31Z</time>
      </trkpt>
      <trkpt lat="46.76916" lon="5.70447">
        <ele>523.2</ele>
        <time>2022-03-09T12:59:32Z</time>
      </trkpt>
      <trkpt lat="46.76914" lon="5.70434">
        <ele>523.2</ele>
        <time>2022-03-09T12:59:33Z</time>
      </trkpt>
      <trkpt lat="46.76912" lon="5.7042">
        <ele>522.8</ele>
        <time>2022-03-09T12:59:34Z</time>
      </trkpt>
      <trkpt lat="46.7691" lon="5.70406">
        <ele>522.8</ele>
        <time>2022-03-09T12:59:35Z</time>
      </trkpt>
      <trkpt lat="46.76909" lon="5.70392">
        <ele>522.4</ele>
        <time>2022-03-09T12:59:36Z</time>
      </trkpt>
      <trkpt lat="46.76907" lon="5.70379">
        <ele>522.4</ele>
        <time>2022-03-09T12:59:37Z</time>
      </trkpt>
      <trkpt lat="46.76906" lon="5.70365">
        <ele>522</ele>
        <time>2022-03-09T12:59:38Z</time>
      </trkpt>
      <trkpt lat="46.76905" lon="5.70352">
        <ele>522</ele>
        <time>2022-03-09T12:59:39Z</time>
      </trkpt>
      <trkpt lat="46.76903" lon="5.7034">
        <ele>522</ele>
        <time>2022-03-09T12:59:40Z</time>
      </trkpt>
      <trkpt lat="46.76902" lon="5.70327">
        <ele>522</ele>
        <time>2022-03-09T12:59:41Z</time>
      </trkpt>
      <trkpt lat="46.76901" lon="5.70315">
        <ele>522</ele>
        <time>2022-03-09T12:59:42Z</time>
      </trkpt>
      <trkpt lat="46.76899" lon="5.70302">
        <ele>522</ele>
        <time>2022-03-09T12:59:43Z</time>
      </trkpt>
      <trkpt lat="46.76898" lon="5.7029">
        <ele>522</ele>
        <time>2022-03-09T12:59:44Z</time>
      </trkpt>
      <trkpt lat="46.76896" lon="5.70279">
        <ele>522</ele>
        <time>2022-03-09T12:59:45Z</time>
      </trkpt>
      <trkpt lat="46.76895" lon="5.70267">
        <ele>522.4</ele>
        <time>2022-03-09T12:59:46Z</time>
      </trkpt>
      <trkpt lat="46.76893" lon="5.70256">
        <ele>522.6</ele>
        <time>2022-03-09T12:59:47Z</time>
      </trkpt>
      <trkpt lat="46.76892" lon="5.70245">
        <ele>522.6</ele>
        <time>2022-03-09T12:59:48Z</time>
      </trkpt>
      <trkpt lat="46.7689" lon="5.70234">
        <ele>522.8</ele>
        <time>2022-03-09T12:59:49Z</time>
      </trkpt>
      <trkpt lat="46.76889" lon="5.70223">
        <ele>522.8</ele>
        <time>2022-03-09T12:59:50Z</time>
      </trkpt>
      <trkpt lat="46.76888" lon="5.70213">
        <ele>522.8</ele>
        <time>2022-03-09T12:59:51Z</time>
      </trkpt>
      <trkpt lat="46.76886" lon="5.70202">
        <ele>523</ele>
        <time>2022-03-09T12:59:52Z</time>
      </trkpt>
      <trkpt lat="46.76885" lon="5.70192">
        <ele>523</ele>
        <time>2022-03-09T12:59:53Z</time>
      </trkpt>
      <trkpt lat="46.76884" lon="5.70182">
        <ele>523.2</ele>
        <time>2022-03-09T12:59:54Z</time>
      </trkpt>
      <trkpt lat="46.76883" lon="5.70172">
        <ele>523.2</ele>
        <time>2022-03-09T12:59:55Z</time>
      </trkpt>
      <trkpt lat="46.76882" lon="5.70163">
        <ele>523.2</ele>
        <time>2022-03-09T12:59:56Z</time>
      </trkpt>
      <trkpt lat="46.7688" lon="5.70154">
        <ele>523.4</ele>
        <time>2022-03-09T12:59:57Z</time>
      </trkpt>
      <trkpt lat="46.76879" lon="5.70144">
        <ele>523.4</ele>
        <time>2022-03-09T12:59:58Z</time>
      </trkpt>
      <trkpt lat="46.76878" lon="5.70135">
        <ele>523.4</ele>
        <time>2022-03-09T12:59:59Z</time>
      </trkpt>
      <trkpt lat="46.76877" lon="5.70126">
        <ele>523.8</ele>
        <time>2022-03-09T13:00:00Z</time>
      </trkpt>
      <trkpt lat="46.76876" lon="5.70117">
        <ele>523.8</ele>
        <time>2022-03-09T13:00:01Z</time>
      </trkpt>
      <trkpt lat="46.76875" lon="5.70108">
        <ele>524</ele>
        <time>2022-03-09T13:00:02Z</time>
      </trkpt>
      <trkpt lat="46.76874" lon="5.70099">
        <ele>524</ele>
        <time>2022-03-09T13:00:03Z</time>
      </trkpt>
      <trkpt lat="46.76873" lon="5.70091">
        <ele>524.2</ele>
        <time>2022-03-09T13:00:04Z</time>
      </trkpt>
      <trkpt lat="46.76872" lon="5.70082">
        <ele>524.2</ele>
        <time>2022-03-09T13:00:05Z</time>
      </trkpt>
      <trkpt lat="46.76871" lon="5.70073">
        <ele>524.6</ele>
        <time>2022-03-09T13:00:06Z</time>
      </trkpt>
      <trkpt lat="46.76869" lon="5.70065">
        <ele>524.8</ele>
        <time>2022-03-09T13:00:07Z</time>
      </trkpt>
      <trkpt lat="46.76868" lon="5.70056">
        <ele>524.8</ele>
        <time>2022-03-09T13:00:08Z</time>
      </trkpt>
      <trkpt lat="46.76867" lon="5.70047">
        <ele>525.2</ele>
        <time>2022-03-09T13:00:09Z</time>
      </trkpt>
      <trkpt lat="46.76865" lon="5.70039">
        <ele>525.4</ele>
        <time>2022-03-09T13:00:10Z</time>
      </trkpt>
      <trkpt lat="46.76863" lon="5.70031">
        <ele>525.4</ele>
        <time>2022-03-09T13:00:11Z</time>
      </trkpt>
      <trkpt lat="46.76862" lon="5.70023">
        <ele>525.8</ele>
        <time>2022-03-09T13:00:12Z</time>
      </trkpt>
      <trkpt lat="46.7686" lon="5.70016">
        <ele>525.8</ele>
        <time>2022-03-09T13:00:13Z</time>
      </trkpt>
      <trkpt lat="46.76858" lon="5.70008">
        <ele>525.8</ele>
        <time>2022-03-09T13:00:14Z</time>
      </trkpt>
      <trkpt lat="46.76856" lon="5.70001">
        <ele>526.2</ele>
        <time>2022-03-09T13:00:15Z</time>
      </trkpt>
      <trkpt lat="46.76854" lon="5.69993">
        <ele>526.2</ele>
        <time>2022-03-09T13:00:16Z</time>
      </trkpt>
      <trkpt lat="46.76851" lon="5.69986">
        <ele>526.6</ele>
        <time>2022-03-09T13:00:17Z</time>
      </trkpt>
      <trkpt lat="46.76849" lon="5.69978">
        <ele>526.8</ele>
        <time>2022-03-09T13:00:18Z</time>
      </trkpt>
      <trkpt lat="46.76846" lon="5.69971">
        <ele>527</ele>
        <time>2022-03-09T13:00:19Z</time>
      </trkpt>
      <trkpt lat="46.76844" lon="5.69964">
        <ele>527.2</ele>
        <time>2022-03-09T13:00:20Z</time>
      </trkpt>
      <trkpt lat="46.76841" lon="5.69957">
        <ele>527.4</ele>
        <time>2022-03-09T13:00:21Z</time>
      </trkpt>
      <trkpt lat="46.76839" lon="5.69949">
        <ele>527.6</ele>
        <time>2022-03-09T13:00:22Z</time>
      </trkpt>
      <trkpt lat="46.76836" lon="5.69942">
        <ele>528</ele>
        <time>2022-03-09T13:00:23Z</time>
      </trkpt>
      <trkpt lat="46.76833" lon="5.69934">
        <ele>528</ele>
        <time>2022-03-09T13:00:24Z</time>
      </trkpt>
      <trkpt lat="46.76831" lon="5.69927">
        <ele>528.4</ele>
        <time>2022-03-09T13:00:25Z</time>
      </trkpt>
      <trkpt lat="46.76828" lon="5.6992">
        <ele>528.6</ele>
        <time>2022-03-09T13:00:26Z</time>
      </trkpt>
      <trkpt lat="46.76825" lon="5.69913">
        <ele>528.8</ele>
        <time>2022-03-09T13:00:27Z</time>
      </trkpt>
      <trkpt lat="46.76823" lon="5.69906">
        <ele>529</ele>
        <time>2022-03-09T13:00:28Z</time>
      </trkpt>
      <trkpt lat="46.7682" lon="5.699">
        <ele>529.2</ele>
        <time>2022-03-09T13:00:29Z</time>
      </trkpt>
      <trkpt lat="46.76817" lon="5.69893">
        <ele>529.2</ele>
        <time>2022-03-09T13:00:30Z</time>
      </trkpt>
      <trkpt lat="46.76815" lon="5.69886">
        <ele>529.8</ele>
        <time>2022-03-09T13:00:31Z</time>
      </trkpt>
      <trkpt lat="46.76815" lon="5.69886">
        <ele>529.8</ele>
        <time>2022-03-09T13:00:32Z</time>
      </trkpt>
      <trkpt lat="46.76812" lon="5.6988">
        <ele>530</ele>
        <time>2022-03-09T13:00:33Z</time>
      </trkpt>
      <trkpt lat="46.7681" lon="5.69873">
        <ele>530</ele>
        <time>2022-03-09T13:00:34Z</time>
      </trkpt>
      <trkpt lat="46.76807" lon="5.69866">
        <ele>530</ele>
        <time>2022-03-09T13:00:35Z</time>
      </trkpt>
      <trkpt lat="46.76804" lon="5.69859">
        <ele>530</ele>
        <time>2022-03-09T13:00:36Z</time>
      </trkpt>
      <trkpt lat="46.76802" lon="5.69852">
        <ele>530</ele>
        <time>2022-03-09T13:00:37Z</time>
      </trkpt>
      <trkpt lat="46.76799" lon="5.69844">
        <ele>530</ele>
        <time>2022-03-09T13:00:38Z</time>
      </trkpt>
      <trkpt lat="46.76796" lon="5.69837">
        <ele>530</ele>
        <time>2022-03-09T13:00:39Z</time>
      </trkpt>
      <trkpt lat="46.76793" lon="5.69829">
        <ele>530</ele>
        <time>2022-03-09T13:00:40Z</time>
      </trkpt>
      <trkpt lat="46.7679" lon="5.69821">
        <ele>530</ele>
        <time>2022-03-09T13:00:41Z</time>
      </trkpt>
      <trkpt lat="46.76787" lon="5.69813">
        <ele>530</ele>
        <time>2022-03-09T13:00:42Z</time>
      </trkpt>
      <trkpt lat="46.76784" lon="5.69804">
        <ele>530</ele>
        <time>2022-03-09T13:00:43Z</time>
      </trkpt>
      <trkpt lat="46.7678" lon="5.69796">
        <ele>530</ele>
        <time>2022-03-09T13:00:44Z</time>
      </trkpt>
      <trkpt lat="46.76777" lon="5.69787">
        <ele>529.6</ele>
        <time>2022-03-09T13:00:45Z</time>
      </trkpt>
      <trkpt lat="46.76774" lon="5.69778">
        <ele>529.6</ele>
        <time>2022-03-09T13:00:46Z</time>
      </trkpt>
      <trkpt lat="46.7677" lon="5.69768">
        <ele>529.6</ele>
        <time>2022-03-09T13:00:47Z</time>
      </trkpt>
      <trkpt lat="46.76767" lon="5.69759">
        <ele>529.6</ele>
        <time>2022-03-09T13:00:48Z</time>
      </trkpt>
      <trkpt lat="46.76763" lon="5.6975">
        <ele>529.4</ele>
        <time>2022-03-09T13:00:49Z</time>
      </trkpt>
      <trkpt lat="46.76759" lon="5.69741">
        <ele>529.4</ele>
        <time>2022-03-09T13:00:50Z</time>
      </trkpt>
      <trkpt lat="46.76756" lon="5.69731">
        <ele>529.2</ele>
        <time>2022-03-09T13:00:51Z</time>
      </trkpt>
      <trkpt lat="46.76752" lon="5.69722">
        <ele>529.2</ele>
        <time>2022-03-09T13:00:52Z</time>
      </trkpt>
      <trkpt lat="46.76749" lon="5.69712">
        <ele>528.8</ele>
        <time>2022-03-09T13:00:53Z</time>
      </trkpt>
      <trkpt lat="46.76745" lon="5.69702">
        <ele>528.8</ele>
        <time>2022-03-09T13:00:54Z</time>
      </trkpt>
      <trkpt lat="46.76743" lon="5.69692">
        <ele>528.6</ele>
        <time>2022-03-09T13:00:55Z</time>
      </trkpt>
      <trkpt lat="46.76742" lon="5.6968">
        <ele>528.6</ele>
        <time>2022-03-09T13:00:56Z</time>
      </trkpt>
      <trkpt lat="46.76742" lon="5.69669">
        <ele>528.2</ele>
        <time>2022-03-09T13:00:57Z</time>
      </trkpt>
      <trkpt lat="46.76742" lon="5.69657">
        <ele>527.8</ele>
        <time>2022-03-09T13:00:58Z</time>
      </trkpt>
      <trkpt lat="46.76743" lon="5.69645">
        <ele>527.8</ele>
        <time>2022-03-09T13:00:59Z</time>
      </trkpt>
      <trkpt lat="46.76744" lon="5.69633">
        <ele>527.4</ele>
        <time>2022-03-09T13:01:00Z</time>
      </trkpt>
      <trkpt lat="46.76744" lon="5.69621">
        <ele>527.4</ele>
        <time>2022-03-09T13:01:01Z</time>
      </trkpt>
      <trkpt lat="46.76744" lon="5.69609">
        <ele>527.2</ele>
        <time>2022-03-09T13:01:02Z</time>
      </trkpt>
      <trkpt lat="46.76744" lon="5.69597">
        <ele>527.2</ele>
        <time>2022-03-09T13:01:03Z</time>
      </trkpt>
      <trkpt lat="46.76744" lon="5.69585">
        <ele>527</ele>
        <time>2022-03-09T13:01:04Z</time>
      </trkpt>
      <trkpt lat="46.76743" lon="5.69573">
        <ele>527</ele>
        <time>2022-03-09T13:01:05Z</time>
      </trkpt>
      <trkpt lat="46.76743" lon="5.69562">
        <ele>527</ele>
        <time>2022-03-09T13:01:06Z</time>
      </trkpt>
      <trkpt lat="46.76743" lon="5.6955">
        <ele>527</ele>
        <time>2022-03-09T13:01:07Z</time>
      </trkpt>
      <trkpt lat="46.76742" lon="5.6954">
        <ele>527</ele>
        <time>2022-03-09T13:01:08Z</time>
      </trkpt>
      <trkpt lat="46.76741" lon="5.69529">
        <ele>527</ele>
        <time>2022-03-09T13:01:09Z</time>
      </trkpt>
      <trkpt lat="46.76739" lon="5.69518">
        <ele>527</ele>
        <time>2022-03-09T13:01:10Z</time>
      </trkpt>
      <trkpt lat="46.76738" lon="5.69508">
        <ele>527.2</ele>
        <time>2022-03-09T13:01:11Z</time>
      </trkpt>
      <trkpt lat="46.76737" lon="5.69498">
        <ele>527.2</ele>
        <time>2022-03-09T13:01:12Z</time>
      </trkpt>
      <trkpt lat="46.76735" lon="5.69488">
        <ele>527.6</ele>
        <time>2022-03-09T13:01:13Z</time>
      </trkpt>
      <trkpt lat="46.76733" lon="5.69479">
        <ele>527.6</ele>
        <time>2022-03-09T13:01:14Z</time>
      </trkpt>
      <trkpt lat="46.76731" lon="5.6947">
        <ele>528</ele>
        <time>2022-03-09T13:01:15Z</time>
      </trkpt>
      <trkpt lat="46.76727" lon="5.69452">
        <ele>528.2</ele>
        <time>2022-03-09T13:01:16Z</time>
      </trkpt>
      <trkpt lat="46.76725" lon="5.69443">
        <ele>528.4</ele>
        <time>2022-03-09T13:01:17Z</time>
      </trkpt>
      <trkpt lat="46.76723" lon="5.69435">
        <ele>528.4</ele>
        <time>2022-03-09T13:01:18Z</time>
      </trkpt>
      <trkpt lat="46.7672" lon="5.69426">
        <ele>528.8</ele>
        <time>2022-03-09T13:01:19Z</time>
      </trkpt>
      <trkpt lat="46.76718" lon="5.69418">
        <ele>529.2</ele>
        <time>2022-03-09T13:01:20Z</time>
      </trkpt>
      <trkpt lat="46.76716" lon="5.6941">
        <ele>529.6</ele>
        <time>2022-03-09T13:01:21Z</time>
      </trkpt>
      <trkpt lat="46.76714" lon="5.69402">
        <ele>529.8</ele>
        <time>2022-03-09T13:01:22Z</time>
      </trkpt>
      <trkpt lat="46.76712" lon="5.69393">
        <ele>530.2</ele>
        <time>2022-03-09T13:01:23Z</time>
      </trkpt>
      <trkpt lat="46.7671" lon="5.69385">
        <ele>530.4</ele>
        <time>2022-03-09T13:01:24Z</time>
      </trkpt>
      <trkpt lat="46.76707" lon="5.69377">
        <ele>530.6</ele>
        <time>2022-03-09T13:01:25Z</time>
      </trkpt>
      <trkpt lat="46.76705" lon="5.69368">
        <ele>531</ele>
        <time>2022-03-09T13:01:26Z</time>
      </trkpt>
      <trkpt lat="46.76703" lon="5.6936">
        <ele>531.4</ele>
        <time>2022-03-09T13:01:27Z</time>
      </trkpt>
      <trkpt lat="46.76701" lon="5.69352">
        <ele>531.6</ele>
        <time>2022-03-09T13:01:28Z</time>
      </trkpt>
      <trkpt lat="46.76699" lon="5.69343">
        <ele>532</ele>
        <time>2022-03-09T13:01:29Z</time>
      </trkpt>
      <trkpt lat="46.76697" lon="5.69335">
        <ele>532.4</ele>
        <time>2022-03-09T13:01:30Z</time>
      </trkpt>
      <trkpt lat="46.76694" lon="5.69327">
        <ele>532.8</ele>
        <time>2022-03-09T13:01:31Z</time>
      </trkpt>
      <trkpt lat="46.76692" lon="5.69319">
        <ele>533</ele>
        <time>2022-03-09T13:01:32Z</time>
      </trkpt>
      <trkpt lat="46.76691" lon="5.69311">
        <ele>533.4</ele>
        <time>2022-03-09T13:01:33Z</time>
      </trkpt>
      <trkpt lat="46.76689" lon="5.69303">
        <ele>533.6</ele>
        <time>2022-03-09T13:01:34Z</time>
      </trkpt>
      <trkpt lat="46.76687" lon="5.69294">
        <ele>533.8</ele>
        <time>2022-03-09T13:01:35Z</time>
      </trkpt>
      <trkpt lat="46.76685" lon="5.69286">
        <ele>534</ele>
        <time>2022-03-09T13:01:36Z</time>
      </trkpt>
      <trkpt lat="46.76683" lon="5.69277">
        <ele>534.4</ele>
        <time>2022-03-09T13:01:37Z</time>
      </trkpt>
      <trkpt lat="46.76682" lon="5.69269">
        <ele>534.4</ele>
        <time>2022-03-09T13:01:38Z</time>
      </trkpt>
      <trkpt lat="46.76681" lon="5.6926">
        <ele>534.6</ele>
        <time>2022-03-09T13:01:39Z</time>
      </trkpt>
      <trkpt lat="46.76679" lon="5.69252">
        <ele>534.8</ele>
        <time>2022-03-09T13:01:40Z</time>
      </trkpt>
      <trkpt lat="46.76678" lon="5.69243">
        <ele>534.8</ele>
        <time>2022-03-09T13:01:41Z</time>
      </trkpt>
      <trkpt lat="46.76676" lon="5.69235">
        <ele>535.2</ele>
        <time>2022-03-09T13:01:42Z</time>
      </trkpt>
      <trkpt lat="46.76675" lon="5.69227">
        <ele>535.2</ele>
        <time>2022-03-09T13:01:43Z</time>
      </trkpt>
      <trkpt lat="46.76674" lon="5.69218">
        <ele>535.4</ele>
        <time>2022-03-09T13:01:44Z</time>
      </trkpt>
      <trkpt lat="46.76672" lon="5.6921">
        <ele>535.4</ele>
        <time>2022-03-09T13:01:45Z</time>
      </trkpt>
      <trkpt lat="46.76671" lon="5.69201">
        <ele>535.4</ele>
        <time>2022-03-09T13:01:46Z</time>
      </trkpt>
      <trkpt lat="46.7667" lon="5.69192">
        <ele>535.4</ele>
        <time>2022-03-09T13:01:47Z</time>
      </trkpt>
      <trkpt lat="46.76669" lon="5.69183">
        <ele>535.4</ele>
        <time>2022-03-09T13:01:48Z</time>
      </trkpt>
      <trkpt lat="46.76668" lon="5.69174">
        <ele>535.4</ele>
        <time>2022-03-09T13:01:49Z</time>
      </trkpt>
      <trkpt lat="46.76667" lon="5.69164">
        <ele>535.4</ele>
        <time>2022-03-09T13:01:50Z</time>
      </trkpt>
      <trkpt lat="46.76666" lon="5.69154">
        <ele>535.4</ele>
        <time>2022-03-09T13:01:51Z</time>
      </trkpt>
      <trkpt lat="46.76664" lon="5.69144">
        <ele>535.4</ele>
        <time>2022-03-09T13:01:52Z</time>
      </trkpt>
      <trkpt lat="46.76663" lon="5.69134">
        <ele>535.4</ele>
        <time>2022-03-09T13:01:53Z</time>
      </trkpt>
      <trkpt lat="46.76662" lon="5.69123">
        <ele>535.2</ele>
        <time>2022-03-09T13:01:54Z</time>
      </trkpt>
      <trkpt lat="46.76661" lon="5.69113">
        <ele>535.2</ele>
        <time>2022-03-09T13:01:55Z</time>
      </trkpt>
      <trkpt lat="46.7666" lon="5.69101">
        <ele>535</ele>
        <time>2022-03-09T13:01:56Z</time>
      </trkpt>
      <trkpt lat="46.76658" lon="5.6909">
        <ele>535</ele>
        <time>2022-03-09T13:01:57Z</time>
      </trkpt>
      <trkpt lat="46.76657" lon="5.69079">
        <ele>534.6</ele>
        <time>2022-03-09T13:01:58Z</time>
      </trkpt>
      <trkpt lat="46.76656" lon="5.69067">
        <ele>534.4</ele>
        <time>2022-03-09T13:01:59Z</time>
      </trkpt>
      <trkpt lat="46.76654" lon="5.69055">
        <ele>534.2</ele>
        <time>2022-03-09T13:02:00Z</time>
      </trkpt>
      <trkpt lat="46.76653" lon="5.69043">
        <ele>534</ele>
        <time>2022-03-09T13:02:01Z</time>
      </trkpt>
      <trkpt lat="46.76652" lon="5.69031">
        <ele>533.6</ele>
        <time>2022-03-09T13:02:02Z</time>
      </trkpt>
      <trkpt lat="46.76651" lon="5.69018">
        <ele>533.6</ele>
        <time>2022-03-09T13:02:03Z</time>
      </trkpt>
      <trkpt lat="46.76649" lon="5.69006">
        <ele>533.2</ele>
        <time>2022-03-09T13:02:04Z</time>
      </trkpt>
      <trkpt lat="46.76648" lon="5.68993">
        <ele>533</ele>
        <time>2022-03-09T13:02:05Z</time>
      </trkpt>
      <trkpt lat="46.76647" lon="5.68981">
        <ele>532.6</ele>
        <time>2022-03-09T13:02:06Z</time>
      </trkpt>
      <trkpt lat="46.76646" lon="5.68969">
        <ele>532.6</ele>
        <time>2022-03-09T13:02:07Z</time>
      </trkpt>
      <trkpt lat="46.76645" lon="5.68957">
        <ele>532.2</ele>
        <time>2022-03-09T13:02:08Z</time>
      </trkpt>
      <trkpt lat="46.76645" lon="5.68945">
        <ele>532</ele>
        <time>2022-03-09T13:02:09Z</time>
      </trkpt>
      <trkpt lat="46.76645" lon="5.68933">
        <ele>531.6</ele>
        <time>2022-03-09T13:02:10Z</time>
      </trkpt>
      <trkpt lat="46.76645" lon="5.68922">
        <ele>531.4</ele>
        <time>2022-03-09T13:02:11Z</time>
      </trkpt>
      <trkpt lat="46.76645" lon="5.6891">
        <ele>531.4</ele>
        <time>2022-03-09T13:02:12Z</time>
      </trkpt>
      <trkpt lat="46.76645" lon="5.68898">
        <ele>531</ele>
        <time>2022-03-09T13:02:13Z</time>
      </trkpt>
      <trkpt lat="46.76645" lon="5.68885">
        <ele>530.8</ele>
        <time>2022-03-09T13:02:14Z</time>
      </trkpt>
      <trkpt lat="46.76645" lon="5.68874">
        <ele>530.6</ele>
        <time>2022-03-09T13:02:15Z</time>
      </trkpt>
      <trkpt lat="46.76645" lon="5.68862">
        <ele>530.6</ele>
        <time>2022-03-09T13:02:16Z</time>
      </trkpt>
      <trkpt lat="46.76645" lon="5.6885">
        <ele>530.2</ele>
        <time>2022-03-09T13:02:17Z</time>
      </trkpt>
      <trkpt lat="46.76646" lon="5.68837">
        <ele>529.8</ele>
        <time>2022-03-09T13:02:18Z</time>
      </trkpt>
      <trkpt lat="46.76646" lon="5.68825">
        <ele>529.6</ele>
        <time>2022-03-09T13:02:19Z</time>
      </trkpt>
      <trkpt lat="46.76646" lon="5.68813">
        <ele>529.6</ele>
        <time>2022-03-09T13:02:20Z</time>
      </trkpt>
      <trkpt lat="46.76646" lon="5.68801">
        <ele>529.2</ele>
        <time>2022-03-09T13:02:21Z</time>
      </trkpt>
      <trkpt lat="46.76646" lon="5.68789">
        <ele>529.2</ele>
        <time>2022-03-09T13:02:22Z</time>
      </trkpt>
      <trkpt lat="46.76646" lon="5.68777">
        <ele>528.8</ele>
        <time>2022-03-09T13:02:23Z</time>
      </trkpt>
      <trkpt lat="46.76645" lon="5.68765">
        <ele>528.6</ele>
        <time>2022-03-09T13:02:24Z</time>
      </trkpt>
      <trkpt lat="46.76645" lon="5.68753">
        <ele>528.6</ele>
        <time>2022-03-09T13:02:25Z</time>
      </trkpt>
      <trkpt lat="46.76645" lon="5.68741">
        <ele>528.2</ele>
        <time>2022-03-09T13:02:26Z</time>
      </trkpt>
      <trkpt lat="46.76645" lon="5.68728">
        <ele>528.2</ele>
        <time>2022-03-09T13:02:27Z</time>
      </trkpt>
      <trkpt lat="46.76645" lon="5.68716">
        <ele>527.8</ele>
        <time>2022-03-09T13:02:28Z</time>
      </trkpt>
      <trkpt lat="46.76645" lon="5.68703">
        <ele>527.8</ele>
        <time>2022-03-09T13:02:29Z</time>
      </trkpt>
      <trkpt lat="46.76645" lon="5.68691">
        <ele>527.4</ele>
        <time>2022-03-09T13:02:30Z</time>
      </trkpt>
      <trkpt lat="46.76645" lon="5.68678">
        <ele>527.2</ele>
        <time>2022-03-09T13:02:31Z</time>
      </trkpt>
      <trkpt lat="46.76645" lon="5.68666">
        <ele>527.2</ele>
        <time>2022-03-09T13:02:32Z</time>
      </trkpt>
      <trkpt lat="46.76645" lon="5.68653">
        <ele>526.8</ele>
        <time>2022-03-09T13:02:33Z</time>
      </trkpt>
      <trkpt lat="46.76645" lon="5.6864">
        <ele>526.8</ele>
        <time>2022-03-09T13:02:34Z</time>
      </trkpt>
      <trkpt lat="46.76645" lon="5.68628">
        <ele>526.4</ele>
        <time>2022-03-09T13:02:35Z</time>
      </trkpt>
      <trkpt lat="46.76645" lon="5.68615">
        <ele>526.2</ele>
        <time>2022-03-09T13:02:36Z</time>
      </trkpt>
      <trkpt lat="46.76645" lon="5.68602">
        <ele>526</ele>
        <time>2022-03-09T13:02:37Z</time>
      </trkpt>
      <trkpt lat="46.76645" lon="5.68589">
        <ele>525.6</ele>
        <time>2022-03-09T13:02:38Z</time>
      </trkpt>
      <trkpt lat="46.76644" lon="5.68576">
        <ele>525.2</ele>
        <time>2022-03-09T13:02:39Z</time>
      </trkpt>
      <trkpt lat="46.76644" lon="5.68563">
        <ele>525.2</ele>
        <time>2022-03-09T13:02:40Z</time>
      </trkpt>
      <trkpt lat="46.76644" lon="5.68551">
        <ele>525</ele>
        <time>2022-03-09T13:02:41Z</time>
      </trkpt>
      <trkpt lat="46.76645" lon="5.68538">
        <ele>525</ele>
        <time>2022-03-09T13:02:42Z</time>
      </trkpt>
      <trkpt lat="46.76645" lon="5.68526">
        <ele>524.6</ele>
        <time>2022-03-09T13:02:43Z</time>
      </trkpt>
      <trkpt lat="46.76645" lon="5.68514">
        <ele>524.6</ele>
        <time>2022-03-09T13:02:44Z</time>
      </trkpt>
      <trkpt lat="46.76645" lon="5.68502">
        <ele>524.6</ele>
        <time>2022-03-09T13:02:45Z</time>
      </trkpt>
      <trkpt lat="46.76645" lon="5.6849">
        <ele>524.4</ele>
        <time>2022-03-09T13:02:46Z</time>
      </trkpt>
      <trkpt lat="46.76645" lon="5.68478">
        <ele>524.4</ele>
        <time>2022-03-09T13:02:47Z</time>
      </trkpt>
      <trkpt lat="46.76645" lon="5.68467">
        <ele>524.2</ele>
        <time>2022-03-09T13:02:48Z</time>
      </trkpt>
      <trkpt lat="46.76645" lon="5.68455">
        <ele>524.2</ele>
        <time>2022-03-09T13:02:49Z</time>
      </trkpt>
      <trkpt lat="46.76645" lon="5.68443">
        <ele>523.8</ele>
        <time>2022-03-09T13:02:50Z</time>
      </trkpt>
      <trkpt lat="46.76647" lon="5.68431">
        <ele>523.8</ele>
        <time>2022-03-09T13:02:51Z</time>
      </trkpt>
      <trkpt lat="46.76649" lon="5.6842">
        <ele>523.8</ele>
        <time>2022-03-09T13:02:52Z</time>
      </trkpt>
      <trkpt lat="46.76652" lon="5.6841">
        <ele>523.8</ele>
        <time>2022-03-09T13:02:53Z</time>
      </trkpt>
      <trkpt lat="46.76657" lon="5.68401">
        <ele>523.8</ele>
        <time>2022-03-09T13:02:54Z</time>
      </trkpt>
      <trkpt lat="46.76661" lon="5.68392">
        <ele>523.8</ele>
        <time>2022-03-09T13:02:55Z</time>
      </trkpt>
      <trkpt lat="46.76666" lon="5.68384">
        <ele>523.8</ele>
        <time>2022-03-09T13:02:56Z</time>
      </trkpt>
      <trkpt lat="46.7667" lon="5.68376">
        <ele>523.6</ele>
        <time>2022-03-09T13:02:57Z</time>
      </trkpt>
      <trkpt lat="46.76674" lon="5.68367">
        <ele>523.6</ele>
        <time>2022-03-09T13:02:58Z</time>
      </trkpt>
      <trkpt lat="46.76678" lon="5.68359">
        <ele>523.6</ele>
        <time>2022-03-09T13:02:59Z</time>
      </trkpt>
      <trkpt lat="46.76682" lon="5.68351">
        <ele>523.6</ele>
        <time>2022-03-09T13:03:00Z</time>
      </trkpt>
      <trkpt lat="46.76686" lon="5.68343">
        <ele>523.6</ele>
        <time>2022-03-09T13:03:01Z</time>
      </trkpt>
      <trkpt lat="46.7669" lon="5.68334">
        <ele>523.6</ele>
        <time>2022-03-09T13:03:02Z</time>
      </trkpt>
      <trkpt lat="46.76694" lon="5.68326">
        <ele>523.6</ele>
        <time>2022-03-09T13:03:03Z</time>
      </trkpt>
      <trkpt lat="46.76697" lon="5.68319">
        <ele>523.6</ele>
        <time>2022-03-09T13:03:04Z</time>
      </trkpt>
      <trkpt lat="46.76701" lon="5.68311">
        <ele>523.6</ele>
        <time>2022-03-09T13:03:05Z</time>
      </trkpt>
      <trkpt lat="46.76705" lon="5.68304">
        <ele>523.6</ele>
        <time>2022-03-09T13:03:06Z</time>
      </trkpt>
      <trkpt lat="46.76709" lon="5.68296">
        <ele>523.6</ele>
        <time>2022-03-09T13:03:07Z</time>
      </trkpt>
      <trkpt lat="46.76713" lon="5.68289">
        <ele>523.6</ele>
        <time>2022-03-09T13:03:08Z</time>
      </trkpt>
      <trkpt lat="46.76716" lon="5.68282">
        <ele>523.8</ele>
        <time>2022-03-09T13:03:09Z</time>
      </trkpt>
      <trkpt lat="46.7672" lon="5.68274">
        <ele>523.8</ele>
        <time>2022-03-09T13:03:10Z</time>
      </trkpt>
      <trkpt lat="46.76723" lon="5.68267">
        <ele>524.2</ele>
        <time>2022-03-09T13:03:11Z</time>
      </trkpt>
      <trkpt lat="46.76727" lon="5.6826">
        <ele>524.4</ele>
        <time>2022-03-09T13:03:12Z</time>
      </trkpt>
      <trkpt lat="46.7673" lon="5.68254">
        <ele>524.4</ele>
        <time>2022-03-09T13:03:13Z</time>
      </trkpt>
      <trkpt lat="46.76733" lon="5.68247">
        <ele>524.6</ele>
        <time>2022-03-09T13:03:14Z</time>
      </trkpt>
      <trkpt lat="46.76736" lon="5.68241">
        <ele>524.6</ele>
        <time>2022-03-09T13:03:15Z</time>
      </trkpt>
      <trkpt lat="46.7674" lon="5.68235">
        <ele>525</ele>
        <time>2022-03-09T13:03:16Z</time>
      </trkpt>
      <trkpt lat="46.76742" lon="5.68229">
        <ele>525</ele>
        <time>2022-03-09T13:03:17Z</time>
      </trkpt>
      <trkpt lat="46.76745" lon="5.68223">
        <ele>525.2</ele>
        <time>2022-03-09T13:03:18Z</time>
      </trkpt>
      <trkpt lat="46.76748" lon="5.68218">
        <ele>525.4</ele>
        <time>2022-03-09T13:03:19Z</time>
      </trkpt>
      <trkpt lat="46.76751" lon="5.68212">
        <ele>525.4</ele>
        <time>2022-03-09T13:03:20Z</time>
      </trkpt>
      <trkpt lat="46.76753" lon="5.68207">
        <ele>525.8</ele>
        <time>2022-03-09T13:03:21Z</time>
      </trkpt>
      <trkpt lat="46.76756" lon="5.68201">
        <ele>525.8</ele>
        <time>2022-03-09T13:03:22Z</time>
      </trkpt>
      <trkpt lat="46.76759" lon="5.68196">
        <ele>526</ele>
        <time>2022-03-09T13:03:23Z</time>
      </trkpt>
      <trkpt lat="46.76762" lon="5.6819">
        <ele>526.4</ele>
        <time>2022-03-09T13:03:24Z</time>
      </trkpt>
      <trkpt lat="46.76765" lon="5.68185">
        <ele>526.6</ele>
        <time>2022-03-09T13:03:25Z</time>
      </trkpt>
      <trkpt lat="46.76767" lon="5.6818">
        <ele>526.6</ele>
        <time>2022-03-09T13:03:26Z</time>
      </trkpt>
      <trkpt lat="46.7677" lon="5.68174">
        <ele>526.8</ele>
        <time>2022-03-09T13:03:27Z</time>
      </trkpt>
      <trkpt lat="46.76772" lon="5.68169">
        <ele>527</ele>
        <time>2022-03-09T13:03:28Z</time>
      </trkpt>
      <trkpt lat="46.76775" lon="5.68163">
        <ele>527.4</ele>
        <time>2022-03-09T13:03:29Z</time>
      </trkpt>
      <trkpt lat="46.76777" lon="5.68158">
        <ele>527.6</ele>
        <time>2022-03-09T13:03:30Z</time>
      </trkpt>
      <trkpt lat="46.76779" lon="5.68154">
        <ele>527.8</ele>
        <time>2022-03-09T13:03:31Z</time>
      </trkpt>
      <trkpt lat="46.76782" lon="5.68149">
        <ele>528</ele>
        <time>2022-03-09T13:03:32Z</time>
      </trkpt>
      <trkpt lat="46.76785" lon="5.68145">
        <ele>528.2</ele>
        <time>2022-03-09T13:03:33Z</time>
      </trkpt>
      <trkpt lat="46.76787" lon="5.6814">
        <ele>528.2</ele>
        <time>2022-03-09T13:03:34Z</time>
      </trkpt>
      <trkpt lat="46.7679" lon="5.68136">
        <ele>528.6</ele>
        <time>2022-03-09T13:03:35Z</time>
      </trkpt>
      <trkpt lat="46.76792" lon="5.68131">
        <ele>528.6</ele>
        <time>2022-03-09T13:03:36Z</time>
      </trkpt>
      <trkpt lat="46.76794" lon="5.68127">
        <ele>529</ele>
        <time>2022-03-09T13:03:37Z</time>
      </trkpt>
      <trkpt lat="46.76797" lon="5.68123">
        <ele>529</ele>
        <time>2022-03-09T13:03:38Z</time>
      </trkpt>
      <trkpt lat="46.76799" lon="5.68118">
        <ele>529.4</ele>
        <time>2022-03-09T13:03:39Z</time>
      </trkpt>
      <trkpt lat="46.76802" lon="5.68114">
        <ele>529.8</ele>
        <time>2022-03-09T13:03:40Z</time>
      </trkpt>
      <trkpt lat="46.76804" lon="5.6811">
        <ele>530</ele>
        <time>2022-03-09T13:03:41Z</time>
      </trkpt>
      <trkpt lat="46.76806" lon="5.68105">
        <ele>530.2</ele>
        <time>2022-03-09T13:03:42Z</time>
      </trkpt>
      <trkpt lat="46.76808" lon="5.68101">
        <ele>530.4</ele>
        <time>2022-03-09T13:03:43Z</time>
      </trkpt>
      <trkpt lat="46.76811" lon="5.68096">
        <ele>530.4</ele>
        <time>2022-03-09T13:03:44Z</time>
      </trkpt>
      <trkpt lat="46.76813" lon="5.68091">
        <ele>530.8</ele>
        <time>2022-03-09T13:03:45Z</time>
      </trkpt>
      <trkpt lat="46.76815" lon="5.68086">
        <ele>531</ele>
        <time>2022-03-09T13:03:46Z</time>
      </trkpt>
      <trkpt lat="46.76817" lon="5.68082">
        <ele>531.2</ele>
        <time>2022-03-09T13:03:47Z</time>
      </trkpt>
      <trkpt lat="46.76819" lon="5.68077">
        <ele>531.2</ele>
        <time>2022-03-09T13:03:48Z</time>
      </trkpt>
      <trkpt lat="46.76822" lon="5.68073">
        <ele>531.6</ele>
        <time>2022-03-09T13:03:49Z</time>
      </trkpt>
      <trkpt lat="46.76824" lon="5.68069">
        <ele>531.8</ele>
        <time>2022-03-09T13:03:50Z</time>
      </trkpt>
      <trkpt lat="46.76827" lon="5.68064">
        <ele>532</ele>
        <time>2022-03-09T13:03:51Z</time>
      </trkpt>
      <trkpt lat="46.7683" lon="5.6806">
        <ele>532</ele>
        <time>2022-03-09T13:03:52Z</time>
      </trkpt>
      <trkpt lat="46.76833" lon="5.68055">
        <ele>532.4</ele>
        <time>2022-03-09T13:03:53Z</time>
      </trkpt>
      <trkpt lat="46.76835" lon="5.68049">
        <ele>532.8</ele>
        <time>2022-03-09T13:03:54Z</time>
      </trkpt>
      <trkpt lat="46.76837" lon="5.68044">
        <ele>533</ele>
        <time>2022-03-09T13:03:55Z</time>
      </trkpt>
      <trkpt lat="46.7684" lon="5.68039">
        <ele>533.2</ele>
        <time>2022-03-09T13:03:56Z</time>
      </trkpt>
      <trkpt lat="46.76842" lon="5.68035">
        <ele>533.4</ele>
        <time>2022-03-09T13:03:57Z</time>
      </trkpt>
      <trkpt lat="46.76845" lon="5.6803">
        <ele>533.4</ele>
        <time>2022-03-09T13:03:58Z</time>
      </trkpt>
      <trkpt lat="46.76847" lon="5.68026">
        <ele>533.8</ele>
        <time>2022-03-09T13:03:59Z</time>
      </trkpt>
      <trkpt lat="46.7685" lon="5.68022">
        <ele>533.8</ele>
        <time>2022-03-09T13:04:00Z</time>
      </trkpt>
      <trkpt lat="46.76852" lon="5.68016">
        <ele>534</ele>
        <time>2022-03-09T13:04:01Z</time>
      </trkpt>
      <trkpt lat="46.76854" lon="5.68011">
        <ele>534</ele>
        <time>2022-03-09T13:04:02Z</time>
      </trkpt>
      <trkpt lat="46.76857" lon="5.68006">
        <ele>534.4</ele>
        <time>2022-03-09T13:04:03Z</time>
      </trkpt>
      <trkpt lat="46.76859" lon="5.68">
        <ele>534.4</ele>
        <time>2022-03-09T13:04:04Z</time>
      </trkpt>
      <trkpt lat="46.76862" lon="5.67994">
        <ele>534.6</ele>
        <time>2022-03-09T13:04:05Z</time>
      </trkpt>
      <trkpt lat="46.76864" lon="5.67988">
        <ele>534.6</ele>
        <time>2022-03-09T13:04:06Z</time>
      </trkpt>
      <trkpt lat="46.76867" lon="5.67982">
        <ele>534.6</ele>
        <time>2022-03-09T13:04:07Z</time>
      </trkpt>
      <trkpt lat="46.7687" lon="5.67977">
        <ele>534.8</ele>
        <time>2022-03-09T13:04:08Z</time>
      </trkpt>
      <trkpt lat="46.76872" lon="5.67971">
        <ele>534.8</ele>
        <time>2022-03-09T13:04:09Z</time>
      </trkpt>
      <trkpt lat="46.76875" lon="5.67965">
        <ele>534.8</ele>
        <time>2022-03-09T13:04:10Z</time>
      </trkpt>
      <trkpt lat="46.76878" lon="5.67959">
        <ele>534.8</ele>
        <time>2022-03-09T13:04:11Z</time>
      </trkpt>
      <trkpt lat="46.76881" lon="5.67953">
        <ele>535.2</ele>
        <time>2022-03-09T13:04:12Z</time>
      </trkpt>
      <trkpt lat="46.76883" lon="5.67946">
        <ele>535.2</ele>
        <time>2022-03-09T13:04:13Z</time>
      </trkpt>
      <trkpt lat="46.76886" lon="5.67941">
        <ele>535.2</ele>
        <time>2022-03-09T13:04:14Z</time>
      </trkpt>
      <trkpt lat="46.76888" lon="5.67936">
        <ele>535.2</ele>
        <time>2022-03-09T13:04:15Z</time>
      </trkpt>
      <trkpt lat="46.76891" lon="5.67931">
        <ele>535.4</ele>
        <time>2022-03-09T13:04:16Z</time>
      </trkpt>
      <trkpt lat="46.76893" lon="5.67926">
        <ele>535.4</ele>
        <time>2022-03-09T13:04:17Z</time>
      </trkpt>
      <trkpt lat="46.76896" lon="5.6792">
        <ele>535.8</ele>
        <time>2022-03-09T13:04:18Z</time>
      </trkpt>
      <trkpt lat="46.76898" lon="5.67914">
        <ele>535.8</ele>
        <time>2022-03-09T13:04:19Z</time>
      </trkpt>
      <trkpt lat="46.76901" lon="5.67908">
        <ele>535.8</ele>
        <time>2022-03-09T13:04:20Z</time>
      </trkpt>
      <trkpt lat="46.76903" lon="5.67902">
        <ele>536</ele>
        <time>2022-03-09T13:04:21Z</time>
      </trkpt>
      <trkpt lat="46.76906" lon="5.67896">
        <ele>536</ele>
        <time>2022-03-09T13:04:22Z</time>
      </trkpt>
      <trkpt lat="46.76909" lon="5.67889">
        <ele>536</ele>
        <time>2022-03-09T13:04:23Z</time>
      </trkpt>
      <trkpt lat="46.76912" lon="5.67883">
        <ele>536.4</ele>
        <time>2022-03-09T13:04:24Z</time>
      </trkpt>
      <trkpt lat="46.76914" lon="5.67876">
        <ele>536.4</ele>
        <time>2022-03-09T13:04:25Z</time>
      </trkpt>
      <trkpt lat="46.76917" lon="5.6787">
        <ele>536.4</ele>
        <time>2022-03-09T13:04:26Z</time>
      </trkpt>
      <trkpt lat="46.7692" lon="5.67864">
        <ele>536.4</ele>
        <time>2022-03-09T13:04:27Z</time>
      </trkpt>
      <trkpt lat="46.76923" lon="5.67858">
        <ele>536.6</ele>
        <time>2022-03-09T13:04:28Z</time>
      </trkpt>
      <trkpt lat="46.76926" lon="5.67852">
        <ele>536.6</ele>
        <time>2022-03-09T13:04:29Z</time>
      </trkpt>
      <trkpt lat="46.76928" lon="5.67845">
        <ele>536.6</ele>
        <time>2022-03-09T13:04:30Z</time>
      </trkpt>
      <trkpt lat="46.76928" lon="5.67845">
        <ele>536.8</ele>
        <time>2022-03-09T13:04:31Z</time>
      </trkpt>
      <trkpt lat="46.76931" lon="5.67839">
        <ele>536.8</ele>
        <time>2022-03-09T13:04:32Z</time>
      </trkpt>
      <trkpt lat="46.76934" lon="5.67833">
        <ele>537</ele>
        <time>2022-03-09T13:04:33Z</time>
      </trkpt>
      <trkpt lat="46.76937" lon="5.67826">
        <ele>537</ele>
        <time>2022-03-09T13:04:34Z</time>
      </trkpt>
      <trkpt lat="46.7694" lon="5.6782">
        <ele>537.2</ele>
        <time>2022-03-09T13:04:35Z</time>
      </trkpt>
      <trkpt lat="46.76943" lon="5.67813">
        <ele>537.2</ele>
        <time>2022-03-09T13:04:36Z</time>
      </trkpt>
      <trkpt lat="46.76946" lon="5.67807">
        <ele>537.2</ele>
        <time>2022-03-09T13:04:37Z</time>
      </trkpt>
      <trkpt lat="46.76949" lon="5.678">
        <ele>537.2</ele>
        <time>2022-03-09T13:04:38Z</time>
      </trkpt>
      <trkpt lat="46.76952" lon="5.67794">
        <ele>537.6</ele>
        <time>2022-03-09T13:04:39Z</time>
      </trkpt>
      <trkpt lat="46.76955" lon="5.67787">
        <ele>537.6</ele>
        <time>2022-03-09T13:04:40Z</time>
      </trkpt>
      <trkpt lat="46.76958" lon="5.67781">
        <ele>538</ele>
        <time>2022-03-09T13:04:41Z</time>
      </trkpt>
      <trkpt lat="46.76961" lon="5.67774">
        <ele>538.2</ele>
        <time>2022-03-09T13:04:42Z</time>
      </trkpt>
      <trkpt lat="46.76964" lon="5.67768">
        <ele>538.2</ele>
        <time>2022-03-09T13:04:43Z</time>
      </trkpt>
      <trkpt lat="46.76967" lon="5.67762">
        <ele>538.6</ele>
        <time>2022-03-09T13:04:44Z</time>
      </trkpt>
      <trkpt lat="46.7697" lon="5.67756">
        <ele>539</ele>
        <time>2022-03-09T13:04:45Z</time>
      </trkpt>
      <trkpt lat="46.76973" lon="5.67749">
        <ele>539.2</ele>
        <time>2022-03-09T13:04:46Z</time>
      </trkpt>
      <trkpt lat="46.76976" lon="5.67742">
        <ele>539.4</ele>
        <time>2022-03-09T13:04:47Z</time>
      </trkpt>
      <trkpt lat="46.76979" lon="5.67736">
        <ele>539.8</ele>
        <time>2022-03-09T13:04:48Z</time>
      </trkpt>
      <trkpt lat="46.76982" lon="5.67729">
        <ele>540</ele>
        <time>2022-03-09T13:04:49Z</time>
      </trkpt>
      <trkpt lat="46.76985" lon="5.67723">
        <ele>540</ele>
        <time>2022-03-09T13:04:50Z</time>
      </trkpt>
      <trkpt lat="46.76988" lon="5.67717">
        <ele>540.2</ele>
        <time>2022-03-09T13:04:51Z</time>
      </trkpt>
      <trkpt lat="46.76991" lon="5.67712">
        <ele>540.6</ele>
        <time>2022-03-09T13:04:52Z</time>
      </trkpt>
      <trkpt lat="46.76993" lon="5.67707">
        <ele>540.8</ele>
        <time>2022-03-09T13:04:53Z</time>
      </trkpt>
      <trkpt lat="46.76996" lon="5.67701">
        <ele>540.8</ele>
        <time>2022-03-09T13:04:54Z</time>
      </trkpt>
      <trkpt lat="46.76999" lon="5.67696">
        <ele>541</ele>
        <time>2022-03-09T13:04:55Z</time>
      </trkpt>
      <trkpt lat="46.77001" lon="5.6769">
        <ele>541.4</ele>
        <time>2022-03-09T13:04:56Z</time>
      </trkpt>
      <trkpt lat="46.77004" lon="5.67685">
        <ele>541.6</ele>
        <time>2022-03-09T13:04:57Z</time>
      </trkpt>
      <trkpt lat="46.77007" lon="5.67679">
        <ele>541.8</ele>
        <time>2022-03-09T13:04:58Z</time>
      </trkpt>
      <trkpt lat="46.77012" lon="5.67669">
        <ele>541.8</ele>
        <time>2022-03-09T13:04:59Z</time>
      </trkpt>
      <trkpt lat="46.77014" lon="5.67664">
        <ele>542.2</ele>
        <time>2022-03-09T13:05:00Z</time>
      </trkpt>
      <trkpt lat="46.77016" lon="5.67659">
        <ele>542.2</ele>
        <time>2022-03-09T13:05:01Z</time>
      </trkpt>
      <trkpt lat="46.77019" lon="5.67653">
        <ele>542.6</ele>
        <time>2022-03-09T13:05:02Z</time>
      </trkpt>
      <trkpt lat="46.77021" lon="5.67648">
        <ele>542.8</ele>
        <time>2022-03-09T13:05:03Z</time>
      </trkpt>
      <trkpt lat="46.77024" lon="5.67643">
        <ele>542.8</ele>
        <time>2022-03-09T13:05:04Z</time>
      </trkpt>
      <trkpt lat="46.77027" lon="5.67638">
        <ele>543.2</ele>
        <time>2022-03-09T13:05:05Z</time>
      </trkpt>
      <trkpt lat="46.77029" lon="5.67633">
        <ele>543.4</ele>
        <time>2022-03-09T13:05:06Z</time>
      </trkpt>
      <trkpt lat="46.77032" lon="5.67628">
        <ele>543.4</ele>
        <time>2022-03-09T13:05:07Z</time>
      </trkpt>
      <trkpt lat="46.77035" lon="5.67622">
        <ele>543.8</ele>
        <time>2022-03-09T13:05:08Z</time>
      </trkpt>
      <trkpt lat="46.77037" lon="5.67616">
        <ele>544</ele>
        <time>2022-03-09T13:05:09Z</time>
      </trkpt>
      <trkpt lat="46.7704" lon="5.67611">
        <ele>544</ele>
        <time>2022-03-09T13:05:10Z</time>
      </trkpt>
      <trkpt lat="46.77043" lon="5.67606">
        <ele>544.2</ele>
        <time>2022-03-09T13:05:11Z</time>
      </trkpt>
      <trkpt lat="46.77045" lon="5.67601">
        <ele>544.2</ele>
        <time>2022-03-09T13:05:12Z</time>
      </trkpt>
      <trkpt lat="46.77048" lon="5.67595">
        <ele>544.6</ele>
        <time>2022-03-09T13:05:13Z</time>
      </trkpt>
      <trkpt lat="46.7705" lon="5.6759">
        <ele>544.6</ele>
        <time>2022-03-09T13:05:14Z</time>
      </trkpt>
      <trkpt lat="46.77052" lon="5.67585">
        <ele>545</ele>
        <time>2022-03-09T13:05:15Z</time>
      </trkpt>
      <trkpt lat="46.77054" lon="5.6758">
        <ele>545.4</ele>
        <time>2022-03-09T13:05:16Z</time>
      </trkpt>
      <trkpt lat="46.77057" lon="5.67576">
        <ele>545.6</ele>
        <time>2022-03-09T13:05:17Z</time>
      </trkpt>
      <trkpt lat="46.77059" lon="5.67572">
        <ele>545.6</ele>
        <time>2022-03-09T13:05:18Z</time>
      </trkpt>
      <trkpt lat="46.77061" lon="5.67568">
        <ele>546</ele>
        <time>2022-03-09T13:05:19Z</time>
      </trkpt>
      <trkpt lat="46.77064" lon="5.67563">
        <ele>546</ele>
        <time>2022-03-09T13:05:20Z</time>
      </trkpt>
      <trkpt lat="46.77066" lon="5.67557">
        <ele>546.4</ele>
        <time>2022-03-09T13:05:21Z</time>
      </trkpt>
      <trkpt lat="46.77069" lon="5.67552">
        <ele>546.4</ele>
        <time>2022-03-09T13:05:22Z</time>
      </trkpt>
      <trkpt lat="46.77071" lon="5.67547">
        <ele>546.6</ele>
        <time>2022-03-09T13:05:23Z</time>
      </trkpt>
      <trkpt lat="46.77073" lon="5.67542">
        <ele>547</ele>
        <time>2022-03-09T13:05:24Z</time>
      </trkpt>
      <trkpt lat="46.77076" lon="5.67537">
        <ele>547</ele>
        <time>2022-03-09T13:05:25Z</time>
      </trkpt>
      <trkpt lat="46.77078" lon="5.67532">
        <ele>547.2</ele>
        <time>2022-03-09T13:05:26Z</time>
      </trkpt>
      <trkpt lat="46.77081" lon="5.67527">
        <ele>547.2</ele>
        <time>2022-03-09T13:05:27Z</time>
      </trkpt>
      <trkpt lat="46.77084" lon="5.67522">
        <ele>547.4</ele>
        <time>2022-03-09T13:05:28Z</time>
      </trkpt>
      <trkpt lat="46.77087" lon="5.67517">
        <ele>547.4</ele>
        <time>2022-03-09T13:05:29Z</time>
      </trkpt>
      <trkpt lat="46.7709" lon="5.67512">
        <ele>547.8</ele>
        <time>2022-03-09T13:05:30Z</time>
      </trkpt>
      <trkpt lat="46.77093" lon="5.67507">
        <ele>547.8</ele>
        <time>2022-03-09T13:05:31Z</time>
      </trkpt>
      <trkpt lat="46.77095" lon="5.67502">
        <ele>548</ele>
        <time>2022-03-09T13:05:32Z</time>
      </trkpt>
      <trkpt lat="46.77098" lon="5.67497">
        <ele>548</ele>
        <time>2022-03-09T13:05:33Z</time>
      </trkpt>
      <trkpt lat="46.77102" lon="5.67491">
        <ele>548</ele>
        <time>2022-03-09T13:05:34Z</time>
      </trkpt>
      <trkpt lat="46.77105" lon="5.67487">
        <ele>548</ele>
        <time>2022-03-09T13:05:35Z</time>
      </trkpt>
      <trkpt lat="46.77109" lon="5.67482">
        <ele>548</ele>
        <time>2022-03-09T13:05:36Z</time>
      </trkpt>
      <trkpt lat="46.77114" lon="5.67478">
        <ele>548</ele>
        <time>2022-03-09T13:05:37Z</time>
      </trkpt>
      <trkpt lat="46.77119" lon="5.67475">
        <ele>548</ele>
        <time>2022-03-09T13:05:38Z</time>
      </trkpt>
      <trkpt lat="46.77125" lon="5.67471">
        <ele>547.8</ele>
        <time>2022-03-09T13:05:39Z</time>
      </trkpt>
      <trkpt lat="46.77131" lon="5.67468">
        <ele>547.6</ele>
        <time>2022-03-09T13:05:40Z</time>
      </trkpt>
      <trkpt lat="46.77138" lon="5.67465">
        <ele>547.6</ele>
        <time>2022-03-09T13:05:41Z</time>
      </trkpt>
      <trkpt lat="46.77144" lon="5.67461">
        <ele>547</ele>
        <time>2022-03-09T13:05:42Z</time>
      </trkpt>
      <trkpt lat="46.77152" lon="5.67458">
        <ele>546.6</ele>
        <time>2022-03-09T13:05:43Z</time>
      </trkpt>
      <trkpt lat="46.77159" lon="5.67455">
        <ele>546.2</ele>
        <time>2022-03-09T13:05:44Z</time>
      </trkpt>
      <trkpt lat="46.77167" lon="5.67451">
        <ele>545.8</ele>
        <time>2022-03-09T13:05:45Z</time>
      </trkpt>
      <trkpt lat="46.77175" lon="5.67447">
        <ele>545.4</ele>
        <time>2022-03-09T13:05:46Z</time>
      </trkpt>
      <trkpt lat="46.77183" lon="5.67444">
        <ele>545</ele>
        <time>2022-03-09T13:05:47Z</time>
      </trkpt>
      <trkpt lat="46.77192" lon="5.67441">
        <ele>544.4</ele>
        <time>2022-03-09T13:05:48Z</time>
      </trkpt>
      <trkpt lat="46.772" lon="5.67437">
        <ele>544</ele>
        <time>2022-03-09T13:05:49Z</time>
      </trkpt>
      <trkpt lat="46.7721" lon="5.67433">
        <ele>543.4</ele>
        <time>2022-03-09T13:05:50Z</time>
      </trkpt>
      <trkpt lat="46.77218" lon="5.67428">
        <ele>543</ele>
        <time>2022-03-09T13:05:51Z</time>
      </trkpt>
      <trkpt lat="46.77227" lon="5.67422">
        <ele>542.6</ele>
        <time>2022-03-09T13:05:52Z</time>
      </trkpt>
      <trkpt lat="46.77236" lon="5.67415">
        <ele>542</ele>
        <time>2022-03-09T13:05:53Z</time>
      </trkpt>
      <trkpt lat="46.77244" lon="5.67406">
        <ele>541.6</ele>
        <time>2022-03-09T13:05:54Z</time>
      </trkpt>
      <trkpt lat="46.77253" lon="5.67396">
        <ele>541.2</ele>
        <time>2022-03-09T13:05:55Z</time>
      </trkpt>
      <trkpt lat="46.77261" lon="5.67386">
        <ele>540.6</ele>
        <time>2022-03-09T13:05:56Z</time>
      </trkpt>
      <trkpt lat="46.7727" lon="5.67376">
        <ele>540.2</ele>
        <time>2022-03-09T13:05:57Z</time>
      </trkpt>
      <trkpt lat="46.77278" lon="5.67365">
        <ele>539.8</ele>
        <time>2022-03-09T13:05:58Z</time>
      </trkpt>
      <trkpt lat="46.77286" lon="5.67353">
        <ele>539.2</ele>
        <time>2022-03-09T13:05:59Z</time>
      </trkpt>
      <trkpt lat="46.77293" lon="5.67341">
        <ele>538.6</ele>
        <time>2022-03-09T13:06:00Z</time>
      </trkpt>
      <trkpt lat="46.77299" lon="5.67328">
        <ele>538.2</ele>
        <time>2022-03-09T13:06:01Z</time>
      </trkpt>
      <trkpt lat="46.77306" lon="5.67317">
        <ele>537.6</ele>
        <time>2022-03-09T13:06:02Z</time>
      </trkpt>
      <trkpt lat="46.77312" lon="5.67305">
        <ele>537</ele>
        <time>2022-03-09T13:06:03Z</time>
      </trkpt>
      <trkpt lat="46.77318" lon="5.67294">
        <ele>536.6</ele>
        <time>2022-03-09T13:06:04Z</time>
      </trkpt>
      <trkpt lat="46.77324" lon="5.67281">
        <ele>536.2</ele>
        <time>2022-03-09T13:06:05Z</time>
      </trkpt>
      <trkpt lat="46.77331" lon="5.67269">
        <ele>535.8</ele>
        <time>2022-03-09T13:06:06Z</time>
      </trkpt>
      <trkpt lat="46.77338" lon="5.67258">
        <ele>535.4</ele>
        <time>2022-03-09T13:06:07Z</time>
      </trkpt>
      <trkpt lat="46.77345" lon="5.67247">
        <ele>534.8</ele>
        <time>2022-03-09T13:06:08Z</time>
      </trkpt>
      <trkpt lat="46.77353" lon="5.67237">
        <ele>534.4</ele>
        <time>2022-03-09T13:06:09Z</time>
      </trkpt>
      <trkpt lat="46.77362" lon="5.67228">
        <ele>534</ele>
        <time>2022-03-09T13:06:10Z</time>
      </trkpt>
      <trkpt lat="46.77371" lon="5.6722">
        <ele>533.6</ele>
        <time>2022-03-09T13:06:11Z</time>
      </trkpt>
      <trkpt lat="46.7738" lon="5.67211">
        <ele>533</ele>
        <time>2022-03-09T13:06:12Z</time>
      </trkpt>
      <trkpt lat="46.7739" lon="5.67203">
        <ele>532.8</ele>
        <time>2022-03-09T13:06:13Z</time>
      </trkpt>
      <trkpt lat="46.774" lon="5.67196">
        <ele>532.4</ele>
        <time>2022-03-09T13:06:14Z</time>
      </trkpt>
      <trkpt lat="46.77409" lon="5.67187">
        <ele>532</ele>
        <time>2022-03-09T13:06:15Z</time>
      </trkpt>
      <trkpt lat="46.77418" lon="5.67179">
        <ele>531.4</ele>
        <time>2022-03-09T13:06:16Z</time>
      </trkpt>
      <trkpt lat="46.77428" lon="5.67171">
        <ele>531</ele>
        <time>2022-03-09T13:06:17Z</time>
      </trkpt>
      <trkpt lat="46.77437" lon="5.67163">
        <ele>530.6</ele>
        <time>2022-03-09T13:06:18Z</time>
      </trkpt>
      <trkpt lat="46.77447" lon="5.67153">
        <ele>530</ele>
        <time>2022-03-09T13:06:19Z</time>
      </trkpt>
      <trkpt lat="46.77456" lon="5.67143">
        <ele>529.6</ele>
        <time>2022-03-09T13:06:20Z</time>
      </trkpt>
      <trkpt lat="46.77465" lon="5.67133">
        <ele>529</ele>
        <time>2022-03-09T13:06:21Z</time>
      </trkpt>
      <trkpt lat="46.77475" lon="5.67123">
        <ele>528.4</ele>
        <time>2022-03-09T13:06:22Z</time>
      </trkpt>
      <trkpt lat="46.77484" lon="5.67113">
        <ele>527.8</ele>
        <time>2022-03-09T13:06:23Z</time>
      </trkpt>
      <trkpt lat="46.77494" lon="5.67104">
        <ele>527.4</ele>
        <time>2022-03-09T13:06:24Z</time>
      </trkpt>
      <trkpt lat="46.77502" lon="5.67094">
        <ele>527</ele>
        <time>2022-03-09T13:06:25Z</time>
      </trkpt>
      <trkpt lat="46.77511" lon="5.67083">
        <ele>526.6</ele>
        <time>2022-03-09T13:06:26Z</time>
      </trkpt>
      <trkpt lat="46.7752" lon="5.67073">
        <ele>526.2</ele>
        <time>2022-03-09T13:06:27Z</time>
      </trkpt>
      <trkpt lat="46.77528" lon="5.67063">
        <ele>526</ele>
        <time>2022-03-09T13:06:28Z</time>
      </trkpt>
      <trkpt lat="46.77536" lon="5.67054">
        <ele>526</ele>
        <time>2022-03-09T13:06:29Z</time>
      </trkpt>
      <trkpt lat="46.77544" lon="5.67046">
        <ele>526</ele>
        <time>2022-03-09T13:06:30Z</time>
      </trkpt>
      <trkpt lat="46.77552" lon="5.67038">
        <ele>526</ele>
        <time>2022-03-09T13:06:31Z</time>
      </trkpt>
      <trkpt lat="46.7756" lon="5.67028">
        <ele>526</ele>
        <time>2022-03-09T13:06:32Z</time>
      </trkpt>
      <trkpt lat="46.77567" lon="5.67019">
        <ele>526</ele>
        <time>2022-03-09T13:06:33Z</time>
      </trkpt>
      <trkpt lat="46.77574" lon="5.6701">
        <ele>526</ele>
        <time>2022-03-09T13:06:34Z</time>
      </trkpt>
      <trkpt lat="46.77581" lon="5.67002">
        <ele>526</ele>
        <time>2022-03-09T13:06:35Z</time>
      </trkpt>
      <trkpt lat="46.77588" lon="5.66993">
        <ele>526</ele>
        <time>2022-03-09T13:06:36Z</time>
      </trkpt>
      <trkpt lat="46.77594" lon="5.66985">
        <ele>526.2</ele>
        <time>2022-03-09T13:06:37Z</time>
      </trkpt>
      <trkpt lat="46.77602" lon="5.66977">
        <ele>526.2</ele>
        <time>2022-03-09T13:06:38Z</time>
      </trkpt>
      <trkpt lat="46.77609" lon="5.66969">
        <ele>526.2</ele>
        <time>2022-03-09T13:06:39Z</time>
      </trkpt>
      <trkpt lat="46.77616" lon="5.66961">
        <ele>526.2</ele>
        <time>2022-03-09T13:06:40Z</time>
      </trkpt>
      <trkpt lat="46.77635" lon="5.66938">
        <ele>526.2</ele>
        <time>2022-03-09T13:06:41Z</time>
      </trkpt>
      <trkpt lat="46.77641" lon="5.6693">
        <ele>526.2</ele>
        <time>2022-03-09T13:06:42Z</time>
      </trkpt>
      <trkpt lat="46.77648" lon="5.66923">
        <ele>526.2</ele>
        <time>2022-03-09T13:06:43Z</time>
      </trkpt>
      <trkpt lat="46.77654" lon="5.66915">
        <ele>526.2</ele>
        <time>2022-03-09T13:06:44Z</time>
      </trkpt>
      <trkpt lat="46.7766" lon="5.66908">
        <ele>526.2</ele>
        <time>2022-03-09T13:06:45Z</time>
      </trkpt>
      <trkpt lat="46.77667" lon="5.669">
        <ele>526</ele>
        <time>2022-03-09T13:06:46Z</time>
      </trkpt>
      <trkpt lat="46.77673" lon="5.66893">
        <ele>526</ele>
        <time>2022-03-09T13:06:47Z</time>
      </trkpt>
      <trkpt lat="46.77679" lon="5.66886">
        <ele>526</ele>
        <time>2022-03-09T13:06:48Z</time>
      </trkpt>
      <trkpt lat="46.77685" lon="5.66879">
        <ele>526</ele>
        <time>2022-03-09T13:06:49Z</time>
      </trkpt>
      <trkpt lat="46.7769" lon="5.66872">
        <ele>526</ele>
        <time>2022-03-09T13:06:50Z</time>
      </trkpt>
      <trkpt lat="46.77696" lon="5.66865">
        <ele>526</ele>
        <time>2022-03-09T13:06:51Z</time>
      </trkpt>
      <trkpt lat="46.77702" lon="5.66858">
        <ele>526</ele>
        <time>2022-03-09T13:06:52Z</time>
      </trkpt>
      <trkpt lat="46.77708" lon="5.66851">
        <ele>526</ele>
        <time>2022-03-09T13:06:53Z</time>
      </trkpt>
      <trkpt lat="46.77713" lon="5.66845">
        <ele>526</ele>
        <time>2022-03-09T13:06:54Z</time>
      </trkpt>
      <trkpt lat="46.77719" lon="5.66838">
        <ele>526</ele>
        <time>2022-03-09T13:06:55Z</time>
      </trkpt>
      <trkpt lat="46.77725" lon="5.66832">
        <ele>526</ele>
        <time>2022-03-09T13:06:56Z</time>
      </trkpt>
      <trkpt lat="46.7773" lon="5.66825">
        <ele>526</ele>
        <time>2022-03-09T13:06:57Z</time>
      </trkpt>
      <trkpt lat="46.77735" lon="5.66819">
        <ele>526</ele>
        <time>2022-03-09T13:06:58Z</time>
      </trkpt>
      <trkpt lat="46.7774" lon="5.66813">
        <ele>526</ele>
        <time>2022-03-09T13:06:59Z</time>
      </trkpt>
      <trkpt lat="46.77745" lon="5.66807">
        <ele>526</ele>
        <time>2022-03-09T13:07:00Z</time>
      </trkpt>
      <trkpt lat="46.7775" lon="5.66801">
        <ele>526.4</ele>
        <time>2022-03-09T13:07:01Z</time>
      </trkpt>
      <trkpt lat="46.77755" lon="5.66795">
        <ele>526.6</ele>
        <time>2022-03-09T13:07:02Z</time>
      </trkpt>
      <trkpt lat="46.7776" lon="5.66789">
        <ele>526.8</ele>
        <time>2022-03-09T13:07:03Z</time>
      </trkpt>
      <trkpt lat="46.77764" lon="5.66785">
        <ele>526.8</ele>
        <time>2022-03-09T13:07:04Z</time>
      </trkpt>
      <trkpt lat="46.77769" lon="5.6678">
        <ele>527</ele>
        <time>2022-03-09T13:07:05Z</time>
      </trkpt>
      <trkpt lat="46.77774" lon="5.66775">
        <ele>527</ele>
        <time>2022-03-09T13:07:06Z</time>
      </trkpt>
      <trkpt lat="46.77779" lon="5.6677">
        <ele>527.4</ele>
        <time>2022-03-09T13:07:07Z</time>
      </trkpt>
      <trkpt lat="46.77783" lon="5.66765">
        <ele>527.8</ele>
        <time>2022-03-09T13:07:08Z</time>
      </trkpt>
      <trkpt lat="46.77788" lon="5.6676">
        <ele>528</ele>
        <time>2022-03-09T13:07:09Z</time>
      </trkpt>
      <trkpt lat="46.77792" lon="5.66755">
        <ele>528.2</ele>
        <time>2022-03-09T13:07:10Z</time>
      </trkpt>
      <trkpt lat="46.77796" lon="5.6675">
        <ele>528.6</ele>
        <time>2022-03-09T13:07:11Z</time>
      </trkpt>
      <trkpt lat="46.778" lon="5.66745">
        <ele>528.8</ele>
        <time>2022-03-09T13:07:12Z</time>
      </trkpt>
      <trkpt lat="46.77804" lon="5.6674">
        <ele>529</ele>
        <time>2022-03-09T13:07:13Z</time>
      </trkpt>
      <trkpt lat="46.77808" lon="5.66736">
        <ele>529.4</ele>
        <time>2022-03-09T13:07:14Z</time>
      </trkpt>
      <trkpt lat="46.77813" lon="5.66731">
        <ele>529.6</ele>
        <time>2022-03-09T13:07:15Z</time>
      </trkpt>
      <trkpt lat="46.77817" lon="5.66726">
        <ele>529.8</ele>
        <time>2022-03-09T13:07:16Z</time>
      </trkpt>
      <trkpt lat="46.77821" lon="5.6672">
        <ele>530.2</ele>
        <time>2022-03-09T13:07:17Z</time>
      </trkpt>
      <trkpt lat="46.77826" lon="5.66715">
        <ele>530.4</ele>
        <time>2022-03-09T13:07:18Z</time>
      </trkpt>
      <trkpt lat="46.7783" lon="5.66709">
        <ele>530.6</ele>
        <time>2022-03-09T13:07:19Z</time>
      </trkpt>
      <trkpt lat="46.77834" lon="5.66703">
        <ele>530.8</ele>
        <time>2022-03-09T13:07:20Z</time>
      </trkpt>
      <trkpt lat="46.77839" lon="5.66697">
        <ele>531.2</ele>
        <time>2022-03-09T13:07:21Z</time>
      </trkpt>
      <trkpt lat="46.77843" lon="5.66691">
        <ele>531.4</ele>
        <time>2022-03-09T13:07:22Z</time>
      </trkpt>
      <trkpt lat="46.77843" lon="5.66691">
        <ele>531.6</ele>
        <time>2022-03-09T13:07:23Z</time>
      </trkpt>
      <trkpt lat="46.77847" lon="5.66684">
        <ele>532</ele>
        <time>2022-03-09T13:07:24Z</time>
      </trkpt>
      <trkpt lat="46.77851" lon="5.66678">
        <ele>532.2</ele>
        <time>2022-03-09T13:07:25Z</time>
      </trkpt>
      <trkpt lat="46.77855" lon="5.66672">
        <ele>532.2</ele>
        <time>2022-03-09T13:07:26Z</time>
      </trkpt>
      <trkpt lat="46.7786" lon="5.66666">
        <ele>532.6</ele>
        <time>2022-03-09T13:07:27Z</time>
      </trkpt>
      <trkpt lat="46.77864" lon="5.66661">
        <ele>532.8</ele>
        <time>2022-03-09T13:07:28Z</time>
      </trkpt>
      <trkpt lat="46.77868" lon="5.66656">
        <ele>533.2</ele>
        <time>2022-03-09T13:07:29Z</time>
      </trkpt>
      <trkpt lat="46.77873" lon="5.6665">
        <ele>533.4</ele>
        <time>2022-03-09T13:07:30Z</time>
      </trkpt>
      <trkpt lat="46.77877" lon="5.66645">
        <ele>533.8</ele>
        <time>2022-03-09T13:07:31Z</time>
      </trkpt>
      <trkpt lat="46.77881" lon="5.6664">
        <ele>534</ele>
        <time>2022-03-09T13:07:32Z</time>
      </trkpt>
      <trkpt lat="46.77885" lon="5.66635">
        <ele>534.2</ele>
        <time>2022-03-09T13:07:33Z</time>
      </trkpt>
      <trkpt lat="46.77889" lon="5.66629">
        <ele>534.4</ele>
        <time>2022-03-09T13:07:34Z</time>
      </trkpt>
      <trkpt lat="46.77894" lon="5.66624">
        <ele>534.4</ele>
        <time>2022-03-09T13:07:35Z</time>
      </trkpt>
      <trkpt lat="46.77898" lon="5.66619">
        <ele>534.8</ele>
        <time>2022-03-09T13:07:36Z</time>
      </trkpt>
      <trkpt lat="46.77902" lon="5.66614">
        <ele>535.2</ele>
        <time>2022-03-09T13:07:37Z</time>
      </trkpt>
      <trkpt lat="46.77906" lon="5.66609">
        <ele>535.2</ele>
        <time>2022-03-09T13:07:38Z</time>
      </trkpt>
      <trkpt lat="46.7791" lon="5.66603">
        <ele>535.4</ele>
        <time>2022-03-09T13:07:39Z</time>
      </trkpt>
      <trkpt lat="46.77915" lon="5.66599">
        <ele>535.8</ele>
        <time>2022-03-09T13:07:40Z</time>
      </trkpt>
      <trkpt lat="46.77919" lon="5.66594">
        <ele>535.8</ele>
        <time>2022-03-09T13:07:41Z</time>
      </trkpt>
      <trkpt lat="46.77923" lon="5.6659">
        <ele>536</ele>
        <time>2022-03-09T13:07:42Z</time>
      </trkpt>
      <trkpt lat="46.77927" lon="5.66585">
        <ele>536.2</ele>
        <time>2022-03-09T13:07:43Z</time>
      </trkpt>
      <trkpt lat="46.77931" lon="5.6658">
        <ele>536.2</ele>
        <time>2022-03-09T13:07:44Z</time>
      </trkpt>
      <trkpt lat="46.77935" lon="5.66576">
        <ele>536.6</ele>
        <time>2022-03-09T13:07:45Z</time>
      </trkpt>
      <trkpt lat="46.77939" lon="5.6657">
        <ele>536.6</ele>
        <time>2022-03-09T13:07:46Z</time>
      </trkpt>
      <trkpt lat="46.77942" lon="5.66565">
        <ele>536.8</ele>
        <time>2022-03-09T13:07:47Z</time>
      </trkpt>
      <trkpt lat="46.77946" lon="5.6656">
        <ele>536.8</ele>
        <time>2022-03-09T13:07:48Z</time>
      </trkpt>
      <trkpt lat="46.7795" lon="5.66555">
        <ele>537.2</ele>
        <time>2022-03-09T13:07:49Z</time>
      </trkpt>
      <trkpt lat="46.77954" lon="5.66551">
        <ele>537.2</ele>
        <time>2022-03-09T13:07:50Z</time>
      </trkpt>
      <trkpt lat="46.77958" lon="5.66546">
        <ele>537.4</ele>
        <time>2022-03-09T13:07:51Z</time>
      </trkpt>
      <trkpt lat="46.77962" lon="5.66542">
        <ele>537.4</ele>
        <time>2022-03-09T13:07:52Z</time>
      </trkpt>
      <trkpt lat="46.77966" lon="5.66538">
        <ele>537.8</ele>
        <time>2022-03-09T13:07:53Z</time>
      </trkpt>
      <trkpt lat="46.7797" lon="5.66533">
        <ele>537.8</ele>
        <time>2022-03-09T13:07:54Z</time>
      </trkpt>
      <trkpt lat="46.77974" lon="5.66529">
        <ele>538</ele>
        <time>2022-03-09T13:07:55Z</time>
      </trkpt>
      <trkpt lat="46.77977" lon="5.66524">
        <ele>538.4</ele>
        <time>2022-03-09T13:07:56Z</time>
      </trkpt>
      <trkpt lat="46.77981" lon="5.66519">
        <ele>538.4</ele>
        <time>2022-03-09T13:07:57Z</time>
      </trkpt>
      <trkpt lat="46.77985" lon="5.66515">
        <ele>538.6</ele>
        <time>2022-03-09T13:07:58Z</time>
      </trkpt>
      <trkpt lat="46.77989" lon="5.66509">
        <ele>538.6</ele>
        <time>2022-03-09T13:07:59Z</time>
      </trkpt>
      <trkpt lat="46.77992" lon="5.66504">
        <ele>538.8</ele>
        <time>2022-03-09T13:08:00Z</time>
      </trkpt>
      <trkpt lat="46.77996" lon="5.665">
        <ele>538.8</ele>
        <time>2022-03-09T13:08:01Z</time>
      </trkpt>
      <trkpt lat="46.78" lon="5.66495">
        <ele>539.2</ele>
        <time>2022-03-09T13:08:02Z</time>
      </trkpt>
      <trkpt lat="46.78004" lon="5.66491">
        <ele>539.2</ele>
        <time>2022-03-09T13:08:03Z</time>
      </trkpt>
      <trkpt lat="46.78008" lon="5.66486">
        <ele>539.4</ele>
        <time>2022-03-09T13:08:04Z</time>
      </trkpt>
      <trkpt lat="46.78012" lon="5.66482">
        <ele>539.4</ele>
        <time>2022-03-09T13:08:05Z</time>
      </trkpt>
      <trkpt lat="46.78016" lon="5.66478">
        <ele>539.8</ele>
        <time>2022-03-09T13:08:06Z</time>
      </trkpt>
      <trkpt lat="46.7802" lon="5.66473">
        <ele>539.8</ele>
        <time>2022-03-09T13:08:07Z</time>
      </trkpt>
      <trkpt lat="46.78023" lon="5.66468">
        <ele>540</ele>
        <time>2022-03-09T13:08:08Z</time>
      </trkpt>
      <trkpt lat="46.78027" lon="5.66463">
        <ele>540</ele>
        <time>2022-03-09T13:08:09Z</time>
      </trkpt>
      <trkpt lat="46.78031" lon="5.66458">
        <ele>540.4</ele>
        <time>2022-03-09T13:08:10Z</time>
      </trkpt>
      <trkpt lat="46.78035" lon="5.66452">
        <ele>540.6</ele>
        <time>2022-03-09T13:08:11Z</time>
      </trkpt>
      <trkpt lat="46.78039" lon="5.66447">
        <ele>540.8</ele>
        <time>2022-03-09T13:08:12Z</time>
      </trkpt>
      <trkpt lat="46.78043" lon="5.66442">
        <ele>540.8</ele>
        <time>2022-03-09T13:08:13Z</time>
      </trkpt>
      <trkpt lat="46.78047" lon="5.66437">
        <ele>541.4</ele>
        <time>2022-03-09T13:08:14Z</time>
      </trkpt>
      <trkpt lat="46.7805" lon="5.66432">
        <ele>541.4</ele>
        <time>2022-03-09T13:08:15Z</time>
      </trkpt>
      <trkpt lat="46.78054" lon="5.66428">
        <ele>541.6</ele>
        <time>2022-03-09T13:08:16Z</time>
      </trkpt>
      <trkpt lat="46.78058" lon="5.66424">
        <ele>541.6</ele>
        <time>2022-03-09T13:08:17Z</time>
      </trkpt>
      <trkpt lat="46.78062" lon="5.66419">
        <ele>541.8</ele>
        <time>2022-03-09T13:08:18Z</time>
      </trkpt>
      <trkpt lat="46.78066" lon="5.66415">
        <ele>541.8</ele>
        <time>2022-03-09T13:08:19Z</time>
      </trkpt>
      <trkpt lat="46.7807" lon="5.66411">
        <ele>542</ele>
        <time>2022-03-09T13:08:20Z</time>
      </trkpt>
      <trkpt lat="46.78074" lon="5.66407">
        <ele>542</ele>
        <time>2022-03-09T13:08:21Z</time>
      </trkpt>
      <trkpt lat="46.78078" lon="5.66403">
        <ele>542</ele>
        <time>2022-03-09T13:08:22Z</time>
      </trkpt>
      <trkpt lat="46.78082" lon="5.66399">
        <ele>542</ele>
        <time>2022-03-09T13:08:23Z</time>
      </trkpt>
      <trkpt lat="46.78087" lon="5.66396">
        <ele>542.4</ele>
        <time>2022-03-09T13:08:24Z</time>
      </trkpt>
      <trkpt lat="46.78092" lon="5.66394">
        <ele>542.4</ele>
        <time>2022-03-09T13:08:25Z</time>
      </trkpt>
      <trkpt lat="46.78098" lon="5.66392">
        <ele>542.4</ele>
        <time>2022-03-09T13:08:26Z</time>
      </trkpt>
      <trkpt lat="46.78104" lon="5.66391">
        <ele>542</ele>
        <time>2022-03-09T13:08:27Z</time>
      </trkpt>
      <trkpt lat="46.78111" lon="5.66389">
        <ele>542</ele>
        <time>2022-03-09T13:08:28Z</time>
      </trkpt>
      <trkpt lat="46.78117" lon="5.66389">
        <ele>542</ele>
        <time>2022-03-09T13:08:29Z</time>
      </trkpt>
      <trkpt lat="46.78125" lon="5.66389">
        <ele>541.8</ele>
        <time>2022-03-09T13:08:30Z</time>
      </trkpt>
      <trkpt lat="46.78132" lon="5.66389">
        <ele>541.8</ele>
        <time>2022-03-09T13:08:31Z</time>
      </trkpt>
      <trkpt lat="46.7814" lon="5.6639">
        <ele>541.4</ele>
        <time>2022-03-09T13:08:32Z</time>
      </trkpt>
      <trkpt lat="46.78147" lon="5.6639">
        <ele>541.4</ele>
        <time>2022-03-09T13:08:33Z</time>
      </trkpt>
      <trkpt lat="46.78155" lon="5.66391">
        <ele>540.8</ele>
        <time>2022-03-09T13:08:34Z</time>
      </trkpt>
      <trkpt lat="46.78164" lon="5.66392">
        <ele>540.6</ele>
        <time>2022-03-09T13:08:35Z</time>
      </trkpt>
      <trkpt lat="46.78172" lon="5.66393">
        <ele>540.4</ele>
        <time>2022-03-09T13:08:36Z</time>
      </trkpt>
      <trkpt lat="46.7818" lon="5.66394">
        <ele>540.2</ele>
        <time>2022-03-09T13:08:37Z</time>
      </trkpt>
      <trkpt lat="46.78189" lon="5.66394">
        <ele>540.2</ele>
        <time>2022-03-09T13:08:38Z</time>
      </trkpt>
      <trkpt lat="46.78198" lon="5.66395">
        <ele>539.8</ele>
        <time>2022-03-09T13:08:39Z</time>
      </trkpt>
      <trkpt lat="46.78206" lon="5.66395">
        <ele>539.4</ele>
        <time>2022-03-09T13:08:40Z</time>
      </trkpt>
      <trkpt lat="46.78215" lon="5.66396">
        <ele>539.2</ele>
        <time>2022-03-09T13:08:41Z</time>
      </trkpt>
      <trkpt lat="46.78224" lon="5.66397">
        <ele>538.8</ele>
        <time>2022-03-09T13:08:42Z</time>
      </trkpt>
      <trkpt lat="46.78233" lon="5.66399">
        <ele>538.4</ele>
        <time>2022-03-09T13:08:43Z</time>
      </trkpt>
      <trkpt lat="46.78242" lon="5.66401">
        <ele>538.4</ele>
        <time>2022-03-09T13:08:44Z</time>
      </trkpt>
      <trkpt lat="46.78251" lon="5.66404">
        <ele>538.2</ele>
        <time>2022-03-09T13:08:45Z</time>
      </trkpt>
      <trkpt lat="46.7826" lon="5.66408">
        <ele>537.6</ele>
        <time>2022-03-09T13:08:46Z</time>
      </trkpt>
      <trkpt lat="46.7827" lon="5.66411">
        <ele>537.2</ele>
        <time>2022-03-09T13:08:47Z</time>
      </trkpt>
      <trkpt lat="46.7828" lon="5.66413">
        <ele>536.8</ele>
        <time>2022-03-09T13:08:48Z</time>
      </trkpt>
      <trkpt lat="46.7829" lon="5.66417">
        <ele>536.4</ele>
        <time>2022-03-09T13:08:49Z</time>
      </trkpt>
      <trkpt lat="46.78299" lon="5.6642">
        <ele>535.8</ele>
        <time>2022-03-09T13:08:50Z</time>
      </trkpt>
      <trkpt lat="46.78309" lon="5.66423">
        <ele>535.4</ele>
        <time>2022-03-09T13:08:51Z</time>
      </trkpt>
      <trkpt lat="46.78319" lon="5.66428">
        <ele>535</ele>
        <time>2022-03-09T13:08:52Z</time>
      </trkpt>
      <trkpt lat="46.78328" lon="5.66432">
        <ele>534.8</ele>
        <time>2022-03-09T13:08:53Z</time>
      </trkpt>
      <trkpt lat="46.78338" lon="5.66436">
        <ele>534.4</ele>
        <time>2022-03-09T13:08:54Z</time>
      </trkpt>
      <trkpt lat="46.78348" lon="5.66441">
        <ele>534</ele>
        <time>2022-03-09T13:08:55Z</time>
      </trkpt>
      <trkpt lat="46.78358" lon="5.66445">
        <ele>533.8</ele>
        <time>2022-03-09T13:08:56Z</time>
      </trkpt>
      <trkpt lat="46.78369" lon="5.66448">
        <ele>533.4</ele>
        <time>2022-03-09T13:08:57Z</time>
      </trkpt>
      <trkpt lat="46.78379" lon="5.66454">
        <ele>533.2</ele>
        <time>2022-03-09T13:08:58Z</time>
      </trkpt>
      <trkpt lat="46.7839" lon="5.66458">
        <ele>532.6</ele>
        <time>2022-03-09T13:08:59Z</time>
      </trkpt>
      <trkpt lat="46.78401" lon="5.6646">
        <ele>532.2</ele>
        <time>2022-03-09T13:09:00Z</time>
      </trkpt>
      <trkpt lat="46.78411" lon="5.6646">
        <ele>531.8</ele>
        <time>2022-03-09T13:09:01Z</time>
      </trkpt>
      <trkpt lat="46.78422" lon="5.66459">
        <ele>531.4</ele>
        <time>2022-03-09T13:09:02Z</time>
      </trkpt>
      <trkpt lat="46.78432" lon="5.66455">
        <ele>531</ele>
        <time>2022-03-09T13:09:03Z</time>
      </trkpt>
      <trkpt lat="46.78442" lon="5.6645">
        <ele>530.8</ele>
        <time>2022-03-09T13:09:04Z</time>
      </trkpt>
      <trkpt lat="46.78452" lon="5.66444">
        <ele>530.4</ele>
        <time>2022-03-09T13:09:05Z</time>
      </trkpt>
      <trkpt lat="46.78461" lon="5.66437">
        <ele>530.2</ele>
        <time>2022-03-09T13:09:06Z</time>
      </trkpt>
      <trkpt lat="46.7847" lon="5.66431">
        <ele>530</ele>
        <time>2022-03-09T13:09:07Z</time>
      </trkpt>
      <trkpt lat="46.78479" lon="5.66425">
        <ele>530</ele>
        <time>2022-03-09T13:09:08Z</time>
      </trkpt>
      <trkpt lat="46.78488" lon="5.66419">
        <ele>529.6</ele>
        <time>2022-03-09T13:09:09Z</time>
      </trkpt>
      <trkpt lat="46.78497" lon="5.66413">
        <ele>529.6</ele>
        <time>2022-03-09T13:09:10Z</time>
      </trkpt>
      <trkpt lat="46.78506" lon="5.66408">
        <ele>529.6</ele>
        <time>2022-03-09T13:09:11Z</time>
      </trkpt>
      <trkpt lat="46.78515" lon="5.66402">
        <ele>529.6</ele>
        <time>2022-03-09T13:09:12Z</time>
      </trkpt>
      <trkpt lat="46.78523" lon="5.66396">
        <ele>529.6</ele>
        <time>2022-03-09T13:09:13Z</time>
      </trkpt>
      <trkpt lat="46.78531" lon="5.66391">
        <ele>530</ele>
        <time>2022-03-09T13:09:14Z</time>
      </trkpt>
      <trkpt lat="46.78539" lon="5.66384">
        <ele>530</ele>
        <time>2022-03-09T13:09:15Z</time>
      </trkpt>
      <trkpt lat="46.78546" lon="5.66378">
        <ele>530.2</ele>
        <time>2022-03-09T13:09:16Z</time>
      </trkpt>
      <trkpt lat="46.78552" lon="5.6637">
        <ele>530.4</ele>
        <time>2022-03-09T13:09:17Z</time>
      </trkpt>
      <trkpt lat="46.78558" lon="5.66362">
        <ele>530.4</ele>
        <time>2022-03-09T13:09:18Z</time>
      </trkpt>
      <trkpt lat="46.78563" lon="5.66353">
        <ele>530.6</ele>
        <time>2022-03-09T13:09:19Z</time>
      </trkpt>
      <trkpt lat="46.78568" lon="5.66344">
        <ele>530.6</ele>
        <time>2022-03-09T13:09:20Z</time>
      </trkpt>
      <trkpt lat="46.78573" lon="5.66335">
        <ele>531</ele>
        <time>2022-03-09T13:09:21Z</time>
      </trkpt>
      <trkpt lat="46.78577" lon="5.66326">
        <ele>531</ele>
        <time>2022-03-09T13:09:22Z</time>
      </trkpt>
      <trkpt lat="46.78581" lon="5.66317">
        <ele>531.4</ele>
        <time>2022-03-09T13:09:23Z</time>
      </trkpt>
      <trkpt lat="46.78589" lon="5.66298">
        <ele>531.4</ele>
        <time>2022-03-09T13:09:24Z</time>
      </trkpt>
      <trkpt lat="46.78592" lon="5.66289">
        <ele>531.6</ele>
        <time>2022-03-09T13:09:25Z</time>
      </trkpt>
      <trkpt lat="46.78596" lon="5.6628">
        <ele>531.8</ele>
        <time>2022-03-09T13:09:26Z</time>
      </trkpt>
      <trkpt lat="46.786" lon="5.66271">
        <ele>531.8</ele>
        <time>2022-03-09T13:09:27Z</time>
      </trkpt>
      <trkpt lat="46.78603" lon="5.66262">
        <ele>532.2</ele>
        <time>2022-03-09T13:09:28Z</time>
      </trkpt>
      <trkpt lat="46.78607" lon="5.66253">
        <ele>532.2</ele>
        <time>2022-03-09T13:09:29Z</time>
      </trkpt>
      <trkpt lat="46.7861" lon="5.66244">
        <ele>532.4</ele>
        <time>2022-03-09T13:09:30Z</time>
      </trkpt>
      <trkpt lat="46.78613" lon="5.66235">
        <ele>532.4</ele>
        <time>2022-03-09T13:09:31Z</time>
      </trkpt>
      <trkpt lat="46.78617" lon="5.66227">
        <ele>532.6</ele>
        <time>2022-03-09T13:09:32Z</time>
      </trkpt>
      <trkpt lat="46.7862" lon="5.66218">
        <ele>532.6</ele>
        <time>2022-03-09T13:09:33Z</time>
      </trkpt>
      <trkpt lat="46.78623" lon="5.6621">
        <ele>532.6</ele>
        <time>2022-03-09T13:09:34Z</time>
      </trkpt>
      <trkpt lat="46.78627" lon="5.66202">
        <ele>532.6</ele>
        <time>2022-03-09T13:09:35Z</time>
      </trkpt>
      <trkpt lat="46.7863" lon="5.66193">
        <ele>532.6</ele>
        <time>2022-03-09T13:09:36Z</time>
      </trkpt>
      <trkpt lat="46.78633" lon="5.66184">
        <ele>533</ele>
        <time>2022-03-09T13:09:37Z</time>
      </trkpt>
      <trkpt lat="46.78637" lon="5.66175">
        <ele>533</ele>
        <time>2022-03-09T13:09:38Z</time>
      </trkpt>
      <trkpt lat="46.7864" lon="5.66166">
        <ele>533</ele>
        <time>2022-03-09T13:09:39Z</time>
      </trkpt>
      <trkpt lat="46.78644" lon="5.66156">
        <ele>532.6</ele>
        <time>2022-03-09T13:09:40Z</time>
      </trkpt>
      <trkpt lat="46.78648" lon="5.66147">
        <ele>532.6</ele>
        <time>2022-03-09T13:09:41Z</time>
      </trkpt>
      <trkpt lat="46.78651" lon="5.66137">
        <ele>532.4</ele>
        <time>2022-03-09T13:09:42Z</time>
      </trkpt>
      <trkpt lat="46.78655" lon="5.66128">
        <ele>532.4</ele>
        <time>2022-03-09T13:09:43Z</time>
      </trkpt>
      <trkpt lat="46.78659" lon="5.66118">
        <ele>532</ele>
        <time>2022-03-09T13:09:44Z</time>
      </trkpt>
      <trkpt lat="46.78663" lon="5.66108">
        <ele>532</ele>
        <time>2022-03-09T13:09:45Z</time>
      </trkpt>
      <trkpt lat="46.78667" lon="5.66098">
        <ele>531.8</ele>
        <time>2022-03-09T13:09:46Z</time>
      </trkpt>
      <trkpt lat="46.78671" lon="5.66088">
        <ele>531.8</ele>
        <time>2022-03-09T13:09:47Z</time>
      </trkpt>
      <trkpt lat="46.78675" lon="5.66078">
        <ele>531.8</ele>
        <time>2022-03-09T13:09:48Z</time>
      </trkpt>
      <trkpt lat="46.78679" lon="5.66069">
        <ele>531.6</ele>
        <time>2022-03-09T13:09:49Z</time>
      </trkpt>
      <trkpt lat="46.78683" lon="5.6606">
        <ele>531.6</ele>
        <time>2022-03-09T13:09:50Z</time>
      </trkpt>
      <trkpt lat="46.78687" lon="5.6605">
        <ele>531.6</ele>
        <time>2022-03-09T13:09:51Z</time>
      </trkpt>
      <trkpt lat="46.78691" lon="5.66041">
        <ele>531.4</ele>
        <time>2022-03-09T13:09:52Z</time>
      </trkpt>
      <trkpt lat="46.78694" lon="5.66031">
        <ele>531.4</ele>
        <time>2022-03-09T13:09:53Z</time>
      </trkpt>
      <trkpt lat="46.78698" lon="5.66022">
        <ele>531.4</ele>
        <time>2022-03-09T13:09:54Z</time>
      </trkpt>
      <trkpt lat="46.78702" lon="5.66012">
        <ele>531.2</ele>
        <time>2022-03-09T13:09:55Z</time>
      </trkpt>
      <trkpt lat="46.78706" lon="5.66002">
        <ele>531.2</ele>
        <time>2022-03-09T13:09:56Z</time>
      </trkpt>
      <trkpt lat="46.7871" lon="5.65992">
        <ele>530.8</ele>
        <time>2022-03-09T13:09:57Z</time>
      </trkpt>
      <trkpt lat="46.78714" lon="5.65981">
        <ele>530.8</ele>
        <time>2022-03-09T13:09:58Z</time>
      </trkpt>
      <trkpt lat="46.78718" lon="5.65971">
        <ele>530.6</ele>
        <time>2022-03-09T13:09:59Z</time>
      </trkpt>
      <trkpt lat="46.78722" lon="5.65961">
        <ele>530.6</ele>
        <time>2022-03-09T13:10:00Z</time>
      </trkpt>
      <trkpt lat="46.78726" lon="5.65951">
        <ele>530.2</ele>
        <time>2022-03-09T13:10:01Z</time>
      </trkpt>
      <trkpt lat="46.7873" lon="5.6594">
        <ele>530.2</ele>
        <time>2022-03-09T13:10:02Z</time>
      </trkpt>
      <trkpt lat="46.78734" lon="5.6593">
        <ele>530</ele>
        <time>2022-03-09T13:10:03Z</time>
      </trkpt>
      <trkpt lat="46.78739" lon="5.65919">
        <ele>529.8</ele>
        <time>2022-03-09T13:10:04Z</time>
      </trkpt>
      <trkpt lat="46.78743" lon="5.65908">
        <ele>529.8</ele>
        <time>2022-03-09T13:10:05Z</time>
      </trkpt>
      <trkpt lat="46.78748" lon="5.65897">
        <ele>529.6</ele>
        <time>2022-03-09T13:10:06Z</time>
      </trkpt>
      <trkpt lat="46.78752" lon="5.65885">
        <ele>529.4</ele>
        <time>2022-03-09T13:10:07Z</time>
      </trkpt>
      <trkpt lat="46.78756" lon="5.65873">
        <ele>529.2</ele>
        <time>2022-03-09T13:10:08Z</time>
      </trkpt>
      <trkpt lat="46.78761" lon="5.6586">
        <ele>529.2</ele>
        <time>2022-03-09T13:10:09Z</time>
      </trkpt>
      <trkpt lat="46.78767" lon="5.6585">
        <ele>528.8</ele>
        <time>2022-03-09T13:10:10Z</time>
      </trkpt>
      <trkpt lat="46.78772" lon="5.65838">
        <ele>528.8</ele>
        <time>2022-03-09T13:10:11Z</time>
      </trkpt>
      <trkpt lat="46.78776" lon="5.65826">
        <ele>528.4</ele>
        <time>2022-03-09T13:10:12Z</time>
      </trkpt>
      <trkpt lat="46.78781" lon="5.65815">
        <ele>528.4</ele>
        <time>2022-03-09T13:10:13Z</time>
      </trkpt>
      <trkpt lat="46.78785" lon="5.65804">
        <ele>528.2</ele>
        <time>2022-03-09T13:10:14Z</time>
      </trkpt>
      <trkpt lat="46.78789" lon="5.65793">
        <ele>528.2</ele>
        <time>2022-03-09T13:10:15Z</time>
      </trkpt>
      <trkpt lat="46.78793" lon="5.65782">
        <ele>528</ele>
        <time>2022-03-09T13:10:16Z</time>
      </trkpt>
      <trkpt lat="46.78798" lon="5.65771">
        <ele>528</ele>
        <time>2022-03-09T13:10:17Z</time>
      </trkpt>
      <trkpt lat="46.78802" lon="5.6576">
        <ele>527.6</ele>
        <time>2022-03-09T13:10:18Z</time>
      </trkpt>
      <trkpt lat="46.78806" lon="5.65749">
        <ele>527.6</ele>
        <time>2022-03-09T13:10:19Z</time>
      </trkpt>
      <trkpt lat="46.78811" lon="5.65738">
        <ele>527.2</ele>
        <time>2022-03-09T13:10:20Z</time>
      </trkpt>
      <trkpt lat="46.78815" lon="5.65727">
        <ele>527.2</ele>
        <time>2022-03-09T13:10:21Z</time>
      </trkpt>
      <trkpt lat="46.78819" lon="5.65716">
        <ele>527</ele>
        <time>2022-03-09T13:10:22Z</time>
      </trkpt>
      <trkpt lat="46.78824" lon="5.65706">
        <ele>527</ele>
        <time>2022-03-09T13:10:23Z</time>
      </trkpt>
      <trkpt lat="46.78828" lon="5.65695">
        <ele>527</ele>
        <time>2022-03-09T13:10:24Z</time>
      </trkpt>
      <trkpt lat="46.78832" lon="5.65685">
        <ele>526.8</ele>
        <time>2022-03-09T13:10:25Z</time>
      </trkpt>
      <trkpt lat="46.78836" lon="5.65675">
        <ele>526.8</ele>
        <time>2022-03-09T13:10:26Z</time>
      </trkpt>
      <trkpt lat="46.78841" lon="5.65664">
        <ele>526.6</ele>
        <time>2022-03-09T13:10:27Z</time>
      </trkpt>
      <trkpt lat="46.78845" lon="5.65654">
        <ele>526.6</ele>
        <time>2022-03-09T13:10:28Z</time>
      </trkpt>
      <trkpt lat="46.78849" lon="5.65643">
        <ele>526.4</ele>
        <time>2022-03-09T13:10:29Z</time>
      </trkpt>
      <trkpt lat="46.78853" lon="5.65633">
        <ele>526.4</ele>
        <time>2022-03-09T13:10:30Z</time>
      </trkpt>
      <trkpt lat="46.78858" lon="5.65622">
        <ele>526</ele>
        <time>2022-03-09T13:10:31Z</time>
      </trkpt>
      <trkpt lat="46.78862" lon="5.65611">
        <ele>526</ele>
        <time>2022-03-09T13:10:32Z</time>
      </trkpt>
      <trkpt lat="46.78867" lon="5.656">
        <ele>525.8</ele>
        <time>2022-03-09T13:10:33Z</time>
      </trkpt>
      <trkpt lat="46.78871" lon="5.65588">
        <ele>525.4</ele>
        <time>2022-03-09T13:10:34Z</time>
      </trkpt>
      <trkpt lat="46.78876" lon="5.65577">
        <ele>525.4</ele>
        <time>2022-03-09T13:10:35Z</time>
      </trkpt>
      <trkpt lat="46.78881" lon="5.65565">
        <ele>524.8</ele>
        <time>2022-03-09T13:10:36Z</time>
      </trkpt>
      <trkpt lat="46.78886" lon="5.65553">
        <ele>524.8</ele>
        <time>2022-03-09T13:10:37Z</time>
      </trkpt>
      <trkpt lat="46.78891" lon="5.65541">
        <ele>524.6</ele>
        <time>2022-03-09T13:10:38Z</time>
      </trkpt>
      <trkpt lat="46.78895" lon="5.65529">
        <ele>524.2</ele>
        <time>2022-03-09T13:10:39Z</time>
      </trkpt>
      <trkpt lat="46.789" lon="5.65517">
        <ele>523.8</ele>
        <time>2022-03-09T13:10:40Z</time>
      </trkpt>
      <trkpt lat="46.78904" lon="5.65506">
        <ele>523.4</ele>
        <time>2022-03-09T13:10:41Z</time>
      </trkpt>
      <trkpt lat="46.78909" lon="5.65494">
        <ele>523</ele>
        <time>2022-03-09T13:10:42Z</time>
      </trkpt>
      <trkpt lat="46.78913" lon="5.65482">
        <ele>522.6</ele>
        <time>2022-03-09T13:10:43Z</time>
      </trkpt>
      <trkpt lat="46.78918" lon="5.6547">
        <ele>522.4</ele>
        <time>2022-03-09T13:10:44Z</time>
      </trkpt>
      <trkpt lat="46.78922" lon="5.65459">
        <ele>522</ele>
        <time>2022-03-09T13:10:45Z</time>
      </trkpt>
      <trkpt lat="46.78926" lon="5.65447">
        <ele>521.8</ele>
        <time>2022-03-09T13:10:46Z</time>
      </trkpt>
      <trkpt lat="46.78931" lon="5.65435">
        <ele>521.6</ele>
        <time>2022-03-09T13:10:47Z</time>
      </trkpt>
      <trkpt lat="46.78935" lon="5.65424">
        <ele>521.2</ele>
        <time>2022-03-09T13:10:48Z</time>
      </trkpt>
      <trkpt lat="46.7894" lon="5.65413">
        <ele>521.2</ele>
        <time>2022-03-09T13:10:49Z</time>
      </trkpt>
      <trkpt lat="46.78944" lon="5.65402">
        <ele>521</ele>
        <time>2022-03-09T13:10:50Z</time>
      </trkpt>
      <trkpt lat="46.78949" lon="5.65391">
        <ele>521</ele>
        <time>2022-03-09T13:10:51Z</time>
      </trkpt>
      <trkpt lat="46.78953" lon="5.6538">
        <ele>520.6</ele>
        <time>2022-03-09T13:10:52Z</time>
      </trkpt>
      <trkpt lat="46.78957" lon="5.65369">
        <ele>520.6</ele>
        <time>2022-03-09T13:10:53Z</time>
      </trkpt>
      <trkpt lat="46.78961" lon="5.65359">
        <ele>520.4</ele>
        <time>2022-03-09T13:10:54Z</time>
      </trkpt>
      <trkpt lat="46.78965" lon="5.65349">
        <ele>520.4</ele>
        <time>2022-03-09T13:10:55Z</time>
      </trkpt>
      <trkpt lat="46.78969" lon="5.65339">
        <ele>520.2</ele>
        <time>2022-03-09T13:10:56Z</time>
      </trkpt>
      <trkpt lat="46.78973" lon="5.65329">
        <ele>520.2</ele>
        <time>2022-03-09T13:10:57Z</time>
      </trkpt>
      <trkpt lat="46.78977" lon="5.6532">
        <ele>519.8</ele>
        <time>2022-03-09T13:10:58Z</time>
      </trkpt>
      <trkpt lat="46.78981" lon="5.6531">
        <ele>519.8</ele>
        <time>2022-03-09T13:10:59Z</time>
      </trkpt>
      <trkpt lat="46.78985" lon="5.653">
        <ele>519.4</ele>
        <time>2022-03-09T13:11:00Z</time>
      </trkpt>
      <trkpt lat="46.78989" lon="5.6529">
        <ele>519.4</ele>
        <time>2022-03-09T13:11:01Z</time>
      </trkpt>
      <trkpt lat="46.78993" lon="5.6528">
        <ele>519</ele>
        <time>2022-03-09T13:11:02Z</time>
      </trkpt>
      <trkpt lat="46.78997" lon="5.65269">
        <ele>518.6</ele>
        <time>2022-03-09T13:11:03Z</time>
      </trkpt>
      <trkpt lat="46.79002" lon="5.65258">
        <ele>518.2</ele>
        <time>2022-03-09T13:11:04Z</time>
      </trkpt>
      <trkpt lat="46.79007" lon="5.65246">
        <ele>517.6</ele>
        <time>2022-03-09T13:11:05Z</time>
      </trkpt>
      <trkpt lat="46.79012" lon="5.65233">
        <ele>517</ele>
        <time>2022-03-09T13:11:06Z</time>
      </trkpt>
      <trkpt lat="46.79017" lon="5.65221">
        <ele>516.4</ele>
        <time>2022-03-09T13:11:07Z</time>
      </trkpt>
      <trkpt lat="46.79023" lon="5.6521">
        <ele>515.8</ele>
        <time>2022-03-09T13:11:08Z</time>
      </trkpt>
      <trkpt lat="46.79028" lon="5.65197">
        <ele>515</ele>
        <time>2022-03-09T13:11:09Z</time>
      </trkpt>
      <trkpt lat="46.79033" lon="5.65183">
        <ele>514.4</ele>
        <time>2022-03-09T13:11:10Z</time>
      </trkpt>
      <trkpt lat="46.79039" lon="5.6517">
        <ele>513.8</ele>
        <time>2022-03-09T13:11:11Z</time>
      </trkpt>
      <trkpt lat="46.79044" lon="5.65157">
        <ele>513.4</ele>
        <time>2022-03-09T13:11:12Z</time>
      </trkpt>
      <trkpt lat="46.7905" lon="5.65144">
        <ele>513.4</ele>
        <time>2022-03-09T13:11:13Z</time>
      </trkpt>
      <trkpt lat="46.79056" lon="5.65131">
        <ele>512.8</ele>
        <time>2022-03-09T13:11:14Z</time>
      </trkpt>
      <trkpt lat="46.79062" lon="5.65119">
        <ele>512.2</ele>
        <time>2022-03-09T13:11:15Z</time>
      </trkpt>
      <trkpt lat="46.79068" lon="5.65106">
        <ele>511.8</ele>
        <time>2022-03-09T13:11:16Z</time>
      </trkpt>
      <trkpt lat="46.79073" lon="5.65094">
        <ele>511.2</ele>
        <time>2022-03-09T13:11:17Z</time>
      </trkpt>
      <trkpt lat="46.79078" lon="5.65082">
        <ele>510.8</ele>
        <time>2022-03-09T13:11:18Z</time>
      </trkpt>
      <trkpt lat="46.79083" lon="5.6507">
        <ele>510.4</ele>
        <time>2022-03-09T13:11:19Z</time>
      </trkpt>
      <trkpt lat="46.79088" lon="5.65056">
        <ele>510</ele>
        <time>2022-03-09T13:11:20Z</time>
      </trkpt>
      <trkpt lat="46.79093" lon="5.65042">
        <ele>509.8</ele>
        <time>2022-03-09T13:11:21Z</time>
      </trkpt>
      <trkpt lat="46.79098" lon="5.6503">
        <ele>509.4</ele>
        <time>2022-03-09T13:11:22Z</time>
      </trkpt>
      <trkpt lat="46.79103" lon="5.65017">
        <ele>509.2</ele>
        <time>2022-03-09T13:11:23Z</time>
      </trkpt>
      <trkpt lat="46.79108" lon="5.65003">
        <ele>509</ele>
        <time>2022-03-09T13:11:24Z</time>
      </trkpt>
      <trkpt lat="46.79114" lon="5.64991">
        <ele>509</ele>
        <time>2022-03-09T13:11:25Z</time>
      </trkpt>
      <trkpt lat="46.79118" lon="5.6498">
        <ele>508.6</ele>
        <time>2022-03-09T13:11:26Z</time>
      </trkpt>
      <trkpt lat="46.79124" lon="5.64969">
        <ele>508.4</ele>
        <time>2022-03-09T13:11:27Z</time>
      </trkpt>
      <trkpt lat="46.7913" lon="5.64957">
        <ele>508.2</ele>
        <time>2022-03-09T13:11:28Z</time>
      </trkpt>
      <trkpt lat="46.79136" lon="5.64947">
        <ele>508.2</ele>
        <time>2022-03-09T13:11:29Z</time>
      </trkpt>
      <trkpt lat="46.79142" lon="5.64937">
        <ele>508.2</ele>
        <time>2022-03-09T13:11:30Z</time>
      </trkpt>
      <trkpt lat="46.79147" lon="5.64928">
        <ele>508</ele>
        <time>2022-03-09T13:11:31Z</time>
      </trkpt>
      <trkpt lat="46.79153" lon="5.64918">
        <ele>508</ele>
        <time>2022-03-09T13:11:32Z</time>
      </trkpt>
      <trkpt lat="46.79159" lon="5.64908">
        <ele>508</ele>
        <time>2022-03-09T13:11:33Z</time>
      </trkpt>
      <trkpt lat="46.79165" lon="5.649">
        <ele>508.2</ele>
        <time>2022-03-09T13:11:34Z</time>
      </trkpt>
      <trkpt lat="46.79171" lon="5.64892">
        <ele>508.4</ele>
        <time>2022-03-09T13:11:35Z</time>
      </trkpt>
      <trkpt lat="46.79178" lon="5.64885">
        <ele>508.6</ele>
        <time>2022-03-09T13:11:36Z</time>
      </trkpt>
      <trkpt lat="46.79184" lon="5.64878">
        <ele>509</ele>
        <time>2022-03-09T13:11:37Z</time>
      </trkpt>
      <trkpt lat="46.79191" lon="5.64872">
        <ele>509.2</ele>
        <time>2022-03-09T13:11:38Z</time>
      </trkpt>
      <trkpt lat="46.79197" lon="5.64865">
        <ele>509.8</ele>
        <time>2022-03-09T13:11:39Z</time>
      </trkpt>
      <trkpt lat="46.79204" lon="5.6486">
        <ele>510.2</ele>
        <time>2022-03-09T13:11:40Z</time>
      </trkpt>
      <trkpt lat="46.79209" lon="5.64854">
        <ele>510.6</ele>
        <time>2022-03-09T13:11:41Z</time>
      </trkpt>
      <trkpt lat="46.79215" lon="5.64847">
        <ele>511</ele>
        <time>2022-03-09T13:11:42Z</time>
      </trkpt>
      <trkpt lat="46.7922" lon="5.6484">
        <ele>511.4</ele>
        <time>2022-03-09T13:11:43Z</time>
      </trkpt>
      <trkpt lat="46.79225" lon="5.64832">
        <ele>511.4</ele>
        <time>2022-03-09T13:11:44Z</time>
      </trkpt>
      <trkpt lat="46.7923" lon="5.64823">
        <ele>511.4</ele>
        <time>2022-03-09T13:11:45Z</time>
      </trkpt>
      <trkpt lat="46.79234" lon="5.64814">
        <ele>511.4</ele>
        <time>2022-03-09T13:11:46Z</time>
      </trkpt>
      <trkpt lat="46.79238" lon="5.64803">
        <ele>511.4</ele>
        <time>2022-03-09T13:11:47Z</time>
      </trkpt>
      <trkpt lat="46.79241" lon="5.64792">
        <ele>511.2</ele>
        <time>2022-03-09T13:11:48Z</time>
      </trkpt>
      <trkpt lat="46.79243" lon="5.6478">
        <ele>511</ele>
        <time>2022-03-09T13:11:49Z</time>
      </trkpt>
      <trkpt lat="46.79245" lon="5.64767">
        <ele>510.6</ele>
        <time>2022-03-09T13:11:50Z</time>
      </trkpt>
      <trkpt lat="46.79246" lon="5.64753">
        <ele>510.2</ele>
        <time>2022-03-09T13:11:51Z</time>
      </trkpt>
      <trkpt lat="46.79249" lon="5.64739">
        <ele>509.8</ele>
        <time>2022-03-09T13:11:52Z</time>
      </trkpt>
      <trkpt lat="46.79251" lon="5.64724">
        <ele>509.4</ele>
        <time>2022-03-09T13:11:53Z</time>
      </trkpt>
      <trkpt lat="46.79254" lon="5.64711">
        <ele>508.8</ele>
        <time>2022-03-09T13:11:54Z</time>
      </trkpt>
      <trkpt lat="46.79257" lon="5.64697">
        <ele>508.4</ele>
        <time>2022-03-09T13:11:55Z</time>
      </trkpt>
      <trkpt lat="46.79257" lon="5.64697">
        <ele>507.8</ele>
        <time>2022-03-09T13:11:56Z</time>
      </trkpt>
      <trkpt lat="46.7926" lon="5.64683">
        <ele>507.4</ele>
        <time>2022-03-09T13:11:57Z</time>
      </trkpt>
      <trkpt lat="46.79263" lon="5.64668">
        <ele>507</ele>
        <time>2022-03-09T13:11:58Z</time>
      </trkpt>
      <trkpt lat="46.79266" lon="5.64654">
        <ele>506.4</ele>
        <time>2022-03-09T13:11:59Z</time>
      </trkpt>
      <trkpt lat="46.79269" lon="5.6464">
        <ele>506</ele>
        <time>2022-03-09T13:12:00Z</time>
      </trkpt>
      <trkpt lat="46.79272" lon="5.64626">
        <ele>505.4</ele>
        <time>2022-03-09T13:12:01Z</time>
      </trkpt>
      <trkpt lat="46.79275" lon="5.64611">
        <ele>504.8</ele>
        <time>2022-03-09T13:12:02Z</time>
      </trkpt>
      <trkpt lat="46.79278" lon="5.64597">
        <ele>504.2</ele>
        <time>2022-03-09T13:12:03Z</time>
      </trkpt>
      <trkpt lat="46.79281" lon="5.64582">
        <ele>503.6</ele>
        <time>2022-03-09T13:12:04Z</time>
      </trkpt>
      <trkpt lat="46.79283" lon="5.64568">
        <ele>503</ele>
        <time>2022-03-09T13:12:05Z</time>
      </trkpt>
      <trkpt lat="46.79286" lon="5.64553">
        <ele>502.2</ele>
        <time>2022-03-09T13:12:06Z</time>
      </trkpt>
      <trkpt lat="46.79289" lon="5.64539">
        <ele>501.6</ele>
        <time>2022-03-09T13:12:07Z</time>
      </trkpt>
      <trkpt lat="46.79292" lon="5.64526">
        <ele>501.2</ele>
        <time>2022-03-09T13:12:08Z</time>
      </trkpt>
      <trkpt lat="46.79295" lon="5.64512">
        <ele>500.8</ele>
        <time>2022-03-09T13:12:09Z</time>
      </trkpt>
      <trkpt lat="46.79298" lon="5.64498">
        <ele>500.4</ele>
        <time>2022-03-09T13:12:10Z</time>
      </trkpt>
      <trkpt lat="46.79301" lon="5.64484">
        <ele>500.4</ele>
        <time>2022-03-09T13:12:11Z</time>
      </trkpt>
      <trkpt lat="46.79304" lon="5.64472">
        <ele>500</ele>
        <time>2022-03-09T13:12:12Z</time>
      </trkpt>
      <trkpt lat="46.79307" lon="5.6446">
        <ele>500</ele>
        <time>2022-03-09T13:12:13Z</time>
      </trkpt>
      <trkpt lat="46.79309" lon="5.64447">
        <ele>499.8</ele>
        <time>2022-03-09T13:12:14Z</time>
      </trkpt>
      <trkpt lat="46.79312" lon="5.64435">
        <ele>499.8</ele>
        <time>2022-03-09T13:12:15Z</time>
      </trkpt>
      <trkpt lat="46.79315" lon="5.64423">
        <ele>499.6</ele>
        <time>2022-03-09T13:12:16Z</time>
      </trkpt>
      <trkpt lat="46.79317" lon="5.64411">
        <ele>499.6</ele>
        <time>2022-03-09T13:12:17Z</time>
      </trkpt>
      <trkpt lat="46.79319" lon="5.644">
        <ele>499.6</ele>
        <time>2022-03-09T13:12:18Z</time>
      </trkpt>
      <trkpt lat="46.79322" lon="5.64389">
        <ele>499.6</ele>
        <time>2022-03-09T13:12:19Z</time>
      </trkpt>
      <trkpt lat="46.79324" lon="5.64377">
        <ele>499.6</ele>
        <time>2022-03-09T13:12:20Z</time>
      </trkpt>
      <trkpt lat="46.79327" lon="5.64365">
        <ele>499.6</ele>
        <time>2022-03-09T13:12:21Z</time>
      </trkpt>
      <trkpt lat="46.79329" lon="5.64354">
        <ele>499.2</ele>
        <time>2022-03-09T13:12:22Z</time>
      </trkpt>
      <trkpt lat="46.79332" lon="5.64342">
        <ele>499</ele>
        <time>2022-03-09T13:12:23Z</time>
      </trkpt>
      <trkpt lat="46.79334" lon="5.64331">
        <ele>498.6</ele>
        <time>2022-03-09T13:12:24Z</time>
      </trkpt>
      <trkpt lat="46.79337" lon="5.6432">
        <ele>498.2</ele>
        <time>2022-03-09T13:12:25Z</time>
      </trkpt>
      <trkpt lat="46.79339" lon="5.64309">
        <ele>498</ele>
        <time>2022-03-09T13:12:26Z</time>
      </trkpt>
      <trkpt lat="46.79342" lon="5.64298">
        <ele>497.8</ele>
        <time>2022-03-09T13:12:27Z</time>
      </trkpt>
      <trkpt lat="46.79344" lon="5.64288">
        <ele>497.6</ele>
        <time>2022-03-09T13:12:28Z</time>
      </trkpt>
      <trkpt lat="46.79346" lon="5.6428">
        <ele>497.2</ele>
        <time>2022-03-09T13:12:29Z</time>
      </trkpt>
      <trkpt lat="46.79348" lon="5.64273">
        <ele>496.8</ele>
        <time>2022-03-09T13:12:30Z</time>
      </trkpt>
      <trkpt lat="46.79349" lon="5.64267">
        <ele>496.6</ele>
        <time>2022-03-09T13:12:31Z</time>
      </trkpt>
      <trkpt lat="46.7935" lon="5.6426">
        <ele>496.2</ele>
        <time>2022-03-09T13:12:32Z</time>
      </trkpt>
      <trkpt lat="46.79351" lon="5.64255">
        <ele>496</ele>
        <time>2022-03-09T13:12:33Z</time>
      </trkpt>
      <trkpt lat="46.79352" lon="5.64251">
        <ele>496</ele>
        <time>2022-03-09T13:12:34Z</time>
      </trkpt>
      <trkpt lat="46.79353" lon="5.64247">
        <ele>495.6</ele>
        <time>2022-03-09T13:12:35Z</time>
      </trkpt>
      <trkpt lat="46.79353" lon="5.64244">
        <ele>495.6</ele>
        <time>2022-03-09T13:12:36Z</time>
      </trkpt>
      <trkpt lat="46.79354" lon="5.64241">
        <ele>495.4</ele>
        <time>2022-03-09T13:12:37Z</time>
      </trkpt>
      <trkpt lat="46.79354" lon="5.6424">
        <ele>495.4</ele>
        <time>2022-03-09T13:12:38Z</time>
      </trkpt>
      <trkpt lat="46.79354" lon="5.64239">
        <ele>495.4</ele>
        <time>2022-03-09T13:12:39Z</time>
      </trkpt>
      <trkpt lat="46.79354" lon="5.64239">
        <ele>495.2</ele>
        <time>2022-03-09T13:12:42Z</time>
      </trkpt>
      <trkpt lat="46.79354" lon="5.64239">
        <ele>495.2</ele>
        <time>2022-03-09T13:12:43Z</time>
      </trkpt>
      <trkpt lat="46.79354" lon="5.64239">
        <ele>495.2</ele>
        <time>2022-03-09T13:12:44Z</time>
      </trkpt>
      <trkpt lat="46.79354" lon="5.64239">
        <ele>495.2</ele>
        <time>2022-03-09T13:12:45Z</time>
      </trkpt>
      <trkpt lat="46.79354" lon="5.64239">
        <ele>495</ele>
        <time>2022-03-09T13:12:46Z</time>
      </trkpt>
      <trkpt lat="46.79354" lon="5.64239">
        <ele>495</ele>
        <time>2022-03-09T13:12:47Z</time>
      </trkpt>
      <trkpt lat="46.79354" lon="5.64239">
        <ele>495</ele>
        <time>2022-03-09T13:12:49Z</time>
      </trkpt>
      <trkpt lat="46.79354" lon="5.64239">
        <ele>495</ele>
        <time>2022-03-09T13:12:50Z</time>
      </trkpt>
      <trkpt lat="46.79352" lon="5.64239">
        <ele>495</ele>
        <time>2022-03-09T13:12:51Z</time>
      </trkpt>
      <trkpt lat="46.79351" lon="5.64241">
        <ele>495</ele>
        <time>2022-03-09T13:12:52Z</time>
      </trkpt>
      <trkpt lat="46.79351" lon="5.64244">
        <ele>495</ele>
        <time>2022-03-09T13:12:53Z</time>
      </trkpt>
      <trkpt lat="46.79351" lon="5.64246">
        <ele>495</ele>
        <time>2022-03-09T13:12:54Z</time>
      </trkpt>
      <trkpt lat="46.79351" lon="5.64249">
        <ele>495.2</ele>
        <time>2022-03-09T13:12:55Z</time>
      </trkpt>
      <trkpt lat="46.79351" lon="5.64252">
        <ele>495.2</ele>
        <time>2022-03-09T13:12:56Z</time>
      </trkpt>
      <trkpt lat="46.7935" lon="5.64255">
        <ele>495.2</ele>
        <time>2022-03-09T13:12:57Z</time>
      </trkpt>
      <trkpt lat="46.79349" lon="5.64258">
        <ele>495.2</ele>
        <time>2022-03-09T13:12:58Z</time>
      </trkpt>
      <trkpt lat="46.79348" lon="5.64262">
        <ele>495.4</ele>
        <time>2022-03-09T13:12:59Z</time>
      </trkpt>
      <trkpt lat="46.79347" lon="5.64265">
        <ele>495.4</ele>
        <time>2022-03-09T13:13:00Z</time>
      </trkpt>
      <trkpt lat="46.79346" lon="5.64269">
        <ele>495.4</ele>
        <time>2022-03-09T13:13:01Z</time>
      </trkpt>
      <trkpt lat="46.79345" lon="5.64273">
        <ele>495.8</ele>
        <time>2022-03-09T13:13:02Z</time>
      </trkpt>
      <trkpt lat="46.79344" lon="5.64278">
        <ele>495.8</ele>
        <time>2022-03-09T13:13:03Z</time>
      </trkpt>
      <trkpt lat="46.79342" lon="5.64283">
        <ele>496</ele>
        <time>2022-03-09T13:13:04Z</time>
      </trkpt>
      <trkpt lat="46.79341" lon="5.64287">
        <ele>496</ele>
        <time>2022-03-09T13:13:05Z</time>
      </trkpt>
      <trkpt lat="46.7934" lon="5.64292">
        <ele>496.4</ele>
        <time>2022-03-09T13:13:06Z</time>
      </trkpt>
      <trkpt lat="46.79339" lon="5.64297">
        <ele>496.4</ele>
        <time>2022-03-09T13:13:07Z</time>
      </trkpt>
      <trkpt lat="46.79338" lon="5.64302">
        <ele>496.6</ele>
        <time>2022-03-09T13:13:08Z</time>
      </trkpt>
      <trkpt lat="46.79337" lon="5.64308">
        <ele>496.6</ele>
        <time>2022-03-09T13:13:09Z</time>
      </trkpt>
      <trkpt lat="46.79336" lon="5.64314">
        <ele>497</ele>
        <time>2022-03-09T13:13:10Z</time>
      </trkpt>
      <trkpt lat="46.79334" lon="5.6432">
        <ele>497</ele>
        <time>2022-03-09T13:13:11Z</time>
      </trkpt>
      <trkpt lat="46.79332" lon="5.64326">
        <ele>497.2</ele>
        <time>2022-03-09T13:13:12Z</time>
      </trkpt>
      <trkpt lat="46.79331" lon="5.64331">
        <ele>497.2</ele>
        <time>2022-03-09T13:13:13Z</time>
      </trkpt>
      <trkpt lat="46.79329" lon="5.64337">
        <ele>497.4</ele>
        <time>2022-03-09T13:13:14Z</time>
      </trkpt>
      <trkpt lat="46.79328" lon="5.64343">
        <ele>497.4</ele>
        <time>2022-03-09T13:13:15Z</time>
      </trkpt>
      <trkpt lat="46.79326" lon="5.6435">
        <ele>497.8</ele>
        <time>2022-03-09T13:13:16Z</time>
      </trkpt>
      <trkpt lat="46.79326" lon="5.64355">
        <ele>497.8</ele>
        <time>2022-03-09T13:13:17Z</time>
      </trkpt>
      <trkpt lat="46.79325" lon="5.64361">
        <ele>498.2</ele>
        <time>2022-03-09T13:13:18Z</time>
      </trkpt>
      <trkpt lat="46.79324" lon="5.64367">
        <ele>498.4</ele>
        <time>2022-03-09T13:13:19Z</time>
      </trkpt>
      <trkpt lat="46.79322" lon="5.64372">
        <ele>498.4</ele>
        <time>2022-03-09T13:13:20Z</time>
      </trkpt>
      <trkpt lat="46.79319" lon="5.64375">
        <ele>498.6</ele>
        <time>2022-03-09T13:13:21Z</time>
      </trkpt>
      <trkpt lat="46.79316" lon="5.64377">
        <ele>498.6</ele>
        <time>2022-03-09T13:13:22Z</time>
      </trkpt>
      <trkpt lat="46.79312" lon="5.64377">
        <ele>498.6</ele>
        <time>2022-03-09T13:13:23Z</time>
      </trkpt>
      <trkpt lat="46.79308" lon="5.64376">
        <ele>499</ele>
        <time>2022-03-09T13:13:24Z</time>
      </trkpt>
      <trkpt lat="46.79305" lon="5.64375">
        <ele>499</ele>
        <time>2022-03-09T13:13:25Z</time>
      </trkpt>
      <trkpt lat="46.79301" lon="5.64374">
        <ele>499</ele>
        <time>2022-03-09T13:13:26Z</time>
      </trkpt>
      <trkpt lat="46.79297" lon="5.64372">
        <ele>499.2</ele>
        <time>2022-03-09T13:13:27Z</time>
      </trkpt>
      <trkpt lat="46.79292" lon="5.64371">
        <ele>499.2</ele>
        <time>2022-03-09T13:13:28Z</time>
      </trkpt>
      <trkpt lat="46.79288" lon="5.64369">
        <ele>499.2</ele>
        <time>2022-03-09T13:13:29Z</time>
      </trkpt>
      <trkpt lat="46.79283" lon="5.64367">
        <ele>499.2</ele>
        <time>2022-03-09T13:13:30Z</time>
      </trkpt>
      <trkpt lat="46.79279" lon="5.64365">
        <ele>499.2</ele>
        <time>2022-03-09T13:13:31Z</time>
      </trkpt>
      <trkpt lat="46.79273" lon="5.64362">
        <ele>499.2</ele>
        <time>2022-03-09T13:13:32Z</time>
      </trkpt>
      <trkpt lat="46.79268" lon="5.6436">
        <ele>499</ele>
        <time>2022-03-09T13:13:33Z</time>
      </trkpt>
      <trkpt lat="46.79263" lon="5.64357">
        <ele>499</ele>
        <time>2022-03-09T13:13:34Z</time>
      </trkpt>
      <trkpt lat="46.79257" lon="5.64354">
        <ele>499</ele>
        <time>2022-03-09T13:13:35Z</time>
      </trkpt>
      <trkpt lat="46.79251" lon="5.64352">
        <ele>499</ele>
        <time>2022-03-09T13:13:36Z</time>
      </trkpt>
      <trkpt lat="46.79245" lon="5.64349">
        <ele>499</ele>
        <time>2022-03-09T13:13:37Z</time>
      </trkpt>
      <trkpt lat="46.79239" lon="5.64347">
        <ele>499.2</ele>
        <time>2022-03-09T13:13:38Z</time>
      </trkpt>
      <trkpt lat="46.79233" lon="5.64344">
        <ele>499.2</ele>
        <time>2022-03-09T13:13:39Z</time>
      </trkpt>
      <trkpt lat="46.79227" lon="5.64341">
        <ele>499.2</ele>
        <time>2022-03-09T13:13:40Z</time>
      </trkpt>
      <trkpt lat="46.79221" lon="5.64338">
        <ele>499.2</ele>
        <time>2022-03-09T13:13:41Z</time>
      </trkpt>
      <trkpt lat="46.79215" lon="5.64336">
        <ele>499.4</ele>
        <time>2022-03-09T13:13:42Z</time>
      </trkpt>
      <trkpt lat="46.79208" lon="5.64333">
        <ele>499.4</ele>
        <time>2022-03-09T13:13:43Z</time>
      </trkpt>
      <trkpt lat="46.79202" lon="5.6433">
        <ele>499.4</ele>
        <time>2022-03-09T13:13:44Z</time>
      </trkpt>
      <trkpt lat="46.79195" lon="5.64327">
        <ele>499.4</ele>
        <time>2022-03-09T13:13:45Z</time>
      </trkpt>
      <trkpt lat="46.79189" lon="5.64323">
        <ele>499.6</ele>
        <time>2022-03-09T13:13:46Z</time>
      </trkpt>
      <trkpt lat="46.79182" lon="5.64319">
        <ele>499.6</ele>
        <time>2022-03-09T13:13:47Z</time>
      </trkpt>
      <trkpt lat="46.79175" lon="5.64316">
        <ele>499.6</ele>
        <time>2022-03-09T13:13:48Z</time>
      </trkpt>
      <trkpt lat="46.79168" lon="5.64311">
        <ele>499.2</ele>
        <time>2022-03-09T13:13:49Z</time>
      </trkpt>
      <trkpt lat="46.79161" lon="5.64307">
        <ele>499.2</ele>
        <time>2022-03-09T13:13:50Z</time>
      </trkpt>
      <trkpt lat="46.79154" lon="5.64302">
        <ele>499.2</ele>
        <time>2022-03-09T13:13:51Z</time>
      </trkpt>
      <trkpt lat="46.79148" lon="5.64298">
        <ele>499</ele>
        <time>2022-03-09T13:13:52Z</time>
      </trkpt>
      <trkpt lat="46.79141" lon="5.64294">
        <ele>499</ele>
        <time>2022-03-09T13:13:53Z</time>
      </trkpt>
      <trkpt lat="46.79134" lon="5.64289">
        <ele>499</ele>
        <time>2022-03-09T13:13:54Z</time>
      </trkpt>
      <trkpt lat="46.79127" lon="5.64285">
        <ele>499</ele>
        <time>2022-03-09T13:13:55Z</time>
      </trkpt>
      <trkpt lat="46.79121" lon="5.64281">
        <ele>499</ele>
        <time>2022-03-09T13:13:56Z</time>
      </trkpt>
      <trkpt lat="46.79115" lon="5.64276">
        <ele>499.2</ele>
        <time>2022-03-09T13:13:57Z</time>
      </trkpt>
      <trkpt lat="46.79109" lon="5.64271">
        <ele>499.2</ele>
        <time>2022-03-09T13:13:58Z</time>
      </trkpt>
      <trkpt lat="46.79103" lon="5.64267">
        <ele>499.2</ele>
        <time>2022-03-09T13:13:59Z</time>
      </trkpt>
      <trkpt lat="46.79097" lon="5.64262">
        <ele>499.2</ele>
        <time>2022-03-09T13:14:00Z</time>
      </trkpt>
      <trkpt lat="46.79091" lon="5.64257">
        <ele>499.2</ele>
        <time>2022-03-09T13:14:01Z</time>
      </trkpt>
      <trkpt lat="46.79085" lon="5.64252">
        <ele>499.2</ele>
        <time>2022-03-09T13:14:02Z</time>
      </trkpt>
      <trkpt lat="46.7908" lon="5.64246">
        <ele>499.2</ele>
        <time>2022-03-09T13:14:05Z</time>
      </trkpt>
      <trkpt lat="46.79074" lon="5.64241">
        <ele>499.2</ele>
        <time>2022-03-09T13:14:06Z</time>
      </trkpt>
      <trkpt lat="46.79068" lon="5.64235">
        <ele>499.2</ele>
        <time>2022-03-09T13:14:07Z</time>
      </trkpt>
      <trkpt lat="46.79061" lon="5.6423">
        <ele>499</ele>
        <time>2022-03-09T13:14:08Z</time>
      </trkpt>
      <trkpt lat="46.79054" lon="5.64227">
        <ele>498.6</ele>
        <time>2022-03-09T13:14:09Z</time>
      </trkpt>
      <trkpt lat="46.79046" lon="5.64225">
        <ele>498.4</ele>
        <time>2022-03-09T13:14:10Z</time>
      </trkpt>
      <trkpt lat="46.79037" lon="5.64224">
        <ele>498</ele>
        <time>2022-03-09T13:14:11Z</time>
      </trkpt>
      <trkpt lat="46.79028" lon="5.64224">
        <ele>497.2</ele>
        <time>2022-03-09T13:14:12Z</time>
      </trkpt>
      <trkpt lat="46.79018" lon="5.64225">
        <ele>496.6</ele>
        <time>2022-03-09T13:14:13Z</time>
      </trkpt>
      <trkpt lat="46.79008" lon="5.64227">
        <ele>495.8</ele>
        <time>2022-03-09T13:14:14Z</time>
      </trkpt>
      <trkpt lat="46.78998" lon="5.64227">
        <ele>495</ele>
        <time>2022-03-09T13:14:15Z</time>
      </trkpt>
      <trkpt lat="46.78988" lon="5.64228">
        <ele>494.4</ele>
        <time>2022-03-09T13:14:16Z</time>
      </trkpt>
      <trkpt lat="46.78977" lon="5.64229">
        <ele>493.6</ele>
        <time>2022-03-09T13:14:17Z</time>
      </trkpt>
      <trkpt lat="46.78968" lon="5.64232">
        <ele>493.4</ele>
        <time>2022-03-09T13:14:18Z</time>
      </trkpt>
      <trkpt lat="46.78958" lon="5.64234">
        <ele>493</ele>
        <time>2022-03-09T13:14:19Z</time>
      </trkpt>
      <trkpt lat="46.78947" lon="5.64235">
        <ele>492.8</ele>
        <time>2022-03-09T13:14:20Z</time>
      </trkpt>
      <trkpt lat="46.7894" lon="5.64238">
        <ele>492.8</ele>
        <time>2022-03-09T13:14:21Z</time>
      </trkpt>
      <trkpt lat="46.78931" lon="5.64242">
        <ele>492.8</ele>
        <time>2022-03-09T13:14:22Z</time>
      </trkpt>
      <trkpt lat="46.78924" lon="5.64248">
        <ele>492.8</ele>
        <time>2022-03-09T13:14:23Z</time>
      </trkpt>
      <trkpt lat="46.78917" lon="5.64254">
        <ele>492.8</ele>
        <time>2022-03-09T13:14:24Z</time>
      </trkpt>
      <trkpt lat="46.78911" lon="5.64259">
        <ele>493.2</ele>
        <time>2022-03-09T13:14:25Z</time>
      </trkpt>
      <trkpt lat="46.78904" lon="5.64264">
        <ele>493.4</ele>
        <time>2022-03-09T13:14:26Z</time>
      </trkpt>
      <trkpt lat="46.78899" lon="5.64268">
        <ele>494</ele>
        <time>2022-03-09T13:14:27Z</time>
      </trkpt>
      <trkpt lat="46.78893" lon="5.6427">
        <ele>494.6</ele>
        <time>2022-03-09T13:14:28Z</time>
      </trkpt>
      <trkpt lat="46.78888" lon="5.64271">
        <ele>494.8</ele>
        <time>2022-03-09T13:14:29Z</time>
      </trkpt>
      <trkpt lat="46.78882" lon="5.6427">
        <ele>495.2</ele>
        <time>2022-03-09T13:14:30Z</time>
      </trkpt>
      <trkpt lat="46.78877" lon="5.64268">
        <ele>495.6</ele>
        <time>2022-03-09T13:14:31Z</time>
      </trkpt>
      <trkpt lat="46.78872" lon="5.64267">
        <ele>496</ele>
        <time>2022-03-09T13:14:32Z</time>
      </trkpt>
      <trkpt lat="46.78867" lon="5.64264">
        <ele>496.2</ele>
        <time>2022-03-09T13:14:33Z</time>
      </trkpt>
      <trkpt lat="46.78861" lon="5.64262">
        <ele>496.4</ele>
        <time>2022-03-09T13:14:34Z</time>
      </trkpt>
      <trkpt lat="46.78855" lon="5.6426">
        <ele>496.4</ele>
        <time>2022-03-09T13:14:35Z</time>
      </trkpt>
      <trkpt lat="46.7885" lon="5.64256">
        <ele>496.8</ele>
        <time>2022-03-09T13:14:36Z</time>
      </trkpt>
      <trkpt lat="46.78845" lon="5.64252">
        <ele>497</ele>
        <time>2022-03-09T13:14:37Z</time>
      </trkpt>
      <trkpt lat="46.78839" lon="5.64248">
        <ele>497.2</ele>
        <time>2022-03-09T13:14:38Z</time>
      </trkpt>
      <trkpt lat="46.78834" lon="5.64243">
        <ele>497.2</ele>
        <time>2022-03-09T13:14:39Z</time>
      </trkpt>
      <trkpt lat="46.78828" lon="5.64238">
        <ele>497.8</ele>
        <time>2022-03-09T13:14:40Z</time>
      </trkpt>
      <trkpt lat="46.78823" lon="5.64233">
        <ele>498</ele>
        <time>2022-03-09T13:14:41Z</time>
      </trkpt>
      <trkpt lat="46.78818" lon="5.64227">
        <ele>498.2</ele>
        <time>2022-03-09T13:14:42Z</time>
      </trkpt>
      <trkpt lat="46.78813" lon="5.64222">
        <ele>498.4</ele>
        <time>2022-03-09T13:14:43Z</time>
      </trkpt>
      <trkpt lat="46.78809" lon="5.64217">
        <ele>498.8</ele>
        <time>2022-03-09T13:14:44Z</time>
      </trkpt>
      <trkpt lat="46.78804" lon="5.64213">
        <ele>498.8</ele>
        <time>2022-03-09T13:14:45Z</time>
      </trkpt>
      <trkpt lat="46.78799" lon="5.64208">
        <ele>499</ele>
        <time>2022-03-09T13:14:46Z</time>
      </trkpt>
      <trkpt lat="46.78794" lon="5.64204">
        <ele>499</ele>
        <time>2022-03-09T13:14:47Z</time>
      </trkpt>
      <trkpt lat="46.78789" lon="5.64199">
        <ele>499.2</ele>
        <time>2022-03-09T13:14:48Z</time>
      </trkpt>
      <trkpt lat="46.78784" lon="5.64194">
        <ele>499.2</ele>
        <time>2022-03-09T13:14:49Z</time>
      </trkpt>
      <trkpt lat="46.78779" lon="5.6419">
        <ele>499.2</ele>
        <time>2022-03-09T13:14:50Z</time>
      </trkpt>
      <trkpt lat="46.78773" lon="5.64185">
        <ele>499.2</ele>
        <time>2022-03-09T13:14:51Z</time>
      </trkpt>
      <trkpt lat="46.78768" lon="5.6418">
        <ele>499.2</ele>
        <time>2022-03-09T13:14:52Z</time>
      </trkpt>
      <trkpt lat="46.78763" lon="5.64174">
        <ele>499.2</ele>
        <time>2022-03-09T13:14:53Z</time>
      </trkpt>
      <trkpt lat="46.78752" lon="5.64162">
        <ele>499</ele>
        <time>2022-03-09T13:14:54Z</time>
      </trkpt>
      <trkpt lat="46.78747" lon="5.64155">
        <ele>498.8</ele>
        <time>2022-03-09T13:14:55Z</time>
      </trkpt>
      <trkpt lat="46.78741" lon="5.64149">
        <ele>498.6</ele>
        <time>2022-03-09T13:14:56Z</time>
      </trkpt>
      <trkpt lat="46.78735" lon="5.64142">
        <ele>498.4</ele>
        <time>2022-03-09T13:14:57Z</time>
      </trkpt>
      <trkpt lat="46.78729" lon="5.64135">
        <ele>498.2</ele>
        <time>2022-03-09T13:14:58Z</time>
      </trkpt>
      <trkpt lat="46.78723" lon="5.64128">
        <ele>497.8</ele>
        <time>2022-03-09T13:14:59Z</time>
      </trkpt>
      <trkpt lat="46.78717" lon="5.64121">
        <ele>497.6</ele>
        <time>2022-03-09T13:15:00Z</time>
      </trkpt>
      <trkpt lat="46.78711" lon="5.64114">
        <ele>497.6</ele>
        <time>2022-03-09T13:15:01Z</time>
      </trkpt>
      <trkpt lat="46.78704" lon="5.64107">
        <ele>497.2</ele>
        <time>2022-03-09T13:15:02Z</time>
      </trkpt>
      <trkpt lat="46.78697" lon="5.641">
        <ele>496.8</ele>
        <time>2022-03-09T13:15:03Z</time>
      </trkpt>
      <trkpt lat="46.7869" lon="5.64094">
        <ele>496.6</ele>
        <time>2022-03-09T13:15:04Z</time>
      </trkpt>
      <trkpt lat="46.78683" lon="5.64088">
        <ele>496.4</ele>
        <time>2022-03-09T13:15:05Z</time>
      </trkpt>
      <trkpt lat="46.78679" lon="5.64085">
        <ele>496.4</ele>
        <time>2022-03-09T13:15:06Z</time>
      </trkpt>
      <trkpt lat="46.78676" lon="5.64083">
        <ele>496.4</ele>
        <time>2022-03-09T13:15:07Z</time>
      </trkpt>
      <trkpt lat="46.78668" lon="5.64078">
        <ele>496</ele>
        <time>2022-03-09T13:15:08Z</time>
      </trkpt>
      <trkpt lat="46.7866" lon="5.64073">
        <ele>495.4</ele>
        <time>2022-03-09T13:15:09Z</time>
      </trkpt>
      <trkpt lat="46.78653" lon="5.64068">
        <ele>495.2</ele>
        <time>2022-03-09T13:15:10Z</time>
      </trkpt>
      <trkpt lat="46.78645" lon="5.64063">
        <ele>495.2</ele>
        <time>2022-03-09T13:15:11Z</time>
      </trkpt>
      <trkpt lat="46.78638" lon="5.64058">
        <ele>494.8</ele>
        <time>2022-03-09T13:15:12Z</time>
      </trkpt>
      <trkpt lat="46.7863" lon="5.64053">
        <ele>494.6</ele>
        <time>2022-03-09T13:15:13Z</time>
      </trkpt>
      <trkpt lat="46.78623" lon="5.64047">
        <ele>494.4</ele>
        <time>2022-03-09T13:15:14Z</time>
      </trkpt>
      <trkpt lat="46.78615" lon="5.64041">
        <ele>494</ele>
        <time>2022-03-09T13:15:15Z</time>
      </trkpt>
      <trkpt lat="46.78607" lon="5.64036">
        <ele>493.8</ele>
        <time>2022-03-09T13:15:16Z</time>
      </trkpt>
      <trkpt lat="46.78599" lon="5.6403">
        <ele>493.6</ele>
        <time>2022-03-09T13:15:17Z</time>
      </trkpt>
      <trkpt lat="46.78591" lon="5.64025">
        <ele>493.2</ele>
        <time>2022-03-09T13:15:18Z</time>
      </trkpt>
      <trkpt lat="46.78583" lon="5.6402">
        <ele>493</ele>
        <time>2022-03-09T13:15:19Z</time>
      </trkpt>
      <trkpt lat="46.78575" lon="5.64014">
        <ele>492.6</ele>
        <time>2022-03-09T13:15:20Z</time>
      </trkpt>
      <trkpt lat="46.78567" lon="5.64008">
        <ele>492.2</ele>
        <time>2022-03-09T13:15:21Z</time>
      </trkpt>
      <trkpt lat="46.78559" lon="5.64002">
        <ele>491.8</ele>
        <time>2022-03-09T13:15:22Z</time>
      </trkpt>
      <trkpt lat="46.78551" lon="5.63995">
        <ele>491.4</ele>
        <time>2022-03-09T13:15:23Z</time>
      </trkpt>
      <trkpt lat="46.78543" lon="5.63987">
        <ele>491</ele>
        <time>2022-03-09T13:15:24Z</time>
      </trkpt>
      <trkpt lat="46.78536" lon="5.63979">
        <ele>490.6</ele>
        <time>2022-03-09T13:15:25Z</time>
      </trkpt>
      <trkpt lat="46.78529" lon="5.6397">
        <ele>490.2</ele>
        <time>2022-03-09T13:15:26Z</time>
      </trkpt>
      <trkpt lat="46.78522" lon="5.6396">
        <ele>489.8</ele>
        <time>2022-03-09T13:15:27Z</time>
      </trkpt>
      <trkpt lat="46.78515" lon="5.63951">
        <ele>489.4</ele>
        <time>2022-03-09T13:15:28Z</time>
      </trkpt>
      <trkpt lat="46.78509" lon="5.6394">
        <ele>489</ele>
        <time>2022-03-09T13:15:29Z</time>
      </trkpt>
      <trkpt lat="46.78503" lon="5.63929">
        <ele>488.6</ele>
        <time>2022-03-09T13:15:30Z</time>
      </trkpt>
      <trkpt lat="46.78497" lon="5.63918">
        <ele>488</ele>
        <time>2022-03-09T13:15:31Z</time>
      </trkpt>
      <trkpt lat="46.78492" lon="5.63907">
        <ele>487.8</ele>
        <time>2022-03-09T13:15:32Z</time>
      </trkpt>
      <trkpt lat="46.78486" lon="5.63896">
        <ele>487.4</ele>
        <time>2022-03-09T13:15:33Z</time>
      </trkpt>
      <trkpt lat="46.7848" lon="5.63886">
        <ele>487.2</ele>
        <time>2022-03-09T13:15:34Z</time>
      </trkpt>
      <trkpt lat="46.78473" lon="5.63876">
        <ele>486.8</ele>
        <time>2022-03-09T13:15:35Z</time>
      </trkpt>
      <trkpt lat="46.78467" lon="5.63867">
        <ele>486.6</ele>
        <time>2022-03-09T13:15:36Z</time>
      </trkpt>
      <trkpt lat="46.78459" lon="5.63859">
        <ele>486.6</ele>
        <time>2022-03-09T13:15:37Z</time>
      </trkpt>
      <trkpt lat="46.78452" lon="5.63852">
        <ele>486.4</ele>
        <time>2022-03-09T13:15:38Z</time>
      </trkpt>
      <trkpt lat="46.78444" lon="5.63845">
        <ele>486.4</ele>
        <time>2022-03-09T13:15:39Z</time>
      </trkpt>
      <trkpt lat="46.78437" lon="5.63839">
        <ele>486.4</ele>
        <time>2022-03-09T13:15:40Z</time>
      </trkpt>
      <trkpt lat="46.7843" lon="5.63833">
        <ele>486.4</ele>
        <time>2022-03-09T13:15:41Z</time>
      </trkpt>
      <trkpt lat="46.78423" lon="5.63827">
        <ele>486.4</ele>
        <time>2022-03-09T13:15:42Z</time>
      </trkpt>
      <trkpt lat="46.78417" lon="5.63822">
        <ele>486.6</ele>
        <time>2022-03-09T13:15:43Z</time>
      </trkpt>
      <trkpt lat="46.78411" lon="5.63817">
        <ele>486.6</ele>
        <time>2022-03-09T13:15:44Z</time>
      </trkpt>
      <trkpt lat="46.78406" lon="5.63812">
        <ele>486.6</ele>
        <time>2022-03-09T13:15:45Z</time>
      </trkpt>
      <trkpt lat="46.784" lon="5.63808">
        <ele>486.6</ele>
        <time>2022-03-09T13:15:46Z</time>
      </trkpt>
      <trkpt lat="46.78394" lon="5.63804">
        <ele>486.6</ele>
        <time>2022-03-09T13:15:47Z</time>
      </trkpt>
      <trkpt lat="46.78388" lon="5.63801">
        <ele>486.6</ele>
        <time>2022-03-09T13:15:48Z</time>
      </trkpt>
      <trkpt lat="46.78382" lon="5.63798">
        <ele>486.8</ele>
        <time>2022-03-09T13:15:49Z</time>
      </trkpt>
      <trkpt lat="46.78375" lon="5.63795">
        <ele>487</ele>
        <time>2022-03-09T13:15:50Z</time>
      </trkpt>
      <trkpt lat="46.78369" lon="5.63792">
        <ele>487</ele>
        <time>2022-03-09T13:15:51Z</time>
      </trkpt>
      <trkpt lat="46.78362" lon="5.63789">
        <ele>487.4</ele>
        <time>2022-03-09T13:15:52Z</time>
      </trkpt>
      <trkpt lat="46.78355" lon="5.63786">
        <ele>487.8</ele>
        <time>2022-03-09T13:15:53Z</time>
      </trkpt>
      <trkpt lat="46.78348" lon="5.63783">
        <ele>487.8</ele>
        <time>2022-03-09T13:15:54Z</time>
      </trkpt>
      <trkpt lat="46.78341" lon="5.6378">
        <ele>487.8</ele>
        <time>2022-03-09T13:15:55Z</time>
      </trkpt>
      <trkpt lat="46.78334" lon="5.63777">
        <ele>487.8</ele>
        <time>2022-03-09T13:15:56Z</time>
      </trkpt>
      <trkpt lat="46.78328" lon="5.63773">
        <ele>487.8</ele>
        <time>2022-03-09T13:15:57Z</time>
      </trkpt>
      <trkpt lat="46.78321" lon="5.63769">
        <ele>487.6</ele>
        <time>2022-03-09T13:15:58Z</time>
      </trkpt>
      <trkpt lat="46.78314" lon="5.63765">
        <ele>487.6</ele>
        <time>2022-03-09T13:15:59Z</time>
      </trkpt>
      <trkpt lat="46.78308" lon="5.63761">
        <ele>487.6</ele>
        <time>2022-03-09T13:16:00Z</time>
      </trkpt>
      <trkpt lat="46.78302" lon="5.63755">
        <ele>487.4</ele>
        <time>2022-03-09T13:16:01Z</time>
      </trkpt>
      <trkpt lat="46.78296" lon="5.6375">
        <ele>487.4</ele>
        <time>2022-03-09T13:16:02Z</time>
      </trkpt>
      <trkpt lat="46.7829" lon="5.63744">
        <ele>487.4</ele>
        <time>2022-03-09T13:16:03Z</time>
      </trkpt>
      <trkpt lat="46.78285" lon="5.63738">
        <ele>487.4</ele>
        <time>2022-03-09T13:16:04Z</time>
      </trkpt>
      <trkpt lat="46.78279" lon="5.63733">
        <ele>487.4</ele>
        <time>2022-03-09T13:16:05Z</time>
      </trkpt>
      <trkpt lat="46.78274" lon="5.63727">
        <ele>487.4</ele>
        <time>2022-03-09T13:16:06Z</time>
      </trkpt>
      <trkpt lat="46.78268" lon="5.63722">
        <ele>487.4</ele>
        <time>2022-03-09T13:16:07Z</time>
      </trkpt>
      <trkpt lat="46.78263" lon="5.63716">
        <ele>487.4</ele>
        <time>2022-03-09T13:16:08Z</time>
      </trkpt>
      <trkpt lat="46.78257" lon="5.6371">
        <ele>487.4</ele>
        <time>2022-03-09T13:16:09Z</time>
      </trkpt>
      <trkpt lat="46.78251" lon="5.63704">
        <ele>487.4</ele>
        <time>2022-03-09T13:16:10Z</time>
      </trkpt>
      <trkpt lat="46.78245" lon="5.63699">
        <ele>487</ele>
        <time>2022-03-09T13:16:11Z</time>
      </trkpt>
      <trkpt lat="46.78238" lon="5.63693">
        <ele>487</ele>
        <time>2022-03-09T13:16:12Z</time>
      </trkpt>
      <trkpt lat="46.78232" lon="5.63687">
        <ele>486.8</ele>
        <time>2022-03-09T13:16:13Z</time>
      </trkpt>
      <trkpt lat="46.78225" lon="5.6368">
        <ele>486.4</ele>
        <time>2022-03-09T13:16:14Z</time>
      </trkpt>
      <trkpt lat="46.78218" lon="5.63674">
        <ele>486.2</ele>
        <time>2022-03-09T13:16:15Z</time>
      </trkpt>
      <trkpt lat="46.78211" lon="5.63667">
        <ele>485.8</ele>
        <time>2022-03-09T13:16:16Z</time>
      </trkpt>
      <trkpt lat="46.78204" lon="5.6366">
        <ele>485.2</ele>
        <time>2022-03-09T13:16:17Z</time>
      </trkpt>
      <trkpt lat="46.78196" lon="5.6365">
        <ele>484.8</ele>
        <time>2022-03-09T13:16:18Z</time>
      </trkpt>
      <trkpt lat="46.78188" lon="5.6364">
        <ele>484.2</ele>
        <time>2022-03-09T13:16:19Z</time>
      </trkpt>
      <trkpt lat="46.78179" lon="5.63631">
        <ele>483.6</ele>
        <time>2022-03-09T13:16:20Z</time>
      </trkpt>
      <trkpt lat="46.78171" lon="5.63621">
        <ele>483.2</ele>
        <time>2022-03-09T13:16:21Z</time>
      </trkpt>
      <trkpt lat="46.78164" lon="5.63612">
        <ele>482.6</ele>
        <time>2022-03-09T13:16:22Z</time>
      </trkpt>
      <trkpt lat="46.78156" lon="5.63603">
        <ele>482</ele>
        <time>2022-03-09T13:16:23Z</time>
      </trkpt>
      <trkpt lat="46.78149" lon="5.63594">
        <ele>481.4</ele>
        <time>2022-03-09T13:16:24Z</time>
      </trkpt>
      <trkpt lat="46.78142" lon="5.63583">
        <ele>481</ele>
        <time>2022-03-09T13:16:25Z</time>
      </trkpt>
      <trkpt lat="46.78135" lon="5.63571">
        <ele>480.8</ele>
        <time>2022-03-09T13:16:26Z</time>
      </trkpt>
      <trkpt lat="46.78126" lon="5.6356">
        <ele>480.2</ele>
        <time>2022-03-09T13:16:27Z</time>
      </trkpt>
      <trkpt lat="46.78118" lon="5.63551">
        <ele>479.8</ele>
        <time>2022-03-09T13:16:28Z</time>
      </trkpt>
      <trkpt lat="46.78111" lon="5.63542">
        <ele>479.4</ele>
        <time>2022-03-09T13:16:29Z</time>
      </trkpt>
      <trkpt lat="46.78103" lon="5.63534">
        <ele>479</ele>
        <time>2022-03-09T13:16:30Z</time>
      </trkpt>
      <trkpt lat="46.78095" lon="5.63524">
        <ele>478.4</ele>
        <time>2022-03-09T13:16:31Z</time>
      </trkpt>
      <trkpt lat="46.78088" lon="5.63514">
        <ele>478</ele>
        <time>2022-03-09T13:16:32Z</time>
      </trkpt>
      <trkpt lat="46.7808" lon="5.63504">
        <ele>477.6</ele>
        <time>2022-03-09T13:16:33Z</time>
      </trkpt>
      <trkpt lat="46.78072" lon="5.63495">
        <ele>477.2</ele>
        <time>2022-03-09T13:16:34Z</time>
      </trkpt>
      <trkpt lat="46.78065" lon="5.63487">
        <ele>476.8</ele>
        <time>2022-03-09T13:16:35Z</time>
      </trkpt>
      <trkpt lat="46.78058" lon="5.63477">
        <ele>476.4</ele>
        <time>2022-03-09T13:16:36Z</time>
      </trkpt>
      <trkpt lat="46.7805" lon="5.63466">
        <ele>476.2</ele>
        <time>2022-03-09T13:16:37Z</time>
      </trkpt>
      <trkpt lat="46.78043" lon="5.63454">
        <ele>476.2</ele>
        <time>2022-03-09T13:16:38Z</time>
      </trkpt>
      <trkpt lat="46.78035" lon="5.63443">
        <ele>475.8</ele>
        <time>2022-03-09T13:16:39Z</time>
      </trkpt>
      <trkpt lat="46.78028" lon="5.63433">
        <ele>475.8</ele>
        <time>2022-03-09T13:16:40Z</time>
      </trkpt>
      <trkpt lat="46.78021" lon="5.63425">
        <ele>475.6</ele>
        <time>2022-03-09T13:16:41Z</time>
      </trkpt>
      <trkpt lat="46.78014" lon="5.63415">
        <ele>475.6</ele>
        <time>2022-03-09T13:16:42Z</time>
      </trkpt>
      <trkpt lat="46.78007" lon="5.63404">
        <ele>475.6</ele>
        <time>2022-03-09T13:16:43Z</time>
      </trkpt>
      <trkpt lat="46.78" lon="5.63393">
        <ele>475.4</ele>
        <time>2022-03-09T13:16:44Z</time>
      </trkpt>
      <trkpt lat="46.77994" lon="5.63383">
        <ele>475.4</ele>
        <time>2022-03-09T13:16:45Z</time>
      </trkpt>
      <trkpt lat="46.77988" lon="5.63375">
        <ele>475.4</ele>
        <time>2022-03-09T13:16:46Z</time>
      </trkpt>
      <trkpt lat="46.77982" lon="5.63366">
        <ele>475.4</ele>
        <time>2022-03-09T13:16:47Z</time>
      </trkpt>
      <trkpt lat="46.77976" lon="5.63356">
        <ele>475.4</ele>
        <time>2022-03-09T13:16:48Z</time>
      </trkpt>
      <trkpt lat="46.7797" lon="5.63346">
        <ele>475.4</ele>
        <time>2022-03-09T13:16:49Z</time>
      </trkpt>
      <trkpt lat="46.77964" lon="5.63337">
        <ele>475.4</ele>
        <time>2022-03-09T13:16:50Z</time>
      </trkpt>
      <trkpt lat="46.77958" lon="5.63327">
        <ele>475.4</ele>
        <time>2022-03-09T13:16:51Z</time>
      </trkpt>
      <trkpt lat="46.77945" lon="5.63308">
        <ele>475.4</ele>
        <time>2022-03-09T13:16:52Z</time>
      </trkpt>
      <trkpt lat="46.77938" lon="5.63298">
        <ele>475.2</ele>
        <time>2022-03-09T13:16:53Z</time>
      </trkpt>
      <trkpt lat="46.77932" lon="5.63288">
        <ele>475.2</ele>
        <time>2022-03-09T13:16:54Z</time>
      </trkpt>
      <trkpt lat="46.77925" lon="5.6328">
        <ele>474.8</ele>
        <time>2022-03-09T13:16:55Z</time>
      </trkpt>
      <trkpt lat="46.77919" lon="5.63271">
        <ele>474.8</ele>
        <time>2022-03-09T13:16:56Z</time>
      </trkpt>
      <trkpt lat="46.77911" lon="5.63262">
        <ele>474.6</ele>
        <time>2022-03-09T13:16:57Z</time>
      </trkpt>
      <trkpt lat="46.77904" lon="5.63252">
        <ele>474.6</ele>
        <time>2022-03-09T13:16:58Z</time>
      </trkpt>
      <trkpt lat="46.77896" lon="5.63243">
        <ele>474.2</ele>
        <time>2022-03-09T13:16:59Z</time>
      </trkpt>
      <trkpt lat="46.77889" lon="5.63235">
        <ele>474</ele>
        <time>2022-03-09T13:17:00Z</time>
      </trkpt>
      <trkpt lat="46.77884" lon="5.63225">
        <ele>473.8</ele>
        <time>2022-03-09T13:17:01Z</time>
      </trkpt>
      <trkpt lat="46.77876" lon="5.63214">
        <ele>473.4</ele>
        <time>2022-03-09T13:17:02Z</time>
      </trkpt>
      <trkpt lat="46.77868" lon="5.63205">
        <ele>473</ele>
        <time>2022-03-09T13:17:03Z</time>
      </trkpt>
      <trkpt lat="46.7786" lon="5.63195">
        <ele>472.6</ele>
        <time>2022-03-09T13:17:04Z</time>
      </trkpt>
      <trkpt lat="46.77853" lon="5.63186">
        <ele>472</ele>
        <time>2022-03-09T13:17:05Z</time>
      </trkpt>
      <trkpt lat="46.77844" lon="5.63175">
        <ele>471.6</ele>
        <time>2022-03-09T13:17:06Z</time>
      </trkpt>
      <trkpt lat="46.77836" lon="5.63165">
        <ele>470.8</ele>
        <time>2022-03-09T13:17:07Z</time>
      </trkpt>
      <trkpt lat="46.77827" lon="5.63154">
        <ele>470.4</ele>
        <time>2022-03-09T13:17:08Z</time>
      </trkpt>
      <trkpt lat="46.77819" lon="5.63145">
        <ele>469.8</ele>
        <time>2022-03-09T13:17:09Z</time>
      </trkpt>
      <trkpt lat="46.7781" lon="5.63134">
        <ele>469.6</ele>
        <time>2022-03-09T13:17:10Z</time>
      </trkpt>
      <trkpt lat="46.77801" lon="5.63124">
        <ele>469.2</ele>
        <time>2022-03-09T13:17:11Z</time>
      </trkpt>
      <trkpt lat="46.77793" lon="5.63113">
        <ele>469</ele>
        <time>2022-03-09T13:17:12Z</time>
      </trkpt>
      <trkpt lat="46.77785" lon="5.63104">
        <ele>468.6</ele>
        <time>2022-03-09T13:17:13Z</time>
      </trkpt>
      <trkpt lat="46.77778" lon="5.63095">
        <ele>468.4</ele>
        <time>2022-03-09T13:17:14Z</time>
      </trkpt>
      <trkpt lat="46.77771" lon="5.63084">
        <ele>468.2</ele>
        <time>2022-03-09T13:17:15Z</time>
      </trkpt>
      <trkpt lat="46.77764" lon="5.63072">
        <ele>468.2</ele>
        <time>2022-03-09T13:17:16Z</time>
      </trkpt>
      <trkpt lat="46.77758" lon="5.63062">
        <ele>468.2</ele>
        <time>2022-03-09T13:17:17Z</time>
      </trkpt>
      <trkpt lat="46.77752" lon="5.63054">
        <ele>467.8</ele>
        <time>2022-03-09T13:17:18Z</time>
      </trkpt>
      <trkpt lat="46.77746" lon="5.63043">
        <ele>467.6</ele>
        <time>2022-03-09T13:17:19Z</time>
      </trkpt>
      <trkpt lat="46.77739" lon="5.63031">
        <ele>467.6</ele>
        <time>2022-03-09T13:17:20Z</time>
      </trkpt>
      <trkpt lat="46.77733" lon="5.63019">
        <ele>467.4</ele>
        <time>2022-03-09T13:17:21Z</time>
      </trkpt>
      <trkpt lat="46.77728" lon="5.63008">
        <ele>467.4</ele>
        <time>2022-03-09T13:17:22Z</time>
      </trkpt>
      <trkpt lat="46.77723" lon="5.62995">
        <ele>467</ele>
        <time>2022-03-09T13:17:23Z</time>
      </trkpt>
      <trkpt lat="46.77717" lon="5.62982">
        <ele>466.8</ele>
        <time>2022-03-09T13:17:24Z</time>
      </trkpt>
      <trkpt lat="46.77711" lon="5.62969">
        <ele>466.4</ele>
        <time>2022-03-09T13:17:25Z</time>
      </trkpt>
      <trkpt lat="46.77704" lon="5.62957">
        <ele>466.2</ele>
        <time>2022-03-09T13:17:26Z</time>
      </trkpt>
      <trkpt lat="46.77698" lon="5.62945">
        <ele>465.8</ele>
        <time>2022-03-09T13:17:27Z</time>
      </trkpt>
      <trkpt lat="46.77691" lon="5.62934">
        <ele>465.4</ele>
        <time>2022-03-09T13:17:28Z</time>
      </trkpt>
      <trkpt lat="46.77683" lon="5.62923">
        <ele>465.2</ele>
        <time>2022-03-09T13:17:29Z</time>
      </trkpt>
      <trkpt lat="46.77675" lon="5.62914">
        <ele>464.8</ele>
        <time>2022-03-09T13:17:30Z</time>
      </trkpt>
      <trkpt lat="46.77668" lon="5.62907">
        <ele>464.8</ele>
        <time>2022-03-09T13:17:31Z</time>
      </trkpt>
      <trkpt lat="46.77661" lon="5.62899">
        <ele>464.8</ele>
        <time>2022-03-09T13:17:32Z</time>
      </trkpt>
      <trkpt lat="46.77653" lon="5.62891">
        <ele>464.8</ele>
        <time>2022-03-09T13:17:33Z</time>
      </trkpt>
      <trkpt lat="46.77646" lon="5.62885">
        <ele>464.8</ele>
        <time>2022-03-09T13:17:34Z</time>
      </trkpt>
      <trkpt lat="46.77638" lon="5.62879">
        <ele>464.8</ele>
        <time>2022-03-09T13:17:35Z</time>
      </trkpt>
      <trkpt lat="46.77631" lon="5.62874">
        <ele>464.8</ele>
        <time>2022-03-09T13:17:36Z</time>
      </trkpt>
      <trkpt lat="46.77624" lon="5.62869">
        <ele>464.8</ele>
        <time>2022-03-09T13:17:37Z</time>
      </trkpt>
      <trkpt lat="46.77616" lon="5.62866">
        <ele>464.8</ele>
        <time>2022-03-09T13:17:38Z</time>
      </trkpt>
      <trkpt lat="46.77609" lon="5.62863">
        <ele>465.2</ele>
        <time>2022-03-09T13:17:39Z</time>
      </trkpt>
      <trkpt lat="46.77602" lon="5.6286">
        <ele>465.2</ele>
        <time>2022-03-09T13:17:40Z</time>
      </trkpt>
      <trkpt lat="46.77595" lon="5.62858">
        <ele>465.4</ele>
        <time>2022-03-09T13:17:41Z</time>
      </trkpt>
      <trkpt lat="46.77589" lon="5.62856">
        <ele>465.4</ele>
        <time>2022-03-09T13:17:42Z</time>
      </trkpt>
      <trkpt lat="46.77582" lon="5.62854">
        <ele>465.4</ele>
        <time>2022-03-09T13:17:43Z</time>
      </trkpt>
      <trkpt lat="46.77574" lon="5.62852">
        <ele>465.4</ele>
        <time>2022-03-09T13:17:44Z</time>
      </trkpt>
      <trkpt lat="46.77566" lon="5.62851">
        <ele>465</ele>
        <time>2022-03-09T13:17:45Z</time>
      </trkpt>
      <trkpt lat="46.77558" lon="5.62849">
        <ele>464.6</ele>
        <time>2022-03-09T13:17:46Z</time>
      </trkpt>
      <trkpt lat="46.7755" lon="5.62848">
        <ele>464.2</ele>
        <time>2022-03-09T13:17:47Z</time>
      </trkpt>
      <trkpt lat="46.77542" lon="5.62846">
        <ele>463.8</ele>
        <time>2022-03-09T13:17:48Z</time>
      </trkpt>
      <trkpt lat="46.77534" lon="5.62845">
        <ele>463.4</ele>
        <time>2022-03-09T13:17:49Z</time>
      </trkpt>
      <trkpt lat="46.77527" lon="5.62844">
        <ele>463</ele>
        <time>2022-03-09T13:17:50Z</time>
      </trkpt>
      <trkpt lat="46.7752" lon="5.62842">
        <ele>462.4</ele>
        <time>2022-03-09T13:17:51Z</time>
      </trkpt>
      <trkpt lat="46.77514" lon="5.62841">
        <ele>461.8</ele>
        <time>2022-03-09T13:17:52Z</time>
      </trkpt>
      <trkpt lat="46.77509" lon="5.62838">
        <ele>461.4</ele>
        <time>2022-03-09T13:17:53Z</time>
      </trkpt>
      <trkpt lat="46.77504" lon="5.62834">
        <ele>461</ele>
        <time>2022-03-09T13:17:54Z</time>
      </trkpt>
      <trkpt lat="46.775" lon="5.62827">
        <ele>460.4</ele>
        <time>2022-03-09T13:17:55Z</time>
      </trkpt>
      <trkpt lat="46.77497" lon="5.62819">
        <ele>460.2</ele>
        <time>2022-03-09T13:17:56Z</time>
      </trkpt>
      <trkpt lat="46.77495" lon="5.6281">
        <ele>459.8</ele>
        <time>2022-03-09T13:17:57Z</time>
      </trkpt>
      <trkpt lat="46.77494" lon="5.628">
        <ele>459.4</ele>
        <time>2022-03-09T13:17:58Z</time>
      </trkpt>
      <trkpt lat="46.77492" lon="5.6279">
        <ele>459</ele>
        <time>2022-03-09T13:17:59Z</time>
      </trkpt>
      <trkpt lat="46.77489" lon="5.6278">
        <ele>458.8</ele>
        <time>2022-03-09T13:18:00Z</time>
      </trkpt>
      <trkpt lat="46.77486" lon="5.62771">
        <ele>458.6</ele>
        <time>2022-03-09T13:18:01Z</time>
      </trkpt>
      <trkpt lat="46.77482" lon="5.62762">
        <ele>458.4</ele>
        <time>2022-03-09T13:18:02Z</time>
      </trkpt>
      <trkpt lat="46.77478" lon="5.62753">
        <ele>458</ele>
        <time>2022-03-09T13:18:03Z</time>
      </trkpt>
      <trkpt lat="46.77473" lon="5.62744">
        <ele>457.6</ele>
        <time>2022-03-09T13:18:04Z</time>
      </trkpt>
      <trkpt lat="46.77467" lon="5.62736">
        <ele>457.2</ele>
        <time>2022-03-09T13:18:05Z</time>
      </trkpt>
      <trkpt lat="46.77461" lon="5.62728">
        <ele>457</ele>
        <time>2022-03-09T13:18:06Z</time>
      </trkpt>
      <trkpt lat="46.77455" lon="5.6272">
        <ele>456.6</ele>
        <time>2022-03-09T13:18:07Z</time>
      </trkpt>
      <trkpt lat="46.77448" lon="5.62712">
        <ele>456.2</ele>
        <time>2022-03-09T13:18:08Z</time>
      </trkpt>
      <trkpt lat="46.77442" lon="5.62703">
        <ele>456</ele>
        <time>2022-03-09T13:18:09Z</time>
      </trkpt>
      <trkpt lat="46.77436" lon="5.62694">
        <ele>455.6</ele>
        <time>2022-03-09T13:18:10Z</time>
      </trkpt>
      <trkpt lat="46.7743" lon="5.62684">
        <ele>455.2</ele>
        <time>2022-03-09T13:18:11Z</time>
      </trkpt>
      <trkpt lat="46.77425" lon="5.62673">
        <ele>454.6</ele>
        <time>2022-03-09T13:18:12Z</time>
      </trkpt>
      <trkpt lat="46.7742" lon="5.62661">
        <ele>454.2</ele>
        <time>2022-03-09T13:18:13Z</time>
      </trkpt>
      <trkpt lat="46.7742" lon="5.62661">
        <ele>453.6</ele>
        <time>2022-03-09T13:18:14Z</time>
      </trkpt>
      <trkpt lat="46.77415" lon="5.62649">
        <ele>453.2</ele>
        <time>2022-03-09T13:18:15Z</time>
      </trkpt>
      <trkpt lat="46.7741" lon="5.62636">
        <ele>452.6</ele>
        <time>2022-03-09T13:18:16Z</time>
      </trkpt>
      <trkpt lat="46.77405" lon="5.62624">
        <ele>452</ele>
        <time>2022-03-09T13:18:17Z</time>
      </trkpt>
      <trkpt lat="46.774" lon="5.6261">
        <ele>451.4</ele>
        <time>2022-03-09T13:18:18Z</time>
      </trkpt>
      <trkpt lat="46.77396" lon="5.62597">
        <ele>450.8</ele>
        <time>2022-03-09T13:18:19Z</time>
      </trkpt>
      <trkpt lat="46.77393" lon="5.62582">
        <ele>450.2</ele>
        <time>2022-03-09T13:18:20Z</time>
      </trkpt>
      <trkpt lat="46.77391" lon="5.62567">
        <ele>449.4</ele>
        <time>2022-03-09T13:18:21Z</time>
      </trkpt>
      <trkpt lat="46.7739" lon="5.62553">
        <ele>448.8</ele>
        <time>2022-03-09T13:18:22Z</time>
      </trkpt>
      <trkpt lat="46.77392" lon="5.62538">
        <ele>448.2</ele>
        <time>2022-03-09T13:18:23Z</time>
      </trkpt>
      <trkpt lat="46.77394" lon="5.62522">
        <ele>447.6</ele>
        <time>2022-03-09T13:18:24Z</time>
      </trkpt>
      <trkpt lat="46.77399" lon="5.62508">
        <ele>446.8</ele>
        <time>2022-03-09T13:18:25Z</time>
      </trkpt>
      <trkpt lat="46.77404" lon="5.62493">
        <ele>446.2</ele>
        <time>2022-03-09T13:18:26Z</time>
      </trkpt>
      <trkpt lat="46.77408" lon="5.62479">
        <ele>445.6</ele>
        <time>2022-03-09T13:18:27Z</time>
      </trkpt>
      <trkpt lat="46.77413" lon="5.62465">
        <ele>445</ele>
        <time>2022-03-09T13:18:28Z</time>
      </trkpt>
      <trkpt lat="46.77417" lon="5.6245">
        <ele>444.4</ele>
        <time>2022-03-09T13:18:29Z</time>
      </trkpt>
      <trkpt lat="46.77422" lon="5.62435">
        <ele>443.8</ele>
        <time>2022-03-09T13:18:30Z</time>
      </trkpt>
      <trkpt lat="46.77428" lon="5.62424">
        <ele>443</ele>
        <time>2022-03-09T13:18:31Z</time>
      </trkpt>
      <trkpt lat="46.77435" lon="5.62414">
        <ele>442.4</ele>
        <time>2022-03-09T13:18:32Z</time>
      </trkpt>
      <trkpt lat="46.77443" lon="5.62406">
        <ele>441.8</ele>
        <time>2022-03-09T13:18:33Z</time>
      </trkpt>
      <trkpt lat="46.77451" lon="5.624">
        <ele>441.2</ele>
        <time>2022-03-09T13:18:34Z</time>
      </trkpt>
      <trkpt lat="46.7746" lon="5.62398">
        <ele>440.6</ele>
        <time>2022-03-09T13:18:35Z</time>
      </trkpt>
      <trkpt lat="46.77468" lon="5.62397">
        <ele>440</ele>
        <time>2022-03-09T13:18:36Z</time>
      </trkpt>
      <trkpt lat="46.77474" lon="5.62396">
        <ele>439.4</ele>
        <time>2022-03-09T13:18:37Z</time>
      </trkpt>
      <trkpt lat="46.7748" lon="5.62392">
        <ele>439</ele>
        <time>2022-03-09T13:18:38Z</time>
      </trkpt>
      <trkpt lat="46.77484" lon="5.62386">
        <ele>438.6</ele>
        <time>2022-03-09T13:18:39Z</time>
      </trkpt>
      <trkpt lat="46.77486" lon="5.62378">
        <ele>438.2</ele>
        <time>2022-03-09T13:18:40Z</time>
      </trkpt>
      <trkpt lat="46.77486" lon="5.62371">
        <ele>437.6</ele>
        <time>2022-03-09T13:18:41Z</time>
      </trkpt>
      <trkpt lat="46.77483" lon="5.62364">
        <ele>437.2</ele>
        <time>2022-03-09T13:18:42Z</time>
      </trkpt>
      <trkpt lat="46.77478" lon="5.62359">
        <ele>436.8</ele>
        <time>2022-03-09T13:18:43Z</time>
      </trkpt>
      <trkpt lat="46.7747" lon="5.62356">
        <ele>436.2</ele>
        <time>2022-03-09T13:18:44Z</time>
      </trkpt>
      <trkpt lat="46.77463" lon="5.62356">
        <ele>435.6</ele>
        <time>2022-03-09T13:18:45Z</time>
      </trkpt>
      <trkpt lat="46.77455" lon="5.62357">
        <ele>435</ele>
        <time>2022-03-09T13:18:46Z</time>
      </trkpt>
      <trkpt lat="46.77447" lon="5.62361">
        <ele>434.4</ele>
        <time>2022-03-09T13:18:47Z</time>
      </trkpt>
      <trkpt lat="46.77439" lon="5.62365">
        <ele>433.8</ele>
        <time>2022-03-09T13:18:48Z</time>
      </trkpt>
      <trkpt lat="46.77433" lon="5.6237">
        <ele>433.2</ele>
        <time>2022-03-09T13:18:49Z</time>
      </trkpt>
      <trkpt lat="46.77426" lon="5.62377">
        <ele>432.8</ele>
        <time>2022-03-09T13:18:50Z</time>
      </trkpt>
      <trkpt lat="46.77419" lon="5.62384">
        <ele>432.2</ele>
        <time>2022-03-09T13:18:51Z</time>
      </trkpt>
      <trkpt lat="46.77413" lon="5.62393">
        <ele>431.8</ele>
        <time>2022-03-09T13:18:52Z</time>
      </trkpt>
      <trkpt lat="46.77406" lon="5.62404">
        <ele>431.2</ele>
        <time>2022-03-09T13:18:53Z</time>
      </trkpt>
      <trkpt lat="46.77398" lon="5.62416">
        <ele>430.6</ele>
        <time>2022-03-09T13:18:54Z</time>
      </trkpt>
      <trkpt lat="46.77391" lon="5.62428">
        <ele>430.2</ele>
        <time>2022-03-09T13:18:55Z</time>
      </trkpt>
      <trkpt lat="46.77384" lon="5.62438">
        <ele>429.6</ele>
        <time>2022-03-09T13:18:56Z</time>
      </trkpt>
      <trkpt lat="46.77376" lon="5.62449">
        <ele>429</ele>
        <time>2022-03-09T13:18:57Z</time>
      </trkpt>
      <trkpt lat="46.77368" lon="5.62458">
        <ele>428.4</ele>
        <time>2022-03-09T13:18:58Z</time>
      </trkpt>
      <trkpt lat="46.77359" lon="5.62466">
        <ele>427.6</ele>
        <time>2022-03-09T13:18:59Z</time>
      </trkpt>
      <trkpt lat="46.7735" lon="5.62475">
        <ele>426.8</ele>
        <time>2022-03-09T13:19:00Z</time>
      </trkpt>
      <trkpt lat="46.77341" lon="5.62482">
        <ele>426</ele>
        <time>2022-03-09T13:19:01Z</time>
      </trkpt>
      <trkpt lat="46.77331" lon="5.62486">
        <ele>425.4</ele>
        <time>2022-03-09T13:19:02Z</time>
      </trkpt>
      <trkpt lat="46.77321" lon="5.62488">
        <ele>424.8</ele>
        <time>2022-03-09T13:19:03Z</time>
      </trkpt>
      <trkpt lat="46.77311" lon="5.62491">
        <ele>424</ele>
        <time>2022-03-09T13:19:04Z</time>
      </trkpt>
      <trkpt lat="46.77301" lon="5.62495">
        <ele>423.2</ele>
        <time>2022-03-09T13:19:05Z</time>
      </trkpt>
      <trkpt lat="46.77292" lon="5.625">
        <ele>422.4</ele>
        <time>2022-03-09T13:19:06Z</time>
      </trkpt>
      <trkpt lat="46.77282" lon="5.62505">
        <ele>421.8</ele>
        <time>2022-03-09T13:19:07Z</time>
      </trkpt>
      <trkpt lat="46.77272" lon="5.62509">
        <ele>421</ele>
        <time>2022-03-09T13:19:08Z</time>
      </trkpt>
      <trkpt lat="46.77262" lon="5.62512">
        <ele>420.4</ele>
        <time>2022-03-09T13:19:09Z</time>
      </trkpt>
      <trkpt lat="46.77251" lon="5.62514">
        <ele>419.6</ele>
        <time>2022-03-09T13:19:10Z</time>
      </trkpt>
      <trkpt lat="46.7724" lon="5.62511">
        <ele>418.8</ele>
        <time>2022-03-09T13:19:11Z</time>
      </trkpt>
      <trkpt lat="46.7723" lon="5.62506">
        <ele>418.2</ele>
        <time>2022-03-09T13:19:12Z</time>
      </trkpt>
      <trkpt lat="46.7722" lon="5.62499">
        <ele>417.4</ele>
        <time>2022-03-09T13:19:13Z</time>
      </trkpt>
      <trkpt lat="46.7721" lon="5.6249">
        <ele>416.6</ele>
        <time>2022-03-09T13:19:14Z</time>
      </trkpt>
      <trkpt lat="46.77199" lon="5.62482">
        <ele>415.8</ele>
        <time>2022-03-09T13:19:15Z</time>
      </trkpt>
      <trkpt lat="46.77189" lon="5.62475">
        <ele>415</ele>
        <time>2022-03-09T13:19:16Z</time>
      </trkpt>
      <trkpt lat="46.77179" lon="5.62467">
        <ele>414</ele>
        <time>2022-03-09T13:19:17Z</time>
      </trkpt>
      <trkpt lat="46.77169" lon="5.62459">
        <ele>413.2</ele>
        <time>2022-03-09T13:19:18Z</time>
      </trkpt>
      <trkpt lat="46.77159" lon="5.62452">
        <ele>412.4</ele>
        <time>2022-03-09T13:19:19Z</time>
      </trkpt>
      <trkpt lat="46.77149" lon="5.62444">
        <ele>411.6</ele>
        <time>2022-03-09T13:19:20Z</time>
      </trkpt>
      <trkpt lat="46.77139" lon="5.62436">
        <ele>410.8</ele>
        <time>2022-03-09T13:19:21Z</time>
      </trkpt>
      <trkpt lat="46.77129" lon="5.62427">
        <ele>410</ele>
        <time>2022-03-09T13:19:22Z</time>
      </trkpt>
      <trkpt lat="46.7712" lon="5.62419">
        <ele>409.2</ele>
        <time>2022-03-09T13:19:23Z</time>
      </trkpt>
      <trkpt lat="46.7711" lon="5.62411">
        <ele>408.4</ele>
        <time>2022-03-09T13:19:24Z</time>
      </trkpt>
      <trkpt lat="46.771" lon="5.62403">
        <ele>407.8</ele>
        <time>2022-03-09T13:19:25Z</time>
      </trkpt>
      <trkpt lat="46.7709" lon="5.62395">
        <ele>407</ele>
        <time>2022-03-09T13:19:26Z</time>
      </trkpt>
      <trkpt lat="46.7708" lon="5.62387">
        <ele>406.4</ele>
        <time>2022-03-09T13:19:27Z</time>
      </trkpt>
      <trkpt lat="46.77071" lon="5.62379">
        <ele>405.8</ele>
        <time>2022-03-09T13:19:28Z</time>
      </trkpt>
      <trkpt lat="46.77061" lon="5.62371">
        <ele>405.4</ele>
        <time>2022-03-09T13:19:29Z</time>
      </trkpt>
      <trkpt lat="46.77052" lon="5.62364">
        <ele>404.8</ele>
        <time>2022-03-09T13:19:30Z</time>
      </trkpt>
      <trkpt lat="46.77043" lon="5.62357">
        <ele>404.4</ele>
        <time>2022-03-09T13:19:31Z</time>
      </trkpt>
      <trkpt lat="46.77034" lon="5.62351">
        <ele>404</ele>
        <time>2022-03-09T13:19:32Z</time>
      </trkpt>
      <trkpt lat="46.77025" lon="5.62347">
        <ele>403.6</ele>
        <time>2022-03-09T13:19:33Z</time>
      </trkpt>
      <trkpt lat="46.77016" lon="5.62344">
        <ele>403.2</ele>
        <time>2022-03-09T13:19:34Z</time>
      </trkpt>
      <trkpt lat="46.77007" lon="5.62342">
        <ele>402.8</ele>
        <time>2022-03-09T13:19:35Z</time>
      </trkpt>
      <trkpt lat="46.76998" lon="5.62339">
        <ele>402.4</ele>
        <time>2022-03-09T13:19:36Z</time>
      </trkpt>
      <trkpt lat="46.76989" lon="5.62337">
        <ele>402.2</ele>
        <time>2022-03-09T13:19:37Z</time>
      </trkpt>
      <trkpt lat="46.7698" lon="5.62337">
        <ele>401.8</ele>
        <time>2022-03-09T13:19:38Z</time>
      </trkpt>
      <trkpt lat="46.76971" lon="5.62335">
        <ele>401.6</ele>
        <time>2022-03-09T13:19:39Z</time>
      </trkpt>
      <trkpt lat="46.76963" lon="5.62333">
        <ele>401.2</ele>
        <time>2022-03-09T13:19:40Z</time>
      </trkpt>
      <trkpt lat="46.76954" lon="5.62332">
        <ele>401</ele>
        <time>2022-03-09T13:19:41Z</time>
      </trkpt>
      <trkpt lat="46.76945" lon="5.6233">
        <ele>400.6</ele>
        <time>2022-03-09T13:19:42Z</time>
      </trkpt>
      <trkpt lat="46.76937" lon="5.62328">
        <ele>400.2</ele>
        <time>2022-03-09T13:19:43Z</time>
      </trkpt>
      <trkpt lat="46.76929" lon="5.62325">
        <ele>400</ele>
        <time>2022-03-09T13:19:44Z</time>
      </trkpt>
      <trkpt lat="46.76922" lon="5.62322">
        <ele>399.6</ele>
        <time>2022-03-09T13:19:45Z</time>
      </trkpt>
      <trkpt lat="46.76917" lon="5.62319">
        <ele>399.4</ele>
        <time>2022-03-09T13:19:46Z</time>
      </trkpt>
      <trkpt lat="46.76912" lon="5.62314">
        <ele>399</ele>
        <time>2022-03-09T13:19:47Z</time>
      </trkpt>
      <trkpt lat="46.76909" lon="5.62308">
        <ele>398.6</ele>
        <time>2022-03-09T13:19:48Z</time>
      </trkpt>
      <trkpt lat="46.76905" lon="5.62301">
        <ele>398.2</ele>
        <time>2022-03-09T13:19:49Z</time>
      </trkpt>
      <trkpt lat="46.76901" lon="5.62292">
        <ele>397.6</ele>
        <time>2022-03-09T13:19:50Z</time>
      </trkpt>
      <trkpt lat="46.76896" lon="5.62282">
        <ele>397</ele>
        <time>2022-03-09T13:19:51Z</time>
      </trkpt>
      <trkpt lat="46.76891" lon="5.62271">
        <ele>396.2</ele>
        <time>2022-03-09T13:19:52Z</time>
      </trkpt>
      <trkpt lat="46.76886" lon="5.6226">
        <ele>395.4</ele>
        <time>2022-03-09T13:19:53Z</time>
      </trkpt>
      <trkpt lat="46.76881" lon="5.62246">
        <ele>394.4</ele>
        <time>2022-03-09T13:19:54Z</time>
      </trkpt>
      <trkpt lat="46.76876" lon="5.62233">
        <ele>393.4</ele>
        <time>2022-03-09T13:19:55Z</time>
      </trkpt>
      <trkpt lat="46.76871" lon="5.62221">
        <ele>392.4</ele>
        <time>2022-03-09T13:19:56Z</time>
      </trkpt>
      <trkpt lat="46.76866" lon="5.6221">
        <ele>391.6</ele>
        <time>2022-03-09T13:19:57Z</time>
      </trkpt>
      <trkpt lat="46.76861" lon="5.622">
        <ele>390.6</ele>
        <time>2022-03-09T13:19:58Z</time>
      </trkpt>
      <trkpt lat="46.76857" lon="5.62191">
        <ele>389.6</ele>
        <time>2022-03-09T13:19:59Z</time>
      </trkpt>
      <trkpt lat="46.76854" lon="5.62183">
        <ele>388.8</ele>
        <time>2022-03-09T13:20:00Z</time>
      </trkpt>
      <trkpt lat="46.76851" lon="5.62174">
        <ele>388</ele>
        <time>2022-03-09T13:20:01Z</time>
      </trkpt>
      <trkpt lat="46.76846" lon="5.62166">
        <ele>387.2</ele>
        <time>2022-03-09T13:20:02Z</time>
      </trkpt>
      <trkpt lat="46.7684" lon="5.62159">
        <ele>386.4</ele>
        <time>2022-03-09T13:20:03Z</time>
      </trkpt>
      <trkpt lat="46.76832" lon="5.62153">
        <ele>385.6</ele>
        <time>2022-03-09T13:20:04Z</time>
      </trkpt>
      <trkpt lat="46.76824" lon="5.62147">
        <ele>384.8</ele>
        <time>2022-03-09T13:20:05Z</time>
      </trkpt>
      <trkpt lat="46.76815" lon="5.62141">
        <ele>383.8</ele>
        <time>2022-03-09T13:20:06Z</time>
      </trkpt>
      <trkpt lat="46.76806" lon="5.62136">
        <ele>382.8</ele>
        <time>2022-03-09T13:20:07Z</time>
      </trkpt>
      <trkpt lat="46.76798" lon="5.62131">
        <ele>382</ele>
        <time>2022-03-09T13:20:08Z</time>
      </trkpt>
      <trkpt lat="46.7679" lon="5.62128">
        <ele>381.4</ele>
        <time>2022-03-09T13:20:09Z</time>
      </trkpt>
      <trkpt lat="46.76782" lon="5.62126">
        <ele>380.8</ele>
        <time>2022-03-09T13:20:10Z</time>
      </trkpt>
      <trkpt lat="46.76774" lon="5.62126">
        <ele>379.6</ele>
        <time>2022-03-09T13:20:11Z</time>
      </trkpt>
      <trkpt lat="46.76766" lon="5.62126">
        <ele>379.2</ele>
        <time>2022-03-09T13:20:12Z</time>
      </trkpt>
      <trkpt lat="46.76758" lon="5.62129">
        <ele>378.8</ele>
        <time>2022-03-09T13:20:13Z</time>
      </trkpt>
      <trkpt lat="46.76751" lon="5.62132">
        <ele>378.2</ele>
        <time>2022-03-09T13:20:14Z</time>
      </trkpt>
      <trkpt lat="46.76744" lon="5.62135">
        <ele>377.8</ele>
        <time>2022-03-09T13:20:15Z</time>
      </trkpt>
      <trkpt lat="46.76739" lon="5.62137">
        <ele>377.4</ele>
        <time>2022-03-09T13:20:16Z</time>
      </trkpt>
      <trkpt lat="46.76735" lon="5.62138">
        <ele>377</ele>
        <time>2022-03-09T13:20:17Z</time>
      </trkpt>
      <trkpt lat="46.76732" lon="5.62137">
        <ele>376.6</ele>
        <time>2022-03-09T13:20:18Z</time>
      </trkpt>
      <trkpt lat="46.7673" lon="5.62133">
        <ele>376.2</ele>
        <time>2022-03-09T13:20:19Z</time>
      </trkpt>
      <trkpt lat="46.76729" lon="5.62128">
        <ele>375.6</ele>
        <time>2022-03-09T13:20:20Z</time>
      </trkpt>
      <trkpt lat="46.76728" lon="5.6212">
        <ele>375</ele>
        <time>2022-03-09T13:20:21Z</time>
      </trkpt>
      <trkpt lat="46.76729" lon="5.62112">
        <ele>374.6</ele>
        <time>2022-03-09T13:20:22Z</time>
      </trkpt>
      <trkpt lat="46.76731" lon="5.62103">
        <ele>373.8</ele>
        <time>2022-03-09T13:20:23Z</time>
      </trkpt>
      <trkpt lat="46.76733" lon="5.62094">
        <ele>373.4</ele>
        <time>2022-03-09T13:20:24Z</time>
      </trkpt>
      <trkpt lat="46.76735" lon="5.62084">
        <ele>372.6</ele>
        <time>2022-03-09T13:20:25Z</time>
      </trkpt>
      <trkpt lat="46.76738" lon="5.62073">
        <ele>372</ele>
        <time>2022-03-09T13:20:26Z</time>
      </trkpt>
      <trkpt lat="46.7674" lon="5.62063">
        <ele>371.4</ele>
        <time>2022-03-09T13:20:27Z</time>
      </trkpt>
      <trkpt lat="46.76742" lon="5.62054">
        <ele>370.8</ele>
        <time>2022-03-09T13:20:28Z</time>
      </trkpt>
      <trkpt lat="46.76744" lon="5.62046">
        <ele>370.2</ele>
        <time>2022-03-09T13:20:29Z</time>
      </trkpt>
      <trkpt lat="46.76745" lon="5.6204">
        <ele>369.8</ele>
        <time>2022-03-09T13:20:30Z</time>
      </trkpt>
      <trkpt lat="46.76745" lon="5.62036">
        <ele>369.4</ele>
        <time>2022-03-09T13:20:31Z</time>
      </trkpt>
      <trkpt lat="46.76743" lon="5.62032">
        <ele>369.2</ele>
        <time>2022-03-09T13:20:32Z</time>
      </trkpt>
      <trkpt lat="46.7674" lon="5.6203">
        <ele>369</ele>
        <time>2022-03-09T13:20:33Z</time>
      </trkpt>
      <trkpt lat="46.76735" lon="5.62028">
        <ele>368.8</ele>
        <time>2022-03-09T13:20:34Z</time>
      </trkpt>
      <trkpt lat="46.76731" lon="5.62025">
        <ele>368.8</ele>
        <time>2022-03-09T13:20:35Z</time>
      </trkpt>
      <trkpt lat="46.76725" lon="5.62023">
        <ele>368.4</ele>
        <time>2022-03-09T13:20:36Z</time>
      </trkpt>
      <trkpt lat="46.7672" lon="5.6202">
        <ele>368.4</ele>
        <time>2022-03-09T13:20:37Z</time>
      </trkpt>
      <trkpt lat="46.76714" lon="5.62017">
        <ele>368</ele>
        <time>2022-03-09T13:20:38Z</time>
      </trkpt>
      <trkpt lat="46.76708" lon="5.62014">
        <ele>367.8</ele>
        <time>2022-03-09T13:20:39Z</time>
      </trkpt>
      <trkpt lat="46.76703" lon="5.62011">
        <ele>367.6</ele>
        <time>2022-03-09T13:20:40Z</time>
      </trkpt>
      <trkpt lat="46.76697" lon="5.62007">
        <ele>367.4</ele>
        <time>2022-03-09T13:20:41Z</time>
      </trkpt>
      <trkpt lat="46.7669" lon="5.62004">
        <ele>367.4</ele>
        <time>2022-03-09T13:20:42Z</time>
      </trkpt>
      <trkpt lat="46.76684" lon="5.62001">
        <ele>367</ele>
        <time>2022-03-09T13:20:43Z</time>
      </trkpt>
      <trkpt lat="46.76678" lon="5.61997">
        <ele>366.6</ele>
        <time>2022-03-09T13:20:44Z</time>
      </trkpt>
      <trkpt lat="46.76671" lon="5.61994">
        <ele>366.4</ele>
        <time>2022-03-09T13:20:45Z</time>
      </trkpt>
      <trkpt lat="46.76665" lon="5.6199">
        <ele>366.2</ele>
        <time>2022-03-09T13:20:46Z</time>
      </trkpt>
      <trkpt lat="46.76658" lon="5.61986">
        <ele>366</ele>
        <time>2022-03-09T13:20:47Z</time>
      </trkpt>
      <trkpt lat="46.76652" lon="5.61983">
        <ele>365.6</ele>
        <time>2022-03-09T13:20:48Z</time>
      </trkpt>
      <trkpt lat="46.76646" lon="5.6198">
        <ele>365.4</ele>
        <time>2022-03-09T13:20:49Z</time>
      </trkpt>
      <trkpt lat="46.7664" lon="5.61977">
        <ele>365.2</ele>
        <time>2022-03-09T13:20:50Z</time>
      </trkpt>
      <trkpt lat="46.76634" lon="5.61975">
        <ele>364.8</ele>
        <time>2022-03-09T13:20:51Z</time>
      </trkpt>
      <trkpt lat="46.76629" lon="5.61972">
        <ele>364.6</ele>
        <time>2022-03-09T13:20:52Z</time>
      </trkpt>
      <trkpt lat="46.76624" lon="5.6197">
        <ele>364.4</ele>
        <time>2022-03-09T13:20:53Z</time>
      </trkpt>
      <trkpt lat="46.7662" lon="5.61968">
        <ele>364</ele>
        <time>2022-03-09T13:20:54Z</time>
      </trkpt>
      <trkpt lat="46.76617" lon="5.61966">
        <ele>363.8</ele>
        <time>2022-03-09T13:20:55Z</time>
      </trkpt>
      <trkpt lat="46.76614" lon="5.61965">
        <ele>363.8</ele>
        <time>2022-03-09T13:20:56Z</time>
      </trkpt>
      <trkpt lat="46.76611" lon="5.61964">
        <ele>363.6</ele>
        <time>2022-03-09T13:20:57Z</time>
      </trkpt>
      <trkpt lat="46.76609" lon="5.61964">
        <ele>363.6</ele>
        <time>2022-03-09T13:20:58Z</time>
      </trkpt>
      <trkpt lat="46.76607" lon="5.61964">
        <ele>363.2</ele>
        <time>2022-03-09T13:20:59Z</time>
      </trkpt>
      <trkpt lat="46.76607" lon="5.61964">
        <ele>363.2</ele>
        <time>2022-03-09T13:21:00Z</time>
      </trkpt>
      <trkpt lat="46.76607" lon="5.61964">
        <ele>363.2</ele>
        <time>2022-03-09T13:21:01Z</time>
      </trkpt>
      <trkpt lat="46.76607" lon="5.61964">
        <ele>363.2</ele>
        <time>2022-03-09T13:21:04Z</time>
      </trkpt>
      <trkpt lat="46.76607" lon="5.61964">
        <ele>363.2</ele>
        <time>2022-03-09T13:21:05Z</time>
      </trkpt>
      <trkpt lat="46.76607" lon="5.61964">
        <ele>363.2</ele>
        <time>2022-03-09T13:21:06Z</time>
      </trkpt>
      <trkpt lat="46.76607" lon="5.61964">
        <ele>363.2</ele>
        <time>2022-03-09T13:21:07Z</time>
      </trkpt>
      <trkpt lat="46.76607" lon="5.61964">
        <ele>363</ele>
        <time>2022-03-09T13:21:08Z</time>
      </trkpt>
      <trkpt lat="46.76607" lon="5.61964">
        <ele>363</ele>
        <time>2022-03-09T13:21:09Z</time>
      </trkpt>
      <trkpt lat="46.76607" lon="5.61964">
        <ele>362.8</ele>
        <time>2022-03-09T13:21:27Z</time>
      </trkpt>
      <trkpt lat="46.76607" lon="5.61964">
        <ele>362.8</ele>
        <time>2022-03-09T13:21:28Z</time>
      </trkpt>
      <trkpt lat="46.76604" lon="5.61962">
        <ele>362.8</ele>
        <time>2022-03-09T13:21:29Z</time>
      </trkpt>
      <trkpt lat="46.76603" lon="5.61959">
        <ele>362.8</ele>
        <time>2022-03-09T13:21:30Z</time>
      </trkpt>
      <trkpt lat="46.76601" lon="5.61956">
        <ele>362.6</ele>
        <time>2022-03-09T13:21:31Z</time>
      </trkpt>
      <trkpt lat="46.766" lon="5.61951">
        <ele>362.6</ele>
        <time>2022-03-09T13:21:32Z</time>
      </trkpt>
      <trkpt lat="46.76598" lon="5.61946">
        <ele>362.4</ele>
        <time>2022-03-09T13:21:33Z</time>
      </trkpt>
      <trkpt lat="46.76596" lon="5.61941">
        <ele>362.4</ele>
        <time>2022-03-09T13:21:34Z</time>
      </trkpt>
      <trkpt lat="46.76593" lon="5.61934">
        <ele>362</ele>
        <time>2022-03-09T13:21:35Z</time>
      </trkpt>
      <trkpt lat="46.76589" lon="5.61928">
        <ele>362</ele>
        <time>2022-03-09T13:21:36Z</time>
      </trkpt>
      <trkpt lat="46.76586" lon="5.61921">
        <ele>361.8</ele>
        <time>2022-03-09T13:21:37Z</time>
      </trkpt>
      <trkpt lat="46.76582" lon="5.61913">
        <ele>361.4</ele>
        <time>2022-03-09T13:21:38Z</time>
      </trkpt>
      <trkpt lat="46.76578" lon="5.61905">
        <ele>361.2</ele>
        <time>2022-03-09T13:21:39Z</time>
      </trkpt>
      <trkpt lat="46.76575" lon="5.61896">
        <ele>360.8</ele>
        <time>2022-03-09T13:21:40Z</time>
      </trkpt>
      <trkpt lat="46.76573" lon="5.61886">
        <ele>360.6</ele>
        <time>2022-03-09T13:21:41Z</time>
      </trkpt>
      <trkpt lat="46.76572" lon="5.61875">
        <ele>360.2</ele>
        <time>2022-03-09T13:21:42Z</time>
      </trkpt>
      <trkpt lat="46.76573" lon="5.61863">
        <ele>359.6</ele>
        <time>2022-03-09T13:21:43Z</time>
      </trkpt>
      <trkpt lat="46.76576" lon="5.61852">
        <ele>359.2</ele>
        <time>2022-03-09T13:21:44Z</time>
      </trkpt>
      <trkpt lat="46.76581" lon="5.61842">
        <ele>358.8</ele>
        <time>2022-03-09T13:21:45Z</time>
      </trkpt>
      <trkpt lat="46.76587" lon="5.61834">
        <ele>358.4</ele>
        <time>2022-03-09T13:21:46Z</time>
      </trkpt>
      <trkpt lat="46.76594" lon="5.61826">
        <ele>358</ele>
        <time>2022-03-09T13:21:47Z</time>
      </trkpt>
      <trkpt lat="46.76602" lon="5.61821">
        <ele>357.4</ele>
        <time>2022-03-09T13:21:48Z</time>
      </trkpt>
      <trkpt lat="46.76611" lon="5.61818">
        <ele>357</ele>
        <time>2022-03-09T13:21:49Z</time>
      </trkpt>
      <trkpt lat="46.76621" lon="5.61815">
        <ele>356.6</ele>
        <time>2022-03-09T13:21:50Z</time>
      </trkpt>
      <trkpt lat="46.76631" lon="5.61813">
        <ele>356.2</ele>
        <time>2022-03-09T13:21:51Z</time>
      </trkpt>
      <trkpt lat="46.7664" lon="5.6181">
        <ele>355.8</ele>
        <time>2022-03-09T13:21:52Z</time>
      </trkpt>
      <trkpt lat="46.7665" lon="5.61806">
        <ele>355.2</ele>
        <time>2022-03-09T13:21:53Z</time>
      </trkpt>
      <trkpt lat="46.7666" lon="5.61801">
        <ele>354.8</ele>
        <time>2022-03-09T13:21:54Z</time>
      </trkpt>
      <trkpt lat="46.76669" lon="5.61794">
        <ele>354.2</ele>
        <time>2022-03-09T13:21:55Z</time>
      </trkpt>
      <trkpt lat="46.76678" lon="5.61787">
        <ele>353.6</ele>
        <time>2022-03-09T13:21:56Z</time>
      </trkpt>
      <trkpt lat="46.76687" lon="5.61779">
        <ele>353</ele>
        <time>2022-03-09T13:21:57Z</time>
      </trkpt>
      <trkpt lat="46.76696" lon="5.61771">
        <ele>352.6</ele>
        <time>2022-03-09T13:21:58Z</time>
      </trkpt>
      <trkpt lat="46.76705" lon="5.61764">
        <ele>352</ele>
        <time>2022-03-09T13:21:59Z</time>
      </trkpt>
      <trkpt lat="46.76713" lon="5.61756">
        <ele>351.4</ele>
        <time>2022-03-09T13:22:00Z</time>
      </trkpt>
      <trkpt lat="46.76721" lon="5.6175">
        <ele>350.8</ele>
        <time>2022-03-09T13:22:01Z</time>
      </trkpt>
      <trkpt lat="46.76732" lon="5.61744">
        <ele>350.2</ele>
        <time>2022-03-09T13:22:02Z</time>
      </trkpt>
      <trkpt lat="46.76743" lon="5.61741">
        <ele>349.8</ele>
        <time>2022-03-09T13:22:03Z</time>
      </trkpt>
      <trkpt lat="46.76754" lon="5.61741">
        <ele>349.2</ele>
        <time>2022-03-09T13:22:04Z</time>
      </trkpt>
      <trkpt lat="46.76765" lon="5.61742">
        <ele>348.6</ele>
        <time>2022-03-09T13:22:05Z</time>
      </trkpt>
      <trkpt lat="46.76775" lon="5.61746">
        <ele>348</ele>
        <time>2022-03-09T13:22:06Z</time>
      </trkpt>
      <trkpt lat="46.76785" lon="5.61749">
        <ele>347.2</ele>
        <time>2022-03-09T13:22:07Z</time>
      </trkpt>
      <trkpt lat="46.76794" lon="5.61753">
        <ele>346.6</ele>
        <time>2022-03-09T13:22:08Z</time>
      </trkpt>
      <trkpt lat="46.76803" lon="5.61754">
        <ele>346</ele>
        <time>2022-03-09T13:22:09Z</time>
      </trkpt>
      <trkpt lat="46.76812" lon="5.61751">
        <ele>345.4</ele>
        <time>2022-03-09T13:22:10Z</time>
      </trkpt>
      <trkpt lat="46.76821" lon="5.61743">
        <ele>344.6</ele>
        <time>2022-03-09T13:22:11Z</time>
      </trkpt>
      <trkpt lat="46.7683" lon="5.61734">
        <ele>344</ele>
        <time>2022-03-09T13:22:12Z</time>
      </trkpt>
      <trkpt lat="46.76836" lon="5.61723">
        <ele>343.4</ele>
        <time>2022-03-09T13:22:13Z</time>
      </trkpt>
      <trkpt lat="46.76843" lon="5.61711">
        <ele>343</ele>
        <time>2022-03-09T13:22:14Z</time>
      </trkpt>
      <trkpt lat="46.76849" lon="5.61699">
        <ele>342.4</ele>
        <time>2022-03-09T13:22:15Z</time>
      </trkpt>
      <trkpt lat="46.76855" lon="5.61687">
        <ele>341.8</ele>
        <time>2022-03-09T13:22:16Z</time>
      </trkpt>
      <trkpt lat="46.76859" lon="5.61674">
        <ele>341.4</ele>
        <time>2022-03-09T13:22:17Z</time>
      </trkpt>
      <trkpt lat="46.76864" lon="5.6166">
        <ele>341</ele>
        <time>2022-03-09T13:22:18Z</time>
      </trkpt>
      <trkpt lat="46.76867" lon="5.61646">
        <ele>340.4</ele>
        <time>2022-03-09T13:22:19Z</time>
      </trkpt>
      <trkpt lat="46.76872" lon="5.61632">
        <ele>340</ele>
        <time>2022-03-09T13:22:20Z</time>
      </trkpt>
      <trkpt lat="46.76872" lon="5.61632">
        <ele>339.4</ele>
        <time>2022-03-09T13:22:21Z</time>
      </trkpt>
      <trkpt lat="46.76877" lon="5.61621">
        <ele>338.8</ele>
        <time>2022-03-09T13:22:22Z</time>
      </trkpt>
      <trkpt lat="46.76884" lon="5.61611">
        <ele>338.2</ele>
        <time>2022-03-09T13:22:23Z</time>
      </trkpt>
      <trkpt lat="46.76897" lon="5.61603">
        <ele>338.2</ele>
        <time>2022-03-09T13:22:24Z</time>
      </trkpt>
      <trkpt lat="46.76902" lon="5.61601">
        <ele>337.6</ele>
        <time>2022-03-09T13:22:25Z</time>
      </trkpt>
      <trkpt lat="46.76912" lon="5.61598">
        <ele>336.8</ele>
        <time>2022-03-09T13:22:26Z</time>
      </trkpt>
      <trkpt lat="46.76922" lon="5.61595">
        <ele>336.2</ele>
        <time>2022-03-09T13:22:27Z</time>
      </trkpt>
      <trkpt lat="46.76933" lon="5.61595">
        <ele>335.6</ele>
        <time>2022-03-09T13:22:28Z</time>
      </trkpt>
      <trkpt lat="46.76945" lon="5.61594">
        <ele>335</ele>
        <time>2022-03-09T13:22:29Z</time>
      </trkpt>
      <trkpt lat="46.76955" lon="5.61594">
        <ele>334.4</ele>
        <time>2022-03-09T13:22:30Z</time>
      </trkpt>
      <trkpt lat="46.76965" lon="5.61592">
        <ele>333.6</ele>
        <time>2022-03-09T13:22:31Z</time>
      </trkpt>
      <trkpt lat="46.76976" lon="5.61589">
        <ele>333</ele>
        <time>2022-03-09T13:22:32Z</time>
      </trkpt>
      <trkpt lat="46.76988" lon="5.61587">
        <ele>332.4</ele>
        <time>2022-03-09T13:22:33Z</time>
      </trkpt>
      <trkpt lat="46.76998" lon="5.61585">
        <ele>331.8</ele>
        <time>2022-03-09T13:22:34Z</time>
      </trkpt>
      <trkpt lat="46.7701" lon="5.61583">
        <ele>331.2</ele>
        <time>2022-03-09T13:22:35Z</time>
      </trkpt>
      <trkpt lat="46.77021" lon="5.61581">
        <ele>330.6</ele>
        <time>2022-03-09T13:22:36Z</time>
      </trkpt>
      <trkpt lat="46.77031" lon="5.61583">
        <ele>330</ele>
        <time>2022-03-09T13:22:37Z</time>
      </trkpt>
      <trkpt lat="46.77041" lon="5.61587">
        <ele>328.8</ele>
        <time>2022-03-09T13:22:38Z</time>
      </trkpt>
      <trkpt lat="46.77048" lon="5.61589">
        <ele>328.2</ele>
        <time>2022-03-09T13:22:39Z</time>
      </trkpt>
      <trkpt lat="46.77055" lon="5.61588">
        <ele>327.8</ele>
        <time>2022-03-09T13:22:40Z</time>
      </trkpt>
      <trkpt lat="46.77062" lon="5.61584">
        <ele>327.2</ele>
        <time>2022-03-09T13:22:41Z</time>
      </trkpt>
      <trkpt lat="46.77067" lon="5.61576">
        <ele>326.8</ele>
        <time>2022-03-09T13:22:42Z</time>
      </trkpt>
      <trkpt lat="46.7707" lon="5.61567">
        <ele>326.4</ele>
        <time>2022-03-09T13:22:43Z</time>
      </trkpt>
      <trkpt lat="46.77072" lon="5.61557">
        <ele>325.8</ele>
        <time>2022-03-09T13:22:44Z</time>
      </trkpt>
      <trkpt lat="46.7707" lon="5.61548">
        <ele>325.4</ele>
        <time>2022-03-09T13:22:45Z</time>
      </trkpt>
      <trkpt lat="46.77066" lon="5.6154">
        <ele>324.8</ele>
        <time>2022-03-09T13:22:46Z</time>
      </trkpt>
      <trkpt lat="46.77059" lon="5.61535">
        <ele>324.2</ele>
        <time>2022-03-09T13:22:47Z</time>
      </trkpt>
      <trkpt lat="46.77051" lon="5.61533">
        <ele>323.8</ele>
        <time>2022-03-09T13:22:48Z</time>
      </trkpt>
      <trkpt lat="46.77043" lon="5.61533">
        <ele>323.4</ele>
        <time>2022-03-09T13:22:49Z</time>
      </trkpt>
      <trkpt lat="46.77034" lon="5.61534">
        <ele>323</ele>
        <time>2022-03-09T13:22:50Z</time>
      </trkpt>
      <trkpt lat="46.77026" lon="5.61534">
        <ele>322.6</ele>
        <time>2022-03-09T13:22:51Z</time>
      </trkpt>
      <trkpt lat="46.77017" lon="5.61534">
        <ele>322.2</ele>
        <time>2022-03-09T13:22:52Z</time>
      </trkpt>
      <trkpt lat="46.77009" lon="5.61534">
        <ele>321.8</ele>
        <time>2022-03-09T13:22:53Z</time>
      </trkpt>
      <trkpt lat="46.77" lon="5.61532">
        <ele>321.6</ele>
        <time>2022-03-09T13:22:54Z</time>
      </trkpt>
      <trkpt lat="46.76991" lon="5.6153">
        <ele>321.2</ele>
        <time>2022-03-09T13:22:55Z</time>
      </trkpt>
      <trkpt lat="46.76982" lon="5.61529">
        <ele>320.8</ele>
        <time>2022-03-09T13:22:56Z</time>
      </trkpt>
      <trkpt lat="46.76973" lon="5.61527">
        <ele>320.4</ele>
        <time>2022-03-09T13:22:57Z</time>
      </trkpt>
      <trkpt lat="46.76963" lon="5.61525">
        <ele>319.8</ele>
        <time>2022-03-09T13:22:58Z</time>
      </trkpt>
      <trkpt lat="46.76953" lon="5.61524">
        <ele>319.4</ele>
        <time>2022-03-09T13:22:59Z</time>
      </trkpt>
      <trkpt lat="46.76942" lon="5.61523">
        <ele>318.8</ele>
        <time>2022-03-09T13:23:00Z</time>
      </trkpt>
      <trkpt lat="46.76931" lon="5.61522">
        <ele>318.2</ele>
        <time>2022-03-09T13:23:01Z</time>
      </trkpt>
      <trkpt lat="46.76921" lon="5.61521">
        <ele>317.6</ele>
        <time>2022-03-09T13:23:02Z</time>
      </trkpt>
      <trkpt lat="46.76911" lon="5.61517">
        <ele>317</ele>
        <time>2022-03-09T13:23:03Z</time>
      </trkpt>
      <trkpt lat="46.76901" lon="5.61514">
        <ele>316.4</ele>
        <time>2022-03-09T13:23:04Z</time>
      </trkpt>
      <trkpt lat="46.76891" lon="5.61511">
        <ele>315.8</ele>
        <time>2022-03-09T13:23:05Z</time>
      </trkpt>
      <trkpt lat="46.76881" lon="5.61506">
        <ele>315.2</ele>
        <time>2022-03-09T13:23:06Z</time>
      </trkpt>
      <trkpt lat="46.7687" lon="5.615">
        <ele>314.8</ele>
        <time>2022-03-09T13:23:07Z</time>
      </trkpt>
      <trkpt lat="46.7686" lon="5.61492">
        <ele>314.2</ele>
        <time>2022-03-09T13:23:08Z</time>
      </trkpt>
      <trkpt lat="46.76853" lon="5.61481">
        <ele>313.6</ele>
        <time>2022-03-09T13:23:09Z</time>
      </trkpt>
      <trkpt lat="46.76845" lon="5.61471">
        <ele>313</ele>
        <time>2022-03-09T13:23:10Z</time>
      </trkpt>
      <trkpt lat="46.76835" lon="5.61462">
        <ele>312.4</ele>
        <time>2022-03-09T13:23:11Z</time>
      </trkpt>
      <trkpt lat="46.76825" lon="5.61455">
        <ele>311.8</ele>
        <time>2022-03-09T13:23:12Z</time>
      </trkpt>
      <trkpt lat="46.76814" lon="5.61449">
        <ele>311.2</ele>
        <time>2022-03-09T13:23:13Z</time>
      </trkpt>
      <trkpt lat="46.76804" lon="5.6144">
        <ele>310.6</ele>
        <time>2022-03-09T13:23:14Z</time>
      </trkpt>
      <trkpt lat="46.76795" lon="5.6143">
        <ele>309.8</ele>
        <time>2022-03-09T13:23:15Z</time>
      </trkpt>
      <trkpt lat="46.76788" lon="5.6142">
        <ele>309</ele>
        <time>2022-03-09T13:23:16Z</time>
      </trkpt>
      <trkpt lat="46.76781" lon="5.61414">
        <ele>308.4</ele>
        <time>2022-03-09T13:23:17Z</time>
      </trkpt>
      <trkpt lat="46.76773" lon="5.6141">
        <ele>307.8</ele>
        <time>2022-03-09T13:23:18Z</time>
      </trkpt>
      <trkpt lat="46.76764" lon="5.61408">
        <ele>307.2</ele>
        <time>2022-03-09T13:23:19Z</time>
      </trkpt>
      <trkpt lat="46.76757" lon="5.61409">
        <ele>306.6</ele>
        <time>2022-03-09T13:23:20Z</time>
      </trkpt>
      <trkpt lat="46.76749" lon="5.61413">
        <ele>306.2</ele>
        <time>2022-03-09T13:23:21Z</time>
      </trkpt>
      <trkpt lat="46.76743" lon="5.6142">
        <ele>305.6</ele>
        <time>2022-03-09T13:23:22Z</time>
      </trkpt>
      <trkpt lat="46.76739" lon="5.61429">
        <ele>305.2</ele>
        <time>2022-03-09T13:23:23Z</time>
      </trkpt>
      <trkpt lat="46.76736" lon="5.6144">
        <ele>304.8</ele>
        <time>2022-03-09T13:23:24Z</time>
      </trkpt>
      <trkpt lat="46.76734" lon="5.61452">
        <ele>304.4</ele>
        <time>2022-03-09T13:23:25Z</time>
      </trkpt>
      <trkpt lat="46.76733" lon="5.61465">
        <ele>304</ele>
        <time>2022-03-09T13:23:26Z</time>
      </trkpt>
      <trkpt lat="46.76731" lon="5.61477">
        <ele>303.4</ele>
        <time>2022-03-09T13:23:27Z</time>
      </trkpt>
      <trkpt lat="46.76728" lon="5.61489">
        <ele>303</ele>
        <time>2022-03-09T13:23:28Z</time>
      </trkpt>
      <trkpt lat="46.76724" lon="5.615">
        <ele>302.4</ele>
        <time>2022-03-09T13:23:29Z</time>
      </trkpt>
      <trkpt lat="46.76719" lon="5.61509">
        <ele>302</ele>
        <time>2022-03-09T13:23:30Z</time>
      </trkpt>
      <trkpt lat="46.76712" lon="5.61515">
        <ele>301.4</ele>
        <time>2022-03-09T13:23:31Z</time>
      </trkpt>
      <trkpt lat="46.76704" lon="5.61519">
        <ele>301</ele>
        <time>2022-03-09T13:23:32Z</time>
      </trkpt>
      <trkpt lat="46.76695" lon="5.6152">
        <ele>300.4</ele>
        <time>2022-03-09T13:23:33Z</time>
      </trkpt>
      <trkpt lat="46.76686" lon="5.61518">
        <ele>299.8</ele>
        <time>2022-03-09T13:23:34Z</time>
      </trkpt>
      <trkpt lat="46.76675" lon="5.61514">
        <ele>299.4</ele>
        <time>2022-03-09T13:23:35Z</time>
      </trkpt>
      <trkpt lat="46.76666" lon="5.6151">
        <ele>299</ele>
        <time>2022-03-09T13:23:36Z</time>
      </trkpt>
      <trkpt lat="46.76656" lon="5.61506">
        <ele>298.4</ele>
        <time>2022-03-09T13:23:37Z</time>
      </trkpt>
      <trkpt lat="46.76646" lon="5.61501">
        <ele>298</ele>
        <time>2022-03-09T13:23:38Z</time>
      </trkpt>
      <trkpt lat="46.76636" lon="5.61496">
        <ele>297.4</ele>
        <time>2022-03-09T13:23:39Z</time>
      </trkpt>
      <trkpt lat="46.76626" lon="5.6149">
        <ele>296.8</ele>
        <time>2022-03-09T13:23:40Z</time>
      </trkpt>
      <trkpt lat="46.76617" lon="5.61483">
        <ele>296.2</ele>
        <time>2022-03-09T13:23:41Z</time>
      </trkpt>
      <trkpt lat="46.76608" lon="5.61475">
        <ele>295.6</ele>
        <time>2022-03-09T13:23:42Z</time>
      </trkpt>
      <trkpt lat="46.766" lon="5.61468">
        <ele>295.2</ele>
        <time>2022-03-09T13:23:43Z</time>
      </trkpt>
      <trkpt lat="46.7659" lon="5.61462">
        <ele>294.6</ele>
        <time>2022-03-09T13:23:44Z</time>
      </trkpt>
      <trkpt lat="46.7658" lon="5.61458">
        <ele>294</ele>
        <time>2022-03-09T13:23:45Z</time>
      </trkpt>
      <trkpt lat="46.7657" lon="5.61454">
        <ele>293.4</ele>
        <time>2022-03-09T13:23:46Z</time>
      </trkpt>
      <trkpt lat="46.76558" lon="5.61452">
        <ele>293</ele>
        <time>2022-03-09T13:23:47Z</time>
      </trkpt>
      <trkpt lat="46.76548" lon="5.61452">
        <ele>292.4</ele>
        <time>2022-03-09T13:23:48Z</time>
      </trkpt>
      <trkpt lat="46.76536" lon="5.61452">
        <ele>291.8</ele>
        <time>2022-03-09T13:23:49Z</time>
      </trkpt>
      <trkpt lat="46.76525" lon="5.6145">
        <ele>291.2</ele>
        <time>2022-03-09T13:23:50Z</time>
      </trkpt>
      <trkpt lat="46.76514" lon="5.61445">
        <ele>290.6</ele>
        <time>2022-03-09T13:23:51Z</time>
      </trkpt>
      <trkpt lat="46.76503" lon="5.61436">
        <ele>290</ele>
        <time>2022-03-09T13:23:52Z</time>
      </trkpt>
      <trkpt lat="46.76494" lon="5.61425">
        <ele>289.4</ele>
        <time>2022-03-09T13:23:53Z</time>
      </trkpt>
      <trkpt lat="46.76487" lon="5.61411">
        <ele>288.6</ele>
        <time>2022-03-09T13:23:54Z</time>
      </trkpt>
      <trkpt lat="46.76482" lon="5.61396">
        <ele>288</ele>
        <time>2022-03-09T13:23:55Z</time>
      </trkpt>
      <trkpt lat="46.76477" lon="5.61381">
        <ele>287.4</ele>
        <time>2022-03-09T13:23:56Z</time>
      </trkpt>
      <trkpt lat="46.76472" lon="5.61366">
        <ele>287</ele>
        <time>2022-03-09T13:23:57Z</time>
      </trkpt>
      <trkpt lat="46.76468" lon="5.61352">
        <ele>286.6</ele>
        <time>2022-03-09T13:23:58Z</time>
      </trkpt>
      <trkpt lat="46.76462" lon="5.6134">
        <ele>286</ele>
        <time>2022-03-09T13:23:59Z</time>
      </trkpt>
      <trkpt lat="46.76456" lon="5.6133">
        <ele>285.4</ele>
        <time>2022-03-09T13:24:00Z</time>
      </trkpt>
      <trkpt lat="46.76448" lon="5.61321">
        <ele>285</ele>
        <time>2022-03-09T13:24:01Z</time>
      </trkpt>
      <trkpt lat="46.76439" lon="5.61314">
        <ele>284.4</ele>
        <time>2022-03-09T13:24:02Z</time>
      </trkpt>
      <trkpt lat="46.7643" lon="5.61309">
        <ele>283.8</ele>
        <time>2022-03-09T13:24:03Z</time>
      </trkpt>
      <trkpt lat="46.7642" lon="5.61304">
        <ele>283.2</ele>
        <time>2022-03-09T13:24:04Z</time>
      </trkpt>
      <trkpt lat="46.7641" lon="5.613">
        <ele>282.8</ele>
        <time>2022-03-09T13:24:05Z</time>
      </trkpt>
      <trkpt lat="46.764" lon="5.61295">
        <ele>282.2</ele>
        <time>2022-03-09T13:24:06Z</time>
      </trkpt>
      <trkpt lat="46.7639" lon="5.6129">
        <ele>281.6</ele>
        <time>2022-03-09T13:24:07Z</time>
      </trkpt>
      <trkpt lat="46.76381" lon="5.61284">
        <ele>281</ele>
        <time>2022-03-09T13:24:08Z</time>
      </trkpt>
      <trkpt lat="46.76371" lon="5.61278">
        <ele>280.4</ele>
        <time>2022-03-09T13:24:09Z</time>
      </trkpt>
      <trkpt lat="46.76361" lon="5.61272">
        <ele>279.8</ele>
        <time>2022-03-09T13:24:10Z</time>
      </trkpt>
      <trkpt lat="46.76351" lon="5.61266">
        <ele>279.2</ele>
        <time>2022-03-09T13:24:11Z</time>
      </trkpt>
      <trkpt lat="46.76341" lon="5.6126">
        <ele>278.4</ele>
        <time>2022-03-09T13:24:12Z</time>
      </trkpt>
      <trkpt lat="46.7633" lon="5.61255">
        <ele>277.8</ele>
        <time>2022-03-09T13:24:13Z</time>
      </trkpt>
      <trkpt lat="46.7632" lon="5.61251">
        <ele>277</ele>
        <time>2022-03-09T13:24:14Z</time>
      </trkpt>
      <trkpt lat="46.76309" lon="5.61248">
        <ele>276.4</ele>
        <time>2022-03-09T13:24:15Z</time>
      </trkpt>
      <trkpt lat="46.76298" lon="5.61247">
        <ele>275.8</ele>
        <time>2022-03-09T13:24:16Z</time>
      </trkpt>
      <trkpt lat="46.76287" lon="5.61246">
        <ele>275.2</ele>
        <time>2022-03-09T13:24:17Z</time>
      </trkpt>
      <trkpt lat="46.76276" lon="5.61246">
        <ele>274.6</ele>
        <time>2022-03-09T13:24:18Z</time>
      </trkpt>
      <trkpt lat="46.76265" lon="5.61246">
        <ele>274</ele>
        <time>2022-03-09T13:24:19Z</time>
      </trkpt>
      <trkpt lat="46.76255" lon="5.61246">
        <ele>273.2</ele>
        <time>2022-03-09T13:24:20Z</time>
      </trkpt>
      <trkpt lat="46.76244" lon="5.61247">
        <ele>272.6</ele>
        <time>2022-03-09T13:24:21Z</time>
      </trkpt>
      <trkpt lat="46.76233" lon="5.61248">
        <ele>271.8</ele>
        <time>2022-03-09T13:24:22Z</time>
      </trkpt>
      <trkpt lat="46.76223" lon="5.6125">
        <ele>271.2</ele>
        <time>2022-03-09T13:24:23Z</time>
      </trkpt>
      <trkpt lat="46.76212" lon="5.61253">
        <ele>270.6</ele>
        <time>2022-03-09T13:24:24Z</time>
      </trkpt>
      <trkpt lat="46.76201" lon="5.61253">
        <ele>270</ele>
        <time>2022-03-09T13:24:25Z</time>
      </trkpt>
      <trkpt lat="46.7619" lon="5.61253">
        <ele>269.2</ele>
        <time>2022-03-09T13:24:26Z</time>
      </trkpt>
      <trkpt lat="46.76179" lon="5.61253">
        <ele>268.6</ele>
        <time>2022-03-09T13:24:27Z</time>
      </trkpt>
      <trkpt lat="46.76168" lon="5.61254">
        <ele>268</ele>
        <time>2022-03-09T13:24:28Z</time>
      </trkpt>
      <trkpt lat="46.76158" lon="5.61258">
        <ele>267.2</ele>
        <time>2022-03-09T13:24:29Z</time>
      </trkpt>
      <trkpt lat="46.76147" lon="5.61262">
        <ele>266.6</ele>
        <time>2022-03-09T13:24:30Z</time>
      </trkpt>
      <trkpt lat="46.76136" lon="5.61267">
        <ele>266</ele>
        <time>2022-03-09T13:24:31Z</time>
      </trkpt>
      <trkpt lat="46.76125" lon="5.61271">
        <ele>265.2</ele>
        <time>2022-03-09T13:24:32Z</time>
      </trkpt>
      <trkpt lat="46.76114" lon="5.61277">
        <ele>264.4</ele>
        <time>2022-03-09T13:24:33Z</time>
      </trkpt>
      <trkpt lat="46.76104" lon="5.61284">
        <ele>264.4</ele>
        <time>2022-03-09T13:24:34Z</time>
      </trkpt>
      <trkpt lat="46.76094" lon="5.61291">
        <ele>263.8</ele>
        <time>2022-03-09T13:24:35Z</time>
      </trkpt>
      <trkpt lat="46.76086" lon="5.61299">
        <ele>263.2</ele>
        <time>2022-03-09T13:24:36Z</time>
      </trkpt>
      <trkpt lat="46.76079" lon="5.6131">
        <ele>262.4</ele>
        <time>2022-03-09T13:24:37Z</time>
      </trkpt>
      <trkpt lat="46.76072" lon="5.61323">
        <ele>262</ele>
        <time>2022-03-09T13:24:38Z</time>
      </trkpt>
      <trkpt lat="46.76066" lon="5.61337">
        <ele>261.4</ele>
        <time>2022-03-09T13:24:39Z</time>
      </trkpt>
      <trkpt lat="46.76059" lon="5.6135">
        <ele>260.8</ele>
        <time>2022-03-09T13:24:40Z</time>
      </trkpt>
      <trkpt lat="46.76053" lon="5.61364">
        <ele>260.2</ele>
        <time>2022-03-09T13:24:41Z</time>
      </trkpt>
      <trkpt lat="46.76046" lon="5.61378">
        <ele>259.4</ele>
        <time>2022-03-09T13:24:42Z</time>
      </trkpt>
      <trkpt lat="46.76039" lon="5.61392">
        <ele>258.8</ele>
        <time>2022-03-09T13:24:43Z</time>
      </trkpt>
      <trkpt lat="46.76033" lon="5.61407">
        <ele>258</ele>
        <time>2022-03-09T13:24:44Z</time>
      </trkpt>
      <trkpt lat="46.76028" lon="5.61423">
        <ele>257.2</ele>
        <time>2022-03-09T13:24:45Z</time>
      </trkpt>
      <trkpt lat="46.76022" lon="5.61439">
        <ele>256.4</ele>
        <time>2022-03-09T13:24:46Z</time>
      </trkpt>
      <trkpt lat="46.76017" lon="5.61454">
        <ele>255.6</ele>
        <time>2022-03-09T13:24:47Z</time>
      </trkpt>
      <trkpt lat="46.76012" lon="5.61468">
        <ele>254.8</ele>
        <time>2022-03-09T13:24:48Z</time>
      </trkpt>
      <trkpt lat="46.76006" lon="5.61481">
        <ele>254</ele>
        <time>2022-03-09T13:24:49Z</time>
      </trkpt>
      <trkpt lat="46.75999" lon="5.61491">
        <ele>253.2</ele>
        <time>2022-03-09T13:24:50Z</time>
      </trkpt>
      <trkpt lat="46.7599" lon="5.61498">
        <ele>252.6</ele>
        <time>2022-03-09T13:24:51Z</time>
      </trkpt>
      <trkpt lat="46.7598" lon="5.61503">
        <ele>251.8</ele>
        <time>2022-03-09T13:24:52Z</time>
      </trkpt>
      <trkpt lat="46.7597" lon="5.61505">
        <ele>251.2</ele>
        <time>2022-03-09T13:24:53Z</time>
      </trkpt>
      <trkpt lat="46.7596" lon="5.61505">
        <ele>250.6</ele>
        <time>2022-03-09T13:24:54Z</time>
      </trkpt>
      <trkpt lat="46.7595" lon="5.61505">
        <ele>250</ele>
        <time>2022-03-09T13:24:55Z</time>
      </trkpt>
      <trkpt lat="46.7594" lon="5.61506">
        <ele>249.4</ele>
        <time>2022-03-09T13:24:56Z</time>
      </trkpt>
      <trkpt lat="46.75931" lon="5.61509">
        <ele>249</ele>
        <time>2022-03-09T13:24:57Z</time>
      </trkpt>
      <trkpt lat="46.75921" lon="5.61512">
        <ele>248.6</ele>
        <time>2022-03-09T13:24:58Z</time>
      </trkpt>
      <trkpt lat="46.75912" lon="5.61517">
        <ele>248.2</ele>
        <time>2022-03-09T13:24:59Z</time>
      </trkpt>
      <trkpt lat="46.75903" lon="5.61521">
        <ele>247.8</ele>
        <time>2022-03-09T13:25:00Z</time>
      </trkpt>
      <trkpt lat="46.75895" lon="5.61526">
        <ele>247.4</ele>
        <time>2022-03-09T13:25:01Z</time>
      </trkpt>
      <trkpt lat="46.75887" lon="5.61531">
        <ele>247.2</ele>
        <time>2022-03-09T13:25:02Z</time>
      </trkpt>
      <trkpt lat="46.75879" lon="5.61537">
        <ele>247</ele>
        <time>2022-03-09T13:25:03Z</time>
      </trkpt>
      <trkpt lat="46.75871" lon="5.61542">
        <ele>246.6</ele>
        <time>2022-03-09T13:25:04Z</time>
      </trkpt>
      <trkpt lat="46.75864" lon="5.61547">
        <ele>246.4</ele>
        <time>2022-03-09T13:25:05Z</time>
      </trkpt>
      <trkpt lat="46.75856" lon="5.61551">
        <ele>246.2</ele>
        <time>2022-03-09T13:25:06Z</time>
      </trkpt>
      <trkpt lat="46.75849" lon="5.61555">
        <ele>246.2</ele>
        <time>2022-03-09T13:25:07Z</time>
      </trkpt>
      <trkpt lat="46.75842" lon="5.61558">
        <ele>246</ele>
        <time>2022-03-09T13:25:08Z</time>
      </trkpt>
      <trkpt lat="46.75835" lon="5.61561">
        <ele>246</ele>
        <time>2022-03-09T13:25:09Z</time>
      </trkpt>
      <trkpt lat="46.75828" lon="5.61564">
        <ele>246</ele>
        <time>2022-03-09T13:25:10Z</time>
      </trkpt>
      <trkpt lat="46.75822" lon="5.61566">
        <ele>246</ele>
        <time>2022-03-09T13:25:11Z</time>
      </trkpt>
      <trkpt lat="46.75817" lon="5.61569">
        <ele>246</ele>
        <time>2022-03-09T13:25:12Z</time>
      </trkpt>
      <trkpt lat="46.75812" lon="5.61571">
        <ele>246</ele>
        <time>2022-03-09T13:25:13Z</time>
      </trkpt>
      <trkpt lat="46.75807" lon="5.61572">
        <ele>246</ele>
        <time>2022-03-09T13:25:14Z</time>
      </trkpt>
      <trkpt lat="46.75802" lon="5.61571">
        <ele>246</ele>
        <time>2022-03-09T13:25:15Z</time>
      </trkpt>
      <trkpt lat="46.75798" lon="5.61569">
        <ele>246</ele>
        <time>2022-03-09T13:25:16Z</time>
      </trkpt>
      <trkpt lat="46.75794" lon="5.61565">
        <ele>246.2</ele>
        <time>2022-03-09T13:25:17Z</time>
      </trkpt>
      <trkpt lat="46.7579" lon="5.61561">
        <ele>246.2</ele>
        <time>2022-03-09T13:25:18Z</time>
      </trkpt>
      <trkpt lat="46.75787" lon="5.61555">
        <ele>246.6</ele>
        <time>2022-03-09T13:25:19Z</time>
      </trkpt>
      <trkpt lat="46.75784" lon="5.61549">
        <ele>246.6</ele>
        <time>2022-03-09T13:25:20Z</time>
      </trkpt>
      <trkpt lat="46.75784" lon="5.61549">
        <ele>246.8</ele>
        <time>2022-03-09T13:25:21Z</time>
      </trkpt>
      <trkpt lat="46.75782" lon="5.61543">
        <ele>246.8</ele>
        <time>2022-03-09T13:25:22Z</time>
      </trkpt>
      <trkpt lat="46.75779" lon="5.61536">
        <ele>247.2</ele>
        <time>2022-03-09T13:25:23Z</time>
      </trkpt>
      <trkpt lat="46.75776" lon="5.6153">
        <ele>247.2</ele>
        <time>2022-03-09T13:25:24Z</time>
      </trkpt>
      <trkpt lat="46.75772" lon="5.61523">
        <ele>247.2</ele>
        <time>2022-03-09T13:25:25Z</time>
      </trkpt>
      <trkpt lat="46.75768" lon="5.61517">
        <ele>247.2</ele>
        <time>2022-03-09T13:25:26Z</time>
      </trkpt>
      <trkpt lat="46.75765" lon="5.6151">
        <ele>247.2</ele>
        <time>2022-03-09T13:25:27Z</time>
      </trkpt>
      <trkpt lat="46.75761" lon="5.61504">
        <ele>247.2</ele>
        <time>2022-03-09T13:25:28Z</time>
      </trkpt>
      <trkpt lat="46.75757" lon="5.61497">
        <ele>247.2</ele>
        <time>2022-03-09T13:25:29Z</time>
      </trkpt>
      <trkpt lat="46.75752" lon="5.61491">
        <ele>247.2</ele>
        <time>2022-03-09T13:25:30Z</time>
      </trkpt>
      <trkpt lat="46.75748" lon="5.61484">
        <ele>247.2</ele>
        <time>2022-03-09T13:25:31Z</time>
      </trkpt>
      <trkpt lat="46.75744" lon="5.61477">
        <ele>247.2</ele>
        <time>2022-03-09T13:25:32Z</time>
      </trkpt>
      <trkpt lat="46.7574" lon="5.6147">
        <ele>246.8</ele>
        <time>2022-03-09T13:25:33Z</time>
      </trkpt>
      <trkpt lat="46.75736" lon="5.61462">
        <ele>246.8</ele>
        <time>2022-03-09T13:25:34Z</time>
      </trkpt>
      <trkpt lat="46.75732" lon="5.61455">
        <ele>246.8</ele>
        <time>2022-03-09T13:25:35Z</time>
      </trkpt>
      <trkpt lat="46.75728" lon="5.61448">
        <ele>246.8</ele>
        <time>2022-03-09T13:25:36Z</time>
      </trkpt>
      <trkpt lat="46.75724" lon="5.61441">
        <ele>246.8</ele>
        <time>2022-03-09T13:25:37Z</time>
      </trkpt>
      <trkpt lat="46.7572" lon="5.61434">
        <ele>246.8</ele>
        <time>2022-03-09T13:25:38Z</time>
      </trkpt>
      <trkpt lat="46.75716" lon="5.61427">
        <ele>246.8</ele>
        <time>2022-03-09T13:25:39Z</time>
      </trkpt>
      <trkpt lat="46.75712" lon="5.6142">
        <ele>246.8</ele>
        <time>2022-03-09T13:25:40Z</time>
      </trkpt>
      <trkpt lat="46.75708" lon="5.61413">
        <ele>246.8</ele>
        <time>2022-03-09T13:25:41Z</time>
      </trkpt>
      <trkpt lat="46.75704" lon="5.61406">
        <ele>246.8</ele>
        <time>2022-03-09T13:25:42Z</time>
      </trkpt>
      <trkpt lat="46.757" lon="5.61399">
        <ele>246.8</ele>
        <time>2022-03-09T13:25:43Z</time>
      </trkpt>
      <trkpt lat="46.75696" lon="5.61392">
        <ele>246.8</ele>
        <time>2022-03-09T13:25:44Z</time>
      </trkpt>
      <trkpt lat="46.75693" lon="5.61385">
        <ele>246.8</ele>
        <time>2022-03-09T13:25:45Z</time>
      </trkpt>
      <trkpt lat="46.75686" lon="5.61372">
        <ele>246.8</ele>
        <time>2022-03-09T13:25:46Z</time>
      </trkpt>
      <trkpt lat="46.75682" lon="5.61365">
        <ele>246.8</ele>
        <time>2022-03-09T13:25:47Z</time>
      </trkpt>
      <trkpt lat="46.75679" lon="5.61359">
        <ele>246.8</ele>
        <time>2022-03-09T13:25:48Z</time>
      </trkpt>
      <trkpt lat="46.75676" lon="5.61352">
        <ele>247</ele>
        <time>2022-03-09T13:25:49Z</time>
      </trkpt>
      <trkpt lat="46.75672" lon="5.61346">
        <ele>247</ele>
        <time>2022-03-09T13:25:50Z</time>
      </trkpt>
      <trkpt lat="46.75669" lon="5.61339">
        <ele>247</ele>
        <time>2022-03-09T13:25:51Z</time>
      </trkpt>
      <trkpt lat="46.75666" lon="5.61333">
        <ele>247</ele>
        <time>2022-03-09T13:25:52Z</time>
      </trkpt>
      <trkpt lat="46.75662" lon="5.61327">
        <ele>247</ele>
        <time>2022-03-09T13:25:53Z</time>
      </trkpt>
      <trkpt lat="46.75659" lon="5.61321">
        <ele>247</ele>
        <time>2022-03-09T13:25:54Z</time>
      </trkpt>
      <trkpt lat="46.75655" lon="5.61316">
        <ele>247</ele>
        <time>2022-03-09T13:25:55Z</time>
      </trkpt>
      <trkpt lat="46.75651" lon="5.61311">
        <ele>247</ele>
        <time>2022-03-09T13:25:56Z</time>
      </trkpt>
      <trkpt lat="46.75647" lon="5.61306">
        <ele>247</ele>
        <time>2022-03-09T13:25:57Z</time>
      </trkpt>
      <trkpt lat="46.75643" lon="5.61301">
        <ele>247</ele>
        <time>2022-03-09T13:25:58Z</time>
      </trkpt>
      <trkpt lat="46.75639" lon="5.61295">
        <ele>247</ele>
        <time>2022-03-09T13:25:59Z</time>
      </trkpt>
      <trkpt lat="46.75636" lon="5.61291">
        <ele>247</ele>
        <time>2022-03-09T13:26:00Z</time>
      </trkpt>
      <trkpt lat="46.75632" lon="5.61286">
        <ele>247.2</ele>
        <time>2022-03-09T13:26:01Z</time>
      </trkpt>
      <trkpt lat="46.75628" lon="5.6128">
        <ele>247.2</ele>
        <time>2022-03-09T13:26:02Z</time>
      </trkpt>
      <trkpt lat="46.75625" lon="5.61275">
        <ele>247.6</ele>
        <time>2022-03-09T13:26:03Z</time>
      </trkpt>
      <trkpt lat="46.75621" lon="5.61269">
        <ele>247.6</ele>
        <time>2022-03-09T13:26:04Z</time>
      </trkpt>
      <trkpt lat="46.75617" lon="5.61264">
        <ele>247.6</ele>
        <time>2022-03-09T13:26:05Z</time>
      </trkpt>
      <trkpt lat="46.75613" lon="5.61259">
        <ele>247.6</ele>
        <time>2022-03-09T13:26:06Z</time>
      </trkpt>
      <trkpt lat="46.75609" lon="5.61254">
        <ele>247.6</ele>
        <time>2022-03-09T13:26:07Z</time>
      </trkpt>
      <trkpt lat="46.75605" lon="5.61249">
        <ele>247.8</ele>
        <time>2022-03-09T13:26:08Z</time>
      </trkpt>
      <trkpt lat="46.75601" lon="5.61244">
        <ele>247.8</ele>
        <time>2022-03-09T13:26:09Z</time>
      </trkpt>
      <trkpt lat="46.75597" lon="5.61238">
        <ele>247.8</ele>
        <time>2022-03-09T13:26:10Z</time>
      </trkpt>
      <trkpt lat="46.75593" lon="5.61233">
        <ele>248</ele>
        <time>2022-03-09T13:26:11Z</time>
      </trkpt>
      <trkpt lat="46.75589" lon="5.61228">
        <ele>248</ele>
        <time>2022-03-09T13:26:12Z</time>
      </trkpt>
      <trkpt lat="46.75585" lon="5.61223">
        <ele>248</ele>
        <time>2022-03-09T13:26:13Z</time>
      </trkpt>
      <trkpt lat="46.7558" lon="5.61219">
        <ele>248</ele>
        <time>2022-03-09T13:26:14Z</time>
      </trkpt>
      <trkpt lat="46.75576" lon="5.61214">
        <ele>248</ele>
        <time>2022-03-09T13:26:15Z</time>
      </trkpt>
      <trkpt lat="46.75572" lon="5.61209">
        <ele>248.2</ele>
        <time>2022-03-09T13:26:16Z</time>
      </trkpt>
      <trkpt lat="46.75568" lon="5.61204">
        <ele>248.2</ele>
        <time>2022-03-09T13:26:17Z</time>
      </trkpt>
      <trkpt lat="46.75564" lon="5.61199">
        <ele>248.2</ele>
        <time>2022-03-09T13:26:18Z</time>
      </trkpt>
      <trkpt lat="46.7556" lon="5.61194">
        <ele>248.2</ele>
        <time>2022-03-09T13:26:19Z</time>
      </trkpt>
      <trkpt lat="46.75556" lon="5.6119">
        <ele>248.4</ele>
        <time>2022-03-09T13:26:20Z</time>
      </trkpt>
      <trkpt lat="46.75552" lon="5.61185">
        <ele>248.4</ele>
        <time>2022-03-09T13:26:21Z</time>
      </trkpt>
      <trkpt lat="46.75549" lon="5.6118">
        <ele>248.4</ele>
        <time>2022-03-09T13:26:22Z</time>
      </trkpt>
      <trkpt lat="46.75547" lon="5.61176">
        <ele>248.4</ele>
        <time>2022-03-09T13:26:23Z</time>
      </trkpt>
      <trkpt lat="46.75543" lon="5.61171">
        <ele>248.4</ele>
        <time>2022-03-09T13:26:24Z</time>
      </trkpt>
      <trkpt lat="46.75539" lon="5.61167">
        <ele>248.4</ele>
        <time>2022-03-09T13:26:25Z</time>
      </trkpt>
      <trkpt lat="46.75535" lon="5.61163">
        <ele>248.6</ele>
        <time>2022-03-09T13:26:26Z</time>
      </trkpt>
      <trkpt lat="46.7553" lon="5.61158">
        <ele>248.6</ele>
        <time>2022-03-09T13:26:27Z</time>
      </trkpt>
      <trkpt lat="46.75526" lon="5.61152">
        <ele>248.6</ele>
        <time>2022-03-09T13:26:28Z</time>
      </trkpt>
      <trkpt lat="46.75522" lon="5.61146">
        <ele>248.6</ele>
        <time>2022-03-09T13:26:29Z</time>
      </trkpt>
      <trkpt lat="46.75517" lon="5.61141">
        <ele>248.6</ele>
        <time>2022-03-09T13:26:30Z</time>
      </trkpt>
      <trkpt lat="46.75513" lon="5.61135">
        <ele>248.6</ele>
        <time>2022-03-09T13:26:31Z</time>
      </trkpt>
      <trkpt lat="46.75508" lon="5.61129">
        <ele>248.6</ele>
        <time>2022-03-09T13:26:32Z</time>
      </trkpt>
      <trkpt lat="46.75504" lon="5.61123">
        <ele>248.6</ele>
        <time>2022-03-09T13:26:33Z</time>
      </trkpt>
      <trkpt lat="46.75499" lon="5.61117">
        <ele>248.6</ele>
        <time>2022-03-09T13:26:34Z</time>
      </trkpt>
      <trkpt lat="46.75494" lon="5.61112">
        <ele>248.6</ele>
        <time>2022-03-09T13:26:35Z</time>
      </trkpt>
      <trkpt lat="46.75489" lon="5.61106">
        <ele>248.6</ele>
        <time>2022-03-09T13:26:36Z</time>
      </trkpt>
      <trkpt lat="46.75485" lon="5.611">
        <ele>248.6</ele>
        <time>2022-03-09T13:26:37Z</time>
      </trkpt>
      <trkpt lat="46.7548" lon="5.61094">
        <ele>248.6</ele>
        <time>2022-03-09T13:26:38Z</time>
      </trkpt>
      <trkpt lat="46.75475" lon="5.61088">
        <ele>248.6</ele>
        <time>2022-03-09T13:26:39Z</time>
      </trkpt>
      <trkpt lat="46.7547" lon="5.61082">
        <ele>248.6</ele>
        <time>2022-03-09T13:26:40Z</time>
      </trkpt>
      <trkpt lat="46.75465" lon="5.61076">
        <ele>248.6</ele>
        <time>2022-03-09T13:26:41Z</time>
      </trkpt>
      <trkpt lat="46.7546" lon="5.6107">
        <ele>248.6</ele>
        <time>2022-03-09T13:26:42Z</time>
      </trkpt>
      <trkpt lat="46.75455" lon="5.61063">
        <ele>248.6</ele>
        <time>2022-03-09T13:26:43Z</time>
      </trkpt>
      <trkpt lat="46.7545" lon="5.61057">
        <ele>248.6</ele>
        <time>2022-03-09T13:26:44Z</time>
      </trkpt>
      <trkpt lat="46.75445" lon="5.61051">
        <ele>248.6</ele>
        <time>2022-03-09T13:26:45Z</time>
      </trkpt>
      <trkpt lat="46.7544" lon="5.61045">
        <ele>248.6</ele>
        <time>2022-03-09T13:26:46Z</time>
      </trkpt>
      <trkpt lat="46.75435" lon="5.61039">
        <ele>248.6</ele>
        <time>2022-03-09T13:26:47Z</time>
      </trkpt>
      <trkpt lat="46.7543" lon="5.61033">
        <ele>248.6</ele>
        <time>2022-03-09T13:26:48Z</time>
      </trkpt>
      <trkpt lat="46.75425" lon="5.61026">
        <ele>248.6</ele>
        <time>2022-03-09T13:26:49Z</time>
      </trkpt>
      <trkpt lat="46.7542" lon="5.6102">
        <ele>248.6</ele>
        <time>2022-03-09T13:26:50Z</time>
      </trkpt>
      <trkpt lat="46.75416" lon="5.61014">
        <ele>248.6</ele>
        <time>2022-03-09T13:26:51Z</time>
      </trkpt>
      <trkpt lat="46.75411" lon="5.61008">
        <ele>248.6</ele>
        <time>2022-03-09T13:26:52Z</time>
      </trkpt>
      <trkpt lat="46.75406" lon="5.61003">
        <ele>248.8</ele>
        <time>2022-03-09T13:26:53Z</time>
      </trkpt>
      <trkpt lat="46.75402" lon="5.60997">
        <ele>248.8</ele>
        <time>2022-03-09T13:26:54Z</time>
      </trkpt>
      <trkpt lat="46.75397" lon="5.60992">
        <ele>249.2</ele>
        <time>2022-03-09T13:26:55Z</time>
      </trkpt>
      <trkpt lat="46.75393" lon="5.60986">
        <ele>249.2</ele>
        <time>2022-03-09T13:26:56Z</time>
      </trkpt>
      <trkpt lat="46.75389" lon="5.60981">
        <ele>249.4</ele>
        <time>2022-03-09T13:26:57Z</time>
      </trkpt>
      <trkpt lat="46.75385" lon="5.60976">
        <ele>249.4</ele>
        <time>2022-03-09T13:26:58Z</time>
      </trkpt>
      <trkpt lat="46.75381" lon="5.60971">
        <ele>249.6</ele>
        <time>2022-03-09T13:26:59Z</time>
      </trkpt>
      <trkpt lat="46.75378" lon="5.60967">
        <ele>249.6</ele>
        <time>2022-03-09T13:27:00Z</time>
      </trkpt>
      <trkpt lat="46.75374" lon="5.60962">
        <ele>250</ele>
        <time>2022-03-09T13:27:01Z</time>
      </trkpt>
      <trkpt lat="46.75371" lon="5.60958">
        <ele>250.2</ele>
        <time>2022-03-09T13:27:02Z</time>
      </trkpt>
      <trkpt lat="46.75367" lon="5.60954">
        <ele>250.4</ele>
        <time>2022-03-09T13:27:03Z</time>
      </trkpt>
      <trkpt lat="46.75364" lon="5.60951">
        <ele>250.8</ele>
        <time>2022-03-09T13:27:04Z</time>
      </trkpt>
      <trkpt lat="46.7536" lon="5.60947">
        <ele>251</ele>
        <time>2022-03-09T13:27:05Z</time>
      </trkpt>
      <trkpt lat="46.75357" lon="5.60945">
        <ele>251.2</ele>
        <time>2022-03-09T13:27:06Z</time>
      </trkpt>
      <trkpt lat="46.75353" lon="5.60943">
        <ele>251.4</ele>
        <time>2022-03-09T13:27:07Z</time>
      </trkpt>
      <trkpt lat="46.7535" lon="5.60942">
        <ele>251.8</ele>
        <time>2022-03-09T13:27:08Z</time>
      </trkpt>
      <trkpt lat="46.75346" lon="5.60941">
        <ele>252</ele>
        <time>2022-03-09T13:27:09Z</time>
      </trkpt>
      <trkpt lat="46.75342" lon="5.60941">
        <ele>252.2</ele>
        <time>2022-03-09T13:27:10Z</time>
      </trkpt>
      <trkpt lat="46.75339" lon="5.60942">
        <ele>252.6</ele>
        <time>2022-03-09T13:27:11Z</time>
      </trkpt>
      <trkpt lat="46.75335" lon="5.60943">
        <ele>252.8</ele>
        <time>2022-03-09T13:27:12Z</time>
      </trkpt>
      <trkpt lat="46.75332" lon="5.60944">
        <ele>253.2</ele>
        <time>2022-03-09T13:27:13Z</time>
      </trkpt>
      <trkpt lat="46.75328" lon="5.60945">
        <ele>253.4</ele>
        <time>2022-03-09T13:27:14Z</time>
      </trkpt>
      <trkpt lat="46.75325" lon="5.60947">
        <ele>253.6</ele>
        <time>2022-03-09T13:27:15Z</time>
      </trkpt>
      <trkpt lat="46.75322" lon="5.60948">
        <ele>254</ele>
        <time>2022-03-09T13:27:16Z</time>
      </trkpt>
      <trkpt lat="46.75319" lon="5.6095">
        <ele>254.2</ele>
        <time>2022-03-09T13:27:17Z</time>
      </trkpt>
      <trkpt lat="46.75316" lon="5.60951">
        <ele>254.6</ele>
        <time>2022-03-09T13:27:18Z</time>
      </trkpt>
      <trkpt lat="46.75313" lon="5.60953">
        <ele>254.8</ele>
        <time>2022-03-09T13:27:19Z</time>
      </trkpt>
      <trkpt lat="46.7531" lon="5.60955">
        <ele>255.2</ele>
        <time>2022-03-09T13:27:20Z</time>
      </trkpt>
      <trkpt lat="46.75307" lon="5.60957">
        <ele>255.4</ele>
        <time>2022-03-09T13:27:21Z</time>
      </trkpt>
      <trkpt lat="46.75304" lon="5.60958">
        <ele>255.8</ele>
        <time>2022-03-09T13:27:22Z</time>
      </trkpt>
      <trkpt lat="46.75301" lon="5.6096">
        <ele>256</ele>
        <time>2022-03-09T13:27:23Z</time>
      </trkpt>
      <trkpt lat="46.75298" lon="5.60962">
        <ele>256.2</ele>
        <time>2022-03-09T13:27:24Z</time>
      </trkpt>
      <trkpt lat="46.75295" lon="5.60963">
        <ele>256.6</ele>
        <time>2022-03-09T13:27:25Z</time>
      </trkpt>
      <trkpt lat="46.75292" lon="5.60965">
        <ele>257</ele>
        <time>2022-03-09T13:27:26Z</time>
      </trkpt>
      <trkpt lat="46.75289" lon="5.60965">
        <ele>257.2</ele>
        <time>2022-03-09T13:27:27Z</time>
      </trkpt>
      <trkpt lat="46.75285" lon="5.60966">
        <ele>257.6</ele>
        <time>2022-03-09T13:27:28Z</time>
      </trkpt>
      <trkpt lat="46.75282" lon="5.60966">
        <ele>257.8</ele>
        <time>2022-03-09T13:27:29Z</time>
      </trkpt>
      <trkpt lat="46.75279" lon="5.60966">
        <ele>258</ele>
        <time>2022-03-09T13:27:30Z</time>
      </trkpt>
      <trkpt lat="46.75276" lon="5.60965">
        <ele>258.2</ele>
        <time>2022-03-09T13:27:31Z</time>
      </trkpt>
      <trkpt lat="46.75273" lon="5.60964">
        <ele>258.6</ele>
        <time>2022-03-09T13:27:32Z</time>
      </trkpt>
      <trkpt lat="46.7527" lon="5.60962">
        <ele>258.8</ele>
        <time>2022-03-09T13:27:33Z</time>
      </trkpt>
      <trkpt lat="46.75267" lon="5.6096">
        <ele>258.8</ele>
        <time>2022-03-09T13:27:34Z</time>
      </trkpt>
      <trkpt lat="46.75264" lon="5.60957">
        <ele>259.2</ele>
        <time>2022-03-09T13:27:35Z</time>
      </trkpt>
      <trkpt lat="46.75261" lon="5.60955">
        <ele>259.2</ele>
        <time>2022-03-09T13:27:36Z</time>
      </trkpt>
      <trkpt lat="46.75258" lon="5.60952">
        <ele>259.6</ele>
        <time>2022-03-09T13:27:37Z</time>
      </trkpt>
      <trkpt lat="46.75255" lon="5.60949">
        <ele>259.8</ele>
        <time>2022-03-09T13:27:38Z</time>
      </trkpt>
      <trkpt lat="46.75251" lon="5.60947">
        <ele>259.8</ele>
        <time>2022-03-09T13:27:39Z</time>
      </trkpt>
      <trkpt lat="46.75248" lon="5.60945">
        <ele>260.2</ele>
        <time>2022-03-09T13:27:40Z</time>
      </trkpt>
      <trkpt lat="46.75245" lon="5.60942">
        <ele>260.2</ele>
        <time>2022-03-09T13:27:41Z</time>
      </trkpt>
      <trkpt lat="46.75241" lon="5.6094">
        <ele>260.6</ele>
        <time>2022-03-09T13:27:42Z</time>
      </trkpt>
      <trkpt lat="46.75238" lon="5.60937">
        <ele>260.6</ele>
        <time>2022-03-09T13:27:43Z</time>
      </trkpt>
      <trkpt lat="46.75234" lon="5.60935">
        <ele>260.8</ele>
        <time>2022-03-09T13:27:44Z</time>
      </trkpt>
      <trkpt lat="46.75231" lon="5.60932">
        <ele>260.8</ele>
        <time>2022-03-09T13:27:45Z</time>
      </trkpt>
      <trkpt lat="46.75227" lon="5.60929">
        <ele>260.8</ele>
        <time>2022-03-09T13:27:46Z</time>
      </trkpt>
      <trkpt lat="46.75224" lon="5.60926">
        <ele>261.2</ele>
        <time>2022-03-09T13:27:47Z</time>
      </trkpt>
      <trkpt lat="46.7522" lon="5.60923">
        <ele>261.2</ele>
        <time>2022-03-09T13:27:48Z</time>
      </trkpt>
      <trkpt lat="46.75216" lon="5.6092">
        <ele>261.2</ele>
        <time>2022-03-09T13:27:49Z</time>
      </trkpt>
      <trkpt lat="46.75212" lon="5.60918">
        <ele>261.4</ele>
        <time>2022-03-09T13:27:50Z</time>
      </trkpt>
      <trkpt lat="46.75208" lon="5.60915">
        <ele>261.4</ele>
        <time>2022-03-09T13:27:51Z</time>
      </trkpt>
      <trkpt lat="46.75204" lon="5.60912">
        <ele>261.4</ele>
        <time>2022-03-09T13:27:52Z</time>
      </trkpt>
      <trkpt lat="46.752" lon="5.60909">
        <ele>261.8</ele>
        <time>2022-03-09T13:27:53Z</time>
      </trkpt>
      <trkpt lat="46.75196" lon="5.60905">
        <ele>261.8</ele>
        <time>2022-03-09T13:27:54Z</time>
      </trkpt>
      <trkpt lat="46.75192" lon="5.60902">
        <ele>261.8</ele>
        <time>2022-03-09T13:27:55Z</time>
      </trkpt>
      <trkpt lat="46.75188" lon="5.60899">
        <ele>262</ele>
        <time>2022-03-09T13:27:56Z</time>
      </trkpt>
      <trkpt lat="46.75183" lon="5.60896">
        <ele>262</ele>
        <time>2022-03-09T13:27:57Z</time>
      </trkpt>
      <trkpt lat="46.75179" lon="5.60892">
        <ele>262</ele>
        <time>2022-03-09T13:27:58Z</time>
      </trkpt>
      <trkpt lat="46.75174" lon="5.60889">
        <ele>262</ele>
        <time>2022-03-09T13:27:59Z</time>
      </trkpt>
      <trkpt lat="46.7517" lon="5.60885">
        <ele>262</ele>
        <time>2022-03-09T13:28:00Z</time>
      </trkpt>
      <trkpt lat="46.75165" lon="5.60882">
        <ele>262</ele>
        <time>2022-03-09T13:28:01Z</time>
      </trkpt>
      <trkpt lat="46.7516" lon="5.60878">
        <ele>262</ele>
        <time>2022-03-09T13:28:02Z</time>
      </trkpt>
      <trkpt lat="46.75155" lon="5.60875">
        <ele>262</ele>
        <time>2022-03-09T13:28:03Z</time>
      </trkpt>
      <trkpt lat="46.75151" lon="5.60871">
        <ele>262</ele>
        <time>2022-03-09T13:28:04Z</time>
      </trkpt>
      <trkpt lat="46.75146" lon="5.60868">
        <ele>262</ele>
        <time>2022-03-09T13:28:05Z</time>
      </trkpt>
      <trkpt lat="46.75141" lon="5.60864">
        <ele>262</ele>
        <time>2022-03-09T13:28:06Z</time>
      </trkpt>
      <trkpt lat="46.75136" lon="5.6086">
        <ele>262</ele>
        <time>2022-03-09T13:28:07Z</time>
      </trkpt>
      <trkpt lat="46.75131" lon="5.60856">
        <ele>262</ele>
        <time>2022-03-09T13:28:08Z</time>
      </trkpt>
      <trkpt lat="46.75126" lon="5.60852">
        <ele>262</ele>
        <time>2022-03-09T13:28:09Z</time>
      </trkpt>
      <trkpt lat="46.75121" lon="5.60849">
        <ele>262</ele>
        <time>2022-03-09T13:28:10Z</time>
      </trkpt>
      <trkpt lat="46.75116" lon="5.60846">
        <ele>262.2</ele>
        <time>2022-03-09T13:28:11Z</time>
      </trkpt>
      <trkpt lat="46.75111" lon="5.60842">
        <ele>262.2</ele>
        <time>2022-03-09T13:28:12Z</time>
      </trkpt>
      <trkpt lat="46.75106" lon="5.60838">
        <ele>262.2</ele>
        <time>2022-03-09T13:28:13Z</time>
      </trkpt>
      <trkpt lat="46.75101" lon="5.60835">
        <ele>262.4</ele>
        <time>2022-03-09T13:28:14Z</time>
      </trkpt>
      <trkpt lat="46.75097" lon="5.60831">
        <ele>262.4</ele>
        <time>2022-03-09T13:28:15Z</time>
      </trkpt>
      <trkpt lat="46.75092" lon="5.60827">
        <ele>262.4</ele>
        <time>2022-03-09T13:28:16Z</time>
      </trkpt>
      <trkpt lat="46.75087" lon="5.60823">
        <ele>262.8</ele>
        <time>2022-03-09T13:28:17Z</time>
      </trkpt>
      <trkpt lat="46.75083" lon="5.6082">
        <ele>262.8</ele>
        <time>2022-03-09T13:28:18Z</time>
      </trkpt>
      <trkpt lat="46.75078" lon="5.60816">
        <ele>262.8</ele>
        <time>2022-03-09T13:28:19Z</time>
      </trkpt>
      <trkpt lat="46.75073" lon="5.60813">
        <ele>262.8</ele>
        <time>2022-03-09T13:28:20Z</time>
      </trkpt>
      <trkpt lat="46.75069" lon="5.6081">
        <ele>263</ele>
        <time>2022-03-09T13:28:21Z</time>
      </trkpt>
      <trkpt lat="46.75064" lon="5.60806">
        <ele>263</ele>
        <time>2022-03-09T13:28:22Z</time>
      </trkpt>
      <trkpt lat="46.75059" lon="5.60803">
        <ele>263</ele>
        <time>2022-03-09T13:28:23Z</time>
      </trkpt>
      <trkpt lat="46.75054" lon="5.608">
        <ele>263.2</ele>
        <time>2022-03-09T13:28:24Z</time>
      </trkpt>
      <trkpt lat="46.7505" lon="5.60796">
        <ele>263.2</ele>
        <time>2022-03-09T13:28:25Z</time>
      </trkpt>
      <trkpt lat="46.75045" lon="5.60793">
        <ele>263.2</ele>
        <time>2022-03-09T13:28:26Z</time>
      </trkpt>
      <trkpt lat="46.7504" lon="5.60789">
        <ele>263.2</ele>
        <time>2022-03-09T13:28:27Z</time>
      </trkpt>
      <trkpt lat="46.75035" lon="5.60785">
        <ele>263.2</ele>
        <time>2022-03-09T13:28:28Z</time>
      </trkpt>
      <trkpt lat="46.7503" lon="5.60782">
        <ele>263.2</ele>
        <time>2022-03-09T13:28:29Z</time>
      </trkpt>
      <trkpt lat="46.75025" lon="5.60778">
        <ele>263.2</ele>
        <time>2022-03-09T13:28:30Z</time>
      </trkpt>
      <trkpt lat="46.7502" lon="5.60775">
        <ele>263.2</ele>
        <time>2022-03-09T13:28:31Z</time>
      </trkpt>
      <trkpt lat="46.75015" lon="5.60771">
        <ele>263.2</ele>
        <time>2022-03-09T13:28:32Z</time>
      </trkpt>
      <trkpt lat="46.7501" lon="5.60767">
        <ele>263.2</ele>
        <time>2022-03-09T13:28:33Z</time>
      </trkpt>
      <trkpt lat="46.75005" lon="5.60763">
        <ele>263.2</ele>
        <time>2022-03-09T13:28:34Z</time>
      </trkpt>
      <trkpt lat="46.75" lon="5.60759">
        <ele>263.6</ele>
        <time>2022-03-09T13:28:35Z</time>
      </trkpt>
      <trkpt lat="46.74995" lon="5.60756">
        <ele>263.6</ele>
        <time>2022-03-09T13:28:36Z</time>
      </trkpt>
      <trkpt lat="46.7499" lon="5.60752">
        <ele>263.6</ele>
        <time>2022-03-09T13:28:37Z</time>
      </trkpt>
      <trkpt lat="46.74985" lon="5.60748">
        <ele>263.6</ele>
        <time>2022-03-09T13:28:38Z</time>
      </trkpt>
      <trkpt lat="46.7498" lon="5.60744">
        <ele>263.8</ele>
        <time>2022-03-09T13:28:39Z</time>
      </trkpt>
      <trkpt lat="46.74975" lon="5.60741">
        <ele>263.8</ele>
        <time>2022-03-09T13:28:40Z</time>
      </trkpt>
      <trkpt lat="46.7497" lon="5.60737">
        <ele>263.8</ele>
        <time>2022-03-09T13:28:41Z</time>
      </trkpt>
      <trkpt lat="46.74965" lon="5.60733">
        <ele>264</ele>
        <time>2022-03-09T13:28:42Z</time>
      </trkpt>
      <trkpt lat="46.7496" lon="5.6073">
        <ele>264</ele>
        <time>2022-03-09T13:28:43Z</time>
      </trkpt>
      <trkpt lat="46.74955" lon="5.60726">
        <ele>264</ele>
        <time>2022-03-09T13:28:44Z</time>
      </trkpt>
      <trkpt lat="46.7495" lon="5.60722">
        <ele>264.4</ele>
        <time>2022-03-09T13:28:45Z</time>
      </trkpt>
      <trkpt lat="46.74945" lon="5.60718">
        <ele>264.4</ele>
        <time>2022-03-09T13:28:46Z</time>
      </trkpt>
      <trkpt lat="46.7494" lon="5.60715">
        <ele>264.6</ele>
        <time>2022-03-09T13:28:47Z</time>
      </trkpt>
      <trkpt lat="46.74935" lon="5.60711">
        <ele>264.6</ele>
        <time>2022-03-09T13:28:48Z</time>
      </trkpt>
      <trkpt lat="46.74931" lon="5.60708">
        <ele>264.8</ele>
        <time>2022-03-09T13:28:49Z</time>
      </trkpt>
      <trkpt lat="46.74926" lon="5.60704">
        <ele>264.8</ele>
        <time>2022-03-09T13:28:50Z</time>
      </trkpt>
      <trkpt lat="46.74922" lon="5.60701">
        <ele>265.2</ele>
        <time>2022-03-09T13:28:51Z</time>
      </trkpt>
      <trkpt lat="46.74917" lon="5.60698">
        <ele>265.2</ele>
        <time>2022-03-09T13:28:52Z</time>
      </trkpt>
      <trkpt lat="46.74913" lon="5.60695">
        <ele>265.4</ele>
        <time>2022-03-09T13:28:53Z</time>
      </trkpt>
      <trkpt lat="46.74909" lon="5.60691">
        <ele>265.4</ele>
        <time>2022-03-09T13:28:54Z</time>
      </trkpt>
      <trkpt lat="46.74905" lon="5.60688">
        <ele>265.4</ele>
        <time>2022-03-09T13:28:55Z</time>
      </trkpt>
      <trkpt lat="46.749" lon="5.60685">
        <ele>265.6</ele>
        <time>2022-03-09T13:28:56Z</time>
      </trkpt>
      <trkpt lat="46.74896" lon="5.60682">
        <ele>265.6</ele>
        <time>2022-03-09T13:28:57Z</time>
      </trkpt>
      <trkpt lat="46.74892" lon="5.60679">
        <ele>266</ele>
        <time>2022-03-09T13:28:58Z</time>
      </trkpt>
      <trkpt lat="46.74887" lon="5.60676">
        <ele>266</ele>
        <time>2022-03-09T13:28:59Z</time>
      </trkpt>
      <trkpt lat="46.74883" lon="5.60673">
        <ele>266.2</ele>
        <time>2022-03-09T13:29:00Z</time>
      </trkpt>
      <trkpt lat="46.74879" lon="5.6067">
        <ele>266.2</ele>
        <time>2022-03-09T13:29:01Z</time>
      </trkpt>
      <trkpt lat="46.74874" lon="5.60666">
        <ele>266.2</ele>
        <time>2022-03-09T13:29:02Z</time>
      </trkpt>
      <trkpt lat="46.7487" lon="5.60663">
        <ele>266.6</ele>
        <time>2022-03-09T13:29:03Z</time>
      </trkpt>
      <trkpt lat="46.74865" lon="5.60659">
        <ele>266.6</ele>
        <time>2022-03-09T13:29:04Z</time>
      </trkpt>
      <trkpt lat="46.74861" lon="5.60656">
        <ele>267</ele>
        <time>2022-03-09T13:29:05Z</time>
      </trkpt>
      <trkpt lat="46.74856" lon="5.60653">
        <ele>267</ele>
        <time>2022-03-09T13:29:06Z</time>
      </trkpt>
      <trkpt lat="46.74852" lon="5.60649">
        <ele>267</ele>
        <time>2022-03-09T13:29:07Z</time>
      </trkpt>
      <trkpt lat="46.74848" lon="5.60646">
        <ele>267.2</ele>
        <time>2022-03-09T13:29:08Z</time>
      </trkpt>
      <trkpt lat="46.74843" lon="5.60643">
        <ele>267.2</ele>
        <time>2022-03-09T13:29:09Z</time>
      </trkpt>
      <trkpt lat="46.74839" lon="5.60639">
        <ele>267.6</ele>
        <time>2022-03-09T13:29:10Z</time>
      </trkpt>
      <trkpt lat="46.74834" lon="5.60636">
        <ele>267.6</ele>
        <time>2022-03-09T13:29:11Z</time>
      </trkpt>
      <trkpt lat="46.7483" lon="5.60633">
        <ele>268</ele>
        <time>2022-03-09T13:29:12Z</time>
      </trkpt>
      <trkpt lat="46.74826" lon="5.6063">
        <ele>268.2</ele>
        <time>2022-03-09T13:29:13Z</time>
      </trkpt>
      <trkpt lat="46.74822" lon="5.60627">
        <ele>268.4</ele>
        <time>2022-03-09T13:29:14Z</time>
      </trkpt>
      <trkpt lat="46.74818" lon="5.60624">
        <ele>268.6</ele>
        <time>2022-03-09T13:29:15Z</time>
      </trkpt>
      <trkpt lat="46.74814" lon="5.60621">
        <ele>268.6</ele>
        <time>2022-03-09T13:29:16Z</time>
      </trkpt>
      <trkpt lat="46.7481" lon="5.60618">
        <ele>269</ele>
        <time>2022-03-09T13:29:17Z</time>
      </trkpt>
      <trkpt lat="46.74805" lon="5.60615">
        <ele>269</ele>
        <time>2022-03-09T13:29:18Z</time>
      </trkpt>
      <trkpt lat="46.74801" lon="5.60612">
        <ele>269.4</ele>
        <time>2022-03-09T13:29:19Z</time>
      </trkpt>
      <trkpt lat="46.74797" lon="5.60609">
        <ele>269.4</ele>
        <time>2022-03-09T13:29:20Z</time>
      </trkpt>
      <trkpt lat="46.74793" lon="5.60606">
        <ele>269.6</ele>
        <time>2022-03-09T13:29:21Z</time>
      </trkpt>
      <trkpt lat="46.74789" lon="5.60603">
        <ele>269.6</ele>
        <time>2022-03-09T13:29:22Z</time>
      </trkpt>
      <trkpt lat="46.74785" lon="5.606">
        <ele>270</ele>
        <time>2022-03-09T13:29:23Z</time>
      </trkpt>
      <trkpt lat="46.74781" lon="5.60596">
        <ele>270</ele>
        <time>2022-03-09T13:29:24Z</time>
      </trkpt>
      <trkpt lat="46.74777" lon="5.60593">
        <ele>270.4</ele>
        <time>2022-03-09T13:29:25Z</time>
      </trkpt>
      <trkpt lat="46.74773" lon="5.6059">
        <ele>270.4</ele>
        <time>2022-03-09T13:29:26Z</time>
      </trkpt>
      <trkpt lat="46.74769" lon="5.60587">
        <ele>270.8</ele>
        <time>2022-03-09T13:29:27Z</time>
      </trkpt>
      <trkpt lat="46.74765" lon="5.60584">
        <ele>270.8</ele>
        <time>2022-03-09T13:29:28Z</time>
      </trkpt>
      <trkpt lat="46.74761" lon="5.60581">
        <ele>271</ele>
        <time>2022-03-09T13:29:29Z</time>
      </trkpt>
      <trkpt lat="46.74757" lon="5.60579">
        <ele>271</ele>
        <time>2022-03-09T13:29:30Z</time>
      </trkpt>
      <trkpt lat="46.74753" lon="5.60576">
        <ele>271</ele>
        <time>2022-03-09T13:29:31Z</time>
      </trkpt>
      <trkpt lat="46.74749" lon="5.60573">
        <ele>271.2</ele>
        <time>2022-03-09T13:29:32Z</time>
      </trkpt>
      <trkpt lat="46.74745" lon="5.6057">
        <ele>271.2</ele>
        <time>2022-03-09T13:29:33Z</time>
      </trkpt>
      <trkpt lat="46.74741" lon="5.60567">
        <ele>271.4</ele>
        <time>2022-03-09T13:29:34Z</time>
      </trkpt>
      <trkpt lat="46.74737" lon="5.60565">
        <ele>271.4</ele>
        <time>2022-03-09T13:29:35Z</time>
      </trkpt>
      <trkpt lat="46.74733" lon="5.60562">
        <ele>271.8</ele>
        <time>2022-03-09T13:29:36Z</time>
      </trkpt>
      <trkpt lat="46.74729" lon="5.60559">
        <ele>271.8</ele>
        <time>2022-03-09T13:29:37Z</time>
      </trkpt>
      <trkpt lat="46.74725" lon="5.60556">
        <ele>272</ele>
        <time>2022-03-09T13:29:38Z</time>
      </trkpt>
      <trkpt lat="46.74721" lon="5.60553">
        <ele>272</ele>
        <time>2022-03-09T13:29:39Z</time>
      </trkpt>
      <trkpt lat="46.74717" lon="5.6055">
        <ele>272.4</ele>
        <time>2022-03-09T13:29:40Z</time>
      </trkpt>
      <trkpt lat="46.74713" lon="5.60547">
        <ele>272.4</ele>
        <time>2022-03-09T13:29:41Z</time>
      </trkpt>
      <trkpt lat="46.74709" lon="5.60544">
        <ele>272.6</ele>
        <time>2022-03-09T13:29:42Z</time>
      </trkpt>
      <trkpt lat="46.74705" lon="5.60541">
        <ele>272.6</ele>
        <time>2022-03-09T13:29:43Z</time>
      </trkpt>
      <trkpt lat="46.74701" lon="5.60538">
        <ele>273</ele>
        <time>2022-03-09T13:29:44Z</time>
      </trkpt>
      <trkpt lat="46.74697" lon="5.60535">
        <ele>273</ele>
        <time>2022-03-09T13:29:45Z</time>
      </trkpt>
      <trkpt lat="46.74693" lon="5.60532">
        <ele>273.2</ele>
        <time>2022-03-09T13:29:46Z</time>
      </trkpt>
      <trkpt lat="46.74689" lon="5.60529">
        <ele>273.2</ele>
        <time>2022-03-09T13:29:47Z</time>
      </trkpt>
      <trkpt lat="46.74686" lon="5.60526">
        <ele>273.4</ele>
        <time>2022-03-09T13:29:48Z</time>
      </trkpt>
      <trkpt lat="46.74686" lon="5.60526">
        <ele>273.4</ele>
        <time>2022-03-09T13:29:49Z</time>
      </trkpt>
      <trkpt lat="46.74682" lon="5.60523">
        <ele>273.8</ele>
        <time>2022-03-09T13:29:50Z</time>
      </trkpt>
      <trkpt lat="46.74677" lon="5.6052">
        <ele>273.8</ele>
        <time>2022-03-09T13:29:51Z</time>
      </trkpt>
      <trkpt lat="46.74673" lon="5.60517">
        <ele>274</ele>
        <time>2022-03-09T13:29:52Z</time>
      </trkpt>
      <trkpt lat="46.74669" lon="5.60514">
        <ele>274</ele>
        <time>2022-03-09T13:29:53Z</time>
      </trkpt>
      <trkpt lat="46.74665" lon="5.6051">
        <ele>274.2</ele>
        <time>2022-03-09T13:29:54Z</time>
      </trkpt>
      <trkpt lat="46.74661" lon="5.60507">
        <ele>274.2</ele>
        <time>2022-03-09T13:29:55Z</time>
      </trkpt>
      <trkpt lat="46.74657" lon="5.60504">
        <ele>274.6</ele>
        <time>2022-03-09T13:29:56Z</time>
      </trkpt>
      <trkpt lat="46.74653" lon="5.605">
        <ele>274.6</ele>
        <time>2022-03-09T13:29:57Z</time>
      </trkpt>
      <trkpt lat="46.74649" lon="5.60497">
        <ele>274.8</ele>
        <time>2022-03-09T13:29:58Z</time>
      </trkpt>
      <trkpt lat="46.74645" lon="5.60494">
        <ele>274.8</ele>
        <time>2022-03-09T13:29:59Z</time>
      </trkpt>
      <trkpt lat="46.74641" lon="5.60491">
        <ele>275</ele>
        <time>2022-03-09T13:30:00Z</time>
      </trkpt>
      <trkpt lat="46.74637" lon="5.60487">
        <ele>275</ele>
        <time>2022-03-09T13:30:01Z</time>
      </trkpt>
      <trkpt lat="46.74633" lon="5.60484">
        <ele>275.4</ele>
        <time>2022-03-09T13:30:02Z</time>
      </trkpt>
      <trkpt lat="46.74629" lon="5.6048">
        <ele>275.4</ele>
        <time>2022-03-09T13:30:03Z</time>
      </trkpt>
      <trkpt lat="46.74626" lon="5.60476">
        <ele>275.8</ele>
        <time>2022-03-09T13:30:04Z</time>
      </trkpt>
      <trkpt lat="46.74622" lon="5.60472">
        <ele>275.8</ele>
        <time>2022-03-09T13:30:05Z</time>
      </trkpt>
      <trkpt lat="46.74618" lon="5.60468">
        <ele>275.8</ele>
        <time>2022-03-09T13:30:06Z</time>
      </trkpt>
      <trkpt lat="46.74614" lon="5.60464">
        <ele>275.8</ele>
        <time>2022-03-09T13:30:07Z</time>
      </trkpt>
      <trkpt lat="46.7461" lon="5.6046">
        <ele>275.8</ele>
        <time>2022-03-09T13:30:08Z</time>
      </trkpt>
      <trkpt lat="46.74606" lon="5.60456">
        <ele>276</ele>
        <time>2022-03-09T13:30:09Z</time>
      </trkpt>
      <trkpt lat="46.74602" lon="5.60452">
        <ele>276</ele>
        <time>2022-03-09T13:30:10Z</time>
      </trkpt>
      <trkpt lat="46.74598" lon="5.60447">
        <ele>276.2</ele>
        <time>2022-03-09T13:30:11Z</time>
      </trkpt>
      <trkpt lat="46.74594" lon="5.60443">
        <ele>276.2</ele>
        <time>2022-03-09T13:30:12Z</time>
      </trkpt>
      <trkpt lat="46.74591" lon="5.60438">
        <ele>276.6</ele>
        <time>2022-03-09T13:30:13Z</time>
      </trkpt>
      <trkpt lat="46.74583" lon="5.60429">
        <ele>276.6</ele>
        <time>2022-03-09T13:30:14Z</time>
      </trkpt>
      <trkpt lat="46.74579" lon="5.60424">
        <ele>276.8</ele>
        <time>2022-03-09T13:30:15Z</time>
      </trkpt>
      <trkpt lat="46.74575" lon="5.60419">
        <ele>276.8</ele>
        <time>2022-03-09T13:30:16Z</time>
      </trkpt>
      <trkpt lat="46.74571" lon="5.60415">
        <ele>277.2</ele>
        <time>2022-03-09T13:30:17Z</time>
      </trkpt>
      <trkpt lat="46.74567" lon="5.6041">
        <ele>277.2</ele>
        <time>2022-03-09T13:30:18Z</time>
      </trkpt>
      <trkpt lat="46.74563" lon="5.60405">
        <ele>277.4</ele>
        <time>2022-03-09T13:30:19Z</time>
      </trkpt>
      <trkpt lat="46.7456" lon="5.604">
        <ele>277.4</ele>
        <time>2022-03-09T13:30:20Z</time>
      </trkpt>
      <trkpt lat="46.74556" lon="5.60396">
        <ele>277.4</ele>
        <time>2022-03-09T13:30:21Z</time>
      </trkpt>
      <trkpt lat="46.74552" lon="5.60391">
        <ele>277.6</ele>
        <time>2022-03-09T13:30:22Z</time>
      </trkpt>
      <trkpt lat="46.74548" lon="5.60386">
        <ele>277.6</ele>
        <time>2022-03-09T13:30:23Z</time>
      </trkpt>
      <trkpt lat="46.74544" lon="5.60381">
        <ele>277.6</ele>
        <time>2022-03-09T13:30:24Z</time>
      </trkpt>
      <trkpt lat="46.7454" lon="5.60377">
        <ele>278</ele>
        <time>2022-03-09T13:30:25Z</time>
      </trkpt>
      <trkpt lat="46.74537" lon="5.60372">
        <ele>278</ele>
        <time>2022-03-09T13:30:26Z</time>
      </trkpt>
      <trkpt lat="46.74533" lon="5.60367">
        <ele>278</ele>
        <time>2022-03-09T13:30:27Z</time>
      </trkpt>
      <trkpt lat="46.74529" lon="5.60362">
        <ele>278.2</ele>
        <time>2022-03-09T13:30:28Z</time>
      </trkpt>
      <trkpt lat="46.74525" lon="5.60358">
        <ele>278.2</ele>
        <time>2022-03-09T13:30:29Z</time>
      </trkpt>
      <trkpt lat="46.74521" lon="5.60353">
        <ele>278.4</ele>
        <time>2022-03-09T13:30:30Z</time>
      </trkpt>
      <trkpt lat="46.74517" lon="5.60348">
        <ele>278.4</ele>
        <time>2022-03-09T13:30:31Z</time>
      </trkpt>
      <trkpt lat="46.74513" lon="5.60344">
        <ele>278.4</ele>
        <time>2022-03-09T13:30:32Z</time>
      </trkpt>
      <trkpt lat="46.7451" lon="5.60339">
        <ele>278.8</ele>
        <time>2022-03-09T13:30:33Z</time>
      </trkpt>
      <trkpt lat="46.74506" lon="5.60335">
        <ele>278.8</ele>
        <time>2022-03-09T13:30:34Z</time>
      </trkpt>
      <trkpt lat="46.74502" lon="5.6033">
        <ele>279</ele>
        <time>2022-03-09T13:30:35Z</time>
      </trkpt>
      <trkpt lat="46.74499" lon="5.60325">
        <ele>279</ele>
        <time>2022-03-09T13:30:36Z</time>
      </trkpt>
      <trkpt lat="46.74495" lon="5.60321">
        <ele>279</ele>
        <time>2022-03-09T13:30:37Z</time>
      </trkpt>
      <trkpt lat="46.74491" lon="5.60316">
        <ele>279.2</ele>
        <time>2022-03-09T13:30:38Z</time>
      </trkpt>
      <trkpt lat="46.74487" lon="5.60312">
        <ele>279.2</ele>
        <time>2022-03-09T13:30:39Z</time>
      </trkpt>
      <trkpt lat="46.74483" lon="5.60307">
        <ele>279.2</ele>
        <time>2022-03-09T13:30:40Z</time>
      </trkpt>
      <trkpt lat="46.74479" lon="5.60303">
        <ele>279.6</ele>
        <time>2022-03-09T13:30:41Z</time>
      </trkpt>
      <trkpt lat="46.74476" lon="5.60298">
        <ele>279.6</ele>
        <time>2022-03-09T13:30:42Z</time>
      </trkpt>
      <trkpt lat="46.74472" lon="5.60294">
        <ele>279.6</ele>
        <time>2022-03-09T13:30:43Z</time>
      </trkpt>
      <trkpt lat="46.74468" lon="5.60289">
        <ele>279.8</ele>
        <time>2022-03-09T13:30:44Z</time>
      </trkpt>
      <trkpt lat="46.74464" lon="5.60284">
        <ele>279.8</ele>
        <time>2022-03-09T13:30:45Z</time>
      </trkpt>
      <trkpt lat="46.7446" lon="5.6028">
        <ele>279.8</ele>
        <time>2022-03-09T13:30:46Z</time>
      </trkpt>
      <trkpt lat="46.74456" lon="5.60275">
        <ele>279.8</ele>
        <time>2022-03-09T13:30:47Z</time>
      </trkpt>
      <trkpt lat="46.74452" lon="5.60271">
        <ele>280.2</ele>
        <time>2022-03-09T13:30:48Z</time>
      </trkpt>
      <trkpt lat="46.74448" lon="5.60266">
        <ele>280.2</ele>
        <time>2022-03-09T13:30:49Z</time>
      </trkpt>
      <trkpt lat="46.74444" lon="5.60262">
        <ele>280.2</ele>
        <time>2022-03-09T13:30:50Z</time>
      </trkpt>
      <trkpt lat="46.7444" lon="5.60257">
        <ele>280.4</ele>
        <time>2022-03-09T13:30:51Z</time>
      </trkpt>
      <trkpt lat="46.74436" lon="5.60253">
        <ele>280.4</ele>
        <time>2022-03-09T13:30:52Z</time>
      </trkpt>
      <trkpt lat="46.74432" lon="5.60248">
        <ele>280.4</ele>
        <time>2022-03-09T13:30:53Z</time>
      </trkpt>
      <trkpt lat="46.74428" lon="5.60244">
        <ele>280.6</ele>
        <time>2022-03-09T13:30:54Z</time>
      </trkpt>
      <trkpt lat="46.74424" lon="5.60239">
        <ele>280.6</ele>
        <time>2022-03-09T13:30:55Z</time>
      </trkpt>
      <trkpt lat="46.74419" lon="5.60234">
        <ele>280.8</ele>
        <time>2022-03-09T13:30:56Z</time>
      </trkpt>
      <trkpt lat="46.74415" lon="5.6023">
        <ele>280.8</ele>
        <time>2022-03-09T13:30:57Z</time>
      </trkpt>
      <trkpt lat="46.74411" lon="5.60225">
        <ele>280.8</ele>
        <time>2022-03-09T13:30:58Z</time>
      </trkpt>
      <trkpt lat="46.74407" lon="5.6022">
        <ele>281</ele>
        <time>2022-03-09T13:30:59Z</time>
      </trkpt>
      <trkpt lat="46.74402" lon="5.60215">
        <ele>281</ele>
        <time>2022-03-09T13:31:00Z</time>
      </trkpt>
      <trkpt lat="46.74398" lon="5.6021">
        <ele>281.4</ele>
        <time>2022-03-09T13:31:01Z</time>
      </trkpt>
      <trkpt lat="46.74394" lon="5.60205">
        <ele>281.4</ele>
        <time>2022-03-09T13:31:02Z</time>
      </trkpt>
      <trkpt lat="46.74389" lon="5.602">
        <ele>281.6</ele>
        <time>2022-03-09T13:31:03Z</time>
      </trkpt>
      <trkpt lat="46.74385" lon="5.60195">
        <ele>281.6</ele>
        <time>2022-03-09T13:31:04Z</time>
      </trkpt>
      <trkpt lat="46.74381" lon="5.6019">
        <ele>281.6</ele>
        <time>2022-03-09T13:31:05Z</time>
      </trkpt>
      <trkpt lat="46.74377" lon="5.60185">
        <ele>281.8</ele>
        <time>2022-03-09T13:31:06Z</time>
      </trkpt>
      <trkpt lat="46.74372" lon="5.60181">
        <ele>281.8</ele>
        <time>2022-03-09T13:31:07Z</time>
      </trkpt>
      <trkpt lat="46.74368" lon="5.60176">
        <ele>281.8</ele>
        <time>2022-03-09T13:31:08Z</time>
      </trkpt>
      <trkpt lat="46.74364" lon="5.60171">
        <ele>281.8</ele>
        <time>2022-03-09T13:31:09Z</time>
      </trkpt>
      <trkpt lat="46.7436" lon="5.60167">
        <ele>281.8</ele>
        <time>2022-03-09T13:31:10Z</time>
      </trkpt>
      <trkpt lat="46.74355" lon="5.60162">
        <ele>282</ele>
        <time>2022-03-09T13:31:11Z</time>
      </trkpt>
      <trkpt lat="46.74351" lon="5.60157">
        <ele>282</ele>
        <time>2022-03-09T13:31:12Z</time>
      </trkpt>
      <trkpt lat="46.74347" lon="5.60152">
        <ele>282</ele>
        <time>2022-03-09T13:31:13Z</time>
      </trkpt>
      <trkpt lat="46.74343" lon="5.60147">
        <ele>282.4</ele>
        <time>2022-03-09T13:31:14Z</time>
      </trkpt>
      <trkpt lat="46.74339" lon="5.60142">
        <ele>282.4</ele>
        <time>2022-03-09T13:31:15Z</time>
      </trkpt>
      <trkpt lat="46.74334" lon="5.60138">
        <ele>282.4</ele>
        <time>2022-03-09T13:31:16Z</time>
      </trkpt>
      <trkpt lat="46.7433" lon="5.60133">
        <ele>282.4</ele>
        <time>2022-03-09T13:31:17Z</time>
      </trkpt>
      <trkpt lat="46.74326" lon="5.60128">
        <ele>282.6</ele>
        <time>2022-03-09T13:31:18Z</time>
      </trkpt>
      <trkpt lat="46.74322" lon="5.60124">
        <ele>282.6</ele>
        <time>2022-03-09T13:31:19Z</time>
      </trkpt>
      <trkpt lat="46.74318" lon="5.60119">
        <ele>282.6</ele>
        <time>2022-03-09T13:31:20Z</time>
      </trkpt>
      <trkpt lat="46.74313" lon="5.60115">
        <ele>282.6</ele>
        <time>2022-03-09T13:31:21Z</time>
      </trkpt>
      <trkpt lat="46.74309" lon="5.6011">
        <ele>282.6</ele>
        <time>2022-03-09T13:31:22Z</time>
      </trkpt>
      <trkpt lat="46.74305" lon="5.60106">
        <ele>283</ele>
        <time>2022-03-09T13:31:23Z</time>
      </trkpt>
      <trkpt lat="46.743" lon="5.60102">
        <ele>283</ele>
        <time>2022-03-09T13:31:24Z</time>
      </trkpt>
      <trkpt lat="46.74296" lon="5.60098">
        <ele>283</ele>
        <time>2022-03-09T13:31:25Z</time>
      </trkpt>
      <trkpt lat="46.74292" lon="5.60094">
        <ele>283</ele>
        <time>2022-03-09T13:31:26Z</time>
      </trkpt>
      <trkpt lat="46.74287" lon="5.60089">
        <ele>283.2</ele>
        <time>2022-03-09T13:31:27Z</time>
      </trkpt>
      <trkpt lat="46.74283" lon="5.60085">
        <ele>283.2</ele>
        <time>2022-03-09T13:31:28Z</time>
      </trkpt>
      <trkpt lat="46.74279" lon="5.60081">
        <ele>283.2</ele>
        <time>2022-03-09T13:31:29Z</time>
      </trkpt>
      <trkpt lat="46.74275" lon="5.60077">
        <ele>283.4</ele>
        <time>2022-03-09T13:31:30Z</time>
      </trkpt>
      <trkpt lat="46.7427" lon="5.60073">
        <ele>283.4</ele>
        <time>2022-03-09T13:31:31Z</time>
      </trkpt>
      <trkpt lat="46.74266" lon="5.60069">
        <ele>283.4</ele>
        <time>2022-03-09T13:31:32Z</time>
      </trkpt>
      <trkpt lat="46.74261" lon="5.60065">
        <ele>283.4</ele>
        <time>2022-03-09T13:31:33Z</time>
      </trkpt>
      <trkpt lat="46.74257" lon="5.60062">
        <ele>283.4</ele>
        <time>2022-03-09T13:31:34Z</time>
      </trkpt>
      <trkpt lat="46.74252" lon="5.60058">
        <ele>283.6</ele>
        <time>2022-03-09T13:31:35Z</time>
      </trkpt>
      <trkpt lat="46.74247" lon="5.60055">
        <ele>283.6</ele>
        <time>2022-03-09T13:31:36Z</time>
      </trkpt>
      <trkpt lat="46.74242" lon="5.60051">
        <ele>283.6</ele>
        <time>2022-03-09T13:31:37Z</time>
      </trkpt>
      <trkpt lat="46.74238" lon="5.60047">
        <ele>283.6</ele>
        <time>2022-03-09T13:31:38Z</time>
      </trkpt>
      <trkpt lat="46.74233" lon="5.60044">
        <ele>284</ele>
        <time>2022-03-09T13:31:39Z</time>
      </trkpt>
      <trkpt lat="46.74229" lon="5.6004">
        <ele>284</ele>
        <time>2022-03-09T13:31:40Z</time>
      </trkpt>
      <trkpt lat="46.74225" lon="5.60036">
        <ele>284</ele>
        <time>2022-03-09T13:31:41Z</time>
      </trkpt>
      <trkpt lat="46.74221" lon="5.60033">
        <ele>284</ele>
        <time>2022-03-09T13:31:42Z</time>
      </trkpt>
      <trkpt lat="46.74217" lon="5.60031">
        <ele>284</ele>
        <time>2022-03-09T13:31:43Z</time>
      </trkpt>
      <trkpt lat="46.74213" lon="5.60031">
        <ele>284</ele>
        <time>2022-03-09T13:31:44Z</time>
      </trkpt>
      <trkpt lat="46.7421" lon="5.60034">
        <ele>284</ele>
        <time>2022-03-09T13:31:45Z</time>
      </trkpt>
      <trkpt lat="46.74207" lon="5.60037">
        <ele>284.2</ele>
        <time>2022-03-09T13:31:46Z</time>
      </trkpt>
      <trkpt lat="46.74206" lon="5.6004">
        <ele>284.6</ele>
        <time>2022-03-09T13:31:47Z</time>
      </trkpt>
      <trkpt lat="46.74204" lon="5.60043">
        <ele>285</ele>
        <time>2022-03-09T13:31:48Z</time>
      </trkpt>
      <trkpt lat="46.74202" lon="5.60047">
        <ele>285.2</ele>
        <time>2022-03-09T13:31:49Z</time>
      </trkpt>
      <trkpt lat="46.742" lon="5.6005">
        <ele>285.6</ele>
        <time>2022-03-09T13:31:50Z</time>
      </trkpt>
      <trkpt lat="46.74199" lon="5.60054">
        <ele>285.8</ele>
        <time>2022-03-09T13:31:51Z</time>
      </trkpt>
      <trkpt lat="46.74197" lon="5.60058">
        <ele>286</ele>
        <time>2022-03-09T13:31:52Z</time>
      </trkpt>
      <trkpt lat="46.74195" lon="5.60062">
        <ele>286.4</ele>
        <time>2022-03-09T13:31:53Z</time>
      </trkpt>
      <trkpt lat="46.74193" lon="5.60065">
        <ele>286.6</ele>
        <time>2022-03-09T13:31:54Z</time>
      </trkpt>
      <trkpt lat="46.74192" lon="5.60069">
        <ele>287</ele>
        <time>2022-03-09T13:31:55Z</time>
      </trkpt>
      <trkpt lat="46.7419" lon="5.60072">
        <ele>287.2</ele>
        <time>2022-03-09T13:31:56Z</time>
      </trkpt>
      <trkpt lat="46.74188" lon="5.60076">
        <ele>287.6</ele>
        <time>2022-03-09T13:31:57Z</time>
      </trkpt>
      <trkpt lat="46.74186" lon="5.6008">
        <ele>287.8</ele>
        <time>2022-03-09T13:31:58Z</time>
      </trkpt>
      <trkpt lat="46.74185" lon="5.60083">
        <ele>288</ele>
        <time>2022-03-09T13:31:59Z</time>
      </trkpt>
      <trkpt lat="46.74184" lon="5.60087">
        <ele>288.2</ele>
        <time>2022-03-09T13:32:00Z</time>
      </trkpt>
      <trkpt lat="46.74182" lon="5.6009">
        <ele>288.6</ele>
        <time>2022-03-09T13:32:01Z</time>
      </trkpt>
      <trkpt lat="46.7418" lon="5.60093">
        <ele>289</ele>
        <time>2022-03-09T13:32:02Z</time>
      </trkpt>
      <trkpt lat="46.74179" lon="5.60097">
        <ele>289.2</ele>
        <time>2022-03-09T13:32:03Z</time>
      </trkpt>
      <trkpt lat="46.74177" lon="5.601">
        <ele>289.4</ele>
        <time>2022-03-09T13:32:04Z</time>
      </trkpt>
      <trkpt lat="46.74176" lon="5.60103">
        <ele>289.8</ele>
        <time>2022-03-09T13:32:05Z</time>
      </trkpt>
      <trkpt lat="46.74175" lon="5.60107">
        <ele>290.2</ele>
        <time>2022-03-09T13:32:06Z</time>
      </trkpt>
      <trkpt lat="46.74174" lon="5.6011">
        <ele>290.4</ele>
        <time>2022-03-09T13:32:07Z</time>
      </trkpt>
      <trkpt lat="46.74173" lon="5.60113">
        <ele>290.6</ele>
        <time>2022-03-09T13:32:08Z</time>
      </trkpt>
      <trkpt lat="46.74171" lon="5.60116">
        <ele>291</ele>
        <time>2022-03-09T13:32:09Z</time>
      </trkpt>
      <trkpt lat="46.7417" lon="5.60119">
        <ele>291.2</ele>
        <time>2022-03-09T13:32:10Z</time>
      </trkpt>
      <trkpt lat="46.74169" lon="5.60122">
        <ele>291.4</ele>
        <time>2022-03-09T13:32:11Z</time>
      </trkpt>
      <trkpt lat="46.74167" lon="5.60125">
        <ele>291.8</ele>
        <time>2022-03-09T13:32:12Z</time>
      </trkpt>
      <trkpt lat="46.74167" lon="5.60128">
        <ele>292</ele>
        <time>2022-03-09T13:32:13Z</time>
      </trkpt>
      <trkpt lat="46.74166" lon="5.60131">
        <ele>292.2</ele>
        <time>2022-03-09T13:32:14Z</time>
      </trkpt>
      <trkpt lat="46.74165" lon="5.60134">
        <ele>292.4</ele>
        <time>2022-03-09T13:32:15Z</time>
      </trkpt>
      <trkpt lat="46.74163" lon="5.60137">
        <ele>292.8</ele>
        <time>2022-03-09T13:32:16Z</time>
      </trkpt>
      <trkpt lat="46.74162" lon="5.6014">
        <ele>293</ele>
        <time>2022-03-09T13:32:17Z</time>
      </trkpt>
      <trkpt lat="46.7416" lon="5.60143">
        <ele>293</ele>
        <time>2022-03-09T13:32:18Z</time>
      </trkpt>
      <trkpt lat="46.74159" lon="5.60146">
        <ele>293.4</ele>
        <time>2022-03-09T13:32:19Z</time>
      </trkpt>
      <trkpt lat="46.74158" lon="5.60149">
        <ele>293.6</ele>
        <time>2022-03-09T13:32:20Z</time>
      </trkpt>
      <trkpt lat="46.74157" lon="5.60152">
        <ele>293.8</ele>
        <time>2022-03-09T13:32:21Z</time>
      </trkpt>
      <trkpt lat="46.74156" lon="5.60155">
        <ele>294.2</ele>
        <time>2022-03-09T13:32:22Z</time>
      </trkpt>
      <trkpt lat="46.74155" lon="5.60157">
        <ele>294.4</ele>
        <time>2022-03-09T13:32:23Z</time>
      </trkpt>
      <trkpt lat="46.74153" lon="5.6016">
        <ele>294.6</ele>
        <time>2022-03-09T13:32:24Z</time>
      </trkpt>
      <trkpt lat="46.74153" lon="5.60163">
        <ele>294.6</ele>
        <time>2022-03-09T13:32:25Z</time>
      </trkpt>
      <trkpt lat="46.74152" lon="5.60166">
        <ele>295.2</ele>
        <time>2022-03-09T13:32:26Z</time>
      </trkpt>
      <trkpt lat="46.74151" lon="5.60169">
        <ele>295.4</ele>
        <time>2022-03-09T13:32:27Z</time>
      </trkpt>
      <trkpt lat="46.7415" lon="5.60173">
        <ele>295.6</ele>
        <time>2022-03-09T13:32:28Z</time>
      </trkpt>
      <trkpt lat="46.7415" lon="5.60176">
        <ele>296</ele>
        <time>2022-03-09T13:32:29Z</time>
      </trkpt>
      <trkpt lat="46.74148" lon="5.60179">
        <ele>296.2</ele>
        <time>2022-03-09T13:32:30Z</time>
      </trkpt>
      <trkpt lat="46.74147" lon="5.60181">
        <ele>296.4</ele>
        <time>2022-03-09T13:32:31Z</time>
      </trkpt>
      <trkpt lat="46.74145" lon="5.60183">
        <ele>296.4</ele>
        <time>2022-03-09T13:32:32Z</time>
      </trkpt>
      <trkpt lat="46.74143" lon="5.60185">
        <ele>296.8</ele>
        <time>2022-03-09T13:32:33Z</time>
      </trkpt>
      <trkpt lat="46.74141" lon="5.60186">
        <ele>297</ele>
        <time>2022-03-09T13:32:34Z</time>
      </trkpt>
      <trkpt lat="46.74139" lon="5.60186">
        <ele>297.2</ele>
        <time>2022-03-09T13:32:35Z</time>
      </trkpt>
      <trkpt lat="46.74137" lon="5.60186">
        <ele>297.4</ele>
        <time>2022-03-09T13:32:36Z</time>
      </trkpt>
      <trkpt lat="46.74135" lon="5.60185">
        <ele>297.6</ele>
        <time>2022-03-09T13:32:37Z</time>
      </trkpt>
      <trkpt lat="46.74133" lon="5.60185">
        <ele>298</ele>
        <time>2022-03-09T13:32:38Z</time>
      </trkpt>
      <trkpt lat="46.74131" lon="5.60185">
        <ele>298.2</ele>
        <time>2022-03-09T13:32:39Z</time>
      </trkpt>
      <trkpt lat="46.74129" lon="5.60185">
        <ele>298.4</ele>
        <time>2022-03-09T13:32:40Z</time>
      </trkpt>
      <trkpt lat="46.74127" lon="5.60185">
        <ele>298.8</ele>
        <time>2022-03-09T13:32:41Z</time>
      </trkpt>
      <trkpt lat="46.74124" lon="5.60185">
        <ele>299</ele>
        <time>2022-03-09T13:32:42Z</time>
      </trkpt>
      <trkpt lat="46.74122" lon="5.60185">
        <ele>299.2</ele>
        <time>2022-03-09T13:32:43Z</time>
      </trkpt>
      <trkpt lat="46.7412" lon="5.60184">
        <ele>299.6</ele>
        <time>2022-03-09T13:32:44Z</time>
      </trkpt>
      <trkpt lat="46.74118" lon="5.60183">
        <ele>299.8</ele>
        <time>2022-03-09T13:32:45Z</time>
      </trkpt>
      <trkpt lat="46.74116" lon="5.60181">
        <ele>299.8</ele>
        <time>2022-03-09T13:32:46Z</time>
      </trkpt>
      <trkpt lat="46.74113" lon="5.6018">
        <ele>300.2</ele>
        <time>2022-03-09T13:32:47Z</time>
      </trkpt>
      <trkpt lat="46.7411" lon="5.60179">
        <ele>300.2</ele>
        <time>2022-03-09T13:32:48Z</time>
      </trkpt>
      <trkpt lat="46.74108" lon="5.60177">
        <ele>300.2</ele>
        <time>2022-03-09T13:32:49Z</time>
      </trkpt>
      <trkpt lat="46.74105" lon="5.60176">
        <ele>300.4</ele>
        <time>2022-03-09T13:32:50Z</time>
      </trkpt>
      <trkpt lat="46.74102" lon="5.60175">
        <ele>300.4</ele>
        <time>2022-03-09T13:32:51Z</time>
      </trkpt>
      <trkpt lat="46.74099" lon="5.60174">
        <ele>300.8</ele>
        <time>2022-03-09T13:32:52Z</time>
      </trkpt>
      <trkpt lat="46.74096" lon="5.60173">
        <ele>300.8</ele>
        <time>2022-03-09T13:32:53Z</time>
      </trkpt>
      <trkpt lat="46.74093" lon="5.60171">
        <ele>301</ele>
        <time>2022-03-09T13:32:54Z</time>
      </trkpt>
      <trkpt lat="46.7409" lon="5.6017">
        <ele>301</ele>
        <time>2022-03-09T13:32:55Z</time>
      </trkpt>
      <trkpt lat="46.74087" lon="5.60169">
        <ele>301.2</ele>
        <time>2022-03-09T13:32:56Z</time>
      </trkpt>
      <trkpt lat="46.74083" lon="5.60168">
        <ele>301.2</ele>
        <time>2022-03-09T13:32:57Z</time>
      </trkpt>
      <trkpt lat="46.7408" lon="5.60166">
        <ele>301.4</ele>
        <time>2022-03-09T13:32:58Z</time>
      </trkpt>
      <trkpt lat="46.74076" lon="5.60165">
        <ele>301.4</ele>
        <time>2022-03-09T13:32:59Z</time>
      </trkpt>
      <trkpt lat="46.74073" lon="5.60164">
        <ele>301.6</ele>
        <time>2022-03-09T13:33:00Z</time>
      </trkpt>
      <trkpt lat="46.74069" lon="5.60163">
        <ele>301.6</ele>
        <time>2022-03-09T13:33:01Z</time>
      </trkpt>
      <trkpt lat="46.74066" lon="5.60162">
        <ele>301.6</ele>
        <time>2022-03-09T13:33:02Z</time>
      </trkpt>
      <trkpt lat="46.74062" lon="5.60161">
        <ele>302</ele>
        <time>2022-03-09T13:33:03Z</time>
      </trkpt>
      <trkpt lat="46.74058" lon="5.60159">
        <ele>302</ele>
        <time>2022-03-09T13:33:04Z</time>
      </trkpt>
      <trkpt lat="46.74054" lon="5.60158">
        <ele>302</ele>
        <time>2022-03-09T13:33:05Z</time>
      </trkpt>
      <trkpt lat="46.7405" lon="5.60156">
        <ele>302.2</ele>
        <time>2022-03-09T13:33:06Z</time>
      </trkpt>
      <trkpt lat="46.74047" lon="5.60155">
        <ele>302.2</ele>
        <time>2022-03-09T13:33:07Z</time>
      </trkpt>
      <trkpt lat="46.74043" lon="5.60153">
        <ele>302.2</ele>
        <time>2022-03-09T13:33:08Z</time>
      </trkpt>
      <trkpt lat="46.74039" lon="5.60152">
        <ele>302.4</ele>
        <time>2022-03-09T13:33:09Z</time>
      </trkpt>
      <trkpt lat="46.74035" lon="5.60151">
        <ele>302.4</ele>
        <time>2022-03-09T13:33:10Z</time>
      </trkpt>
      <trkpt lat="46.74031" lon="5.60151">
        <ele>302.8</ele>
        <time>2022-03-09T13:33:11Z</time>
      </trkpt>
      <trkpt lat="46.74027" lon="5.6015">
        <ele>302.8</ele>
        <time>2022-03-09T13:33:12Z</time>
      </trkpt>
      <trkpt lat="46.74024" lon="5.60149">
        <ele>303</ele>
        <time>2022-03-09T13:33:13Z</time>
      </trkpt>
      <trkpt lat="46.7402" lon="5.60148">
        <ele>303</ele>
        <time>2022-03-09T13:33:14Z</time>
      </trkpt>
      <trkpt lat="46.74016" lon="5.60147">
        <ele>303.2</ele>
        <time>2022-03-09T13:33:15Z</time>
      </trkpt>
      <trkpt lat="46.74013" lon="5.60146">
        <ele>303.4</ele>
        <time>2022-03-09T13:33:16Z</time>
      </trkpt>
      <trkpt lat="46.74009" lon="5.60145">
        <ele>303.4</ele>
        <time>2022-03-09T13:33:17Z</time>
      </trkpt>
      <trkpt lat="46.74005" lon="5.60144">
        <ele>303.8</ele>
        <time>2022-03-09T13:33:18Z</time>
      </trkpt>
      <trkpt lat="46.74001" lon="5.60143">
        <ele>303.8</ele>
        <time>2022-03-09T13:33:19Z</time>
      </trkpt>
      <trkpt lat="46.73998" lon="5.60142">
        <ele>304.2</ele>
        <time>2022-03-09T13:33:20Z</time>
      </trkpt>
      <trkpt lat="46.73994" lon="5.60141">
        <ele>304.2</ele>
        <time>2022-03-09T13:33:21Z</time>
      </trkpt>
      <trkpt lat="46.7399" lon="5.60141">
        <ele>304.4</ele>
        <time>2022-03-09T13:33:22Z</time>
      </trkpt>
      <trkpt lat="46.73987" lon="5.60141">
        <ele>304.8</ele>
        <time>2022-03-09T13:33:23Z</time>
      </trkpt>
      <trkpt lat="46.73984" lon="5.60141">
        <ele>305</ele>
        <time>2022-03-09T13:33:24Z</time>
      </trkpt>
      <trkpt lat="46.73981" lon="5.60142">
        <ele>305.4</ele>
        <time>2022-03-09T13:33:25Z</time>
      </trkpt>
      <trkpt lat="46.73979" lon="5.60143">
        <ele>305.6</ele>
        <time>2022-03-09T13:33:26Z</time>
      </trkpt>
      <trkpt lat="46.73977" lon="5.60144">
        <ele>306</ele>
        <time>2022-03-09T13:33:27Z</time>
      </trkpt>
      <trkpt lat="46.73975" lon="5.60145">
        <ele>306.2</ele>
        <time>2022-03-09T13:33:28Z</time>
      </trkpt>
      <trkpt lat="46.73973" lon="5.60147">
        <ele>306.6</ele>
        <time>2022-03-09T13:33:29Z</time>
      </trkpt>
      <trkpt lat="46.73971" lon="5.60148">
        <ele>306.8</ele>
        <time>2022-03-09T13:33:30Z</time>
      </trkpt>
      <trkpt lat="46.73969" lon="5.6015">
        <ele>307</ele>
        <time>2022-03-09T13:33:31Z</time>
      </trkpt>
      <trkpt lat="46.73967" lon="5.60152">
        <ele>307.4</ele>
        <time>2022-03-09T13:33:32Z</time>
      </trkpt>
      <trkpt lat="46.73965" lon="5.60154">
        <ele>307.6</ele>
        <time>2022-03-09T13:33:33Z</time>
      </trkpt>
      <trkpt lat="46.73963" lon="5.60155">
        <ele>308</ele>
        <time>2022-03-09T13:33:34Z</time>
      </trkpt>
      <trkpt lat="46.73961" lon="5.60157">
        <ele>308.4</ele>
        <time>2022-03-09T13:33:35Z</time>
      </trkpt>
      <trkpt lat="46.73959" lon="5.60159">
        <ele>308.6</ele>
        <time>2022-03-09T13:33:36Z</time>
      </trkpt>
      <trkpt lat="46.73957" lon="5.60161">
        <ele>309</ele>
        <time>2022-03-09T13:33:37Z</time>
      </trkpt>
      <trkpt lat="46.73956" lon="5.60162">
        <ele>309.4</ele>
        <time>2022-03-09T13:33:38Z</time>
      </trkpt>
      <trkpt lat="46.73954" lon="5.60165">
        <ele>309.6</ele>
        <time>2022-03-09T13:33:39Z</time>
      </trkpt>
      <trkpt lat="46.73953" lon="5.60167">
        <ele>310</ele>
        <time>2022-03-09T13:33:40Z</time>
      </trkpt>
      <trkpt lat="46.73952" lon="5.60168">
        <ele>310.2</ele>
        <time>2022-03-09T13:33:41Z</time>
      </trkpt>
      <trkpt lat="46.7395" lon="5.6017">
        <ele>310.6</ele>
        <time>2022-03-09T13:33:42Z</time>
      </trkpt>
      <trkpt lat="46.73949" lon="5.60172">
        <ele>311</ele>
        <time>2022-03-09T13:33:43Z</time>
      </trkpt>
      <trkpt lat="46.73947" lon="5.60174">
        <ele>311.4</ele>
        <time>2022-03-09T13:33:44Z</time>
      </trkpt>
      <trkpt lat="46.73945" lon="5.60176">
        <ele>311.6</ele>
        <time>2022-03-09T13:33:45Z</time>
      </trkpt>
      <trkpt lat="46.73943" lon="5.60177">
        <ele>312</ele>
        <time>2022-03-09T13:33:46Z</time>
      </trkpt>
      <trkpt lat="46.73942" lon="5.6018">
        <ele>312.4</ele>
        <time>2022-03-09T13:33:47Z</time>
      </trkpt>
      <trkpt lat="46.73941" lon="5.60182">
        <ele>312.8</ele>
        <time>2022-03-09T13:33:48Z</time>
      </trkpt>
      <trkpt lat="46.7394" lon="5.60185">
        <ele>313</ele>
        <time>2022-03-09T13:33:49Z</time>
      </trkpt>
      <trkpt lat="46.73938" lon="5.60187">
        <ele>313.4</ele>
        <time>2022-03-09T13:33:50Z</time>
      </trkpt>
      <trkpt lat="46.73937" lon="5.60189">
        <ele>313.6</ele>
        <time>2022-03-09T13:33:51Z</time>
      </trkpt>
      <trkpt lat="46.73935" lon="5.60191">
        <ele>314</ele>
        <time>2022-03-09T13:33:52Z</time>
      </trkpt>
      <trkpt lat="46.73933" lon="5.60192">
        <ele>314.4</ele>
        <time>2022-03-09T13:33:53Z</time>
      </trkpt>
      <trkpt lat="46.73932" lon="5.60194">
        <ele>314.8</ele>
        <time>2022-03-09T13:33:54Z</time>
      </trkpt>
      <trkpt lat="46.73931" lon="5.60197">
        <ele>315.2</ele>
        <time>2022-03-09T13:33:55Z</time>
      </trkpt>
      <trkpt lat="46.7393" lon="5.60199">
        <ele>315.6</ele>
        <time>2022-03-09T13:33:56Z</time>
      </trkpt>
      <trkpt lat="46.73929" lon="5.60202">
        <ele>316</ele>
        <time>2022-03-09T13:33:57Z</time>
      </trkpt>
      <trkpt lat="46.73928" lon="5.60205">
        <ele>316.2</ele>
        <time>2022-03-09T13:33:58Z</time>
      </trkpt>
      <trkpt lat="46.73927" lon="5.60207">
        <ele>316.6</ele>
        <time>2022-03-09T13:33:59Z</time>
      </trkpt>
      <trkpt lat="46.73926" lon="5.6021">
        <ele>317</ele>
        <time>2022-03-09T13:34:00Z</time>
      </trkpt>
      <trkpt lat="46.73924" lon="5.60212">
        <ele>317.2</ele>
        <time>2022-03-09T13:34:01Z</time>
      </trkpt>
      <trkpt lat="46.73923" lon="5.60214">
        <ele>317.4</ele>
        <time>2022-03-09T13:34:02Z</time>
      </trkpt>
      <trkpt lat="46.73921" lon="5.60216">
        <ele>317.8</ele>
        <time>2022-03-09T13:34:03Z</time>
      </trkpt>
      <trkpt lat="46.73919" lon="5.60218">
        <ele>318</ele>
        <time>2022-03-09T13:34:04Z</time>
      </trkpt>
      <trkpt lat="46.73918" lon="5.6022">
        <ele>318.4</ele>
        <time>2022-03-09T13:34:05Z</time>
      </trkpt>
      <trkpt lat="46.73917" lon="5.60222">
        <ele>318.6</ele>
        <time>2022-03-09T13:34:06Z</time>
      </trkpt>
      <trkpt lat="46.73915" lon="5.60225">
        <ele>319</ele>
        <time>2022-03-09T13:34:07Z</time>
      </trkpt>
      <trkpt lat="46.73914" lon="5.60228">
        <ele>319.2</ele>
        <time>2022-03-09T13:34:08Z</time>
      </trkpt>
      <trkpt lat="46.73913" lon="5.6023">
        <ele>319.4</ele>
        <time>2022-03-09T13:34:09Z</time>
      </trkpt>
      <trkpt lat="46.73911" lon="5.60233">
        <ele>319.6</ele>
        <time>2022-03-09T13:34:10Z</time>
      </trkpt>
      <trkpt lat="46.7391" lon="5.60236">
        <ele>319.6</ele>
        <time>2022-03-09T13:34:11Z</time>
      </trkpt>
      <trkpt lat="46.73909" lon="5.60239">
        <ele>320</ele>
        <time>2022-03-09T13:34:12Z</time>
      </trkpt>
      <trkpt lat="46.73908" lon="5.60242">
        <ele>320</ele>
        <time>2022-03-09T13:34:13Z</time>
      </trkpt>
      <trkpt lat="46.73907" lon="5.60245">
        <ele>320.4</ele>
        <time>2022-03-09T13:34:14Z</time>
      </trkpt>
      <trkpt lat="46.73906" lon="5.60248">
        <ele>320.6</ele>
        <time>2022-03-09T13:34:15Z</time>
      </trkpt>
      <trkpt lat="46.73905" lon="5.60251">
        <ele>321</ele>
        <time>2022-03-09T13:34:16Z</time>
      </trkpt>
      <trkpt lat="46.73905" lon="5.60254">
        <ele>321.2</ele>
        <time>2022-03-09T13:34:17Z</time>
      </trkpt>
      <trkpt lat="46.73903" lon="5.60256">
        <ele>321.4</ele>
        <time>2022-03-09T13:34:18Z</time>
      </trkpt>
      <trkpt lat="46.73902" lon="5.60259">
        <ele>321.6</ele>
        <time>2022-03-09T13:34:19Z</time>
      </trkpt>
      <trkpt lat="46.73901" lon="5.60261">
        <ele>322</ele>
        <time>2022-03-09T13:34:20Z</time>
      </trkpt>
      <trkpt lat="46.73901" lon="5.60261">
        <ele>322.2</ele>
        <time>2022-03-09T13:34:21Z</time>
      </trkpt>
      <trkpt lat="46.73899" lon="5.60264">
        <ele>322.4</ele>
        <time>2022-03-09T13:34:22Z</time>
      </trkpt>
      <trkpt lat="46.73898" lon="5.60266">
        <ele>322.6</ele>
        <time>2022-03-09T13:34:23Z</time>
      </trkpt>
      <trkpt lat="46.73897" lon="5.60269">
        <ele>322.8</ele>
        <time>2022-03-09T13:34:24Z</time>
      </trkpt>
      <trkpt lat="46.73896" lon="5.60272">
        <ele>323</ele>
        <time>2022-03-09T13:34:25Z</time>
      </trkpt>
      <trkpt lat="46.73895" lon="5.60275">
        <ele>323</ele>
        <time>2022-03-09T13:34:26Z</time>
      </trkpt>
      <trkpt lat="46.73894" lon="5.60278">
        <ele>323.4</ele>
        <time>2022-03-09T13:34:27Z</time>
      </trkpt>
      <trkpt lat="46.73893" lon="5.6028">
        <ele>323.8</ele>
        <time>2022-03-09T13:34:28Z</time>
      </trkpt>
      <trkpt lat="46.73892" lon="5.60283">
        <ele>323.8</ele>
        <time>2022-03-09T13:34:29Z</time>
      </trkpt>
      <trkpt lat="46.73891" lon="5.60286">
        <ele>324.2</ele>
        <time>2022-03-09T13:34:30Z</time>
      </trkpt>
      <trkpt lat="46.73889" lon="5.60289">
        <ele>324.2</ele>
        <time>2022-03-09T13:34:31Z</time>
      </trkpt>
      <trkpt lat="46.73888" lon="5.60291">
        <ele>324.4</ele>
        <time>2022-03-09T13:34:32Z</time>
      </trkpt>
      <trkpt lat="46.73886" lon="5.60294">
        <ele>324.4</ele>
        <time>2022-03-09T13:34:33Z</time>
      </trkpt>
      <trkpt lat="46.73884" lon="5.60295">
        <ele>324.8</ele>
        <time>2022-03-09T13:34:34Z</time>
      </trkpt>
      <trkpt lat="46.73882" lon="5.60297">
        <ele>324.8</ele>
        <time>2022-03-09T13:34:35Z</time>
      </trkpt>
      <trkpt lat="46.7388" lon="5.60299">
        <ele>325</ele>
        <time>2022-03-09T13:34:36Z</time>
      </trkpt>
      <trkpt lat="46.73878" lon="5.603">
        <ele>325</ele>
        <time>2022-03-09T13:34:37Z</time>
      </trkpt>
      <trkpt lat="46.73876" lon="5.603">
        <ele>325</ele>
        <time>2022-03-09T13:34:38Z</time>
      </trkpt>
      <trkpt lat="46.73873" lon="5.60299">
        <ele>325.2</ele>
        <time>2022-03-09T13:34:39Z</time>
      </trkpt>
      <trkpt lat="46.73871" lon="5.60298">
        <ele>325.2</ele>
        <time>2022-03-09T13:34:40Z</time>
      </trkpt>
      <trkpt lat="46.73868" lon="5.60296">
        <ele>325.6</ele>
        <time>2022-03-09T13:34:41Z</time>
      </trkpt>
      <trkpt lat="46.73865" lon="5.60293">
        <ele>325.6</ele>
        <time>2022-03-09T13:34:42Z</time>
      </trkpt>
      <trkpt lat="46.73862" lon="5.60291">
        <ele>325.6</ele>
        <time>2022-03-09T13:34:43Z</time>
      </trkpt>
      <trkpt lat="46.73859" lon="5.60289">
        <ele>325.6</ele>
        <time>2022-03-09T13:34:44Z</time>
      </trkpt>
      <trkpt lat="46.73856" lon="5.60287">
        <ele>325.8</ele>
        <time>2022-03-09T13:34:45Z</time>
      </trkpt>
      <trkpt lat="46.73849" lon="5.60284">
        <ele>325.8</ele>
        <time>2022-03-09T13:34:46Z</time>
      </trkpt>
      <trkpt lat="46.73845" lon="5.60283">
        <ele>325.8</ele>
        <time>2022-03-09T13:34:47Z</time>
      </trkpt>
      <trkpt lat="46.73842" lon="5.60283">
        <ele>325.8</ele>
        <time>2022-03-09T13:34:48Z</time>
      </trkpt>
      <trkpt lat="46.73838" lon="5.60283">
        <ele>325.8</ele>
        <time>2022-03-09T13:34:49Z</time>
      </trkpt>
      <trkpt lat="46.73834" lon="5.60282">
        <ele>325.8</ele>
        <time>2022-03-09T13:34:50Z</time>
      </trkpt>
      <trkpt lat="46.7383" lon="5.60282">
        <ele>325.8</ele>
        <time>2022-03-09T13:34:51Z</time>
      </trkpt>
      <trkpt lat="46.73826" lon="5.60281">
        <ele>325.8</ele>
        <time>2022-03-09T13:34:52Z</time>
      </trkpt>
      <trkpt lat="46.73822" lon="5.60281">
        <ele>325.8</ele>
        <time>2022-03-09T13:34:53Z</time>
      </trkpt>
      <trkpt lat="46.73818" lon="5.60281">
        <ele>325.8</ele>
        <time>2022-03-09T13:34:54Z</time>
      </trkpt>
      <trkpt lat="46.73814" lon="5.60281">
        <ele>325.8</ele>
        <time>2022-03-09T13:34:55Z</time>
      </trkpt>
      <trkpt lat="46.7381" lon="5.60281">
        <ele>325.8</ele>
        <time>2022-03-09T13:34:56Z</time>
      </trkpt>
      <trkpt lat="46.73806" lon="5.60282">
        <ele>325.8</ele>
        <time>2022-03-09T13:34:57Z</time>
      </trkpt>
      <trkpt lat="46.73802" lon="5.60283">
        <ele>325.8</ele>
        <time>2022-03-09T13:34:58Z</time>
      </trkpt>
      <trkpt lat="46.73798" lon="5.60285">
        <ele>325.6</ele>
        <time>2022-03-09T13:34:59Z</time>
      </trkpt>
      <trkpt lat="46.73794" lon="5.60287">
        <ele>325.6</ele>
        <time>2022-03-09T13:35:00Z</time>
      </trkpt>
      <trkpt lat="46.73792" lon="5.60291">
        <ele>325.6</ele>
        <time>2022-03-09T13:35:01Z</time>
      </trkpt>
      <trkpt lat="46.7379" lon="5.60296">
        <ele>325.6</ele>
        <time>2022-03-09T13:35:02Z</time>
      </trkpt>
      <trkpt lat="46.73788" lon="5.603">
        <ele>325.6</ele>
        <time>2022-03-09T13:35:03Z</time>
      </trkpt>
      <trkpt lat="46.73787" lon="5.60305">
        <ele>325.8</ele>
        <time>2022-03-09T13:35:04Z</time>
      </trkpt>
      <trkpt lat="46.73787" lon="5.60309">
        <ele>325.8</ele>
        <time>2022-03-09T13:35:05Z</time>
      </trkpt>
      <trkpt lat="46.73786" lon="5.60313">
        <ele>326.2</ele>
        <time>2022-03-09T13:35:06Z</time>
      </trkpt>
      <trkpt lat="46.73786" lon="5.60317">
        <ele>326.2</ele>
        <time>2022-03-09T13:35:07Z</time>
      </trkpt>
      <trkpt lat="46.73786" lon="5.60321">
        <ele>326.6</ele>
        <time>2022-03-09T13:35:08Z</time>
      </trkpt>
      <trkpt lat="46.73786" lon="5.60325">
        <ele>326.6</ele>
        <time>2022-03-09T13:35:09Z</time>
      </trkpt>
      <trkpt lat="46.73785" lon="5.60329">
        <ele>327</ele>
        <time>2022-03-09T13:35:10Z</time>
      </trkpt>
      <trkpt lat="46.73785" lon="5.60333">
        <ele>327.4</ele>
        <time>2022-03-09T13:35:11Z</time>
      </trkpt>
      <trkpt lat="46.73785" lon="5.60338">
        <ele>327.6</ele>
        <time>2022-03-09T13:35:12Z</time>
      </trkpt>
      <trkpt lat="46.73784" lon="5.60342">
        <ele>327.8</ele>
        <time>2022-03-09T13:35:13Z</time>
      </trkpt>
      <trkpt lat="46.73783" lon="5.60347">
        <ele>328</ele>
        <time>2022-03-09T13:35:14Z</time>
      </trkpt>
      <trkpt lat="46.73782" lon="5.60351">
        <ele>328.4</ele>
        <time>2022-03-09T13:35:15Z</time>
      </trkpt>
      <trkpt lat="46.73781" lon="5.60355">
        <ele>328.8</ele>
        <time>2022-03-09T13:35:16Z</time>
      </trkpt>
      <trkpt lat="46.7378" lon="5.60359">
        <ele>329.2</ele>
        <time>2022-03-09T13:35:17Z</time>
      </trkpt>
      <trkpt lat="46.73779" lon="5.60363">
        <ele>329.4</ele>
        <time>2022-03-09T13:35:18Z</time>
      </trkpt>
      <trkpt lat="46.73779" lon="5.60367">
        <ele>329.8</ele>
        <time>2022-03-09T13:35:19Z</time>
      </trkpt>
      <trkpt lat="46.73777" lon="5.6037">
        <ele>330</ele>
        <time>2022-03-09T13:35:20Z</time>
      </trkpt>
      <trkpt lat="46.73776" lon="5.60373">
        <ele>330.4</ele>
        <time>2022-03-09T13:35:21Z</time>
      </trkpt>
      <trkpt lat="46.73775" lon="5.60374">
        <ele>330.8</ele>
        <time>2022-03-09T13:35:22Z</time>
      </trkpt>
      <trkpt lat="46.73773" lon="5.60376">
        <ele>331</ele>
        <time>2022-03-09T13:35:23Z</time>
      </trkpt>
      <trkpt lat="46.73771" lon="5.60377">
        <ele>331.2</ele>
        <time>2022-03-09T13:35:24Z</time>
      </trkpt>
      <trkpt lat="46.73769" lon="5.60378">
        <ele>331.6</ele>
        <time>2022-03-09T13:35:25Z</time>
      </trkpt>
      <trkpt lat="46.73767" lon="5.6038">
        <ele>331.8</ele>
        <time>2022-03-09T13:35:26Z</time>
      </trkpt>
      <trkpt lat="46.73766" lon="5.60382">
        <ele>332</ele>
        <time>2022-03-09T13:35:27Z</time>
      </trkpt>
      <trkpt lat="46.73764" lon="5.60385">
        <ele>332.2</ele>
        <time>2022-03-09T13:35:28Z</time>
      </trkpt>
      <trkpt lat="46.73762" lon="5.60387">
        <ele>332.6</ele>
        <time>2022-03-09T13:35:29Z</time>
      </trkpt>
      <trkpt lat="46.7376" lon="5.6039">
        <ele>332.8</ele>
        <time>2022-03-09T13:35:30Z</time>
      </trkpt>
      <trkpt lat="46.73758" lon="5.60393">
        <ele>333.2</ele>
        <time>2022-03-09T13:35:31Z</time>
      </trkpt>
      <trkpt lat="46.73757" lon="5.60396">
        <ele>333.6</ele>
        <time>2022-03-09T13:35:32Z</time>
      </trkpt>
      <trkpt lat="46.73755" lon="5.60399">
        <ele>333.8</ele>
        <time>2022-03-09T13:35:33Z</time>
      </trkpt>
      <trkpt lat="46.73753" lon="5.60401">
        <ele>334.2</ele>
        <time>2022-03-09T13:35:34Z</time>
      </trkpt>
      <trkpt lat="46.73751" lon="5.60403">
        <ele>334.6</ele>
        <time>2022-03-09T13:35:35Z</time>
      </trkpt>
      <trkpt lat="46.7375" lon="5.60406">
        <ele>334.8</ele>
        <time>2022-03-09T13:35:36Z</time>
      </trkpt>
      <trkpt lat="46.73747" lon="5.60409">
        <ele>335.2</ele>
        <time>2022-03-09T13:35:37Z</time>
      </trkpt>
      <trkpt lat="46.73745" lon="5.60412">
        <ele>335.6</ele>
        <time>2022-03-09T13:35:38Z</time>
      </trkpt>
      <trkpt lat="46.73743" lon="5.60415">
        <ele>335.8</ele>
        <time>2022-03-09T13:35:39Z</time>
      </trkpt>
      <trkpt lat="46.73742" lon="5.60417">
        <ele>336.4</ele>
        <time>2022-03-09T13:35:40Z</time>
      </trkpt>
      <trkpt lat="46.7374" lon="5.6042">
        <ele>336.8</ele>
        <time>2022-03-09T13:35:41Z</time>
      </trkpt>
      <trkpt lat="46.73739" lon="5.60422">
        <ele>337.4</ele>
        <time>2022-03-09T13:35:42Z</time>
      </trkpt>
      <trkpt lat="46.73738" lon="5.60425">
        <ele>337.8</ele>
        <time>2022-03-09T13:35:43Z</time>
      </trkpt>
      <trkpt lat="46.73737" lon="5.60428">
        <ele>338.2</ele>
        <time>2022-03-09T13:35:44Z</time>
      </trkpt>
      <trkpt lat="46.73736" lon="5.60431">
        <ele>338.6</ele>
        <time>2022-03-09T13:35:45Z</time>
      </trkpt>
      <trkpt lat="46.73734" lon="5.60433">
        <ele>339</ele>
        <time>2022-03-09T13:35:46Z</time>
      </trkpt>
      <trkpt lat="46.73733" lon="5.60435">
        <ele>339.4</ele>
        <time>2022-03-09T13:35:47Z</time>
      </trkpt>
      <trkpt lat="46.7373" lon="5.60437">
        <ele>339.8</ele>
        <time>2022-03-09T13:35:48Z</time>
      </trkpt>
      <trkpt lat="46.73728" lon="5.60438">
        <ele>340.2</ele>
        <time>2022-03-09T13:35:49Z</time>
      </trkpt>
      <trkpt lat="46.73726" lon="5.60439">
        <ele>340.6</ele>
        <time>2022-03-09T13:35:50Z</time>
      </trkpt>
      <trkpt lat="46.73724" lon="5.6044">
        <ele>340.8</ele>
        <time>2022-03-09T13:35:51Z</time>
      </trkpt>
      <trkpt lat="46.73722" lon="5.60442">
        <ele>341.2</ele>
        <time>2022-03-09T13:35:52Z</time>
      </trkpt>
      <trkpt lat="46.73719" lon="5.60442">
        <ele>341.4</ele>
        <time>2022-03-09T13:35:53Z</time>
      </trkpt>
      <trkpt lat="46.73717" lon="5.60443">
        <ele>341.8</ele>
        <time>2022-03-09T13:35:54Z</time>
      </trkpt>
      <trkpt lat="46.73715" lon="5.60445">
        <ele>342</ele>
        <time>2022-03-09T13:35:55Z</time>
      </trkpt>
      <trkpt lat="46.73713" lon="5.60447">
        <ele>342.2</ele>
        <time>2022-03-09T13:35:56Z</time>
      </trkpt>
      <trkpt lat="46.73711" lon="5.60449">
        <ele>342.6</ele>
        <time>2022-03-09T13:35:57Z</time>
      </trkpt>
      <trkpt lat="46.7371" lon="5.60452">
        <ele>343</ele>
        <time>2022-03-09T13:35:58Z</time>
      </trkpt>
      <trkpt lat="46.73708" lon="5.60454">
        <ele>343.2</ele>
        <time>2022-03-09T13:35:59Z</time>
      </trkpt>
      <trkpt lat="46.73707" lon="5.60456">
        <ele>343.6</ele>
        <time>2022-03-09T13:36:00Z</time>
      </trkpt>
      <trkpt lat="46.73706" lon="5.60459">
        <ele>344</ele>
        <time>2022-03-09T13:36:01Z</time>
      </trkpt>
      <trkpt lat="46.73706" lon="5.60462">
        <ele>344.4</ele>
        <time>2022-03-09T13:36:02Z</time>
      </trkpt>
      <trkpt lat="46.73705" lon="5.60464">
        <ele>344.8</ele>
        <time>2022-03-09T13:36:03Z</time>
      </trkpt>
      <trkpt lat="46.73704" lon="5.60466">
        <ele>345.2</ele>
        <time>2022-03-09T13:36:04Z</time>
      </trkpt>
      <trkpt lat="46.73703" lon="5.60469">
        <ele>345.6</ele>
        <time>2022-03-09T13:36:05Z</time>
      </trkpt>
      <trkpt lat="46.73701" lon="5.60471">
        <ele>346</ele>
        <time>2022-03-09T13:36:06Z</time>
      </trkpt>
      <trkpt lat="46.737" lon="5.60473">
        <ele>346.4</ele>
        <time>2022-03-09T13:36:07Z</time>
      </trkpt>
      <trkpt lat="46.73699" lon="5.60475">
        <ele>346.8</ele>
        <time>2022-03-09T13:36:08Z</time>
      </trkpt>
      <trkpt lat="46.73698" lon="5.60477">
        <ele>347</ele>
        <time>2022-03-09T13:36:09Z</time>
      </trkpt>
      <trkpt lat="46.73697" lon="5.6048">
        <ele>347.4</ele>
        <time>2022-03-09T13:36:10Z</time>
      </trkpt>
      <trkpt lat="46.73697" lon="5.60482">
        <ele>347.8</ele>
        <time>2022-03-09T13:36:11Z</time>
      </trkpt>
      <trkpt lat="46.73695" lon="5.60485">
        <ele>348.2</ele>
        <time>2022-03-09T13:36:12Z</time>
      </trkpt>
      <trkpt lat="46.73694" lon="5.60487">
        <ele>348.4</ele>
        <time>2022-03-09T13:36:13Z</time>
      </trkpt>
      <trkpt lat="46.73693" lon="5.60489">
        <ele>348.8</ele>
        <time>2022-03-09T13:36:14Z</time>
      </trkpt>
      <trkpt lat="46.73693" lon="5.60492">
        <ele>349</ele>
        <time>2022-03-09T13:36:15Z</time>
      </trkpt>
      <trkpt lat="46.73693" lon="5.60493">
        <ele>349.2</ele>
        <time>2022-03-09T13:36:16Z</time>
      </trkpt>
      <trkpt lat="46.73693" lon="5.60493">
        <ele>349.2</ele>
        <time>2022-03-09T13:36:17Z</time>
      </trkpt>
      <trkpt lat="46.73693" lon="5.60493">
        <ele>349.6</ele>
        <time>2022-03-09T13:36:18Z</time>
      </trkpt>
      <trkpt lat="46.73693" lon="5.60494">
        <ele>349.6</ele>
        <time>2022-03-09T13:36:19Z</time>
      </trkpt>
      <trkpt lat="46.73693" lon="5.60494">
        <ele>349.8</ele>
        <time>2022-03-09T13:36:20Z</time>
      </trkpt>
      <trkpt lat="46.73693" lon="5.60495">
        <ele>349.8</ele>
        <time>2022-03-09T13:36:21Z</time>
      </trkpt>
      <trkpt lat="46.73693" lon="5.60495">
        <ele>349.8</ele>
        <time>2022-03-09T13:36:22Z</time>
      </trkpt>
      <trkpt lat="46.73693" lon="5.60496">
        <ele>349.8</ele>
        <time>2022-03-09T13:36:23Z</time>
      </trkpt>
      <trkpt lat="46.73693" lon="5.60496">
        <ele>349.8</ele>
        <time>2022-03-09T13:36:24Z</time>
      </trkpt>
      <trkpt lat="46.73693" lon="5.60497">
        <ele>350</ele>
        <time>2022-03-09T13:36:25Z</time>
      </trkpt>
      <trkpt lat="46.73693" lon="5.60497">
        <ele>350</ele>
        <time>2022-03-09T13:36:26Z</time>
      </trkpt>
      <trkpt lat="46.73693" lon="5.60497">
        <ele>350</ele>
        <time>2022-03-09T13:36:27Z</time>
      </trkpt>
      <trkpt lat="46.73693" lon="5.60498">
        <ele>350</ele>
        <time>2022-03-09T13:36:28Z</time>
      </trkpt>
      <trkpt lat="46.73693" lon="5.60498">
        <ele>350</ele>
        <time>2022-03-09T13:36:55Z</time>
      </trkpt>
      <trkpt lat="46.73693" lon="5.60499">
        <ele>350</ele>
        <time>2022-03-09T13:36:56Z</time>
      </trkpt>
      <trkpt lat="46.73693" lon="5.60499">
        <ele>350</ele>
        <time>2022-03-09T13:36:57Z</time>
      </trkpt>
      <trkpt lat="46.73693" lon="5.605">
        <ele>350</ele>
        <time>2022-03-09T13:36:58Z</time>
      </trkpt>
      <trkpt lat="46.73693" lon="5.605">
        <ele>350</ele>
        <time>2022-03-09T13:36:59Z</time>
      </trkpt>
      <trkpt lat="46.73693" lon="5.605">
        <ele>350</ele>
        <time>2022-03-09T13:37:00Z</time>
      </trkpt>
      <trkpt lat="46.73693" lon="5.60501">
        <ele>350</ele>
        <time>2022-03-09T13:37:01Z</time>
      </trkpt>
      <trkpt lat="46.73693" lon="5.60501">
        <ele>350</ele>
        <time>2022-03-09T13:37:02Z</time>
      </trkpt>
      <trkpt lat="46.73693" lon="5.60502">
        <ele>350</ele>
        <time>2022-03-09T13:37:03Z</time>
      </trkpt>
      <trkpt lat="46.73693" lon="5.60502">
        <ele>350.2</ele>
        <time>2022-03-09T13:37:04Z</time>
      </trkpt>
      <trkpt lat="46.73693" lon="5.60503">
        <ele>350.2</ele>
        <time>2022-03-09T13:37:05Z</time>
      </trkpt>
      <trkpt lat="46.73693" lon="5.60503">
        <ele>350.6</ele>
        <time>2022-03-09T13:37:06Z</time>
      </trkpt>
      <trkpt lat="46.73693" lon="5.60505">
        <ele>350.8</ele>
        <time>2022-03-09T13:37:07Z</time>
      </trkpt>
      <trkpt lat="46.73693" lon="5.60507">
        <ele>351</ele>
        <time>2022-03-09T13:37:08Z</time>
      </trkpt>
      <trkpt lat="46.73694" lon="5.60509">
        <ele>351.4</ele>
        <time>2022-03-09T13:37:09Z</time>
      </trkpt>
      <trkpt lat="46.73695" lon="5.60511">
        <ele>351.6</ele>
        <time>2022-03-09T13:37:10Z</time>
      </trkpt>
      <trkpt lat="46.73696" lon="5.60514">
        <ele>352</ele>
        <time>2022-03-09T13:37:11Z</time>
      </trkpt>
      <trkpt lat="46.73697" lon="5.60516">
        <ele>352.2</ele>
        <time>2022-03-09T13:37:12Z</time>
      </trkpt>
      <trkpt lat="46.73698" lon="5.60518">
        <ele>352.6</ele>
        <time>2022-03-09T13:37:13Z</time>
      </trkpt>
      <trkpt lat="46.73698" lon="5.60521">
        <ele>353</ele>
        <time>2022-03-09T13:37:14Z</time>
      </trkpt>
      <trkpt lat="46.73698" lon="5.60523">
        <ele>353.4</ele>
        <time>2022-03-09T13:37:15Z</time>
      </trkpt>
      <trkpt lat="46.73699" lon="5.60525">
        <ele>353.8</ele>
        <time>2022-03-09T13:37:16Z</time>
      </trkpt>
      <trkpt lat="46.737" lon="5.60528">
        <ele>354</ele>
        <time>2022-03-09T13:37:17Z</time>
      </trkpt>
      <trkpt lat="46.73701" lon="5.60531">
        <ele>354.4</ele>
        <time>2022-03-09T13:37:18Z</time>
      </trkpt>
      <trkpt lat="46.73701" lon="5.60533">
        <ele>354.8</ele>
        <time>2022-03-09T13:37:19Z</time>
      </trkpt>
      <trkpt lat="46.73702" lon="5.60536">
        <ele>355.2</ele>
        <time>2022-03-09T13:37:20Z</time>
      </trkpt>
      <trkpt lat="46.73703" lon="5.60538">
        <ele>355.6</ele>
        <time>2022-03-09T13:37:21Z</time>
      </trkpt>
      <trkpt lat="46.73704" lon="5.60541">
        <ele>356</ele>
        <time>2022-03-09T13:37:22Z</time>
      </trkpt>
      <trkpt lat="46.73705" lon="5.60543">
        <ele>356.2</ele>
        <time>2022-03-09T13:37:23Z</time>
      </trkpt>
      <trkpt lat="46.73706" lon="5.60546">
        <ele>356.6</ele>
        <time>2022-03-09T13:37:24Z</time>
      </trkpt>
      <trkpt lat="46.73707" lon="5.60548">
        <ele>356.8</ele>
        <time>2022-03-09T13:37:25Z</time>
      </trkpt>
      <trkpt lat="46.73708" lon="5.60551">
        <ele>357.2</ele>
        <time>2022-03-09T13:37:26Z</time>
      </trkpt>
      <trkpt lat="46.73708" lon="5.60553">
        <ele>357.4</ele>
        <time>2022-03-09T13:37:27Z</time>
      </trkpt>
      <trkpt lat="46.73709" lon="5.60556">
        <ele>357.8</ele>
        <time>2022-03-09T13:37:28Z</time>
      </trkpt>
      <trkpt lat="46.7371" lon="5.60559">
        <ele>358.2</ele>
        <time>2022-03-09T13:37:29Z</time>
      </trkpt>
      <trkpt lat="46.7371" lon="5.60562">
        <ele>358.4</ele>
        <time>2022-03-09T13:37:30Z</time>
      </trkpt>
      <trkpt lat="46.73711" lon="5.60564">
        <ele>358.8</ele>
        <time>2022-03-09T13:37:31Z</time>
      </trkpt>
      <trkpt lat="46.73712" lon="5.60567">
        <ele>359.2</ele>
        <time>2022-03-09T13:37:32Z</time>
      </trkpt>
      <trkpt lat="46.73714" lon="5.60569">
        <ele>359.4</ele>
        <time>2022-03-09T13:37:33Z</time>
      </trkpt>
      <trkpt lat="46.73714" lon="5.60573">
        <ele>359.8</ele>
        <time>2022-03-09T13:37:34Z</time>
      </trkpt>
      <trkpt lat="46.73715" lon="5.60576">
        <ele>360</ele>
        <time>2022-03-09T13:37:35Z</time>
      </trkpt>
      <trkpt lat="46.73716" lon="5.60578">
        <ele>360.4</ele>
        <time>2022-03-09T13:37:36Z</time>
      </trkpt>
      <trkpt lat="46.73717" lon="5.60581">
        <ele>360.8</ele>
        <time>2022-03-09T13:37:37Z</time>
      </trkpt>
      <trkpt lat="46.73718" lon="5.60584">
        <ele>361</ele>
        <time>2022-03-09T13:37:38Z</time>
      </trkpt>
      <trkpt lat="46.73719" lon="5.60587">
        <ele>361.2</ele>
        <time>2022-03-09T13:37:39Z</time>
      </trkpt>
      <trkpt lat="46.7372" lon="5.6059">
        <ele>361.4</ele>
        <time>2022-03-09T13:37:40Z</time>
      </trkpt>
      <trkpt lat="46.7372" lon="5.60593">
        <ele>361.8</ele>
        <time>2022-03-09T13:37:41Z</time>
      </trkpt>
      <trkpt lat="46.73721" lon="5.60595">
        <ele>362.2</ele>
        <time>2022-03-09T13:37:42Z</time>
      </trkpt>
      <trkpt lat="46.73721" lon="5.60598">
        <ele>362.4</ele>
        <time>2022-03-09T13:37:43Z</time>
      </trkpt>
      <trkpt lat="46.73722" lon="5.60601">
        <ele>362.8</ele>
        <time>2022-03-09T13:37:44Z</time>
      </trkpt>
      <trkpt lat="46.73723" lon="5.60603">
        <ele>363</ele>
        <time>2022-03-09T13:37:45Z</time>
      </trkpt>
      <trkpt lat="46.73724" lon="5.60606">
        <ele>363.2</ele>
        <time>2022-03-09T13:37:46Z</time>
      </trkpt>
      <trkpt lat="46.73725" lon="5.60609">
        <ele>363.4</ele>
        <time>2022-03-09T13:37:47Z</time>
      </trkpt>
      <trkpt lat="46.73726" lon="5.60612">
        <ele>363.6</ele>
        <time>2022-03-09T13:37:48Z</time>
      </trkpt>
      <trkpt lat="46.73726" lon="5.60615">
        <ele>363.8</ele>
        <time>2022-03-09T13:37:49Z</time>
      </trkpt>
      <trkpt lat="46.73727" lon="5.60618">
        <ele>363.8</ele>
        <time>2022-03-09T13:37:50Z</time>
      </trkpt>
      <trkpt lat="46.73728" lon="5.60621">
        <ele>364.2</ele>
        <time>2022-03-09T13:37:51Z</time>
      </trkpt>
      <trkpt lat="46.73729" lon="5.60624">
        <ele>364.2</ele>
        <time>2022-03-09T13:37:52Z</time>
      </trkpt>
      <trkpt lat="46.7373" lon="5.60627">
        <ele>364.6</ele>
        <time>2022-03-09T13:37:53Z</time>
      </trkpt>
      <trkpt lat="46.73731" lon="5.6063">
        <ele>364.8</ele>
        <time>2022-03-09T13:37:54Z</time>
      </trkpt>
      <trkpt lat="46.73731" lon="5.60633">
        <ele>365</ele>
        <time>2022-03-09T13:37:55Z</time>
      </trkpt>
      <trkpt lat="46.73732" lon="5.60636">
        <ele>365.2</ele>
        <time>2022-03-09T13:37:56Z</time>
      </trkpt>
      <trkpt lat="46.73732" lon="5.6064">
        <ele>365.4</ele>
        <time>2022-03-09T13:37:57Z</time>
      </trkpt>
      <trkpt lat="46.73732" lon="5.60643">
        <ele>365.6</ele>
        <time>2022-03-09T13:37:58Z</time>
      </trkpt>
      <trkpt lat="46.73732" lon="5.60646">
        <ele>365.8</ele>
        <time>2022-03-09T13:37:59Z</time>
      </trkpt>
      <trkpt lat="46.73731" lon="5.6065">
        <ele>365.8</ele>
        <time>2022-03-09T13:38:00Z</time>
      </trkpt>
      <trkpt lat="46.73729" lon="5.60653">
        <ele>366.2</ele>
        <time>2022-03-09T13:38:01Z</time>
      </trkpt>
      <trkpt lat="46.73728" lon="5.60655">
        <ele>366.2</ele>
        <time>2022-03-09T13:38:02Z</time>
      </trkpt>
      <trkpt lat="46.73726" lon="5.60658">
        <ele>366.4</ele>
        <time>2022-03-09T13:38:03Z</time>
      </trkpt>
      <trkpt lat="46.73724" lon="5.6066">
        <ele>366.4</ele>
        <time>2022-03-09T13:38:04Z</time>
      </trkpt>
      <trkpt lat="46.73722" lon="5.60662">
        <ele>366.8</ele>
        <time>2022-03-09T13:38:05Z</time>
      </trkpt>
      <trkpt lat="46.7372" lon="5.60665">
        <ele>366.8</ele>
        <time>2022-03-09T13:38:06Z</time>
      </trkpt>
      <trkpt lat="46.73718" lon="5.60668">
        <ele>367.2</ele>
        <time>2022-03-09T13:38:07Z</time>
      </trkpt>
      <trkpt lat="46.73716" lon="5.60671">
        <ele>367.2</ele>
        <time>2022-03-09T13:38:08Z</time>
      </trkpt>
      <trkpt lat="46.73714" lon="5.60674">
        <ele>367.4</ele>
        <time>2022-03-09T13:38:09Z</time>
      </trkpt>
      <trkpt lat="46.73713" lon="5.60677">
        <ele>367.4</ele>
        <time>2022-03-09T13:38:10Z</time>
      </trkpt>
      <trkpt lat="46.73711" lon="5.6068">
        <ele>367.8</ele>
        <time>2022-03-09T13:38:11Z</time>
      </trkpt>
      <trkpt lat="46.73709" lon="5.60682">
        <ele>367.8</ele>
        <time>2022-03-09T13:38:12Z</time>
      </trkpt>
      <trkpt lat="46.73707" lon="5.60685">
        <ele>368.2</ele>
        <time>2022-03-09T13:38:13Z</time>
      </trkpt>
      <trkpt lat="46.73705" lon="5.60688">
        <ele>368.2</ele>
        <time>2022-03-09T13:38:14Z</time>
      </trkpt>
      <trkpt lat="46.73703" lon="5.60691">
        <ele>368.6</ele>
        <time>2022-03-09T13:38:15Z</time>
      </trkpt>
      <trkpt lat="46.73701" lon="5.60693">
        <ele>368.6</ele>
        <time>2022-03-09T13:38:16Z</time>
      </trkpt>
      <trkpt lat="46.73699" lon="5.60696">
        <ele>368.8</ele>
        <time>2022-03-09T13:38:17Z</time>
      </trkpt>
      <trkpt lat="46.73697" lon="5.60699">
        <ele>368.8</ele>
        <time>2022-03-09T13:38:18Z</time>
      </trkpt>
      <trkpt lat="46.73695" lon="5.60702">
        <ele>369.2</ele>
        <time>2022-03-09T13:38:19Z</time>
      </trkpt>
      <trkpt lat="46.73693" lon="5.60705">
        <ele>369.2</ele>
        <time>2022-03-09T13:38:20Z</time>
      </trkpt>
      <trkpt lat="46.73691" lon="5.60708">
        <ele>369.6</ele>
        <time>2022-03-09T13:38:21Z</time>
      </trkpt>
      <trkpt lat="46.73689" lon="5.60711">
        <ele>369.6</ele>
        <time>2022-03-09T13:38:22Z</time>
      </trkpt>
      <trkpt lat="46.73687" lon="5.60713">
        <ele>369.8</ele>
        <time>2022-03-09T13:38:23Z</time>
      </trkpt>
      <trkpt lat="46.73685" lon="5.60716">
        <ele>370</ele>
        <time>2022-03-09T13:38:24Z</time>
      </trkpt>
      <trkpt lat="46.73683" lon="5.60719">
        <ele>370</ele>
        <time>2022-03-09T13:38:25Z</time>
      </trkpt>
      <trkpt lat="46.73681" lon="5.60722">
        <ele>370.4</ele>
        <time>2022-03-09T13:38:26Z</time>
      </trkpt>
      <trkpt lat="46.73679" lon="5.60725">
        <ele>370.4</ele>
        <time>2022-03-09T13:38:27Z</time>
      </trkpt>
      <trkpt lat="46.73677" lon="5.60728">
        <ele>370.6</ele>
        <time>2022-03-09T13:38:28Z</time>
      </trkpt>
      <trkpt lat="46.73675" lon="5.60731">
        <ele>370.6</ele>
        <time>2022-03-09T13:38:29Z</time>
      </trkpt>
      <trkpt lat="46.73673" lon="5.60734">
        <ele>371</ele>
        <time>2022-03-09T13:38:30Z</time>
      </trkpt>
      <trkpt lat="46.73671" lon="5.60736">
        <ele>371.2</ele>
        <time>2022-03-09T13:38:31Z</time>
      </trkpt>
      <trkpt lat="46.73669" lon="5.60739">
        <ele>371.2</ele>
        <time>2022-03-09T13:38:32Z</time>
      </trkpt>
      <trkpt lat="46.73667" lon="5.60741">
        <ele>371.4</ele>
        <time>2022-03-09T13:38:33Z</time>
      </trkpt>
      <trkpt lat="46.73665" lon="5.60744">
        <ele>371.8</ele>
        <time>2022-03-09T13:38:34Z</time>
      </trkpt>
      <trkpt lat="46.73663" lon="5.60747">
        <ele>372</ele>
        <time>2022-03-09T13:38:35Z</time>
      </trkpt>
      <trkpt lat="46.73661" lon="5.60749">
        <ele>372.4</ele>
        <time>2022-03-09T13:38:36Z</time>
      </trkpt>
      <trkpt lat="46.73659" lon="5.60752">
        <ele>372.6</ele>
        <time>2022-03-09T13:38:37Z</time>
      </trkpt>
      <trkpt lat="46.73657" lon="5.60755">
        <ele>372.8</ele>
        <time>2022-03-09T13:38:38Z</time>
      </trkpt>
      <trkpt lat="46.73655" lon="5.60758">
        <ele>373</ele>
        <time>2022-03-09T13:38:39Z</time>
      </trkpt>
      <trkpt lat="46.73653" lon="5.60761">
        <ele>373.4</ele>
        <time>2022-03-09T13:38:40Z</time>
      </trkpt>
      <trkpt lat="46.73651" lon="5.60763">
        <ele>373.6</ele>
        <time>2022-03-09T13:38:41Z</time>
      </trkpt>
      <trkpt lat="46.73649" lon="5.60765">
        <ele>374</ele>
        <time>2022-03-09T13:38:42Z</time>
      </trkpt>
      <trkpt lat="46.73647" lon="5.60768">
        <ele>374.4</ele>
        <time>2022-03-09T13:38:43Z</time>
      </trkpt>
      <trkpt lat="46.73645" lon="5.6077">
        <ele>374.6</ele>
        <time>2022-03-09T13:38:44Z</time>
      </trkpt>
      <trkpt lat="46.73643" lon="5.60772">
        <ele>375</ele>
        <time>2022-03-09T13:38:45Z</time>
      </trkpt>
      <trkpt lat="46.73641" lon="5.60775">
        <ele>375.2</ele>
        <time>2022-03-09T13:38:46Z</time>
      </trkpt>
      <trkpt lat="46.7364" lon="5.60778">
        <ele>375.6</ele>
        <time>2022-03-09T13:38:47Z</time>
      </trkpt>
      <trkpt lat="46.73639" lon="5.6078">
        <ele>375.8</ele>
        <time>2022-03-09T13:38:48Z</time>
      </trkpt>
      <trkpt lat="46.73637" lon="5.60783">
        <ele>376.2</ele>
        <time>2022-03-09T13:38:49Z</time>
      </trkpt>
      <trkpt lat="46.73636" lon="5.60786">
        <ele>376.6</ele>
        <time>2022-03-09T13:38:50Z</time>
      </trkpt>
      <trkpt lat="46.73635" lon="5.60788">
        <ele>376.8</ele>
        <time>2022-03-09T13:38:51Z</time>
      </trkpt>
      <trkpt lat="46.73633" lon="5.60791">
        <ele>377</ele>
        <time>2022-03-09T13:38:52Z</time>
      </trkpt>
      <trkpt lat="46.73631" lon="5.60793">
        <ele>377.4</ele>
        <time>2022-03-09T13:38:53Z</time>
      </trkpt>
      <trkpt lat="46.7363" lon="5.60795">
        <ele>377.6</ele>
        <time>2022-03-09T13:38:54Z</time>
      </trkpt>
      <trkpt lat="46.73628" lon="5.60796">
        <ele>378</ele>
        <time>2022-03-09T13:38:55Z</time>
      </trkpt>
      <trkpt lat="46.73627" lon="5.60798">
        <ele>378.4</ele>
        <time>2022-03-09T13:38:56Z</time>
      </trkpt>
      <trkpt lat="46.73625" lon="5.608">
        <ele>378.6</ele>
        <time>2022-03-09T13:38:57Z</time>
      </trkpt>
      <trkpt lat="46.73624" lon="5.60803">
        <ele>379</ele>
        <time>2022-03-09T13:38:58Z</time>
      </trkpt>
      <trkpt lat="46.73622" lon="5.60805">
        <ele>379.2</ele>
        <time>2022-03-09T13:38:59Z</time>
      </trkpt>
      <trkpt lat="46.73621" lon="5.60808">
        <ele>379.6</ele>
        <time>2022-03-09T13:39:00Z</time>
      </trkpt>
      <trkpt lat="46.73619" lon="5.6081">
        <ele>379.8</ele>
        <time>2022-03-09T13:39:01Z</time>
      </trkpt>
      <trkpt lat="46.73618" lon="5.60812">
        <ele>380</ele>
        <time>2022-03-09T13:39:02Z</time>
      </trkpt>
      <trkpt lat="46.73616" lon="5.60814">
        <ele>380.2</ele>
        <time>2022-03-09T13:39:03Z</time>
      </trkpt>
      <trkpt lat="46.73614" lon="5.60815">
        <ele>380.6</ele>
        <time>2022-03-09T13:39:04Z</time>
      </trkpt>
      <trkpt lat="46.73613" lon="5.60818">
        <ele>380.8</ele>
        <time>2022-03-09T13:39:05Z</time>
      </trkpt>
      <trkpt lat="46.73612" lon="5.6082">
        <ele>380.8</ele>
        <time>2022-03-09T13:39:06Z</time>
      </trkpt>
      <trkpt lat="46.7361" lon="5.60823">
        <ele>381.2</ele>
        <time>2022-03-09T13:39:07Z</time>
      </trkpt>
      <trkpt lat="46.73609" lon="5.60825">
        <ele>381.4</ele>
        <time>2022-03-09T13:39:08Z</time>
      </trkpt>
      <trkpt lat="46.73607" lon="5.60827">
        <ele>381.4</ele>
        <time>2022-03-09T13:39:09Z</time>
      </trkpt>
      <trkpt lat="46.73605" lon="5.60829">
        <ele>381.8</ele>
        <time>2022-03-09T13:39:10Z</time>
      </trkpt>
      <trkpt lat="46.73603" lon="5.60831">
        <ele>382</ele>
        <time>2022-03-09T13:39:11Z</time>
      </trkpt>
      <trkpt lat="46.73602" lon="5.60834">
        <ele>382</ele>
        <time>2022-03-09T13:39:12Z</time>
      </trkpt>
      <trkpt lat="46.736" lon="5.60836">
        <ele>382.4</ele>
        <time>2022-03-09T13:39:13Z</time>
      </trkpt>
      <trkpt lat="46.73598" lon="5.60838">
        <ele>382.4</ele>
        <time>2022-03-09T13:39:14Z</time>
      </trkpt>
      <trkpt lat="46.73597" lon="5.60841">
        <ele>382.8</ele>
        <time>2022-03-09T13:39:15Z</time>
      </trkpt>
      <trkpt lat="46.73595" lon="5.60843">
        <ele>382.8</ele>
        <time>2022-03-09T13:39:16Z</time>
      </trkpt>
      <trkpt lat="46.73593" lon="5.60846">
        <ele>383</ele>
        <time>2022-03-09T13:39:17Z</time>
      </trkpt>
      <trkpt lat="46.73591" lon="5.60849">
        <ele>383</ele>
        <time>2022-03-09T13:39:18Z</time>
      </trkpt>
      <trkpt lat="46.73589" lon="5.60851">
        <ele>383.4</ele>
        <time>2022-03-09T13:39:19Z</time>
      </trkpt>
      <trkpt lat="46.73587" lon="5.60854">
        <ele>383.4</ele>
        <time>2022-03-09T13:39:20Z</time>
      </trkpt>
      <trkpt lat="46.73586" lon="5.60857">
        <ele>383.6</ele>
        <time>2022-03-09T13:39:21Z</time>
      </trkpt>
      <trkpt lat="46.73584" lon="5.6086">
        <ele>383.6</ele>
        <time>2022-03-09T13:39:22Z</time>
      </trkpt>
      <trkpt lat="46.73582" lon="5.60863">
        <ele>384</ele>
        <time>2022-03-09T13:39:23Z</time>
      </trkpt>
      <trkpt lat="46.7358" lon="5.60865">
        <ele>384</ele>
        <time>2022-03-09T13:39:24Z</time>
      </trkpt>
      <trkpt lat="46.73578" lon="5.60868">
        <ele>384.2</ele>
        <time>2022-03-09T13:39:25Z</time>
      </trkpt>
      <trkpt lat="46.73576" lon="5.60871">
        <ele>384.2</ele>
        <time>2022-03-09T13:39:26Z</time>
      </trkpt>
      <trkpt lat="46.73575" lon="5.60875">
        <ele>384.2</ele>
        <time>2022-03-09T13:39:27Z</time>
      </trkpt>
      <trkpt lat="46.73572" lon="5.60878">
        <ele>384.2</ele>
        <time>2022-03-09T13:39:28Z</time>
      </trkpt>
      <trkpt lat="46.7357" lon="5.60881">
        <ele>384.2</ele>
        <time>2022-03-09T13:39:29Z</time>
      </trkpt>
      <trkpt lat="46.73567" lon="5.60885">
        <ele>384.2</ele>
        <time>2022-03-09T13:39:30Z</time>
      </trkpt>
      <trkpt lat="46.73565" lon="5.60888">
        <ele>384.2</ele>
        <time>2022-03-09T13:39:31Z</time>
      </trkpt>
      <trkpt lat="46.73562" lon="5.60892">
        <ele>384.2</ele>
        <time>2022-03-09T13:39:32Z</time>
      </trkpt>
      <trkpt lat="46.7356" lon="5.60897">
        <ele>384.2</ele>
        <time>2022-03-09T13:39:33Z</time>
      </trkpt>
      <trkpt lat="46.73557" lon="5.60902">
        <ele>384.2</ele>
        <time>2022-03-09T13:39:34Z</time>
      </trkpt>
      <trkpt lat="46.73555" lon="5.60908">
        <ele>383.8</ele>
        <time>2022-03-09T13:39:35Z</time>
      </trkpt>
      <trkpt lat="46.73553" lon="5.60913">
        <ele>383.8</ele>
        <time>2022-03-09T13:39:36Z</time>
      </trkpt>
      <trkpt lat="46.73552" lon="5.60919">
        <ele>383.8</ele>
        <time>2022-03-09T13:39:37Z</time>
      </trkpt>
      <trkpt lat="46.7355" lon="5.60924">
        <ele>383.6</ele>
        <time>2022-03-09T13:39:38Z</time>
      </trkpt>
      <trkpt lat="46.73548" lon="5.6093">
        <ele>383.6</ele>
        <time>2022-03-09T13:39:39Z</time>
      </trkpt>
      <trkpt lat="46.73547" lon="5.60935">
        <ele>383.6</ele>
        <time>2022-03-09T13:39:40Z</time>
      </trkpt>
      <trkpt lat="46.73545" lon="5.60942">
        <ele>383.6</ele>
        <time>2022-03-09T13:39:41Z</time>
      </trkpt>
      <trkpt lat="46.73544" lon="5.60948">
        <ele>383.2</ele>
        <time>2022-03-09T13:39:42Z</time>
      </trkpt>
      <trkpt lat="46.73542" lon="5.60955">
        <ele>383</ele>
        <time>2022-03-09T13:39:43Z</time>
      </trkpt>
      <trkpt lat="46.7354" lon="5.60964">
        <ele>382.6</ele>
        <time>2022-03-09T13:39:44Z</time>
      </trkpt>
      <trkpt lat="46.73538" lon="5.60973">
        <ele>382.2</ele>
        <time>2022-03-09T13:39:45Z</time>
      </trkpt>
      <trkpt lat="46.73535" lon="5.60983">
        <ele>381.6</ele>
        <time>2022-03-09T13:39:46Z</time>
      </trkpt>
      <trkpt lat="46.73532" lon="5.60994">
        <ele>381.2</ele>
        <time>2022-03-09T13:39:47Z</time>
      </trkpt>
      <trkpt lat="46.7353" lon="5.61005">
        <ele>380.6</ele>
        <time>2022-03-09T13:39:48Z</time>
      </trkpt>
      <trkpt lat="46.73527" lon="5.61017">
        <ele>380.2</ele>
        <time>2022-03-09T13:39:49Z</time>
      </trkpt>
      <trkpt lat="46.73524" lon="5.61027">
        <ele>379.6</ele>
        <time>2022-03-09T13:39:50Z</time>
      </trkpt>
      <trkpt lat="46.73522" lon="5.61037">
        <ele>379.2</ele>
        <time>2022-03-09T13:39:51Z</time>
      </trkpt>
      <trkpt lat="46.73519" lon="5.61047">
        <ele>378.8</ele>
        <time>2022-03-09T13:39:52Z</time>
      </trkpt>
      <trkpt lat="46.73517" lon="5.61057">
        <ele>378.4</ele>
        <time>2022-03-09T13:39:53Z</time>
      </trkpt>
      <trkpt lat="46.73514" lon="5.61067">
        <ele>378</ele>
        <time>2022-03-09T13:39:54Z</time>
      </trkpt>
      <trkpt lat="46.73512" lon="5.61077">
        <ele>377.8</ele>
        <time>2022-03-09T13:39:55Z</time>
      </trkpt>
      <trkpt lat="46.73509" lon="5.61087">
        <ele>377.4</ele>
        <time>2022-03-09T13:39:56Z</time>
      </trkpt>
      <trkpt lat="46.73506" lon="5.61097">
        <ele>377.4</ele>
        <time>2022-03-09T13:39:57Z</time>
      </trkpt>
      <trkpt lat="46.73504" lon="5.61107">
        <ele>377.2</ele>
        <time>2022-03-09T13:39:58Z</time>
      </trkpt>
      <trkpt lat="46.73501" lon="5.61118">
        <ele>377</ele>
        <time>2022-03-09T13:39:59Z</time>
      </trkpt>
      <trkpt lat="46.73498" lon="5.61129">
        <ele>376.6</ele>
        <time>2022-03-09T13:40:00Z</time>
      </trkpt>
      <trkpt lat="46.73495" lon="5.61139">
        <ele>376.2</ele>
        <time>2022-03-09T13:40:01Z</time>
      </trkpt>
      <trkpt lat="46.73493" lon="5.6115">
        <ele>376</ele>
        <time>2022-03-09T13:40:02Z</time>
      </trkpt>
      <trkpt lat="46.7349" lon="5.61161">
        <ele>375.8</ele>
        <time>2022-03-09T13:40:03Z</time>
      </trkpt>
      <trkpt lat="46.73488" lon="5.61172">
        <ele>375.4</ele>
        <time>2022-03-09T13:40:04Z</time>
      </trkpt>
      <trkpt lat="46.73486" lon="5.61182">
        <ele>375.4</ele>
        <time>2022-03-09T13:40:05Z</time>
      </trkpt>
      <trkpt lat="46.73483" lon="5.61193">
        <ele>375.2</ele>
        <time>2022-03-09T13:40:06Z</time>
      </trkpt>
      <trkpt lat="46.73481" lon="5.61203">
        <ele>375.2</ele>
        <time>2022-03-09T13:40:07Z</time>
      </trkpt>
      <trkpt lat="46.73478" lon="5.61213">
        <ele>375</ele>
        <time>2022-03-09T13:40:08Z</time>
      </trkpt>
      <trkpt lat="46.73476" lon="5.61222">
        <ele>375</ele>
        <time>2022-03-09T13:40:09Z</time>
      </trkpt>
      <trkpt lat="46.73474" lon="5.6123">
        <ele>374.6</ele>
        <time>2022-03-09T13:40:10Z</time>
      </trkpt>
      <trkpt lat="46.73472" lon="5.61239">
        <ele>374.2</ele>
        <time>2022-03-09T13:40:11Z</time>
      </trkpt>
      <trkpt lat="46.7347" lon="5.61247">
        <ele>373.8</ele>
        <time>2022-03-09T13:40:12Z</time>
      </trkpt>
      <trkpt lat="46.73467" lon="5.61255">
        <ele>373.4</ele>
        <time>2022-03-09T13:40:13Z</time>
      </trkpt>
      <trkpt lat="46.73465" lon="5.61263">
        <ele>372.8</ele>
        <time>2022-03-09T13:40:14Z</time>
      </trkpt>
      <trkpt lat="46.73463" lon="5.6127">
        <ele>372.4</ele>
        <time>2022-03-09T13:40:15Z</time>
      </trkpt>
      <trkpt lat="46.73461" lon="5.61276">
        <ele>371.6</ele>
        <time>2022-03-09T13:40:16Z</time>
      </trkpt>
      <trkpt lat="46.73459" lon="5.61283">
        <ele>370.8</ele>
        <time>2022-03-09T13:40:17Z</time>
      </trkpt>
      <trkpt lat="46.73456" lon="5.6129">
        <ele>370</ele>
        <time>2022-03-09T13:40:18Z</time>
      </trkpt>
      <trkpt lat="46.73453" lon="5.61297">
        <ele>369.2</ele>
        <time>2022-03-09T13:40:19Z</time>
      </trkpt>
      <trkpt lat="46.7345" lon="5.61305">
        <ele>368.4</ele>
        <time>2022-03-09T13:40:20Z</time>
      </trkpt>
      <trkpt lat="46.73446" lon="5.61311">
        <ele>367.6</ele>
        <time>2022-03-09T13:40:21Z</time>
      </trkpt>
      <trkpt lat="46.73442" lon="5.61318">
        <ele>366.8</ele>
        <time>2022-03-09T13:40:22Z</time>
      </trkpt>
      <trkpt lat="46.73436" lon="5.61325">
        <ele>366.2</ele>
        <time>2022-03-09T13:40:23Z</time>
      </trkpt>
      <trkpt lat="46.73431" lon="5.6133">
        <ele>365.6</ele>
        <time>2022-03-09T13:40:24Z</time>
      </trkpt>
      <trkpt lat="46.73424" lon="5.61334">
        <ele>364.8</ele>
        <time>2022-03-09T13:40:25Z</time>
      </trkpt>
      <trkpt lat="46.73417" lon="5.61335">
        <ele>364.2</ele>
        <time>2022-03-09T13:40:26Z</time>
      </trkpt>
      <trkpt lat="46.73409" lon="5.61335">
        <ele>363.6</ele>
        <time>2022-03-09T13:40:27Z</time>
      </trkpt>
      <trkpt lat="46.73401" lon="5.61334">
        <ele>363.2</ele>
        <time>2022-03-09T13:40:28Z</time>
      </trkpt>
      <trkpt lat="46.73393" lon="5.61332">
        <ele>362.6</ele>
        <time>2022-03-09T13:40:29Z</time>
      </trkpt>
      <trkpt lat="46.73384" lon="5.6133">
        <ele>362</ele>
        <time>2022-03-09T13:40:30Z</time>
      </trkpt>
      <trkpt lat="46.73375" lon="5.61327">
        <ele>361.4</ele>
        <time>2022-03-09T13:40:31Z</time>
      </trkpt>
      <trkpt lat="46.73361" lon="5.61318">
        <ele>361.4</ele>
        <time>2022-03-09T13:40:32Z</time>
      </trkpt>
      <trkpt lat="46.73357" lon="5.61315">
        <ele>360.6</ele>
        <time>2022-03-09T13:40:33Z</time>
      </trkpt>
      <trkpt lat="46.73348" lon="5.61311">
        <ele>360</ele>
        <time>2022-03-09T13:40:34Z</time>
      </trkpt>
      <trkpt lat="46.7334" lon="5.61308">
        <ele>359.2</ele>
        <time>2022-03-09T13:40:35Z</time>
      </trkpt>
      <trkpt lat="46.73332" lon="5.61304">
        <ele>358.6</ele>
        <time>2022-03-09T13:40:36Z</time>
      </trkpt>
      <trkpt lat="46.73325" lon="5.61299">
        <ele>357.8</ele>
        <time>2022-03-09T13:40:37Z</time>
      </trkpt>
      <trkpt lat="46.73317" lon="5.61293">
        <ele>357.2</ele>
        <time>2022-03-09T13:40:38Z</time>
      </trkpt>
      <trkpt lat="46.7331" lon="5.61286">
        <ele>356.6</ele>
        <time>2022-03-09T13:40:39Z</time>
      </trkpt>
      <trkpt lat="46.73304" lon="5.61277">
        <ele>356</ele>
        <time>2022-03-09T13:40:40Z</time>
      </trkpt>
      <trkpt lat="46.73297" lon="5.61266">
        <ele>355.2</ele>
        <time>2022-03-09T13:40:41Z</time>
      </trkpt>
      <trkpt lat="46.73291" lon="5.61255">
        <ele>354.6</ele>
        <time>2022-03-09T13:40:42Z</time>
      </trkpt>
      <trkpt lat="46.73285" lon="5.61244">
        <ele>353.8</ele>
        <time>2022-03-09T13:40:43Z</time>
      </trkpt>
      <trkpt lat="46.7328" lon="5.61233">
        <ele>353.2</ele>
        <time>2022-03-09T13:40:44Z</time>
      </trkpt>
      <trkpt lat="46.73274" lon="5.61222">
        <ele>352.6</ele>
        <time>2022-03-09T13:40:45Z</time>
      </trkpt>
      <trkpt lat="46.73267" lon="5.61211">
        <ele>351.8</ele>
        <time>2022-03-09T13:40:46Z</time>
      </trkpt>
      <trkpt lat="46.73262" lon="5.61199">
        <ele>351.2</ele>
        <time>2022-03-09T13:40:47Z</time>
      </trkpt>
      <trkpt lat="46.73256" lon="5.61187">
        <ele>350.4</ele>
        <time>2022-03-09T13:40:48Z</time>
      </trkpt>
      <trkpt lat="46.7325" lon="5.61175">
        <ele>349.6</ele>
        <time>2022-03-09T13:40:49Z</time>
      </trkpt>
      <trkpt lat="46.73245" lon="5.61164">
        <ele>348.8</ele>
        <time>2022-03-09T13:40:50Z</time>
      </trkpt>
      <trkpt lat="46.73243" lon="5.61152">
        <ele>348.2</ele>
        <time>2022-03-09T13:40:51Z</time>
      </trkpt>
      <trkpt lat="46.73241" lon="5.61138">
        <ele>347.4</ele>
        <time>2022-03-09T13:40:52Z</time>
      </trkpt>
      <trkpt lat="46.7324" lon="5.61124">
        <ele>346.6</ele>
        <time>2022-03-09T13:40:53Z</time>
      </trkpt>
      <trkpt lat="46.7324" lon="5.61124">
        <ele>345.8</ele>
        <time>2022-03-09T13:40:54Z</time>
      </trkpt>
      <trkpt lat="46.73239" lon="5.61109">
        <ele>345</ele>
        <time>2022-03-09T13:40:55Z</time>
      </trkpt>
      <trkpt lat="46.73239" lon="5.61094">
        <ele>344.2</ele>
        <time>2022-03-09T13:40:56Z</time>
      </trkpt>
      <trkpt lat="46.73239" lon="5.61079">
        <ele>343.4</ele>
        <time>2022-03-09T13:40:57Z</time>
      </trkpt>
      <trkpt lat="46.73238" lon="5.61066">
        <ele>342.6</ele>
        <time>2022-03-09T13:40:58Z</time>
      </trkpt>
      <trkpt lat="46.73237" lon="5.61053">
        <ele>341.8</ele>
        <time>2022-03-09T13:40:59Z</time>
      </trkpt>
      <trkpt lat="46.73236" lon="5.61041">
        <ele>341.2</ele>
        <time>2022-03-09T13:41:00Z</time>
      </trkpt>
      <trkpt lat="46.73233" lon="5.6103">
        <ele>340.4</ele>
        <time>2022-03-09T13:41:01Z</time>
      </trkpt>
      <trkpt lat="46.7323" lon="5.61021">
        <ele>339.8</ele>
        <time>2022-03-09T13:41:02Z</time>
      </trkpt>
      <trkpt lat="46.73226" lon="5.61013">
        <ele>339.2</ele>
        <time>2022-03-09T13:41:03Z</time>
      </trkpt>
      <trkpt lat="46.73222" lon="5.61006">
        <ele>338.6</ele>
        <time>2022-03-09T13:41:04Z</time>
      </trkpt>
      <trkpt lat="46.73217" lon="5.60999">
        <ele>338</ele>
        <time>2022-03-09T13:41:05Z</time>
      </trkpt>
      <trkpt lat="46.73213" lon="5.60993">
        <ele>337.6</ele>
        <time>2022-03-09T13:41:06Z</time>
      </trkpt>
      <trkpt lat="46.7321" lon="5.60987">
        <ele>337</ele>
        <time>2022-03-09T13:41:07Z</time>
      </trkpt>
      <trkpt lat="46.73206" lon="5.60981">
        <ele>336.4</ele>
        <time>2022-03-09T13:41:08Z</time>
      </trkpt>
      <trkpt lat="46.73203" lon="5.60976">
        <ele>336</ele>
        <time>2022-03-09T13:41:09Z</time>
      </trkpt>
      <trkpt lat="46.732" lon="5.60971">
        <ele>335.6</ele>
        <time>2022-03-09T13:41:10Z</time>
      </trkpt>
      <trkpt lat="46.73197" lon="5.60969">
        <ele>335.2</ele>
        <time>2022-03-09T13:41:11Z</time>
      </trkpt>
      <trkpt lat="46.73193" lon="5.60968">
        <ele>335.2</ele>
        <time>2022-03-09T13:41:12Z</time>
      </trkpt>
      <trkpt lat="46.73189" lon="5.60969">
        <ele>335</ele>
        <time>2022-03-09T13:41:13Z</time>
      </trkpt>
      <trkpt lat="46.73186" lon="5.6097">
        <ele>335</ele>
        <time>2022-03-09T13:41:14Z</time>
      </trkpt>
      <trkpt lat="46.73182" lon="5.60969">
        <ele>335</ele>
        <time>2022-03-09T13:41:15Z</time>
      </trkpt>
      <trkpt lat="46.73179" lon="5.60967">
        <ele>335.4</ele>
        <time>2022-03-09T13:41:16Z</time>
      </trkpt>
      <trkpt lat="46.73176" lon="5.60964">
        <ele>335.6</ele>
        <time>2022-03-09T13:41:17Z</time>
      </trkpt>
      <trkpt lat="46.73173" lon="5.60962">
        <ele>336</ele>
        <time>2022-03-09T13:41:18Z</time>
      </trkpt>
      <trkpt lat="46.73171" lon="5.60959">
        <ele>336.2</ele>
        <time>2022-03-09T13:41:19Z</time>
      </trkpt>
      <trkpt lat="46.73168" lon="5.60956">
        <ele>336.6</ele>
        <time>2022-03-09T13:41:20Z</time>
      </trkpt>
      <trkpt lat="46.73166" lon="5.60953">
        <ele>337</ele>
        <time>2022-03-09T13:41:21Z</time>
      </trkpt>
      <trkpt lat="46.73164" lon="5.6095">
        <ele>337.4</ele>
        <time>2022-03-09T13:41:22Z</time>
      </trkpt>
      <trkpt lat="46.73162" lon="5.60948">
        <ele>337.8</ele>
        <time>2022-03-09T13:41:23Z</time>
      </trkpt>
      <trkpt lat="46.73159" lon="5.60946">
        <ele>338.2</ele>
        <time>2022-03-09T13:41:24Z</time>
      </trkpt>
      <trkpt lat="46.73157" lon="5.60943">
        <ele>338.6</ele>
        <time>2022-03-09T13:41:25Z</time>
      </trkpt>
      <trkpt lat="46.73155" lon="5.60941">
        <ele>339.2</ele>
        <time>2022-03-09T13:41:26Z</time>
      </trkpt>
      <trkpt lat="46.73153" lon="5.60939">
        <ele>339.6</ele>
        <time>2022-03-09T13:41:27Z</time>
      </trkpt>
      <trkpt lat="46.73151" lon="5.60937">
        <ele>340</ele>
        <time>2022-03-09T13:41:28Z</time>
      </trkpt>
      <trkpt lat="46.73149" lon="5.60934">
        <ele>340.4</ele>
        <time>2022-03-09T13:41:29Z</time>
      </trkpt>
      <trkpt lat="46.73147" lon="5.60932">
        <ele>340.6</ele>
        <time>2022-03-09T13:41:30Z</time>
      </trkpt>
      <trkpt lat="46.73145" lon="5.6093">
        <ele>340.8</ele>
        <time>2022-03-09T13:41:31Z</time>
      </trkpt>
      <trkpt lat="46.73143" lon="5.60928">
        <ele>341.2</ele>
        <time>2022-03-09T13:41:32Z</time>
      </trkpt>
      <trkpt lat="46.73141" lon="5.60926">
        <ele>341.4</ele>
        <time>2022-03-09T13:41:33Z</time>
      </trkpt>
      <trkpt lat="46.73139" lon="5.60924">
        <ele>341.8</ele>
        <time>2022-03-09T13:41:34Z</time>
      </trkpt>
      <trkpt lat="46.73137" lon="5.60922">
        <ele>342</ele>
        <time>2022-03-09T13:41:35Z</time>
      </trkpt>
      <trkpt lat="46.73135" lon="5.6092">
        <ele>342.2</ele>
        <time>2022-03-09T13:41:36Z</time>
      </trkpt>
      <trkpt lat="46.73133" lon="5.60918">
        <ele>342.2</ele>
        <time>2022-03-09T13:41:37Z</time>
      </trkpt>
      <trkpt lat="46.73131" lon="5.60915">
        <ele>342.6</ele>
        <time>2022-03-09T13:41:38Z</time>
      </trkpt>
      <trkpt lat="46.7313" lon="5.60913">
        <ele>343.2</ele>
        <time>2022-03-09T13:41:39Z</time>
      </trkpt>
      <trkpt lat="46.73126" lon="5.60909">
        <ele>343.4</ele>
        <time>2022-03-09T13:41:40Z</time>
      </trkpt>
      <trkpt lat="46.73124" lon="5.60907">
        <ele>343.6</ele>
        <time>2022-03-09T13:41:41Z</time>
      </trkpt>
      <trkpt lat="46.73123" lon="5.60905">
        <ele>343.8</ele>
        <time>2022-03-09T13:41:42Z</time>
      </trkpt>
      <trkpt lat="46.73121" lon="5.60903">
        <ele>343.8</ele>
        <time>2022-03-09T13:41:43Z</time>
      </trkpt>
      <trkpt lat="46.73119" lon="5.60901">
        <ele>344.2</ele>
        <time>2022-03-09T13:41:44Z</time>
      </trkpt>
      <trkpt lat="46.73117" lon="5.60899">
        <ele>344.2</ele>
        <time>2022-03-09T13:41:45Z</time>
      </trkpt>
      <trkpt lat="46.73115" lon="5.60897">
        <ele>344.4</ele>
        <time>2022-03-09T13:41:46Z</time>
      </trkpt>
      <trkpt lat="46.73113" lon="5.60894">
        <ele>344.4</ele>
        <time>2022-03-09T13:41:47Z</time>
      </trkpt>
      <trkpt lat="46.7311" lon="5.60892">
        <ele>344.8</ele>
        <time>2022-03-09T13:41:48Z</time>
      </trkpt>
      <trkpt lat="46.73108" lon="5.6089">
        <ele>344.8</ele>
        <time>2022-03-09T13:41:49Z</time>
      </trkpt>
      <trkpt lat="46.73106" lon="5.60888">
        <ele>345</ele>
        <time>2022-03-09T13:41:50Z</time>
      </trkpt>
      <trkpt lat="46.73104" lon="5.60886">
        <ele>345</ele>
        <time>2022-03-09T13:41:51Z</time>
      </trkpt>
      <trkpt lat="46.73102" lon="5.60883">
        <ele>345.2</ele>
        <time>2022-03-09T13:41:52Z</time>
      </trkpt>
      <trkpt lat="46.731" lon="5.60881">
        <ele>345.4</ele>
        <time>2022-03-09T13:41:53Z</time>
      </trkpt>
      <trkpt lat="46.73098" lon="5.60878">
        <ele>345.4</ele>
        <time>2022-03-09T13:41:54Z</time>
      </trkpt>
      <trkpt lat="46.73096" lon="5.60876">
        <ele>345.8</ele>
        <time>2022-03-09T13:41:55Z</time>
      </trkpt>
      <trkpt lat="46.73093" lon="5.60874">
        <ele>345.8</ele>
        <time>2022-03-09T13:41:56Z</time>
      </trkpt>
      <trkpt lat="46.73091" lon="5.60871">
        <ele>346</ele>
        <time>2022-03-09T13:41:57Z</time>
      </trkpt>
      <trkpt lat="46.73089" lon="5.60869">
        <ele>346</ele>
        <time>2022-03-09T13:41:58Z</time>
      </trkpt>
      <trkpt lat="46.73087" lon="5.60867">
        <ele>346.2</ele>
        <time>2022-03-09T13:41:59Z</time>
      </trkpt>
      <trkpt lat="46.73085" lon="5.60865">
        <ele>346.2</ele>
        <time>2022-03-09T13:42:00Z</time>
      </trkpt>
      <trkpt lat="46.73084" lon="5.60862">
        <ele>346.2</ele>
        <time>2022-03-09T13:42:01Z</time>
      </trkpt>
      <trkpt lat="46.73082" lon="5.60861">
        <ele>346.2</ele>
        <time>2022-03-09T13:42:02Z</time>
      </trkpt>
      <trkpt lat="46.7308" lon="5.60859">
        <ele>346.2</ele>
        <time>2022-03-09T13:42:03Z</time>
      </trkpt>
      <trkpt lat="46.73079" lon="5.60857">
        <ele>346</ele>
        <time>2022-03-09T13:42:04Z</time>
      </trkpt>
      <trkpt lat="46.73077" lon="5.60856">
        <ele>346</ele>
        <time>2022-03-09T13:42:05Z</time>
      </trkpt>
      <trkpt lat="46.73075" lon="5.60855">
        <ele>345.6</ele>
        <time>2022-03-09T13:42:06Z</time>
      </trkpt>
      <trkpt lat="46.73072" lon="5.60856">
        <ele>345.6</ele>
        <time>2022-03-09T13:42:07Z</time>
      </trkpt>
      <trkpt lat="46.73069" lon="5.60858">
        <ele>345.6</ele>
        <time>2022-03-09T13:42:08Z</time>
      </trkpt>
      <trkpt lat="46.73067" lon="5.60862">
        <ele>345.6</ele>
        <time>2022-03-09T13:42:09Z</time>
      </trkpt>
      <trkpt lat="46.73066" lon="5.60865">
        <ele>345.6</ele>
        <time>2022-03-09T13:42:10Z</time>
      </trkpt>
      <trkpt lat="46.73065" lon="5.60869">
        <ele>346</ele>
        <time>2022-03-09T13:42:11Z</time>
      </trkpt>
      <trkpt lat="46.73064" lon="5.60873">
        <ele>346.4</ele>
        <time>2022-03-09T13:42:12Z</time>
      </trkpt>
      <trkpt lat="46.73062" lon="5.60876">
        <ele>346.8</ele>
        <time>2022-03-09T13:42:13Z</time>
      </trkpt>
      <trkpt lat="46.73061" lon="5.60879">
        <ele>347.2</ele>
        <time>2022-03-09T13:42:14Z</time>
      </trkpt>
      <trkpt lat="46.73059" lon="5.60881">
        <ele>347.6</ele>
        <time>2022-03-09T13:42:15Z</time>
      </trkpt>
      <trkpt lat="46.73058" lon="5.60884">
        <ele>348</ele>
        <time>2022-03-09T13:42:16Z</time>
      </trkpt>
      <trkpt lat="46.73057" lon="5.60886">
        <ele>348.4</ele>
        <time>2022-03-09T13:42:17Z</time>
      </trkpt>
      <trkpt lat="46.73055" lon="5.60889">
        <ele>349</ele>
        <time>2022-03-09T13:42:18Z</time>
      </trkpt>
      <trkpt lat="46.73054" lon="5.60891">
        <ele>349.4</ele>
        <time>2022-03-09T13:42:19Z</time>
      </trkpt>
      <trkpt lat="46.73053" lon="5.60894">
        <ele>349.8</ele>
        <time>2022-03-09T13:42:20Z</time>
      </trkpt>
      <trkpt lat="46.73052" lon="5.60896">
        <ele>350.2</ele>
        <time>2022-03-09T13:42:21Z</time>
      </trkpt>
      <trkpt lat="46.73051" lon="5.60899">
        <ele>350.6</ele>
        <time>2022-03-09T13:42:22Z</time>
      </trkpt>
      <trkpt lat="46.7305" lon="5.60902">
        <ele>351</ele>
        <time>2022-03-09T13:42:23Z</time>
      </trkpt>
      <trkpt lat="46.73048" lon="5.60905">
        <ele>351.2</ele>
        <time>2022-03-09T13:42:24Z</time>
      </trkpt>
      <trkpt lat="46.73047" lon="5.60907">
        <ele>351.6</ele>
        <time>2022-03-09T13:42:25Z</time>
      </trkpt>
      <trkpt lat="46.73046" lon="5.6091">
        <ele>351.8</ele>
        <time>2022-03-09T13:42:26Z</time>
      </trkpt>
      <trkpt lat="46.73044" lon="5.60913">
        <ele>352.2</ele>
        <time>2022-03-09T13:42:27Z</time>
      </trkpt>
      <trkpt lat="46.73043" lon="5.60915">
        <ele>352.4</ele>
        <time>2022-03-09T13:42:28Z</time>
      </trkpt>
      <trkpt lat="46.73041" lon="5.60918">
        <ele>352.8</ele>
        <time>2022-03-09T13:42:29Z</time>
      </trkpt>
      <trkpt lat="46.7304" lon="5.60921">
        <ele>353</ele>
        <time>2022-03-09T13:42:30Z</time>
      </trkpt>
      <trkpt lat="46.73039" lon="5.60924">
        <ele>353</ele>
        <time>2022-03-09T13:42:31Z</time>
      </trkpt>
      <trkpt lat="46.73037" lon="5.60927">
        <ele>353.4</ele>
        <time>2022-03-09T13:42:32Z</time>
      </trkpt>
      <trkpt lat="46.73035" lon="5.6093">
        <ele>353.4</ele>
        <time>2022-03-09T13:42:33Z</time>
      </trkpt>
      <trkpt lat="46.73034" lon="5.60933">
        <ele>353.6</ele>
        <time>2022-03-09T13:42:34Z</time>
      </trkpt>
      <trkpt lat="46.73032" lon="5.60936">
        <ele>353.8</ele>
        <time>2022-03-09T13:42:35Z</time>
      </trkpt>
      <trkpt lat="46.73031" lon="5.60939">
        <ele>353.8</ele>
        <time>2022-03-09T13:42:36Z</time>
      </trkpt>
      <trkpt lat="46.73029" lon="5.60943">
        <ele>354</ele>
        <time>2022-03-09T13:42:37Z</time>
      </trkpt>
      <trkpt lat="46.73028" lon="5.60946">
        <ele>354</ele>
        <time>2022-03-09T13:42:38Z</time>
      </trkpt>
      <trkpt lat="46.73026" lon="5.60949">
        <ele>354.2</ele>
        <time>2022-03-09T13:42:39Z</time>
      </trkpt>
      <trkpt lat="46.73024" lon="5.60952">
        <ele>354.2</ele>
        <time>2022-03-09T13:42:40Z</time>
      </trkpt>
      <trkpt lat="46.73022" lon="5.60956">
        <ele>354.2</ele>
        <time>2022-03-09T13:42:41Z</time>
      </trkpt>
      <trkpt lat="46.73021" lon="5.60959">
        <ele>354.6</ele>
        <time>2022-03-09T13:42:42Z</time>
      </trkpt>
      <trkpt lat="46.73019" lon="5.60963">
        <ele>354.6</ele>
        <time>2022-03-09T13:42:43Z</time>
      </trkpt>
      <trkpt lat="46.73017" lon="5.60967">
        <ele>354.6</ele>
        <time>2022-03-09T13:42:44Z</time>
      </trkpt>
      <trkpt lat="46.73016" lon="5.6097">
        <ele>354.8</ele>
        <time>2022-03-09T13:42:45Z</time>
      </trkpt>
      <trkpt lat="46.73014" lon="5.60974">
        <ele>354.8</ele>
        <time>2022-03-09T13:42:46Z</time>
      </trkpt>
      <trkpt lat="46.73012" lon="5.60977">
        <ele>355.2</ele>
        <time>2022-03-09T13:42:47Z</time>
      </trkpt>
      <trkpt lat="46.73011" lon="5.60981">
        <ele>355.2</ele>
        <time>2022-03-09T13:42:48Z</time>
      </trkpt>
      <trkpt lat="46.73009" lon="5.60984">
        <ele>355.4</ele>
        <time>2022-03-09T13:42:49Z</time>
      </trkpt>
      <trkpt lat="46.73008" lon="5.60987">
        <ele>355.8</ele>
        <time>2022-03-09T13:42:50Z</time>
      </trkpt>
      <trkpt lat="46.73006" lon="5.6099">
        <ele>356</ele>
        <time>2022-03-09T13:42:51Z</time>
      </trkpt>
      <trkpt lat="46.73004" lon="5.60992">
        <ele>356.2</ele>
        <time>2022-03-09T13:42:52Z</time>
      </trkpt>
      <trkpt lat="46.73003" lon="5.60995">
        <ele>356.6</ele>
        <time>2022-03-09T13:42:53Z</time>
      </trkpt>
      <trkpt lat="46.73001" lon="5.60996">
        <ele>356.6</ele>
        <time>2022-03-09T13:42:54Z</time>
      </trkpt>
      <trkpt lat="46.72999" lon="5.60998">
        <ele>357</ele>
        <time>2022-03-09T13:42:55Z</time>
      </trkpt>
      <trkpt lat="46.72998" lon="5.60999">
        <ele>357</ele>
        <time>2022-03-09T13:42:56Z</time>
      </trkpt>
      <trkpt lat="46.72995" lon="5.61">
        <ele>357.2</ele>
        <time>2022-03-09T13:42:57Z</time>
      </trkpt>
      <trkpt lat="46.72993" lon="5.60999">
        <ele>357.2</ele>
        <time>2022-03-09T13:42:58Z</time>
      </trkpt>
      <trkpt lat="46.7299" lon="5.60998">
        <ele>357.2</ele>
        <time>2022-03-09T13:42:59Z</time>
      </trkpt>
      <trkpt lat="46.72987" lon="5.60995">
        <ele>357.2</ele>
        <time>2022-03-09T13:43:00Z</time>
      </trkpt>
      <trkpt lat="46.72983" lon="5.6099">
        <ele>356.8</ele>
        <time>2022-03-09T13:43:01Z</time>
      </trkpt>
      <trkpt lat="46.7298" lon="5.60984">
        <ele>356.4</ele>
        <time>2022-03-09T13:43:02Z</time>
      </trkpt>
      <trkpt lat="46.72976" lon="5.60978">
        <ele>356.2</ele>
        <time>2022-03-09T13:43:03Z</time>
      </trkpt>
      <trkpt lat="46.72971" lon="5.60971">
        <ele>355.8</ele>
        <time>2022-03-09T13:43:04Z</time>
      </trkpt>
      <trkpt lat="46.72967" lon="5.60963">
        <ele>355.4</ele>
        <time>2022-03-09T13:43:05Z</time>
      </trkpt>
      <trkpt lat="46.72962" lon="5.60954">
        <ele>354.8</ele>
        <time>2022-03-09T13:43:06Z</time>
      </trkpt>
      <trkpt lat="46.72957" lon="5.60945">
        <ele>354.2</ele>
        <time>2022-03-09T13:43:07Z</time>
      </trkpt>
      <trkpt lat="46.72951" lon="5.60935">
        <ele>353.6</ele>
        <time>2022-03-09T13:43:08Z</time>
      </trkpt>
      <trkpt lat="46.72946" lon="5.60925">
        <ele>353</ele>
        <time>2022-03-09T13:43:09Z</time>
      </trkpt>
      <trkpt lat="46.7294" lon="5.60915">
        <ele>352</ele>
        <time>2022-03-09T13:43:10Z</time>
      </trkpt>
      <trkpt lat="46.72933" lon="5.60902">
        <ele>351.2</ele>
        <time>2022-03-09T13:43:11Z</time>
      </trkpt>
      <trkpt lat="46.72927" lon="5.60891">
        <ele>350.6</ele>
        <time>2022-03-09T13:43:12Z</time>
      </trkpt>
      <trkpt lat="46.72921" lon="5.6088">
        <ele>349.8</ele>
        <time>2022-03-09T13:43:13Z</time>
      </trkpt>
      <trkpt lat="46.72916" lon="5.60869">
        <ele>349.4</ele>
        <time>2022-03-09T13:43:14Z</time>
      </trkpt>
      <trkpt lat="46.72911" lon="5.60858">
        <ele>348.8</ele>
        <time>2022-03-09T13:43:15Z</time>
      </trkpt>
      <trkpt lat="46.72908" lon="5.60846">
        <ele>348.2</ele>
        <time>2022-03-09T13:43:16Z</time>
      </trkpt>
      <trkpt lat="46.72904" lon="5.60835">
        <ele>348.2</ele>
        <time>2022-03-09T13:43:17Z</time>
      </trkpt>
      <trkpt lat="46.72901" lon="5.60825">
        <ele>347.6</ele>
        <time>2022-03-09T13:43:18Z</time>
      </trkpt>
      <trkpt lat="46.72899" lon="5.60818">
        <ele>347</ele>
        <time>2022-03-09T13:43:19Z</time>
      </trkpt>
      <trkpt lat="46.72898" lon="5.60813">
        <ele>346.4</ele>
        <time>2022-03-09T13:43:20Z</time>
      </trkpt>
      <trkpt lat="46.72896" lon="5.6081">
        <ele>346</ele>
        <time>2022-03-09T13:43:21Z</time>
      </trkpt>
      <trkpt lat="46.72895" lon="5.60808">
        <ele>345.6</ele>
        <time>2022-03-09T13:43:22Z</time>
      </trkpt>
      <trkpt lat="46.72893" lon="5.60808">
        <ele>345.4</ele>
        <time>2022-03-09T13:43:23Z</time>
      </trkpt>
      <trkpt lat="46.72891" lon="5.6081">
        <ele>345</ele>
        <time>2022-03-09T13:43:24Z</time>
      </trkpt>
      <trkpt lat="46.72891" lon="5.60814">
        <ele>345</ele>
        <time>2022-03-09T13:43:25Z</time>
      </trkpt>
      <trkpt lat="46.72891" lon="5.60818">
        <ele>345</ele>
        <time>2022-03-09T13:43:26Z</time>
      </trkpt>
      <trkpt lat="46.72891" lon="5.60821">
        <ele>345</ele>
        <time>2022-03-09T13:43:27Z</time>
      </trkpt>
      <trkpt lat="46.7289" lon="5.60823">
        <ele>345</ele>
        <time>2022-03-09T13:43:28Z</time>
      </trkpt>
      <trkpt lat="46.72889" lon="5.60826">
        <ele>345.4</ele>
        <time>2022-03-09T13:43:29Z</time>
      </trkpt>
      <trkpt lat="46.72888" lon="5.60828">
        <ele>345.6</ele>
        <time>2022-03-09T13:43:30Z</time>
      </trkpt>
      <trkpt lat="46.72887" lon="5.60831">
        <ele>346</ele>
        <time>2022-03-09T13:43:31Z</time>
      </trkpt>
      <trkpt lat="46.72886" lon="5.60834">
        <ele>346.4</ele>
        <time>2022-03-09T13:43:32Z</time>
      </trkpt>
      <trkpt lat="46.72886" lon="5.60837">
        <ele>346.8</ele>
        <time>2022-03-09T13:43:33Z</time>
      </trkpt>
      <trkpt lat="46.72885" lon="5.60839">
        <ele>347.2</ele>
        <time>2022-03-09T13:43:34Z</time>
      </trkpt>
      <trkpt lat="46.72884" lon="5.60842">
        <ele>347.6</ele>
        <time>2022-03-09T13:43:35Z</time>
      </trkpt>
      <trkpt lat="46.72884" lon="5.60845">
        <ele>348</ele>
        <time>2022-03-09T13:43:36Z</time>
      </trkpt>
      <trkpt lat="46.72883" lon="5.60847">
        <ele>348.4</ele>
        <time>2022-03-09T13:43:37Z</time>
      </trkpt>
      <trkpt lat="46.72882" lon="5.6085">
        <ele>349</ele>
        <time>2022-03-09T13:43:38Z</time>
      </trkpt>
      <trkpt lat="46.7288" lon="5.60852">
        <ele>349.4</ele>
        <time>2022-03-09T13:43:39Z</time>
      </trkpt>
      <trkpt lat="46.72879" lon="5.60854">
        <ele>349.8</ele>
        <time>2022-03-09T13:43:40Z</time>
      </trkpt>
      <trkpt lat="46.72877" lon="5.60854">
        <ele>350.2</ele>
        <time>2022-03-09T13:43:41Z</time>
      </trkpt>
      <trkpt lat="46.72875" lon="5.60853">
        <ele>350.6</ele>
        <time>2022-03-09T13:43:42Z</time>
      </trkpt>
      <trkpt lat="46.72872" lon="5.60852">
        <ele>350.8</ele>
        <time>2022-03-09T13:43:43Z</time>
      </trkpt>
      <trkpt lat="46.7287" lon="5.6085">
        <ele>351.2</ele>
        <time>2022-03-09T13:43:44Z</time>
      </trkpt>
      <trkpt lat="46.72868" lon="5.60848">
        <ele>351.4</ele>
        <time>2022-03-09T13:43:45Z</time>
      </trkpt>
      <trkpt lat="46.72866" lon="5.60847">
        <ele>351.8</ele>
        <time>2022-03-09T13:43:46Z</time>
      </trkpt>
      <trkpt lat="46.72864" lon="5.60846">
        <ele>352</ele>
        <time>2022-03-09T13:43:47Z</time>
      </trkpt>
      <trkpt lat="46.72862" lon="5.60844">
        <ele>352.2</ele>
        <time>2022-03-09T13:43:48Z</time>
      </trkpt>
      <trkpt lat="46.72861" lon="5.60843">
        <ele>352.4</ele>
        <time>2022-03-09T13:43:49Z</time>
      </trkpt>
      <trkpt lat="46.72861" lon="5.60843">
        <ele>352.4</ele>
        <time>2022-03-09T13:43:50Z</time>
      </trkpt>
      <trkpt lat="46.72859" lon="5.60842">
        <ele>352.8</ele>
        <time>2022-03-09T13:43:51Z</time>
      </trkpt>
      <trkpt lat="46.72857" lon="5.6084">
        <ele>352.8</ele>
        <time>2022-03-09T13:43:52Z</time>
      </trkpt>
      <trkpt lat="46.72855" lon="5.60838">
        <ele>353.2</ele>
        <time>2022-03-09T13:43:53Z</time>
      </trkpt>
      <trkpt lat="46.72853" lon="5.60836">
        <ele>353.4</ele>
        <time>2022-03-09T13:43:54Z</time>
      </trkpt>
      <trkpt lat="46.72852" lon="5.60834">
        <ele>353.4</ele>
        <time>2022-03-09T13:43:55Z</time>
      </trkpt>
      <trkpt lat="46.7285" lon="5.60832">
        <ele>353.8</ele>
        <time>2022-03-09T13:43:56Z</time>
      </trkpt>
      <trkpt lat="46.72848" lon="5.6083">
        <ele>353.8</ele>
        <time>2022-03-09T13:43:57Z</time>
      </trkpt>
      <trkpt lat="46.72846" lon="5.60828">
        <ele>353.8</ele>
        <time>2022-03-09T13:43:58Z</time>
      </trkpt>
      <trkpt lat="46.72843" lon="5.60826">
        <ele>353.8</ele>
        <time>2022-03-09T13:43:59Z</time>
      </trkpt>
      <trkpt lat="46.72841" lon="5.60824">
        <ele>354</ele>
        <time>2022-03-09T13:44:00Z</time>
      </trkpt>
      <trkpt lat="46.72838" lon="5.60822">
        <ele>354</ele>
        <time>2022-03-09T13:44:01Z</time>
      </trkpt>
      <trkpt lat="46.72836" lon="5.60819">
        <ele>354</ele>
        <time>2022-03-09T13:44:02Z</time>
      </trkpt>
      <trkpt lat="46.72833" lon="5.60817">
        <ele>354</ele>
        <time>2022-03-09T13:44:03Z</time>
      </trkpt>
      <trkpt lat="46.72831" lon="5.60815">
        <ele>354</ele>
        <time>2022-03-09T13:44:04Z</time>
      </trkpt>
      <trkpt lat="46.72828" lon="5.60812">
        <ele>354</ele>
        <time>2022-03-09T13:44:05Z</time>
      </trkpt>
      <trkpt lat="46.72825" lon="5.6081">
        <ele>354</ele>
        <time>2022-03-09T13:44:06Z</time>
      </trkpt>
      <trkpt lat="46.72822" lon="5.60807">
        <ele>354</ele>
        <time>2022-03-09T13:44:07Z</time>
      </trkpt>
      <trkpt lat="46.72819" lon="5.60804">
        <ele>353.8</ele>
        <time>2022-03-09T13:44:08Z</time>
      </trkpt>
      <trkpt lat="46.72815" lon="5.60801">
        <ele>353.8</ele>
        <time>2022-03-09T13:44:09Z</time>
      </trkpt>
      <trkpt lat="46.72811" lon="5.60797">
        <ele>353.4</ele>
        <time>2022-03-09T13:44:10Z</time>
      </trkpt>
      <trkpt lat="46.72807" lon="5.60793">
        <ele>353.2</ele>
        <time>2022-03-09T13:44:11Z</time>
      </trkpt>
      <trkpt lat="46.72802" lon="5.60789">
        <ele>352.8</ele>
        <time>2022-03-09T13:44:12Z</time>
      </trkpt>
      <trkpt lat="46.72796" lon="5.60784">
        <ele>352.4</ele>
        <time>2022-03-09T13:44:13Z</time>
      </trkpt>
      <trkpt lat="46.72791" lon="5.60779">
        <ele>352</ele>
        <time>2022-03-09T13:44:14Z</time>
      </trkpt>
      <trkpt lat="46.72784" lon="5.60774">
        <ele>351.4</ele>
        <time>2022-03-09T13:44:15Z</time>
      </trkpt>
      <trkpt lat="46.72778" lon="5.60768">
        <ele>350.8</ele>
        <time>2022-03-09T13:44:16Z</time>
      </trkpt>
      <trkpt lat="46.72771" lon="5.60762">
        <ele>350.2</ele>
        <time>2022-03-09T13:44:17Z</time>
      </trkpt>
      <trkpt lat="46.72765" lon="5.60756">
        <ele>349.8</ele>
        <time>2022-03-09T13:44:18Z</time>
      </trkpt>
      <trkpt lat="46.72759" lon="5.60749">
        <ele>349.4</ele>
        <time>2022-03-09T13:44:19Z</time>
      </trkpt>
      <trkpt lat="46.72753" lon="5.60741">
        <ele>349.2</ele>
        <time>2022-03-09T13:44:20Z</time>
      </trkpt>
      <trkpt lat="46.72747" lon="5.60734">
        <ele>349.2</ele>
        <time>2022-03-09T13:44:21Z</time>
      </trkpt>
      <trkpt lat="46.72742" lon="5.60728">
        <ele>349.2</ele>
        <time>2022-03-09T13:44:22Z</time>
      </trkpt>
      <trkpt lat="46.72738" lon="5.60723">
        <ele>349.2</ele>
        <time>2022-03-09T13:44:23Z</time>
      </trkpt>
      <trkpt lat="46.72734" lon="5.60719">
        <ele>349.6</ele>
        <time>2022-03-09T13:44:24Z</time>
      </trkpt>
      <trkpt lat="46.72731" lon="5.60715">
        <ele>350</ele>
        <time>2022-03-09T13:44:25Z</time>
      </trkpt>
      <trkpt lat="46.72729" lon="5.60712">
        <ele>350.4</ele>
        <time>2022-03-09T13:44:26Z</time>
      </trkpt>
      <trkpt lat="46.72726" lon="5.60708">
        <ele>350.8</ele>
        <time>2022-03-09T13:44:27Z</time>
      </trkpt>
      <trkpt lat="46.72723" lon="5.60706">
        <ele>351</ele>
        <time>2022-03-09T13:44:28Z</time>
      </trkpt>
      <trkpt lat="46.7272" lon="5.60703">
        <ele>351.4</ele>
        <time>2022-03-09T13:44:29Z</time>
      </trkpt>
      <trkpt lat="46.72718" lon="5.60701">
        <ele>351.6</ele>
        <time>2022-03-09T13:44:30Z</time>
      </trkpt>
      <trkpt lat="46.72715" lon="5.60698">
        <ele>351.8</ele>
        <time>2022-03-09T13:44:31Z</time>
      </trkpt>
      <trkpt lat="46.72713" lon="5.60695">
        <ele>352.2</ele>
        <time>2022-03-09T13:44:32Z</time>
      </trkpt>
      <trkpt lat="46.72711" lon="5.60692">
        <ele>352.4</ele>
        <time>2022-03-09T13:44:33Z</time>
      </trkpt>
      <trkpt lat="46.72709" lon="5.60689">
        <ele>352.8</ele>
        <time>2022-03-09T13:44:34Z</time>
      </trkpt>
      <trkpt lat="46.72707" lon="5.60686">
        <ele>353</ele>
        <time>2022-03-09T13:44:35Z</time>
      </trkpt>
      <trkpt lat="46.72705" lon="5.60683">
        <ele>353.2</ele>
        <time>2022-03-09T13:44:36Z</time>
      </trkpt>
      <trkpt lat="46.72702" lon="5.60681">
        <ele>353.4</ele>
        <time>2022-03-09T13:44:37Z</time>
      </trkpt>
      <trkpt lat="46.727" lon="5.60678">
        <ele>353.6</ele>
        <time>2022-03-09T13:44:38Z</time>
      </trkpt>
      <trkpt lat="46.72697" lon="5.60676">
        <ele>353.8</ele>
        <time>2022-03-09T13:44:39Z</time>
      </trkpt>
      <trkpt lat="46.72694" lon="5.60673">
        <ele>354.2</ele>
        <time>2022-03-09T13:44:40Z</time>
      </trkpt>
      <trkpt lat="46.72692" lon="5.60671">
        <ele>354.2</ele>
        <time>2022-03-09T13:44:41Z</time>
      </trkpt>
      <trkpt lat="46.72689" lon="5.60668">
        <ele>354.4</ele>
        <time>2022-03-09T13:44:42Z</time>
      </trkpt>
      <trkpt lat="46.72686" lon="5.60665">
        <ele>354.4</ele>
        <time>2022-03-09T13:44:43Z</time>
      </trkpt>
      <trkpt lat="46.72684" lon="5.60662">
        <ele>354.8</ele>
        <time>2022-03-09T13:44:44Z</time>
      </trkpt>
      <trkpt lat="46.72681" lon="5.60659">
        <ele>354.8</ele>
        <time>2022-03-09T13:44:45Z</time>
      </trkpt>
      <trkpt lat="46.72678" lon="5.60656">
        <ele>355.2</ele>
        <time>2022-03-09T13:44:46Z</time>
      </trkpt>
      <trkpt lat="46.72675" lon="5.60652">
        <ele>355.4</ele>
        <time>2022-03-09T13:44:47Z</time>
      </trkpt>
      <trkpt lat="46.72672" lon="5.6065">
        <ele>355.4</ele>
        <time>2022-03-09T13:44:48Z</time>
      </trkpt>
      <trkpt lat="46.72669" lon="5.60646">
        <ele>355.6</ele>
        <time>2022-03-09T13:44:49Z</time>
      </trkpt>
      <trkpt lat="46.72666" lon="5.60643">
        <ele>355.6</ele>
        <time>2022-03-09T13:44:50Z</time>
      </trkpt>
      <trkpt lat="46.72663" lon="5.6064">
        <ele>355.6</ele>
        <time>2022-03-09T13:44:51Z</time>
      </trkpt>
      <trkpt lat="46.72659" lon="5.60636">
        <ele>355.6</ele>
        <time>2022-03-09T13:44:52Z</time>
      </trkpt>
      <trkpt lat="46.72656" lon="5.60633">
        <ele>355.6</ele>
        <time>2022-03-09T13:44:53Z</time>
      </trkpt>
      <trkpt lat="46.72652" lon="5.60629">
        <ele>355.6</ele>
        <time>2022-03-09T13:44:54Z</time>
      </trkpt>
      <trkpt lat="46.72649" lon="5.60625">
        <ele>355.6</ele>
        <time>2022-03-09T13:44:55Z</time>
      </trkpt>
      <trkpt lat="46.72645" lon="5.60622">
        <ele>355.6</ele>
        <time>2022-03-09T13:44:56Z</time>
      </trkpt>
      <trkpt lat="46.72641" lon="5.60619">
        <ele>355.6</ele>
        <time>2022-03-09T13:44:57Z</time>
      </trkpt>
      <trkpt lat="46.72638" lon="5.60615">
        <ele>355.6</ele>
        <time>2022-03-09T13:44:58Z</time>
      </trkpt>
      <trkpt lat="46.72634" lon="5.60611">
        <ele>355.6</ele>
        <time>2022-03-09T13:44:59Z</time>
      </trkpt>
      <trkpt lat="46.72631" lon="5.60606">
        <ele>355.6</ele>
        <time>2022-03-09T13:45:00Z</time>
      </trkpt>
      <trkpt lat="46.72627" lon="5.60602">
        <ele>355.4</ele>
        <time>2022-03-09T13:45:01Z</time>
      </trkpt>
      <trkpt lat="46.72623" lon="5.60598">
        <ele>355.4</ele>
        <time>2022-03-09T13:45:02Z</time>
      </trkpt>
      <trkpt lat="46.72619" lon="5.60593">
        <ele>355.2</ele>
        <time>2022-03-09T13:45:03Z</time>
      </trkpt>
      <trkpt lat="46.72614" lon="5.60589">
        <ele>355.2</ele>
        <time>2022-03-09T13:45:04Z</time>
      </trkpt>
      <trkpt lat="46.7261" lon="5.60584">
        <ele>355</ele>
        <time>2022-03-09T13:45:05Z</time>
      </trkpt>
      <trkpt lat="46.72606" lon="5.6058">
        <ele>355</ele>
        <time>2022-03-09T13:45:06Z</time>
      </trkpt>
      <trkpt lat="46.72602" lon="5.60576">
        <ele>354.6</ele>
        <time>2022-03-09T13:45:07Z</time>
      </trkpt>
      <trkpt lat="46.72598" lon="5.60572">
        <ele>354.4</ele>
        <time>2022-03-09T13:45:08Z</time>
      </trkpt>
      <trkpt lat="46.72595" lon="5.60569">
        <ele>354</ele>
        <time>2022-03-09T13:45:09Z</time>
      </trkpt>
      <trkpt lat="46.72591" lon="5.60566">
        <ele>353.8</ele>
        <time>2022-03-09T13:45:10Z</time>
      </trkpt>
      <trkpt lat="46.72588" lon="5.60563">
        <ele>353.6</ele>
        <time>2022-03-09T13:45:11Z</time>
      </trkpt>
      <trkpt lat="46.72584" lon="5.60559">
        <ele>353.2</ele>
        <time>2022-03-09T13:45:12Z</time>
      </trkpt>
      <trkpt lat="46.7258" lon="5.60554">
        <ele>353</ele>
        <time>2022-03-09T13:45:13Z</time>
      </trkpt>
      <trkpt lat="46.72576" lon="5.60549">
        <ele>352.6</ele>
        <time>2022-03-09T13:45:14Z</time>
      </trkpt>
      <trkpt lat="46.72571" lon="5.60545">
        <ele>352.2</ele>
        <time>2022-03-09T13:45:15Z</time>
      </trkpt>
      <trkpt lat="46.72565" lon="5.6054">
        <ele>351.8</ele>
        <time>2022-03-09T13:45:16Z</time>
      </trkpt>
      <trkpt lat="46.7256" lon="5.60536">
        <ele>351.6</ele>
        <time>2022-03-09T13:45:17Z</time>
      </trkpt>
      <trkpt lat="46.72554" lon="5.60532">
        <ele>351.2</ele>
        <time>2022-03-09T13:45:18Z</time>
      </trkpt>
      <trkpt lat="46.72547" lon="5.60528">
        <ele>350.6</ele>
        <time>2022-03-09T13:45:19Z</time>
      </trkpt>
      <trkpt lat="46.72542" lon="5.60525">
        <ele>350.2</ele>
        <time>2022-03-09T13:45:20Z</time>
      </trkpt>
      <trkpt lat="46.72536" lon="5.60521">
        <ele>349.4</ele>
        <time>2022-03-09T13:45:21Z</time>
      </trkpt>
      <trkpt lat="46.7253" lon="5.60517">
        <ele>348.8</ele>
        <time>2022-03-09T13:45:22Z</time>
      </trkpt>
      <trkpt lat="46.72524" lon="5.60513">
        <ele>348.2</ele>
        <time>2022-03-09T13:45:23Z</time>
      </trkpt>
      <trkpt lat="46.72517" lon="5.60509">
        <ele>347.4</ele>
        <time>2022-03-09T13:45:24Z</time>
      </trkpt>
      <trkpt lat="46.7251" lon="5.60505">
        <ele>346.6</ele>
        <time>2022-03-09T13:45:25Z</time>
      </trkpt>
      <trkpt lat="46.72504" lon="5.60501">
        <ele>345.8</ele>
        <time>2022-03-09T13:45:26Z</time>
      </trkpt>
      <trkpt lat="46.72497" lon="5.60497">
        <ele>345</ele>
        <time>2022-03-09T13:45:27Z</time>
      </trkpt>
      <trkpt lat="46.7249" lon="5.60492">
        <ele>344.2</ele>
        <time>2022-03-09T13:45:28Z</time>
      </trkpt>
      <trkpt lat="46.72484" lon="5.60488">
        <ele>343.4</ele>
        <time>2022-03-09T13:45:29Z</time>
      </trkpt>
      <trkpt lat="46.72478" lon="5.60484">
        <ele>342.8</ele>
        <time>2022-03-09T13:45:30Z</time>
      </trkpt>
      <trkpt lat="46.72473" lon="5.60478">
        <ele>342.2</ele>
        <time>2022-03-09T13:45:31Z</time>
      </trkpt>
      <trkpt lat="46.72468" lon="5.60471">
        <ele>341.6</ele>
        <time>2022-03-09T13:45:32Z</time>
      </trkpt>
      <trkpt lat="46.72463" lon="5.60464">
        <ele>341</ele>
        <time>2022-03-09T13:45:33Z</time>
      </trkpt>
      <trkpt lat="46.72458" lon="5.60456">
        <ele>340.4</ele>
        <time>2022-03-09T13:45:34Z</time>
      </trkpt>
      <trkpt lat="46.72452" lon="5.60449">
        <ele>339.8</ele>
        <time>2022-03-09T13:45:35Z</time>
      </trkpt>
      <trkpt lat="46.72446" lon="5.60443">
        <ele>339.4</ele>
        <time>2022-03-09T13:45:36Z</time>
      </trkpt>
      <trkpt lat="46.72439" lon="5.60437">
        <ele>338.8</ele>
        <time>2022-03-09T13:45:37Z</time>
      </trkpt>
      <trkpt lat="46.72432" lon="5.60431">
        <ele>338.2</ele>
        <time>2022-03-09T13:45:38Z</time>
      </trkpt>
      <trkpt lat="46.72426" lon="5.60425">
        <ele>337.8</ele>
        <time>2022-03-09T13:45:39Z</time>
      </trkpt>
      <trkpt lat="46.7242" lon="5.60417">
        <ele>337.2</ele>
        <time>2022-03-09T13:45:40Z</time>
      </trkpt>
      <trkpt lat="46.72414" lon="5.60408">
        <ele>336.6</ele>
        <time>2022-03-09T13:45:41Z</time>
      </trkpt>
      <trkpt lat="46.72408" lon="5.60399">
        <ele>336</ele>
        <time>2022-03-09T13:45:42Z</time>
      </trkpt>
      <trkpt lat="46.72402" lon="5.60389">
        <ele>335.4</ele>
        <time>2022-03-09T13:45:43Z</time>
      </trkpt>
      <trkpt lat="46.72395" lon="5.60378">
        <ele>334.8</ele>
        <time>2022-03-09T13:45:44Z</time>
      </trkpt>
      <trkpt lat="46.72388" lon="5.60368">
        <ele>334.2</ele>
        <time>2022-03-09T13:45:45Z</time>
      </trkpt>
      <trkpt lat="46.72382" lon="5.60357">
        <ele>333.8</ele>
        <time>2022-03-09T13:45:46Z</time>
      </trkpt>
      <trkpt lat="46.72376" lon="5.60346">
        <ele>333.4</ele>
        <time>2022-03-09T13:45:47Z</time>
      </trkpt>
      <trkpt lat="46.72371" lon="5.60338">
        <ele>333.2</ele>
        <time>2022-03-09T13:45:48Z</time>
      </trkpt>
      <trkpt lat="46.72365" lon="5.6033">
        <ele>333.2</ele>
        <time>2022-03-09T13:45:49Z</time>
      </trkpt>
      <trkpt lat="46.7236" lon="5.60322">
        <ele>333.2</ele>
        <time>2022-03-09T13:45:50Z</time>
      </trkpt>
      <trkpt lat="46.72354" lon="5.60315">
        <ele>333.2</ele>
        <time>2022-03-09T13:45:51Z</time>
      </trkpt>
      <trkpt lat="46.72348" lon="5.60308">
        <ele>333.2</ele>
        <time>2022-03-09T13:45:52Z</time>
      </trkpt>
      <trkpt lat="46.72342" lon="5.60302">
        <ele>333.2</ele>
        <time>2022-03-09T13:45:53Z</time>
      </trkpt>
      <trkpt lat="46.72337" lon="5.60296">
        <ele>333.4</ele>
        <time>2022-03-09T13:45:54Z</time>
      </trkpt>
      <trkpt lat="46.72332" lon="5.6029">
        <ele>333.4</ele>
        <time>2022-03-09T13:45:55Z</time>
      </trkpt>
      <trkpt lat="46.72327" lon="5.60284">
        <ele>333.6</ele>
        <time>2022-03-09T13:45:56Z</time>
      </trkpt>
      <trkpt lat="46.72322" lon="5.60279">
        <ele>333.6</ele>
        <time>2022-03-09T13:45:57Z</time>
      </trkpt>
      <trkpt lat="46.72316" lon="5.60274">
        <ele>334</ele>
        <time>2022-03-09T13:45:58Z</time>
      </trkpt>
      <trkpt lat="46.72311" lon="5.60268">
        <ele>334.2</ele>
        <time>2022-03-09T13:45:59Z</time>
      </trkpt>
      <trkpt lat="46.72307" lon="5.60264">
        <ele>334.4</ele>
        <time>2022-03-09T13:46:00Z</time>
      </trkpt>
      <trkpt lat="46.72302" lon="5.60259">
        <ele>334.8</ele>
        <time>2022-03-09T13:46:01Z</time>
      </trkpt>
      <trkpt lat="46.72298" lon="5.60254">
        <ele>335</ele>
        <time>2022-03-09T13:46:02Z</time>
      </trkpt>
      <trkpt lat="46.72294" lon="5.60249">
        <ele>335.4</ele>
        <time>2022-03-09T13:46:03Z</time>
      </trkpt>
      <trkpt lat="46.7229" lon="5.60244">
        <ele>335.6</ele>
        <time>2022-03-09T13:46:04Z</time>
      </trkpt>
      <trkpt lat="46.72286" lon="5.60239">
        <ele>336</ele>
        <time>2022-03-09T13:46:05Z</time>
      </trkpt>
      <trkpt lat="46.72282" lon="5.60234">
        <ele>336.4</ele>
        <time>2022-03-09T13:46:06Z</time>
      </trkpt>
      <trkpt lat="46.72278" lon="5.6023">
        <ele>336.6</ele>
        <time>2022-03-09T13:46:07Z</time>
      </trkpt>
      <trkpt lat="46.72275" lon="5.60226">
        <ele>337</ele>
        <time>2022-03-09T13:46:08Z</time>
      </trkpt>
      <trkpt lat="46.72271" lon="5.60222">
        <ele>337.2</ele>
        <time>2022-03-09T13:46:09Z</time>
      </trkpt>
      <trkpt lat="46.72268" lon="5.60219">
        <ele>337.6</ele>
        <time>2022-03-09T13:46:10Z</time>
      </trkpt>
      <trkpt lat="46.72265" lon="5.60215">
        <ele>337.8</ele>
        <time>2022-03-09T13:46:11Z</time>
      </trkpt>
      <trkpt lat="46.72262" lon="5.60212">
        <ele>338</ele>
        <time>2022-03-09T13:46:12Z</time>
      </trkpt>
      <trkpt lat="46.72259" lon="5.60208">
        <ele>338</ele>
        <time>2022-03-09T13:46:13Z</time>
      </trkpt>
      <trkpt lat="46.72256" lon="5.60205">
        <ele>338.4</ele>
        <time>2022-03-09T13:46:14Z</time>
      </trkpt>
      <trkpt lat="46.72254" lon="5.60202">
        <ele>338.4</ele>
        <time>2022-03-09T13:46:15Z</time>
      </trkpt>
      <trkpt lat="46.72251" lon="5.60199">
        <ele>338.6</ele>
        <time>2022-03-09T13:46:16Z</time>
      </trkpt>
      <trkpt lat="46.72248" lon="5.60196">
        <ele>338.6</ele>
        <time>2022-03-09T13:46:17Z</time>
      </trkpt>
      <trkpt lat="46.72244" lon="5.60194">
        <ele>338.6</ele>
        <time>2022-03-09T13:46:18Z</time>
      </trkpt>
      <trkpt lat="46.72241" lon="5.60193">
        <ele>338.6</ele>
        <time>2022-03-09T13:46:19Z</time>
      </trkpt>
      <trkpt lat="46.72237" lon="5.60192">
        <ele>338.6</ele>
        <time>2022-03-09T13:46:20Z</time>
      </trkpt>
      <trkpt lat="46.72232" lon="5.6019">
        <ele>338.6</ele>
        <time>2022-03-09T13:46:21Z</time>
      </trkpt>
      <trkpt lat="46.72227" lon="5.60188">
        <ele>338.4</ele>
        <time>2022-03-09T13:46:22Z</time>
      </trkpt>
      <trkpt lat="46.72222" lon="5.60186">
        <ele>338.2</ele>
        <time>2022-03-09T13:46:23Z</time>
      </trkpt>
      <trkpt lat="46.72216" lon="5.60185">
        <ele>338</ele>
        <time>2022-03-09T13:46:24Z</time>
      </trkpt>
      <trkpt lat="46.7221" lon="5.60185">
        <ele>337.6</ele>
        <time>2022-03-09T13:46:25Z</time>
      </trkpt>
      <trkpt lat="46.72203" lon="5.60185">
        <ele>337.4</ele>
        <time>2022-03-09T13:46:26Z</time>
      </trkpt>
      <trkpt lat="46.72197" lon="5.60184">
        <ele>337</ele>
        <time>2022-03-09T13:46:27Z</time>
      </trkpt>
      <trkpt lat="46.72189" lon="5.60185">
        <ele>336.6</ele>
        <time>2022-03-09T13:46:28Z</time>
      </trkpt>
      <trkpt lat="46.72182" lon="5.60185">
        <ele>336.2</ele>
        <time>2022-03-09T13:46:29Z</time>
      </trkpt>
      <trkpt lat="46.72174" lon="5.60185">
        <ele>335.8</ele>
        <time>2022-03-09T13:46:30Z</time>
      </trkpt>
      <trkpt lat="46.72166" lon="5.60186">
        <ele>335.4</ele>
        <time>2022-03-09T13:46:31Z</time>
      </trkpt>
      <trkpt lat="46.72157" lon="5.60186">
        <ele>334.8</ele>
        <time>2022-03-09T13:46:32Z</time>
      </trkpt>
      <trkpt lat="46.72148" lon="5.60186">
        <ele>334</ele>
        <time>2022-03-09T13:46:33Z</time>
      </trkpt>
      <trkpt lat="46.72139" lon="5.60185">
        <ele>333.4</ele>
        <time>2022-03-09T13:46:34Z</time>
      </trkpt>
      <trkpt lat="46.7213" lon="5.60184">
        <ele>332.8</ele>
        <time>2022-03-09T13:46:35Z</time>
      </trkpt>
      <trkpt lat="46.7212" lon="5.60181">
        <ele>332.2</ele>
        <time>2022-03-09T13:46:36Z</time>
      </trkpt>
      <trkpt lat="46.7211" lon="5.60178">
        <ele>331.6</ele>
        <time>2022-03-09T13:46:37Z</time>
      </trkpt>
      <trkpt lat="46.721" lon="5.60172">
        <ele>331.2</ele>
        <time>2022-03-09T13:46:38Z</time>
      </trkpt>
      <trkpt lat="46.72091" lon="5.60165">
        <ele>330.4</ele>
        <time>2022-03-09T13:46:39Z</time>
      </trkpt>
      <trkpt lat="46.72074" lon="5.60148">
        <ele>329.8</ele>
        <time>2022-03-09T13:46:40Z</time>
      </trkpt>
      <trkpt lat="46.72066" lon="5.60138">
        <ele>329</ele>
        <time>2022-03-09T13:46:41Z</time>
      </trkpt>
      <trkpt lat="46.72059" lon="5.60126">
        <ele>328.6</ele>
        <time>2022-03-09T13:46:42Z</time>
      </trkpt>
      <trkpt lat="46.72053" lon="5.60113">
        <ele>328.2</ele>
        <time>2022-03-09T13:46:43Z</time>
      </trkpt>
      <trkpt lat="46.72047" lon="5.601">
        <ele>327.6</ele>
        <time>2022-03-09T13:46:44Z</time>
      </trkpt>
      <trkpt lat="46.72041" lon="5.60087">
        <ele>327</ele>
        <time>2022-03-09T13:46:45Z</time>
      </trkpt>
      <trkpt lat="46.72036" lon="5.60075">
        <ele>326.4</ele>
        <time>2022-03-09T13:46:46Z</time>
      </trkpt>
      <trkpt lat="46.7203" lon="5.60062">
        <ele>325.6</ele>
        <time>2022-03-09T13:46:47Z</time>
      </trkpt>
      <trkpt lat="46.72025" lon="5.60049">
        <ele>325.2</ele>
        <time>2022-03-09T13:46:48Z</time>
      </trkpt>
      <trkpt lat="46.7202" lon="5.60035">
        <ele>324.6</ele>
        <time>2022-03-09T13:46:49Z</time>
      </trkpt>
      <trkpt lat="46.72015" lon="5.60023">
        <ele>324.2</ele>
        <time>2022-03-09T13:46:50Z</time>
      </trkpt>
      <trkpt lat="46.72008" lon="5.60012">
        <ele>323.6</ele>
        <time>2022-03-09T13:46:51Z</time>
      </trkpt>
      <trkpt lat="46.72001" lon="5.60003">
        <ele>323.2</ele>
        <time>2022-03-09T13:46:52Z</time>
      </trkpt>
      <trkpt lat="46.71994" lon="5.59992">
        <ele>322.8</ele>
        <time>2022-03-09T13:46:53Z</time>
      </trkpt>
      <trkpt lat="46.71987" lon="5.59983">
        <ele>322.4</ele>
        <time>2022-03-09T13:46:54Z</time>
      </trkpt>
      <trkpt lat="46.71981" lon="5.59973">
        <ele>322</ele>
        <time>2022-03-09T13:46:55Z</time>
      </trkpt>
      <trkpt lat="46.71975" lon="5.59964">
        <ele>321.6</ele>
        <time>2022-03-09T13:46:56Z</time>
      </trkpt>
      <trkpt lat="46.7197" lon="5.59956">
        <ele>321.4</ele>
        <time>2022-03-09T13:46:57Z</time>
      </trkpt>
      <trkpt lat="46.71964" lon="5.59948">
        <ele>321</ele>
        <time>2022-03-09T13:46:58Z</time>
      </trkpt>
      <trkpt lat="46.71958" lon="5.59941">
        <ele>320.8</ele>
        <time>2022-03-09T13:46:59Z</time>
      </trkpt>
      <trkpt lat="46.71952" lon="5.59936">
        <ele>320.6</ele>
        <time>2022-03-09T13:47:00Z</time>
      </trkpt>
      <trkpt lat="46.71946" lon="5.59931">
        <ele>320.4</ele>
        <time>2022-03-09T13:47:01Z</time>
      </trkpt>
      <trkpt lat="46.71939" lon="5.59926">
        <ele>320</ele>
        <time>2022-03-09T13:47:02Z</time>
      </trkpt>
      <trkpt lat="46.71933" lon="5.59922">
        <ele>320</ele>
        <time>2022-03-09T13:47:03Z</time>
      </trkpt>
      <trkpt lat="46.71926" lon="5.59919">
        <ele>319.8</ele>
        <time>2022-03-09T13:47:04Z</time>
      </trkpt>
      <trkpt lat="46.7192" lon="5.59916">
        <ele>319.8</ele>
        <time>2022-03-09T13:47:05Z</time>
      </trkpt>
      <trkpt lat="46.71913" lon="5.59913">
        <ele>319.8</ele>
        <time>2022-03-09T13:47:06Z</time>
      </trkpt>
      <trkpt lat="46.71906" lon="5.5991">
        <ele>319.4</ele>
        <time>2022-03-09T13:47:07Z</time>
      </trkpt>
      <trkpt lat="46.719" lon="5.59907">
        <ele>319.4</ele>
        <time>2022-03-09T13:47:08Z</time>
      </trkpt>
      <trkpt lat="46.71893" lon="5.59905">
        <ele>319</ele>
        <time>2022-03-09T13:47:09Z</time>
      </trkpt>
      <trkpt lat="46.71886" lon="5.59903">
        <ele>318.8</ele>
        <time>2022-03-09T13:47:10Z</time>
      </trkpt>
      <trkpt lat="46.71879" lon="5.599">
        <ele>318.6</ele>
        <time>2022-03-09T13:47:11Z</time>
      </trkpt>
      <trkpt lat="46.71873" lon="5.59898">
        <ele>318.2</ele>
        <time>2022-03-09T13:47:12Z</time>
      </trkpt>
      <trkpt lat="46.71866" lon="5.59895">
        <ele>318.2</ele>
        <time>2022-03-09T13:47:13Z</time>
      </trkpt>
      <trkpt lat="46.71859" lon="5.59892">
        <ele>318</ele>
        <time>2022-03-09T13:47:14Z</time>
      </trkpt>
      <trkpt lat="46.71853" lon="5.59888">
        <ele>318</ele>
        <time>2022-03-09T13:47:15Z</time>
      </trkpt>
      <trkpt lat="46.71846" lon="5.59884">
        <ele>317.8</ele>
        <time>2022-03-09T13:47:16Z</time>
      </trkpt>
      <trkpt lat="46.71839" lon="5.59879">
        <ele>317.8</ele>
        <time>2022-03-09T13:47:17Z</time>
      </trkpt>
      <trkpt lat="46.71832" lon="5.59874">
        <ele>317.4</ele>
        <time>2022-03-09T13:47:18Z</time>
      </trkpt>
      <trkpt lat="46.71824" lon="5.59869">
        <ele>317.2</ele>
        <time>2022-03-09T13:47:19Z</time>
      </trkpt>
      <trkpt lat="46.71817" lon="5.59863">
        <ele>317.2</ele>
        <time>2022-03-09T13:47:20Z</time>
      </trkpt>
      <trkpt lat="46.7181" lon="5.59857">
        <ele>317</ele>
        <time>2022-03-09T13:47:21Z</time>
      </trkpt>
      <trkpt lat="46.71802" lon="5.59852">
        <ele>317</ele>
        <time>2022-03-09T13:47:22Z</time>
      </trkpt>
      <trkpt lat="46.71795" lon="5.59846">
        <ele>316.6</ele>
        <time>2022-03-09T13:47:23Z</time>
      </trkpt>
      <trkpt lat="46.71788" lon="5.59841">
        <ele>316.6</ele>
        <time>2022-03-09T13:47:24Z</time>
      </trkpt>
      <trkpt lat="46.7178" lon="5.59836">
        <ele>316.4</ele>
        <time>2022-03-09T13:47:25Z</time>
      </trkpt>
      <trkpt lat="46.71773" lon="5.5983">
        <ele>316.4</ele>
        <time>2022-03-09T13:47:26Z</time>
      </trkpt>
      <trkpt lat="46.71766" lon="5.59825">
        <ele>316</ele>
        <time>2022-03-09T13:47:27Z</time>
      </trkpt>
      <trkpt lat="46.7176" lon="5.5982">
        <ele>316</ele>
        <time>2022-03-09T13:47:28Z</time>
      </trkpt>
      <trkpt lat="46.71753" lon="5.59816">
        <ele>316</ele>
        <time>2022-03-09T13:47:29Z</time>
      </trkpt>
      <trkpt lat="46.71747" lon="5.59811">
        <ele>316</ele>
        <time>2022-03-09T13:47:30Z</time>
      </trkpt>
      <trkpt lat="46.71741" lon="5.59807">
        <ele>316</ele>
        <time>2022-03-09T13:47:31Z</time>
      </trkpt>
      <trkpt lat="46.71735" lon="5.59803">
        <ele>316</ele>
        <time>2022-03-09T13:47:32Z</time>
      </trkpt>
      <trkpt lat="46.7173" lon="5.598">
        <ele>316.4</ele>
        <time>2022-03-09T13:47:33Z</time>
      </trkpt>
      <trkpt lat="46.71725" lon="5.59797">
        <ele>316.4</ele>
        <time>2022-03-09T13:47:34Z</time>
      </trkpt>
      <trkpt lat="46.7172" lon="5.59794">
        <ele>316.8</ele>
        <time>2022-03-09T13:47:35Z</time>
      </trkpt>
      <trkpt lat="46.71716" lon="5.59791">
        <ele>317</ele>
        <time>2022-03-09T13:47:36Z</time>
      </trkpt>
      <trkpt lat="46.71711" lon="5.59789">
        <ele>317</ele>
        <time>2022-03-09T13:47:37Z</time>
      </trkpt>
      <trkpt lat="46.71707" lon="5.59787">
        <ele>317.4</ele>
        <time>2022-03-09T13:47:38Z</time>
      </trkpt>
      <trkpt lat="46.71703" lon="5.59785">
        <ele>317.4</ele>
        <time>2022-03-09T13:47:39Z</time>
      </trkpt>
      <trkpt lat="46.717" lon="5.59783">
        <ele>317.8</ele>
        <time>2022-03-09T13:47:40Z</time>
      </trkpt>
      <trkpt lat="46.71697" lon="5.59781">
        <ele>318</ele>
        <time>2022-03-09T13:47:41Z</time>
      </trkpt>
      <trkpt lat="46.71694" lon="5.59779">
        <ele>318</ele>
        <time>2022-03-09T13:47:42Z</time>
      </trkpt>
      <trkpt lat="46.71691" lon="5.59776">
        <ele>318.4</ele>
        <time>2022-03-09T13:47:43Z</time>
      </trkpt>
      <trkpt lat="46.71689" lon="5.59774">
        <ele>318.4</ele>
        <time>2022-03-09T13:47:44Z</time>
      </trkpt>
      <trkpt lat="46.71687" lon="5.5977">
        <ele>318.6</ele>
        <time>2022-03-09T13:47:45Z</time>
      </trkpt>
      <trkpt lat="46.71686" lon="5.59765">
        <ele>318.6</ele>
        <time>2022-03-09T13:47:46Z</time>
      </trkpt>
      <trkpt lat="46.71686" lon="5.59758">
        <ele>318.6</ele>
        <time>2022-03-09T13:47:47Z</time>
      </trkpt>
      <trkpt lat="46.71686" lon="5.5975">
        <ele>318.2</ele>
        <time>2022-03-09T13:47:48Z</time>
      </trkpt>
      <trkpt lat="46.71688" lon="5.59742">
        <ele>317.4</ele>
        <time>2022-03-09T13:47:49Z</time>
      </trkpt>
      <trkpt lat="46.71691" lon="5.59734">
        <ele>317</ele>
        <time>2022-03-09T13:47:50Z</time>
      </trkpt>
      <trkpt lat="46.71693" lon="5.59725">
        <ele>316.6</ele>
        <time>2022-03-09T13:47:51Z</time>
      </trkpt>
      <trkpt lat="46.71696" lon="5.59716">
        <ele>316.2</ele>
        <time>2022-03-09T13:47:52Z</time>
      </trkpt>
      <trkpt lat="46.71699" lon="5.59707">
        <ele>315.8</ele>
        <time>2022-03-09T13:47:53Z</time>
      </trkpt>
      <trkpt lat="46.71703" lon="5.59698">
        <ele>315.4</ele>
        <time>2022-03-09T13:47:54Z</time>
      </trkpt>
      <trkpt lat="46.71707" lon="5.5969">
        <ele>314.8</ele>
        <time>2022-03-09T13:47:55Z</time>
      </trkpt>
      <trkpt lat="46.7171" lon="5.59683">
        <ele>314.4</ele>
        <time>2022-03-09T13:47:56Z</time>
      </trkpt>
      <trkpt lat="46.71713" lon="5.59674">
        <ele>313.8</ele>
        <time>2022-03-09T13:47:57Z</time>
      </trkpt>
      <trkpt lat="46.71716" lon="5.59666">
        <ele>313.4</ele>
        <time>2022-03-09T13:47:58Z</time>
      </trkpt>
      <trkpt lat="46.71719" lon="5.59659">
        <ele>312.8</ele>
        <time>2022-03-09T13:47:59Z</time>
      </trkpt>
      <trkpt lat="46.71722" lon="5.59652">
        <ele>312.4</ele>
        <time>2022-03-09T13:48:00Z</time>
      </trkpt>
      <trkpt lat="46.71725" lon="5.59644">
        <ele>311.8</ele>
        <time>2022-03-09T13:48:01Z</time>
      </trkpt>
      <trkpt lat="46.71726" lon="5.59637">
        <ele>311.2</ele>
        <time>2022-03-09T13:48:02Z</time>
      </trkpt>
      <trkpt lat="46.71727" lon="5.59631">
        <ele>310.8</ele>
        <time>2022-03-09T13:48:03Z</time>
      </trkpt>
      <trkpt lat="46.71726" lon="5.59624">
        <ele>310.4</ele>
        <time>2022-03-09T13:48:04Z</time>
      </trkpt>
      <trkpt lat="46.71723" lon="5.59619">
        <ele>310</ele>
        <time>2022-03-09T13:48:05Z</time>
      </trkpt>
      <trkpt lat="46.71719" lon="5.59614">
        <ele>309.8</ele>
        <time>2022-03-09T13:48:06Z</time>
      </trkpt>
      <trkpt lat="46.71715" lon="5.5961">
        <ele>309.4</ele>
        <time>2022-03-09T13:48:07Z</time>
      </trkpt>
      <trkpt lat="46.71711" lon="5.59606">
        <ele>309.4</ele>
        <time>2022-03-09T13:48:08Z</time>
      </trkpt>
      <trkpt lat="46.71706" lon="5.59602">
        <ele>309.4</ele>
        <time>2022-03-09T13:48:09Z</time>
      </trkpt>
      <trkpt lat="46.71702" lon="5.59599">
        <ele>309.2</ele>
        <time>2022-03-09T13:48:10Z</time>
      </trkpt>
      <trkpt lat="46.71697" lon="5.59595">
        <ele>309.2</ele>
        <time>2022-03-09T13:48:11Z</time>
      </trkpt>
      <trkpt lat="46.71693" lon="5.59592">
        <ele>309.2</ele>
        <time>2022-03-09T13:48:12Z</time>
      </trkpt>
      <trkpt lat="46.71689" lon="5.59589">
        <ele>308.8</ele>
        <time>2022-03-09T13:48:13Z</time>
      </trkpt>
      <trkpt lat="46.71686" lon="5.59586">
        <ele>308.8</ele>
        <time>2022-03-09T13:48:14Z</time>
      </trkpt>
      <trkpt lat="46.71684" lon="5.59581">
        <ele>308.4</ele>
        <time>2022-03-09T13:48:15Z</time>
      </trkpt>
      <trkpt lat="46.71683" lon="5.59575">
        <ele>308.2</ele>
        <time>2022-03-09T13:48:16Z</time>
      </trkpt>
      <trkpt lat="46.71684" lon="5.59569">
        <ele>308</ele>
        <time>2022-03-09T13:48:17Z</time>
      </trkpt>
      <trkpt lat="46.71686" lon="5.59562">
        <ele>307.6</ele>
        <time>2022-03-09T13:48:18Z</time>
      </trkpt>
      <trkpt lat="46.71688" lon="5.59555">
        <ele>307.4</ele>
        <time>2022-03-09T13:48:19Z</time>
      </trkpt>
      <trkpt lat="46.7169" lon="5.59547">
        <ele>306.8</ele>
        <time>2022-03-09T13:48:20Z</time>
      </trkpt>
      <trkpt lat="46.71691" lon="5.59538">
        <ele>306.4</ele>
        <time>2022-03-09T13:48:21Z</time>
      </trkpt>
      <trkpt lat="46.71692" lon="5.59528">
        <ele>306</ele>
        <time>2022-03-09T13:48:22Z</time>
      </trkpt>
      <trkpt lat="46.71692" lon="5.59517">
        <ele>305.6</ele>
        <time>2022-03-09T13:48:23Z</time>
      </trkpt>
      <trkpt lat="46.71692" lon="5.59506">
        <ele>305</ele>
        <time>2022-03-09T13:48:24Z</time>
      </trkpt>
      <trkpt lat="46.71691" lon="5.59494">
        <ele>304.4</ele>
        <time>2022-03-09T13:48:25Z</time>
      </trkpt>
      <trkpt lat="46.7169" lon="5.59481">
        <ele>303.8</ele>
        <time>2022-03-09T13:48:26Z</time>
      </trkpt>
      <trkpt lat="46.71689" lon="5.59469">
        <ele>303.2</ele>
        <time>2022-03-09T13:48:27Z</time>
      </trkpt>
      <trkpt lat="46.71686" lon="5.59455">
        <ele>302.4</ele>
        <time>2022-03-09T13:48:28Z</time>
      </trkpt>
      <trkpt lat="46.71682" lon="5.59441">
        <ele>301.8</ele>
        <time>2022-03-09T13:48:29Z</time>
      </trkpt>
      <trkpt lat="46.71679" lon="5.59428">
        <ele>301.2</ele>
        <time>2022-03-09T13:48:30Z</time>
      </trkpt>
      <trkpt lat="46.71676" lon="5.59415">
        <ele>300.6</ele>
        <time>2022-03-09T13:48:31Z</time>
      </trkpt>
      <trkpt lat="46.71674" lon="5.594">
        <ele>299.8</ele>
        <time>2022-03-09T13:48:32Z</time>
      </trkpt>
      <trkpt lat="46.71672" lon="5.59385">
        <ele>299</ele>
        <time>2022-03-09T13:48:33Z</time>
      </trkpt>
      <trkpt lat="46.71669" lon="5.5937">
        <ele>298.4</ele>
        <time>2022-03-09T13:48:34Z</time>
      </trkpt>
      <trkpt lat="46.71668" lon="5.59354">
        <ele>297.8</ele>
        <time>2022-03-09T13:48:35Z</time>
      </trkpt>
      <trkpt lat="46.71667" lon="5.59339">
        <ele>297.2</ele>
        <time>2022-03-09T13:48:36Z</time>
      </trkpt>
      <trkpt lat="46.71667" lon="5.59324">
        <ele>296.6</ele>
        <time>2022-03-09T13:48:37Z</time>
      </trkpt>
      <trkpt lat="46.71666" lon="5.59309">
        <ele>296.2</ele>
        <time>2022-03-09T13:48:38Z</time>
      </trkpt>
      <trkpt lat="46.71666" lon="5.59295">
        <ele>295.8</ele>
        <time>2022-03-09T13:48:39Z</time>
      </trkpt>
      <trkpt lat="46.71665" lon="5.59282">
        <ele>295.6</ele>
        <time>2022-03-09T13:48:40Z</time>
      </trkpt>
      <trkpt lat="46.71665" lon="5.59268">
        <ele>295.4</ele>
        <time>2022-03-09T13:48:41Z</time>
      </trkpt>
      <trkpt lat="46.71663" lon="5.59255">
        <ele>295.4</ele>
        <time>2022-03-09T13:48:42Z</time>
      </trkpt>
      <trkpt lat="46.71662" lon="5.59243">
        <ele>295.4</ele>
        <time>2022-03-09T13:48:43Z</time>
      </trkpt>
      <trkpt lat="46.71661" lon="5.59231">
        <ele>295.4</ele>
        <time>2022-03-09T13:48:44Z</time>
      </trkpt>
      <trkpt lat="46.7166" lon="5.59219">
        <ele>295.4</ele>
        <time>2022-03-09T13:48:45Z</time>
      </trkpt>
      <trkpt lat="46.7166" lon="5.59208">
        <ele>295.4</ele>
        <time>2022-03-09T13:48:46Z</time>
      </trkpt>
      <trkpt lat="46.7166" lon="5.59208">
        <ele>295.6</ele>
        <time>2022-03-09T13:48:47Z</time>
      </trkpt>
      <trkpt lat="46.71659" lon="5.59197">
        <ele>295.6</ele>
        <time>2022-03-09T13:48:48Z</time>
      </trkpt>
      <trkpt lat="46.7166" lon="5.59186">
        <ele>296</ele>
        <time>2022-03-09T13:48:49Z</time>
      </trkpt>
      <trkpt lat="46.71661" lon="5.59176">
        <ele>296</ele>
        <time>2022-03-09T13:48:50Z</time>
      </trkpt>
      <trkpt lat="46.71661" lon="5.59166">
        <ele>296.4</ele>
        <time>2022-03-09T13:48:51Z</time>
      </trkpt>
      <trkpt lat="46.71661" lon="5.59156">
        <ele>296.4</ele>
        <time>2022-03-09T13:48:52Z</time>
      </trkpt>
      <trkpt lat="46.71661" lon="5.59147">
        <ele>296.6</ele>
        <time>2022-03-09T13:48:53Z</time>
      </trkpt>
      <trkpt lat="46.7166" lon="5.59138">
        <ele>296.6</ele>
        <time>2022-03-09T13:48:54Z</time>
      </trkpt>
      <trkpt lat="46.7166" lon="5.5913">
        <ele>297</ele>
        <time>2022-03-09T13:48:55Z</time>
      </trkpt>
      <trkpt lat="46.7166" lon="5.59121">
        <ele>297</ele>
        <time>2022-03-09T13:48:56Z</time>
      </trkpt>
      <trkpt lat="46.71659" lon="5.59113">
        <ele>297.4</ele>
        <time>2022-03-09T13:48:57Z</time>
      </trkpt>
      <trkpt lat="46.71659" lon="5.59105">
        <ele>297.4</ele>
        <time>2022-03-09T13:48:58Z</time>
      </trkpt>
      <trkpt lat="46.71659" lon="5.59098">
        <ele>297.6</ele>
        <time>2022-03-09T13:48:59Z</time>
      </trkpt>
      <trkpt lat="46.71659" lon="5.5909">
        <ele>297.6</ele>
        <time>2022-03-09T13:49:00Z</time>
      </trkpt>
      <trkpt lat="46.71659" lon="5.59083">
        <ele>298</ele>
        <time>2022-03-09T13:49:01Z</time>
      </trkpt>
      <trkpt lat="46.71659" lon="5.59076">
        <ele>298</ele>
        <time>2022-03-09T13:49:02Z</time>
      </trkpt>
      <trkpt lat="46.71659" lon="5.59068">
        <ele>298.2</ele>
        <time>2022-03-09T13:49:03Z</time>
      </trkpt>
      <trkpt lat="46.71659" lon="5.59061">
        <ele>298.2</ele>
        <time>2022-03-09T13:49:04Z</time>
      </trkpt>
      <trkpt lat="46.71659" lon="5.59054">
        <ele>298.2</ele>
        <time>2022-03-09T13:49:05Z</time>
      </trkpt>
      <trkpt lat="46.71659" lon="5.59047">
        <ele>298.4</ele>
        <time>2022-03-09T13:49:06Z</time>
      </trkpt>
      <trkpt lat="46.71658" lon="5.5904">
        <ele>298.4</ele>
        <time>2022-03-09T13:49:07Z</time>
      </trkpt>
      <trkpt lat="46.71658" lon="5.59033">
        <ele>298.6</ele>
        <time>2022-03-09T13:49:08Z</time>
      </trkpt>
      <trkpt lat="46.71657" lon="5.59026">
        <ele>298.6</ele>
        <time>2022-03-09T13:49:09Z</time>
      </trkpt>
      <trkpt lat="46.71657" lon="5.59019">
        <ele>298.8</ele>
        <time>2022-03-09T13:49:10Z</time>
      </trkpt>
      <trkpt lat="46.71657" lon="5.59012">
        <ele>298.8</ele>
        <time>2022-03-09T13:49:11Z</time>
      </trkpt>
      <trkpt lat="46.71656" lon="5.59005">
        <ele>298.8</ele>
        <time>2022-03-09T13:49:12Z</time>
      </trkpt>
      <trkpt lat="46.71656" lon="5.58998">
        <ele>298.8</ele>
        <time>2022-03-09T13:49:13Z</time>
      </trkpt>
      <trkpt lat="46.71656" lon="5.58991">
        <ele>298.8</ele>
        <time>2022-03-09T13:49:14Z</time>
      </trkpt>
      <trkpt lat="46.71655" lon="5.58984">
        <ele>298.8</ele>
        <time>2022-03-09T13:49:15Z</time>
      </trkpt>
      <trkpt lat="46.71655" lon="5.58977">
        <ele>298.8</ele>
        <time>2022-03-09T13:49:16Z</time>
      </trkpt>
      <trkpt lat="46.71655" lon="5.58969">
        <ele>298.8</ele>
        <time>2022-03-09T13:49:17Z</time>
      </trkpt>
      <trkpt lat="46.71655" lon="5.58961">
        <ele>298.8</ele>
        <time>2022-03-09T13:49:18Z</time>
      </trkpt>
      <trkpt lat="46.71655" lon="5.58952">
        <ele>298.6</ele>
        <time>2022-03-09T13:49:19Z</time>
      </trkpt>
      <trkpt lat="46.71656" lon="5.58943">
        <ele>298.4</ele>
        <time>2022-03-09T13:49:20Z</time>
      </trkpt>
      <trkpt lat="46.71657" lon="5.58933">
        <ele>298</ele>
        <time>2022-03-09T13:49:21Z</time>
      </trkpt>
      <trkpt lat="46.71659" lon="5.58923">
        <ele>298</ele>
        <time>2022-03-09T13:49:22Z</time>
      </trkpt>
      <trkpt lat="46.71661" lon="5.58913">
        <ele>297.8</ele>
        <time>2022-03-09T13:49:23Z</time>
      </trkpt>
      <trkpt lat="46.71663" lon="5.58903">
        <ele>297.6</ele>
        <time>2022-03-09T13:49:24Z</time>
      </trkpt>
      <trkpt lat="46.71665" lon="5.58892">
        <ele>297.6</ele>
        <time>2022-03-09T13:49:25Z</time>
      </trkpt>
      <trkpt lat="46.71667" lon="5.58882">
        <ele>297.2</ele>
        <time>2022-03-09T13:49:26Z</time>
      </trkpt>
      <trkpt lat="46.71669" lon="5.58871">
        <ele>297.2</ele>
        <time>2022-03-09T13:49:27Z</time>
      </trkpt>
      <trkpt lat="46.71672" lon="5.5886">
        <ele>297.2</ele>
        <time>2022-03-09T13:49:28Z</time>
      </trkpt>
      <trkpt lat="46.71675" lon="5.5885">
        <ele>297</ele>
        <time>2022-03-09T13:49:29Z</time>
      </trkpt>
      <trkpt lat="46.71678" lon="5.58839">
        <ele>297</ele>
        <time>2022-03-09T13:49:30Z</time>
      </trkpt>
      <trkpt lat="46.71681" lon="5.58829">
        <ele>297</ele>
        <time>2022-03-09T13:49:31Z</time>
      </trkpt>
      <trkpt lat="46.71685" lon="5.58819">
        <ele>297</ele>
        <time>2022-03-09T13:49:32Z</time>
      </trkpt>
      <trkpt lat="46.71688" lon="5.5881">
        <ele>297</ele>
        <time>2022-03-09T13:49:33Z</time>
      </trkpt>
      <trkpt lat="46.71692" lon="5.58801">
        <ele>297</ele>
        <time>2022-03-09T13:49:34Z</time>
      </trkpt>
      <trkpt lat="46.71695" lon="5.58792">
        <ele>297</ele>
        <time>2022-03-09T13:49:35Z</time>
      </trkpt>
      <trkpt lat="46.71699" lon="5.58783">
        <ele>297.2</ele>
        <time>2022-03-09T13:49:36Z</time>
      </trkpt>
      <trkpt lat="46.71702" lon="5.58775">
        <ele>297.2</ele>
        <time>2022-03-09T13:49:37Z</time>
      </trkpt>
      <trkpt lat="46.71705" lon="5.58767">
        <ele>297.6</ele>
        <time>2022-03-09T13:49:38Z</time>
      </trkpt>
      <trkpt lat="46.71708" lon="5.58759">
        <ele>297.8</ele>
        <time>2022-03-09T13:49:39Z</time>
      </trkpt>
      <trkpt lat="46.71711" lon="5.58751">
        <ele>297.8</ele>
        <time>2022-03-09T13:49:40Z</time>
      </trkpt>
      <trkpt lat="46.71714" lon="5.58743">
        <ele>298</ele>
        <time>2022-03-09T13:49:41Z</time>
      </trkpt>
      <trkpt lat="46.71717" lon="5.58736">
        <ele>298.4</ele>
        <time>2022-03-09T13:49:42Z</time>
      </trkpt>
      <trkpt lat="46.7172" lon="5.58729">
        <ele>298.6</ele>
        <time>2022-03-09T13:49:43Z</time>
      </trkpt>
      <trkpt lat="46.71723" lon="5.58723">
        <ele>298.8</ele>
        <time>2022-03-09T13:49:44Z</time>
      </trkpt>
      <trkpt lat="46.71727" lon="5.58718">
        <ele>298.8</ele>
        <time>2022-03-09T13:49:45Z</time>
      </trkpt>
      <trkpt lat="46.71732" lon="5.58716">
        <ele>299.2</ele>
        <time>2022-03-09T13:49:46Z</time>
      </trkpt>
      <trkpt lat="46.71737" lon="5.58715">
        <ele>299.2</ele>
        <time>2022-03-09T13:49:47Z</time>
      </trkpt>
      <trkpt lat="46.71741" lon="5.58715">
        <ele>299.6</ele>
        <time>2022-03-09T13:49:48Z</time>
      </trkpt>
      <trkpt lat="46.71746" lon="5.58717">
        <ele>299.8</ele>
        <time>2022-03-09T13:49:49Z</time>
      </trkpt>
      <trkpt lat="46.7175" lon="5.58721">
        <ele>299.8</ele>
        <time>2022-03-09T13:49:50Z</time>
      </trkpt>
      <trkpt lat="46.71754" lon="5.58725">
        <ele>300</ele>
        <time>2022-03-09T13:49:51Z</time>
      </trkpt>
      <trkpt lat="46.71757" lon="5.58729">
        <ele>300</ele>
        <time>2022-03-09T13:49:52Z</time>
      </trkpt>
      <trkpt lat="46.71761" lon="5.58733">
        <ele>300.4</ele>
        <time>2022-03-09T13:49:53Z</time>
      </trkpt>
      <trkpt lat="46.71765" lon="5.58737">
        <ele>300.4</ele>
        <time>2022-03-09T13:49:54Z</time>
      </trkpt>
      <trkpt lat="46.71769" lon="5.5874">
        <ele>300.6</ele>
        <time>2022-03-09T13:49:55Z</time>
      </trkpt>
      <trkpt lat="46.71773" lon="5.58743">
        <ele>300.6</ele>
        <time>2022-03-09T13:49:56Z</time>
      </trkpt>
      <trkpt lat="46.71778" lon="5.58744">
        <ele>301</ele>
        <time>2022-03-09T13:49:57Z</time>
      </trkpt>
      <trkpt lat="46.71783" lon="5.58745">
        <ele>301</ele>
        <time>2022-03-09T13:49:58Z</time>
      </trkpt>
      <trkpt lat="46.71787" lon="5.58744">
        <ele>301</ele>
        <time>2022-03-09T13:49:59Z</time>
      </trkpt>
      <trkpt lat="46.71792" lon="5.58742">
        <ele>301.2</ele>
        <time>2022-03-09T13:50:00Z</time>
      </trkpt>
      <trkpt lat="46.71796" lon="5.58739">
        <ele>301.2</ele>
        <time>2022-03-09T13:50:01Z</time>
      </trkpt>
      <trkpt lat="46.71799" lon="5.58734">
        <ele>301.2</ele>
        <time>2022-03-09T13:50:02Z</time>
      </trkpt>
      <trkpt lat="46.71802" lon="5.58729">
        <ele>301.4</ele>
        <time>2022-03-09T13:50:03Z</time>
      </trkpt>
      <trkpt lat="46.71804" lon="5.58724">
        <ele>301.4</ele>
        <time>2022-03-09T13:50:04Z</time>
      </trkpt>
      <trkpt lat="46.71807" lon="5.58719">
        <ele>301.6</ele>
        <time>2022-03-09T13:50:05Z</time>
      </trkpt>
      <trkpt lat="46.71808" lon="5.58715">
        <ele>301.6</ele>
        <time>2022-03-09T13:50:06Z</time>
      </trkpt>
      <trkpt lat="46.7181" lon="5.5871">
        <ele>301.6</ele>
        <time>2022-03-09T13:50:07Z</time>
      </trkpt>
      <trkpt lat="46.71811" lon="5.58706">
        <ele>302</ele>
        <time>2022-03-09T13:50:08Z</time>
      </trkpt>
      <trkpt lat="46.71812" lon="5.58702">
        <ele>302</ele>
        <time>2022-03-09T13:50:09Z</time>
      </trkpt>
      <trkpt lat="46.71813" lon="5.58697">
        <ele>302</ele>
        <time>2022-03-09T13:50:10Z</time>
      </trkpt>
      <trkpt lat="46.71813" lon="5.58693">
        <ele>302.2</ele>
        <time>2022-03-09T13:50:11Z</time>
      </trkpt>
      <trkpt lat="46.71812" lon="5.58688">
        <ele>302.2</ele>
        <time>2022-03-09T13:50:12Z</time>
      </trkpt>
      <trkpt lat="46.71809" lon="5.58686">
        <ele>302.2</ele>
        <time>2022-03-09T13:50:13Z</time>
      </trkpt>
      <trkpt lat="46.71805" lon="5.58684">
        <ele>302.2</ele>
        <time>2022-03-09T13:50:14Z</time>
      </trkpt>
      <trkpt lat="46.71801" lon="5.58683">
        <ele>302.4</ele>
        <time>2022-03-09T13:50:15Z</time>
      </trkpt>
      <trkpt lat="46.71797" lon="5.58682">
        <ele>302.4</ele>
        <time>2022-03-09T13:50:16Z</time>
      </trkpt>
      <trkpt lat="46.71793" lon="5.58681">
        <ele>302.8</ele>
        <time>2022-03-09T13:50:17Z</time>
      </trkpt>
      <trkpt lat="46.71788" lon="5.5868">
        <ele>302.8</ele>
        <time>2022-03-09T13:50:18Z</time>
      </trkpt>
      <trkpt lat="46.71784" lon="5.58679">
        <ele>303.2</ele>
        <time>2022-03-09T13:50:19Z</time>
      </trkpt>
      <trkpt lat="46.71779" lon="5.58677">
        <ele>303.4</ele>
        <time>2022-03-09T13:50:20Z</time>
      </trkpt>
      <trkpt lat="46.71775" lon="5.58676">
        <ele>303.8</ele>
        <time>2022-03-09T13:50:21Z</time>
      </trkpt>
      <trkpt lat="46.71771" lon="5.58675">
        <ele>303.8</ele>
        <time>2022-03-09T13:50:22Z</time>
      </trkpt>
      <trkpt lat="46.71766" lon="5.58674">
        <ele>304.2</ele>
        <time>2022-03-09T13:50:23Z</time>
      </trkpt>
      <trkpt lat="46.71762" lon="5.58672">
        <ele>304.4</ele>
        <time>2022-03-09T13:50:24Z</time>
      </trkpt>
      <trkpt lat="46.71757" lon="5.58671">
        <ele>304.6</ele>
        <time>2022-03-09T13:50:25Z</time>
      </trkpt>
      <trkpt lat="46.71753" lon="5.5867">
        <ele>304.6</ele>
        <time>2022-03-09T13:50:26Z</time>
      </trkpt>
      <trkpt lat="46.71748" lon="5.58668">
        <ele>305</ele>
        <time>2022-03-09T13:50:27Z</time>
      </trkpt>
      <trkpt lat="46.71744" lon="5.58667">
        <ele>305.4</ele>
        <time>2022-03-09T13:50:28Z</time>
      </trkpt>
      <trkpt lat="46.71739" lon="5.58665">
        <ele>305.6</ele>
        <time>2022-03-09T13:50:29Z</time>
      </trkpt>
      <trkpt lat="46.71735" lon="5.58664">
        <ele>305.8</ele>
        <time>2022-03-09T13:50:30Z</time>
      </trkpt>
      <trkpt lat="46.71731" lon="5.58662">
        <ele>305.8</ele>
        <time>2022-03-09T13:50:31Z</time>
      </trkpt>
      <trkpt lat="46.71727" lon="5.5866">
        <ele>306.4</ele>
        <time>2022-03-09T13:50:32Z</time>
      </trkpt>
      <trkpt lat="46.71723" lon="5.58657">
        <ele>306.6</ele>
        <time>2022-03-09T13:50:33Z</time>
      </trkpt>
      <trkpt lat="46.71718" lon="5.58654">
        <ele>306.6</ele>
        <time>2022-03-09T13:50:34Z</time>
      </trkpt>
      <trkpt lat="46.71714" lon="5.58652">
        <ele>307</ele>
        <time>2022-03-09T13:50:35Z</time>
      </trkpt>
      <trkpt lat="46.7171" lon="5.58649">
        <ele>307</ele>
        <time>2022-03-09T13:50:36Z</time>
      </trkpt>
      <trkpt lat="46.71706" lon="5.58645">
        <ele>307.2</ele>
        <time>2022-03-09T13:50:37Z</time>
      </trkpt>
      <trkpt lat="46.71703" lon="5.58642">
        <ele>307.2</ele>
        <time>2022-03-09T13:50:38Z</time>
      </trkpt>
      <trkpt lat="46.71699" lon="5.58638">
        <ele>307.6</ele>
        <time>2022-03-09T13:50:39Z</time>
      </trkpt>
      <trkpt lat="46.71695" lon="5.58635">
        <ele>307.6</ele>
        <time>2022-03-09T13:50:40Z</time>
      </trkpt>
      <trkpt lat="46.71692" lon="5.58632">
        <ele>307.8</ele>
        <time>2022-03-09T13:50:41Z</time>
      </trkpt>
      <trkpt lat="46.71688" lon="5.58629">
        <ele>307.8</ele>
        <time>2022-03-09T13:50:42Z</time>
      </trkpt>
      <trkpt lat="46.71685" lon="5.58625">
        <ele>308.2</ele>
        <time>2022-03-09T13:50:43Z</time>
      </trkpt>
      <trkpt lat="46.71681" lon="5.58622">
        <ele>308.2</ele>
        <time>2022-03-09T13:50:44Z</time>
      </trkpt>
      <trkpt lat="46.71677" lon="5.58618">
        <ele>308.4</ele>
        <time>2022-03-09T13:50:45Z</time>
      </trkpt>
      <trkpt lat="46.71674" lon="5.58615">
        <ele>308.4</ele>
        <time>2022-03-09T13:50:46Z</time>
      </trkpt>
      <trkpt lat="46.7167" lon="5.58611">
        <ele>308.4</ele>
        <time>2022-03-09T13:50:47Z</time>
      </trkpt>
      <trkpt lat="46.71666" lon="5.58608">
        <ele>308.8</ele>
        <time>2022-03-09T13:50:48Z</time>
      </trkpt>
      <trkpt lat="46.71662" lon="5.58605">
        <ele>308.8</ele>
        <time>2022-03-09T13:50:49Z</time>
      </trkpt>
      <trkpt lat="46.71659" lon="5.58601">
        <ele>308.8</ele>
        <time>2022-03-09T13:50:50Z</time>
      </trkpt>
      <trkpt lat="46.71657" lon="5.58595">
        <ele>308.8</ele>
        <time>2022-03-09T13:50:51Z</time>
      </trkpt>
      <trkpt lat="46.71656" lon="5.58589">
        <ele>308.8</ele>
        <time>2022-03-09T13:50:52Z</time>
      </trkpt>
      <trkpt lat="46.71657" lon="5.58583">
        <ele>309</ele>
        <time>2022-03-09T13:50:53Z</time>
      </trkpt>
      <trkpt lat="46.7166" lon="5.58578">
        <ele>309</ele>
        <time>2022-03-09T13:50:54Z</time>
      </trkpt>
      <trkpt lat="46.71664" lon="5.58574">
        <ele>309</ele>
        <time>2022-03-09T13:50:55Z</time>
      </trkpt>
      <trkpt lat="46.71668" lon="5.58572">
        <ele>309.4</ele>
        <time>2022-03-09T13:50:56Z</time>
      </trkpt>
      <trkpt lat="46.71673" lon="5.5857">
        <ele>309.6</ele>
        <time>2022-03-09T13:50:57Z</time>
      </trkpt>
      <trkpt lat="46.71677" lon="5.5857">
        <ele>309.6</ele>
        <time>2022-03-09T13:50:58Z</time>
      </trkpt>
      <trkpt lat="46.71682" lon="5.58571">
        <ele>309.8</ele>
        <time>2022-03-09T13:50:59Z</time>
      </trkpt>
      <trkpt lat="46.71686" lon="5.58573">
        <ele>310</ele>
        <time>2022-03-09T13:51:00Z</time>
      </trkpt>
      <trkpt lat="46.71693" lon="5.58577">
        <ele>310.4</ele>
        <time>2022-03-09T13:51:01Z</time>
      </trkpt>
      <trkpt lat="46.71697" lon="5.58579">
        <ele>310.6</ele>
        <time>2022-03-09T13:51:02Z</time>
      </trkpt>
      <trkpt lat="46.71701" lon="5.5858">
        <ele>310.6</ele>
        <time>2022-03-09T13:51:03Z</time>
      </trkpt>
      <trkpt lat="46.71704" lon="5.58581">
        <ele>311</ele>
        <time>2022-03-09T13:51:04Z</time>
      </trkpt>
      <trkpt lat="46.71708" lon="5.58582">
        <ele>311</ele>
        <time>2022-03-09T13:51:05Z</time>
      </trkpt>
      <trkpt lat="46.71711" lon="5.58583">
        <ele>311.4</ele>
        <time>2022-03-09T13:51:06Z</time>
      </trkpt>
      <trkpt lat="46.71715" lon="5.58583">
        <ele>311.4</ele>
        <time>2022-03-09T13:51:07Z</time>
      </trkpt>
      <trkpt lat="46.71718" lon="5.58583">
        <ele>311.8</ele>
        <time>2022-03-09T13:51:08Z</time>
      </trkpt>
      <trkpt lat="46.71721" lon="5.58583">
        <ele>311.8</ele>
        <time>2022-03-09T13:51:09Z</time>
      </trkpt>
      <trkpt lat="46.71725" lon="5.58583">
        <ele>312.2</ele>
        <time>2022-03-09T13:51:10Z</time>
      </trkpt>
      <trkpt lat="46.71728" lon="5.58583">
        <ele>312.2</ele>
        <time>2022-03-09T13:51:11Z</time>
      </trkpt>
      <trkpt lat="46.71731" lon="5.58583">
        <ele>312.6</ele>
        <time>2022-03-09T13:51:12Z</time>
      </trkpt>
      <trkpt lat="46.71735" lon="5.58583">
        <ele>312.8</ele>
        <time>2022-03-09T13:51:13Z</time>
      </trkpt>
      <trkpt lat="46.71738" lon="5.58583">
        <ele>312.8</ele>
        <time>2022-03-09T13:51:14Z</time>
      </trkpt>
      <trkpt lat="46.71741" lon="5.58582">
        <ele>313.2</ele>
        <time>2022-03-09T13:51:15Z</time>
      </trkpt>
      <trkpt lat="46.71745" lon="5.58581">
        <ele>313.4</ele>
        <time>2022-03-09T13:51:16Z</time>
      </trkpt>
      <trkpt lat="46.71748" lon="5.5858">
        <ele>313.6</ele>
        <time>2022-03-09T13:51:17Z</time>
      </trkpt>
      <trkpt lat="46.71751" lon="5.58579">
        <ele>313.6</ele>
        <time>2022-03-09T13:51:18Z</time>
      </trkpt>
      <trkpt lat="46.71754" lon="5.58577">
        <ele>314</ele>
        <time>2022-03-09T13:51:19Z</time>
      </trkpt>
      <trkpt lat="46.71757" lon="5.58576">
        <ele>314.4</ele>
        <time>2022-03-09T13:51:20Z</time>
      </trkpt>
      <trkpt lat="46.7176" lon="5.58576">
        <ele>314.6</ele>
        <time>2022-03-09T13:51:21Z</time>
      </trkpt>
      <trkpt lat="46.71763" lon="5.58574">
        <ele>314.8</ele>
        <time>2022-03-09T13:51:22Z</time>
      </trkpt>
      <trkpt lat="46.71766" lon="5.58572">
        <ele>314.8</ele>
        <time>2022-03-09T13:51:23Z</time>
      </trkpt>
      <trkpt lat="46.71768" lon="5.58569">
        <ele>315.2</ele>
        <time>2022-03-09T13:51:24Z</time>
      </trkpt>
      <trkpt lat="46.7177" lon="5.58565">
        <ele>315.2</ele>
        <time>2022-03-09T13:51:25Z</time>
      </trkpt>
      <trkpt lat="46.71773" lon="5.58562">
        <ele>315.6</ele>
        <time>2022-03-09T13:51:26Z</time>
      </trkpt>
      <trkpt lat="46.71775" lon="5.58558">
        <ele>315.6</ele>
        <time>2022-03-09T13:51:27Z</time>
      </trkpt>
      <trkpt lat="46.71777" lon="5.58554">
        <ele>316</ele>
        <time>2022-03-09T13:51:28Z</time>
      </trkpt>
      <trkpt lat="46.71779" lon="5.5855">
        <ele>316.2</ele>
        <time>2022-03-09T13:51:29Z</time>
      </trkpt>
      <trkpt lat="46.7178" lon="5.58545">
        <ele>316.4</ele>
        <time>2022-03-09T13:51:30Z</time>
      </trkpt>
      <trkpt lat="46.71781" lon="5.58541">
        <ele>316.6</ele>
        <time>2022-03-09T13:51:31Z</time>
      </trkpt>
      <trkpt lat="46.71783" lon="5.58536">
        <ele>316.6</ele>
        <time>2022-03-09T13:51:32Z</time>
      </trkpt>
      <trkpt lat="46.71784" lon="5.58532">
        <ele>317</ele>
        <time>2022-03-09T13:51:33Z</time>
      </trkpt>
      <trkpt lat="46.71785" lon="5.58528">
        <ele>317</ele>
        <time>2022-03-09T13:51:34Z</time>
      </trkpt>
      <trkpt lat="46.71786" lon="5.58524">
        <ele>317.4</ele>
        <time>2022-03-09T13:51:35Z</time>
      </trkpt>
      <trkpt lat="46.71787" lon="5.58519">
        <ele>317.4</ele>
        <time>2022-03-09T13:51:36Z</time>
      </trkpt>
      <trkpt lat="46.71789" lon="5.58515">
        <ele>317.8</ele>
        <time>2022-03-09T13:51:37Z</time>
      </trkpt>
      <trkpt lat="46.7179" lon="5.58511">
        <ele>317.8</ele>
        <time>2022-03-09T13:51:38Z</time>
      </trkpt>
      <trkpt lat="46.71792" lon="5.58507">
        <ele>318</ele>
        <time>2022-03-09T13:51:39Z</time>
      </trkpt>
      <trkpt lat="46.71793" lon="5.58503">
        <ele>318</ele>
        <time>2022-03-09T13:51:40Z</time>
      </trkpt>
      <trkpt lat="46.71794" lon="5.58499">
        <ele>318.4</ele>
        <time>2022-03-09T13:51:41Z</time>
      </trkpt>
      <trkpt lat="46.71796" lon="5.58495">
        <ele>318.6</ele>
        <time>2022-03-09T13:51:42Z</time>
      </trkpt>
      <trkpt lat="46.71797" lon="5.58491">
        <ele>318.6</ele>
        <time>2022-03-09T13:51:43Z</time>
      </trkpt>
      <trkpt lat="46.71798" lon="5.58487">
        <ele>319</ele>
        <time>2022-03-09T13:51:44Z</time>
      </trkpt>
      <trkpt lat="46.71799" lon="5.58483">
        <ele>319</ele>
        <time>2022-03-09T13:51:45Z</time>
      </trkpt>
      <trkpt lat="46.71801" lon="5.58478">
        <ele>319.4</ele>
        <time>2022-03-09T13:51:46Z</time>
      </trkpt>
      <trkpt lat="46.71802" lon="5.58474">
        <ele>319.4</ele>
        <time>2022-03-09T13:51:47Z</time>
      </trkpt>
      <trkpt lat="46.71804" lon="5.5847">
        <ele>319.6</ele>
        <time>2022-03-09T13:51:48Z</time>
      </trkpt>
      <trkpt lat="46.71805" lon="5.58465">
        <ele>320</ele>
        <time>2022-03-09T13:51:49Z</time>
      </trkpt>
      <trkpt lat="46.71806" lon="5.58461">
        <ele>320</ele>
        <time>2022-03-09T13:51:50Z</time>
      </trkpt>
      <trkpt lat="46.71807" lon="5.58456">
        <ele>320.4</ele>
        <time>2022-03-09T13:51:51Z</time>
      </trkpt>
      <trkpt lat="46.71807" lon="5.58451">
        <ele>320.4</ele>
        <time>2022-03-09T13:51:52Z</time>
      </trkpt>
      <trkpt lat="46.71808" lon="5.58447">
        <ele>320.6</ele>
        <time>2022-03-09T13:51:53Z</time>
      </trkpt>
      <trkpt lat="46.71809" lon="5.58442">
        <ele>320.8</ele>
        <time>2022-03-09T13:51:54Z</time>
      </trkpt>
      <trkpt lat="46.7181" lon="5.58438">
        <ele>320.8</ele>
        <time>2022-03-09T13:51:55Z</time>
      </trkpt>
      <trkpt lat="46.71812" lon="5.58433">
        <ele>321.2</ele>
        <time>2022-03-09T13:51:56Z</time>
      </trkpt>
      <trkpt lat="46.71813" lon="5.58429">
        <ele>321.2</ele>
        <time>2022-03-09T13:51:57Z</time>
      </trkpt>
      <trkpt lat="46.71814" lon="5.58424">
        <ele>321.6</ele>
        <time>2022-03-09T13:51:58Z</time>
      </trkpt>
      <trkpt lat="46.71815" lon="5.58419">
        <ele>321.8</ele>
        <time>2022-03-09T13:51:59Z</time>
      </trkpt>
      <trkpt lat="46.71816" lon="5.58415">
        <ele>321.8</ele>
        <time>2022-03-09T13:52:00Z</time>
      </trkpt>
      <trkpt lat="46.71817" lon="5.5841">
        <ele>322.2</ele>
        <time>2022-03-09T13:52:01Z</time>
      </trkpt>
      <trkpt lat="46.71818" lon="5.58405">
        <ele>322.2</ele>
        <time>2022-03-09T13:52:02Z</time>
      </trkpt>
      <trkpt lat="46.7182" lon="5.58401">
        <ele>322.2</ele>
        <time>2022-03-09T13:52:03Z</time>
      </trkpt>
      <trkpt lat="46.71821" lon="5.58396">
        <ele>322.6</ele>
        <time>2022-03-09T13:52:04Z</time>
      </trkpt>
      <trkpt lat="46.71822" lon="5.58391">
        <ele>322.6</ele>
        <time>2022-03-09T13:52:05Z</time>
      </trkpt>
      <trkpt lat="46.71824" lon="5.58386">
        <ele>322.8</ele>
        <time>2022-03-09T13:52:06Z</time>
      </trkpt>
      <trkpt lat="46.71825" lon="5.58381">
        <ele>322.8</ele>
        <time>2022-03-09T13:52:07Z</time>
      </trkpt>
      <trkpt lat="46.71827" lon="5.58376">
        <ele>323.2</ele>
        <time>2022-03-09T13:52:08Z</time>
      </trkpt>
      <trkpt lat="46.71828" lon="5.58372">
        <ele>323.2</ele>
        <time>2022-03-09T13:52:09Z</time>
      </trkpt>
      <trkpt lat="46.71829" lon="5.58367">
        <ele>323.4</ele>
        <time>2022-03-09T13:52:10Z</time>
      </trkpt>
      <trkpt lat="46.7183" lon="5.58362">
        <ele>323.6</ele>
        <time>2022-03-09T13:52:11Z</time>
      </trkpt>
      <trkpt lat="46.71831" lon="5.58357">
        <ele>323.8</ele>
        <time>2022-03-09T13:52:12Z</time>
      </trkpt>
      <trkpt lat="46.71832" lon="5.58352">
        <ele>323.8</ele>
        <time>2022-03-09T13:52:13Z</time>
      </trkpt>
      <trkpt lat="46.71834" lon="5.58348">
        <ele>324.2</ele>
        <time>2022-03-09T13:52:14Z</time>
      </trkpt>
      <trkpt lat="46.71835" lon="5.58343">
        <ele>324.4</ele>
        <time>2022-03-09T13:52:15Z</time>
      </trkpt>
      <trkpt lat="46.71836" lon="5.58338">
        <ele>324.4</ele>
        <time>2022-03-09T13:52:16Z</time>
      </trkpt>
      <trkpt lat="46.71838" lon="5.58333">
        <ele>324.8</ele>
        <time>2022-03-09T13:52:17Z</time>
      </trkpt>
      <trkpt lat="46.71839" lon="5.58329">
        <ele>324.8</ele>
        <time>2022-03-09T13:52:18Z</time>
      </trkpt>
      <trkpt lat="46.71841" lon="5.58325">
        <ele>325.2</ele>
        <time>2022-03-09T13:52:19Z</time>
      </trkpt>
      <trkpt lat="46.71843" lon="5.58321">
        <ele>325.2</ele>
        <time>2022-03-09T13:52:20Z</time>
      </trkpt>
      <trkpt lat="46.71845" lon="5.58317">
        <ele>325.4</ele>
        <time>2022-03-09T13:52:21Z</time>
      </trkpt>
      <trkpt lat="46.71846" lon="5.58313">
        <ele>325.4</ele>
        <time>2022-03-09T13:52:22Z</time>
      </trkpt>
      <trkpt lat="46.71848" lon="5.58309">
        <ele>325.8</ele>
        <time>2022-03-09T13:52:23Z</time>
      </trkpt>
      <trkpt lat="46.7185" lon="5.58305">
        <ele>325.8</ele>
        <time>2022-03-09T13:52:24Z</time>
      </trkpt>
      <trkpt lat="46.71852" lon="5.583">
        <ele>326.2</ele>
        <time>2022-03-09T13:52:25Z</time>
      </trkpt>
      <trkpt lat="46.71854" lon="5.58296">
        <ele>326.2</ele>
        <time>2022-03-09T13:52:26Z</time>
      </trkpt>
      <trkpt lat="46.71855" lon="5.58292">
        <ele>326.4</ele>
        <time>2022-03-09T13:52:27Z</time>
      </trkpt>
      <trkpt lat="46.71857" lon="5.58287">
        <ele>326.6</ele>
        <time>2022-03-09T13:52:28Z</time>
      </trkpt>
      <trkpt lat="46.71859" lon="5.58283">
        <ele>326.6</ele>
        <time>2022-03-09T13:52:29Z</time>
      </trkpt>
      <trkpt lat="46.71861" lon="5.58278">
        <ele>327</ele>
        <time>2022-03-09T13:52:30Z</time>
      </trkpt>
      <trkpt lat="46.71863" lon="5.58274">
        <ele>327</ele>
        <time>2022-03-09T13:52:31Z</time>
      </trkpt>
      <trkpt lat="46.71865" lon="5.58269">
        <ele>327.2</ele>
        <time>2022-03-09T13:52:32Z</time>
      </trkpt>
      <trkpt lat="46.71867" lon="5.58265">
        <ele>327.2</ele>
        <time>2022-03-09T13:52:33Z</time>
      </trkpt>
      <trkpt lat="46.71868" lon="5.5826">
        <ele>327.6</ele>
        <time>2022-03-09T13:52:34Z</time>
      </trkpt>
      <trkpt lat="46.7187" lon="5.58256">
        <ele>327.6</ele>
        <time>2022-03-09T13:52:35Z</time>
      </trkpt>
      <trkpt lat="46.71872" lon="5.58251">
        <ele>327.8</ele>
        <time>2022-03-09T13:52:36Z</time>
      </trkpt>
      <trkpt lat="46.71874" lon="5.58246">
        <ele>327.8</ele>
        <time>2022-03-09T13:52:37Z</time>
      </trkpt>
      <trkpt lat="46.71876" lon="5.58241">
        <ele>327.8</ele>
        <time>2022-03-09T13:52:38Z</time>
      </trkpt>
      <trkpt lat="46.71878" lon="5.58236">
        <ele>328.2</ele>
        <time>2022-03-09T13:52:39Z</time>
      </trkpt>
      <trkpt lat="46.7188" lon="5.58231">
        <ele>328.2</ele>
        <time>2022-03-09T13:52:40Z</time>
      </trkpt>
      <trkpt lat="46.71882" lon="5.58226">
        <ele>328.4</ele>
        <time>2022-03-09T13:52:41Z</time>
      </trkpt>
      <trkpt lat="46.71884" lon="5.58221">
        <ele>328.4</ele>
        <time>2022-03-09T13:52:42Z</time>
      </trkpt>
      <trkpt lat="46.71886" lon="5.58217">
        <ele>328.6</ele>
        <time>2022-03-09T13:52:43Z</time>
      </trkpt>
      <trkpt lat="46.71888" lon="5.58212">
        <ele>328.6</ele>
        <time>2022-03-09T13:52:44Z</time>
      </trkpt>
      <trkpt lat="46.71889" lon="5.58207">
        <ele>328.8</ele>
        <time>2022-03-09T13:52:45Z</time>
      </trkpt>
      <trkpt lat="46.71891" lon="5.58202">
        <ele>328.8</ele>
        <time>2022-03-09T13:52:46Z</time>
      </trkpt>
      <trkpt lat="46.71893" lon="5.58197">
        <ele>329</ele>
        <time>2022-03-09T13:52:47Z</time>
      </trkpt>
      <trkpt lat="46.71895" lon="5.58192">
        <ele>329</ele>
        <time>2022-03-09T13:52:48Z</time>
      </trkpt>
      <trkpt lat="46.71897" lon="5.58186">
        <ele>329</ele>
        <time>2022-03-09T13:52:49Z</time>
      </trkpt>
      <trkpt lat="46.71899" lon="5.58181">
        <ele>329</ele>
        <time>2022-03-09T13:52:50Z</time>
      </trkpt>
      <trkpt lat="46.71901" lon="5.58176">
        <ele>329.2</ele>
        <time>2022-03-09T13:52:51Z</time>
      </trkpt>
      <trkpt lat="46.71902" lon="5.5817">
        <ele>329.2</ele>
        <time>2022-03-09T13:52:52Z</time>
      </trkpt>
      <trkpt lat="46.71904" lon="5.58165">
        <ele>329.2</ele>
        <time>2022-03-09T13:52:53Z</time>
      </trkpt>
      <trkpt lat="46.71906" lon="5.58159">
        <ele>329.6</ele>
        <time>2022-03-09T13:52:54Z</time>
      </trkpt>
      <trkpt lat="46.71909" lon="5.58154">
        <ele>329.6</ele>
        <time>2022-03-09T13:52:55Z</time>
      </trkpt>
      <trkpt lat="46.71911" lon="5.58148">
        <ele>329.6</ele>
        <time>2022-03-09T13:52:56Z</time>
      </trkpt>
      <trkpt lat="46.71913" lon="5.58143">
        <ele>329.8</ele>
        <time>2022-03-09T13:52:57Z</time>
      </trkpt>
      <trkpt lat="46.71915" lon="5.58137">
        <ele>329.8</ele>
        <time>2022-03-09T13:52:58Z</time>
      </trkpt>
      <trkpt lat="46.71918" lon="5.58132">
        <ele>329.8</ele>
        <time>2022-03-09T13:52:59Z</time>
      </trkpt>
      <trkpt lat="46.7192" lon="5.58127">
        <ele>330</ele>
        <time>2022-03-09T13:53:00Z</time>
      </trkpt>
      <trkpt lat="46.71922" lon="5.58122">
        <ele>330</ele>
        <time>2022-03-09T13:53:01Z</time>
      </trkpt>
      <trkpt lat="46.71925" lon="5.58117">
        <ele>330</ele>
        <time>2022-03-09T13:53:02Z</time>
      </trkpt>
      <trkpt lat="46.71927" lon="5.58112">
        <ele>330.2</ele>
        <time>2022-03-09T13:53:03Z</time>
      </trkpt>
      <trkpt lat="46.7193" lon="5.58107">
        <ele>330.2</ele>
        <time>2022-03-09T13:53:04Z</time>
      </trkpt>
      <trkpt lat="46.71932" lon="5.58103">
        <ele>330.2</ele>
        <time>2022-03-09T13:53:05Z</time>
      </trkpt>
      <trkpt lat="46.71934" lon="5.58098">
        <ele>330.4</ele>
        <time>2022-03-09T13:53:06Z</time>
      </trkpt>
      <trkpt lat="46.71937" lon="5.58093">
        <ele>330.4</ele>
        <time>2022-03-09T13:53:07Z</time>
      </trkpt>
      <trkpt lat="46.71939" lon="5.58089">
        <ele>330.8</ele>
        <time>2022-03-09T13:53:08Z</time>
      </trkpt>
      <trkpt lat="46.71941" lon="5.58084">
        <ele>330.8</ele>
        <time>2022-03-09T13:53:09Z</time>
      </trkpt>
      <trkpt lat="46.71943" lon="5.58079">
        <ele>331</ele>
        <time>2022-03-09T13:53:10Z</time>
      </trkpt>
      <trkpt lat="46.71943" lon="5.58079">
        <ele>331.4</ele>
        <time>2022-03-09T13:53:11Z</time>
      </trkpt>
      <trkpt lat="46.71945" lon="5.58075">
        <ele>331.4</ele>
        <time>2022-03-09T13:53:12Z</time>
      </trkpt>
      <trkpt lat="46.71947" lon="5.58071">
        <ele>331.6</ele>
        <time>2022-03-09T13:53:13Z</time>
      </trkpt>
      <trkpt lat="46.7195" lon="5.58066">
        <ele>331.6</ele>
        <time>2022-03-09T13:53:14Z</time>
      </trkpt>
      <trkpt lat="46.71952" lon="5.58062">
        <ele>332</ele>
        <time>2022-03-09T13:53:15Z</time>
      </trkpt>
      <trkpt lat="46.71953" lon="5.58057">
        <ele>332</ele>
        <time>2022-03-09T13:53:16Z</time>
      </trkpt>
      <trkpt lat="46.71955" lon="5.58053">
        <ele>332.4</ele>
        <time>2022-03-09T13:53:17Z</time>
      </trkpt>
      <trkpt lat="46.71956" lon="5.58049">
        <ele>332.4</ele>
        <time>2022-03-09T13:53:18Z</time>
      </trkpt>
      <trkpt lat="46.71958" lon="5.58044">
        <ele>332.8</ele>
        <time>2022-03-09T13:53:19Z</time>
      </trkpt>
      <trkpt lat="46.71959" lon="5.5804">
        <ele>333</ele>
        <time>2022-03-09T13:53:20Z</time>
      </trkpt>
      <trkpt lat="46.7196" lon="5.58036">
        <ele>333.2</ele>
        <time>2022-03-09T13:53:21Z</time>
      </trkpt>
      <trkpt lat="46.71961" lon="5.58032">
        <ele>333.4</ele>
        <time>2022-03-09T13:53:22Z</time>
      </trkpt>
      <trkpt lat="46.71963" lon="5.58028">
        <ele>333.8</ele>
        <time>2022-03-09T13:53:23Z</time>
      </trkpt>
      <trkpt lat="46.71965" lon="5.58023">
        <ele>334</ele>
        <time>2022-03-09T13:53:24Z</time>
      </trkpt>
      <trkpt lat="46.71967" lon="5.58019">
        <ele>334.2</ele>
        <time>2022-03-09T13:53:25Z</time>
      </trkpt>
      <trkpt lat="46.71968" lon="5.58015">
        <ele>334.4</ele>
        <time>2022-03-09T13:53:26Z</time>
      </trkpt>
      <trkpt lat="46.7197" lon="5.58011">
        <ele>334.8</ele>
        <time>2022-03-09T13:53:27Z</time>
      </trkpt>
      <trkpt lat="46.71972" lon="5.58008">
        <ele>335</ele>
        <time>2022-03-09T13:53:28Z</time>
      </trkpt>
      <trkpt lat="46.71973" lon="5.58004">
        <ele>335.2</ele>
        <time>2022-03-09T13:53:29Z</time>
      </trkpt>
      <trkpt lat="46.71975" lon="5.58001">
        <ele>335.2</ele>
        <time>2022-03-09T13:53:30Z</time>
      </trkpt>
      <trkpt lat="46.71977" lon="5.57998">
        <ele>335.6</ele>
        <time>2022-03-09T13:53:31Z</time>
      </trkpt>
      <trkpt lat="46.71979" lon="5.57995">
        <ele>335.6</ele>
        <time>2022-03-09T13:53:32Z</time>
      </trkpt>
      <trkpt lat="46.71981" lon="5.57992">
        <ele>336</ele>
        <time>2022-03-09T13:53:33Z</time>
      </trkpt>
      <trkpt lat="46.71983" lon="5.57989">
        <ele>336</ele>
        <time>2022-03-09T13:53:34Z</time>
      </trkpt>
      <trkpt lat="46.71985" lon="5.57986">
        <ele>336.2</ele>
        <time>2022-03-09T13:53:35Z</time>
      </trkpt>
      <trkpt lat="46.71986" lon="5.57982">
        <ele>336.2</ele>
        <time>2022-03-09T13:53:36Z</time>
      </trkpt>
      <trkpt lat="46.71987" lon="5.57978">
        <ele>336.4</ele>
        <time>2022-03-09T13:53:37Z</time>
      </trkpt>
      <trkpt lat="46.71989" lon="5.57974">
        <ele>336.8</ele>
        <time>2022-03-09T13:53:38Z</time>
      </trkpt>
      <trkpt lat="46.7199" lon="5.57971">
        <ele>336.8</ele>
        <time>2022-03-09T13:53:39Z</time>
      </trkpt>
      <trkpt lat="46.71992" lon="5.57968">
        <ele>337.2</ele>
        <time>2022-03-09T13:53:40Z</time>
      </trkpt>
      <trkpt lat="46.71992" lon="5.57964">
        <ele>337.4</ele>
        <time>2022-03-09T13:53:41Z</time>
      </trkpt>
      <trkpt lat="46.71994" lon="5.57961">
        <ele>337.6</ele>
        <time>2022-03-09T13:53:42Z</time>
      </trkpt>
      <trkpt lat="46.71995" lon="5.57957">
        <ele>337.8</ele>
        <time>2022-03-09T13:53:43Z</time>
      </trkpt>
      <trkpt lat="46.71996" lon="5.57954">
        <ele>337.8</ele>
        <time>2022-03-09T13:53:44Z</time>
      </trkpt>
      <trkpt lat="46.71998" lon="5.57951">
        <ele>338.2</ele>
        <time>2022-03-09T13:53:45Z</time>
      </trkpt>
      <trkpt lat="46.71999" lon="5.57947">
        <ele>338.2</ele>
        <time>2022-03-09T13:53:46Z</time>
      </trkpt>
      <trkpt lat="46.72" lon="5.57943">
        <ele>338.6</ele>
        <time>2022-03-09T13:53:47Z</time>
      </trkpt>
      <trkpt lat="46.72001" lon="5.57939">
        <ele>338.6</ele>
        <time>2022-03-09T13:53:48Z</time>
      </trkpt>
      <trkpt lat="46.72003" lon="5.57935">
        <ele>339</ele>
        <time>2022-03-09T13:53:49Z</time>
      </trkpt>
      <trkpt lat="46.72004" lon="5.5793">
        <ele>339</ele>
        <time>2022-03-09T13:53:50Z</time>
      </trkpt>
      <trkpt lat="46.72006" lon="5.57926">
        <ele>339.2</ele>
        <time>2022-03-09T13:53:51Z</time>
      </trkpt>
      <trkpt lat="46.72007" lon="5.57921">
        <ele>339.2</ele>
        <time>2022-03-09T13:53:52Z</time>
      </trkpt>
      <trkpt lat="46.72008" lon="5.57917">
        <ele>339.4</ele>
        <time>2022-03-09T13:53:53Z</time>
      </trkpt>
      <trkpt lat="46.72009" lon="5.57912">
        <ele>339.4</ele>
        <time>2022-03-09T13:53:54Z</time>
      </trkpt>
      <trkpt lat="46.72011" lon="5.57907">
        <ele>339.4</ele>
        <time>2022-03-09T13:53:55Z</time>
      </trkpt>
      <trkpt lat="46.72013" lon="5.57902">
        <ele>339.6</ele>
        <time>2022-03-09T13:53:56Z</time>
      </trkpt>
      <trkpt lat="46.72015" lon="5.57898">
        <ele>339.6</ele>
        <time>2022-03-09T13:53:57Z</time>
      </trkpt>
      <trkpt lat="46.72018" lon="5.57894">
        <ele>339.6</ele>
        <time>2022-03-09T13:53:58Z</time>
      </trkpt>
      <trkpt lat="46.72021" lon="5.5789">
        <ele>339.6</ele>
        <time>2022-03-09T13:53:59Z</time>
      </trkpt>
      <trkpt lat="46.72025" lon="5.57886">
        <ele>339.6</ele>
        <time>2022-03-09T13:54:00Z</time>
      </trkpt>
      <trkpt lat="46.72028" lon="5.57883">
        <ele>339.6</ele>
        <time>2022-03-09T13:54:01Z</time>
      </trkpt>
      <trkpt lat="46.72032" lon="5.57879">
        <ele>339.6</ele>
        <time>2022-03-09T13:54:02Z</time>
      </trkpt>
      <trkpt lat="46.72036" lon="5.57876">
        <ele>339.8</ele>
        <time>2022-03-09T13:54:03Z</time>
      </trkpt>
      <trkpt lat="46.72041" lon="5.57873">
        <ele>339.8</ele>
        <time>2022-03-09T13:54:04Z</time>
      </trkpt>
      <trkpt lat="46.72045" lon="5.5787">
        <ele>339.8</ele>
        <time>2022-03-09T13:54:05Z</time>
      </trkpt>
      <trkpt lat="46.72049" lon="5.57867">
        <ele>339.8</ele>
        <time>2022-03-09T13:54:06Z</time>
      </trkpt>
      <trkpt lat="46.72053" lon="5.57863">
        <ele>339.8</ele>
        <time>2022-03-09T13:54:07Z</time>
      </trkpt>
      <trkpt lat="46.72058" lon="5.5786">
        <ele>340.2</ele>
        <time>2022-03-09T13:54:08Z</time>
      </trkpt>
      <trkpt lat="46.72062" lon="5.57858">
        <ele>340.2</ele>
        <time>2022-03-09T13:54:09Z</time>
      </trkpt>
      <trkpt lat="46.72066" lon="5.57855">
        <ele>340.4</ele>
        <time>2022-03-09T13:54:10Z</time>
      </trkpt>
      <trkpt lat="46.7207" lon="5.57854">
        <ele>340.4</ele>
        <time>2022-03-09T13:54:11Z</time>
      </trkpt>
      <trkpt lat="46.72074" lon="5.57854">
        <ele>340.8</ele>
        <time>2022-03-09T13:54:12Z</time>
      </trkpt>
      <trkpt lat="46.72078" lon="5.57853">
        <ele>340.8</ele>
        <time>2022-03-09T13:54:13Z</time>
      </trkpt>
      <trkpt lat="46.72082" lon="5.57854">
        <ele>341.2</ele>
        <time>2022-03-09T13:54:14Z</time>
      </trkpt>
      <trkpt lat="46.72085" lon="5.57854">
        <ele>341.4</ele>
        <time>2022-03-09T13:54:15Z</time>
      </trkpt>
      <trkpt lat="46.72089" lon="5.57854">
        <ele>341.6</ele>
        <time>2022-03-09T13:54:16Z</time>
      </trkpt>
      <trkpt lat="46.72092" lon="5.57854">
        <ele>341.6</ele>
        <time>2022-03-09T13:54:17Z</time>
      </trkpt>
      <trkpt lat="46.72096" lon="5.57853">
        <ele>342</ele>
        <time>2022-03-09T13:54:18Z</time>
      </trkpt>
      <trkpt lat="46.721" lon="5.57853">
        <ele>342</ele>
        <time>2022-03-09T13:54:19Z</time>
      </trkpt>
      <trkpt lat="46.72104" lon="5.57854">
        <ele>342.2</ele>
        <time>2022-03-09T13:54:20Z</time>
      </trkpt>
      <trkpt lat="46.72108" lon="5.57854">
        <ele>342.2</ele>
        <time>2022-03-09T13:54:21Z</time>
      </trkpt>
      <trkpt lat="46.72112" lon="5.57854">
        <ele>342.6</ele>
        <time>2022-03-09T13:54:22Z</time>
      </trkpt>
      <trkpt lat="46.72116" lon="5.57854">
        <ele>342.6</ele>
        <time>2022-03-09T13:54:23Z</time>
      </trkpt>
      <trkpt lat="46.7212" lon="5.57854">
        <ele>342.8</ele>
        <time>2022-03-09T13:54:24Z</time>
      </trkpt>
      <trkpt lat="46.72124" lon="5.57853">
        <ele>342.8</ele>
        <time>2022-03-09T13:54:25Z</time>
      </trkpt>
      <trkpt lat="46.72128" lon="5.57852">
        <ele>343.2</ele>
        <time>2022-03-09T13:54:26Z</time>
      </trkpt>
      <trkpt lat="46.72131" lon="5.57851">
        <ele>343.2</ele>
        <time>2022-03-09T13:54:27Z</time>
      </trkpt>
      <trkpt lat="46.72135" lon="5.57849">
        <ele>343.6</ele>
        <time>2022-03-09T13:54:28Z</time>
      </trkpt>
      <trkpt lat="46.72139" lon="5.57848">
        <ele>343.6</ele>
        <time>2022-03-09T13:54:29Z</time>
      </trkpt>
      <trkpt lat="46.72142" lon="5.57847">
        <ele>343.8</ele>
        <time>2022-03-09T13:54:30Z</time>
      </trkpt>
      <trkpt lat="46.72145" lon="5.57845">
        <ele>343.8</ele>
        <time>2022-03-09T13:54:31Z</time>
      </trkpt>
      <trkpt lat="46.72148" lon="5.57843">
        <ele>344.2</ele>
        <time>2022-03-09T13:54:32Z</time>
      </trkpt>
      <trkpt lat="46.72151" lon="5.57841">
        <ele>344.2</ele>
        <time>2022-03-09T13:54:33Z</time>
      </trkpt>
      <trkpt lat="46.72154" lon="5.57839">
        <ele>344.6</ele>
        <time>2022-03-09T13:54:34Z</time>
      </trkpt>
      <trkpt lat="46.72157" lon="5.57837">
        <ele>344.6</ele>
        <time>2022-03-09T13:54:35Z</time>
      </trkpt>
      <trkpt lat="46.7216" lon="5.57835">
        <ele>345.2</ele>
        <time>2022-03-09T13:54:36Z</time>
      </trkpt>
      <trkpt lat="46.72163" lon="5.57833">
        <ele>345.2</ele>
        <time>2022-03-09T13:54:37Z</time>
      </trkpt>
      <trkpt lat="46.72166" lon="5.57831">
        <ele>345.4</ele>
        <time>2022-03-09T13:54:38Z</time>
      </trkpt>
      <trkpt lat="46.72169" lon="5.57829">
        <ele>345.4</ele>
        <time>2022-03-09T13:54:39Z</time>
      </trkpt>
      <trkpt lat="46.72172" lon="5.57826">
        <ele>345.8</ele>
        <time>2022-03-09T13:54:40Z</time>
      </trkpt>
      <trkpt lat="46.72176" lon="5.57824">
        <ele>345.8</ele>
        <time>2022-03-09T13:54:41Z</time>
      </trkpt>
      <trkpt lat="46.72179" lon="5.57822">
        <ele>346</ele>
        <time>2022-03-09T13:54:42Z</time>
      </trkpt>
      <trkpt lat="46.72183" lon="5.57821">
        <ele>346</ele>
        <time>2022-03-09T13:54:43Z</time>
      </trkpt>
      <trkpt lat="46.72187" lon="5.5782">
        <ele>346.2</ele>
        <time>2022-03-09T13:54:44Z</time>
      </trkpt>
      <trkpt lat="46.72191" lon="5.5782">
        <ele>346.2</ele>
        <time>2022-03-09T13:54:45Z</time>
      </trkpt>
      <trkpt lat="46.72195" lon="5.57819">
        <ele>346.6</ele>
        <time>2022-03-09T13:54:46Z</time>
      </trkpt>
      <trkpt lat="46.72198" lon="5.57819">
        <ele>346.6</ele>
        <time>2022-03-09T13:54:47Z</time>
      </trkpt>
      <trkpt lat="46.72202" lon="5.57818">
        <ele>347</ele>
        <time>2022-03-09T13:54:48Z</time>
      </trkpt>
      <trkpt lat="46.72205" lon="5.57818">
        <ele>347.2</ele>
        <time>2022-03-09T13:54:49Z</time>
      </trkpt>
      <trkpt lat="46.72208" lon="5.57819">
        <ele>347.6</ele>
        <time>2022-03-09T13:54:50Z</time>
      </trkpt>
      <trkpt lat="46.72211" lon="5.57819">
        <ele>347.6</ele>
        <time>2022-03-09T13:54:51Z</time>
      </trkpt>
      <trkpt lat="46.72215" lon="5.57819">
        <ele>347.8</ele>
        <time>2022-03-09T13:54:52Z</time>
      </trkpt>
      <trkpt lat="46.72217" lon="5.57819">
        <ele>347.8</ele>
        <time>2022-03-09T13:54:53Z</time>
      </trkpt>
      <trkpt lat="46.7222" lon="5.57818">
        <ele>348.2</ele>
        <time>2022-03-09T13:54:54Z</time>
      </trkpt>
      <trkpt lat="46.72223" lon="5.57818">
        <ele>348.2</ele>
        <time>2022-03-09T13:54:55Z</time>
      </trkpt>
      <trkpt lat="46.72225" lon="5.57818">
        <ele>348.4</ele>
        <time>2022-03-09T13:54:56Z</time>
      </trkpt>
      <trkpt lat="46.72228" lon="5.57818">
        <ele>348.6</ele>
        <time>2022-03-09T13:54:57Z</time>
      </trkpt>
      <trkpt lat="46.72231" lon="5.57818">
        <ele>348.6</ele>
        <time>2022-03-09T13:54:58Z</time>
      </trkpt>
      <trkpt lat="46.72234" lon="5.57818">
        <ele>349</ele>
        <time>2022-03-09T13:54:59Z</time>
      </trkpt>
      <trkpt lat="46.72237" lon="5.57818">
        <ele>349</ele>
        <time>2022-03-09T13:55:00Z</time>
      </trkpt>
      <trkpt lat="46.72241" lon="5.57819">
        <ele>349.2</ele>
        <time>2022-03-09T13:55:01Z</time>
      </trkpt>
      <trkpt lat="46.72245" lon="5.57819">
        <ele>349.2</ele>
        <time>2022-03-09T13:55:02Z</time>
      </trkpt>
      <trkpt lat="46.72248" lon="5.5782">
        <ele>349.4</ele>
        <time>2022-03-09T13:55:03Z</time>
      </trkpt>
      <trkpt lat="46.72252" lon="5.5782">
        <ele>349.4</ele>
        <time>2022-03-09T13:55:04Z</time>
      </trkpt>
      <trkpt lat="46.72256" lon="5.57821">
        <ele>349.4</ele>
        <time>2022-03-09T13:55:05Z</time>
      </trkpt>
      <trkpt lat="46.7226" lon="5.57821">
        <ele>349.6</ele>
        <time>2022-03-09T13:55:06Z</time>
      </trkpt>
      <trkpt lat="46.72264" lon="5.57822">
        <ele>349.6</ele>
        <time>2022-03-09T13:55:07Z</time>
      </trkpt>
      <trkpt lat="46.72267" lon="5.57823">
        <ele>349.6</ele>
        <time>2022-03-09T13:55:08Z</time>
      </trkpt>
      <trkpt lat="46.72271" lon="5.57824">
        <ele>349.6</ele>
        <time>2022-03-09T13:55:09Z</time>
      </trkpt>
      <trkpt lat="46.72275" lon="5.57825">
        <ele>350</ele>
        <time>2022-03-09T13:55:10Z</time>
      </trkpt>
      <trkpt lat="46.72278" lon="5.57825">
        <ele>350</ele>
        <time>2022-03-09T13:55:11Z</time>
      </trkpt>
      <trkpt lat="46.72282" lon="5.57826">
        <ele>350</ele>
        <time>2022-03-09T13:55:12Z</time>
      </trkpt>
      <trkpt lat="46.72286" lon="5.57826">
        <ele>350</ele>
        <time>2022-03-09T13:55:13Z</time>
      </trkpt>
      <trkpt lat="46.7229" lon="5.57826">
        <ele>350.2</ele>
        <time>2022-03-09T13:55:14Z</time>
      </trkpt>
      <trkpt lat="46.72293" lon="5.57826">
        <ele>350.2</ele>
        <time>2022-03-09T13:55:15Z</time>
      </trkpt>
      <trkpt lat="46.72297" lon="5.57825">
        <ele>350.2</ele>
        <time>2022-03-09T13:55:16Z</time>
      </trkpt>
      <trkpt lat="46.72301" lon="5.57824">
        <ele>350.2</ele>
        <time>2022-03-09T13:55:17Z</time>
      </trkpt>
      <trkpt lat="46.72305" lon="5.57823">
        <ele>350.2</ele>
        <time>2022-03-09T13:55:18Z</time>
      </trkpt>
      <trkpt lat="46.72308" lon="5.57822">
        <ele>349.8</ele>
        <time>2022-03-09T13:55:19Z</time>
      </trkpt>
      <trkpt lat="46.72311" lon="5.5782">
        <ele>349.8</ele>
        <time>2022-03-09T13:55:20Z</time>
      </trkpt>
      <trkpt lat="46.72313" lon="5.57815">
        <ele>349.4</ele>
        <time>2022-03-09T13:55:21Z</time>
      </trkpt>
      <trkpt lat="46.72314" lon="5.5781">
        <ele>349.2</ele>
        <time>2022-03-09T13:55:22Z</time>
      </trkpt>
      <trkpt lat="46.72315" lon="5.57803">
        <ele>349</ele>
        <time>2022-03-09T13:55:23Z</time>
      </trkpt>
      <trkpt lat="46.72317" lon="5.57796">
        <ele>348.8</ele>
        <time>2022-03-09T13:55:24Z</time>
      </trkpt>
      <trkpt lat="46.72318" lon="5.57788">
        <ele>348.6</ele>
        <time>2022-03-09T13:55:25Z</time>
      </trkpt>
      <trkpt lat="46.72319" lon="5.5778">
        <ele>348.2</ele>
        <time>2022-03-09T13:55:26Z</time>
      </trkpt>
      <trkpt lat="46.7232" lon="5.57772">
        <ele>348</ele>
        <time>2022-03-09T13:55:27Z</time>
      </trkpt>
      <trkpt lat="46.72319" lon="5.57763">
        <ele>347.8</ele>
        <time>2022-03-09T13:55:28Z</time>
      </trkpt>
      <trkpt lat="46.72319" lon="5.57754">
        <ele>347.4</ele>
        <time>2022-03-09T13:55:29Z</time>
      </trkpt>
      <trkpt lat="46.72319" lon="5.57745">
        <ele>347</ele>
        <time>2022-03-09T13:55:30Z</time>
      </trkpt>
      <trkpt lat="46.72319" lon="5.57735">
        <ele>346.4</ele>
        <time>2022-03-09T13:55:31Z</time>
      </trkpt>
      <trkpt lat="46.72319" lon="5.57725">
        <ele>345.8</ele>
        <time>2022-03-09T13:55:32Z</time>
      </trkpt>
      <trkpt lat="46.72319" lon="5.57714">
        <ele>345</ele>
        <time>2022-03-09T13:55:33Z</time>
      </trkpt>
      <trkpt lat="46.72318" lon="5.57703">
        <ele>344.4</ele>
        <time>2022-03-09T13:55:34Z</time>
      </trkpt>
      <trkpt lat="46.72319" lon="5.57679">
        <ele>343.6</ele>
        <time>2022-03-09T13:55:35Z</time>
      </trkpt>
      <trkpt lat="46.7232" lon="5.57666">
        <ele>342.6</ele>
        <time>2022-03-09T13:55:36Z</time>
      </trkpt>
      <trkpt lat="46.72322" lon="5.57654">
        <ele>341.4</ele>
        <time>2022-03-09T13:55:37Z</time>
      </trkpt>
      <trkpt lat="46.72324" lon="5.57638">
        <ele>340.2</ele>
        <time>2022-03-09T13:55:38Z</time>
      </trkpt>
      <trkpt lat="46.72326" lon="5.57624">
        <ele>338.8</ele>
        <time>2022-03-09T13:55:39Z</time>
      </trkpt>
      <trkpt lat="46.72326" lon="5.57608">
        <ele>337.6</ele>
        <time>2022-03-09T13:55:40Z</time>
      </trkpt>
      <trkpt lat="46.72325" lon="5.57591">
        <ele>336.2</ele>
        <time>2022-03-09T13:55:41Z</time>
      </trkpt>
      <trkpt lat="46.72323" lon="5.57574">
        <ele>334.8</ele>
        <time>2022-03-09T13:55:42Z</time>
      </trkpt>
      <trkpt lat="46.7232" lon="5.57555">
        <ele>333.4</ele>
        <time>2022-03-09T13:55:43Z</time>
      </trkpt>
      <trkpt lat="46.72318" lon="5.57537">
        <ele>331.8</ele>
        <time>2022-03-09T13:55:44Z</time>
      </trkpt>
      <trkpt lat="46.72316" lon="5.5752">
        <ele>330.4</ele>
        <time>2022-03-09T13:55:45Z</time>
      </trkpt>
      <trkpt lat="46.72314" lon="5.57504">
        <ele>329</ele>
        <time>2022-03-09T13:55:46Z</time>
      </trkpt>
      <trkpt lat="46.72314" lon="5.57488">
        <ele>327.6</ele>
        <time>2022-03-09T13:55:47Z</time>
      </trkpt>
      <trkpt lat="46.72314" lon="5.5747">
        <ele>326.4</ele>
        <time>2022-03-09T13:55:48Z</time>
      </trkpt>
      <trkpt lat="46.72316" lon="5.57454">
        <ele>325.2</ele>
        <time>2022-03-09T13:55:49Z</time>
      </trkpt>
      <trkpt lat="46.72317" lon="5.57439">
        <ele>324</ele>
        <time>2022-03-09T13:55:50Z</time>
      </trkpt>
      <trkpt lat="46.72319" lon="5.57426">
        <ele>323</ele>
        <time>2022-03-09T13:55:51Z</time>
      </trkpt>
      <trkpt lat="46.72322" lon="5.57414">
        <ele>322</ele>
        <time>2022-03-09T13:55:52Z</time>
      </trkpt>
      <trkpt lat="46.72325" lon="5.57404">
        <ele>321.4</ele>
        <time>2022-03-09T13:55:53Z</time>
      </trkpt>
      <trkpt lat="46.7233" lon="5.57393">
        <ele>320.6</ele>
        <time>2022-03-09T13:55:54Z</time>
      </trkpt>
      <trkpt lat="46.72335" lon="5.57384">
        <ele>319.8</ele>
        <time>2022-03-09T13:55:55Z</time>
      </trkpt>
      <trkpt lat="46.72341" lon="5.57374">
        <ele>319</ele>
        <time>2022-03-09T13:55:56Z</time>
      </trkpt>
      <trkpt lat="46.72347" lon="5.57365">
        <ele>318.2</ele>
        <time>2022-03-09T13:55:57Z</time>
      </trkpt>
      <trkpt lat="46.72354" lon="5.57356">
        <ele>317.6</ele>
        <time>2022-03-09T13:55:58Z</time>
      </trkpt>
      <trkpt lat="46.7236" lon="5.57346">
        <ele>317</ele>
        <time>2022-03-09T13:55:59Z</time>
      </trkpt>
      <trkpt lat="46.72368" lon="5.57337">
        <ele>316.6</ele>
        <time>2022-03-09T13:56:00Z</time>
      </trkpt>
      <trkpt lat="46.72376" lon="5.5733">
        <ele>316</ele>
        <time>2022-03-09T13:56:01Z</time>
      </trkpt>
      <trkpt lat="46.72385" lon="5.57325">
        <ele>315.4</ele>
        <time>2022-03-09T13:56:02Z</time>
      </trkpt>
      <trkpt lat="46.72394" lon="5.57319">
        <ele>315</ele>
        <time>2022-03-09T13:56:03Z</time>
      </trkpt>
      <trkpt lat="46.72402" lon="5.57314">
        <ele>314.6</ele>
        <time>2022-03-09T13:56:04Z</time>
      </trkpt>
      <trkpt lat="46.7241" lon="5.57307">
        <ele>314</ele>
        <time>2022-03-09T13:56:05Z</time>
      </trkpt>
      <trkpt lat="46.72417" lon="5.57299">
        <ele>314</ele>
        <time>2022-03-09T13:56:06Z</time>
      </trkpt>
      <trkpt lat="46.72424" lon="5.57288">
        <ele>313.6</ele>
        <time>2022-03-09T13:56:07Z</time>
      </trkpt>
      <trkpt lat="46.72429" lon="5.57275">
        <ele>313.2</ele>
        <time>2022-03-09T13:56:08Z</time>
      </trkpt>
      <trkpt lat="46.72433" lon="5.57261">
        <ele>312.6</ele>
        <time>2022-03-09T13:56:09Z</time>
      </trkpt>
      <trkpt lat="46.72437" lon="5.57248">
        <ele>312.2</ele>
        <time>2022-03-09T13:56:10Z</time>
      </trkpt>
      <trkpt lat="46.7244" lon="5.57234">
        <ele>311.8</ele>
        <time>2022-03-09T13:56:11Z</time>
      </trkpt>
      <trkpt lat="46.72444" lon="5.57221">
        <ele>311.4</ele>
        <time>2022-03-09T13:56:12Z</time>
      </trkpt>
      <trkpt lat="46.72447" lon="5.57208">
        <ele>311.2</ele>
        <time>2022-03-09T13:56:13Z</time>
      </trkpt>
      <trkpt lat="46.72451" lon="5.57195">
        <ele>311</ele>
        <time>2022-03-09T13:56:14Z</time>
      </trkpt>
      <trkpt lat="46.72454" lon="5.57182">
        <ele>310.6</ele>
        <time>2022-03-09T13:56:15Z</time>
      </trkpt>
      <trkpt lat="46.72457" lon="5.5717">
        <ele>310.4</ele>
        <time>2022-03-09T13:56:16Z</time>
      </trkpt>
      <trkpt lat="46.72461" lon="5.57159">
        <ele>310.2</ele>
        <time>2022-03-09T13:56:17Z</time>
      </trkpt>
      <trkpt lat="46.72465" lon="5.57149">
        <ele>310</ele>
        <time>2022-03-09T13:56:18Z</time>
      </trkpt>
      <trkpt lat="46.72469" lon="5.57138">
        <ele>310</ele>
        <time>2022-03-09T13:56:19Z</time>
      </trkpt>
      <trkpt lat="46.72474" lon="5.57128">
        <ele>309.6</ele>
        <time>2022-03-09T13:56:20Z</time>
      </trkpt>
      <trkpt lat="46.72478" lon="5.57119">
        <ele>309.4</ele>
        <time>2022-03-09T13:56:21Z</time>
      </trkpt>
      <trkpt lat="46.72482" lon="5.57109">
        <ele>309</ele>
        <time>2022-03-09T13:56:22Z</time>
      </trkpt>
      <trkpt lat="46.72487" lon="5.57099">
        <ele>308.8</ele>
        <time>2022-03-09T13:56:23Z</time>
      </trkpt>
      <trkpt lat="46.72491" lon="5.5709">
        <ele>308.6</ele>
        <time>2022-03-09T13:56:24Z</time>
      </trkpt>
      <trkpt lat="46.72495" lon="5.5708">
        <ele>308.6</ele>
        <time>2022-03-09T13:56:25Z</time>
      </trkpt>
      <trkpt lat="46.725" lon="5.57071">
        <ele>308.2</ele>
        <time>2022-03-09T13:56:26Z</time>
      </trkpt>
      <trkpt lat="46.72504" lon="5.57061">
        <ele>308</ele>
        <time>2022-03-09T13:56:27Z</time>
      </trkpt>
      <trkpt lat="46.72509" lon="5.57051">
        <ele>308</ele>
        <time>2022-03-09T13:56:28Z</time>
      </trkpt>
      <trkpt lat="46.72514" lon="5.57042">
        <ele>307.8</ele>
        <time>2022-03-09T13:56:29Z</time>
      </trkpt>
      <trkpt lat="46.72519" lon="5.57033">
        <ele>307.8</ele>
        <time>2022-03-09T13:56:30Z</time>
      </trkpt>
      <trkpt lat="46.72525" lon="5.57024">
        <ele>307.4</ele>
        <time>2022-03-09T13:56:31Z</time>
      </trkpt>
      <trkpt lat="46.72532" lon="5.57015">
        <ele>307</ele>
        <time>2022-03-09T13:56:32Z</time>
      </trkpt>
      <trkpt lat="46.72538" lon="5.57006">
        <ele>306.8</ele>
        <time>2022-03-09T13:56:33Z</time>
      </trkpt>
      <trkpt lat="46.72545" lon="5.56996">
        <ele>306.4</ele>
        <time>2022-03-09T13:56:34Z</time>
      </trkpt>
      <trkpt lat="46.72552" lon="5.56987">
        <ele>306</ele>
        <time>2022-03-09T13:56:35Z</time>
      </trkpt>
      <trkpt lat="46.72559" lon="5.56978">
        <ele>305.6</ele>
        <time>2022-03-09T13:56:36Z</time>
      </trkpt>
      <trkpt lat="46.72566" lon="5.56969">
        <ele>305</ele>
        <time>2022-03-09T13:56:37Z</time>
      </trkpt>
      <trkpt lat="46.72573" lon="5.56959">
        <ele>304.6</ele>
        <time>2022-03-09T13:56:38Z</time>
      </trkpt>
      <trkpt lat="46.72579" lon="5.56949">
        <ele>304.4</ele>
        <time>2022-03-09T13:56:39Z</time>
      </trkpt>
      <trkpt lat="46.72585" lon="5.56939">
        <ele>304</ele>
        <time>2022-03-09T13:56:40Z</time>
      </trkpt>
      <trkpt lat="46.72592" lon="5.56929">
        <ele>303.6</ele>
        <time>2022-03-09T13:56:41Z</time>
      </trkpt>
      <trkpt lat="46.72598" lon="5.56919">
        <ele>303.2</ele>
        <time>2022-03-09T13:56:42Z</time>
      </trkpt>
      <trkpt lat="46.72603" lon="5.56908">
        <ele>302.6</ele>
        <time>2022-03-09T13:56:43Z</time>
      </trkpt>
      <trkpt lat="46.72608" lon="5.56897">
        <ele>301.6</ele>
        <time>2022-03-09T13:56:44Z</time>
      </trkpt>
      <trkpt lat="46.72613" lon="5.56886">
        <ele>301.2</ele>
        <time>2022-03-09T13:56:45Z</time>
      </trkpt>
      <trkpt lat="46.72619" lon="5.56875">
        <ele>300.6</ele>
        <time>2022-03-09T13:56:46Z</time>
      </trkpt>
      <trkpt lat="46.72625" lon="5.56863">
        <ele>299.8</ele>
        <time>2022-03-09T13:56:47Z</time>
      </trkpt>
      <trkpt lat="46.72632" lon="5.56852">
        <ele>299.2</ele>
        <time>2022-03-09T13:56:48Z</time>
      </trkpt>
      <trkpt lat="46.72639" lon="5.56843">
        <ele>298.6</ele>
        <time>2022-03-09T13:56:49Z</time>
      </trkpt>
      <trkpt lat="46.72647" lon="5.56834">
        <ele>298.2</ele>
        <time>2022-03-09T13:56:50Z</time>
      </trkpt>
      <trkpt lat="46.72655" lon="5.56826">
        <ele>298</ele>
        <time>2022-03-09T13:56:51Z</time>
      </trkpt>
      <trkpt lat="46.72662" lon="5.56817">
        <ele>298</ele>
        <time>2022-03-09T13:56:52Z</time>
      </trkpt>
      <trkpt lat="46.72669" lon="5.56808">
        <ele>298</ele>
        <time>2022-03-09T13:56:53Z</time>
      </trkpt>
      <trkpt lat="46.72674" lon="5.56798">
        <ele>298</ele>
        <time>2022-03-09T13:56:54Z</time>
      </trkpt>
      <trkpt lat="46.72679" lon="5.56789">
        <ele>298.4</ele>
        <time>2022-03-09T13:56:55Z</time>
      </trkpt>
      <trkpt lat="46.72682" lon="5.5678">
        <ele>298.8</ele>
        <time>2022-03-09T13:56:56Z</time>
      </trkpt>
      <trkpt lat="46.72685" lon="5.56771">
        <ele>299.2</ele>
        <time>2022-03-09T13:56:57Z</time>
      </trkpt>
      <trkpt lat="46.72688" lon="5.56762">
        <ele>299.6</ele>
        <time>2022-03-09T13:56:58Z</time>
      </trkpt>
      <trkpt lat="46.72691" lon="5.56754">
        <ele>299.8</ele>
        <time>2022-03-09T13:56:59Z</time>
      </trkpt>
      <trkpt lat="46.72693" lon="5.56746">
        <ele>300.2</ele>
        <time>2022-03-09T13:57:00Z</time>
      </trkpt>
      <trkpt lat="46.72695" lon="5.56738">
        <ele>300.4</ele>
        <time>2022-03-09T13:57:01Z</time>
      </trkpt>
      <trkpt lat="46.72698" lon="5.56729">
        <ele>300.4</ele>
        <time>2022-03-09T13:57:02Z</time>
      </trkpt>
      <trkpt lat="46.727" lon="5.56721">
        <ele>301</ele>
        <time>2022-03-09T13:57:03Z</time>
      </trkpt>
      <trkpt lat="46.72703" lon="5.56713">
        <ele>301.2</ele>
        <time>2022-03-09T13:57:04Z</time>
      </trkpt>
      <trkpt lat="46.72705" lon="5.56705">
        <ele>301.2</ele>
        <time>2022-03-09T13:57:05Z</time>
      </trkpt>
      <trkpt lat="46.72707" lon="5.56696">
        <ele>301.6</ele>
        <time>2022-03-09T13:57:06Z</time>
      </trkpt>
      <trkpt lat="46.72709" lon="5.56687">
        <ele>301.6</ele>
        <time>2022-03-09T13:57:07Z</time>
      </trkpt>
      <trkpt lat="46.72711" lon="5.56677">
        <ele>301.6</ele>
        <time>2022-03-09T13:57:08Z</time>
      </trkpt>
      <trkpt lat="46.72712" lon="5.56667">
        <ele>301.6</ele>
        <time>2022-03-09T13:57:09Z</time>
      </trkpt>
      <trkpt lat="46.72713" lon="5.56657">
        <ele>301.6</ele>
        <time>2022-03-09T13:57:10Z</time>
      </trkpt>
      <trkpt lat="46.72714" lon="5.56647">
        <ele>301.6</ele>
        <time>2022-03-09T13:57:11Z</time>
      </trkpt>
      <trkpt lat="46.72715" lon="5.56637">
        <ele>301.4</ele>
        <time>2022-03-09T13:57:12Z</time>
      </trkpt>
      <trkpt lat="46.72716" lon="5.56626">
        <ele>301.4</ele>
        <time>2022-03-09T13:57:13Z</time>
      </trkpt>
      <trkpt lat="46.72716" lon="5.56616">
        <ele>301.4</ele>
        <time>2022-03-09T13:57:14Z</time>
      </trkpt>
      <trkpt lat="46.72717" lon="5.56606">
        <ele>301.4</ele>
        <time>2022-03-09T13:57:15Z</time>
      </trkpt>
      <trkpt lat="46.72717" lon="5.56596">
        <ele>301.4</ele>
        <time>2022-03-09T13:57:16Z</time>
      </trkpt>
      <trkpt lat="46.72717" lon="5.56586">
        <ele>301.4</ele>
        <time>2022-03-09T13:57:17Z</time>
      </trkpt>
      <trkpt lat="46.72717" lon="5.56576">
        <ele>301.4</ele>
        <time>2022-03-09T13:57:18Z</time>
      </trkpt>
      <trkpt lat="46.72717" lon="5.56567">
        <ele>301.4</ele>
        <time>2022-03-09T13:57:19Z</time>
      </trkpt>
      <trkpt lat="46.72717" lon="5.56557">
        <ele>301.6</ele>
        <time>2022-03-09T13:57:20Z</time>
      </trkpt>
      <trkpt lat="46.72717" lon="5.56548">
        <ele>301.6</ele>
        <time>2022-03-09T13:57:21Z</time>
      </trkpt>
      <trkpt lat="46.72716" lon="5.56539">
        <ele>301.8</ele>
        <time>2022-03-09T13:57:22Z</time>
      </trkpt>
      <trkpt lat="46.72716" lon="5.5653">
        <ele>302</ele>
        <time>2022-03-09T13:57:23Z</time>
      </trkpt>
      <trkpt lat="46.72715" lon="5.56521">
        <ele>302.2</ele>
        <time>2022-03-09T13:57:24Z</time>
      </trkpt>
      <trkpt lat="46.72715" lon="5.56512">
        <ele>302.2</ele>
        <time>2022-03-09T13:57:25Z</time>
      </trkpt>
      <trkpt lat="46.72714" lon="5.56503">
        <ele>302.2</ele>
        <time>2022-03-09T13:57:26Z</time>
      </trkpt>
      <trkpt lat="46.72714" lon="5.56494">
        <ele>302.6</ele>
        <time>2022-03-09T13:57:27Z</time>
      </trkpt>
      <trkpt lat="46.72713" lon="5.56486">
        <ele>302.8</ele>
        <time>2022-03-09T13:57:28Z</time>
      </trkpt>
      <trkpt lat="46.72712" lon="5.56477">
        <ele>303.2</ele>
        <time>2022-03-09T13:57:29Z</time>
      </trkpt>
      <trkpt lat="46.72712" lon="5.56469">
        <ele>303.4</ele>
        <time>2022-03-09T13:57:30Z</time>
      </trkpt>
      <trkpt lat="46.72711" lon="5.56461">
        <ele>303.8</ele>
        <time>2022-03-09T13:57:31Z</time>
      </trkpt>
      <trkpt lat="46.7271" lon="5.56452">
        <ele>304</ele>
        <time>2022-03-09T13:57:32Z</time>
      </trkpt>
      <trkpt lat="46.7271" lon="5.56444">
        <ele>304</ele>
        <time>2022-03-09T13:57:33Z</time>
      </trkpt>
      <trkpt lat="46.72709" lon="5.56436">
        <ele>304.2</ele>
        <time>2022-03-09T13:57:34Z</time>
      </trkpt>
      <trkpt lat="46.72709" lon="5.56427">
        <ele>304.2</ele>
        <time>2022-03-09T13:57:35Z</time>
      </trkpt>
      <trkpt lat="46.72708" lon="5.56418">
        <ele>304.2</ele>
        <time>2022-03-09T13:57:36Z</time>
      </trkpt>
      <trkpt lat="46.72708" lon="5.56409">
        <ele>304.2</ele>
        <time>2022-03-09T13:57:37Z</time>
      </trkpt>
      <trkpt lat="46.72708" lon="5.564">
        <ele>304.2</ele>
        <time>2022-03-09T13:57:38Z</time>
      </trkpt>
      <trkpt lat="46.72708" lon="5.5639">
        <ele>304.2</ele>
        <time>2022-03-09T13:57:39Z</time>
      </trkpt>
      <trkpt lat="46.72708" lon="5.5638">
        <ele>304</ele>
        <time>2022-03-09T13:57:40Z</time>
      </trkpt>
      <trkpt lat="46.72708" lon="5.56369">
        <ele>303.8</ele>
        <time>2022-03-09T13:57:41Z</time>
      </trkpt>
      <trkpt lat="46.72708" lon="5.56358">
        <ele>303.4</ele>
        <time>2022-03-09T13:57:42Z</time>
      </trkpt>
      <trkpt lat="46.72709" lon="5.56346">
        <ele>303</ele>
        <time>2022-03-09T13:57:43Z</time>
      </trkpt>
      <trkpt lat="46.72711" lon="5.56334">
        <ele>302.6</ele>
        <time>2022-03-09T13:57:44Z</time>
      </trkpt>
      <trkpt lat="46.72713" lon="5.56321">
        <ele>302</ele>
        <time>2022-03-09T13:57:45Z</time>
      </trkpt>
      <trkpt lat="46.72715" lon="5.56308">
        <ele>301.2</ele>
        <time>2022-03-09T13:57:46Z</time>
      </trkpt>
      <trkpt lat="46.72717" lon="5.56294">
        <ele>300.4</ele>
        <time>2022-03-09T13:57:47Z</time>
      </trkpt>
      <trkpt lat="46.72719" lon="5.5628">
        <ele>299.6</ele>
        <time>2022-03-09T13:57:48Z</time>
      </trkpt>
      <trkpt lat="46.72721" lon="5.56266">
        <ele>299</ele>
        <time>2022-03-09T13:57:49Z</time>
      </trkpt>
      <trkpt lat="46.72723" lon="5.56252">
        <ele>298.2</ele>
        <time>2022-03-09T13:57:50Z</time>
      </trkpt>
      <trkpt lat="46.72725" lon="5.56237">
        <ele>297.6</ele>
        <time>2022-03-09T13:57:51Z</time>
      </trkpt>
      <trkpt lat="46.72727" lon="5.56223">
        <ele>296.8</ele>
        <time>2022-03-09T13:57:52Z</time>
      </trkpt>
      <trkpt lat="46.72729" lon="5.56209">
        <ele>296</ele>
        <time>2022-03-09T13:57:53Z</time>
      </trkpt>
      <trkpt lat="46.72729" lon="5.56209">
        <ele>295.2</ele>
        <time>2022-03-09T13:57:54Z</time>
      </trkpt>
      <trkpt lat="46.7273" lon="5.56196">
        <ele>294.4</ele>
        <time>2022-03-09T13:57:55Z</time>
      </trkpt>
      <trkpt lat="46.72732" lon="5.56182">
        <ele>293.6</ele>
        <time>2022-03-09T13:57:56Z</time>
      </trkpt>
      <trkpt lat="46.72734" lon="5.56168">
        <ele>292.8</ele>
        <time>2022-03-09T13:57:57Z</time>
      </trkpt>
      <trkpt lat="46.72736" lon="5.56153">
        <ele>292</ele>
        <time>2022-03-09T13:57:58Z</time>
      </trkpt>
      <trkpt lat="46.7274" lon="5.56138">
        <ele>291</ele>
        <time>2022-03-09T13:57:59Z</time>
      </trkpt>
      <trkpt lat="46.72744" lon="5.56122">
        <ele>290.2</ele>
        <time>2022-03-09T13:58:00Z</time>
      </trkpt>
      <trkpt lat="46.72747" lon="5.56108">
        <ele>289.2</ele>
        <time>2022-03-09T13:58:01Z</time>
      </trkpt>
      <trkpt lat="46.7275" lon="5.56094">
        <ele>288.4</ele>
        <time>2022-03-09T13:58:02Z</time>
      </trkpt>
      <trkpt lat="46.72754" lon="5.56079">
        <ele>287.4</ele>
        <time>2022-03-09T13:58:03Z</time>
      </trkpt>
      <trkpt lat="46.72757" lon="5.56061">
        <ele>286.4</ele>
        <time>2022-03-09T13:58:04Z</time>
      </trkpt>
      <trkpt lat="46.72761" lon="5.56045">
        <ele>285.4</ele>
        <time>2022-03-09T13:58:05Z</time>
      </trkpt>
      <trkpt lat="46.72764" lon="5.56028">
        <ele>284.4</ele>
        <time>2022-03-09T13:58:06Z</time>
      </trkpt>
      <trkpt lat="46.72767" lon="5.56012">
        <ele>283.6</ele>
        <time>2022-03-09T13:58:07Z</time>
      </trkpt>
      <trkpt lat="46.7277" lon="5.55997">
        <ele>282.6</ele>
        <time>2022-03-09T13:58:08Z</time>
      </trkpt>
      <trkpt lat="46.72773" lon="5.55982">
        <ele>281.8</ele>
        <time>2022-03-09T13:58:09Z</time>
      </trkpt>
      <trkpt lat="46.72777" lon="5.55969">
        <ele>281</ele>
        <time>2022-03-09T13:58:10Z</time>
      </trkpt>
      <trkpt lat="46.72783" lon="5.55957">
        <ele>280.2</ele>
        <time>2022-03-09T13:58:11Z</time>
      </trkpt>
      <trkpt lat="46.7279" lon="5.55944">
        <ele>279.6</ele>
        <time>2022-03-09T13:58:12Z</time>
      </trkpt>
      <trkpt lat="46.72798" lon="5.55936">
        <ele>279.2</ele>
        <time>2022-03-09T13:58:13Z</time>
      </trkpt>
      <trkpt lat="46.72806" lon="5.5593">
        <ele>278.8</ele>
        <time>2022-03-09T13:58:14Z</time>
      </trkpt>
      <trkpt lat="46.72814" lon="5.55924">
        <ele>278.6</ele>
        <time>2022-03-09T13:58:15Z</time>
      </trkpt>
      <trkpt lat="46.72823" lon="5.5592">
        <ele>278.6</ele>
        <time>2022-03-09T13:58:16Z</time>
      </trkpt>
      <trkpt lat="46.72831" lon="5.55916">
        <ele>278.2</ele>
        <time>2022-03-09T13:58:17Z</time>
      </trkpt>
      <trkpt lat="46.72838" lon="5.55912">
        <ele>278.2</ele>
        <time>2022-03-09T13:58:18Z</time>
      </trkpt>
      <trkpt lat="46.72845" lon="5.55908">
        <ele>278.6</ele>
        <time>2022-03-09T13:58:19Z</time>
      </trkpt>
      <trkpt lat="46.72852" lon="5.55903">
        <ele>278.6</ele>
        <time>2022-03-09T13:58:20Z</time>
      </trkpt>
      <trkpt lat="46.72858" lon="5.55898">
        <ele>279</ele>
        <time>2022-03-09T13:58:21Z</time>
      </trkpt>
      <trkpt lat="46.72864" lon="5.55893">
        <ele>279.2</ele>
        <time>2022-03-09T13:58:22Z</time>
      </trkpt>
      <trkpt lat="46.72869" lon="5.55888">
        <ele>279.4</ele>
        <time>2022-03-09T13:58:23Z</time>
      </trkpt>
      <trkpt lat="46.72875" lon="5.55884">
        <ele>279.6</ele>
        <time>2022-03-09T13:58:24Z</time>
      </trkpt>
      <trkpt lat="46.7288" lon="5.55879">
        <ele>280</ele>
        <time>2022-03-09T13:58:25Z</time>
      </trkpt>
      <trkpt lat="46.72884" lon="5.55874">
        <ele>280</ele>
        <time>2022-03-09T13:58:26Z</time>
      </trkpt>
      <trkpt lat="46.72888" lon="5.55867">
        <ele>280</ele>
        <time>2022-03-09T13:58:27Z</time>
      </trkpt>
      <trkpt lat="46.7289" lon="5.5586">
        <ele>280.2</ele>
        <time>2022-03-09T13:58:28Z</time>
      </trkpt>
      <trkpt lat="46.72892" lon="5.55853">
        <ele>280.2</ele>
        <time>2022-03-09T13:58:29Z</time>
      </trkpt>
      <trkpt lat="46.72894" lon="5.55845">
        <ele>280.4</ele>
        <time>2022-03-09T13:58:30Z</time>
      </trkpt>
      <trkpt lat="46.72895" lon="5.55838">
        <ele>280.4</ele>
        <time>2022-03-09T13:58:31Z</time>
      </trkpt>
      <trkpt lat="46.72896" lon="5.5583">
        <ele>280.6</ele>
        <time>2022-03-09T13:58:32Z</time>
      </trkpt>
      <trkpt lat="46.72898" lon="5.55823">
        <ele>280.6</ele>
        <time>2022-03-09T13:58:33Z</time>
      </trkpt>
      <trkpt lat="46.72899" lon="5.55815">
        <ele>281</ele>
        <time>2022-03-09T13:58:34Z</time>
      </trkpt>
      <trkpt lat="46.729" lon="5.55808">
        <ele>281</ele>
        <time>2022-03-09T13:58:35Z</time>
      </trkpt>
      <trkpt lat="46.729" lon="5.55802">
        <ele>281.4</ele>
        <time>2022-03-09T13:58:36Z</time>
      </trkpt>
      <trkpt lat="46.72902" lon="5.55795">
        <ele>281.4</ele>
        <time>2022-03-09T13:58:37Z</time>
      </trkpt>
      <trkpt lat="46.72903" lon="5.55789">
        <ele>281.6</ele>
        <time>2022-03-09T13:58:38Z</time>
      </trkpt>
      <trkpt lat="46.72904" lon="5.55782">
        <ele>282</ele>
        <time>2022-03-09T13:58:39Z</time>
      </trkpt>
      <trkpt lat="46.72905" lon="5.55776">
        <ele>282.2</ele>
        <time>2022-03-09T13:58:40Z</time>
      </trkpt>
      <trkpt lat="46.72906" lon="5.55769">
        <ele>282.4</ele>
        <time>2022-03-09T13:58:41Z</time>
      </trkpt>
      <trkpt lat="46.72906" lon="5.55763">
        <ele>282.8</ele>
        <time>2022-03-09T13:58:42Z</time>
      </trkpt>
      <trkpt lat="46.72906" lon="5.55756">
        <ele>283.2</ele>
        <time>2022-03-09T13:58:43Z</time>
      </trkpt>
      <trkpt lat="46.72906" lon="5.5575">
        <ele>283.4</ele>
        <time>2022-03-09T13:58:44Z</time>
      </trkpt>
      <trkpt lat="46.72906" lon="5.55743">
        <ele>283.8</ele>
        <time>2022-03-09T13:58:45Z</time>
      </trkpt>
      <trkpt lat="46.72906" lon="5.55737">
        <ele>284</ele>
        <time>2022-03-09T13:58:46Z</time>
      </trkpt>
      <trkpt lat="46.72907" lon="5.55731">
        <ele>284.4</ele>
        <time>2022-03-09T13:58:47Z</time>
      </trkpt>
      <trkpt lat="46.72907" lon="5.55725">
        <ele>284.6</ele>
        <time>2022-03-09T13:58:48Z</time>
      </trkpt>
      <trkpt lat="46.72907" lon="5.55719">
        <ele>285</ele>
        <time>2022-03-09T13:58:49Z</time>
      </trkpt>
      <trkpt lat="46.72908" lon="5.55712">
        <ele>285.2</ele>
        <time>2022-03-09T13:58:50Z</time>
      </trkpt>
      <trkpt lat="46.72908" lon="5.55706">
        <ele>285.6</ele>
        <time>2022-03-09T13:58:51Z</time>
      </trkpt>
      <trkpt lat="46.72909" lon="5.557">
        <ele>285.8</ele>
        <time>2022-03-09T13:58:52Z</time>
      </trkpt>
      <trkpt lat="46.72909" lon="5.55693">
        <ele>286.2</ele>
        <time>2022-03-09T13:58:53Z</time>
      </trkpt>
      <trkpt lat="46.72909" lon="5.55687">
        <ele>286.4</ele>
        <time>2022-03-09T13:58:54Z</time>
      </trkpt>
      <trkpt lat="46.7291" lon="5.55681">
        <ele>286.8</ele>
        <time>2022-03-09T13:58:55Z</time>
      </trkpt>
      <trkpt lat="46.7291" lon="5.55675">
        <ele>287</ele>
        <time>2022-03-09T13:58:56Z</time>
      </trkpt>
      <trkpt lat="46.72911" lon="5.55669">
        <ele>287</ele>
        <time>2022-03-09T13:58:57Z</time>
      </trkpt>
      <trkpt lat="46.72913" lon="5.55663">
        <ele>287.4</ele>
        <time>2022-03-09T13:58:58Z</time>
      </trkpt>
      <trkpt lat="46.72914" lon="5.55658">
        <ele>287.8</ele>
        <time>2022-03-09T13:58:59Z</time>
      </trkpt>
      <trkpt lat="46.72915" lon="5.55652">
        <ele>288</ele>
        <time>2022-03-09T13:59:00Z</time>
      </trkpt>
      <trkpt lat="46.72916" lon="5.55646">
        <ele>288.2</ele>
        <time>2022-03-09T13:59:01Z</time>
      </trkpt>
      <trkpt lat="46.72917" lon="5.5564">
        <ele>288.2</ele>
        <time>2022-03-09T13:59:02Z</time>
      </trkpt>
      <trkpt lat="46.72917" lon="5.55634">
        <ele>288.6</ele>
        <time>2022-03-09T13:59:03Z</time>
      </trkpt>
      <trkpt lat="46.72918" lon="5.55628">
        <ele>288.6</ele>
        <time>2022-03-09T13:59:04Z</time>
      </trkpt>
      <trkpt lat="46.7292" lon="5.55622">
        <ele>289</ele>
        <time>2022-03-09T13:59:05Z</time>
      </trkpt>
      <trkpt lat="46.7292" lon="5.55615">
        <ele>289</ele>
        <time>2022-03-09T13:59:06Z</time>
      </trkpt>
      <trkpt lat="46.72921" lon="5.55609">
        <ele>289.4</ele>
        <time>2022-03-09T13:59:07Z</time>
      </trkpt>
      <trkpt lat="46.72922" lon="5.55603">
        <ele>289.4</ele>
        <time>2022-03-09T13:59:08Z</time>
      </trkpt>
      <trkpt lat="46.72922" lon="5.55597">
        <ele>289.6</ele>
        <time>2022-03-09T13:59:09Z</time>
      </trkpt>
      <trkpt lat="46.72922" lon="5.55592">
        <ele>289.6</ele>
        <time>2022-03-09T13:59:10Z</time>
      </trkpt>
      <trkpt lat="46.72923" lon="5.55586">
        <ele>289.6</ele>
        <time>2022-03-09T13:59:11Z</time>
      </trkpt>
      <trkpt lat="46.72924" lon="5.5558">
        <ele>289.6</ele>
        <time>2022-03-09T13:59:12Z</time>
      </trkpt>
      <trkpt lat="46.72924" lon="5.55574">
        <ele>289.8</ele>
        <time>2022-03-09T13:59:13Z</time>
      </trkpt>
      <trkpt lat="46.72924" lon="5.55568">
        <ele>289.8</ele>
        <time>2022-03-09T13:59:14Z</time>
      </trkpt>
      <trkpt lat="46.72925" lon="5.55563">
        <ele>290</ele>
        <time>2022-03-09T13:59:15Z</time>
      </trkpt>
      <trkpt lat="46.72926" lon="5.55559">
        <ele>290</ele>
        <time>2022-03-09T13:59:16Z</time>
      </trkpt>
      <trkpt lat="46.72927" lon="5.55555">
        <ele>290</ele>
        <time>2022-03-09T13:59:17Z</time>
      </trkpt>
      <trkpt lat="46.72929" lon="5.55552">
        <ele>290.4</ele>
        <time>2022-03-09T13:59:18Z</time>
      </trkpt>
      <trkpt lat="46.72929" lon="5.55547">
        <ele>290.4</ele>
        <time>2022-03-09T13:59:19Z</time>
      </trkpt>
      <trkpt lat="46.7293" lon="5.55542">
        <ele>290.6</ele>
        <time>2022-03-09T13:59:20Z</time>
      </trkpt>
      <trkpt lat="46.7293" lon="5.55538">
        <ele>290.6</ele>
        <time>2022-03-09T13:59:21Z</time>
      </trkpt>
      <trkpt lat="46.7293" lon="5.55533">
        <ele>290.6</ele>
        <time>2022-03-09T13:59:22Z</time>
      </trkpt>
      <trkpt lat="46.7293" lon="5.55528">
        <ele>290.8</ele>
        <time>2022-03-09T13:59:23Z</time>
      </trkpt>
      <trkpt lat="46.7293" lon="5.55524">
        <ele>290.8</ele>
        <time>2022-03-09T13:59:24Z</time>
      </trkpt>
      <trkpt lat="46.7293" lon="5.55519">
        <ele>290.8</ele>
        <time>2022-03-09T13:59:25Z</time>
      </trkpt>
      <trkpt lat="46.72929" lon="5.55515">
        <ele>290.8</ele>
        <time>2022-03-09T13:59:26Z</time>
      </trkpt>
      <trkpt lat="46.7293" lon="5.55512">
        <ele>290.8</ele>
        <time>2022-03-09T13:59:27Z</time>
      </trkpt>
      <trkpt lat="46.72932" lon="5.55509">
        <ele>290.8</ele>
        <time>2022-03-09T13:59:28Z</time>
      </trkpt>
      <trkpt lat="46.72935" lon="5.55506">
        <ele>290.8</ele>
        <time>2022-03-09T13:59:29Z</time>
      </trkpt>
      <trkpt lat="46.72938" lon="5.55505">
        <ele>290.8</ele>
        <time>2022-03-09T13:59:30Z</time>
      </trkpt>
      <trkpt lat="46.72942" lon="5.55505">
        <ele>290.8</ele>
        <time>2022-03-09T13:59:31Z</time>
      </trkpt>
      <trkpt lat="46.72946" lon="5.55506">
        <ele>290.8</ele>
        <time>2022-03-09T13:59:32Z</time>
      </trkpt>
      <trkpt lat="46.7295" lon="5.55507">
        <ele>290.6</ele>
        <time>2022-03-09T13:59:33Z</time>
      </trkpt>
      <trkpt lat="46.72954" lon="5.55508">
        <ele>290.6</ele>
        <time>2022-03-09T13:59:34Z</time>
      </trkpt>
      <trkpt lat="46.72959" lon="5.55509">
        <ele>290.6</ele>
        <time>2022-03-09T13:59:35Z</time>
      </trkpt>
      <trkpt lat="46.72964" lon="5.55509">
        <ele>290.6</ele>
        <time>2022-03-09T13:59:36Z</time>
      </trkpt>
      <trkpt lat="46.72969" lon="5.5551">
        <ele>290.6</ele>
        <time>2022-03-09T13:59:37Z</time>
      </trkpt>
      <trkpt lat="46.72975" lon="5.5551">
        <ele>290.6</ele>
        <time>2022-03-09T13:59:38Z</time>
      </trkpt>
      <trkpt lat="46.72981" lon="5.5551">
        <ele>290.6</ele>
        <time>2022-03-09T13:59:39Z</time>
      </trkpt>
      <trkpt lat="46.72986" lon="5.55511">
        <ele>290.4</ele>
        <time>2022-03-09T13:59:40Z</time>
      </trkpt>
      <trkpt lat="46.72992" lon="5.55511">
        <ele>290.4</ele>
        <time>2022-03-09T13:59:41Z</time>
      </trkpt>
      <trkpt lat="46.72998" lon="5.55511">
        <ele>290</ele>
        <time>2022-03-09T13:59:42Z</time>
      </trkpt>
      <trkpt lat="46.73004" lon="5.55512">
        <ele>290</ele>
        <time>2022-03-09T13:59:43Z</time>
      </trkpt>
      <trkpt lat="46.7301" lon="5.55512">
        <ele>289.8</ele>
        <time>2022-03-09T13:59:44Z</time>
      </trkpt>
      <trkpt lat="46.73016" lon="5.55513">
        <ele>289.8</ele>
        <time>2022-03-09T13:59:45Z</time>
      </trkpt>
      <trkpt lat="46.73022" lon="5.55514">
        <ele>289.4</ele>
        <time>2022-03-09T13:59:46Z</time>
      </trkpt>
      <trkpt lat="46.73028" lon="5.55515">
        <ele>289.4</ele>
        <time>2022-03-09T13:59:47Z</time>
      </trkpt>
      <trkpt lat="46.73034" lon="5.55515">
        <ele>289.4</ele>
        <time>2022-03-09T13:59:48Z</time>
      </trkpt>
      <trkpt lat="46.7304" lon="5.55517">
        <ele>289.4</ele>
        <time>2022-03-09T13:59:49Z</time>
      </trkpt>
      <trkpt lat="46.73046" lon="5.55518">
        <ele>289.4</ele>
        <time>2022-03-09T13:59:50Z</time>
      </trkpt>
      <trkpt lat="46.73052" lon="5.55521">
        <ele>289.4</ele>
        <time>2022-03-09T13:59:51Z</time>
      </trkpt>
      <trkpt lat="46.73058" lon="5.55523">
        <ele>289.4</ele>
        <time>2022-03-09T13:59:52Z</time>
      </trkpt>
      <trkpt lat="46.73064" lon="5.55526">
        <ele>289.2</ele>
        <time>2022-03-09T13:59:53Z</time>
      </trkpt>
      <trkpt lat="46.7307" lon="5.55528">
        <ele>289.2</ele>
        <time>2022-03-09T13:59:54Z</time>
      </trkpt>
      <trkpt lat="46.73082" lon="5.55532">
        <ele>289.2</ele>
        <time>2022-03-09T13:59:55Z</time>
      </trkpt>
      <trkpt lat="46.73088" lon="5.55533">
        <ele>289.2</ele>
        <time>2022-03-09T13:59:56Z</time>
      </trkpt>
      <trkpt lat="46.73094" lon="5.55534">
        <ele>289.2</ele>
        <time>2022-03-09T13:59:57Z</time>
      </trkpt>
      <trkpt lat="46.731" lon="5.55534">
        <ele>289.2</ele>
        <time>2022-03-09T13:59:58Z</time>
      </trkpt>
      <trkpt lat="46.73106" lon="5.55534">
        <ele>289.2</ele>
        <time>2022-03-09T13:59:59Z</time>
      </trkpt>
      <trkpt lat="46.73111" lon="5.55534">
        <ele>289.2</ele>
        <time>2022-03-09T14:00:00Z</time>
      </trkpt>
      <trkpt lat="46.73117" lon="5.55535">
        <ele>289.2</ele>
        <time>2022-03-09T14:00:01Z</time>
      </trkpt>
      <trkpt lat="46.73122" lon="5.55536">
        <ele>289.2</ele>
        <time>2022-03-09T14:00:02Z</time>
      </trkpt>
      <trkpt lat="46.73128" lon="5.55538">
        <ele>289.4</ele>
        <time>2022-03-09T14:00:03Z</time>
      </trkpt>
      <trkpt lat="46.73133" lon="5.55539">
        <ele>289.4</ele>
        <time>2022-03-09T14:00:04Z</time>
      </trkpt>
      <trkpt lat="46.73138" lon="5.55541">
        <ele>289.8</ele>
        <time>2022-03-09T14:00:05Z</time>
      </trkpt>
      <trkpt lat="46.73143" lon="5.55543">
        <ele>289.8</ele>
        <time>2022-03-09T14:00:06Z</time>
      </trkpt>
      <trkpt lat="46.73148" lon="5.55545">
        <ele>290</ele>
        <time>2022-03-09T14:00:07Z</time>
      </trkpt>
      <trkpt lat="46.73154" lon="5.55547">
        <ele>290</ele>
        <time>2022-03-09T14:00:08Z</time>
      </trkpt>
      <trkpt lat="46.73159" lon="5.55548">
        <ele>290</ele>
        <time>2022-03-09T14:00:09Z</time>
      </trkpt>
      <trkpt lat="46.73164" lon="5.5555">
        <ele>290.4</ele>
        <time>2022-03-09T14:00:10Z</time>
      </trkpt>
      <trkpt lat="46.73169" lon="5.55552">
        <ele>290.4</ele>
        <time>2022-03-09T14:00:11Z</time>
      </trkpt>
      <trkpt lat="46.73174" lon="5.55553">
        <ele>290.6</ele>
        <time>2022-03-09T14:00:12Z</time>
      </trkpt>
      <trkpt lat="46.73179" lon="5.55555">
        <ele>290.6</ele>
        <time>2022-03-09T14:00:13Z</time>
      </trkpt>
      <trkpt lat="46.73184" lon="5.55557">
        <ele>291</ele>
        <time>2022-03-09T14:00:14Z</time>
      </trkpt>
      <trkpt lat="46.73188" lon="5.55559">
        <ele>291</ele>
        <time>2022-03-09T14:00:15Z</time>
      </trkpt>
      <trkpt lat="46.73193" lon="5.55561">
        <ele>291.2</ele>
        <time>2022-03-09T14:00:16Z</time>
      </trkpt>
      <trkpt lat="46.73198" lon="5.55562">
        <ele>291.2</ele>
        <time>2022-03-09T14:00:17Z</time>
      </trkpt>
      <trkpt lat="46.73203" lon="5.55564">
        <ele>291.4</ele>
        <time>2022-03-09T14:00:18Z</time>
      </trkpt>
      <trkpt lat="46.73208" lon="5.55565">
        <ele>291.4</ele>
        <time>2022-03-09T14:00:19Z</time>
      </trkpt>
      <trkpt lat="46.73212" lon="5.55567">
        <ele>291.6</ele>
        <time>2022-03-09T14:00:20Z</time>
      </trkpt>
      <trkpt lat="46.73217" lon="5.55568">
        <ele>291.6</ele>
        <time>2022-03-09T14:00:21Z</time>
      </trkpt>
      <trkpt lat="46.73222" lon="5.5557">
        <ele>291.6</ele>
        <time>2022-03-09T14:00:22Z</time>
      </trkpt>
      <trkpt lat="46.73227" lon="5.55572">
        <ele>292</ele>
        <time>2022-03-09T14:00:23Z</time>
      </trkpt>
      <trkpt lat="46.73232" lon="5.55573">
        <ele>292</ele>
        <time>2022-03-09T14:00:24Z</time>
      </trkpt>
      <trkpt lat="46.73237" lon="5.55576">
        <ele>292</ele>
        <time>2022-03-09T14:00:25Z</time>
      </trkpt>
      <trkpt lat="46.73242" lon="5.55577">
        <ele>292</ele>
        <time>2022-03-09T14:00:26Z</time>
      </trkpt>
      <trkpt lat="46.73247" lon="5.5558">
        <ele>292</ele>
        <time>2022-03-09T14:00:27Z</time>
      </trkpt>
      <trkpt lat="46.73252" lon="5.55582">
        <ele>292</ele>
        <time>2022-03-09T14:00:28Z</time>
      </trkpt>
      <trkpt lat="46.73257" lon="5.55584">
        <ele>292</ele>
        <time>2022-03-09T14:00:29Z</time>
      </trkpt>
      <trkpt lat="46.73263" lon="5.55586">
        <ele>292</ele>
        <time>2022-03-09T14:00:30Z</time>
      </trkpt>
      <trkpt lat="46.73269" lon="5.55588">
        <ele>292</ele>
        <time>2022-03-09T14:00:31Z</time>
      </trkpt>
      <trkpt lat="46.73274" lon="5.55591">
        <ele>291.8</ele>
        <time>2022-03-09T14:00:32Z</time>
      </trkpt>
      <trkpt lat="46.73281" lon="5.55593">
        <ele>291.8</ele>
        <time>2022-03-09T14:00:33Z</time>
      </trkpt>
      <trkpt lat="46.73287" lon="5.55596">
        <ele>291.4</ele>
        <time>2022-03-09T14:00:34Z</time>
      </trkpt>
      <trkpt lat="46.73294" lon="5.55598">
        <ele>291.4</ele>
        <time>2022-03-09T14:00:35Z</time>
      </trkpt>
      <trkpt lat="46.733" lon="5.55601">
        <ele>291.2</ele>
        <time>2022-03-09T14:00:36Z</time>
      </trkpt>
      <trkpt lat="46.73307" lon="5.55603">
        <ele>290.8</ele>
        <time>2022-03-09T14:00:37Z</time>
      </trkpt>
      <trkpt lat="46.73314" lon="5.55604">
        <ele>290.6</ele>
        <time>2022-03-09T14:00:38Z</time>
      </trkpt>
      <trkpt lat="46.73321" lon="5.55604">
        <ele>290.4</ele>
        <time>2022-03-09T14:00:39Z</time>
      </trkpt>
      <trkpt lat="46.73329" lon="5.55604">
        <ele>290.2</ele>
        <time>2022-03-09T14:00:40Z</time>
      </trkpt>
      <trkpt lat="46.73336" lon="5.55602">
        <ele>290</ele>
        <time>2022-03-09T14:00:41Z</time>
      </trkpt>
      <trkpt lat="46.73344" lon="5.556">
        <ele>289.8</ele>
        <time>2022-03-09T14:00:42Z</time>
      </trkpt>
      <trkpt lat="46.73352" lon="5.55598">
        <ele>289.8</ele>
        <time>2022-03-09T14:00:43Z</time>
      </trkpt>
      <trkpt lat="46.73359" lon="5.55595">
        <ele>289.4</ele>
        <time>2022-03-09T14:00:44Z</time>
      </trkpt>
      <trkpt lat="46.73367" lon="5.55592">
        <ele>289.4</ele>
        <time>2022-03-09T14:00:45Z</time>
      </trkpt>
      <trkpt lat="46.73375" lon="5.55588">
        <ele>289.2</ele>
        <time>2022-03-09T14:00:46Z</time>
      </trkpt>
      <trkpt lat="46.73382" lon="5.55585">
        <ele>289.2</ele>
        <time>2022-03-09T14:00:47Z</time>
      </trkpt>
      <trkpt lat="46.73389" lon="5.55581">
        <ele>289.2</ele>
        <time>2022-03-09T14:00:48Z</time>
      </trkpt>
      <trkpt lat="46.73396" lon="5.55577">
        <ele>289.2</ele>
        <time>2022-03-09T14:00:49Z</time>
      </trkpt>
      <trkpt lat="46.73403" lon="5.55573">
        <ele>289.2</ele>
        <time>2022-03-09T14:00:50Z</time>
      </trkpt>
      <trkpt lat="46.7341" lon="5.5557">
        <ele>289.4</ele>
        <time>2022-03-09T14:00:51Z</time>
      </trkpt>
      <trkpt lat="46.73416" lon="5.55566">
        <ele>289.4</ele>
        <time>2022-03-09T14:00:52Z</time>
      </trkpt>
      <trkpt lat="46.73423" lon="5.55562">
        <ele>289.6</ele>
        <time>2022-03-09T14:00:53Z</time>
      </trkpt>
      <trkpt lat="46.73429" lon="5.55559">
        <ele>289.8</ele>
        <time>2022-03-09T14:00:54Z</time>
      </trkpt>
      <trkpt lat="46.73435" lon="5.55556">
        <ele>290.2</ele>
        <time>2022-03-09T14:00:55Z</time>
      </trkpt>
      <trkpt lat="46.73441" lon="5.55553">
        <ele>290.4</ele>
        <time>2022-03-09T14:00:56Z</time>
      </trkpt>
      <trkpt lat="46.73447" lon="5.5555">
        <ele>290.6</ele>
        <time>2022-03-09T14:00:57Z</time>
      </trkpt>
      <trkpt lat="46.73452" lon="5.55547">
        <ele>290.8</ele>
        <time>2022-03-09T14:00:58Z</time>
      </trkpt>
      <trkpt lat="46.73458" lon="5.55543">
        <ele>291</ele>
        <time>2022-03-09T14:00:59Z</time>
      </trkpt>
      <trkpt lat="46.73463" lon="5.5554">
        <ele>291.4</ele>
        <time>2022-03-09T14:01:00Z</time>
      </trkpt>
      <trkpt lat="46.73469" lon="5.55538">
        <ele>291.4</ele>
        <time>2022-03-09T14:01:01Z</time>
      </trkpt>
      <trkpt lat="46.73474" lon="5.55535">
        <ele>291.8</ele>
        <time>2022-03-09T14:01:02Z</time>
      </trkpt>
      <trkpt lat="46.73479" lon="5.55532">
        <ele>292</ele>
        <time>2022-03-09T14:01:03Z</time>
      </trkpt>
      <trkpt lat="46.73484" lon="5.55529">
        <ele>292.2</ele>
        <time>2022-03-09T14:01:04Z</time>
      </trkpt>
      <trkpt lat="46.7349" lon="5.55527">
        <ele>292.4</ele>
        <time>2022-03-09T14:01:05Z</time>
      </trkpt>
      <trkpt lat="46.73495" lon="5.55524">
        <ele>292.8</ele>
        <time>2022-03-09T14:01:06Z</time>
      </trkpt>
      <trkpt lat="46.73501" lon="5.55521">
        <ele>293</ele>
        <time>2022-03-09T14:01:07Z</time>
      </trkpt>
      <trkpt lat="46.73506" lon="5.55519">
        <ele>293.4</ele>
        <time>2022-03-09T14:01:08Z</time>
      </trkpt>
      <trkpt lat="46.73512" lon="5.55517">
        <ele>293.6</ele>
        <time>2022-03-09T14:01:09Z</time>
      </trkpt>
      <trkpt lat="46.73518" lon="5.55515">
        <ele>293.8</ele>
        <time>2022-03-09T14:01:10Z</time>
      </trkpt>
      <trkpt lat="46.73524" lon="5.55514">
        <ele>294.2</ele>
        <time>2022-03-09T14:01:11Z</time>
      </trkpt>
      <trkpt lat="46.7353" lon="5.55512">
        <ele>294.6</ele>
        <time>2022-03-09T14:01:12Z</time>
      </trkpt>
      <trkpt lat="46.73535" lon="5.5551">
        <ele>295</ele>
        <time>2022-03-09T14:01:13Z</time>
      </trkpt>
      <trkpt lat="46.73541" lon="5.55508">
        <ele>295.2</ele>
        <time>2022-03-09T14:01:14Z</time>
      </trkpt>
      <trkpt lat="46.73546" lon="5.55506">
        <ele>295.4</ele>
        <time>2022-03-09T14:01:15Z</time>
      </trkpt>
      <trkpt lat="46.73552" lon="5.55505">
        <ele>295.8</ele>
        <time>2022-03-09T14:01:16Z</time>
      </trkpt>
      <trkpt lat="46.73557" lon="5.55505">
        <ele>296</ele>
        <time>2022-03-09T14:01:17Z</time>
      </trkpt>
      <trkpt lat="46.73562" lon="5.55504">
        <ele>296.2</ele>
        <time>2022-03-09T14:01:18Z</time>
      </trkpt>
      <trkpt lat="46.73567" lon="5.55502">
        <ele>296.4</ele>
        <time>2022-03-09T14:01:19Z</time>
      </trkpt>
      <trkpt lat="46.73572" lon="5.55501">
        <ele>296.6</ele>
        <time>2022-03-09T14:01:20Z</time>
      </trkpt>
      <trkpt lat="46.73577" lon="5.55499">
        <ele>296.6</ele>
        <time>2022-03-09T14:01:21Z</time>
      </trkpt>
      <trkpt lat="46.73582" lon="5.55498">
        <ele>297</ele>
        <time>2022-03-09T14:01:22Z</time>
      </trkpt>
      <trkpt lat="46.73587" lon="5.55496">
        <ele>297.4</ele>
        <time>2022-03-09T14:01:23Z</time>
      </trkpt>
      <trkpt lat="46.73592" lon="5.55495">
        <ele>297.6</ele>
        <time>2022-03-09T14:01:24Z</time>
      </trkpt>
      <trkpt lat="46.73597" lon="5.55494">
        <ele>297.8</ele>
        <time>2022-03-09T14:01:25Z</time>
      </trkpt>
      <trkpt lat="46.73602" lon="5.55494">
        <ele>298.2</ele>
        <time>2022-03-09T14:01:26Z</time>
      </trkpt>
      <trkpt lat="46.73606" lon="5.55493">
        <ele>298.4</ele>
        <time>2022-03-09T14:01:27Z</time>
      </trkpt>
      <trkpt lat="46.73611" lon="5.55492">
        <ele>298.6</ele>
        <time>2022-03-09T14:01:28Z</time>
      </trkpt>
      <trkpt lat="46.73615" lon="5.55492">
        <ele>298.6</ele>
        <time>2022-03-09T14:01:29Z</time>
      </trkpt>
      <trkpt lat="46.73619" lon="5.55491">
        <ele>299</ele>
        <time>2022-03-09T14:01:30Z</time>
      </trkpt>
      <trkpt lat="46.73624" lon="5.5549">
        <ele>299</ele>
        <time>2022-03-09T14:01:31Z</time>
      </trkpt>
      <trkpt lat="46.73628" lon="5.55489">
        <ele>299.4</ele>
        <time>2022-03-09T14:01:32Z</time>
      </trkpt>
      <trkpt lat="46.73632" lon="5.55489">
        <ele>299.6</ele>
        <time>2022-03-09T14:01:33Z</time>
      </trkpt>
      <trkpt lat="46.73636" lon="5.55487">
        <ele>299.6</ele>
        <time>2022-03-09T14:01:34Z</time>
      </trkpt>
      <trkpt lat="46.7364" lon="5.55487">
        <ele>300</ele>
        <time>2022-03-09T14:01:35Z</time>
      </trkpt>
      <trkpt lat="46.73644" lon="5.55487">
        <ele>300</ele>
        <time>2022-03-09T14:01:36Z</time>
      </trkpt>
      <trkpt lat="46.73648" lon="5.55487">
        <ele>300.2</ele>
        <time>2022-03-09T14:01:37Z</time>
      </trkpt>
      <trkpt lat="46.73652" lon="5.55486">
        <ele>300.2</ele>
        <time>2022-03-09T14:01:38Z</time>
      </trkpt>
      <trkpt lat="46.73657" lon="5.55486">
        <ele>300.4</ele>
        <time>2022-03-09T14:01:39Z</time>
      </trkpt>
      <trkpt lat="46.73661" lon="5.55486">
        <ele>300.4</ele>
        <time>2022-03-09T14:01:40Z</time>
      </trkpt>
      <trkpt lat="46.73665" lon="5.55486">
        <ele>300.4</ele>
        <time>2022-03-09T14:01:41Z</time>
      </trkpt>
      <trkpt lat="46.7367" lon="5.55486">
        <ele>300.4</ele>
        <time>2022-03-09T14:01:42Z</time>
      </trkpt>
      <trkpt lat="46.73675" lon="5.55486">
        <ele>300.4</ele>
        <time>2022-03-09T14:01:43Z</time>
      </trkpt>
      <trkpt lat="46.7368" lon="5.55486">
        <ele>300.4</ele>
        <time>2022-03-09T14:01:44Z</time>
      </trkpt>
      <trkpt lat="46.73686" lon="5.55487">
        <ele>300.4</ele>
        <time>2022-03-09T14:01:45Z</time>
      </trkpt>
      <trkpt lat="46.73691" lon="5.55487">
        <ele>300.4</ele>
        <time>2022-03-09T14:01:46Z</time>
      </trkpt>
      <trkpt lat="46.73697" lon="5.55487">
        <ele>300.4</ele>
        <time>2022-03-09T14:01:47Z</time>
      </trkpt>
      <trkpt lat="46.73703" lon="5.55487">
        <ele>300.4</ele>
        <time>2022-03-09T14:01:48Z</time>
      </trkpt>
      <trkpt lat="46.73709" lon="5.55487">
        <ele>300</ele>
        <time>2022-03-09T14:01:49Z</time>
      </trkpt>
      <trkpt lat="46.73716" lon="5.55487">
        <ele>300</ele>
        <time>2022-03-09T14:01:50Z</time>
      </trkpt>
      <trkpt lat="46.73722" lon="5.55488">
        <ele>299.8</ele>
        <time>2022-03-09T14:01:51Z</time>
      </trkpt>
      <trkpt lat="46.73729" lon="5.55488">
        <ele>299.6</ele>
        <time>2022-03-09T14:01:52Z</time>
      </trkpt>
      <trkpt lat="46.73736" lon="5.55489">
        <ele>299.6</ele>
        <time>2022-03-09T14:01:53Z</time>
      </trkpt>
      <trkpt lat="46.73743" lon="5.5549">
        <ele>299.2</ele>
        <time>2022-03-09T14:01:54Z</time>
      </trkpt>
      <trkpt lat="46.73743" lon="5.5549">
        <ele>299</ele>
        <time>2022-03-09T14:01:55Z</time>
      </trkpt>
      <trkpt lat="46.73751" lon="5.55491">
        <ele>298.6</ele>
        <time>2022-03-09T14:01:56Z</time>
      </trkpt>
      <trkpt lat="46.73758" lon="5.55492">
        <ele>298.4</ele>
        <time>2022-03-09T14:01:57Z</time>
      </trkpt>
      <trkpt lat="46.73766" lon="5.55493">
        <ele>298.2</ele>
        <time>2022-03-09T14:01:58Z</time>
      </trkpt>
      <trkpt lat="46.73773" lon="5.55493">
        <ele>298</ele>
        <time>2022-03-09T14:01:59Z</time>
      </trkpt>
      <trkpt lat="46.73781" lon="5.55494">
        <ele>298</ele>
        <time>2022-03-09T14:02:00Z</time>
      </trkpt>
      <trkpt lat="46.73788" lon="5.55495">
        <ele>297.6</ele>
        <time>2022-03-09T14:02:01Z</time>
      </trkpt>
      <trkpt lat="46.73796" lon="5.55496">
        <ele>297.4</ele>
        <time>2022-03-09T14:02:02Z</time>
      </trkpt>
      <trkpt lat="46.73803" lon="5.55497">
        <ele>297.4</ele>
        <time>2022-03-09T14:02:03Z</time>
      </trkpt>
      <trkpt lat="46.73811" lon="5.55498">
        <ele>297</ele>
        <time>2022-03-09T14:02:04Z</time>
      </trkpt>
      <trkpt lat="46.73819" lon="5.55499">
        <ele>296.6</ele>
        <time>2022-03-09T14:02:05Z</time>
      </trkpt>
      <trkpt lat="46.73826" lon="5.555">
        <ele>296.6</ele>
        <time>2022-03-09T14:02:06Z</time>
      </trkpt>
      <trkpt lat="46.73834" lon="5.55501">
        <ele>296.2</ele>
        <time>2022-03-09T14:02:07Z</time>
      </trkpt>
      <trkpt lat="46.73842" lon="5.55502">
        <ele>296</ele>
        <time>2022-03-09T14:02:08Z</time>
      </trkpt>
      <trkpt lat="46.7385" lon="5.55503">
        <ele>295.6</ele>
        <time>2022-03-09T14:02:09Z</time>
      </trkpt>
      <trkpt lat="46.73858" lon="5.55504">
        <ele>295.4</ele>
        <time>2022-03-09T14:02:10Z</time>
      </trkpt>
      <trkpt lat="46.73866" lon="5.55506">
        <ele>295.2</ele>
        <time>2022-03-09T14:02:11Z</time>
      </trkpt>
      <trkpt lat="46.73874" lon="5.55507">
        <ele>295</ele>
        <time>2022-03-09T14:02:12Z</time>
      </trkpt>
      <trkpt lat="46.73882" lon="5.55508">
        <ele>295</ele>
        <time>2022-03-09T14:02:13Z</time>
      </trkpt>
      <trkpt lat="46.7389" lon="5.55509">
        <ele>294.6</ele>
        <time>2022-03-09T14:02:14Z</time>
      </trkpt>
      <trkpt lat="46.73898" lon="5.5551">
        <ele>294.4</ele>
        <time>2022-03-09T14:02:15Z</time>
      </trkpt>
      <trkpt lat="46.73906" lon="5.55511">
        <ele>294</ele>
        <time>2022-03-09T14:02:16Z</time>
      </trkpt>
      <trkpt lat="46.73913" lon="5.55511">
        <ele>293.6</ele>
        <time>2022-03-09T14:02:17Z</time>
      </trkpt>
      <trkpt lat="46.7392" lon="5.55511">
        <ele>293.4</ele>
        <time>2022-03-09T14:02:18Z</time>
      </trkpt>
      <trkpt lat="46.73927" lon="5.55509">
        <ele>293</ele>
        <time>2022-03-09T14:02:19Z</time>
      </trkpt>
      <trkpt lat="46.73933" lon="5.55507">
        <ele>292.6</ele>
        <time>2022-03-09T14:02:20Z</time>
      </trkpt>
      <trkpt lat="46.73941" lon="5.55505">
        <ele>292.4</ele>
        <time>2022-03-09T14:02:21Z</time>
      </trkpt>
      <trkpt lat="46.73948" lon="5.55504">
        <ele>292</ele>
        <time>2022-03-09T14:02:22Z</time>
      </trkpt>
      <trkpt lat="46.73955" lon="5.55504">
        <ele>291.8</ele>
        <time>2022-03-09T14:02:23Z</time>
      </trkpt>
      <trkpt lat="46.73962" lon="5.55504">
        <ele>291.6</ele>
        <time>2022-03-09T14:02:24Z</time>
      </trkpt>
      <trkpt lat="46.73969" lon="5.55505">
        <ele>291.4</ele>
        <time>2022-03-09T14:02:25Z</time>
      </trkpt>
      <trkpt lat="46.73976" lon="5.55506">
        <ele>291.2</ele>
        <time>2022-03-09T14:02:26Z</time>
      </trkpt>
      <trkpt lat="46.73983" lon="5.55507">
        <ele>291.2</ele>
        <time>2022-03-09T14:02:27Z</time>
      </trkpt>
      <trkpt lat="46.7399" lon="5.55507">
        <ele>290.6</ele>
        <time>2022-03-09T14:02:28Z</time>
      </trkpt>
      <trkpt lat="46.73997" lon="5.55508">
        <ele>290.6</ele>
        <time>2022-03-09T14:02:29Z</time>
      </trkpt>
      <trkpt lat="46.74004" lon="5.55509">
        <ele>290.2</ele>
        <time>2022-03-09T14:02:30Z</time>
      </trkpt>
      <trkpt lat="46.74011" lon="5.55509">
        <ele>290</ele>
        <time>2022-03-09T14:02:31Z</time>
      </trkpt>
      <trkpt lat="46.74018" lon="5.5551">
        <ele>289.6</ele>
        <time>2022-03-09T14:02:32Z</time>
      </trkpt>
      <trkpt lat="46.74025" lon="5.55511">
        <ele>289.4</ele>
        <time>2022-03-09T14:02:33Z</time>
      </trkpt>
      <trkpt lat="46.74032" lon="5.55511">
        <ele>289</ele>
        <time>2022-03-09T14:02:34Z</time>
      </trkpt>
      <trkpt lat="46.74039" lon="5.55512">
        <ele>288.6</ele>
        <time>2022-03-09T14:02:35Z</time>
      </trkpt>
      <trkpt lat="46.74046" lon="5.55512">
        <ele>288.4</ele>
        <time>2022-03-09T14:02:36Z</time>
      </trkpt>
      <trkpt lat="46.74053" lon="5.55512">
        <ele>288</ele>
        <time>2022-03-09T14:02:37Z</time>
      </trkpt>
      <trkpt lat="46.7406" lon="5.55512">
        <ele>287.6</ele>
        <time>2022-03-09T14:02:38Z</time>
      </trkpt>
      <trkpt lat="46.74067" lon="5.55512">
        <ele>287.4</ele>
        <time>2022-03-09T14:02:39Z</time>
      </trkpt>
      <trkpt lat="46.74074" lon="5.55512">
        <ele>287</ele>
        <time>2022-03-09T14:02:40Z</time>
      </trkpt>
      <trkpt lat="46.74081" lon="5.55513">
        <ele>286.6</ele>
        <time>2022-03-09T14:02:41Z</time>
      </trkpt>
      <trkpt lat="46.74087" lon="5.55514">
        <ele>286.2</ele>
        <time>2022-03-09T14:02:42Z</time>
      </trkpt>
      <trkpt lat="46.74094" lon="5.55514">
        <ele>285.8</ele>
        <time>2022-03-09T14:02:43Z</time>
      </trkpt>
      <trkpt lat="46.74101" lon="5.55515">
        <ele>285.4</ele>
        <time>2022-03-09T14:02:44Z</time>
      </trkpt>
      <trkpt lat="46.74108" lon="5.55516">
        <ele>285.2</ele>
        <time>2022-03-09T14:02:45Z</time>
      </trkpt>
      <trkpt lat="46.74116" lon="5.55517">
        <ele>284.8</ele>
        <time>2022-03-09T14:02:46Z</time>
      </trkpt>
      <trkpt lat="46.74123" lon="5.55517">
        <ele>284.4</ele>
        <time>2022-03-09T14:02:47Z</time>
      </trkpt>
      <trkpt lat="46.74131" lon="5.55518">
        <ele>283.8</ele>
        <time>2022-03-09T14:02:48Z</time>
      </trkpt>
      <trkpt lat="46.74139" lon="5.55519">
        <ele>283.4</ele>
        <time>2022-03-09T14:02:49Z</time>
      </trkpt>
      <trkpt lat="46.74147" lon="5.55519">
        <ele>282.8</ele>
        <time>2022-03-09T14:02:50Z</time>
      </trkpt>
      <trkpt lat="46.74155" lon="5.5552">
        <ele>282.4</ele>
        <time>2022-03-09T14:02:51Z</time>
      </trkpt>
      <trkpt lat="46.74163" lon="5.5552">
        <ele>281.8</ele>
        <time>2022-03-09T14:02:52Z</time>
      </trkpt>
      <trkpt lat="46.74172" lon="5.55521">
        <ele>281.4</ele>
        <time>2022-03-09T14:02:53Z</time>
      </trkpt>
      <trkpt lat="46.7418" lon="5.55521">
        <ele>280.8</ele>
        <time>2022-03-09T14:02:54Z</time>
      </trkpt>
      <trkpt lat="46.74187" lon="5.55522">
        <ele>280.4</ele>
        <time>2022-03-09T14:02:55Z</time>
      </trkpt>
      <trkpt lat="46.74195" lon="5.55522">
        <ele>280</ele>
        <time>2022-03-09T14:02:56Z</time>
      </trkpt>
      <trkpt lat="46.74202" lon="5.55523">
        <ele>279.4</ele>
        <time>2022-03-09T14:02:57Z</time>
      </trkpt>
      <trkpt lat="46.7421" lon="5.55524">
        <ele>279</ele>
        <time>2022-03-09T14:02:58Z</time>
      </trkpt>
      <trkpt lat="46.74217" lon="5.55525">
        <ele>278.8</ele>
        <time>2022-03-09T14:02:59Z</time>
      </trkpt>
      <trkpt lat="46.74225" lon="5.55526">
        <ele>278.6</ele>
        <time>2022-03-09T14:03:00Z</time>
      </trkpt>
      <trkpt lat="46.74232" lon="5.55527">
        <ele>278.2</ele>
        <time>2022-03-09T14:03:01Z</time>
      </trkpt>
      <trkpt lat="46.74239" lon="5.55528">
        <ele>277.8</ele>
        <time>2022-03-09T14:03:02Z</time>
      </trkpt>
      <trkpt lat="46.74246" lon="5.55529">
        <ele>277.6</ele>
        <time>2022-03-09T14:03:03Z</time>
      </trkpt>
      <trkpt lat="46.74253" lon="5.5553">
        <ele>277.6</ele>
        <time>2022-03-09T14:03:04Z</time>
      </trkpt>
      <trkpt lat="46.7426" lon="5.55531">
        <ele>277.2</ele>
        <time>2022-03-09T14:03:05Z</time>
      </trkpt>
      <trkpt lat="46.74267" lon="5.55533">
        <ele>277.2</ele>
        <time>2022-03-09T14:03:06Z</time>
      </trkpt>
      <trkpt lat="46.74274" lon="5.55534">
        <ele>277</ele>
        <time>2022-03-09T14:03:07Z</time>
      </trkpt>
      <trkpt lat="46.7428" lon="5.55536">
        <ele>277</ele>
        <time>2022-03-09T14:03:08Z</time>
      </trkpt>
      <trkpt lat="46.74286" lon="5.55538">
        <ele>276.6</ele>
        <time>2022-03-09T14:03:09Z</time>
      </trkpt>
      <trkpt lat="46.74292" lon="5.5554">
        <ele>276.6</ele>
        <time>2022-03-09T14:03:10Z</time>
      </trkpt>
      <trkpt lat="46.74297" lon="5.55542">
        <ele>276.4</ele>
        <time>2022-03-09T14:03:11Z</time>
      </trkpt>
      <trkpt lat="46.74303" lon="5.55542">
        <ele>276.4</ele>
        <time>2022-03-09T14:03:12Z</time>
      </trkpt>
      <trkpt lat="46.74308" lon="5.55542">
        <ele>276</ele>
        <time>2022-03-09T14:03:13Z</time>
      </trkpt>
      <trkpt lat="46.74313" lon="5.5554">
        <ele>276</ele>
        <time>2022-03-09T14:03:14Z</time>
      </trkpt>
      <trkpt lat="46.74318" lon="5.55537">
        <ele>275.8</ele>
        <time>2022-03-09T14:03:15Z</time>
      </trkpt>
      <trkpt lat="46.74322" lon="5.55532">
        <ele>275.8</ele>
        <time>2022-03-09T14:03:16Z</time>
      </trkpt>
      <trkpt lat="46.74325" lon="5.55527">
        <ele>275.8</ele>
        <time>2022-03-09T14:03:17Z</time>
      </trkpt>
      <trkpt lat="46.74328" lon="5.55521">
        <ele>275.8</ele>
        <time>2022-03-09T14:03:18Z</time>
      </trkpt>
      <trkpt lat="46.7433" lon="5.55515">
        <ele>276</ele>
        <time>2022-03-09T14:03:19Z</time>
      </trkpt>
      <trkpt lat="46.74332" lon="5.55509">
        <ele>276</ele>
        <time>2022-03-09T14:03:20Z</time>
      </trkpt>
      <trkpt lat="46.74334" lon="5.55503">
        <ele>276.4</ele>
        <time>2022-03-09T14:03:21Z</time>
      </trkpt>
      <trkpt lat="46.74337" lon="5.55498">
        <ele>276.6</ele>
        <time>2022-03-09T14:03:22Z</time>
      </trkpt>
      <trkpt lat="46.74339" lon="5.55492">
        <ele>276.6</ele>
        <time>2022-03-09T14:03:23Z</time>
      </trkpt>
      <trkpt lat="46.74341" lon="5.55486">
        <ele>277</ele>
        <time>2022-03-09T14:03:24Z</time>
      </trkpt>
      <trkpt lat="46.74343" lon="5.5548">
        <ele>277</ele>
        <time>2022-03-09T14:03:25Z</time>
      </trkpt>
      <trkpt lat="46.74345" lon="5.55474">
        <ele>277.2</ele>
        <time>2022-03-09T14:03:26Z</time>
      </trkpt>
      <trkpt lat="46.74347" lon="5.55467">
        <ele>277.2</ele>
        <time>2022-03-09T14:03:27Z</time>
      </trkpt>
      <trkpt lat="46.74349" lon="5.5546">
        <ele>277.2</ele>
        <time>2022-03-09T14:03:28Z</time>
      </trkpt>
      <trkpt lat="46.74352" lon="5.55453">
        <ele>277.2</ele>
        <time>2022-03-09T14:03:29Z</time>
      </trkpt>
      <trkpt lat="46.74354" lon="5.55445">
        <ele>277.2</ele>
        <time>2022-03-09T14:03:30Z</time>
      </trkpt>
      <trkpt lat="46.74357" lon="5.55436">
        <ele>276.8</ele>
        <time>2022-03-09T14:03:31Z</time>
      </trkpt>
      <trkpt lat="46.7436" lon="5.55428">
        <ele>276.8</ele>
        <time>2022-03-09T14:03:32Z</time>
      </trkpt>
      <trkpt lat="46.74362" lon="5.55418">
        <ele>276.4</ele>
        <time>2022-03-09T14:03:33Z</time>
      </trkpt>
      <trkpt lat="46.74365" lon="5.55408">
        <ele>276.4</ele>
        <time>2022-03-09T14:03:34Z</time>
      </trkpt>
      <trkpt lat="46.74368" lon="5.55398">
        <ele>275.8</ele>
        <time>2022-03-09T14:03:35Z</time>
      </trkpt>
      <trkpt lat="46.74371" lon="5.55388">
        <ele>275.4</ele>
        <time>2022-03-09T14:03:36Z</time>
      </trkpt>
      <trkpt lat="46.74374" lon="5.55376">
        <ele>275.2</ele>
        <time>2022-03-09T14:03:37Z</time>
      </trkpt>
      <trkpt lat="46.74377" lon="5.55365">
        <ele>274.8</ele>
        <time>2022-03-09T14:03:38Z</time>
      </trkpt>
      <trkpt lat="46.7438" lon="5.55354">
        <ele>274.6</ele>
        <time>2022-03-09T14:03:39Z</time>
      </trkpt>
      <trkpt lat="46.74383" lon="5.55342">
        <ele>274.2</ele>
        <time>2022-03-09T14:03:40Z</time>
      </trkpt>
      <trkpt lat="46.74387" lon="5.5533">
        <ele>274</ele>
        <time>2022-03-09T14:03:41Z</time>
      </trkpt>
      <trkpt lat="46.7439" lon="5.55318">
        <ele>273.8</ele>
        <time>2022-03-09T14:03:42Z</time>
      </trkpt>
      <trkpt lat="46.74393" lon="5.55306">
        <ele>273.6</ele>
        <time>2022-03-09T14:03:43Z</time>
      </trkpt>
      <trkpt lat="46.74396" lon="5.55295">
        <ele>273.6</ele>
        <time>2022-03-09T14:03:44Z</time>
      </trkpt>
      <trkpt lat="46.74399" lon="5.55283">
        <ele>273.2</ele>
        <time>2022-03-09T14:03:45Z</time>
      </trkpt>
      <trkpt lat="46.74403" lon="5.55272">
        <ele>273</ele>
        <time>2022-03-09T14:03:46Z</time>
      </trkpt>
      <trkpt lat="46.74406" lon="5.5526">
        <ele>273</ele>
        <time>2022-03-09T14:03:47Z</time>
      </trkpt>
      <trkpt lat="46.74409" lon="5.55249">
        <ele>272.6</ele>
        <time>2022-03-09T14:03:48Z</time>
      </trkpt>
      <trkpt lat="46.74412" lon="5.55238">
        <ele>272.4</ele>
        <time>2022-03-09T14:03:49Z</time>
      </trkpt>
      <trkpt lat="46.74415" lon="5.55227">
        <ele>272.4</ele>
        <time>2022-03-09T14:03:50Z</time>
      </trkpt>
      <trkpt lat="46.74419" lon="5.55216">
        <ele>272.4</ele>
        <time>2022-03-09T14:03:51Z</time>
      </trkpt>
      <trkpt lat="46.74422" lon="5.55205">
        <ele>272.2</ele>
        <time>2022-03-09T14:03:52Z</time>
      </trkpt>
      <trkpt lat="46.74425" lon="5.55195">
        <ele>272.2</ele>
        <time>2022-03-09T14:03:53Z</time>
      </trkpt>
      <trkpt lat="46.74429" lon="5.55184">
        <ele>272</ele>
        <time>2022-03-09T14:03:54Z</time>
      </trkpt>
      <trkpt lat="46.74432" lon="5.55173">
        <ele>272</ele>
        <time>2022-03-09T14:03:55Z</time>
      </trkpt>
      <trkpt lat="46.74435" lon="5.55162">
        <ele>272</ele>
        <time>2022-03-09T14:03:56Z</time>
      </trkpt>
      <trkpt lat="46.74438" lon="5.55151">
        <ele>271.8</ele>
        <time>2022-03-09T14:03:57Z</time>
      </trkpt>
      <trkpt lat="46.74441" lon="5.55141">
        <ele>271.8</ele>
        <time>2022-03-09T14:03:58Z</time>
      </trkpt>
      <trkpt lat="46.74444" lon="5.5513">
        <ele>271.8</ele>
        <time>2022-03-09T14:03:59Z</time>
      </trkpt>
      <trkpt lat="46.74447" lon="5.55119">
        <ele>272</ele>
        <time>2022-03-09T14:04:00Z</time>
      </trkpt>
      <trkpt lat="46.74449" lon="5.55109">
        <ele>272</ele>
        <time>2022-03-09T14:04:01Z</time>
      </trkpt>
      <trkpt lat="46.74451" lon="5.55099">
        <ele>272.4</ele>
        <time>2022-03-09T14:04:02Z</time>
      </trkpt>
      <trkpt lat="46.74453" lon="5.55089">
        <ele>272.4</ele>
        <time>2022-03-09T14:04:03Z</time>
      </trkpt>
      <trkpt lat="46.74455" lon="5.55079">
        <ele>272.6</ele>
        <time>2022-03-09T14:04:04Z</time>
      </trkpt>
      <trkpt lat="46.74456" lon="5.5507">
        <ele>272.6</ele>
        <time>2022-03-09T14:04:05Z</time>
      </trkpt>
      <trkpt lat="46.74457" lon="5.55061">
        <ele>273</ele>
        <time>2022-03-09T14:04:06Z</time>
      </trkpt>
      <trkpt lat="46.74458" lon="5.55052">
        <ele>273</ele>
        <time>2022-03-09T14:04:07Z</time>
      </trkpt>
      <trkpt lat="46.74458" lon="5.55043">
        <ele>273.2</ele>
        <time>2022-03-09T14:04:08Z</time>
      </trkpt>
      <trkpt lat="46.74458" lon="5.55034">
        <ele>273.2</ele>
        <time>2022-03-09T14:04:09Z</time>
      </trkpt>
      <trkpt lat="46.74459" lon="5.55025">
        <ele>273.2</ele>
        <time>2022-03-09T14:04:10Z</time>
      </trkpt>
      <trkpt lat="46.74459" lon="5.55016">
        <ele>273.2</ele>
        <time>2022-03-09T14:04:11Z</time>
      </trkpt>
      <trkpt lat="46.74459" lon="5.55007">
        <ele>273.2</ele>
        <time>2022-03-09T14:04:12Z</time>
      </trkpt>
      <trkpt lat="46.74459" lon="5.54998">
        <ele>273.2</ele>
        <time>2022-03-09T14:04:13Z</time>
      </trkpt>
      <trkpt lat="46.74459" lon="5.54988">
        <ele>273</ele>
        <time>2022-03-09T14:04:14Z</time>
      </trkpt>
      <trkpt lat="46.74459" lon="5.54978">
        <ele>273</ele>
        <time>2022-03-09T14:04:15Z</time>
      </trkpt>
      <trkpt lat="46.74459" lon="5.54968">
        <ele>272.6</ele>
        <time>2022-03-09T14:04:16Z</time>
      </trkpt>
      <trkpt lat="46.74459" lon="5.54957">
        <ele>272.4</ele>
        <time>2022-03-09T14:04:17Z</time>
      </trkpt>
      <trkpt lat="46.7446" lon="5.54947">
        <ele>272</ele>
        <time>2022-03-09T14:04:18Z</time>
      </trkpt>
      <trkpt lat="46.74461" lon="5.54936">
        <ele>271.8</ele>
        <time>2022-03-09T14:04:19Z</time>
      </trkpt>
      <trkpt lat="46.74462" lon="5.54924">
        <ele>271.4</ele>
        <time>2022-03-09T14:04:20Z</time>
      </trkpt>
      <trkpt lat="46.74463" lon="5.54913">
        <ele>271</ele>
        <time>2022-03-09T14:04:21Z</time>
      </trkpt>
      <trkpt lat="46.74465" lon="5.54901">
        <ele>270.8</ele>
        <time>2022-03-09T14:04:22Z</time>
      </trkpt>
      <trkpt lat="46.74467" lon="5.5489">
        <ele>270.4</ele>
        <time>2022-03-09T14:04:23Z</time>
      </trkpt>
      <trkpt lat="46.7447" lon="5.54878">
        <ele>270.2</ele>
        <time>2022-03-09T14:04:24Z</time>
      </trkpt>
      <trkpt lat="46.74472" lon="5.54867">
        <ele>269.8</ele>
        <time>2022-03-09T14:04:25Z</time>
      </trkpt>
      <trkpt lat="46.74474" lon="5.54856">
        <ele>269.8</ele>
        <time>2022-03-09T14:04:26Z</time>
      </trkpt>
      <trkpt lat="46.74476" lon="5.54845">
        <ele>269.6</ele>
        <time>2022-03-09T14:04:27Z</time>
      </trkpt>
      <trkpt lat="46.74478" lon="5.54835">
        <ele>269.6</ele>
        <time>2022-03-09T14:04:28Z</time>
      </trkpt>
      <trkpt lat="46.74478" lon="5.54824">
        <ele>269.6</ele>
        <time>2022-03-09T14:04:29Z</time>
      </trkpt>
      <trkpt lat="46.74478" lon="5.54814">
        <ele>269.6</ele>
        <time>2022-03-09T14:04:30Z</time>
      </trkpt>
      <trkpt lat="46.74477" lon="5.54805">
        <ele>269.6</ele>
        <time>2022-03-09T14:04:31Z</time>
      </trkpt>
      <trkpt lat="46.74477" lon="5.54796">
        <ele>269.6</ele>
        <time>2022-03-09T14:04:32Z</time>
      </trkpt>
      <trkpt lat="46.74476" lon="5.54788">
        <ele>269.6</ele>
        <time>2022-03-09T14:04:33Z</time>
      </trkpt>
      <trkpt lat="46.74477" lon="5.5478">
        <ele>269.6</ele>
        <time>2022-03-09T14:04:34Z</time>
      </trkpt>
      <trkpt lat="46.74477" lon="5.54773">
        <ele>269.8</ele>
        <time>2022-03-09T14:04:35Z</time>
      </trkpt>
      <trkpt lat="46.74478" lon="5.54767">
        <ele>269.8</ele>
        <time>2022-03-09T14:04:36Z</time>
      </trkpt>
      <trkpt lat="46.74477" lon="5.54761">
        <ele>269.8</ele>
        <time>2022-03-09T14:04:37Z</time>
      </trkpt>
      <trkpt lat="46.74476" lon="5.54757">
        <ele>269.8</ele>
        <time>2022-03-09T14:04:38Z</time>
      </trkpt>
      <trkpt lat="46.74473" lon="5.54753">
        <ele>269.8</ele>
        <time>2022-03-09T14:04:39Z</time>
      </trkpt>
      <trkpt lat="46.74469" lon="5.54749">
        <ele>269.8</ele>
        <time>2022-03-09T14:04:40Z</time>
      </trkpt>
      <trkpt lat="46.74464" lon="5.54746">
        <ele>269.8</ele>
        <time>2022-03-09T14:04:41Z</time>
      </trkpt>
      <trkpt lat="46.74459" lon="5.54744">
        <ele>269.8</ele>
        <time>2022-03-09T14:04:42Z</time>
      </trkpt>
      <trkpt lat="46.74454" lon="5.54741">
        <ele>269.8</ele>
        <time>2022-03-09T14:04:43Z</time>
      </trkpt>
      <trkpt lat="46.74449" lon="5.54738">
        <ele>269.4</ele>
        <time>2022-03-09T14:04:44Z</time>
      </trkpt>
      <trkpt lat="46.74443" lon="5.54734">
        <ele>269.4</ele>
        <time>2022-03-09T14:04:45Z</time>
      </trkpt>
      <trkpt lat="46.74438" lon="5.54729">
        <ele>269</ele>
        <time>2022-03-09T14:04:46Z</time>
      </trkpt>
      <trkpt lat="46.74433" lon="5.54723">
        <ele>268.6</ele>
        <time>2022-03-09T14:04:47Z</time>
      </trkpt>
      <trkpt lat="46.74429" lon="5.54716">
        <ele>268.2</ele>
        <time>2022-03-09T14:04:48Z</time>
      </trkpt>
      <trkpt lat="46.74424" lon="5.54708">
        <ele>268</ele>
        <time>2022-03-09T14:04:49Z</time>
      </trkpt>
      <trkpt lat="46.7442" lon="5.54699">
        <ele>267.6</ele>
        <time>2022-03-09T14:04:50Z</time>
      </trkpt>
      <trkpt lat="46.74415" lon="5.5469">
        <ele>267.4</ele>
        <time>2022-03-09T14:04:51Z</time>
      </trkpt>
      <trkpt lat="46.74406" lon="5.54671">
        <ele>267</ele>
        <time>2022-03-09T14:04:52Z</time>
      </trkpt>
      <trkpt lat="46.74401" lon="5.5466">
        <ele>266.4</ele>
        <time>2022-03-09T14:04:53Z</time>
      </trkpt>
      <trkpt lat="46.74396" lon="5.5465">
        <ele>265.8</ele>
        <time>2022-03-09T14:04:54Z</time>
      </trkpt>
      <trkpt lat="46.7439" lon="5.54639">
        <ele>265.2</ele>
        <time>2022-03-09T14:04:55Z</time>
      </trkpt>
      <trkpt lat="46.74384" lon="5.54628">
        <ele>264.6</ele>
        <time>2022-03-09T14:04:56Z</time>
      </trkpt>
      <trkpt lat="46.74378" lon="5.54617">
        <ele>264</ele>
        <time>2022-03-09T14:04:57Z</time>
      </trkpt>
      <trkpt lat="46.74372" lon="5.54605">
        <ele>263.2</ele>
        <time>2022-03-09T14:04:58Z</time>
      </trkpt>
      <trkpt lat="46.74366" lon="5.54593">
        <ele>262.6</ele>
        <time>2022-03-09T14:04:59Z</time>
      </trkpt>
      <trkpt lat="46.7436" lon="5.54582">
        <ele>262</ele>
        <time>2022-03-09T14:05:00Z</time>
      </trkpt>
      <trkpt lat="46.74355" lon="5.5457">
        <ele>261.4</ele>
        <time>2022-03-09T14:05:01Z</time>
      </trkpt>
      <trkpt lat="46.74349" lon="5.54558">
        <ele>261</ele>
        <time>2022-03-09T14:05:02Z</time>
      </trkpt>
      <trkpt lat="46.74343" lon="5.54546">
        <ele>260.4</ele>
        <time>2022-03-09T14:05:03Z</time>
      </trkpt>
      <trkpt lat="46.74338" lon="5.54536">
        <ele>260</ele>
        <time>2022-03-09T14:05:04Z</time>
      </trkpt>
      <trkpt lat="46.74333" lon="5.54525">
        <ele>259.4</ele>
        <time>2022-03-09T14:05:05Z</time>
      </trkpt>
      <trkpt lat="46.74327" lon="5.54514">
        <ele>259.2</ele>
        <time>2022-03-09T14:05:06Z</time>
      </trkpt>
      <trkpt lat="46.74322" lon="5.54502">
        <ele>258.6</ele>
        <time>2022-03-09T14:05:07Z</time>
      </trkpt>
      <trkpt lat="46.74317" lon="5.54492">
        <ele>258.2</ele>
        <time>2022-03-09T14:05:08Z</time>
      </trkpt>
      <trkpt lat="46.74312" lon="5.54481">
        <ele>257.8</ele>
        <time>2022-03-09T14:05:09Z</time>
      </trkpt>
      <trkpt lat="46.74307" lon="5.54471">
        <ele>257.4</ele>
        <time>2022-03-09T14:05:10Z</time>
      </trkpt>
      <trkpt lat="46.74302" lon="5.5446">
        <ele>257</ele>
        <time>2022-03-09T14:05:11Z</time>
      </trkpt>
      <trkpt lat="46.74297" lon="5.5445">
        <ele>256.8</ele>
        <time>2022-03-09T14:05:12Z</time>
      </trkpt>
      <trkpt lat="46.74292" lon="5.54439">
        <ele>256.4</ele>
        <time>2022-03-09T14:05:13Z</time>
      </trkpt>
      <trkpt lat="46.74287" lon="5.54429">
        <ele>256.4</ele>
        <time>2022-03-09T14:05:14Z</time>
      </trkpt>
      <trkpt lat="46.74282" lon="5.5442">
        <ele>256.2</ele>
        <time>2022-03-09T14:05:15Z</time>
      </trkpt>
      <trkpt lat="46.74277" lon="5.5441">
        <ele>255.8</ele>
        <time>2022-03-09T14:05:16Z</time>
      </trkpt>
      <trkpt lat="46.74273" lon="5.544">
        <ele>255.6</ele>
        <time>2022-03-09T14:05:17Z</time>
      </trkpt>
      <trkpt lat="46.74268" lon="5.54391">
        <ele>255.4</ele>
        <time>2022-03-09T14:05:18Z</time>
      </trkpt>
      <trkpt lat="46.74264" lon="5.54382">
        <ele>255.4</ele>
        <time>2022-03-09T14:05:19Z</time>
      </trkpt>
      <trkpt lat="46.74259" lon="5.54372">
        <ele>255</ele>
        <time>2022-03-09T14:05:20Z</time>
      </trkpt>
      <trkpt lat="46.74254" lon="5.54363">
        <ele>255</ele>
        <time>2022-03-09T14:05:21Z</time>
      </trkpt>
      <trkpt lat="46.7425" lon="5.54353">
        <ele>254.6</ele>
        <time>2022-03-09T14:05:22Z</time>
      </trkpt>
      <trkpt lat="46.74245" lon="5.54344">
        <ele>254.6</ele>
        <time>2022-03-09T14:05:23Z</time>
      </trkpt>
      <trkpt lat="46.7424" lon="5.54334">
        <ele>254.4</ele>
        <time>2022-03-09T14:05:24Z</time>
      </trkpt>
      <trkpt lat="46.74236" lon="5.54323">
        <ele>254.2</ele>
        <time>2022-03-09T14:05:25Z</time>
      </trkpt>
      <trkpt lat="46.74231" lon="5.54313">
        <ele>253.8</ele>
        <time>2022-03-09T14:05:26Z</time>
      </trkpt>
      <trkpt lat="46.74226" lon="5.54302">
        <ele>253.6</ele>
        <time>2022-03-09T14:05:27Z</time>
      </trkpt>
      <trkpt lat="46.74221" lon="5.54292">
        <ele>253.2</ele>
        <time>2022-03-09T14:05:28Z</time>
      </trkpt>
      <trkpt lat="46.74216" lon="5.54282">
        <ele>253</ele>
        <time>2022-03-09T14:05:29Z</time>
      </trkpt>
      <trkpt lat="46.74211" lon="5.54272">
        <ele>253</ele>
        <time>2022-03-09T14:05:30Z</time>
      </trkpt>
      <trkpt lat="46.74206" lon="5.54262">
        <ele>252.8</ele>
        <time>2022-03-09T14:05:31Z</time>
      </trkpt>
      <trkpt lat="46.74201" lon="5.54252">
        <ele>252.8</ele>
        <time>2022-03-09T14:05:32Z</time>
      </trkpt>
      <trkpt lat="46.74197" lon="5.54242">
        <ele>252.8</ele>
        <time>2022-03-09T14:05:33Z</time>
      </trkpt>
      <trkpt lat="46.74192" lon="5.54233">
        <ele>252.8</ele>
        <time>2022-03-09T14:05:34Z</time>
      </trkpt>
      <trkpt lat="46.74188" lon="5.54223">
        <ele>252.8</ele>
        <time>2022-03-09T14:05:35Z</time>
      </trkpt>
      <trkpt lat="46.74184" lon="5.54214">
        <ele>252.8</ele>
        <time>2022-03-09T14:05:36Z</time>
      </trkpt>
      <trkpt lat="46.74181" lon="5.54205">
        <ele>252.8</ele>
        <time>2022-03-09T14:05:37Z</time>
      </trkpt>
      <trkpt lat="46.7418" lon="5.54195">
        <ele>252.8</ele>
        <time>2022-03-09T14:05:38Z</time>
      </trkpt>
      <trkpt lat="46.74181" lon="5.54184">
        <ele>252.8</ele>
        <time>2022-03-09T14:05:39Z</time>
      </trkpt>
      <trkpt lat="46.74183" lon="5.54174">
        <ele>252.8</ele>
        <time>2022-03-09T14:05:40Z</time>
      </trkpt>
      <trkpt lat="46.74186" lon="5.54164">
        <ele>252.8</ele>
        <time>2022-03-09T14:05:41Z</time>
      </trkpt>
      <trkpt lat="46.74189" lon="5.54153">
        <ele>252.6</ele>
        <time>2022-03-09T14:05:42Z</time>
      </trkpt>
      <trkpt lat="46.74192" lon="5.54143">
        <ele>252.6</ele>
        <time>2022-03-09T14:05:43Z</time>
      </trkpt>
      <trkpt lat="46.74196" lon="5.54132">
        <ele>252.6</ele>
        <time>2022-03-09T14:05:44Z</time>
      </trkpt>
      <trkpt lat="46.742" lon="5.54123">
        <ele>252.6</ele>
        <time>2022-03-09T14:05:45Z</time>
      </trkpt>
      <trkpt lat="46.74204" lon="5.54113">
        <ele>252.6</ele>
        <time>2022-03-09T14:05:46Z</time>
      </trkpt>
      <trkpt lat="46.74209" lon="5.54104">
        <ele>252.6</ele>
        <time>2022-03-09T14:05:47Z</time>
      </trkpt>
      <trkpt lat="46.74214" lon="5.54096">
        <ele>252.6</ele>
        <time>2022-03-09T14:05:48Z</time>
      </trkpt>
      <trkpt lat="46.7422" lon="5.54088">
        <ele>252.6</ele>
        <time>2022-03-09T14:05:49Z</time>
      </trkpt>
      <trkpt lat="46.74226" lon="5.54081">
        <ele>252.6</ele>
        <time>2022-03-09T14:05:50Z</time>
      </trkpt>
      <trkpt lat="46.74232" lon="5.54073">
        <ele>252.4</ele>
        <time>2022-03-09T14:05:51Z</time>
      </trkpt>
      <trkpt lat="46.74238" lon="5.54065">
        <ele>252.4</ele>
        <time>2022-03-09T14:05:52Z</time>
      </trkpt>
      <trkpt lat="46.74244" lon="5.54058">
        <ele>252.4</ele>
        <time>2022-03-09T14:05:53Z</time>
      </trkpt>
      <trkpt lat="46.7425" lon="5.54049">
        <ele>252.4</ele>
        <time>2022-03-09T14:05:54Z</time>
      </trkpt>
      <trkpt lat="46.74256" lon="5.54041">
        <ele>252.2</ele>
        <time>2022-03-09T14:05:55Z</time>
      </trkpt>
      <trkpt lat="46.74263" lon="5.54033">
        <ele>252.2</ele>
        <time>2022-03-09T14:05:56Z</time>
      </trkpt>
      <trkpt lat="46.74269" lon="5.54025">
        <ele>252</ele>
        <time>2022-03-09T14:05:57Z</time>
      </trkpt>
      <trkpt lat="46.74275" lon="5.54016">
        <ele>252</ele>
        <time>2022-03-09T14:05:58Z</time>
      </trkpt>
      <trkpt lat="46.74282" lon="5.54008">
        <ele>252</ele>
        <time>2022-03-09T14:05:59Z</time>
      </trkpt>
      <trkpt lat="46.74288" lon="5.53999">
        <ele>252</ele>
        <time>2022-03-09T14:06:00Z</time>
      </trkpt>
      <trkpt lat="46.74293" lon="5.5399">
        <ele>252</ele>
        <time>2022-03-09T14:06:01Z</time>
      </trkpt>
      <trkpt lat="46.74299" lon="5.53981">
        <ele>252</ele>
        <time>2022-03-09T14:06:02Z</time>
      </trkpt>
      <trkpt lat="46.74305" lon="5.53973">
        <ele>252</ele>
        <time>2022-03-09T14:06:03Z</time>
      </trkpt>
      <trkpt lat="46.7431" lon="5.53964">
        <ele>252</ele>
        <time>2022-03-09T14:06:04Z</time>
      </trkpt>
      <trkpt lat="46.74316" lon="5.53956">
        <ele>252</ele>
        <time>2022-03-09T14:06:05Z</time>
      </trkpt>
      <trkpt lat="46.74321" lon="5.53947">
        <ele>252</ele>
        <time>2022-03-09T14:06:06Z</time>
      </trkpt>
      <trkpt lat="46.74326" lon="5.53938">
        <ele>252</ele>
        <time>2022-03-09T14:06:07Z</time>
      </trkpt>
      <trkpt lat="46.74331" lon="5.53929">
        <ele>252</ele>
        <time>2022-03-09T14:06:08Z</time>
      </trkpt>
      <trkpt lat="46.74335" lon="5.5392">
        <ele>252</ele>
        <time>2022-03-09T14:06:09Z</time>
      </trkpt>
      <trkpt lat="46.74337" lon="5.5391">
        <ele>252</ele>
        <time>2022-03-09T14:06:10Z</time>
      </trkpt>
      <trkpt lat="46.74339" lon="5.53899">
        <ele>252.2</ele>
        <time>2022-03-09T14:06:11Z</time>
      </trkpt>
      <trkpt lat="46.74341" lon="5.53889">
        <ele>252.2</ele>
        <time>2022-03-09T14:06:12Z</time>
      </trkpt>
      <trkpt lat="46.74341" lon="5.53879">
        <ele>252.6</ele>
        <time>2022-03-09T14:06:13Z</time>
      </trkpt>
      <trkpt lat="46.74342" lon="5.5387">
        <ele>252.8</ele>
        <time>2022-03-09T14:06:14Z</time>
      </trkpt>
      <trkpt lat="46.74342" lon="5.53861">
        <ele>253.2</ele>
        <time>2022-03-09T14:06:15Z</time>
      </trkpt>
      <trkpt lat="46.74342" lon="5.53861">
        <ele>253.6</ele>
        <time>2022-03-09T14:06:16Z</time>
      </trkpt>
      <trkpt lat="46.74344" lon="5.53852">
        <ele>254</ele>
        <time>2022-03-09T14:06:17Z</time>
      </trkpt>
      <trkpt lat="46.74345" lon="5.53843">
        <ele>254.2</ele>
        <time>2022-03-09T14:06:18Z</time>
      </trkpt>
      <trkpt lat="46.74346" lon="5.53835">
        <ele>254.4</ele>
        <time>2022-03-09T14:06:19Z</time>
      </trkpt>
      <trkpt lat="46.74348" lon="5.53826">
        <ele>254.6</ele>
        <time>2022-03-09T14:06:20Z</time>
      </trkpt>
      <trkpt lat="46.7435" lon="5.53818">
        <ele>254.6</ele>
        <time>2022-03-09T14:06:21Z</time>
      </trkpt>
      <trkpt lat="46.74352" lon="5.53809">
        <ele>254.6</ele>
        <time>2022-03-09T14:06:22Z</time>
      </trkpt>
      <trkpt lat="46.74355" lon="5.538">
        <ele>254.6</ele>
        <time>2022-03-09T14:06:23Z</time>
      </trkpt>
      <trkpt lat="46.74357" lon="5.53791">
        <ele>254.4</ele>
        <time>2022-03-09T14:06:24Z</time>
      </trkpt>
      <trkpt lat="46.7436" lon="5.53781">
        <ele>254.2</ele>
        <time>2022-03-09T14:06:25Z</time>
      </trkpt>
      <trkpt lat="46.74363" lon="5.53771">
        <ele>253.8</ele>
        <time>2022-03-09T14:06:26Z</time>
      </trkpt>
      <trkpt lat="46.74365" lon="5.53759">
        <ele>253.6</ele>
        <time>2022-03-09T14:06:27Z</time>
      </trkpt>
      <trkpt lat="46.74368" lon="5.53747">
        <ele>253.2</ele>
        <time>2022-03-09T14:06:28Z</time>
      </trkpt>
      <trkpt lat="46.7437" lon="5.53734">
        <ele>252.8</ele>
        <time>2022-03-09T14:06:29Z</time>
      </trkpt>
      <trkpt lat="46.74371" lon="5.53721">
        <ele>252.4</ele>
        <time>2022-03-09T14:06:30Z</time>
      </trkpt>
      <trkpt lat="46.74372" lon="5.53708">
        <ele>252</ele>
        <time>2022-03-09T14:06:31Z</time>
      </trkpt>
      <trkpt lat="46.74371" lon="5.53695">
        <ele>251.6</ele>
        <time>2022-03-09T14:06:32Z</time>
      </trkpt>
      <trkpt lat="46.7437" lon="5.53683">
        <ele>251.2</ele>
        <time>2022-03-09T14:06:33Z</time>
      </trkpt>
      <trkpt lat="46.74368" lon="5.5367">
        <ele>251</ele>
        <time>2022-03-09T14:06:34Z</time>
      </trkpt>
      <trkpt lat="46.74365" lon="5.53658">
        <ele>250.6</ele>
        <time>2022-03-09T14:06:35Z</time>
      </trkpt>
      <trkpt lat="46.74362" lon="5.53645">
        <ele>250.2</ele>
        <time>2022-03-09T14:06:36Z</time>
      </trkpt>
      <trkpt lat="46.74359" lon="5.53633">
        <ele>250</ele>
        <time>2022-03-09T14:06:37Z</time>
      </trkpt>
      <trkpt lat="46.74355" lon="5.53621">
        <ele>249.6</ele>
        <time>2022-03-09T14:06:38Z</time>
      </trkpt>
      <trkpt lat="46.74352" lon="5.53609">
        <ele>249.4</ele>
        <time>2022-03-09T14:06:39Z</time>
      </trkpt>
      <trkpt lat="46.74348" lon="5.53598">
        <ele>249.4</ele>
        <time>2022-03-09T14:06:40Z</time>
      </trkpt>
      <trkpt lat="46.74345" lon="5.53586">
        <ele>249</ele>
        <time>2022-03-09T14:06:41Z</time>
      </trkpt>
      <trkpt lat="46.74342" lon="5.53574">
        <ele>248.8</ele>
        <time>2022-03-09T14:06:42Z</time>
      </trkpt>
      <trkpt lat="46.74339" lon="5.53562">
        <ele>248.8</ele>
        <time>2022-03-09T14:06:43Z</time>
      </trkpt>
      <trkpt lat="46.74337" lon="5.53551">
        <ele>248.6</ele>
        <time>2022-03-09T14:06:44Z</time>
      </trkpt>
      <trkpt lat="46.74335" lon="5.53539">
        <ele>248.6</ele>
        <time>2022-03-09T14:06:45Z</time>
      </trkpt>
      <trkpt lat="46.74333" lon="5.53527">
        <ele>248.2</ele>
        <time>2022-03-09T14:06:46Z</time>
      </trkpt>
      <trkpt lat="46.74331" lon="5.53515">
        <ele>248</ele>
        <time>2022-03-09T14:06:47Z</time>
      </trkpt>
      <trkpt lat="46.74328" lon="5.53504">
        <ele>247.6</ele>
        <time>2022-03-09T14:06:48Z</time>
      </trkpt>
      <trkpt lat="46.74327" lon="5.53494">
        <ele>247.4</ele>
        <time>2022-03-09T14:06:49Z</time>
      </trkpt>
      <trkpt lat="46.74325" lon="5.53484">
        <ele>247</ele>
        <time>2022-03-09T14:06:50Z</time>
      </trkpt>
      <trkpt lat="46.74325" lon="5.53474">
        <ele>246.8</ele>
        <time>2022-03-09T14:06:51Z</time>
      </trkpt>
      <trkpt lat="46.74327" lon="5.53466">
        <ele>246.8</ele>
        <time>2022-03-09T14:06:52Z</time>
      </trkpt>
      <trkpt lat="46.74332" lon="5.53458">
        <ele>246.4</ele>
        <time>2022-03-09T14:06:53Z</time>
      </trkpt>
      <trkpt lat="46.74339" lon="5.53453">
        <ele>246.4</ele>
        <time>2022-03-09T14:06:54Z</time>
      </trkpt>
      <trkpt lat="46.74346" lon="5.53449">
        <ele>246.2</ele>
        <time>2022-03-09T14:06:55Z</time>
      </trkpt>
      <trkpt lat="46.74352" lon="5.53445">
        <ele>246.2</ele>
        <time>2022-03-09T14:06:56Z</time>
      </trkpt>
      <trkpt lat="46.74358" lon="5.53439">
        <ele>245.8</ele>
        <time>2022-03-09T14:06:57Z</time>
      </trkpt>
      <trkpt lat="46.74363" lon="5.53431">
        <ele>245.8</ele>
        <time>2022-03-09T14:06:58Z</time>
      </trkpt>
      <trkpt lat="46.74367" lon="5.53422">
        <ele>245.8</ele>
        <time>2022-03-09T14:06:59Z</time>
      </trkpt>
      <trkpt lat="46.74371" lon="5.53413">
        <ele>245.8</ele>
        <time>2022-03-09T14:07:00Z</time>
      </trkpt>
      <trkpt lat="46.74374" lon="5.53403">
        <ele>245.8</ele>
        <time>2022-03-09T14:07:01Z</time>
      </trkpt>
      <trkpt lat="46.74377" lon="5.53394">
        <ele>245.6</ele>
        <time>2022-03-09T14:07:02Z</time>
      </trkpt>
      <trkpt lat="46.74379" lon="5.53384">
        <ele>245.6</ele>
        <time>2022-03-09T14:07:03Z</time>
      </trkpt>
      <trkpt lat="46.74382" lon="5.53374">
        <ele>245.6</ele>
        <time>2022-03-09T14:07:04Z</time>
      </trkpt>
      <trkpt lat="46.74383" lon="5.53365">
        <ele>245.6</ele>
        <time>2022-03-09T14:07:05Z</time>
      </trkpt>
      <trkpt lat="46.74384" lon="5.53355">
        <ele>245.4</ele>
        <time>2022-03-09T14:07:06Z</time>
      </trkpt>
      <trkpt lat="46.74384" lon="5.53346">
        <ele>245.4</ele>
        <time>2022-03-09T14:07:07Z</time>
      </trkpt>
      <trkpt lat="46.74384" lon="5.53337">
        <ele>245.4</ele>
        <time>2022-03-09T14:07:08Z</time>
      </trkpt>
      <trkpt lat="46.74383" lon="5.53327">
        <ele>245.4</ele>
        <time>2022-03-09T14:07:09Z</time>
      </trkpt>
      <trkpt lat="46.74382" lon="5.53318">
        <ele>245.8</ele>
        <time>2022-03-09T14:07:10Z</time>
      </trkpt>
      <trkpt lat="46.7438" lon="5.53309">
        <ele>246</ele>
        <time>2022-03-09T14:07:11Z</time>
      </trkpt>
      <trkpt lat="46.74377" lon="5.533">
        <ele>246</ele>
        <time>2022-03-09T14:07:12Z</time>
      </trkpt>
      <trkpt lat="46.74372" lon="5.53292">
        <ele>246</ele>
        <time>2022-03-09T14:07:13Z</time>
      </trkpt>
      <trkpt lat="46.74367" lon="5.53285">
        <ele>246</ele>
        <time>2022-03-09T14:07:14Z</time>
      </trkpt>
      <trkpt lat="46.74362" lon="5.53279">
        <ele>246</ele>
        <time>2022-03-09T14:07:15Z</time>
      </trkpt>
      <trkpt lat="46.74355" lon="5.53274">
        <ele>246</ele>
        <time>2022-03-09T14:07:16Z</time>
      </trkpt>
      <trkpt lat="46.74349" lon="5.53268">
        <ele>246</ele>
        <time>2022-03-09T14:07:17Z</time>
      </trkpt>
      <trkpt lat="46.74342" lon="5.53263">
        <ele>246</ele>
        <time>2022-03-09T14:07:18Z</time>
      </trkpt>
      <trkpt lat="46.74336" lon="5.53256">
        <ele>245.8</ele>
        <time>2022-03-09T14:07:19Z</time>
      </trkpt>
      <trkpt lat="46.7433" lon="5.5325">
        <ele>245.8</ele>
        <time>2022-03-09T14:07:20Z</time>
      </trkpt>
      <trkpt lat="46.74323" lon="5.53244">
        <ele>245.8</ele>
        <time>2022-03-09T14:07:21Z</time>
      </trkpt>
      <trkpt lat="46.74317" lon="5.53238">
        <ele>245.8</ele>
        <time>2022-03-09T14:07:22Z</time>
      </trkpt>
      <trkpt lat="46.7431" lon="5.53233">
        <ele>245.8</ele>
        <time>2022-03-09T14:07:23Z</time>
      </trkpt>
      <trkpt lat="46.74303" lon="5.53229">
        <ele>245.8</ele>
        <time>2022-03-09T14:07:24Z</time>
      </trkpt>
      <trkpt lat="46.74296" lon="5.53225">
        <ele>245.8</ele>
        <time>2022-03-09T14:07:25Z</time>
      </trkpt>
      <trkpt lat="46.74289" lon="5.53222">
        <ele>245.8</ele>
        <time>2022-03-09T14:07:26Z</time>
      </trkpt>
      <trkpt lat="46.74282" lon="5.53219">
        <ele>245.8</ele>
        <time>2022-03-09T14:07:27Z</time>
      </trkpt>
      <trkpt lat="46.74275" lon="5.53216">
        <ele>246</ele>
        <time>2022-03-09T14:07:28Z</time>
      </trkpt>
      <trkpt lat="46.74268" lon="5.53213">
        <ele>246</ele>
        <time>2022-03-09T14:07:29Z</time>
      </trkpt>
      <trkpt lat="46.74261" lon="5.5321">
        <ele>246.2</ele>
        <time>2022-03-09T14:07:30Z</time>
      </trkpt>
      <trkpt lat="46.74255" lon="5.53207">
        <ele>246.2</ele>
        <time>2022-03-09T14:07:31Z</time>
      </trkpt>
      <trkpt lat="46.74248" lon="5.53203">
        <ele>246.2</ele>
        <time>2022-03-09T14:07:32Z</time>
      </trkpt>
      <trkpt lat="46.74242" lon="5.532">
        <ele>246</ele>
        <time>2022-03-09T14:07:33Z</time>
      </trkpt>
      <trkpt lat="46.74235" lon="5.53197">
        <ele>246</ele>
        <time>2022-03-09T14:07:34Z</time>
      </trkpt>
      <trkpt lat="46.74228" lon="5.53194">
        <ele>245.6</ele>
        <time>2022-03-09T14:07:35Z</time>
      </trkpt>
      <trkpt lat="46.7422" lon="5.5319">
        <ele>245.4</ele>
        <time>2022-03-09T14:07:36Z</time>
      </trkpt>
      <trkpt lat="46.74213" lon="5.53187">
        <ele>245</ele>
        <time>2022-03-09T14:07:37Z</time>
      </trkpt>
      <trkpt lat="46.74205" lon="5.53183">
        <ele>244.8</ele>
        <time>2022-03-09T14:07:38Z</time>
      </trkpt>
      <trkpt lat="46.74197" lon="5.53179">
        <ele>244.8</ele>
        <time>2022-03-09T14:07:39Z</time>
      </trkpt>
      <trkpt lat="46.74189" lon="5.53176">
        <ele>244.6</ele>
        <time>2022-03-09T14:07:40Z</time>
      </trkpt>
      <trkpt lat="46.74181" lon="5.53173">
        <ele>244.6</ele>
        <time>2022-03-09T14:07:41Z</time>
      </trkpt>
      <trkpt lat="46.74173" lon="5.53169">
        <ele>244.6</ele>
        <time>2022-03-09T14:07:42Z</time>
      </trkpt>
      <trkpt lat="46.74166" lon="5.53166">
        <ele>244.6</ele>
        <time>2022-03-09T14:07:43Z</time>
      </trkpt>
      <trkpt lat="46.74158" lon="5.53161">
        <ele>244.6</ele>
        <time>2022-03-09T14:07:44Z</time>
      </trkpt>
      <trkpt lat="46.74151" lon="5.53157">
        <ele>244.6</ele>
        <time>2022-03-09T14:07:45Z</time>
      </trkpt>
      <trkpt lat="46.74143" lon="5.53153">
        <ele>244.6</ele>
        <time>2022-03-09T14:07:46Z</time>
      </trkpt>
      <trkpt lat="46.74135" lon="5.53149">
        <ele>244.4</ele>
        <time>2022-03-09T14:07:47Z</time>
      </trkpt>
      <trkpt lat="46.74128" lon="5.53146">
        <ele>244.4</ele>
        <time>2022-03-09T14:07:48Z</time>
      </trkpt>
      <trkpt lat="46.7412" lon="5.53142">
        <ele>244.4</ele>
        <time>2022-03-09T14:07:49Z</time>
      </trkpt>
      <trkpt lat="46.74113" lon="5.53139">
        <ele>244.2</ele>
        <time>2022-03-09T14:07:50Z</time>
      </trkpt>
      <trkpt lat="46.74105" lon="5.53136">
        <ele>244.2</ele>
        <time>2022-03-09T14:07:51Z</time>
      </trkpt>
      <trkpt lat="46.74098" lon="5.53132">
        <ele>244</ele>
        <time>2022-03-09T14:07:52Z</time>
      </trkpt>
      <trkpt lat="46.74091" lon="5.53129">
        <ele>244</ele>
        <time>2022-03-09T14:07:53Z</time>
      </trkpt>
      <trkpt lat="46.74084" lon="5.53125">
        <ele>243.8</ele>
        <time>2022-03-09T14:07:54Z</time>
      </trkpt>
      <trkpt lat="46.74076" lon="5.53121">
        <ele>243.8</ele>
        <time>2022-03-09T14:07:55Z</time>
      </trkpt>
      <trkpt lat="46.74069" lon="5.53116">
        <ele>243.4</ele>
        <time>2022-03-09T14:07:56Z</time>
      </trkpt>
      <trkpt lat="46.74062" lon="5.53112">
        <ele>243.4</ele>
        <time>2022-03-09T14:07:57Z</time>
      </trkpt>
      <trkpt lat="46.74054" lon="5.53107">
        <ele>243</ele>
        <time>2022-03-09T14:07:58Z</time>
      </trkpt>
      <trkpt lat="46.74046" lon="5.53103">
        <ele>243</ele>
        <time>2022-03-09T14:07:59Z</time>
      </trkpt>
      <trkpt lat="46.74038" lon="5.53098">
        <ele>242.8</ele>
        <time>2022-03-09T14:08:00Z</time>
      </trkpt>
      <trkpt lat="46.74031" lon="5.53093">
        <ele>242.8</ele>
        <time>2022-03-09T14:08:01Z</time>
      </trkpt>
      <trkpt lat="46.74023" lon="5.53089">
        <ele>242.6</ele>
        <time>2022-03-09T14:08:02Z</time>
      </trkpt>
      <trkpt lat="46.74015" lon="5.53084">
        <ele>242.6</ele>
        <time>2022-03-09T14:08:03Z</time>
      </trkpt>
      <trkpt lat="46.74008" lon="5.53079">
        <ele>242.6</ele>
        <time>2022-03-09T14:08:04Z</time>
      </trkpt>
      <trkpt lat="46.74" lon="5.53075">
        <ele>242.2</ele>
        <time>2022-03-09T14:08:05Z</time>
      </trkpt>
      <trkpt lat="46.73993" lon="5.5307">
        <ele>242.2</ele>
        <time>2022-03-09T14:08:06Z</time>
      </trkpt>
      <trkpt lat="46.73985" lon="5.53066">
        <ele>241.8</ele>
        <time>2022-03-09T14:08:07Z</time>
      </trkpt>
      <trkpt lat="46.73977" lon="5.53061">
        <ele>241.8</ele>
        <time>2022-03-09T14:08:08Z</time>
      </trkpt>
      <trkpt lat="46.73969" lon="5.53057">
        <ele>241.4</ele>
        <time>2022-03-09T14:08:09Z</time>
      </trkpt>
      <trkpt lat="46.73961" lon="5.53052">
        <ele>241</ele>
        <time>2022-03-09T14:08:10Z</time>
      </trkpt>
      <trkpt lat="46.73952" lon="5.53048">
        <ele>240.8</ele>
        <time>2022-03-09T14:08:11Z</time>
      </trkpt>
      <trkpt lat="46.73943" lon="5.53044">
        <ele>240.4</ele>
        <time>2022-03-09T14:08:12Z</time>
      </trkpt>
      <trkpt lat="46.73934" lon="5.53042">
        <ele>240</ele>
        <time>2022-03-09T14:08:13Z</time>
      </trkpt>
      <trkpt lat="46.73926" lon="5.53041">
        <ele>239.8</ele>
        <time>2022-03-09T14:08:14Z</time>
      </trkpt>
      <trkpt lat="46.73917" lon="5.53044">
        <ele>239.8</ele>
        <time>2022-03-09T14:08:15Z</time>
      </trkpt>
      <trkpt lat="46.73909" lon="5.53047">
        <ele>239.8</ele>
        <time>2022-03-09T14:08:16Z</time>
      </trkpt>
      <trkpt lat="46.73901" lon="5.53052">
        <ele>239.4</ele>
        <time>2022-03-09T14:08:17Z</time>
      </trkpt>
      <trkpt lat="46.73893" lon="5.53055">
        <ele>239.4</ele>
        <time>2022-03-09T14:08:18Z</time>
      </trkpt>
      <trkpt lat="46.73884" lon="5.53057">
        <ele>239.2</ele>
        <time>2022-03-09T14:08:19Z</time>
      </trkpt>
      <trkpt lat="46.73875" lon="5.53056">
        <ele>239.2</ele>
        <time>2022-03-09T14:08:20Z</time>
      </trkpt>
      <trkpt lat="46.73866" lon="5.53055">
        <ele>239</ele>
        <time>2022-03-09T14:08:21Z</time>
      </trkpt>
      <trkpt lat="46.73857" lon="5.53052">
        <ele>239</ele>
        <time>2022-03-09T14:08:22Z</time>
      </trkpt>
      <trkpt lat="46.73849" lon="5.53049">
        <ele>239</ele>
        <time>2022-03-09T14:08:23Z</time>
      </trkpt>
      <trkpt lat="46.73841" lon="5.53044">
        <ele>238.6</ele>
        <time>2022-03-09T14:08:24Z</time>
      </trkpt>
      <trkpt lat="46.73833" lon="5.53039">
        <ele>238.6</ele>
        <time>2022-03-09T14:08:25Z</time>
      </trkpt>
      <trkpt lat="46.73825" lon="5.53034">
        <ele>238.6</ele>
        <time>2022-03-09T14:08:26Z</time>
      </trkpt>
      <trkpt lat="46.73817" lon="5.53029">
        <ele>238.6</ele>
        <time>2022-03-09T14:08:27Z</time>
      </trkpt>
      <trkpt lat="46.7381" lon="5.53024">
        <ele>238.4</ele>
        <time>2022-03-09T14:08:28Z</time>
      </trkpt>
      <trkpt lat="46.73802" lon="5.53019">
        <ele>238.4</ele>
        <time>2022-03-09T14:08:29Z</time>
      </trkpt>
      <trkpt lat="46.73794" lon="5.53014">
        <ele>238.4</ele>
        <time>2022-03-09T14:08:30Z</time>
      </trkpt>
      <trkpt lat="46.73786" lon="5.53008">
        <ele>238</ele>
        <time>2022-03-09T14:08:31Z</time>
      </trkpt>
      <trkpt lat="46.73779" lon="5.53003">
        <ele>238</ele>
        <time>2022-03-09T14:08:32Z</time>
      </trkpt>
      <trkpt lat="46.73771" lon="5.52997">
        <ele>238</ele>
        <time>2022-03-09T14:08:33Z</time>
      </trkpt>
      <trkpt lat="46.73764" lon="5.52991">
        <ele>238</ele>
        <time>2022-03-09T14:08:34Z</time>
      </trkpt>
      <trkpt lat="46.73756" lon="5.52985">
        <ele>238</ele>
        <time>2022-03-09T14:08:35Z</time>
      </trkpt>
      <trkpt lat="46.73749" lon="5.52979">
        <ele>238</ele>
        <time>2022-03-09T14:08:36Z</time>
      </trkpt>
      <trkpt lat="46.73742" lon="5.52973">
        <ele>238</ele>
        <time>2022-03-09T14:08:37Z</time>
      </trkpt>
      <trkpt lat="46.73736" lon="5.52967">
        <ele>238</ele>
        <time>2022-03-09T14:08:38Z</time>
      </trkpt>
      <trkpt lat="46.73729" lon="5.52961">
        <ele>238</ele>
        <time>2022-03-09T14:08:39Z</time>
      </trkpt>
      <trkpt lat="46.73722" lon="5.52955">
        <ele>238</ele>
        <time>2022-03-09T14:08:40Z</time>
      </trkpt>
      <trkpt lat="46.73716" lon="5.52948">
        <ele>238</ele>
        <time>2022-03-09T14:08:41Z</time>
      </trkpt>
      <trkpt lat="46.7371" lon="5.52942">
        <ele>238</ele>
        <time>2022-03-09T14:08:42Z</time>
      </trkpt>
      <trkpt lat="46.73703" lon="5.52935">
        <ele>238</ele>
        <time>2022-03-09T14:08:43Z</time>
      </trkpt>
      <trkpt lat="46.73697" lon="5.52929">
        <ele>238</ele>
        <time>2022-03-09T14:08:44Z</time>
      </trkpt>
      <trkpt lat="46.73691" lon="5.52923">
        <ele>238</ele>
        <time>2022-03-09T14:08:45Z</time>
      </trkpt>
      <trkpt lat="46.73686" lon="5.52917">
        <ele>238.4</ele>
        <time>2022-03-09T14:08:46Z</time>
      </trkpt>
      <trkpt lat="46.7368" lon="5.5291">
        <ele>238.4</ele>
        <time>2022-03-09T14:08:47Z</time>
      </trkpt>
      <trkpt lat="46.73674" lon="5.52904">
        <ele>238.4</ele>
        <time>2022-03-09T14:08:48Z</time>
      </trkpt>
      <trkpt lat="46.73669" lon="5.52898">
        <ele>238.4</ele>
        <time>2022-03-09T14:08:49Z</time>
      </trkpt>
      <trkpt lat="46.73663" lon="5.52891">
        <ele>238.4</ele>
        <time>2022-03-09T14:08:50Z</time>
      </trkpt>
      <trkpt lat="46.73657" lon="5.52885">
        <ele>238.4</ele>
        <time>2022-03-09T14:08:51Z</time>
      </trkpt>
      <trkpt lat="46.73651" lon="5.52878">
        <ele>238.4</ele>
        <time>2022-03-09T14:08:52Z</time>
      </trkpt>
      <trkpt lat="46.73645" lon="5.52871">
        <ele>238.4</ele>
        <time>2022-03-09T14:08:53Z</time>
      </trkpt>
      <trkpt lat="46.73639" lon="5.52865">
        <ele>238.2</ele>
        <time>2022-03-09T14:08:54Z</time>
      </trkpt>
      <trkpt lat="46.73632" lon="5.52858">
        <ele>238.2</ele>
        <time>2022-03-09T14:08:55Z</time>
      </trkpt>
      <trkpt lat="46.73626" lon="5.52851">
        <ele>238.2</ele>
        <time>2022-03-09T14:08:56Z</time>
      </trkpt>
      <trkpt lat="46.73619" lon="5.52845">
        <ele>238.2</ele>
        <time>2022-03-09T14:08:57Z</time>
      </trkpt>
      <trkpt lat="46.73613" lon="5.52839">
        <ele>238.2</ele>
        <time>2022-03-09T14:08:58Z</time>
      </trkpt>
      <trkpt lat="46.73605" lon="5.52835">
        <ele>238.2</ele>
        <time>2022-03-09T14:08:59Z</time>
      </trkpt>
      <trkpt lat="46.73598" lon="5.52834">
        <ele>237.8</ele>
        <time>2022-03-09T14:09:00Z</time>
      </trkpt>
      <trkpt lat="46.7359" lon="5.52834">
        <ele>237.8</ele>
        <time>2022-03-09T14:09:01Z</time>
      </trkpt>
      <trkpt lat="46.73583" lon="5.52837">
        <ele>237.8</ele>
        <time>2022-03-09T14:09:02Z</time>
      </trkpt>
      <trkpt lat="46.73577" lon="5.5284">
        <ele>237.8</ele>
        <time>2022-03-09T14:09:03Z</time>
      </trkpt>
      <trkpt lat="46.7357" lon="5.52844">
        <ele>237.8</ele>
        <time>2022-03-09T14:09:04Z</time>
      </trkpt>
      <trkpt lat="46.73564" lon="5.5285">
        <ele>237.8</ele>
        <time>2022-03-09T14:09:05Z</time>
      </trkpt>
      <trkpt lat="46.73553" lon="5.52861">
        <ele>237.8</ele>
        <time>2022-03-09T14:09:06Z</time>
      </trkpt>
      <trkpt lat="46.73546" lon="5.52865">
        <ele>237.8</ele>
        <time>2022-03-09T14:09:07Z</time>
      </trkpt>
      <trkpt lat="46.7354" lon="5.52868">
        <ele>237.8</ele>
        <time>2022-03-09T14:09:08Z</time>
      </trkpt>
      <trkpt lat="46.73533" lon="5.52868">
        <ele>238.2</ele>
        <time>2022-03-09T14:09:09Z</time>
      </trkpt>
      <trkpt lat="46.73527" lon="5.52867">
        <ele>238.2</ele>
        <time>2022-03-09T14:09:10Z</time>
      </trkpt>
      <trkpt lat="46.73521" lon="5.52864">
        <ele>238.2</ele>
        <time>2022-03-09T14:09:11Z</time>
      </trkpt>
      <trkpt lat="46.73515" lon="5.5286">
        <ele>238.4</ele>
        <time>2022-03-09T14:09:12Z</time>
      </trkpt>
      <trkpt lat="46.73509" lon="5.52855">
        <ele>238.4</ele>
        <time>2022-03-09T14:09:13Z</time>
      </trkpt>
      <trkpt lat="46.73504" lon="5.5285">
        <ele>238.4</ele>
        <time>2022-03-09T14:09:14Z</time>
      </trkpt>
      <trkpt lat="46.73499" lon="5.52844">
        <ele>238.8</ele>
        <time>2022-03-09T14:09:15Z</time>
      </trkpt>
      <trkpt lat="46.73493" lon="5.52838">
        <ele>238.8</ele>
        <time>2022-03-09T14:09:16Z</time>
      </trkpt>
      <trkpt lat="46.73488" lon="5.52832">
        <ele>238.8</ele>
        <time>2022-03-09T14:09:17Z</time>
      </trkpt>
      <trkpt lat="46.73483" lon="5.52825">
        <ele>238.8</ele>
        <time>2022-03-09T14:09:18Z</time>
      </trkpt>
      <trkpt lat="46.73478" lon="5.52817">
        <ele>238.8</ele>
        <time>2022-03-09T14:09:19Z</time>
      </trkpt>
      <trkpt lat="46.73473" lon="5.5281">
        <ele>238.8</ele>
        <time>2022-03-09T14:09:20Z</time>
      </trkpt>
      <trkpt lat="46.73468" lon="5.52803">
        <ele>238.8</ele>
        <time>2022-03-09T14:09:21Z</time>
      </trkpt>
      <trkpt lat="46.73463" lon="5.52796">
        <ele>238.8</ele>
        <time>2022-03-09T14:09:22Z</time>
      </trkpt>
      <trkpt lat="46.73457" lon="5.5279">
        <ele>238.8</ele>
        <time>2022-03-09T14:09:23Z</time>
      </trkpt>
      <trkpt lat="46.73452" lon="5.52783">
        <ele>238.8</ele>
        <time>2022-03-09T14:09:24Z</time>
      </trkpt>
      <trkpt lat="46.73447" lon="5.52777">
        <ele>238.8</ele>
        <time>2022-03-09T14:09:25Z</time>
      </trkpt>
      <trkpt lat="46.73442" lon="5.52771">
        <ele>239</ele>
        <time>2022-03-09T14:09:26Z</time>
      </trkpt>
      <trkpt lat="46.73437" lon="5.52765">
        <ele>239</ele>
        <time>2022-03-09T14:09:27Z</time>
      </trkpt>
      <trkpt lat="46.73432" lon="5.5276">
        <ele>239.2</ele>
        <time>2022-03-09T14:09:28Z</time>
      </trkpt>
      <trkpt lat="46.73427" lon="5.52755">
        <ele>239.4</ele>
        <time>2022-03-09T14:09:29Z</time>
      </trkpt>
      <trkpt lat="46.73422" lon="5.5275">
        <ele>239.4</ele>
        <time>2022-03-09T14:09:30Z</time>
      </trkpt>
      <trkpt lat="46.73416" lon="5.52746">
        <ele>239.8</ele>
        <time>2022-03-09T14:09:31Z</time>
      </trkpt>
      <trkpt lat="46.7341" lon="5.52742">
        <ele>239.8</ele>
        <time>2022-03-09T14:09:32Z</time>
      </trkpt>
      <trkpt lat="46.73404" lon="5.52738">
        <ele>239.8</ele>
        <time>2022-03-09T14:09:33Z</time>
      </trkpt>
      <trkpt lat="46.73399" lon="5.52734">
        <ele>240</ele>
        <time>2022-03-09T14:09:34Z</time>
      </trkpt>
      <trkpt lat="46.73393" lon="5.5273">
        <ele>240</ele>
        <time>2022-03-09T14:09:35Z</time>
      </trkpt>
      <trkpt lat="46.73387" lon="5.52726">
        <ele>240</ele>
        <time>2022-03-09T14:09:36Z</time>
      </trkpt>
      <trkpt lat="46.73382" lon="5.52722">
        <ele>240</ele>
        <time>2022-03-09T14:09:37Z</time>
      </trkpt>
      <trkpt lat="46.73377" lon="5.52719">
        <ele>240.2</ele>
        <time>2022-03-09T14:09:38Z</time>
      </trkpt>
      <trkpt lat="46.73373" lon="5.52715">
        <ele>240.2</ele>
        <time>2022-03-09T14:09:39Z</time>
      </trkpt>
      <trkpt lat="46.7337" lon="5.5271">
        <ele>240.6</ele>
        <time>2022-03-09T14:09:40Z</time>
      </trkpt>
      <trkpt lat="46.73367" lon="5.52705">
        <ele>240.6</ele>
        <time>2022-03-09T14:09:41Z</time>
      </trkpt>
      <trkpt lat="46.73367" lon="5.52699">
        <ele>240.8</ele>
        <time>2022-03-09T14:09:42Z</time>
      </trkpt>
      <trkpt lat="46.73367" lon="5.52693">
        <ele>240.8</ele>
        <time>2022-03-09T14:09:43Z</time>
      </trkpt>
      <trkpt lat="46.73369" lon="5.52686">
        <ele>240.8</ele>
        <time>2022-03-09T14:09:44Z</time>
      </trkpt>
      <trkpt lat="46.73371" lon="5.5268">
        <ele>240.8</ele>
        <time>2022-03-09T14:09:45Z</time>
      </trkpt>
      <trkpt lat="46.73375" lon="5.52673">
        <ele>240.4</ele>
        <time>2022-03-09T14:09:46Z</time>
      </trkpt>
      <trkpt lat="46.73378" lon="5.52665">
        <ele>240.4</ele>
        <time>2022-03-09T14:09:47Z</time>
      </trkpt>
      <trkpt lat="46.73382" lon="5.52657">
        <ele>240</ele>
        <time>2022-03-09T14:09:48Z</time>
      </trkpt>
      <trkpt lat="46.73387" lon="5.52649">
        <ele>239.6</ele>
        <time>2022-03-09T14:09:49Z</time>
      </trkpt>
      <trkpt lat="46.73392" lon="5.52641">
        <ele>239.4</ele>
        <time>2022-03-09T14:09:50Z</time>
      </trkpt>
      <trkpt lat="46.73397" lon="5.52631">
        <ele>239</ele>
        <time>2022-03-09T14:09:51Z</time>
      </trkpt>
      <trkpt lat="46.73401" lon="5.52622">
        <ele>238.6</ele>
        <time>2022-03-09T14:09:52Z</time>
      </trkpt>
      <trkpt lat="46.73406" lon="5.52612">
        <ele>238</ele>
        <time>2022-03-09T14:09:53Z</time>
      </trkpt>
      <trkpt lat="46.73411" lon="5.52601">
        <ele>237.6</ele>
        <time>2022-03-09T14:09:54Z</time>
      </trkpt>
      <trkpt lat="46.73416" lon="5.5259">
        <ele>237</ele>
        <time>2022-03-09T14:09:55Z</time>
      </trkpt>
      <trkpt lat="46.73421" lon="5.5258">
        <ele>236.6</ele>
        <time>2022-03-09T14:09:56Z</time>
      </trkpt>
      <trkpt lat="46.73425" lon="5.5257">
        <ele>236</ele>
        <time>2022-03-09T14:09:57Z</time>
      </trkpt>
      <trkpt lat="46.73429" lon="5.52561">
        <ele>235.4</ele>
        <time>2022-03-09T14:09:58Z</time>
      </trkpt>
      <trkpt lat="46.73433" lon="5.52554">
        <ele>235</ele>
        <time>2022-03-09T14:09:59Z</time>
      </trkpt>
      <trkpt lat="46.73436" lon="5.52547">
        <ele>234.6</ele>
        <time>2022-03-09T14:10:00Z</time>
      </trkpt>
      <trkpt lat="46.73438" lon="5.5254">
        <ele>234.2</ele>
        <time>2022-03-09T14:10:01Z</time>
      </trkpt>
      <trkpt lat="46.73437" lon="5.52533">
        <ele>233.8</ele>
        <time>2022-03-09T14:10:02Z</time>
      </trkpt>
      <trkpt lat="46.73435" lon="5.52527">
        <ele>233.6</ele>
        <time>2022-03-09T14:10:03Z</time>
      </trkpt>
      <trkpt lat="46.73431" lon="5.52523">
        <ele>233.6</ele>
        <time>2022-03-09T14:10:04Z</time>
      </trkpt>
      <trkpt lat="46.73427" lon="5.52519">
        <ele>233.4</ele>
        <time>2022-03-09T14:10:05Z</time>
      </trkpt>
      <trkpt lat="46.73423" lon="5.52515">
        <ele>233.4</ele>
        <time>2022-03-09T14:10:06Z</time>
      </trkpt>
      <trkpt lat="46.73418" lon="5.52511">
        <ele>233.4</ele>
        <time>2022-03-09T14:10:07Z</time>
      </trkpt>
      <trkpt lat="46.73413" lon="5.52506">
        <ele>233.4</ele>
        <time>2022-03-09T14:10:08Z</time>
      </trkpt>
      <trkpt lat="46.73409" lon="5.52501">
        <ele>233.4</ele>
        <time>2022-03-09T14:10:09Z</time>
      </trkpt>
      <trkpt lat="46.73404" lon="5.52495">
        <ele>233.4</ele>
        <time>2022-03-09T14:10:10Z</time>
      </trkpt>
      <trkpt lat="46.734" lon="5.5249">
        <ele>233.4</ele>
        <time>2022-03-09T14:10:11Z</time>
      </trkpt>
      <trkpt lat="46.73395" lon="5.52484">
        <ele>233.6</ele>
        <time>2022-03-09T14:10:12Z</time>
      </trkpt>
      <trkpt lat="46.73391" lon="5.52478">
        <ele>233.8</ele>
        <time>2022-03-09T14:10:13Z</time>
      </trkpt>
      <trkpt lat="46.73387" lon="5.52472">
        <ele>233.8</ele>
        <time>2022-03-09T14:10:14Z</time>
      </trkpt>
      <trkpt lat="46.73382" lon="5.52466">
        <ele>234.2</ele>
        <time>2022-03-09T14:10:15Z</time>
      </trkpt>
      <trkpt lat="46.73378" lon="5.5246">
        <ele>234.2</ele>
        <time>2022-03-09T14:10:16Z</time>
      </trkpt>
      <trkpt lat="46.73374" lon="5.52455">
        <ele>234.4</ele>
        <time>2022-03-09T14:10:17Z</time>
      </trkpt>
      <trkpt lat="46.7337" lon="5.5245">
        <ele>234.4</ele>
        <time>2022-03-09T14:10:18Z</time>
      </trkpt>
      <trkpt lat="46.73366" lon="5.52445">
        <ele>234.6</ele>
        <time>2022-03-09T14:10:19Z</time>
      </trkpt>
      <trkpt lat="46.73363" lon="5.5244">
        <ele>234.6</ele>
        <time>2022-03-09T14:10:20Z</time>
      </trkpt>
      <trkpt lat="46.73359" lon="5.52435">
        <ele>234.8</ele>
        <time>2022-03-09T14:10:21Z</time>
      </trkpt>
      <trkpt lat="46.73354" lon="5.5243">
        <ele>234.8</ele>
        <time>2022-03-09T14:10:22Z</time>
      </trkpt>
      <trkpt lat="46.7335" lon="5.52425">
        <ele>235</ele>
        <time>2022-03-09T14:10:23Z</time>
      </trkpt>
      <trkpt lat="46.73346" lon="5.5242">
        <ele>235</ele>
        <time>2022-03-09T14:10:24Z</time>
      </trkpt>
      <trkpt lat="46.73343" lon="5.52415">
        <ele>235.4</ele>
        <time>2022-03-09T14:10:25Z</time>
      </trkpt>
      <trkpt lat="46.73339" lon="5.52409">
        <ele>235.4</ele>
        <time>2022-03-09T14:10:26Z</time>
      </trkpt>
      <trkpt lat="46.73335" lon="5.52404">
        <ele>235.6</ele>
        <time>2022-03-09T14:10:27Z</time>
      </trkpt>
      <trkpt lat="46.7333" lon="5.524">
        <ele>235.6</ele>
        <time>2022-03-09T14:10:28Z</time>
      </trkpt>
      <trkpt lat="46.73326" lon="5.52395">
        <ele>235.6</ele>
        <time>2022-03-09T14:10:29Z</time>
      </trkpt>
      <trkpt lat="46.73321" lon="5.52391">
        <ele>235.8</ele>
        <time>2022-03-09T14:10:30Z</time>
      </trkpt>
      <trkpt lat="46.73317" lon="5.52387">
        <ele>235.8</ele>
        <time>2022-03-09T14:10:31Z</time>
      </trkpt>
      <trkpt lat="46.73312" lon="5.52384">
        <ele>236.2</ele>
        <time>2022-03-09T14:10:32Z</time>
      </trkpt>
      <trkpt lat="46.73307" lon="5.52381">
        <ele>236.2</ele>
        <time>2022-03-09T14:10:33Z</time>
      </trkpt>
      <trkpt lat="46.73302" lon="5.52378">
        <ele>236.6</ele>
        <time>2022-03-09T14:10:34Z</time>
      </trkpt>
      <trkpt lat="46.73297" lon="5.52376">
        <ele>236.6</ele>
        <time>2022-03-09T14:10:35Z</time>
      </trkpt>
      <trkpt lat="46.73291" lon="5.52374">
        <ele>236.8</ele>
        <time>2022-03-09T14:10:36Z</time>
      </trkpt>
      <trkpt lat="46.73286" lon="5.52372">
        <ele>236.8</ele>
        <time>2022-03-09T14:10:37Z</time>
      </trkpt>
      <trkpt lat="46.73281" lon="5.5237">
        <ele>237</ele>
        <time>2022-03-09T14:10:38Z</time>
      </trkpt>
      <trkpt lat="46.73275" lon="5.52369">
        <ele>237.2</ele>
        <time>2022-03-09T14:10:39Z</time>
      </trkpt>
      <trkpt lat="46.7327" lon="5.52368">
        <ele>237.2</ele>
        <time>2022-03-09T14:10:40Z</time>
      </trkpt>
      <trkpt lat="46.73265" lon="5.52366">
        <ele>237.4</ele>
        <time>2022-03-09T14:10:41Z</time>
      </trkpt>
      <trkpt lat="46.73259" lon="5.52365">
        <ele>237.4</ele>
        <time>2022-03-09T14:10:42Z</time>
      </trkpt>
      <trkpt lat="46.73254" lon="5.52363">
        <ele>237.8</ele>
        <time>2022-03-09T14:10:43Z</time>
      </trkpt>
      <trkpt lat="46.73254" lon="5.52363">
        <ele>237.8</ele>
        <time>2022-03-09T14:10:44Z</time>
      </trkpt>
      <trkpt lat="46.73249" lon="5.52361">
        <ele>238</ele>
        <time>2022-03-09T14:10:45Z</time>
      </trkpt>
      <trkpt lat="46.73244" lon="5.52358">
        <ele>238</ele>
        <time>2022-03-09T14:10:46Z</time>
      </trkpt>
      <trkpt lat="46.73239" lon="5.52355">
        <ele>238</ele>
        <time>2022-03-09T14:10:47Z</time>
      </trkpt>
      <trkpt lat="46.73234" lon="5.52352">
        <ele>238.2</ele>
        <time>2022-03-09T14:10:48Z</time>
      </trkpt>
      <trkpt lat="46.73229" lon="5.52349">
        <ele>238.2</ele>
        <time>2022-03-09T14:10:49Z</time>
      </trkpt>
      <trkpt lat="46.73224" lon="5.52346">
        <ele>238.6</ele>
        <time>2022-03-09T14:10:50Z</time>
      </trkpt>
      <trkpt lat="46.73219" lon="5.52343">
        <ele>238.6</ele>
        <time>2022-03-09T14:10:51Z</time>
      </trkpt>
      <trkpt lat="46.73214" lon="5.52339">
        <ele>238.6</ele>
        <time>2022-03-09T14:10:52Z</time>
      </trkpt>
      <trkpt lat="46.73209" lon="5.52336">
        <ele>238.8</ele>
        <time>2022-03-09T14:10:53Z</time>
      </trkpt>
      <trkpt lat="46.73204" lon="5.52333">
        <ele>238.8</ele>
        <time>2022-03-09T14:10:54Z</time>
      </trkpt>
      <trkpt lat="46.73199" lon="5.5233">
        <ele>239.2</ele>
        <time>2022-03-09T14:10:55Z</time>
      </trkpt>
      <trkpt lat="46.73195" lon="5.52328">
        <ele>239.2</ele>
        <time>2022-03-09T14:10:56Z</time>
      </trkpt>
      <trkpt lat="46.7319" lon="5.52325">
        <ele>239.4</ele>
        <time>2022-03-09T14:10:57Z</time>
      </trkpt>
      <trkpt lat="46.73186" lon="5.52323">
        <ele>239.4</ele>
        <time>2022-03-09T14:10:58Z</time>
      </trkpt>
      <trkpt lat="46.73181" lon="5.52321">
        <ele>239.6</ele>
        <time>2022-03-09T14:10:59Z</time>
      </trkpt>
      <trkpt lat="46.73176" lon="5.52318">
        <ele>239.6</ele>
        <time>2022-03-09T14:11:00Z</time>
      </trkpt>
      <trkpt lat="46.73171" lon="5.52316">
        <ele>240</ele>
        <time>2022-03-09T14:11:01Z</time>
      </trkpt>
      <trkpt lat="46.73167" lon="5.52315">
        <ele>240</ele>
        <time>2022-03-09T14:11:02Z</time>
      </trkpt>
      <trkpt lat="46.73161" lon="5.52314">
        <ele>240.2</ele>
        <time>2022-03-09T14:11:03Z</time>
      </trkpt>
      <trkpt lat="46.73156" lon="5.52314">
        <ele>240.4</ele>
        <time>2022-03-09T14:11:04Z</time>
      </trkpt>
      <trkpt lat="46.73151" lon="5.52314">
        <ele>240.4</ele>
        <time>2022-03-09T14:11:05Z</time>
      </trkpt>
      <trkpt lat="46.73145" lon="5.52315">
        <ele>240.8</ele>
        <time>2022-03-09T14:11:06Z</time>
      </trkpt>
      <trkpt lat="46.7314" lon="5.52315">
        <ele>240.8</ele>
        <time>2022-03-09T14:11:07Z</time>
      </trkpt>
      <trkpt lat="46.73134" lon="5.52316">
        <ele>241.2</ele>
        <time>2022-03-09T14:11:08Z</time>
      </trkpt>
      <trkpt lat="46.73129" lon="5.52316">
        <ele>241.4</ele>
        <time>2022-03-09T14:11:09Z</time>
      </trkpt>
      <trkpt lat="46.73124" lon="5.52318">
        <ele>241.6</ele>
        <time>2022-03-09T14:11:10Z</time>
      </trkpt>
      <trkpt lat="46.73119" lon="5.5232">
        <ele>241.6</ele>
        <time>2022-03-09T14:11:11Z</time>
      </trkpt>
      <trkpt lat="46.73114" lon="5.52322">
        <ele>242</ele>
        <time>2022-03-09T14:11:12Z</time>
      </trkpt>
      <trkpt lat="46.73109" lon="5.52323">
        <ele>242.2</ele>
        <time>2022-03-09T14:11:13Z</time>
      </trkpt>
      <trkpt lat="46.73104" lon="5.52325">
        <ele>242.2</ele>
        <time>2022-03-09T14:11:14Z</time>
      </trkpt>
      <trkpt lat="46.73098" lon="5.52327">
        <ele>242.6</ele>
        <time>2022-03-09T14:11:15Z</time>
      </trkpt>
      <trkpt lat="46.73093" lon="5.52328">
        <ele>242.8</ele>
        <time>2022-03-09T14:11:16Z</time>
      </trkpt>
      <trkpt lat="46.73088" lon="5.5233">
        <ele>243.2</ele>
        <time>2022-03-09T14:11:17Z</time>
      </trkpt>
      <trkpt lat="46.73083" lon="5.52331">
        <ele>243.2</ele>
        <time>2022-03-09T14:11:18Z</time>
      </trkpt>
      <trkpt lat="46.73079" lon="5.52333">
        <ele>243.4</ele>
        <time>2022-03-09T14:11:19Z</time>
      </trkpt>
      <trkpt lat="46.73074" lon="5.52334">
        <ele>243.6</ele>
        <time>2022-03-09T14:11:20Z</time>
      </trkpt>
      <trkpt lat="46.73069" lon="5.52336">
        <ele>243.6</ele>
        <time>2022-03-09T14:11:21Z</time>
      </trkpt>
      <trkpt lat="46.73064" lon="5.52337">
        <ele>243.8</ele>
        <time>2022-03-09T14:11:22Z</time>
      </trkpt>
      <trkpt lat="46.73059" lon="5.52339">
        <ele>243.8</ele>
        <time>2022-03-09T14:11:23Z</time>
      </trkpt>
      <trkpt lat="46.73055" lon="5.5234">
        <ele>244.2</ele>
        <time>2022-03-09T14:11:24Z</time>
      </trkpt>
      <trkpt lat="46.73051" lon="5.52342">
        <ele>244.2</ele>
        <time>2022-03-09T14:11:25Z</time>
      </trkpt>
      <trkpt lat="46.73046" lon="5.52344">
        <ele>244.2</ele>
        <time>2022-03-09T14:11:26Z</time>
      </trkpt>
      <trkpt lat="46.73042" lon="5.52345">
        <ele>244.8</ele>
        <time>2022-03-09T14:11:27Z</time>
      </trkpt>
      <trkpt lat="46.73037" lon="5.52346">
        <ele>245</ele>
        <time>2022-03-09T14:11:28Z</time>
      </trkpt>
      <trkpt lat="46.73033" lon="5.52348">
        <ele>245</ele>
        <time>2022-03-09T14:11:29Z</time>
      </trkpt>
      <trkpt lat="46.73029" lon="5.52349">
        <ele>245.2</ele>
        <time>2022-03-09T14:11:30Z</time>
      </trkpt>
      <trkpt lat="46.73024" lon="5.52351">
        <ele>245.6</ele>
        <time>2022-03-09T14:11:31Z</time>
      </trkpt>
      <trkpt lat="46.7302" lon="5.52352">
        <ele>245.6</ele>
        <time>2022-03-09T14:11:32Z</time>
      </trkpt>
      <trkpt lat="46.73015" lon="5.52354">
        <ele>245.6</ele>
        <time>2022-03-09T14:11:33Z</time>
      </trkpt>
      <trkpt lat="46.73011" lon="5.52355">
        <ele>245.8</ele>
        <time>2022-03-09T14:11:34Z</time>
      </trkpt>
      <trkpt lat="46.73006" lon="5.52356">
        <ele>245.8</ele>
        <time>2022-03-09T14:11:35Z</time>
      </trkpt>
      <trkpt lat="46.73001" lon="5.52358">
        <ele>246</ele>
        <time>2022-03-09T14:11:36Z</time>
      </trkpt>
      <trkpt lat="46.72997" lon="5.52359">
        <ele>246</ele>
        <time>2022-03-09T14:11:37Z</time>
      </trkpt>
      <trkpt lat="46.72993" lon="5.52361">
        <ele>246.4</ele>
        <time>2022-03-09T14:11:38Z</time>
      </trkpt>
      <trkpt lat="46.72988" lon="5.52363">
        <ele>246.4</ele>
        <time>2022-03-09T14:11:39Z</time>
      </trkpt>
      <trkpt lat="46.72984" lon="5.52364">
        <ele>246.6</ele>
        <time>2022-03-09T14:11:40Z</time>
      </trkpt>
      <trkpt lat="46.72979" lon="5.52365">
        <ele>246.6</ele>
        <time>2022-03-09T14:11:41Z</time>
      </trkpt>
      <trkpt lat="46.72975" lon="5.52366">
        <ele>247</ele>
        <time>2022-03-09T14:11:42Z</time>
      </trkpt>
      <trkpt lat="46.7297" lon="5.52368">
        <ele>247</ele>
        <time>2022-03-09T14:11:43Z</time>
      </trkpt>
      <trkpt lat="46.72966" lon="5.52369">
        <ele>247.2</ele>
        <time>2022-03-09T14:11:44Z</time>
      </trkpt>
      <trkpt lat="46.72962" lon="5.52371">
        <ele>247.4</ele>
        <time>2022-03-09T14:11:45Z</time>
      </trkpt>
      <trkpt lat="46.72957" lon="5.52372">
        <ele>247.4</ele>
        <time>2022-03-09T14:11:46Z</time>
      </trkpt>
      <trkpt lat="46.72953" lon="5.52373">
        <ele>247.8</ele>
        <time>2022-03-09T14:11:47Z</time>
      </trkpt>
      <trkpt lat="46.72948" lon="5.52374">
        <ele>247.8</ele>
        <time>2022-03-09T14:11:48Z</time>
      </trkpt>
      <trkpt lat="46.72944" lon="5.52376">
        <ele>248</ele>
        <time>2022-03-09T14:11:49Z</time>
      </trkpt>
      <trkpt lat="46.7294" lon="5.52377">
        <ele>248</ele>
        <time>2022-03-09T14:11:50Z</time>
      </trkpt>
      <trkpt lat="46.72936" lon="5.52379">
        <ele>248.2</ele>
        <time>2022-03-09T14:11:51Z</time>
      </trkpt>
      <trkpt lat="46.72932" lon="5.5238">
        <ele>248.4</ele>
        <time>2022-03-09T14:11:52Z</time>
      </trkpt>
      <trkpt lat="46.72928" lon="5.52382">
        <ele>248.4</ele>
        <time>2022-03-09T14:11:53Z</time>
      </trkpt>
      <trkpt lat="46.72924" lon="5.52383">
        <ele>248.8</ele>
        <time>2022-03-09T14:11:54Z</time>
      </trkpt>
      <trkpt lat="46.7292" lon="5.52384">
        <ele>248.8</ele>
        <time>2022-03-09T14:11:55Z</time>
      </trkpt>
      <trkpt lat="46.72915" lon="5.52386">
        <ele>248.8</ele>
        <time>2022-03-09T14:11:56Z</time>
      </trkpt>
      <trkpt lat="46.72911" lon="5.52387">
        <ele>249</ele>
        <time>2022-03-09T14:11:57Z</time>
      </trkpt>
      <trkpt lat="46.72907" lon="5.52388">
        <ele>249</ele>
        <time>2022-03-09T14:11:58Z</time>
      </trkpt>
      <trkpt lat="46.72903" lon="5.52389">
        <ele>249.4</ele>
        <time>2022-03-09T14:11:59Z</time>
      </trkpt>
      <trkpt lat="46.72899" lon="5.52391">
        <ele>249.4</ele>
        <time>2022-03-09T14:12:00Z</time>
      </trkpt>
      <trkpt lat="46.72895" lon="5.52392">
        <ele>249.6</ele>
        <time>2022-03-09T14:12:01Z</time>
      </trkpt>
      <trkpt lat="46.72891" lon="5.52394">
        <ele>249.6</ele>
        <time>2022-03-09T14:12:02Z</time>
      </trkpt>
      <trkpt lat="46.72886" lon="5.52395">
        <ele>249.8</ele>
        <time>2022-03-09T14:12:03Z</time>
      </trkpt>
      <trkpt lat="46.72882" lon="5.52397">
        <ele>249.8</ele>
        <time>2022-03-09T14:12:04Z</time>
      </trkpt>
      <trkpt lat="46.72878" lon="5.52398">
        <ele>250</ele>
        <time>2022-03-09T14:12:05Z</time>
      </trkpt>
      <trkpt lat="46.72874" lon="5.524">
        <ele>250</ele>
        <time>2022-03-09T14:12:06Z</time>
      </trkpt>
      <trkpt lat="46.72869" lon="5.52401">
        <ele>250.4</ele>
        <time>2022-03-09T14:12:07Z</time>
      </trkpt>
      <trkpt lat="46.72865" lon="5.52403">
        <ele>250.4</ele>
        <time>2022-03-09T14:12:08Z</time>
      </trkpt>
      <trkpt lat="46.72861" lon="5.52404">
        <ele>250.4</ele>
        <time>2022-03-09T14:12:09Z</time>
      </trkpt>
      <trkpt lat="46.72856" lon="5.52405">
        <ele>250.6</ele>
        <time>2022-03-09T14:12:10Z</time>
      </trkpt>
      <trkpt lat="46.72852" lon="5.52407">
        <ele>250.6</ele>
        <time>2022-03-09T14:12:11Z</time>
      </trkpt>
      <trkpt lat="46.72848" lon="5.52409">
        <ele>251</ele>
        <time>2022-03-09T14:12:12Z</time>
      </trkpt>
      <trkpt lat="46.72843" lon="5.5241">
        <ele>251.2</ele>
        <time>2022-03-09T14:12:13Z</time>
      </trkpt>
      <trkpt lat="46.72839" lon="5.52411">
        <ele>251.2</ele>
        <time>2022-03-09T14:12:14Z</time>
      </trkpt>
      <trkpt lat="46.72835" lon="5.52413">
        <ele>251.4</ele>
        <time>2022-03-09T14:12:15Z</time>
      </trkpt>
      <trkpt lat="46.72831" lon="5.52414">
        <ele>251.6</ele>
        <time>2022-03-09T14:12:16Z</time>
      </trkpt>
      <trkpt lat="46.72826" lon="5.52416">
        <ele>251.6</ele>
        <time>2022-03-09T14:12:17Z</time>
      </trkpt>
      <trkpt lat="46.72822" lon="5.52417">
        <ele>252</ele>
        <time>2022-03-09T14:12:18Z</time>
      </trkpt>
      <trkpt lat="46.72818" lon="5.52419">
        <ele>252.2</ele>
        <time>2022-03-09T14:12:19Z</time>
      </trkpt>
      <trkpt lat="46.72814" lon="5.5242">
        <ele>252.2</ele>
        <time>2022-03-09T14:12:20Z</time>
      </trkpt>
      <trkpt lat="46.7281" lon="5.52422">
        <ele>252.6</ele>
        <time>2022-03-09T14:12:21Z</time>
      </trkpt>
      <trkpt lat="46.72806" lon="5.52423">
        <ele>252.6</ele>
        <time>2022-03-09T14:12:22Z</time>
      </trkpt>
      <trkpt lat="46.72801" lon="5.52424">
        <ele>253</ele>
        <time>2022-03-09T14:12:23Z</time>
      </trkpt>
      <trkpt lat="46.72797" lon="5.52425">
        <ele>253</ele>
        <time>2022-03-09T14:12:24Z</time>
      </trkpt>
      <trkpt lat="46.72793" lon="5.52426">
        <ele>253.2</ele>
        <time>2022-03-09T14:12:25Z</time>
      </trkpt>
      <trkpt lat="46.72788" lon="5.52428">
        <ele>253.2</ele>
        <time>2022-03-09T14:12:26Z</time>
      </trkpt>
      <trkpt lat="46.72784" lon="5.52429">
        <ele>253.4</ele>
        <time>2022-03-09T14:12:27Z</time>
      </trkpt>
      <trkpt lat="46.72779" lon="5.5243">
        <ele>253.4</ele>
        <time>2022-03-09T14:12:28Z</time>
      </trkpt>
      <trkpt lat="46.72775" lon="5.52432">
        <ele>253.8</ele>
        <time>2022-03-09T14:12:29Z</time>
      </trkpt>
      <trkpt lat="46.7277" lon="5.52433">
        <ele>253.8</ele>
        <time>2022-03-09T14:12:30Z</time>
      </trkpt>
      <trkpt lat="46.72766" lon="5.52433">
        <ele>253.8</ele>
        <time>2022-03-09T14:12:31Z</time>
      </trkpt>
      <trkpt lat="46.72761" lon="5.52434">
        <ele>254.2</ele>
        <time>2022-03-09T14:12:32Z</time>
      </trkpt>
      <trkpt lat="46.72756" lon="5.52434">
        <ele>254.2</ele>
        <time>2022-03-09T14:12:33Z</time>
      </trkpt>
      <trkpt lat="46.72751" lon="5.52434">
        <ele>254.2</ele>
        <time>2022-03-09T14:12:34Z</time>
      </trkpt>
      <trkpt lat="46.72746" lon="5.52435">
        <ele>254.4</ele>
        <time>2022-03-09T14:12:35Z</time>
      </trkpt>
      <trkpt lat="46.72741" lon="5.52435">
        <ele>254.4</ele>
        <time>2022-03-09T14:12:36Z</time>
      </trkpt>
      <trkpt lat="46.72736" lon="5.52434">
        <ele>254.8</ele>
        <time>2022-03-09T14:12:37Z</time>
      </trkpt>
      <trkpt lat="46.72731" lon="5.52433">
        <ele>254.8</ele>
        <time>2022-03-09T14:12:38Z</time>
      </trkpt>
      <trkpt lat="46.72726" lon="5.52431">
        <ele>255</ele>
        <time>2022-03-09T14:12:39Z</time>
      </trkpt>
      <trkpt lat="46.72721" lon="5.5243">
        <ele>255.2</ele>
        <time>2022-03-09T14:12:40Z</time>
      </trkpt>
      <trkpt lat="46.72716" lon="5.52428">
        <ele>255.4</ele>
        <time>2022-03-09T14:12:41Z</time>
      </trkpt>
      <trkpt lat="46.72711" lon="5.52427">
        <ele>255.4</ele>
        <time>2022-03-09T14:12:42Z</time>
      </trkpt>
      <trkpt lat="46.72707" lon="5.52425">
        <ele>255.8</ele>
        <time>2022-03-09T14:12:43Z</time>
      </trkpt>
      <trkpt lat="46.72702" lon="5.52423">
        <ele>255.8</ele>
        <time>2022-03-09T14:12:44Z</time>
      </trkpt>
      <trkpt lat="46.72698" lon="5.5242">
        <ele>256</ele>
        <time>2022-03-09T14:12:45Z</time>
      </trkpt>
      <trkpt lat="46.72694" lon="5.52418">
        <ele>256.4</ele>
        <time>2022-03-09T14:12:46Z</time>
      </trkpt>
      <trkpt lat="46.7269" lon="5.52415">
        <ele>256.6</ele>
        <time>2022-03-09T14:12:47Z</time>
      </trkpt>
      <trkpt lat="46.72686" lon="5.52412">
        <ele>256.8</ele>
        <time>2022-03-09T14:12:48Z</time>
      </trkpt>
      <trkpt lat="46.72682" lon="5.52409">
        <ele>256.8</ele>
        <time>2022-03-09T14:12:49Z</time>
      </trkpt>
      <trkpt lat="46.72678" lon="5.52405">
        <ele>257.2</ele>
        <time>2022-03-09T14:12:50Z</time>
      </trkpt>
      <trkpt lat="46.72674" lon="5.52402">
        <ele>257.6</ele>
        <time>2022-03-09T14:12:51Z</time>
      </trkpt>
      <trkpt lat="46.7267" lon="5.52398">
        <ele>257.8</ele>
        <time>2022-03-09T14:12:52Z</time>
      </trkpt>
      <trkpt lat="46.72666" lon="5.52394">
        <ele>258</ele>
        <time>2022-03-09T14:12:53Z</time>
      </trkpt>
      <trkpt lat="46.72663" lon="5.52391">
        <ele>258</ele>
        <time>2022-03-09T14:12:54Z</time>
      </trkpt>
      <trkpt lat="46.72659" lon="5.52388">
        <ele>258.4</ele>
        <time>2022-03-09T14:12:55Z</time>
      </trkpt>
      <trkpt lat="46.72654" lon="5.52385">
        <ele>258.4</ele>
        <time>2022-03-09T14:12:56Z</time>
      </trkpt>
      <trkpt lat="46.7265" lon="5.52382">
        <ele>258.8</ele>
        <time>2022-03-09T14:12:57Z</time>
      </trkpt>
      <trkpt lat="46.72646" lon="5.52378">
        <ele>259</ele>
        <time>2022-03-09T14:12:58Z</time>
      </trkpt>
      <trkpt lat="46.72642" lon="5.52374">
        <ele>259.2</ele>
        <time>2022-03-09T14:12:59Z</time>
      </trkpt>
      <trkpt lat="46.72638" lon="5.52371">
        <ele>259.2</ele>
        <time>2022-03-09T14:13:00Z</time>
      </trkpt>
      <trkpt lat="46.72633" lon="5.52369">
        <ele>259.6</ele>
        <time>2022-03-09T14:13:01Z</time>
      </trkpt>
      <trkpt lat="46.72629" lon="5.52367">
        <ele>259.6</ele>
        <time>2022-03-09T14:13:02Z</time>
      </trkpt>
      <trkpt lat="46.72624" lon="5.52365">
        <ele>259.8</ele>
        <time>2022-03-09T14:13:03Z</time>
      </trkpt>
      <trkpt lat="46.72619" lon="5.52362">
        <ele>259.8</ele>
        <time>2022-03-09T14:13:04Z</time>
      </trkpt>
      <trkpt lat="46.72615" lon="5.52361">
        <ele>260.2</ele>
        <time>2022-03-09T14:13:05Z</time>
      </trkpt>
      <trkpt lat="46.7261" lon="5.5236">
        <ele>260.4</ele>
        <time>2022-03-09T14:13:06Z</time>
      </trkpt>
      <trkpt lat="46.72604" lon="5.52358">
        <ele>260.4</ele>
        <time>2022-03-09T14:13:07Z</time>
      </trkpt>
      <trkpt lat="46.72599" lon="5.52358">
        <ele>260.6</ele>
        <time>2022-03-09T14:13:08Z</time>
      </trkpt>
      <trkpt lat="46.72594" lon="5.52357">
        <ele>260.6</ele>
        <time>2022-03-09T14:13:09Z</time>
      </trkpt>
      <trkpt lat="46.72589" lon="5.52356">
        <ele>261</ele>
        <time>2022-03-09T14:13:10Z</time>
      </trkpt>
      <trkpt lat="46.72584" lon="5.52356">
        <ele>261.2</ele>
        <time>2022-03-09T14:13:11Z</time>
      </trkpt>
      <trkpt lat="46.72579" lon="5.52356">
        <ele>261.2</ele>
        <time>2022-03-09T14:13:12Z</time>
      </trkpt>
      <trkpt lat="46.72573" lon="5.52357">
        <ele>261.2</ele>
        <time>2022-03-09T14:13:13Z</time>
      </trkpt>
      <trkpt lat="46.72568" lon="5.52357">
        <ele>261.2</ele>
        <time>2022-03-09T14:13:14Z</time>
      </trkpt>
      <trkpt lat="46.72563" lon="5.52358">
        <ele>261.2</ele>
        <time>2022-03-09T14:13:15Z</time>
      </trkpt>
      <trkpt lat="46.72557" lon="5.52358">
        <ele>261.4</ele>
        <time>2022-03-09T14:13:16Z</time>
      </trkpt>
      <trkpt lat="46.72552" lon="5.52358">
        <ele>261.4</ele>
        <time>2022-03-09T14:13:17Z</time>
      </trkpt>
      <trkpt lat="46.72546" lon="5.52359">
        <ele>261.4</ele>
        <time>2022-03-09T14:13:18Z</time>
      </trkpt>
      <trkpt lat="46.72541" lon="5.52359">
        <ele>261.8</ele>
        <time>2022-03-09T14:13:19Z</time>
      </trkpt>
      <trkpt lat="46.72536" lon="5.5236">
        <ele>261.8</ele>
        <time>2022-03-09T14:13:20Z</time>
      </trkpt>
      <trkpt lat="46.7253" lon="5.5236">
        <ele>262</ele>
        <time>2022-03-09T14:13:21Z</time>
      </trkpt>
      <trkpt lat="46.72525" lon="5.52361">
        <ele>262</ele>
        <time>2022-03-09T14:13:22Z</time>
      </trkpt>
      <trkpt lat="46.7252" lon="5.52361">
        <ele>262.2</ele>
        <time>2022-03-09T14:13:23Z</time>
      </trkpt>
      <trkpt lat="46.72514" lon="5.52362">
        <ele>262.2</ele>
        <time>2022-03-09T14:13:24Z</time>
      </trkpt>
      <trkpt lat="46.72509" lon="5.52362">
        <ele>262.4</ele>
        <time>2022-03-09T14:13:25Z</time>
      </trkpt>
      <trkpt lat="46.72503" lon="5.52363">
        <ele>262.4</ele>
        <time>2022-03-09T14:13:26Z</time>
      </trkpt>
      <trkpt lat="46.72498" lon="5.52363">
        <ele>262.8</ele>
        <time>2022-03-09T14:13:27Z</time>
      </trkpt>
      <trkpt lat="46.72493" lon="5.52364">
        <ele>262.8</ele>
        <time>2022-03-09T14:13:28Z</time>
      </trkpt>
      <trkpt lat="46.72488" lon="5.52364">
        <ele>262.8</ele>
        <time>2022-03-09T14:13:29Z</time>
      </trkpt>
      <trkpt lat="46.72482" lon="5.52365">
        <ele>263</ele>
        <time>2022-03-09T14:13:30Z</time>
      </trkpt>
      <trkpt lat="46.72477" lon="5.52365">
        <ele>263</ele>
        <time>2022-03-09T14:13:31Z</time>
      </trkpt>
      <trkpt lat="46.72472" lon="5.52366">
        <ele>263.4</ele>
        <time>2022-03-09T14:13:32Z</time>
      </trkpt>
      <trkpt lat="46.72466" lon="5.52366">
        <ele>263.4</ele>
        <time>2022-03-09T14:13:33Z</time>
      </trkpt>
      <trkpt lat="46.72461" lon="5.52367">
        <ele>263.4</ele>
        <time>2022-03-09T14:13:34Z</time>
      </trkpt>
      <trkpt lat="46.72456" lon="5.52368">
        <ele>263.6</ele>
        <time>2022-03-09T14:13:35Z</time>
      </trkpt>
      <trkpt lat="46.7245" lon="5.52369">
        <ele>263.6</ele>
        <time>2022-03-09T14:13:36Z</time>
      </trkpt>
      <trkpt lat="46.72445" lon="5.5237">
        <ele>264</ele>
        <time>2022-03-09T14:13:37Z</time>
      </trkpt>
      <trkpt lat="46.72439" lon="5.52372">
        <ele>264</ele>
        <time>2022-03-09T14:13:38Z</time>
      </trkpt>
      <trkpt lat="46.72434" lon="5.52373">
        <ele>264.2</ele>
        <time>2022-03-09T14:13:39Z</time>
      </trkpt>
      <trkpt lat="46.72429" lon="5.52374">
        <ele>264.2</ele>
        <time>2022-03-09T14:13:40Z</time>
      </trkpt>
      <trkpt lat="46.72423" lon="5.52376">
        <ele>264.6</ele>
        <time>2022-03-09T14:13:41Z</time>
      </trkpt>
      <trkpt lat="46.72418" lon="5.52377">
        <ele>264.6</ele>
        <time>2022-03-09T14:13:42Z</time>
      </trkpt>
      <trkpt lat="46.72407" lon="5.5238">
        <ele>264.6</ele>
        <time>2022-03-09T14:13:43Z</time>
      </trkpt>
      <trkpt lat="46.72402" lon="5.52381">
        <ele>264.6</ele>
        <time>2022-03-09T14:13:44Z</time>
      </trkpt>
      <trkpt lat="46.72397" lon="5.52383">
        <ele>265</ele>
        <time>2022-03-09T14:13:45Z</time>
      </trkpt>
      <trkpt lat="46.72391" lon="5.52384">
        <ele>265</ele>
        <time>2022-03-09T14:13:46Z</time>
      </trkpt>
      <trkpt lat="46.72386" lon="5.52385">
        <ele>265</ele>
        <time>2022-03-09T14:13:47Z</time>
      </trkpt>
      <trkpt lat="46.72381" lon="5.52386">
        <ele>265.2</ele>
        <time>2022-03-09T14:13:48Z</time>
      </trkpt>
      <trkpt lat="46.72376" lon="5.52387">
        <ele>265.2</ele>
        <time>2022-03-09T14:13:49Z</time>
      </trkpt>
      <trkpt lat="46.72371" lon="5.52388">
        <ele>265.6</ele>
        <time>2022-03-09T14:13:50Z</time>
      </trkpt>
      <trkpt lat="46.72366" lon="5.52389">
        <ele>265.6</ele>
        <time>2022-03-09T14:13:51Z</time>
      </trkpt>
      <trkpt lat="46.7236" lon="5.52391">
        <ele>265.8</ele>
        <time>2022-03-09T14:13:52Z</time>
      </trkpt>
      <trkpt lat="46.72355" lon="5.52392">
        <ele>265.8</ele>
        <time>2022-03-09T14:13:53Z</time>
      </trkpt>
      <trkpt lat="46.7235" lon="5.52394">
        <ele>265.8</ele>
        <time>2022-03-09T14:13:54Z</time>
      </trkpt>
      <trkpt lat="46.72345" lon="5.52395">
        <ele>266</ele>
        <time>2022-03-09T14:13:55Z</time>
      </trkpt>
      <trkpt lat="46.7234" lon="5.52397">
        <ele>266</ele>
        <time>2022-03-09T14:13:56Z</time>
      </trkpt>
      <trkpt lat="46.72335" lon="5.52399">
        <ele>266.2</ele>
        <time>2022-03-09T14:13:57Z</time>
      </trkpt>
      <trkpt lat="46.72329" lon="5.524">
        <ele>266.2</ele>
        <time>2022-03-09T14:13:58Z</time>
      </trkpt>
      <trkpt lat="46.72324" lon="5.52401">
        <ele>266.6</ele>
        <time>2022-03-09T14:13:59Z</time>
      </trkpt>
      <trkpt lat="46.72318" lon="5.52402">
        <ele>266.6</ele>
        <time>2022-03-09T14:14:00Z</time>
      </trkpt>
      <trkpt lat="46.72313" lon="5.52403">
        <ele>266.6</ele>
        <time>2022-03-09T14:14:01Z</time>
      </trkpt>
      <trkpt lat="46.72307" lon="5.52403">
        <ele>266.6</ele>
        <time>2022-03-09T14:14:02Z</time>
      </trkpt>
      <trkpt lat="46.72301" lon="5.52404">
        <ele>266.6</ele>
        <time>2022-03-09T14:14:03Z</time>
      </trkpt>
      <trkpt lat="46.72295" lon="5.52403">
        <ele>266.8</ele>
        <time>2022-03-09T14:14:04Z</time>
      </trkpt>
      <trkpt lat="46.72289" lon="5.52404">
        <ele>266.8</ele>
        <time>2022-03-09T14:14:05Z</time>
      </trkpt>
      <trkpt lat="46.72283" lon="5.52404">
        <ele>266.8</ele>
        <time>2022-03-09T14:14:06Z</time>
      </trkpt>
      <trkpt lat="46.72276" lon="5.52404">
        <ele>266.8</ele>
        <time>2022-03-09T14:14:07Z</time>
      </trkpt>
      <trkpt lat="46.7227" lon="5.52404">
        <ele>266.8</ele>
        <time>2022-03-09T14:14:08Z</time>
      </trkpt>
      <trkpt lat="46.72264" lon="5.52404">
        <ele>266.8</ele>
        <time>2022-03-09T14:14:09Z</time>
      </trkpt>
      <trkpt lat="46.72258" lon="5.52403">
        <ele>266.8</ele>
        <time>2022-03-09T14:14:10Z</time>
      </trkpt>
      <trkpt lat="46.72252" lon="5.52402">
        <ele>266.8</ele>
        <time>2022-03-09T14:14:11Z</time>
      </trkpt>
      <trkpt lat="46.72247" lon="5.52401">
        <ele>266.8</ele>
        <time>2022-03-09T14:14:12Z</time>
      </trkpt>
      <trkpt lat="46.72241" lon="5.524">
        <ele>266.8</ele>
        <time>2022-03-09T14:14:13Z</time>
      </trkpt>
      <trkpt lat="46.72236" lon="5.524">
        <ele>266.8</ele>
        <time>2022-03-09T14:14:14Z</time>
      </trkpt>
      <trkpt lat="46.7223" lon="5.524">
        <ele>266.8</ele>
        <time>2022-03-09T14:14:15Z</time>
      </trkpt>
      <trkpt lat="46.72224" lon="5.524">
        <ele>266.8</ele>
        <time>2022-03-09T14:14:16Z</time>
      </trkpt>
      <trkpt lat="46.72219" lon="5.524">
        <ele>266.8</ele>
        <time>2022-03-09T14:14:17Z</time>
      </trkpt>
      <trkpt lat="46.72213" lon="5.524">
        <ele>266.8</ele>
        <time>2022-03-09T14:14:18Z</time>
      </trkpt>
      <trkpt lat="46.72208" lon="5.52399">
        <ele>266.8</ele>
        <time>2022-03-09T14:14:19Z</time>
      </trkpt>
      <trkpt lat="46.72203" lon="5.52399">
        <ele>266.8</ele>
        <time>2022-03-09T14:14:20Z</time>
      </trkpt>
      <trkpt lat="46.72198" lon="5.52398">
        <ele>266.8</ele>
        <time>2022-03-09T14:14:21Z</time>
      </trkpt>
      <trkpt lat="46.72192" lon="5.52398">
        <ele>266.8</ele>
        <time>2022-03-09T14:14:22Z</time>
      </trkpt>
      <trkpt lat="46.72187" lon="5.52398">
        <ele>266.6</ele>
        <time>2022-03-09T14:14:23Z</time>
      </trkpt>
      <trkpt lat="46.72181" lon="5.52398">
        <ele>266.4</ele>
        <time>2022-03-09T14:14:24Z</time>
      </trkpt>
      <trkpt lat="46.72174" lon="5.52398">
        <ele>266.2</ele>
        <time>2022-03-09T14:14:25Z</time>
      </trkpt>
      <trkpt lat="46.72168" lon="5.52399">
        <ele>265.8</ele>
        <time>2022-03-09T14:14:26Z</time>
      </trkpt>
      <trkpt lat="46.72161" lon="5.524">
        <ele>265.6</ele>
        <time>2022-03-09T14:14:27Z</time>
      </trkpt>
      <trkpt lat="46.72155" lon="5.524">
        <ele>265.2</ele>
        <time>2022-03-09T14:14:28Z</time>
      </trkpt>
      <trkpt lat="46.72147" lon="5.52402">
        <ele>265</ele>
        <time>2022-03-09T14:14:29Z</time>
      </trkpt>
      <trkpt lat="46.72139" lon="5.52404">
        <ele>264.6</ele>
        <time>2022-03-09T14:14:30Z</time>
      </trkpt>
      <trkpt lat="46.72132" lon="5.52405">
        <ele>264.2</ele>
        <time>2022-03-09T14:14:31Z</time>
      </trkpt>
      <trkpt lat="46.72124" lon="5.52407">
        <ele>264</ele>
        <time>2022-03-09T14:14:32Z</time>
      </trkpt>
      <trkpt lat="46.72116" lon="5.52408">
        <ele>263.6</ele>
        <time>2022-03-09T14:14:33Z</time>
      </trkpt>
      <trkpt lat="46.72108" lon="5.5241">
        <ele>263.2</ele>
        <time>2022-03-09T14:14:34Z</time>
      </trkpt>
      <trkpt lat="46.721" lon="5.52411">
        <ele>262.8</ele>
        <time>2022-03-09T14:14:35Z</time>
      </trkpt>
      <trkpt lat="46.72091" lon="5.52413">
        <ele>262.2</ele>
        <time>2022-03-09T14:14:36Z</time>
      </trkpt>
      <trkpt lat="46.72082" lon="5.52413">
        <ele>261.6</ele>
        <time>2022-03-09T14:14:37Z</time>
      </trkpt>
      <trkpt lat="46.72073" lon="5.52414">
        <ele>261.2</ele>
        <time>2022-03-09T14:14:38Z</time>
      </trkpt>
      <trkpt lat="46.72063" lon="5.52415">
        <ele>260.4</ele>
        <time>2022-03-09T14:14:39Z</time>
      </trkpt>
      <trkpt lat="46.72053" lon="5.52416">
        <ele>259.8</ele>
        <time>2022-03-09T14:14:40Z</time>
      </trkpt>
      <trkpt lat="46.72044" lon="5.52417">
        <ele>259.2</ele>
        <time>2022-03-09T14:14:41Z</time>
      </trkpt>
      <trkpt lat="46.72035" lon="5.5242">
        <ele>258.6</ele>
        <time>2022-03-09T14:14:42Z</time>
      </trkpt>
      <trkpt lat="46.72026" lon="5.52423">
        <ele>258</ele>
        <time>2022-03-09T14:14:43Z</time>
      </trkpt>
      <trkpt lat="46.72018" lon="5.52426">
        <ele>257.4</ele>
        <time>2022-03-09T14:14:44Z</time>
      </trkpt>
      <trkpt lat="46.72011" lon="5.5243">
        <ele>256.8</ele>
        <time>2022-03-09T14:14:45Z</time>
      </trkpt>
      <trkpt lat="46.72004" lon="5.52436">
        <ele>256.2</ele>
        <time>2022-03-09T14:14:46Z</time>
      </trkpt>
      <trkpt lat="46.71997" lon="5.52443">
        <ele>255.4</ele>
        <time>2022-03-09T14:14:47Z</time>
      </trkpt>
      <trkpt lat="46.71991" lon="5.5245">
        <ele>254.8</ele>
        <time>2022-03-09T14:14:48Z</time>
      </trkpt>
      <trkpt lat="46.71985" lon="5.52456">
        <ele>254.2</ele>
        <time>2022-03-09T14:14:49Z</time>
      </trkpt>
      <trkpt lat="46.71979" lon="5.52461">
        <ele>253.6</ele>
        <time>2022-03-09T14:14:50Z</time>
      </trkpt>
      <trkpt lat="46.71974" lon="5.52467">
        <ele>253.2</ele>
        <time>2022-03-09T14:14:51Z</time>
      </trkpt>
      <trkpt lat="46.7197" lon="5.52476">
        <ele>252.8</ele>
        <time>2022-03-09T14:14:52Z</time>
      </trkpt>
      <trkpt lat="46.71967" lon="5.52484">
        <ele>252.6</ele>
        <time>2022-03-09T14:14:53Z</time>
      </trkpt>
      <trkpt lat="46.71963" lon="5.52493">
        <ele>252.2</ele>
        <time>2022-03-09T14:14:54Z</time>
      </trkpt>
      <trkpt lat="46.71959" lon="5.52503">
        <ele>251.8</ele>
        <time>2022-03-09T14:14:55Z</time>
      </trkpt>
      <trkpt lat="46.71955" lon="5.52512">
        <ele>251.6</ele>
        <time>2022-03-09T14:14:56Z</time>
      </trkpt>
      <trkpt lat="46.71949" lon="5.52521">
        <ele>251.2</ele>
        <time>2022-03-09T14:14:57Z</time>
      </trkpt>
      <trkpt lat="46.71944" lon="5.5253">
        <ele>251.2</ele>
        <time>2022-03-09T14:14:58Z</time>
      </trkpt>
      <trkpt lat="46.71938" lon="5.52539">
        <ele>251</ele>
        <time>2022-03-09T14:14:59Z</time>
      </trkpt>
      <trkpt lat="46.71932" lon="5.52547">
        <ele>251</ele>
        <time>2022-03-09T14:15:00Z</time>
      </trkpt>
      <trkpt lat="46.71926" lon="5.52556">
        <ele>250.8</ele>
        <time>2022-03-09T14:15:01Z</time>
      </trkpt>
      <trkpt lat="46.71921" lon="5.52564">
        <ele>250.8</ele>
        <time>2022-03-09T14:15:02Z</time>
      </trkpt>
      <trkpt lat="46.71915" lon="5.52573">
        <ele>250.8</ele>
        <time>2022-03-09T14:15:03Z</time>
      </trkpt>
      <trkpt lat="46.71909" lon="5.52582">
        <ele>250.8</ele>
        <time>2022-03-09T14:15:04Z</time>
      </trkpt>
      <trkpt lat="46.71904" lon="5.52591">
        <ele>250.8</ele>
        <time>2022-03-09T14:15:05Z</time>
      </trkpt>
      <trkpt lat="46.71899" lon="5.526">
        <ele>250.8</ele>
        <time>2022-03-09T14:15:06Z</time>
      </trkpt>
      <trkpt lat="46.71894" lon="5.5261">
        <ele>250.8</ele>
        <time>2022-03-09T14:15:07Z</time>
      </trkpt>
      <trkpt lat="46.7189" lon="5.52619">
        <ele>250.8</ele>
        <time>2022-03-09T14:15:08Z</time>
      </trkpt>
      <trkpt lat="46.71886" lon="5.52629">
        <ele>250.8</ele>
        <time>2022-03-09T14:15:09Z</time>
      </trkpt>
      <trkpt lat="46.71882" lon="5.52638">
        <ele>251</ele>
        <time>2022-03-09T14:15:10Z</time>
      </trkpt>
      <trkpt lat="46.71878" lon="5.52646">
        <ele>251</ele>
        <time>2022-03-09T14:15:11Z</time>
      </trkpt>
      <trkpt lat="46.71875" lon="5.52655">
        <ele>251</ele>
        <time>2022-03-09T14:15:12Z</time>
      </trkpt>
      <trkpt lat="46.71871" lon="5.52664">
        <ele>251</ele>
        <time>2022-03-09T14:15:13Z</time>
      </trkpt>
      <trkpt lat="46.71868" lon="5.52674">
        <ele>251</ele>
        <time>2022-03-09T14:15:14Z</time>
      </trkpt>
      <trkpt lat="46.71865" lon="5.52684">
        <ele>251</ele>
        <time>2022-03-09T14:15:15Z</time>
      </trkpt>
      <trkpt lat="46.71862" lon="5.52693">
        <ele>251.2</ele>
        <time>2022-03-09T14:15:16Z</time>
      </trkpt>
      <trkpt lat="46.71859" lon="5.52703">
        <ele>251.2</ele>
        <time>2022-03-09T14:15:17Z</time>
      </trkpt>
      <trkpt lat="46.71856" lon="5.52712">
        <ele>251.2</ele>
        <time>2022-03-09T14:15:18Z</time>
      </trkpt>
      <trkpt lat="46.71853" lon="5.52721">
        <ele>251.2</ele>
        <time>2022-03-09T14:15:19Z</time>
      </trkpt>
      <trkpt lat="46.7185" lon="5.52731">
        <ele>251.4</ele>
        <time>2022-03-09T14:15:20Z</time>
      </trkpt>
      <trkpt lat="46.71848" lon="5.5274">
        <ele>251.4</ele>
        <time>2022-03-09T14:15:21Z</time>
      </trkpt>
      <trkpt lat="46.71846" lon="5.52749">
        <ele>251.4</ele>
        <time>2022-03-09T14:15:22Z</time>
      </trkpt>
      <trkpt lat="46.71844" lon="5.52758">
        <ele>251.8</ele>
        <time>2022-03-09T14:15:23Z</time>
      </trkpt>
      <trkpt lat="46.71842" lon="5.52767">
        <ele>251.8</ele>
        <time>2022-03-09T14:15:24Z</time>
      </trkpt>
      <trkpt lat="46.7184" lon="5.52775">
        <ele>252</ele>
        <time>2022-03-09T14:15:25Z</time>
      </trkpt>
      <trkpt lat="46.71838" lon="5.52784">
        <ele>252</ele>
        <time>2022-03-09T14:15:26Z</time>
      </trkpt>
      <trkpt lat="46.71836" lon="5.52793">
        <ele>252.4</ele>
        <time>2022-03-09T14:15:27Z</time>
      </trkpt>
      <trkpt lat="46.71835" lon="5.52801">
        <ele>252.4</ele>
        <time>2022-03-09T14:15:28Z</time>
      </trkpt>
      <trkpt lat="46.71834" lon="5.5281">
        <ele>252.6</ele>
        <time>2022-03-09T14:15:29Z</time>
      </trkpt>
      <trkpt lat="46.71833" lon="5.52818">
        <ele>252.6</ele>
        <time>2022-03-09T14:15:30Z</time>
      </trkpt>
      <trkpt lat="46.71832" lon="5.52826">
        <ele>252.8</ele>
        <time>2022-03-09T14:15:31Z</time>
      </trkpt>
      <trkpt lat="46.71831" lon="5.52834">
        <ele>252.8</ele>
        <time>2022-03-09T14:15:32Z</time>
      </trkpt>
      <trkpt lat="46.71829" lon="5.52842">
        <ele>253.2</ele>
        <time>2022-03-09T14:15:33Z</time>
      </trkpt>
      <trkpt lat="46.71828" lon="5.52849">
        <ele>253.2</ele>
        <time>2022-03-09T14:15:34Z</time>
      </trkpt>
      <trkpt lat="46.71826" lon="5.52857">
        <ele>253.6</ele>
        <time>2022-03-09T14:15:35Z</time>
      </trkpt>
      <trkpt lat="46.71824" lon="5.52864">
        <ele>253.6</ele>
        <time>2022-03-09T14:15:36Z</time>
      </trkpt>
      <trkpt lat="46.71823" lon="5.52872">
        <ele>253.8</ele>
        <time>2022-03-09T14:15:37Z</time>
      </trkpt>
      <trkpt lat="46.71821" lon="5.52879">
        <ele>253.8</ele>
        <time>2022-03-09T14:15:38Z</time>
      </trkpt>
      <trkpt lat="46.7182" lon="5.52887">
        <ele>254</ele>
        <time>2022-03-09T14:15:39Z</time>
      </trkpt>
      <trkpt lat="46.71818" lon="5.52894">
        <ele>254</ele>
        <time>2022-03-09T14:15:40Z</time>
      </trkpt>
      <trkpt lat="46.71817" lon="5.52902">
        <ele>254</ele>
        <time>2022-03-09T14:15:41Z</time>
      </trkpt>
      <trkpt lat="46.71815" lon="5.5291">
        <ele>254.4</ele>
        <time>2022-03-09T14:15:42Z</time>
      </trkpt>
      <trkpt lat="46.71814" lon="5.52917">
        <ele>254.4</ele>
        <time>2022-03-09T14:15:43Z</time>
      </trkpt>
      <trkpt lat="46.71812" lon="5.52925">
        <ele>254.6</ele>
        <time>2022-03-09T14:15:44Z</time>
      </trkpt>
      <trkpt lat="46.7181" lon="5.52933">
        <ele>254.6</ele>
        <time>2022-03-09T14:15:45Z</time>
      </trkpt>
      <trkpt lat="46.71809" lon="5.5294">
        <ele>255</ele>
        <time>2022-03-09T14:15:46Z</time>
      </trkpt>
      <trkpt lat="46.71807" lon="5.52948">
        <ele>255</ele>
        <time>2022-03-09T14:15:47Z</time>
      </trkpt>
      <trkpt lat="46.71806" lon="5.52955">
        <ele>255.2</ele>
        <time>2022-03-09T14:15:48Z</time>
      </trkpt>
      <trkpt lat="46.71804" lon="5.52963">
        <ele>255.2</ele>
        <time>2022-03-09T14:15:49Z</time>
      </trkpt>
      <trkpt lat="46.71803" lon="5.52971">
        <ele>255.6</ele>
        <time>2022-03-09T14:15:50Z</time>
      </trkpt>
      <trkpt lat="46.71801" lon="5.52978">
        <ele>255.6</ele>
        <time>2022-03-09T14:15:51Z</time>
      </trkpt>
      <trkpt lat="46.718" lon="5.52986">
        <ele>255.8</ele>
        <time>2022-03-09T14:15:52Z</time>
      </trkpt>
      <trkpt lat="46.71798" lon="5.52993">
        <ele>255.8</ele>
        <time>2022-03-09T14:15:53Z</time>
      </trkpt>
      <trkpt lat="46.71796" lon="5.53">
        <ele>256.2</ele>
        <time>2022-03-09T14:15:54Z</time>
      </trkpt>
      <trkpt lat="46.71795" lon="5.53007">
        <ele>256.6</ele>
        <time>2022-03-09T14:15:55Z</time>
      </trkpt>
      <trkpt lat="46.71794" lon="5.53014">
        <ele>256.6</ele>
        <time>2022-03-09T14:15:56Z</time>
      </trkpt>
      <trkpt lat="46.71793" lon="5.53022">
        <ele>256.8</ele>
        <time>2022-03-09T14:15:57Z</time>
      </trkpt>
      <trkpt lat="46.71791" lon="5.53029">
        <ele>256.8</ele>
        <time>2022-03-09T14:15:58Z</time>
      </trkpt>
      <trkpt lat="46.7179" lon="5.53036">
        <ele>257</ele>
        <time>2022-03-09T14:15:59Z</time>
      </trkpt>
      <trkpt lat="46.71789" lon="5.53043">
        <ele>257</ele>
        <time>2022-03-09T14:16:00Z</time>
      </trkpt>
      <trkpt lat="46.71787" lon="5.53051">
        <ele>257.2</ele>
        <time>2022-03-09T14:16:01Z</time>
      </trkpt>
      <trkpt lat="46.71786" lon="5.53058">
        <ele>257.2</ele>
        <time>2022-03-09T14:16:02Z</time>
      </trkpt>
      <trkpt lat="46.71785" lon="5.53065">
        <ele>257.6</ele>
        <time>2022-03-09T14:16:03Z</time>
      </trkpt>
      <trkpt lat="46.71784" lon="5.53072">
        <ele>257.6</ele>
        <time>2022-03-09T14:16:04Z</time>
      </trkpt>
      <trkpt lat="46.71782" lon="5.53079">
        <ele>257.6</ele>
        <time>2022-03-09T14:16:05Z</time>
      </trkpt>
      <trkpt lat="46.71781" lon="5.53086">
        <ele>257.6</ele>
        <time>2022-03-09T14:16:06Z</time>
      </trkpt>
      <trkpt lat="46.71779" lon="5.53093">
        <ele>257.8</ele>
        <time>2022-03-09T14:16:07Z</time>
      </trkpt>
      <trkpt lat="46.71778" lon="5.53101">
        <ele>257.8</ele>
        <time>2022-03-09T14:16:08Z</time>
      </trkpt>
      <trkpt lat="46.71776" lon="5.53108">
        <ele>257.8</ele>
        <time>2022-03-09T14:16:09Z</time>
      </trkpt>
      <trkpt lat="46.71775" lon="5.53116">
        <ele>257.8</ele>
        <time>2022-03-09T14:16:10Z</time>
      </trkpt>
      <trkpt lat="46.71773" lon="5.53124">
        <ele>257.8</ele>
        <time>2022-03-09T14:16:11Z</time>
      </trkpt>
      <trkpt lat="46.71771" lon="5.53132">
        <ele>257.8</ele>
        <time>2022-03-09T14:16:12Z</time>
      </trkpt>
      <trkpt lat="46.71769" lon="5.5314">
        <ele>257.8</ele>
        <time>2022-03-09T14:16:13Z</time>
      </trkpt>
      <trkpt lat="46.71767" lon="5.53148">
        <ele>257.8</ele>
        <time>2022-03-09T14:16:14Z</time>
      </trkpt>
      <trkpt lat="46.71765" lon="5.53155">
        <ele>257.8</ele>
        <time>2022-03-09T14:16:15Z</time>
      </trkpt>
      <trkpt lat="46.71763" lon="5.53163">
        <ele>257.8</ele>
        <time>2022-03-09T14:16:16Z</time>
      </trkpt>
      <trkpt lat="46.7176" lon="5.53171">
        <ele>257.8</ele>
        <time>2022-03-09T14:16:17Z</time>
      </trkpt>
      <trkpt lat="46.71758" lon="5.53178">
        <ele>257.8</ele>
        <time>2022-03-09T14:16:18Z</time>
      </trkpt>
      <trkpt lat="46.71755" lon="5.53186">
        <ele>258</ele>
        <time>2022-03-09T14:16:19Z</time>
      </trkpt>
      <trkpt lat="46.71753" lon="5.53193">
        <ele>258</ele>
        <time>2022-03-09T14:16:20Z</time>
      </trkpt>
      <trkpt lat="46.7175" lon="5.53201">
        <ele>258.2</ele>
        <time>2022-03-09T14:16:21Z</time>
      </trkpt>
      <trkpt lat="46.71748" lon="5.53208">
        <ele>258.2</ele>
        <time>2022-03-09T14:16:22Z</time>
      </trkpt>
      <trkpt lat="46.71745" lon="5.53215">
        <ele>258.2</ele>
        <time>2022-03-09T14:16:23Z</time>
      </trkpt>
      <trkpt lat="46.71745" lon="5.53215">
        <ele>258.4</ele>
        <time>2022-03-09T14:16:24Z</time>
      </trkpt>
      <trkpt lat="46.71743" lon="5.53223">
        <ele>258.4</ele>
        <time>2022-03-09T14:16:25Z</time>
      </trkpt>
      <trkpt lat="46.7174" lon="5.5323">
        <ele>258.4</ele>
        <time>2022-03-09T14:16:26Z</time>
      </trkpt>
      <trkpt lat="46.71738" lon="5.53237">
        <ele>258.4</ele>
        <time>2022-03-09T14:16:27Z</time>
      </trkpt>
      <trkpt lat="46.71735" lon="5.53245">
        <ele>258.4</ele>
        <time>2022-03-09T14:16:28Z</time>
      </trkpt>
      <trkpt lat="46.71733" lon="5.53253">
        <ele>258.4</ele>
        <time>2022-03-09T14:16:29Z</time>
      </trkpt>
      <trkpt lat="46.71731" lon="5.5326">
        <ele>258.6</ele>
        <time>2022-03-09T14:16:30Z</time>
      </trkpt>
      <trkpt lat="46.71728" lon="5.53268">
        <ele>258.6</ele>
        <time>2022-03-09T14:16:31Z</time>
      </trkpt>
      <trkpt lat="46.71726" lon="5.53275">
        <ele>258.6</ele>
        <time>2022-03-09T14:16:32Z</time>
      </trkpt>
      <trkpt lat="46.71724" lon="5.53282">
        <ele>259.2</ele>
        <time>2022-03-09T14:16:33Z</time>
      </trkpt>
      <trkpt lat="46.71721" lon="5.53289">
        <ele>259.2</ele>
        <time>2022-03-09T14:16:34Z</time>
      </trkpt>
      <trkpt lat="46.71719" lon="5.53296">
        <ele>259.4</ele>
        <time>2022-03-09T14:16:35Z</time>
      </trkpt>
      <trkpt lat="46.71716" lon="5.53304">
        <ele>259.6</ele>
        <time>2022-03-09T14:16:36Z</time>
      </trkpt>
      <trkpt lat="46.71714" lon="5.53311">
        <ele>259.6</ele>
        <time>2022-03-09T14:16:37Z</time>
      </trkpt>
      <trkpt lat="46.71712" lon="5.53318">
        <ele>260</ele>
        <time>2022-03-09T14:16:38Z</time>
      </trkpt>
      <trkpt lat="46.7171" lon="5.53325">
        <ele>260</ele>
        <time>2022-03-09T14:16:39Z</time>
      </trkpt>
      <trkpt lat="46.71707" lon="5.53332">
        <ele>260.4</ele>
        <time>2022-03-09T14:16:40Z</time>
      </trkpt>
      <trkpt lat="46.71705" lon="5.53339">
        <ele>260.4</ele>
        <time>2022-03-09T14:16:41Z</time>
      </trkpt>
      <trkpt lat="46.71703" lon="5.53347">
        <ele>260.6</ele>
        <time>2022-03-09T14:16:42Z</time>
      </trkpt>
      <trkpt lat="46.71702" lon="5.53354">
        <ele>260.6</ele>
        <time>2022-03-09T14:16:43Z</time>
      </trkpt>
      <trkpt lat="46.717" lon="5.53362">
        <ele>261</ele>
        <time>2022-03-09T14:16:44Z</time>
      </trkpt>
      <trkpt lat="46.71698" lon="5.53369">
        <ele>261</ele>
        <time>2022-03-09T14:16:45Z</time>
      </trkpt>
      <trkpt lat="46.71696" lon="5.53377">
        <ele>261.4</ele>
        <time>2022-03-09T14:16:46Z</time>
      </trkpt>
      <trkpt lat="46.71694" lon="5.53384">
        <ele>261.4</ele>
        <time>2022-03-09T14:16:47Z</time>
      </trkpt>
      <trkpt lat="46.71692" lon="5.53392">
        <ele>261.6</ele>
        <time>2022-03-09T14:16:48Z</time>
      </trkpt>
      <trkpt lat="46.7169" lon="5.53399">
        <ele>261.6</ele>
        <time>2022-03-09T14:16:49Z</time>
      </trkpt>
      <trkpt lat="46.71688" lon="5.53407">
        <ele>262</ele>
        <time>2022-03-09T14:16:50Z</time>
      </trkpt>
      <trkpt lat="46.71686" lon="5.53414">
        <ele>262</ele>
        <time>2022-03-09T14:16:51Z</time>
      </trkpt>
      <trkpt lat="46.71683" lon="5.53421">
        <ele>262.2</ele>
        <time>2022-03-09T14:16:52Z</time>
      </trkpt>
      <trkpt lat="46.7168" lon="5.53428">
        <ele>262.2</ele>
        <time>2022-03-09T14:16:53Z</time>
      </trkpt>
      <trkpt lat="46.71676" lon="5.53434">
        <ele>262.2</ele>
        <time>2022-03-09T14:16:54Z</time>
      </trkpt>
      <trkpt lat="46.71673" lon="5.53441">
        <ele>262.4</ele>
        <time>2022-03-09T14:16:55Z</time>
      </trkpt>
      <trkpt lat="46.7167" lon="5.53447">
        <ele>262.4</ele>
        <time>2022-03-09T14:16:56Z</time>
      </trkpt>
      <trkpt lat="46.71666" lon="5.53452">
        <ele>262.8</ele>
        <time>2022-03-09T14:16:57Z</time>
      </trkpt>
      <trkpt lat="46.71662" lon="5.53458">
        <ele>262.8</ele>
        <time>2022-03-09T14:16:58Z</time>
      </trkpt>
      <trkpt lat="46.71658" lon="5.53462">
        <ele>263</ele>
        <time>2022-03-09T14:16:59Z</time>
      </trkpt>
      <trkpt lat="46.71654" lon="5.53467">
        <ele>263.2</ele>
        <time>2022-03-09T14:17:00Z</time>
      </trkpt>
      <trkpt lat="46.7165" lon="5.53471">
        <ele>263.2</ele>
        <time>2022-03-09T14:17:01Z</time>
      </trkpt>
      <trkpt lat="46.71645" lon="5.53475">
        <ele>263.2</ele>
        <time>2022-03-09T14:17:02Z</time>
      </trkpt>
      <trkpt lat="46.71641" lon="5.53478">
        <ele>263.6</ele>
        <time>2022-03-09T14:17:03Z</time>
      </trkpt>
      <trkpt lat="46.71636" lon="5.53481">
        <ele>263.6</ele>
        <time>2022-03-09T14:17:04Z</time>
      </trkpt>
      <trkpt lat="46.71632" lon="5.53484">
        <ele>263.8</ele>
        <time>2022-03-09T14:17:05Z</time>
      </trkpt>
      <trkpt lat="46.71628" lon="5.53487">
        <ele>263.8</ele>
        <time>2022-03-09T14:17:06Z</time>
      </trkpt>
      <trkpt lat="46.71623" lon="5.5349">
        <ele>264.2</ele>
        <time>2022-03-09T14:17:07Z</time>
      </trkpt>
      <trkpt lat="46.71619" lon="5.53492">
        <ele>264.2</ele>
        <time>2022-03-09T14:17:08Z</time>
      </trkpt>
      <trkpt lat="46.71614" lon="5.53495">
        <ele>264.6</ele>
        <time>2022-03-09T14:17:09Z</time>
      </trkpt>
      <trkpt lat="46.71609" lon="5.53498">
        <ele>264.6</ele>
        <time>2022-03-09T14:17:10Z</time>
      </trkpt>
      <trkpt lat="46.71605" lon="5.53501">
        <ele>264.6</ele>
        <time>2022-03-09T14:17:11Z</time>
      </trkpt>
      <trkpt lat="46.716" lon="5.53504">
        <ele>265</ele>
        <time>2022-03-09T14:17:12Z</time>
      </trkpt>
      <trkpt lat="46.71596" lon="5.53506">
        <ele>265</ele>
        <time>2022-03-09T14:17:13Z</time>
      </trkpt>
      <trkpt lat="46.71591" lon="5.53508">
        <ele>265</ele>
        <time>2022-03-09T14:17:14Z</time>
      </trkpt>
      <trkpt lat="46.71586" lon="5.53511">
        <ele>265</ele>
        <time>2022-03-09T14:17:15Z</time>
      </trkpt>
      <trkpt lat="46.71582" lon="5.53513">
        <ele>265</ele>
        <time>2022-03-09T14:17:16Z</time>
      </trkpt>
      <trkpt lat="46.71577" lon="5.53516">
        <ele>265.2</ele>
        <time>2022-03-09T14:17:17Z</time>
      </trkpt>
      <trkpt lat="46.71573" lon="5.53519">
        <ele>265.2</ele>
        <time>2022-03-09T14:17:18Z</time>
      </trkpt>
      <trkpt lat="46.71568" lon="5.53522">
        <ele>265.4</ele>
        <time>2022-03-09T14:17:19Z</time>
      </trkpt>
      <trkpt lat="46.71564" lon="5.53525">
        <ele>265.4</ele>
        <time>2022-03-09T14:17:20Z</time>
      </trkpt>
      <trkpt lat="46.71559" lon="5.53527">
        <ele>265.8</ele>
        <time>2022-03-09T14:17:21Z</time>
      </trkpt>
      <trkpt lat="46.71555" lon="5.5353">
        <ele>265.8</ele>
        <time>2022-03-09T14:17:22Z</time>
      </trkpt>
      <trkpt lat="46.7155" lon="5.53533">
        <ele>266</ele>
        <time>2022-03-09T14:17:23Z</time>
      </trkpt>
      <trkpt lat="46.71546" lon="5.53537">
        <ele>266</ele>
        <time>2022-03-09T14:17:24Z</time>
      </trkpt>
      <trkpt lat="46.71542" lon="5.53541">
        <ele>266.2</ele>
        <time>2022-03-09T14:17:25Z</time>
      </trkpt>
      <trkpt lat="46.71537" lon="5.53545">
        <ele>266.2</ele>
        <time>2022-03-09T14:17:26Z</time>
      </trkpt>
      <trkpt lat="46.71533" lon="5.53549">
        <ele>266.2</ele>
        <time>2022-03-09T14:17:27Z</time>
      </trkpt>
      <trkpt lat="46.71529" lon="5.53553">
        <ele>266.4</ele>
        <time>2022-03-09T14:17:28Z</time>
      </trkpt>
      <trkpt lat="46.71525" lon="5.53558">
        <ele>266.4</ele>
        <time>2022-03-09T14:17:29Z</time>
      </trkpt>
      <trkpt lat="46.7152" lon="5.53562">
        <ele>266.4</ele>
        <time>2022-03-09T14:17:30Z</time>
      </trkpt>
      <trkpt lat="46.71516" lon="5.53567">
        <ele>266.6</ele>
        <time>2022-03-09T14:17:31Z</time>
      </trkpt>
      <trkpt lat="46.71512" lon="5.53571">
        <ele>266.6</ele>
        <time>2022-03-09T14:17:32Z</time>
      </trkpt>
      <trkpt lat="46.71507" lon="5.53576">
        <ele>266.8</ele>
        <time>2022-03-09T14:17:33Z</time>
      </trkpt>
      <trkpt lat="46.71503" lon="5.53581">
        <ele>266.8</ele>
        <time>2022-03-09T14:17:34Z</time>
      </trkpt>
      <trkpt lat="46.71498" lon="5.53585">
        <ele>267.2</ele>
        <time>2022-03-09T14:17:35Z</time>
      </trkpt>
      <trkpt lat="46.71494" lon="5.5359">
        <ele>267.2</ele>
        <time>2022-03-09T14:17:36Z</time>
      </trkpt>
      <trkpt lat="46.71489" lon="5.53594">
        <ele>267.4</ele>
        <time>2022-03-09T14:17:37Z</time>
      </trkpt>
      <trkpt lat="46.71485" lon="5.53599">
        <ele>267.4</ele>
        <time>2022-03-09T14:17:38Z</time>
      </trkpt>
      <trkpt lat="46.71481" lon="5.53603">
        <ele>267.8</ele>
        <time>2022-03-09T14:17:39Z</time>
      </trkpt>
      <trkpt lat="46.71476" lon="5.53608">
        <ele>268</ele>
        <time>2022-03-09T14:17:40Z</time>
      </trkpt>
      <trkpt lat="46.71472" lon="5.53613">
        <ele>268</ele>
        <time>2022-03-09T14:17:41Z</time>
      </trkpt>
      <trkpt lat="46.71468" lon="5.53618">
        <ele>268.4</ele>
        <time>2022-03-09T14:17:42Z</time>
      </trkpt>
      <trkpt lat="46.71463" lon="5.53623">
        <ele>268.4</ele>
        <time>2022-03-09T14:17:43Z</time>
      </trkpt>
      <trkpt lat="46.71459" lon="5.53627">
        <ele>268.6</ele>
        <time>2022-03-09T14:17:44Z</time>
      </trkpt>
      <trkpt lat="46.71455" lon="5.53632">
        <ele>268.6</ele>
        <time>2022-03-09T14:17:45Z</time>
      </trkpt>
      <trkpt lat="46.71451" lon="5.53638">
        <ele>269</ele>
        <time>2022-03-09T14:17:46Z</time>
      </trkpt>
      <trkpt lat="46.71447" lon="5.53643">
        <ele>269</ele>
        <time>2022-03-09T14:17:47Z</time>
      </trkpt>
      <trkpt lat="46.71443" lon="5.53648">
        <ele>269</ele>
        <time>2022-03-09T14:17:48Z</time>
      </trkpt>
      <trkpt lat="46.71434" lon="5.53657">
        <ele>269.2</ele>
        <time>2022-03-09T14:17:49Z</time>
      </trkpt>
      <trkpt lat="46.7143" lon="5.53661">
        <ele>269.2</ele>
        <time>2022-03-09T14:17:50Z</time>
      </trkpt>
      <trkpt lat="46.71425" lon="5.53664">
        <ele>269.4</ele>
        <time>2022-03-09T14:17:51Z</time>
      </trkpt>
      <trkpt lat="46.71419" lon="5.53668">
        <ele>269.4</ele>
        <time>2022-03-09T14:17:52Z</time>
      </trkpt>
      <trkpt lat="46.71414" lon="5.53671">
        <ele>269.8</ele>
        <time>2022-03-09T14:17:53Z</time>
      </trkpt>
      <trkpt lat="46.71408" lon="5.53674">
        <ele>270</ele>
        <time>2022-03-09T14:17:54Z</time>
      </trkpt>
      <trkpt lat="46.71402" lon="5.53676">
        <ele>270</ele>
        <time>2022-03-09T14:17:55Z</time>
      </trkpt>
      <trkpt lat="46.71396" lon="5.53677">
        <ele>270.4</ele>
        <time>2022-03-09T14:17:56Z</time>
      </trkpt>
      <trkpt lat="46.7139" lon="5.53679">
        <ele>270.8</ele>
        <time>2022-03-09T14:17:57Z</time>
      </trkpt>
      <trkpt lat="46.71384" lon="5.5368">
        <ele>271.2</ele>
        <time>2022-03-09T14:17:58Z</time>
      </trkpt>
      <trkpt lat="46.71378" lon="5.53682">
        <ele>271.4</ele>
        <time>2022-03-09T14:17:59Z</time>
      </trkpt>
      <trkpt lat="46.71372" lon="5.53683">
        <ele>271.8</ele>
        <time>2022-03-09T14:18:00Z</time>
      </trkpt>
      <trkpt lat="46.71367" lon="5.53684">
        <ele>271.8</ele>
        <time>2022-03-09T14:18:01Z</time>
      </trkpt>
      <trkpt lat="46.71361" lon="5.53686">
        <ele>272.2</ele>
        <time>2022-03-09T14:18:02Z</time>
      </trkpt>
      <trkpt lat="46.71356" lon="5.53687">
        <ele>272.6</ele>
        <time>2022-03-09T14:18:03Z</time>
      </trkpt>
      <trkpt lat="46.71351" lon="5.53688">
        <ele>272.8</ele>
        <time>2022-03-09T14:18:04Z</time>
      </trkpt>
      <trkpt lat="46.71346" lon="5.53689">
        <ele>272.8</ele>
        <time>2022-03-09T14:18:05Z</time>
      </trkpt>
      <trkpt lat="46.71341" lon="5.5369">
        <ele>273.2</ele>
        <time>2022-03-09T14:18:06Z</time>
      </trkpt>
      <trkpt lat="46.71337" lon="5.53691">
        <ele>273.2</ele>
        <time>2022-03-09T14:18:07Z</time>
      </trkpt>
      <trkpt lat="46.71332" lon="5.53692">
        <ele>273.2</ele>
        <time>2022-03-09T14:18:08Z</time>
      </trkpt>
      <trkpt lat="46.71327" lon="5.53692">
        <ele>273.4</ele>
        <time>2022-03-09T14:18:09Z</time>
      </trkpt>
      <trkpt lat="46.71322" lon="5.53692">
        <ele>273.4</ele>
        <time>2022-03-09T14:18:10Z</time>
      </trkpt>
      <trkpt lat="46.71318" lon="5.53693">
        <ele>273.8</ele>
        <time>2022-03-09T14:18:11Z</time>
      </trkpt>
      <trkpt lat="46.71313" lon="5.53694">
        <ele>273.8</ele>
        <time>2022-03-09T14:18:12Z</time>
      </trkpt>
      <trkpt lat="46.71308" lon="5.53695">
        <ele>274</ele>
        <time>2022-03-09T14:18:13Z</time>
      </trkpt>
      <trkpt lat="46.71304" lon="5.53696">
        <ele>274.2</ele>
        <time>2022-03-09T14:18:14Z</time>
      </trkpt>
      <trkpt lat="46.713" lon="5.53698">
        <ele>274.2</ele>
        <time>2022-03-09T14:18:15Z</time>
      </trkpt>
      <trkpt lat="46.71295" lon="5.53699">
        <ele>274.6</ele>
        <time>2022-03-09T14:18:16Z</time>
      </trkpt>
      <trkpt lat="46.71291" lon="5.53701">
        <ele>274.6</ele>
        <time>2022-03-09T14:18:17Z</time>
      </trkpt>
      <trkpt lat="46.71287" lon="5.53702">
        <ele>275</ele>
        <time>2022-03-09T14:18:18Z</time>
      </trkpt>
      <trkpt lat="46.71282" lon="5.53704">
        <ele>275</ele>
        <time>2022-03-09T14:18:19Z</time>
      </trkpt>
      <trkpt lat="46.71278" lon="5.53706">
        <ele>275.2</ele>
        <time>2022-03-09T14:18:20Z</time>
      </trkpt>
      <trkpt lat="46.71274" lon="5.53708">
        <ele>275.2</ele>
        <time>2022-03-09T14:18:21Z</time>
      </trkpt>
      <trkpt lat="46.71269" lon="5.53709">
        <ele>275.6</ele>
        <time>2022-03-09T14:18:22Z</time>
      </trkpt>
      <trkpt lat="46.71265" lon="5.53712">
        <ele>275.6</ele>
        <time>2022-03-09T14:18:23Z</time>
      </trkpt>
      <trkpt lat="46.71261" lon="5.53715">
        <ele>275.8</ele>
        <time>2022-03-09T14:18:24Z</time>
      </trkpt>
      <trkpt lat="46.71257" lon="5.53718">
        <ele>275.8</ele>
        <time>2022-03-09T14:18:25Z</time>
      </trkpt>
      <trkpt lat="46.71254" lon="5.53721">
        <ele>276.4</ele>
        <time>2022-03-09T14:18:26Z</time>
      </trkpt>
      <trkpt lat="46.7125" lon="5.53725">
        <ele>276.4</ele>
        <time>2022-03-09T14:18:27Z</time>
      </trkpt>
      <trkpt lat="46.71246" lon="5.53729">
        <ele>276.6</ele>
        <time>2022-03-09T14:18:28Z</time>
      </trkpt>
      <trkpt lat="46.71243" lon="5.53733">
        <ele>276.6</ele>
        <time>2022-03-09T14:18:29Z</time>
      </trkpt>
      <trkpt lat="46.71239" lon="5.53737">
        <ele>276.6</ele>
        <time>2022-03-09T14:18:30Z</time>
      </trkpt>
      <trkpt lat="46.71236" lon="5.53742">
        <ele>277</ele>
        <time>2022-03-09T14:18:31Z</time>
      </trkpt>
      <trkpt lat="46.71233" lon="5.53747">
        <ele>277</ele>
        <time>2022-03-09T14:18:32Z</time>
      </trkpt>
      <trkpt lat="46.7123" lon="5.53752">
        <ele>277.2</ele>
        <time>2022-03-09T14:18:33Z</time>
      </trkpt>
      <trkpt lat="46.71228" lon="5.53756">
        <ele>277.2</ele>
        <time>2022-03-09T14:18:34Z</time>
      </trkpt>
      <trkpt lat="46.71225" lon="5.53762">
        <ele>277.6</ele>
        <time>2022-03-09T14:18:35Z</time>
      </trkpt>
      <trkpt lat="46.71223" lon="5.53766">
        <ele>277.6</ele>
        <time>2022-03-09T14:18:36Z</time>
      </trkpt>
      <trkpt lat="46.71221" lon="5.53771">
        <ele>278</ele>
        <time>2022-03-09T14:18:37Z</time>
      </trkpt>
      <trkpt lat="46.71218" lon="5.53776">
        <ele>278</ele>
        <time>2022-03-09T14:18:38Z</time>
      </trkpt>
      <trkpt lat="46.71216" lon="5.5378">
        <ele>278.4</ele>
        <time>2022-03-09T14:18:39Z</time>
      </trkpt>
      <trkpt lat="46.71213" lon="5.53784">
        <ele>278.4</ele>
        <time>2022-03-09T14:18:40Z</time>
      </trkpt>
      <trkpt lat="46.71211" lon="5.53788">
        <ele>278.6</ele>
        <time>2022-03-09T14:18:41Z</time>
      </trkpt>
      <trkpt lat="46.71209" lon="5.53793">
        <ele>278.6</ele>
        <time>2022-03-09T14:18:42Z</time>
      </trkpt>
      <trkpt lat="46.71207" lon="5.53797">
        <ele>278.8</ele>
        <time>2022-03-09T14:18:43Z</time>
      </trkpt>
      <trkpt lat="46.71205" lon="5.53801">
        <ele>279.2</ele>
        <time>2022-03-09T14:18:44Z</time>
      </trkpt>
      <trkpt lat="46.71203" lon="5.53805">
        <ele>279.4</ele>
        <time>2022-03-09T14:18:45Z</time>
      </trkpt>
      <trkpt lat="46.71201" lon="5.53809">
        <ele>279.4</ele>
        <time>2022-03-09T14:18:46Z</time>
      </trkpt>
      <trkpt lat="46.71199" lon="5.53813">
        <ele>279.6</ele>
        <time>2022-03-09T14:18:47Z</time>
      </trkpt>
      <trkpt lat="46.71197" lon="5.53817">
        <ele>279.6</ele>
        <time>2022-03-09T14:18:48Z</time>
      </trkpt>
      <trkpt lat="46.71195" lon="5.53821">
        <ele>280</ele>
        <time>2022-03-09T14:18:49Z</time>
      </trkpt>
      <trkpt lat="46.71193" lon="5.53825">
        <ele>280</ele>
        <time>2022-03-09T14:18:50Z</time>
      </trkpt>
      <trkpt lat="46.71191" lon="5.53829">
        <ele>280.4</ele>
        <time>2022-03-09T14:18:51Z</time>
      </trkpt>
      <trkpt lat="46.71189" lon="5.53833">
        <ele>280.6</ele>
        <time>2022-03-09T14:18:52Z</time>
      </trkpt>
      <trkpt lat="46.71188" lon="5.53837">
        <ele>280.6</ele>
        <time>2022-03-09T14:18:53Z</time>
      </trkpt>
      <trkpt lat="46.71186" lon="5.53842">
        <ele>281</ele>
        <time>2022-03-09T14:18:54Z</time>
      </trkpt>
      <trkpt lat="46.71183" lon="5.53845">
        <ele>281</ele>
        <time>2022-03-09T14:18:55Z</time>
      </trkpt>
      <trkpt lat="46.71181" lon="5.53849">
        <ele>281.4</ele>
        <time>2022-03-09T14:18:56Z</time>
      </trkpt>
      <trkpt lat="46.71179" lon="5.53854">
        <ele>281.4</ele>
        <time>2022-03-09T14:18:57Z</time>
      </trkpt>
      <trkpt lat="46.71177" lon="5.53858">
        <ele>281.6</ele>
        <time>2022-03-09T14:18:58Z</time>
      </trkpt>
      <trkpt lat="46.71175" lon="5.53862">
        <ele>281.6</ele>
        <time>2022-03-09T14:18:59Z</time>
      </trkpt>
      <trkpt lat="46.71173" lon="5.53866">
        <ele>281.8</ele>
        <time>2022-03-09T14:19:00Z</time>
      </trkpt>
      <trkpt lat="46.71172" lon="5.5387">
        <ele>282.2</ele>
        <time>2022-03-09T14:19:01Z</time>
      </trkpt>
      <trkpt lat="46.7117" lon="5.53874">
        <ele>282.2</ele>
        <time>2022-03-09T14:19:02Z</time>
      </trkpt>
      <trkpt lat="46.71168" lon="5.53878">
        <ele>282.4</ele>
        <time>2022-03-09T14:19:03Z</time>
      </trkpt>
      <trkpt lat="46.71166" lon="5.53882">
        <ele>282.8</ele>
        <time>2022-03-09T14:19:04Z</time>
      </trkpt>
      <trkpt lat="46.71164" lon="5.53886">
        <ele>283</ele>
        <time>2022-03-09T14:19:05Z</time>
      </trkpt>
      <trkpt lat="46.71162" lon="5.53889">
        <ele>283</ele>
        <time>2022-03-09T14:19:06Z</time>
      </trkpt>
      <trkpt lat="46.7116" lon="5.53893">
        <ele>283.4</ele>
        <time>2022-03-09T14:19:07Z</time>
      </trkpt>
      <trkpt lat="46.71158" lon="5.53897">
        <ele>283.4</ele>
        <time>2022-03-09T14:19:08Z</time>
      </trkpt>
      <trkpt lat="46.71156" lon="5.53901">
        <ele>283.6</ele>
        <time>2022-03-09T14:19:09Z</time>
      </trkpt>
      <trkpt lat="46.71154" lon="5.53905">
        <ele>284</ele>
        <time>2022-03-09T14:19:10Z</time>
      </trkpt>
      <trkpt lat="46.71152" lon="5.53909">
        <ele>284</ele>
        <time>2022-03-09T14:19:11Z</time>
      </trkpt>
      <trkpt lat="46.7115" lon="5.53913">
        <ele>284.4</ele>
        <time>2022-03-09T14:19:12Z</time>
      </trkpt>
      <trkpt lat="46.71148" lon="5.53917">
        <ele>284.4</ele>
        <time>2022-03-09T14:19:13Z</time>
      </trkpt>
      <trkpt lat="46.71146" lon="5.53922">
        <ele>284.8</ele>
        <time>2022-03-09T14:19:14Z</time>
      </trkpt>
      <trkpt lat="46.71144" lon="5.53926">
        <ele>284.8</ele>
        <time>2022-03-09T14:19:15Z</time>
      </trkpt>
      <trkpt lat="46.71142" lon="5.5393">
        <ele>285</ele>
        <time>2022-03-09T14:19:16Z</time>
      </trkpt>
      <trkpt lat="46.7114" lon="5.53935">
        <ele>285</ele>
        <time>2022-03-09T14:19:17Z</time>
      </trkpt>
      <trkpt lat="46.71138" lon="5.53939">
        <ele>285.2</ele>
        <time>2022-03-09T14:19:18Z</time>
      </trkpt>
      <trkpt lat="46.71136" lon="5.53943">
        <ele>285.2</ele>
        <time>2022-03-09T14:19:19Z</time>
      </trkpt>
      <trkpt lat="46.71134" lon="5.53947">
        <ele>285.6</ele>
        <time>2022-03-09T14:19:20Z</time>
      </trkpt>
      <trkpt lat="46.71133" lon="5.53951">
        <ele>285.6</ele>
        <time>2022-03-09T14:19:21Z</time>
      </trkpt>
      <trkpt lat="46.71131" lon="5.53955">
        <ele>285.8</ele>
        <time>2022-03-09T14:19:22Z</time>
      </trkpt>
      <trkpt lat="46.71129" lon="5.53959">
        <ele>285.8</ele>
        <time>2022-03-09T14:19:23Z</time>
      </trkpt>
      <trkpt lat="46.71127" lon="5.53963">
        <ele>286.2</ele>
        <time>2022-03-09T14:19:24Z</time>
      </trkpt>
      <trkpt lat="46.71125" lon="5.53966">
        <ele>286.2</ele>
        <time>2022-03-09T14:19:25Z</time>
      </trkpt>
      <trkpt lat="46.71123" lon="5.5397">
        <ele>286.4</ele>
        <time>2022-03-09T14:19:26Z</time>
      </trkpt>
      <trkpt lat="46.71121" lon="5.53974">
        <ele>286.4</ele>
        <time>2022-03-09T14:19:27Z</time>
      </trkpt>
      <trkpt lat="46.7112" lon="5.53979">
        <ele>286.8</ele>
        <time>2022-03-09T14:19:28Z</time>
      </trkpt>
      <trkpt lat="46.71118" lon="5.53983">
        <ele>286.8</ele>
        <time>2022-03-09T14:19:29Z</time>
      </trkpt>
      <trkpt lat="46.71116" lon="5.53988">
        <ele>287</ele>
        <time>2022-03-09T14:19:30Z</time>
      </trkpt>
      <trkpt lat="46.71114" lon="5.53992">
        <ele>287</ele>
        <time>2022-03-09T14:19:31Z</time>
      </trkpt>
      <trkpt lat="46.71112" lon="5.53996">
        <ele>287.4</ele>
        <time>2022-03-09T14:19:32Z</time>
      </trkpt>
      <trkpt lat="46.7111" lon="5.54">
        <ele>287.4</ele>
        <time>2022-03-09T14:19:33Z</time>
      </trkpt>
      <trkpt lat="46.71108" lon="5.54004">
        <ele>287.6</ele>
        <time>2022-03-09T14:19:34Z</time>
      </trkpt>
      <trkpt lat="46.71106" lon="5.54008">
        <ele>288</ele>
        <time>2022-03-09T14:19:35Z</time>
      </trkpt>
      <trkpt lat="46.71104" lon="5.54012">
        <ele>288</ele>
        <time>2022-03-09T14:19:36Z</time>
      </trkpt>
      <trkpt lat="46.71102" lon="5.54016">
        <ele>288.4</ele>
        <time>2022-03-09T14:19:37Z</time>
      </trkpt>
      <trkpt lat="46.711" lon="5.5402">
        <ele>288.4</ele>
        <time>2022-03-09T14:19:38Z</time>
      </trkpt>
      <trkpt lat="46.71099" lon="5.54024">
        <ele>288.6</ele>
        <time>2022-03-09T14:19:39Z</time>
      </trkpt>
      <trkpt lat="46.71097" lon="5.54028">
        <ele>288.6</ele>
        <time>2022-03-09T14:19:40Z</time>
      </trkpt>
      <trkpt lat="46.71095" lon="5.54032">
        <ele>288.6</ele>
        <time>2022-03-09T14:19:41Z</time>
      </trkpt>
      <trkpt lat="46.71092" lon="5.54036">
        <ele>288.8</ele>
        <time>2022-03-09T14:19:42Z</time>
      </trkpt>
      <trkpt lat="46.71088" lon="5.54039">
        <ele>288.8</ele>
        <time>2022-03-09T14:19:43Z</time>
      </trkpt>
      <trkpt lat="46.71085" lon="5.54042">
        <ele>288.8</ele>
        <time>2022-03-09T14:19:44Z</time>
      </trkpt>
      <trkpt lat="46.7108" lon="5.54044">
        <ele>288.8</ele>
        <time>2022-03-09T14:19:45Z</time>
      </trkpt>
      <trkpt lat="46.71075" lon="5.54046">
        <ele>288.6</ele>
        <time>2022-03-09T14:19:46Z</time>
      </trkpt>
      <trkpt lat="46.7107" lon="5.54047">
        <ele>288.6</ele>
        <time>2022-03-09T14:19:47Z</time>
      </trkpt>
      <trkpt lat="46.71064" lon="5.54048">
        <ele>288.2</ele>
        <time>2022-03-09T14:19:48Z</time>
      </trkpt>
      <trkpt lat="46.71058" lon="5.5405">
        <ele>287.8</ele>
        <time>2022-03-09T14:19:49Z</time>
      </trkpt>
      <trkpt lat="46.71051" lon="5.54051">
        <ele>287.4</ele>
        <time>2022-03-09T14:19:50Z</time>
      </trkpt>
      <trkpt lat="46.71045" lon="5.54053">
        <ele>287.2</ele>
        <time>2022-03-09T14:19:51Z</time>
      </trkpt>
      <trkpt lat="46.71038" lon="5.54056">
        <ele>286.6</ele>
        <time>2022-03-09T14:19:52Z</time>
      </trkpt>
      <trkpt lat="46.71032" lon="5.5406">
        <ele>286.2</ele>
        <time>2022-03-09T14:19:53Z</time>
      </trkpt>
      <trkpt lat="46.71026" lon="5.54066">
        <ele>286</ele>
        <time>2022-03-09T14:19:54Z</time>
      </trkpt>
      <trkpt lat="46.7102" lon="5.54073">
        <ele>285.6</ele>
        <time>2022-03-09T14:19:55Z</time>
      </trkpt>
      <trkpt lat="46.71014" lon="5.54082">
        <ele>285.2</ele>
        <time>2022-03-09T14:19:56Z</time>
      </trkpt>
      <trkpt lat="46.71009" lon="5.54091">
        <ele>284.8</ele>
        <time>2022-03-09T14:19:57Z</time>
      </trkpt>
      <trkpt lat="46.71005" lon="5.54101">
        <ele>284.4</ele>
        <time>2022-03-09T14:19:58Z</time>
      </trkpt>
      <trkpt lat="46.71" lon="5.54111">
        <ele>283.8</ele>
        <time>2022-03-09T14:19:59Z</time>
      </trkpt>
      <trkpt lat="46.70994" lon="5.54121">
        <ele>283.6</ele>
        <time>2022-03-09T14:20:00Z</time>
      </trkpt>
      <trkpt lat="46.70989" lon="5.54131">
        <ele>283</ele>
        <time>2022-03-09T14:20:01Z</time>
      </trkpt>
      <trkpt lat="46.70984" lon="5.54141">
        <ele>282.6</ele>
        <time>2022-03-09T14:20:02Z</time>
      </trkpt>
      <trkpt lat="46.70978" lon="5.5415">
        <ele>282.2</ele>
        <time>2022-03-09T14:20:03Z</time>
      </trkpt>
      <trkpt lat="46.70972" lon="5.54159">
        <ele>282</ele>
        <time>2022-03-09T14:20:04Z</time>
      </trkpt>
      <trkpt lat="46.70966" lon="5.54167">
        <ele>282</ele>
        <time>2022-03-09T14:20:05Z</time>
      </trkpt>
      <trkpt lat="46.7096" lon="5.54175">
        <ele>281.6</ele>
        <time>2022-03-09T14:20:06Z</time>
      </trkpt>
      <trkpt lat="46.70954" lon="5.54183">
        <ele>281.2</ele>
        <time>2022-03-09T14:20:07Z</time>
      </trkpt>
      <trkpt lat="46.70948" lon="5.54191">
        <ele>281</ele>
        <time>2022-03-09T14:20:08Z</time>
      </trkpt>
      <trkpt lat="46.70942" lon="5.54199">
        <ele>280.8</ele>
        <time>2022-03-09T14:20:09Z</time>
      </trkpt>
      <trkpt lat="46.70937" lon="5.54208">
        <ele>280.8</ele>
        <time>2022-03-09T14:20:10Z</time>
      </trkpt>
      <trkpt lat="46.70932" lon="5.54216">
        <ele>280.4</ele>
        <time>2022-03-09T14:20:11Z</time>
      </trkpt>
      <trkpt lat="46.70928" lon="5.54225">
        <ele>280.4</ele>
        <time>2022-03-09T14:20:12Z</time>
      </trkpt>
      <trkpt lat="46.70924" lon="5.54234">
        <ele>280.2</ele>
        <time>2022-03-09T14:20:13Z</time>
      </trkpt>
      <trkpt lat="46.7092" lon="5.54244">
        <ele>280.2</ele>
        <time>2022-03-09T14:20:14Z</time>
      </trkpt>
      <trkpt lat="46.70917" lon="5.54253">
        <ele>280.2</ele>
        <time>2022-03-09T14:20:15Z</time>
      </trkpt>
      <trkpt lat="46.70914" lon="5.54263">
        <ele>280</ele>
        <time>2022-03-09T14:20:16Z</time>
      </trkpt>
      <trkpt lat="46.70911" lon="5.54273">
        <ele>280</ele>
        <time>2022-03-09T14:20:17Z</time>
      </trkpt>
      <trkpt lat="46.70908" lon="5.54283">
        <ele>280</ele>
        <time>2022-03-09T14:20:18Z</time>
      </trkpt>
      <trkpt lat="46.70904" lon="5.54293">
        <ele>279.6</ele>
        <time>2022-03-09T14:20:19Z</time>
      </trkpt>
      <trkpt lat="46.70901" lon="5.54302">
        <ele>279.6</ele>
        <time>2022-03-09T14:20:20Z</time>
      </trkpt>
      <trkpt lat="46.70898" lon="5.54312">
        <ele>279.2</ele>
        <time>2022-03-09T14:20:21Z</time>
      </trkpt>
      <trkpt lat="46.70895" lon="5.54322">
        <ele>279</ele>
        <time>2022-03-09T14:20:22Z</time>
      </trkpt>
      <trkpt lat="46.70892" lon="5.54333">
        <ele>279</ele>
        <time>2022-03-09T14:20:23Z</time>
      </trkpt>
      <trkpt lat="46.70889" lon="5.54343">
        <ele>278.8</ele>
        <time>2022-03-09T14:20:24Z</time>
      </trkpt>
      <trkpt lat="46.70886" lon="5.54353">
        <ele>278.8</ele>
        <time>2022-03-09T14:20:25Z</time>
      </trkpt>
      <trkpt lat="46.70883" lon="5.54363">
        <ele>278.8</ele>
        <time>2022-03-09T14:20:26Z</time>
      </trkpt>
      <trkpt lat="46.70879" lon="5.54373">
        <ele>278.6</ele>
        <time>2022-03-09T14:20:27Z</time>
      </trkpt>
      <trkpt lat="46.70876" lon="5.54383">
        <ele>278.6</ele>
        <time>2022-03-09T14:20:28Z</time>
      </trkpt>
      <trkpt lat="46.70873" lon="5.54393">
        <ele>278.6</ele>
        <time>2022-03-09T14:20:29Z</time>
      </trkpt>
      <trkpt lat="46.7087" lon="5.54404">
        <ele>278.4</ele>
        <time>2022-03-09T14:20:30Z</time>
      </trkpt>
      <trkpt lat="46.70868" lon="5.54414">
        <ele>278.4</ele>
        <time>2022-03-09T14:20:31Z</time>
      </trkpt>
      <trkpt lat="46.70865" lon="5.54424">
        <ele>278.4</ele>
        <time>2022-03-09T14:20:32Z</time>
      </trkpt>
      <trkpt lat="46.70862" lon="5.54433">
        <ele>278.4</ele>
        <time>2022-03-09T14:20:33Z</time>
      </trkpt>
      <trkpt lat="46.70859" lon="5.54443">
        <ele>278.4</ele>
        <time>2022-03-09T14:20:34Z</time>
      </trkpt>
      <trkpt lat="46.70856" lon="5.54452">
        <ele>278.4</ele>
        <time>2022-03-09T14:20:35Z</time>
      </trkpt>
      <trkpt lat="46.70856" lon="5.54452">
        <ele>278.4</ele>
        <time>2022-03-09T14:20:36Z</time>
      </trkpt>
      <trkpt lat="46.70853" lon="5.54461">
        <ele>278.4</ele>
        <time>2022-03-09T14:20:37Z</time>
      </trkpt>
      <trkpt lat="46.70851" lon="5.5447">
        <ele>278.4</ele>
        <time>2022-03-09T14:20:38Z</time>
      </trkpt>
      <trkpt lat="46.70848" lon="5.54479">
        <ele>278.6</ele>
        <time>2022-03-09T14:20:39Z</time>
      </trkpt>
      <trkpt lat="46.70846" lon="5.54487">
        <ele>278.6</ele>
        <time>2022-03-09T14:20:40Z</time>
      </trkpt>
      <trkpt lat="46.70843" lon="5.54496">
        <ele>279</ele>
        <time>2022-03-09T14:20:41Z</time>
      </trkpt>
      <trkpt lat="46.70842" lon="5.54504">
        <ele>279</ele>
        <time>2022-03-09T14:20:42Z</time>
      </trkpt>
      <trkpt lat="46.7084" lon="5.54512">
        <ele>279.2</ele>
        <time>2022-03-09T14:20:43Z</time>
      </trkpt>
      <trkpt lat="46.70839" lon="5.5452">
        <ele>279.2</ele>
        <time>2022-03-09T14:20:44Z</time>
      </trkpt>
      <trkpt lat="46.70838" lon="5.54529">
        <ele>279.4</ele>
        <time>2022-03-09T14:20:45Z</time>
      </trkpt>
      <trkpt lat="46.70838" lon="5.54537">
        <ele>279.4</ele>
        <time>2022-03-09T14:20:46Z</time>
      </trkpt>
      <trkpt lat="46.70838" lon="5.54544">
        <ele>279.8</ele>
        <time>2022-03-09T14:20:47Z</time>
      </trkpt>
      <trkpt lat="46.70838" lon="5.54552">
        <ele>279.8</ele>
        <time>2022-03-09T14:20:48Z</time>
      </trkpt>
      <trkpt lat="46.70839" lon="5.5456">
        <ele>280</ele>
        <time>2022-03-09T14:20:49Z</time>
      </trkpt>
      <trkpt lat="46.7084" lon="5.54567">
        <ele>280</ele>
        <time>2022-03-09T14:20:50Z</time>
      </trkpt>
      <trkpt lat="46.70842" lon="5.54575">
        <ele>280.4</ele>
        <time>2022-03-09T14:20:51Z</time>
      </trkpt>
      <trkpt lat="46.70843" lon="5.54582">
        <ele>280.4</ele>
        <time>2022-03-09T14:20:52Z</time>
      </trkpt>
      <trkpt lat="46.70844" lon="5.5459">
        <ele>280.6</ele>
        <time>2022-03-09T14:20:53Z</time>
      </trkpt>
      <trkpt lat="46.70846" lon="5.54597">
        <ele>280.6</ele>
        <time>2022-03-09T14:20:54Z</time>
      </trkpt>
      <trkpt lat="46.70847" lon="5.54605">
        <ele>281</ele>
        <time>2022-03-09T14:20:55Z</time>
      </trkpt>
      <trkpt lat="46.70849" lon="5.54612">
        <ele>281.2</ele>
        <time>2022-03-09T14:20:56Z</time>
      </trkpt>
      <trkpt lat="46.70851" lon="5.54619">
        <ele>281.2</ele>
        <time>2022-03-09T14:20:57Z</time>
      </trkpt>
      <trkpt lat="46.70852" lon="5.54627">
        <ele>281.6</ele>
        <time>2022-03-09T14:20:58Z</time>
      </trkpt>
      <trkpt lat="46.70854" lon="5.54634">
        <ele>281.8</ele>
        <time>2022-03-09T14:20:59Z</time>
      </trkpt>
      <trkpt lat="46.70855" lon="5.54641">
        <ele>282.2</ele>
        <time>2022-03-09T14:21:00Z</time>
      </trkpt>
      <trkpt lat="46.70857" lon="5.54648">
        <ele>282.4</ele>
        <time>2022-03-09T14:21:01Z</time>
      </trkpt>
      <trkpt lat="46.70858" lon="5.54655">
        <ele>282.6</ele>
        <time>2022-03-09T14:21:02Z</time>
      </trkpt>
      <trkpt lat="46.7086" lon="5.54662">
        <ele>283</ele>
        <time>2022-03-09T14:21:03Z</time>
      </trkpt>
      <trkpt lat="46.70861" lon="5.54669">
        <ele>283.2</ele>
        <time>2022-03-09T14:21:04Z</time>
      </trkpt>
      <trkpt lat="46.70863" lon="5.54675">
        <ele>283.2</ele>
        <time>2022-03-09T14:21:05Z</time>
      </trkpt>
      <trkpt lat="46.70864" lon="5.54682">
        <ele>283.6</ele>
        <time>2022-03-09T14:21:06Z</time>
      </trkpt>
      <trkpt lat="46.70865" lon="5.54688">
        <ele>283.6</ele>
        <time>2022-03-09T14:21:07Z</time>
      </trkpt>
      <trkpt lat="46.70866" lon="5.54695">
        <ele>283.8</ele>
        <time>2022-03-09T14:21:08Z</time>
      </trkpt>
      <trkpt lat="46.70867" lon="5.54701">
        <ele>283.8</ele>
        <time>2022-03-09T14:21:09Z</time>
      </trkpt>
      <trkpt lat="46.70868" lon="5.54708">
        <ele>284.2</ele>
        <time>2022-03-09T14:21:10Z</time>
      </trkpt>
      <trkpt lat="46.70869" lon="5.54715">
        <ele>284.2</ele>
        <time>2022-03-09T14:21:11Z</time>
      </trkpt>
      <trkpt lat="46.7087" lon="5.54722">
        <ele>284.2</ele>
        <time>2022-03-09T14:21:12Z</time>
      </trkpt>
      <trkpt lat="46.70871" lon="5.54729">
        <ele>284.4</ele>
        <time>2022-03-09T14:21:13Z</time>
      </trkpt>
      <trkpt lat="46.70871" lon="5.54737">
        <ele>284.4</ele>
        <time>2022-03-09T14:21:14Z</time>
      </trkpt>
      <trkpt lat="46.70871" lon="5.54745">
        <ele>284.4</ele>
        <time>2022-03-09T14:21:15Z</time>
      </trkpt>
      <trkpt lat="46.7087" lon="5.54753">
        <ele>284.4</ele>
        <time>2022-03-09T14:21:16Z</time>
      </trkpt>
      <trkpt lat="46.70869" lon="5.54761">
        <ele>284.4</ele>
        <time>2022-03-09T14:21:17Z</time>
      </trkpt>
      <trkpt lat="46.70867" lon="5.54769">
        <ele>284.6</ele>
        <time>2022-03-09T14:21:18Z</time>
      </trkpt>
      <trkpt lat="46.70864" lon="5.54776">
        <ele>284.6</ele>
        <time>2022-03-09T14:21:19Z</time>
      </trkpt>
      <trkpt lat="46.70861" lon="5.54784">
        <ele>284.8</ele>
        <time>2022-03-09T14:21:20Z</time>
      </trkpt>
      <trkpt lat="46.70857" lon="5.54791">
        <ele>284.8</ele>
        <time>2022-03-09T14:21:21Z</time>
      </trkpt>
      <trkpt lat="46.70853" lon="5.54798">
        <ele>284.8</ele>
        <time>2022-03-09T14:21:22Z</time>
      </trkpt>
      <trkpt lat="46.70849" lon="5.54804">
        <ele>284.8</ele>
        <time>2022-03-09T14:21:23Z</time>
      </trkpt>
      <trkpt lat="46.70844" lon="5.5481">
        <ele>284.8</ele>
        <time>2022-03-09T14:21:24Z</time>
      </trkpt>
      <trkpt lat="46.70839" lon="5.54814">
        <ele>284.8</ele>
        <time>2022-03-09T14:21:25Z</time>
      </trkpt>
      <trkpt lat="46.70833" lon="5.54818">
        <ele>284.8</ele>
        <time>2022-03-09T14:21:26Z</time>
      </trkpt>
      <trkpt lat="46.70827" lon="5.54822">
        <ele>284.8</ele>
        <time>2022-03-09T14:21:27Z</time>
      </trkpt>
      <trkpt lat="46.70821" lon="5.54825">
        <ele>284.6</ele>
        <time>2022-03-09T14:21:28Z</time>
      </trkpt>
      <trkpt lat="46.70815" lon="5.5483">
        <ele>284.6</ele>
        <time>2022-03-09T14:21:29Z</time>
      </trkpt>
      <trkpt lat="46.70809" lon="5.54834">
        <ele>284.6</ele>
        <time>2022-03-09T14:21:30Z</time>
      </trkpt>
      <trkpt lat="46.70803" lon="5.5484">
        <ele>284.2</ele>
        <time>2022-03-09T14:21:31Z</time>
      </trkpt>
      <trkpt lat="46.70797" lon="5.54846">
        <ele>284.2</ele>
        <time>2022-03-09T14:21:32Z</time>
      </trkpt>
      <trkpt lat="46.70791" lon="5.54853">
        <ele>284</ele>
        <time>2022-03-09T14:21:33Z</time>
      </trkpt>
      <trkpt lat="46.70785" lon="5.54859">
        <ele>284</ele>
        <time>2022-03-09T14:21:34Z</time>
      </trkpt>
      <trkpt lat="46.70779" lon="5.54865">
        <ele>284</ele>
        <time>2022-03-09T14:21:35Z</time>
      </trkpt>
      <trkpt lat="46.70773" lon="5.5487">
        <ele>283.6</ele>
        <time>2022-03-09T14:21:36Z</time>
      </trkpt>
      <trkpt lat="46.70767" lon="5.54875">
        <ele>283.6</ele>
        <time>2022-03-09T14:21:37Z</time>
      </trkpt>
      <trkpt lat="46.70761" lon="5.54879">
        <ele>283.2</ele>
        <time>2022-03-09T14:21:38Z</time>
      </trkpt>
      <trkpt lat="46.70757" lon="5.54881">
        <ele>283</ele>
        <time>2022-03-09T14:21:39Z</time>
      </trkpt>
      <trkpt lat="46.70754" lon="5.54882">
        <ele>282.8</ele>
        <time>2022-03-09T14:21:40Z</time>
      </trkpt>
      <trkpt lat="46.7075" lon="5.54882">
        <ele>282.8</ele>
        <time>2022-03-09T14:21:41Z</time>
      </trkpt>
      <trkpt lat="46.70746" lon="5.54881">
        <ele>282.6</ele>
        <time>2022-03-09T14:21:42Z</time>
      </trkpt>
      <trkpt lat="46.70743" lon="5.54879">
        <ele>282.6</ele>
        <time>2022-03-09T14:21:43Z</time>
      </trkpt>
      <trkpt lat="46.70739" lon="5.54878">
        <ele>282.6</ele>
        <time>2022-03-09T14:21:44Z</time>
      </trkpt>
      <trkpt lat="46.70735" lon="5.54877">
        <ele>282.4</ele>
        <time>2022-03-09T14:21:45Z</time>
      </trkpt>
      <trkpt lat="46.7073" lon="5.54878">
        <ele>282.4</ele>
        <time>2022-03-09T14:21:46Z</time>
      </trkpt>
      <trkpt lat="46.70725" lon="5.5488">
        <ele>282.4</ele>
        <time>2022-03-09T14:21:47Z</time>
      </trkpt>
      <trkpt lat="46.7072" lon="5.54883">
        <ele>282.4</ele>
        <time>2022-03-09T14:21:48Z</time>
      </trkpt>
      <trkpt lat="46.70715" lon="5.54888">
        <ele>282</ele>
        <time>2022-03-09T14:21:49Z</time>
      </trkpt>
      <trkpt lat="46.70711" lon="5.54894">
        <ele>282</ele>
        <time>2022-03-09T14:21:50Z</time>
      </trkpt>
      <trkpt lat="46.70708" lon="5.54902">
        <ele>282</ele>
        <time>2022-03-09T14:21:51Z</time>
      </trkpt>
      <trkpt lat="46.70707" lon="5.5491">
        <ele>282</ele>
        <time>2022-03-09T14:21:52Z</time>
      </trkpt>
      <trkpt lat="46.70706" lon="5.54918">
        <ele>281.8</ele>
        <time>2022-03-09T14:21:53Z</time>
      </trkpt>
      <trkpt lat="46.70705" lon="5.54927">
        <ele>281.8</ele>
        <time>2022-03-09T14:21:54Z</time>
      </trkpt>
      <trkpt lat="46.70704" lon="5.54936">
        <ele>281.8</ele>
        <time>2022-03-09T14:21:55Z</time>
      </trkpt>
      <trkpt lat="46.70701" lon="5.54944">
        <ele>281.6</ele>
        <time>2022-03-09T14:21:56Z</time>
      </trkpt>
      <trkpt lat="46.70697" lon="5.54953">
        <ele>281.6</ele>
        <time>2022-03-09T14:21:57Z</time>
      </trkpt>
      <trkpt lat="46.70692" lon="5.5496">
        <ele>281.4</ele>
        <time>2022-03-09T14:21:58Z</time>
      </trkpt>
      <trkpt lat="46.70687" lon="5.54967">
        <ele>281.4</ele>
        <time>2022-03-09T14:21:59Z</time>
      </trkpt>
      <trkpt lat="46.70681" lon="5.54973">
        <ele>281</ele>
        <time>2022-03-09T14:22:00Z</time>
      </trkpt>
      <trkpt lat="46.70675" lon="5.54981">
        <ele>281</ele>
        <time>2022-03-09T14:22:01Z</time>
      </trkpt>
      <trkpt lat="46.70662" lon="5.54996">
        <ele>280.6</ele>
        <time>2022-03-09T14:22:02Z</time>
      </trkpt>
      <trkpt lat="46.70655" lon="5.55003">
        <ele>280.4</ele>
        <time>2022-03-09T14:22:03Z</time>
      </trkpt>
      <trkpt lat="46.70648" lon="5.55011">
        <ele>280</ele>
        <time>2022-03-09T14:22:04Z</time>
      </trkpt>
      <trkpt lat="46.70641" lon="5.55019">
        <ele>279.8</ele>
        <time>2022-03-09T14:22:05Z</time>
      </trkpt>
      <trkpt lat="46.70634" lon="5.55027">
        <ele>279.4</ele>
        <time>2022-03-09T14:22:06Z</time>
      </trkpt>
      <trkpt lat="46.70627" lon="5.55036">
        <ele>279.2</ele>
        <time>2022-03-09T14:22:07Z</time>
      </trkpt>
      <trkpt lat="46.70619" lon="5.55045">
        <ele>278.8</ele>
        <time>2022-03-09T14:22:08Z</time>
      </trkpt>
      <trkpt lat="46.70612" lon="5.55053">
        <ele>278.4</ele>
        <time>2022-03-09T14:22:09Z</time>
      </trkpt>
      <trkpt lat="46.70605" lon="5.55062">
        <ele>278</ele>
        <time>2022-03-09T14:22:10Z</time>
      </trkpt>
      <trkpt lat="46.70597" lon="5.55072">
        <ele>277.6</ele>
        <time>2022-03-09T14:22:11Z</time>
      </trkpt>
      <trkpt lat="46.70588" lon="5.55082">
        <ele>277.2</ele>
        <time>2022-03-09T14:22:12Z</time>
      </trkpt>
      <trkpt lat="46.70581" lon="5.55093">
        <ele>276.8</ele>
        <time>2022-03-09T14:22:13Z</time>
      </trkpt>
      <trkpt lat="46.70573" lon="5.55102">
        <ele>276.2</ele>
        <time>2022-03-09T14:22:14Z</time>
      </trkpt>
      <trkpt lat="46.70565" lon="5.5511">
        <ele>275.8</ele>
        <time>2022-03-09T14:22:15Z</time>
      </trkpt>
      <trkpt lat="46.70557" lon="5.55119">
        <ele>275.4</ele>
        <time>2022-03-09T14:22:16Z</time>
      </trkpt>
      <trkpt lat="46.70549" lon="5.55128">
        <ele>275</ele>
        <time>2022-03-09T14:22:17Z</time>
      </trkpt>
      <trkpt lat="46.70541" lon="5.55136">
        <ele>274.6</ele>
        <time>2022-03-09T14:22:18Z</time>
      </trkpt>
      <trkpt lat="46.70532" lon="5.55144">
        <ele>274.2</ele>
        <time>2022-03-09T14:22:19Z</time>
      </trkpt>
      <trkpt lat="46.70523" lon="5.55154">
        <ele>273.8</ele>
        <time>2022-03-09T14:22:20Z</time>
      </trkpt>
      <trkpt lat="46.70516" lon="5.55164">
        <ele>273.4</ele>
        <time>2022-03-09T14:22:21Z</time>
      </trkpt>
      <trkpt lat="46.70508" lon="5.55174">
        <ele>273</ele>
        <time>2022-03-09T14:22:22Z</time>
      </trkpt>
      <trkpt lat="46.705" lon="5.55184">
        <ele>272.6</ele>
        <time>2022-03-09T14:22:23Z</time>
      </trkpt>
      <trkpt lat="46.70493" lon="5.55194">
        <ele>272.2</ele>
        <time>2022-03-09T14:22:24Z</time>
      </trkpt>
      <trkpt lat="46.70486" lon="5.55203">
        <ele>271.6</ele>
        <time>2022-03-09T14:22:25Z</time>
      </trkpt>
      <trkpt lat="46.70477" lon="5.55213">
        <ele>271.2</ele>
        <time>2022-03-09T14:22:26Z</time>
      </trkpt>
      <trkpt lat="46.7047" lon="5.55221">
        <ele>270.8</ele>
        <time>2022-03-09T14:22:27Z</time>
      </trkpt>
      <trkpt lat="46.70462" lon="5.55231">
        <ele>270.4</ele>
        <time>2022-03-09T14:22:28Z</time>
      </trkpt>
      <trkpt lat="46.70454" lon="5.5524">
        <ele>270</ele>
        <time>2022-03-09T14:22:29Z</time>
      </trkpt>
      <trkpt lat="46.70445" lon="5.5525">
        <ele>269.6</ele>
        <time>2022-03-09T14:22:30Z</time>
      </trkpt>
      <trkpt lat="46.70437" lon="5.5526">
        <ele>269.2</ele>
        <time>2022-03-09T14:22:31Z</time>
      </trkpt>
      <trkpt lat="46.70429" lon="5.55269">
        <ele>269</ele>
        <time>2022-03-09T14:22:32Z</time>
      </trkpt>
      <trkpt lat="46.70421" lon="5.55277">
        <ele>269</ele>
        <time>2022-03-09T14:22:33Z</time>
      </trkpt>
      <trkpt lat="46.70413" lon="5.55286">
        <ele>268.8</ele>
        <time>2022-03-09T14:22:34Z</time>
      </trkpt>
      <trkpt lat="46.70406" lon="5.55295">
        <ele>268.8</ele>
        <time>2022-03-09T14:22:35Z</time>
      </trkpt>
      <trkpt lat="46.70398" lon="5.55304">
        <ele>268.8</ele>
        <time>2022-03-09T14:22:36Z</time>
      </trkpt>
      <trkpt lat="46.70391" lon="5.55312">
        <ele>268.4</ele>
        <time>2022-03-09T14:22:37Z</time>
      </trkpt>
      <trkpt lat="46.70384" lon="5.5532">
        <ele>268.4</ele>
        <time>2022-03-09T14:22:38Z</time>
      </trkpt>
      <trkpt lat="46.70378" lon="5.55328">
        <ele>268.4</ele>
        <time>2022-03-09T14:22:39Z</time>
      </trkpt>
      <trkpt lat="46.70371" lon="5.55336">
        <ele>268.4</ele>
        <time>2022-03-09T14:22:40Z</time>
      </trkpt>
      <trkpt lat="46.70365" lon="5.55343">
        <ele>268.4</ele>
        <time>2022-03-09T14:22:41Z</time>
      </trkpt>
      <trkpt lat="46.70358" lon="5.55351">
        <ele>268.2</ele>
        <time>2022-03-09T14:22:42Z</time>
      </trkpt>
      <trkpt lat="46.70352" lon="5.55359">
        <ele>268.2</ele>
        <time>2022-03-09T14:22:43Z</time>
      </trkpt>
      <trkpt lat="46.70345" lon="5.55366">
        <ele>268.2</ele>
        <time>2022-03-09T14:22:44Z</time>
      </trkpt>
      <trkpt lat="46.70339" lon="5.55373">
        <ele>268.2</ele>
        <time>2022-03-09T14:22:45Z</time>
      </trkpt>
      <trkpt lat="46.70332" lon="5.55381">
        <ele>268.2</ele>
        <time>2022-03-09T14:22:46Z</time>
      </trkpt>
      <trkpt lat="46.70326" lon="5.55388">
        <ele>267.8</ele>
        <time>2022-03-09T14:22:47Z</time>
      </trkpt>
      <trkpt lat="46.7032" lon="5.55395">
        <ele>267.8</ele>
        <time>2022-03-09T14:22:48Z</time>
      </trkpt>
      <trkpt lat="46.70313" lon="5.55401">
        <ele>267.8</ele>
        <time>2022-03-09T14:22:49Z</time>
      </trkpt>
      <trkpt lat="46.70307" lon="5.55408">
        <ele>267.8</ele>
        <time>2022-03-09T14:22:50Z</time>
      </trkpt>
      <trkpt lat="46.70301" lon="5.55414">
        <ele>267.6</ele>
        <time>2022-03-09T14:22:51Z</time>
      </trkpt>
      <trkpt lat="46.70294" lon="5.5542">
        <ele>267.6</ele>
        <time>2022-03-09T14:22:52Z</time>
      </trkpt>
      <trkpt lat="46.70287" lon="5.55425">
        <ele>267.6</ele>
        <time>2022-03-09T14:22:53Z</time>
      </trkpt>
      <trkpt lat="46.70281" lon="5.5543">
        <ele>267.6</ele>
        <time>2022-03-09T14:22:54Z</time>
      </trkpt>
      <trkpt lat="46.70274" lon="5.55435">
        <ele>267.6</ele>
        <time>2022-03-09T14:22:55Z</time>
      </trkpt>
      <trkpt lat="46.70267" lon="5.55439">
        <ele>267.6</ele>
        <time>2022-03-09T14:22:56Z</time>
      </trkpt>
      <trkpt lat="46.7026" lon="5.55443">
        <ele>267.6</ele>
        <time>2022-03-09T14:22:57Z</time>
      </trkpt>
      <trkpt lat="46.70253" lon="5.55447">
        <ele>267.6</ele>
        <time>2022-03-09T14:22:58Z</time>
      </trkpt>
      <trkpt lat="46.70247" lon="5.55451">
        <ele>267.6</ele>
        <time>2022-03-09T14:22:59Z</time>
      </trkpt>
      <trkpt lat="46.7024" lon="5.55454">
        <ele>268.2</ele>
        <time>2022-03-09T14:23:00Z</time>
      </trkpt>
      <trkpt lat="46.70233" lon="5.55457">
        <ele>268.2</ele>
        <time>2022-03-09T14:23:01Z</time>
      </trkpt>
      <trkpt lat="46.70226" lon="5.5546">
        <ele>268.4</ele>
        <time>2022-03-09T14:23:02Z</time>
      </trkpt>
      <trkpt lat="46.7022" lon="5.55463">
        <ele>268.4</ele>
        <time>2022-03-09T14:23:03Z</time>
      </trkpt>
      <trkpt lat="46.70213" lon="5.55465">
        <ele>268.8</ele>
        <time>2022-03-09T14:23:04Z</time>
      </trkpt>
      <trkpt lat="46.70206" lon="5.55466">
        <ele>268.8</ele>
        <time>2022-03-09T14:23:05Z</time>
      </trkpt>
      <trkpt lat="46.70199" lon="5.55468">
        <ele>269</ele>
        <time>2022-03-09T14:23:06Z</time>
      </trkpt>
      <trkpt lat="46.70192" lon="5.55469">
        <ele>269.4</ele>
        <time>2022-03-09T14:23:07Z</time>
      </trkpt>
      <trkpt lat="46.70186" lon="5.55471">
        <ele>269.4</ele>
        <time>2022-03-09T14:23:08Z</time>
      </trkpt>
      <trkpt lat="46.70179" lon="5.55471">
        <ele>269.6</ele>
        <time>2022-03-09T14:23:09Z</time>
      </trkpt>
      <trkpt lat="46.70172" lon="5.55472">
        <ele>269.6</ele>
        <time>2022-03-09T14:23:10Z</time>
      </trkpt>
      <trkpt lat="46.70166" lon="5.55472">
        <ele>269.8</ele>
        <time>2022-03-09T14:23:11Z</time>
      </trkpt>
      <trkpt lat="46.70159" lon="5.55473">
        <ele>269.8</ele>
        <time>2022-03-09T14:23:12Z</time>
      </trkpt>
      <trkpt lat="46.70153" lon="5.55474">
        <ele>270.2</ele>
        <time>2022-03-09T14:23:13Z</time>
      </trkpt>
      <trkpt lat="46.70147" lon="5.55474">
        <ele>270.2</ele>
        <time>2022-03-09T14:23:14Z</time>
      </trkpt>
      <trkpt lat="46.70141" lon="5.55474">
        <ele>270.4</ele>
        <time>2022-03-09T14:23:15Z</time>
      </trkpt>
      <trkpt lat="46.70135" lon="5.55475">
        <ele>270.4</ele>
        <time>2022-03-09T14:23:16Z</time>
      </trkpt>
      <trkpt lat="46.70128" lon="5.55475">
        <ele>270.6</ele>
        <time>2022-03-09T14:23:17Z</time>
      </trkpt>
      <trkpt lat="46.70123" lon="5.55475">
        <ele>270.6</ele>
        <time>2022-03-09T14:23:18Z</time>
      </trkpt>
      <trkpt lat="46.70117" lon="5.55476">
        <ele>270.8</ele>
        <time>2022-03-09T14:23:19Z</time>
      </trkpt>
      <trkpt lat="46.70111" lon="5.55476">
        <ele>270.8</ele>
        <time>2022-03-09T14:23:20Z</time>
      </trkpt>
      <trkpt lat="46.70105" lon="5.55477">
        <ele>270.8</ele>
        <time>2022-03-09T14:23:21Z</time>
      </trkpt>
      <trkpt lat="46.70099" lon="5.55477">
        <ele>271.2</ele>
        <time>2022-03-09T14:23:22Z</time>
      </trkpt>
      <trkpt lat="46.70093" lon="5.55478">
        <ele>271.4</ele>
        <time>2022-03-09T14:23:23Z</time>
      </trkpt>
      <trkpt lat="46.70088" lon="5.55478">
        <ele>271.6</ele>
        <time>2022-03-09T14:23:24Z</time>
      </trkpt>
      <trkpt lat="46.70082" lon="5.55478">
        <ele>271.8</ele>
        <time>2022-03-09T14:23:25Z</time>
      </trkpt>
      <trkpt lat="46.70077" lon="5.55479">
        <ele>271.8</ele>
        <time>2022-03-09T14:23:26Z</time>
      </trkpt>
      <trkpt lat="46.70072" lon="5.55479">
        <ele>272.2</ele>
        <time>2022-03-09T14:23:27Z</time>
      </trkpt>
      <trkpt lat="46.70067" lon="5.5548">
        <ele>272.8</ele>
        <time>2022-03-09T14:23:28Z</time>
      </trkpt>
      <trkpt lat="46.70061" lon="5.55481">
        <ele>272.8</ele>
        <time>2022-03-09T14:23:29Z</time>
      </trkpt>
      <trkpt lat="46.70056" lon="5.55482">
        <ele>273</ele>
        <time>2022-03-09T14:23:30Z</time>
      </trkpt>
      <trkpt lat="46.70051" lon="5.55483">
        <ele>273</ele>
        <time>2022-03-09T14:23:31Z</time>
      </trkpt>
      <trkpt lat="46.70046" lon="5.55484">
        <ele>273</ele>
        <time>2022-03-09T14:23:32Z</time>
      </trkpt>
      <trkpt lat="46.70041" lon="5.55486">
        <ele>273.2</ele>
        <time>2022-03-09T14:23:33Z</time>
      </trkpt>
      <trkpt lat="46.70035" lon="5.55487">
        <ele>273.2</ele>
        <time>2022-03-09T14:23:34Z</time>
      </trkpt>
      <trkpt lat="46.7003" lon="5.55488">
        <ele>273.2</ele>
        <time>2022-03-09T14:23:35Z</time>
      </trkpt>
      <trkpt lat="46.70025" lon="5.5549">
        <ele>273.2</ele>
        <time>2022-03-09T14:23:36Z</time>
      </trkpt>
      <trkpt lat="46.7002" lon="5.55492">
        <ele>273.4</ele>
        <time>2022-03-09T14:23:37Z</time>
      </trkpt>
      <trkpt lat="46.70014" lon="5.55494">
        <ele>273.4</ele>
        <time>2022-03-09T14:23:38Z</time>
      </trkpt>
      <trkpt lat="46.70009" lon="5.55496">
        <ele>273.6</ele>
        <time>2022-03-09T14:23:39Z</time>
      </trkpt>
      <trkpt lat="46.70004" lon="5.55498">
        <ele>273.6</ele>
        <time>2022-03-09T14:23:40Z</time>
      </trkpt>
      <trkpt lat="46.69999" lon="5.55501">
        <ele>273.6</ele>
        <time>2022-03-09T14:23:41Z</time>
      </trkpt>
      <trkpt lat="46.69993" lon="5.55503">
        <ele>273.6</ele>
        <time>2022-03-09T14:23:42Z</time>
      </trkpt>
      <trkpt lat="46.69987" lon="5.55506">
        <ele>273.8</ele>
        <time>2022-03-09T14:23:43Z</time>
      </trkpt>
      <trkpt lat="46.69982" lon="5.55509">
        <ele>273.8</ele>
        <time>2022-03-09T14:23:44Z</time>
      </trkpt>
      <trkpt lat="46.69977" lon="5.55512">
        <ele>273.8</ele>
        <time>2022-03-09T14:23:45Z</time>
      </trkpt>
      <trkpt lat="46.69971" lon="5.55515">
        <ele>274.2</ele>
        <time>2022-03-09T14:23:46Z</time>
      </trkpt>
      <trkpt lat="46.69966" lon="5.55517">
        <ele>274.6</ele>
        <time>2022-03-09T14:23:47Z</time>
      </trkpt>
      <trkpt lat="46.6996" lon="5.5552">
        <ele>274.6</ele>
        <time>2022-03-09T14:23:48Z</time>
      </trkpt>
      <trkpt lat="46.69955" lon="5.55523">
        <ele>274.6</ele>
        <time>2022-03-09T14:23:49Z</time>
      </trkpt>
      <trkpt lat="46.69949" lon="5.55526">
        <ele>275</ele>
        <time>2022-03-09T14:23:50Z</time>
      </trkpt>
      <trkpt lat="46.69944" lon="5.55529">
        <ele>275</ele>
        <time>2022-03-09T14:23:51Z</time>
      </trkpt>
      <trkpt lat="46.69938" lon="5.55531">
        <ele>275.2</ele>
        <time>2022-03-09T14:23:52Z</time>
      </trkpt>
      <trkpt lat="46.69933" lon="5.55534">
        <ele>275.2</ele>
        <time>2022-03-09T14:23:53Z</time>
      </trkpt>
      <trkpt lat="46.69927" lon="5.55537">
        <ele>275.6</ele>
        <time>2022-03-09T14:23:54Z</time>
      </trkpt>
      <trkpt lat="46.69922" lon="5.55541">
        <ele>275.6</ele>
        <time>2022-03-09T14:23:55Z</time>
      </trkpt>
      <trkpt lat="46.69917" lon="5.55543">
        <ele>275.8</ele>
        <time>2022-03-09T14:23:56Z</time>
      </trkpt>
      <trkpt lat="46.69911" lon="5.55546">
        <ele>275.8</ele>
        <time>2022-03-09T14:23:57Z</time>
      </trkpt>
      <trkpt lat="46.69905" lon="5.55549">
        <ele>275.8</ele>
        <time>2022-03-09T14:23:58Z</time>
      </trkpt>
      <trkpt lat="46.699" lon="5.55552">
        <ele>276.2</ele>
        <time>2022-03-09T14:23:59Z</time>
      </trkpt>
      <trkpt lat="46.69894" lon="5.55555">
        <ele>276.2</ele>
        <time>2022-03-09T14:24:00Z</time>
      </trkpt>
      <trkpt lat="46.69889" lon="5.55558">
        <ele>276.4</ele>
        <time>2022-03-09T14:24:01Z</time>
      </trkpt>
      <trkpt lat="46.69883" lon="5.55561">
        <ele>276.4</ele>
        <time>2022-03-09T14:24:02Z</time>
      </trkpt>
      <trkpt lat="46.69878" lon="5.55564">
        <ele>276.6</ele>
        <time>2022-03-09T14:24:03Z</time>
      </trkpt>
      <trkpt lat="46.69872" lon="5.55567">
        <ele>276.6</ele>
        <time>2022-03-09T14:24:04Z</time>
      </trkpt>
      <trkpt lat="46.69867" lon="5.5557">
        <ele>277</ele>
        <time>2022-03-09T14:24:05Z</time>
      </trkpt>
      <trkpt lat="46.69861" lon="5.55573">
        <ele>277</ele>
        <time>2022-03-09T14:24:06Z</time>
      </trkpt>
      <trkpt lat="46.69856" lon="5.55575">
        <ele>277.2</ele>
        <time>2022-03-09T14:24:07Z</time>
      </trkpt>
      <trkpt lat="46.69851" lon="5.55578">
        <ele>277.4</ele>
        <time>2022-03-09T14:24:08Z</time>
      </trkpt>
      <trkpt lat="46.69845" lon="5.55581">
        <ele>277.4</ele>
        <time>2022-03-09T14:24:09Z</time>
      </trkpt>
      <trkpt lat="46.6984" lon="5.55584">
        <ele>277.8</ele>
        <time>2022-03-09T14:24:10Z</time>
      </trkpt>
      <trkpt lat="46.69834" lon="5.55587">
        <ele>277.8</ele>
        <time>2022-03-09T14:24:11Z</time>
      </trkpt>
      <trkpt lat="46.69829" lon="5.5559">
        <ele>278</ele>
        <time>2022-03-09T14:24:12Z</time>
      </trkpt>
      <trkpt lat="46.69823" lon="5.55593">
        <ele>278</ele>
        <time>2022-03-09T14:24:13Z</time>
      </trkpt>
      <trkpt lat="46.69818" lon="5.55596">
        <ele>278.4</ele>
        <time>2022-03-09T14:24:14Z</time>
      </trkpt>
      <trkpt lat="46.69812" lon="5.55599">
        <ele>278.4</ele>
        <time>2022-03-09T14:24:15Z</time>
      </trkpt>
      <trkpt lat="46.69807" lon="5.55602">
        <ele>278.6</ele>
        <time>2022-03-09T14:24:16Z</time>
      </trkpt>
      <trkpt lat="46.69801" lon="5.55604">
        <ele>278.6</ele>
        <time>2022-03-09T14:24:17Z</time>
      </trkpt>
      <trkpt lat="46.69796" lon="5.55607">
        <ele>278.8</ele>
        <time>2022-03-09T14:24:18Z</time>
      </trkpt>
      <trkpt lat="46.69791" lon="5.5561">
        <ele>278.8</ele>
        <time>2022-03-09T14:24:19Z</time>
      </trkpt>
      <trkpt lat="46.69785" lon="5.55613">
        <ele>278.8</ele>
        <time>2022-03-09T14:24:20Z</time>
      </trkpt>
      <trkpt lat="46.6978" lon="5.55616">
        <ele>279.2</ele>
        <time>2022-03-09T14:24:21Z</time>
      </trkpt>
      <trkpt lat="46.69774" lon="5.55619">
        <ele>279.2</ele>
        <time>2022-03-09T14:24:22Z</time>
      </trkpt>
      <trkpt lat="46.69769" lon="5.55622">
        <ele>279.4</ele>
        <time>2022-03-09T14:24:23Z</time>
      </trkpt>
      <trkpt lat="46.69763" lon="5.55625">
        <ele>279.4</ele>
        <time>2022-03-09T14:24:24Z</time>
      </trkpt>
      <trkpt lat="46.69758" lon="5.55628">
        <ele>279.4</ele>
        <time>2022-03-09T14:24:25Z</time>
      </trkpt>
      <trkpt lat="46.69752" lon="5.55631">
        <ele>279.6</ele>
        <time>2022-03-09T14:24:26Z</time>
      </trkpt>
      <trkpt lat="46.69746" lon="5.55634">
        <ele>279.6</ele>
        <time>2022-03-09T14:24:27Z</time>
      </trkpt>
      <trkpt lat="46.6974" lon="5.55637">
        <ele>279.8</ele>
        <time>2022-03-09T14:24:28Z</time>
      </trkpt>
      <trkpt lat="46.69734" lon="5.55639">
        <ele>279.8</ele>
        <time>2022-03-09T14:24:29Z</time>
      </trkpt>
      <trkpt lat="46.69729" lon="5.55642">
        <ele>279.8</ele>
        <time>2022-03-09T14:24:30Z</time>
      </trkpt>
      <trkpt lat="46.69722" lon="5.55645">
        <ele>280.2</ele>
        <time>2022-03-09T14:24:31Z</time>
      </trkpt>
      <trkpt lat="46.69716" lon="5.55648">
        <ele>280.4</ele>
        <time>2022-03-09T14:24:32Z</time>
      </trkpt>
      <trkpt lat="46.69711" lon="5.55651">
        <ele>280.4</ele>
        <time>2022-03-09T14:24:33Z</time>
      </trkpt>
      <trkpt lat="46.69705" lon="5.55654">
        <ele>280.8</ele>
        <time>2022-03-09T14:24:34Z</time>
      </trkpt>
      <trkpt lat="46.69699" lon="5.55657">
        <ele>280.8</ele>
        <time>2022-03-09T14:24:35Z</time>
      </trkpt>
      <trkpt lat="46.69693" lon="5.5566">
        <ele>281</ele>
        <time>2022-03-09T14:24:36Z</time>
      </trkpt>
      <trkpt lat="46.69687" lon="5.55663">
        <ele>281</ele>
        <time>2022-03-09T14:24:37Z</time>
      </trkpt>
      <trkpt lat="46.69681" lon="5.55666">
        <ele>281.4</ele>
        <time>2022-03-09T14:24:38Z</time>
      </trkpt>
      <trkpt lat="46.69681" lon="5.55666">
        <ele>281.4</ele>
        <time>2022-03-09T14:24:39Z</time>
      </trkpt>
      <trkpt lat="46.69675" lon="5.55669">
        <ele>281.8</ele>
        <time>2022-03-09T14:24:40Z</time>
      </trkpt>
      <trkpt lat="46.6967" lon="5.55672">
        <ele>281.8</ele>
        <time>2022-03-09T14:24:41Z</time>
      </trkpt>
      <trkpt lat="46.69664" lon="5.55675">
        <ele>282.2</ele>
        <time>2022-03-09T14:24:42Z</time>
      </trkpt>
      <trkpt lat="46.69658" lon="5.55678">
        <ele>282.2</ele>
        <time>2022-03-09T14:24:43Z</time>
      </trkpt>
      <trkpt lat="46.69653" lon="5.55681">
        <ele>282.6</ele>
        <time>2022-03-09T14:24:44Z</time>
      </trkpt>
      <trkpt lat="46.69647" lon="5.55684">
        <ele>282.6</ele>
        <time>2022-03-09T14:24:45Z</time>
      </trkpt>
      <trkpt lat="46.69642" lon="5.55687">
        <ele>282.8</ele>
        <time>2022-03-09T14:24:46Z</time>
      </trkpt>
      <trkpt lat="46.69636" lon="5.5569">
        <ele>282.8</ele>
        <time>2022-03-09T14:24:47Z</time>
      </trkpt>
      <trkpt lat="46.6963" lon="5.55693">
        <ele>283</ele>
        <time>2022-03-09T14:24:48Z</time>
      </trkpt>
      <trkpt lat="46.69625" lon="5.55696">
        <ele>283</ele>
        <time>2022-03-09T14:24:49Z</time>
      </trkpt>
      <trkpt lat="46.69619" lon="5.55699">
        <ele>283.4</ele>
        <time>2022-03-09T14:24:50Z</time>
      </trkpt>
      <trkpt lat="46.69613" lon="5.55701">
        <ele>283.4</ele>
        <time>2022-03-09T14:24:51Z</time>
      </trkpt>
      <trkpt lat="46.69608" lon="5.55704">
        <ele>283.6</ele>
        <time>2022-03-09T14:24:52Z</time>
      </trkpt>
      <trkpt lat="46.69602" lon="5.55707">
        <ele>283.6</ele>
        <time>2022-03-09T14:24:53Z</time>
      </trkpt>
      <trkpt lat="46.69596" lon="5.5571">
        <ele>283.6</ele>
        <time>2022-03-09T14:24:54Z</time>
      </trkpt>
      <trkpt lat="46.6959" lon="5.55713">
        <ele>284</ele>
        <time>2022-03-09T14:24:55Z</time>
      </trkpt>
      <trkpt lat="46.69585" lon="5.55716">
        <ele>284</ele>
        <time>2022-03-09T14:24:56Z</time>
      </trkpt>
      <trkpt lat="46.69579" lon="5.5572">
        <ele>284</ele>
        <time>2022-03-09T14:24:57Z</time>
      </trkpt>
      <trkpt lat="46.69573" lon="5.55723">
        <ele>284.2</ele>
        <time>2022-03-09T14:24:58Z</time>
      </trkpt>
      <trkpt lat="46.69567" lon="5.55727">
        <ele>284.2</ele>
        <time>2022-03-09T14:24:59Z</time>
      </trkpt>
      <trkpt lat="46.69561" lon="5.55731">
        <ele>284.2</ele>
        <time>2022-03-09T14:25:00Z</time>
      </trkpt>
      <trkpt lat="46.69555" lon="5.55735">
        <ele>284.2</ele>
        <time>2022-03-09T14:25:01Z</time>
      </trkpt>
      <trkpt lat="46.6955" lon="5.55739">
        <ele>284.2</ele>
        <time>2022-03-09T14:25:02Z</time>
      </trkpt>
      <trkpt lat="46.69544" lon="5.55744">
        <ele>284.4</ele>
        <time>2022-03-09T14:25:03Z</time>
      </trkpt>
      <trkpt lat="46.69538" lon="5.55748">
        <ele>284.4</ele>
        <time>2022-03-09T14:25:04Z</time>
      </trkpt>
      <trkpt lat="46.69533" lon="5.55753">
        <ele>284.4</ele>
        <time>2022-03-09T14:25:05Z</time>
      </trkpt>
      <trkpt lat="46.69527" lon="5.55758">
        <ele>284.4</ele>
        <time>2022-03-09T14:25:06Z</time>
      </trkpt>
      <trkpt lat="46.69522" lon="5.55763">
        <ele>284.4</ele>
        <time>2022-03-09T14:25:07Z</time>
      </trkpt>
      <trkpt lat="46.69516" lon="5.55768">
        <ele>284.4</ele>
        <time>2022-03-09T14:25:08Z</time>
      </trkpt>
      <trkpt lat="46.69511" lon="5.55773">
        <ele>284.4</ele>
        <time>2022-03-09T14:25:09Z</time>
      </trkpt>
      <trkpt lat="46.69505" lon="5.55778">
        <ele>284.4</ele>
        <time>2022-03-09T14:25:10Z</time>
      </trkpt>
      <trkpt lat="46.69499" lon="5.55783">
        <ele>284.6</ele>
        <time>2022-03-09T14:25:11Z</time>
      </trkpt>
      <trkpt lat="46.69494" lon="5.55788">
        <ele>284.6</ele>
        <time>2022-03-09T14:25:12Z</time>
      </trkpt>
      <trkpt lat="46.69489" lon="5.55793">
        <ele>284.6</ele>
        <time>2022-03-09T14:25:13Z</time>
      </trkpt>
      <trkpt lat="46.69484" lon="5.55798">
        <ele>284.6</ele>
        <time>2022-03-09T14:25:14Z</time>
      </trkpt>
      <trkpt lat="46.69478" lon="5.55802">
        <ele>284.6</ele>
        <time>2022-03-09T14:25:15Z</time>
      </trkpt>
      <trkpt lat="46.69473" lon="5.55807">
        <ele>284.6</ele>
        <time>2022-03-09T14:25:16Z</time>
      </trkpt>
      <trkpt lat="46.69468" lon="5.55811">
        <ele>284.6</ele>
        <time>2022-03-09T14:25:17Z</time>
      </trkpt>
      <trkpt lat="46.69462" lon="5.55815">
        <ele>284.6</ele>
        <time>2022-03-09T14:25:18Z</time>
      </trkpt>
      <trkpt lat="46.69457" lon="5.55819">
        <ele>284.6</ele>
        <time>2022-03-09T14:25:19Z</time>
      </trkpt>
      <trkpt lat="46.69451" lon="5.55823">
        <ele>284.6</ele>
        <time>2022-03-09T14:25:20Z</time>
      </trkpt>
      <trkpt lat="46.69446" lon="5.55826">
        <ele>284.6</ele>
        <time>2022-03-09T14:25:21Z</time>
      </trkpt>
      <trkpt lat="46.6944" lon="5.55826">
        <ele>284.6</ele>
        <time>2022-03-09T14:25:22Z</time>
      </trkpt>
      <trkpt lat="46.69434" lon="5.55826">
        <ele>284.6</ele>
        <time>2022-03-09T14:25:23Z</time>
      </trkpt>
      <trkpt lat="46.69429" lon="5.55825">
        <ele>284.6</ele>
        <time>2022-03-09T14:25:24Z</time>
      </trkpt>
      <trkpt lat="46.69423" lon="5.55823">
        <ele>284.8</ele>
        <time>2022-03-09T14:25:25Z</time>
      </trkpt>
      <trkpt lat="46.69418" lon="5.5582">
        <ele>284.8</ele>
        <time>2022-03-09T14:25:26Z</time>
      </trkpt>
      <trkpt lat="46.69414" lon="5.55816">
        <ele>285</ele>
        <time>2022-03-09T14:25:27Z</time>
      </trkpt>
      <trkpt lat="46.6941" lon="5.5581">
        <ele>285</ele>
        <time>2022-03-09T14:25:28Z</time>
      </trkpt>
      <trkpt lat="46.69407" lon="5.55805">
        <ele>285.4</ele>
        <time>2022-03-09T14:25:29Z</time>
      </trkpt>
      <trkpt lat="46.69404" lon="5.55799">
        <ele>285.4</ele>
        <time>2022-03-09T14:25:30Z</time>
      </trkpt>
      <trkpt lat="46.69401" lon="5.55793">
        <ele>285.6</ele>
        <time>2022-03-09T14:25:31Z</time>
      </trkpt>
      <trkpt lat="46.69398" lon="5.55788">
        <ele>285.6</ele>
        <time>2022-03-09T14:25:32Z</time>
      </trkpt>
      <trkpt lat="46.69395" lon="5.55783">
        <ele>286</ele>
        <time>2022-03-09T14:25:33Z</time>
      </trkpt>
      <trkpt lat="46.69392" lon="5.55779">
        <ele>286.4</ele>
        <time>2022-03-09T14:25:34Z</time>
      </trkpt>
      <trkpt lat="46.6939" lon="5.55774">
        <ele>286.8</ele>
        <time>2022-03-09T14:25:35Z</time>
      </trkpt>
      <trkpt lat="46.69387" lon="5.5577">
        <ele>287</ele>
        <time>2022-03-09T14:25:36Z</time>
      </trkpt>
      <trkpt lat="46.69384" lon="5.55767">
        <ele>287.2</ele>
        <time>2022-03-09T14:25:37Z</time>
      </trkpt>
      <trkpt lat="46.69381" lon="5.55763">
        <ele>287.6</ele>
        <time>2022-03-09T14:25:38Z</time>
      </trkpt>
      <trkpt lat="46.69377" lon="5.5576">
        <ele>287.8</ele>
        <time>2022-03-09T14:25:39Z</time>
      </trkpt>
      <trkpt lat="46.69374" lon="5.55757">
        <ele>288</ele>
        <time>2022-03-09T14:25:40Z</time>
      </trkpt>
      <trkpt lat="46.6937" lon="5.55755">
        <ele>288.2</ele>
        <time>2022-03-09T14:25:41Z</time>
      </trkpt>
      <trkpt lat="46.69366" lon="5.55754">
        <ele>288.6</ele>
        <time>2022-03-09T14:25:42Z</time>
      </trkpt>
      <trkpt lat="46.69362" lon="5.55754">
        <ele>289</ele>
        <time>2022-03-09T14:25:43Z</time>
      </trkpt>
      <trkpt lat="46.69358" lon="5.55755">
        <ele>289.4</ele>
        <time>2022-03-09T14:25:44Z</time>
      </trkpt>
      <trkpt lat="46.69355" lon="5.55756">
        <ele>289.6</ele>
        <time>2022-03-09T14:25:45Z</time>
      </trkpt>
      <trkpt lat="46.69352" lon="5.55759">
        <ele>290</ele>
        <time>2022-03-09T14:25:46Z</time>
      </trkpt>
      <trkpt lat="46.69349" lon="5.55761">
        <ele>290.2</ele>
        <time>2022-03-09T14:25:47Z</time>
      </trkpt>
      <trkpt lat="46.69346" lon="5.55764">
        <ele>290.6</ele>
        <time>2022-03-09T14:25:48Z</time>
      </trkpt>
      <trkpt lat="46.69343" lon="5.55767">
        <ele>290.8</ele>
        <time>2022-03-09T14:25:49Z</time>
      </trkpt>
      <trkpt lat="46.6934" lon="5.5577">
        <ele>291.2</ele>
        <time>2022-03-09T14:25:50Z</time>
      </trkpt>
      <trkpt lat="46.69337" lon="5.55773">
        <ele>291.6</ele>
        <time>2022-03-09T14:25:51Z</time>
      </trkpt>
      <trkpt lat="46.69334" lon="5.55776">
        <ele>292</ele>
        <time>2022-03-09T14:25:52Z</time>
      </trkpt>
      <trkpt lat="46.6933" lon="5.55779">
        <ele>292.2</ele>
        <time>2022-03-09T14:25:53Z</time>
      </trkpt>
      <trkpt lat="46.69327" lon="5.55781">
        <ele>292.6</ele>
        <time>2022-03-09T14:25:54Z</time>
      </trkpt>
      <trkpt lat="46.69324" lon="5.55783">
        <ele>292.8</ele>
        <time>2022-03-09T14:25:55Z</time>
      </trkpt>
      <trkpt lat="46.69321" lon="5.55786">
        <ele>293</ele>
        <time>2022-03-09T14:25:56Z</time>
      </trkpt>
      <trkpt lat="46.69318" lon="5.55789">
        <ele>293.4</ele>
        <time>2022-03-09T14:25:57Z</time>
      </trkpt>
      <trkpt lat="46.69315" lon="5.55792">
        <ele>293.6</ele>
        <time>2022-03-09T14:25:58Z</time>
      </trkpt>
      <trkpt lat="46.69312" lon="5.55796">
        <ele>293.6</ele>
        <time>2022-03-09T14:25:59Z</time>
      </trkpt>
      <trkpt lat="46.69309" lon="5.55799">
        <ele>294.2</ele>
        <time>2022-03-09T14:26:00Z</time>
      </trkpt>
      <trkpt lat="46.69306" lon="5.55802">
        <ele>294.2</ele>
        <time>2022-03-09T14:26:01Z</time>
      </trkpt>
      <trkpt lat="46.69302" lon="5.55804">
        <ele>294.6</ele>
        <time>2022-03-09T14:26:02Z</time>
      </trkpt>
      <trkpt lat="46.69299" lon="5.55807">
        <ele>294.8</ele>
        <time>2022-03-09T14:26:03Z</time>
      </trkpt>
      <trkpt lat="46.69292" lon="5.55812">
        <ele>295</ele>
        <time>2022-03-09T14:26:04Z</time>
      </trkpt>
      <trkpt lat="46.69288" lon="5.55815">
        <ele>295</ele>
        <time>2022-03-09T14:26:05Z</time>
      </trkpt>
      <trkpt lat="46.69285" lon="5.55817">
        <ele>295.2</ele>
        <time>2022-03-09T14:26:06Z</time>
      </trkpt>
      <trkpt lat="46.69281" lon="5.5582">
        <ele>295.2</ele>
        <time>2022-03-09T14:26:07Z</time>
      </trkpt>
      <trkpt lat="46.69277" lon="5.55822">
        <ele>295.4</ele>
        <time>2022-03-09T14:26:08Z</time>
      </trkpt>
      <trkpt lat="46.69274" lon="5.55825">
        <ele>295.4</ele>
        <time>2022-03-09T14:26:09Z</time>
      </trkpt>
      <trkpt lat="46.6927" lon="5.55828">
        <ele>295.6</ele>
        <time>2022-03-09T14:26:10Z</time>
      </trkpt>
      <trkpt lat="46.69266" lon="5.55831">
        <ele>295.6</ele>
        <time>2022-03-09T14:26:11Z</time>
      </trkpt>
      <trkpt lat="46.69262" lon="5.55834">
        <ele>295.8</ele>
        <time>2022-03-09T14:26:12Z</time>
      </trkpt>
      <trkpt lat="46.69258" lon="5.55837">
        <ele>295.8</ele>
        <time>2022-03-09T14:26:13Z</time>
      </trkpt>
      <trkpt lat="46.69253" lon="5.5584">
        <ele>295.8</ele>
        <time>2022-03-09T14:26:14Z</time>
      </trkpt>
      <trkpt lat="46.69249" lon="5.55844">
        <ele>295.8</ele>
        <time>2022-03-09T14:26:15Z</time>
      </trkpt>
      <trkpt lat="46.69245" lon="5.55847">
        <ele>295.8</ele>
        <time>2022-03-09T14:26:16Z</time>
      </trkpt>
      <trkpt lat="46.69241" lon="5.55851">
        <ele>296.2</ele>
        <time>2022-03-09T14:26:17Z</time>
      </trkpt>
      <trkpt lat="46.69236" lon="5.55854">
        <ele>296.2</ele>
        <time>2022-03-09T14:26:18Z</time>
      </trkpt>
      <trkpt lat="46.69231" lon="5.55857">
        <ele>296.2</ele>
        <time>2022-03-09T14:26:19Z</time>
      </trkpt>
      <trkpt lat="46.69227" lon="5.55861">
        <ele>296.4</ele>
        <time>2022-03-09T14:26:20Z</time>
      </trkpt>
      <trkpt lat="46.69222" lon="5.55864">
        <ele>296.4</ele>
        <time>2022-03-09T14:26:21Z</time>
      </trkpt>
      <trkpt lat="46.69217" lon="5.55868">
        <ele>296.4</ele>
        <time>2022-03-09T14:26:22Z</time>
      </trkpt>
      <trkpt lat="46.69213" lon="5.55872">
        <ele>296.4</ele>
        <time>2022-03-09T14:26:23Z</time>
      </trkpt>
      <trkpt lat="46.69208" lon="5.55876">
        <ele>296.4</ele>
        <time>2022-03-09T14:26:24Z</time>
      </trkpt>
      <trkpt lat="46.69203" lon="5.5588">
        <ele>296.4</ele>
        <time>2022-03-09T14:26:25Z</time>
      </trkpt>
      <trkpt lat="46.69198" lon="5.55885">
        <ele>296.4</ele>
        <time>2022-03-09T14:26:26Z</time>
      </trkpt>
      <trkpt lat="46.69193" lon="5.5589">
        <ele>296.2</ele>
        <time>2022-03-09T14:26:27Z</time>
      </trkpt>
      <trkpt lat="46.69188" lon="5.55895">
        <ele>296.2</ele>
        <time>2022-03-09T14:26:28Z</time>
      </trkpt>
      <trkpt lat="46.69182" lon="5.55899">
        <ele>296.2</ele>
        <time>2022-03-09T14:26:29Z</time>
      </trkpt>
      <trkpt lat="46.69176" lon="5.55904">
        <ele>296.2</ele>
        <time>2022-03-09T14:26:30Z</time>
      </trkpt>
      <trkpt lat="46.69171" lon="5.55908">
        <ele>296.2</ele>
        <time>2022-03-09T14:26:31Z</time>
      </trkpt>
      <trkpt lat="46.69165" lon="5.55913">
        <ele>296.2</ele>
        <time>2022-03-09T14:26:32Z</time>
      </trkpt>
      <trkpt lat="46.6916" lon="5.55918">
        <ele>296.2</ele>
        <time>2022-03-09T14:26:33Z</time>
      </trkpt>
      <trkpt lat="46.69155" lon="5.55923">
        <ele>296.2</ele>
        <time>2022-03-09T14:26:34Z</time>
      </trkpt>
      <trkpt lat="46.6915" lon="5.55927">
        <ele>296.4</ele>
        <time>2022-03-09T14:26:35Z</time>
      </trkpt>
      <trkpt lat="46.69145" lon="5.5593">
        <ele>296.4</ele>
        <time>2022-03-09T14:26:36Z</time>
      </trkpt>
      <trkpt lat="46.69141" lon="5.55933">
        <ele>296.8</ele>
        <time>2022-03-09T14:26:37Z</time>
      </trkpt>
      <trkpt lat="46.69136" lon="5.55936">
        <ele>296.8</ele>
        <time>2022-03-09T14:26:38Z</time>
      </trkpt>
      <trkpt lat="46.69132" lon="5.55939">
        <ele>297</ele>
        <time>2022-03-09T14:26:39Z</time>
      </trkpt>
      <trkpt lat="46.69127" lon="5.55941">
        <ele>297.2</ele>
        <time>2022-03-09T14:26:40Z</time>
      </trkpt>
      <trkpt lat="46.69123" lon="5.55944">
        <ele>297.2</ele>
        <time>2022-03-09T14:26:41Z</time>
      </trkpt>
      <trkpt lat="46.69118" lon="5.55946">
        <ele>297.4</ele>
        <time>2022-03-09T14:26:42Z</time>
      </trkpt>
      <trkpt lat="46.69114" lon="5.55948">
        <ele>297.4</ele>
        <time>2022-03-09T14:26:43Z</time>
      </trkpt>
      <trkpt lat="46.69109" lon="5.5595">
        <ele>297.6</ele>
        <time>2022-03-09T14:26:44Z</time>
      </trkpt>
      <trkpt lat="46.69105" lon="5.55952">
        <ele>297.6</ele>
        <time>2022-03-09T14:26:45Z</time>
      </trkpt>
      <trkpt lat="46.691" lon="5.55955">
        <ele>298</ele>
        <time>2022-03-09T14:26:46Z</time>
      </trkpt>
      <trkpt lat="46.69096" lon="5.55957">
        <ele>298</ele>
        <time>2022-03-09T14:26:47Z</time>
      </trkpt>
      <trkpt lat="46.69091" lon="5.55959">
        <ele>298</ele>
        <time>2022-03-09T14:26:48Z</time>
      </trkpt>
      <trkpt lat="46.69087" lon="5.5596">
        <ele>298.2</ele>
        <time>2022-03-09T14:26:49Z</time>
      </trkpt>
      <trkpt lat="46.69082" lon="5.55961">
        <ele>298.2</ele>
        <time>2022-03-09T14:26:50Z</time>
      </trkpt>
      <trkpt lat="46.69077" lon="5.5596">
        <ele>298.4</ele>
        <time>2022-03-09T14:26:51Z</time>
      </trkpt>
      <trkpt lat="46.69072" lon="5.55959">
        <ele>298.4</ele>
        <time>2022-03-09T14:26:52Z</time>
      </trkpt>
      <trkpt lat="46.69067" lon="5.55957">
        <ele>298.4</ele>
        <time>2022-03-09T14:26:53Z</time>
      </trkpt>
      <trkpt lat="46.69062" lon="5.55956">
        <ele>298.8</ele>
        <time>2022-03-09T14:26:54Z</time>
      </trkpt>
      <trkpt lat="46.69057" lon="5.55954">
        <ele>298.8</ele>
        <time>2022-03-09T14:26:55Z</time>
      </trkpt>
      <trkpt lat="46.69052" lon="5.55953">
        <ele>298.8</ele>
        <time>2022-03-09T14:26:56Z</time>
      </trkpt>
      <trkpt lat="46.69047" lon="5.55952">
        <ele>298.8</ele>
        <time>2022-03-09T14:26:57Z</time>
      </trkpt>
      <trkpt lat="46.69042" lon="5.55951">
        <ele>298.8</ele>
        <time>2022-03-09T14:26:58Z</time>
      </trkpt>
      <trkpt lat="46.69037" lon="5.55952">
        <ele>298.8</ele>
        <time>2022-03-09T14:26:59Z</time>
      </trkpt>
      <trkpt lat="46.69032" lon="5.55955">
        <ele>298.8</ele>
        <time>2022-03-09T14:27:00Z</time>
      </trkpt>
      <trkpt lat="46.69028" lon="5.55958">
        <ele>298.4</ele>
        <time>2022-03-09T14:27:01Z</time>
      </trkpt>
      <trkpt lat="46.69023" lon="5.55963">
        <ele>298.4</ele>
        <time>2022-03-09T14:27:02Z</time>
      </trkpt>
      <trkpt lat="46.69018" lon="5.55967">
        <ele>298</ele>
        <time>2022-03-09T14:27:03Z</time>
      </trkpt>
      <trkpt lat="46.69013" lon="5.55972">
        <ele>298</ele>
        <time>2022-03-09T14:27:04Z</time>
      </trkpt>
      <trkpt lat="46.69008" lon="5.55977">
        <ele>297.8</ele>
        <time>2022-03-09T14:27:05Z</time>
      </trkpt>
      <trkpt lat="46.69002" lon="5.55981">
        <ele>297.8</ele>
        <time>2022-03-09T14:27:06Z</time>
      </trkpt>
      <trkpt lat="46.68996" lon="5.55983">
        <ele>297.8</ele>
        <time>2022-03-09T14:27:07Z</time>
      </trkpt>
      <trkpt lat="46.6899" lon="5.55983">
        <ele>297.6</ele>
        <time>2022-03-09T14:27:08Z</time>
      </trkpt>
      <trkpt lat="46.68984" lon="5.55983">
        <ele>297.6</ele>
        <time>2022-03-09T14:27:09Z</time>
      </trkpt>
      <trkpt lat="46.68975" lon="5.55983">
        <ele>297.6</ele>
        <time>2022-03-09T14:27:10Z</time>
      </trkpt>
      <trkpt lat="46.68972" lon="5.55982">
        <ele>297.2</ele>
        <time>2022-03-09T14:27:11Z</time>
      </trkpt>
      <trkpt lat="46.68966" lon="5.55982">
        <ele>297.2</ele>
        <time>2022-03-09T14:27:12Z</time>
      </trkpt>
      <trkpt lat="46.6896" lon="5.55982">
        <ele>296.8</ele>
        <time>2022-03-09T14:27:13Z</time>
      </trkpt>
      <trkpt lat="46.68954" lon="5.55982">
        <ele>296.8</ele>
        <time>2022-03-09T14:27:14Z</time>
      </trkpt>
      <trkpt lat="46.68948" lon="5.55981">
        <ele>296.8</ele>
        <time>2022-03-09T14:27:15Z</time>
      </trkpt>
      <trkpt lat="46.68942" lon="5.5598">
        <ele>296.6</ele>
        <time>2022-03-09T14:27:16Z</time>
      </trkpt>
      <trkpt lat="46.68936" lon="5.55979">
        <ele>296.6</ele>
        <time>2022-03-09T14:27:17Z</time>
      </trkpt>
      <trkpt lat="46.6893" lon="5.55979">
        <ele>296.6</ele>
        <time>2022-03-09T14:27:18Z</time>
      </trkpt>
      <trkpt lat="46.68924" lon="5.55978">
        <ele>296.2</ele>
        <time>2022-03-09T14:27:19Z</time>
      </trkpt>
      <trkpt lat="46.68918" lon="5.55977">
        <ele>296.2</ele>
        <time>2022-03-09T14:27:20Z</time>
      </trkpt>
      <trkpt lat="46.68911" lon="5.55975">
        <ele>296.2</ele>
        <time>2022-03-09T14:27:21Z</time>
      </trkpt>
      <trkpt lat="46.68905" lon="5.55974">
        <ele>296</ele>
        <time>2022-03-09T14:27:22Z</time>
      </trkpt>
      <trkpt lat="46.68898" lon="5.55972">
        <ele>296</ele>
        <time>2022-03-09T14:27:23Z</time>
      </trkpt>
      <trkpt lat="46.68891" lon="5.5597">
        <ele>295.8</ele>
        <time>2022-03-09T14:27:24Z</time>
      </trkpt>
      <trkpt lat="46.68885" lon="5.55968">
        <ele>295.8</ele>
        <time>2022-03-09T14:27:25Z</time>
      </trkpt>
      <trkpt lat="46.68878" lon="5.55967">
        <ele>295.8</ele>
        <time>2022-03-09T14:27:26Z</time>
      </trkpt>
      <trkpt lat="46.68871" lon="5.55965">
        <ele>295.6</ele>
        <time>2022-03-09T14:27:27Z</time>
      </trkpt>
      <trkpt lat="46.68865" lon="5.55962">
        <ele>295.6</ele>
        <time>2022-03-09T14:27:28Z</time>
      </trkpt>
      <trkpt lat="46.68858" lon="5.5596">
        <ele>295.2</ele>
        <time>2022-03-09T14:27:29Z</time>
      </trkpt>
      <trkpt lat="46.68851" lon="5.55958">
        <ele>294.8</ele>
        <time>2022-03-09T14:27:30Z</time>
      </trkpt>
      <trkpt lat="46.68844" lon="5.55956">
        <ele>294.6</ele>
        <time>2022-03-09T14:27:31Z</time>
      </trkpt>
      <trkpt lat="46.68836" lon="5.55953">
        <ele>294.2</ele>
        <time>2022-03-09T14:27:32Z</time>
      </trkpt>
      <trkpt lat="46.68828" lon="5.5595">
        <ele>293.8</ele>
        <time>2022-03-09T14:27:33Z</time>
      </trkpt>
      <trkpt lat="46.6882" lon="5.55947">
        <ele>293.8</ele>
        <time>2022-03-09T14:27:34Z</time>
      </trkpt>
      <trkpt lat="46.68812" lon="5.55944">
        <ele>293.6</ele>
        <time>2022-03-09T14:27:35Z</time>
      </trkpt>
      <trkpt lat="46.68805" lon="5.55941">
        <ele>293.6</ele>
        <time>2022-03-09T14:27:36Z</time>
      </trkpt>
      <trkpt lat="46.68798" lon="5.55937">
        <ele>293.6</ele>
        <time>2022-03-09T14:27:37Z</time>
      </trkpt>
      <trkpt lat="46.68791" lon="5.55933">
        <ele>293.6</ele>
        <time>2022-03-09T14:27:38Z</time>
      </trkpt>
      <trkpt lat="46.68785" lon="5.55928">
        <ele>293.8</ele>
        <time>2022-03-09T14:27:39Z</time>
      </trkpt>
      <trkpt lat="46.6878" lon="5.55923">
        <ele>294.2</ele>
        <time>2022-03-09T14:27:40Z</time>
      </trkpt>
      <trkpt lat="46.68776" lon="5.55918">
        <ele>294.2</ele>
        <time>2022-03-09T14:27:41Z</time>
      </trkpt>
      <trkpt lat="46.68771" lon="5.55914">
        <ele>294.4</ele>
        <time>2022-03-09T14:27:42Z</time>
      </trkpt>
      <trkpt lat="46.68767" lon="5.5591">
        <ele>294.4</ele>
        <time>2022-03-09T14:27:43Z</time>
      </trkpt>
      <trkpt lat="46.68763" lon="5.55906">
        <ele>294.8</ele>
        <time>2022-03-09T14:27:44Z</time>
      </trkpt>
      <trkpt lat="46.68759" lon="5.55903">
        <ele>294.8</ele>
        <time>2022-03-09T14:27:45Z</time>
      </trkpt>
      <trkpt lat="46.68755" lon="5.55901">
        <ele>295.2</ele>
        <time>2022-03-09T14:27:46Z</time>
      </trkpt>
      <trkpt lat="46.6875" lon="5.559">
        <ele>295.2</ele>
        <time>2022-03-09T14:27:47Z</time>
      </trkpt>
      <trkpt lat="46.68743" lon="5.55902">
        <ele>295.2</ele>
        <time>2022-03-09T14:27:48Z</time>
      </trkpt>
      <trkpt lat="46.68741" lon="5.55903">
        <ele>295.2</ele>
        <time>2022-03-09T14:27:49Z</time>
      </trkpt>
      <trkpt lat="46.68736" lon="5.55905">
        <ele>295.2</ele>
        <time>2022-03-09T14:27:50Z</time>
      </trkpt>
      <trkpt lat="46.68731" lon="5.55908">
        <ele>295</ele>
        <time>2022-03-09T14:27:51Z</time>
      </trkpt>
      <trkpt lat="46.68725" lon="5.55911">
        <ele>295</ele>
        <time>2022-03-09T14:27:52Z</time>
      </trkpt>
      <trkpt lat="46.68719" lon="5.55914">
        <ele>294.6</ele>
        <time>2022-03-09T14:27:53Z</time>
      </trkpt>
      <trkpt lat="46.68709" lon="5.55916">
        <ele>294.2</ele>
        <time>2022-03-09T14:27:54Z</time>
      </trkpt>
      <trkpt lat="46.68705" lon="5.55916">
        <ele>294</ele>
        <time>2022-03-09T14:27:55Z</time>
      </trkpt>
      <trkpt lat="46.68698" lon="5.55915">
        <ele>293.8</ele>
        <time>2022-03-09T14:27:56Z</time>
      </trkpt>
      <trkpt lat="46.68691" lon="5.55913">
        <ele>293.4</ele>
        <time>2022-03-09T14:27:57Z</time>
      </trkpt>
      <trkpt lat="46.68685" lon="5.55911">
        <ele>293.4</ele>
        <time>2022-03-09T14:27:58Z</time>
      </trkpt>
      <trkpt lat="46.68678" lon="5.55909">
        <ele>293</ele>
        <time>2022-03-09T14:27:59Z</time>
      </trkpt>
      <trkpt lat="46.68671" lon="5.55908">
        <ele>292.8</ele>
        <time>2022-03-09T14:28:00Z</time>
      </trkpt>
      <trkpt lat="46.6866" lon="5.55906">
        <ele>292.6</ele>
        <time>2022-03-09T14:28:01Z</time>
      </trkpt>
      <trkpt lat="46.68656" lon="5.55905">
        <ele>292.2</ele>
        <time>2022-03-09T14:28:02Z</time>
      </trkpt>
      <trkpt lat="46.68649" lon="5.55903">
        <ele>291.8</ele>
        <time>2022-03-09T14:28:03Z</time>
      </trkpt>
      <trkpt lat="46.68642" lon="5.55901">
        <ele>291.6</ele>
        <time>2022-03-09T14:28:04Z</time>
      </trkpt>
      <trkpt lat="46.68634" lon="5.559">
        <ele>291.2</ele>
        <time>2022-03-09T14:28:05Z</time>
      </trkpt>
      <trkpt lat="46.68625" lon="5.55898">
        <ele>290.8</ele>
        <time>2022-03-09T14:28:06Z</time>
      </trkpt>
      <trkpt lat="46.68617" lon="5.55896">
        <ele>290.2</ele>
        <time>2022-03-09T14:28:07Z</time>
      </trkpt>
      <trkpt lat="46.68609" lon="5.55894">
        <ele>290</ele>
        <time>2022-03-09T14:28:08Z</time>
      </trkpt>
      <trkpt lat="46.686" lon="5.55893">
        <ele>289.6</ele>
        <time>2022-03-09T14:28:09Z</time>
      </trkpt>
      <trkpt lat="46.68592" lon="5.55891">
        <ele>289.2</ele>
        <time>2022-03-09T14:28:10Z</time>
      </trkpt>
      <trkpt lat="46.68583" lon="5.5589">
        <ele>288.8</ele>
        <time>2022-03-09T14:28:11Z</time>
      </trkpt>
      <trkpt lat="46.6857" lon="5.55887">
        <ele>288.4</ele>
        <time>2022-03-09T14:28:12Z</time>
      </trkpt>
      <trkpt lat="46.68566" lon="5.55886">
        <ele>288.2</ele>
        <time>2022-03-09T14:28:13Z</time>
      </trkpt>
      <trkpt lat="46.68557" lon="5.55884">
        <ele>288</ele>
        <time>2022-03-09T14:28:14Z</time>
      </trkpt>
      <trkpt lat="46.68549" lon="5.55882">
        <ele>287.6</ele>
        <time>2022-03-09T14:28:15Z</time>
      </trkpt>
      <trkpt lat="46.68541" lon="5.55879">
        <ele>287.2</ele>
        <time>2022-03-09T14:28:16Z</time>
      </trkpt>
      <trkpt lat="46.68532" lon="5.55876">
        <ele>286.8</ele>
        <time>2022-03-09T14:28:17Z</time>
      </trkpt>
      <trkpt lat="46.68524" lon="5.55873">
        <ele>286.6</ele>
        <time>2022-03-09T14:28:18Z</time>
      </trkpt>
      <trkpt lat="46.68517" lon="5.5587">
        <ele>286.4</ele>
        <time>2022-03-09T14:28:19Z</time>
      </trkpt>
      <trkpt lat="46.6851" lon="5.55868">
        <ele>286</ele>
        <time>2022-03-09T14:28:20Z</time>
      </trkpt>
      <trkpt lat="46.68504" lon="5.55868">
        <ele>285.8</ele>
        <time>2022-03-09T14:28:21Z</time>
      </trkpt>
      <trkpt lat="46.68498" lon="5.55869">
        <ele>285.8</ele>
        <time>2022-03-09T14:28:22Z</time>
      </trkpt>
      <trkpt lat="46.68493" lon="5.55873">
        <ele>285.6</ele>
        <time>2022-03-09T14:28:23Z</time>
      </trkpt>
      <trkpt lat="46.68489" lon="5.55878">
        <ele>285.6</ele>
        <time>2022-03-09T14:28:24Z</time>
      </trkpt>
      <trkpt lat="46.68485" lon="5.55885">
        <ele>285.2</ele>
        <time>2022-03-09T14:28:25Z</time>
      </trkpt>
      <trkpt lat="46.68482" lon="5.55892">
        <ele>285</ele>
        <time>2022-03-09T14:28:26Z</time>
      </trkpt>
      <trkpt lat="46.68478" lon="5.559">
        <ele>284.8</ele>
        <time>2022-03-09T14:28:27Z</time>
      </trkpt>
      <trkpt lat="46.68475" lon="5.55908">
        <ele>284.4</ele>
        <time>2022-03-09T14:28:28Z</time>
      </trkpt>
      <trkpt lat="46.68471" lon="5.55917">
        <ele>284</ele>
        <time>2022-03-09T14:28:29Z</time>
      </trkpt>
      <trkpt lat="46.68467" lon="5.55927">
        <ele>283.4</ele>
        <time>2022-03-09T14:28:30Z</time>
      </trkpt>
      <trkpt lat="46.68462" lon="5.55937">
        <ele>283</ele>
        <time>2022-03-09T14:28:31Z</time>
      </trkpt>
      <trkpt lat="46.68458" lon="5.55947">
        <ele>282.4</ele>
        <time>2022-03-09T14:28:32Z</time>
      </trkpt>
      <trkpt lat="46.68451" lon="5.55963">
        <ele>281.8</ele>
        <time>2022-03-09T14:28:33Z</time>
      </trkpt>
      <trkpt lat="46.68449" lon="5.55968">
        <ele>281.2</ele>
        <time>2022-03-09T14:28:34Z</time>
      </trkpt>
      <trkpt lat="46.68445" lon="5.55979">
        <ele>280.4</ele>
        <time>2022-03-09T14:28:35Z</time>
      </trkpt>
      <trkpt lat="46.68439" lon="5.55993">
        <ele>279.8</ele>
        <time>2022-03-09T14:28:36Z</time>
      </trkpt>
      <trkpt lat="46.68436" lon="5.55997">
        <ele>279</ele>
        <time>2022-03-09T14:28:37Z</time>
      </trkpt>
      <trkpt lat="46.68432" lon="5.56004">
        <ele>278.2</ele>
        <time>2022-03-09T14:28:38Z</time>
      </trkpt>
      <trkpt lat="46.68426" lon="5.5601">
        <ele>277.6</ele>
        <time>2022-03-09T14:28:39Z</time>
      </trkpt>
      <trkpt lat="46.68419" lon="5.56015">
        <ele>277</ele>
        <time>2022-03-09T14:28:40Z</time>
      </trkpt>
      <trkpt lat="46.68411" lon="5.56022">
        <ele>276.2</ele>
        <time>2022-03-09T14:28:41Z</time>
      </trkpt>
      <trkpt lat="46.68409" lon="5.56025">
        <ele>275.6</ele>
        <time>2022-03-09T14:28:42Z</time>
      </trkpt>
      <trkpt lat="46.68405" lon="5.5603">
        <ele>275</ele>
        <time>2022-03-09T14:28:43Z</time>
      </trkpt>
      <trkpt lat="46.68402" lon="5.56035">
        <ele>274.4</ele>
        <time>2022-03-09T14:28:44Z</time>
      </trkpt>
      <trkpt lat="46.68399" lon="5.56038">
        <ele>273.8</ele>
        <time>2022-03-09T14:28:45Z</time>
      </trkpt>
      <trkpt lat="46.68397" lon="5.56041">
        <ele>273.4</ele>
        <time>2022-03-09T14:28:46Z</time>
      </trkpt>
      <trkpt lat="46.68395" lon="5.56042">
        <ele>272.8</ele>
        <time>2022-03-09T14:28:47Z</time>
      </trkpt>
      <trkpt lat="46.68389" lon="5.56041">
        <ele>272.4</ele>
        <time>2022-03-09T14:28:48Z</time>
      </trkpt>
      <trkpt lat="46.68388" lon="5.56041">
        <ele>272</ele>
        <time>2022-03-09T14:28:49Z</time>
      </trkpt>
      <trkpt lat="46.68384" lon="5.56038">
        <ele>271.6</ele>
        <time>2022-03-09T14:28:50Z</time>
      </trkpt>
      <trkpt lat="46.6838" lon="5.56035">
        <ele>271.2</ele>
        <time>2022-03-09T14:28:51Z</time>
      </trkpt>
      <trkpt lat="46.68375" lon="5.56032">
        <ele>270.8</ele>
        <time>2022-03-09T14:28:52Z</time>
      </trkpt>
      <trkpt lat="46.6837" lon="5.56029">
        <ele>270.6</ele>
        <time>2022-03-09T14:28:53Z</time>
      </trkpt>
      <trkpt lat="46.68365" lon="5.56026">
        <ele>270.4</ele>
        <time>2022-03-09T14:28:54Z</time>
      </trkpt>
      <trkpt lat="46.68359" lon="5.56021">
        <ele>270.2</ele>
        <time>2022-03-09T14:28:55Z</time>
      </trkpt>
      <trkpt lat="46.68354" lon="5.56017">
        <ele>270.2</ele>
        <time>2022-03-09T14:28:56Z</time>
      </trkpt>
      <trkpt lat="46.68348" lon="5.56012">
        <ele>270</ele>
        <time>2022-03-09T14:28:57Z</time>
      </trkpt>
      <trkpt lat="46.68342" lon="5.56006">
        <ele>270</ele>
        <time>2022-03-09T14:28:58Z</time>
      </trkpt>
      <trkpt lat="46.68335" lon="5.56001">
        <ele>269.6</ele>
        <time>2022-03-09T14:28:59Z</time>
      </trkpt>
      <trkpt lat="46.68329" lon="5.55995">
        <ele>269.6</ele>
        <time>2022-03-09T14:29:00Z</time>
      </trkpt>
      <trkpt lat="46.68322" lon="5.55989">
        <ele>269.2</ele>
        <time>2022-03-09T14:29:01Z</time>
      </trkpt>
      <trkpt lat="46.68315" lon="5.55983">
        <ele>269</ele>
        <time>2022-03-09T14:29:02Z</time>
      </trkpt>
      <trkpt lat="46.68308" lon="5.55977">
        <ele>268.8</ele>
        <time>2022-03-09T14:29:03Z</time>
      </trkpt>
      <trkpt lat="46.68301" lon="5.55971">
        <ele>268.6</ele>
        <time>2022-03-09T14:29:04Z</time>
      </trkpt>
      <trkpt lat="46.68294" lon="5.55965">
        <ele>268.2</ele>
        <time>2022-03-09T14:29:05Z</time>
      </trkpt>
      <trkpt lat="46.68287" lon="5.55958">
        <ele>268</ele>
        <time>2022-03-09T14:29:06Z</time>
      </trkpt>
      <trkpt lat="46.6828" lon="5.55952">
        <ele>267.6</ele>
        <time>2022-03-09T14:29:07Z</time>
      </trkpt>
      <trkpt lat="46.68273" lon="5.55946">
        <ele>267.2</ele>
        <time>2022-03-09T14:29:08Z</time>
      </trkpt>
      <trkpt lat="46.68266" lon="5.55939">
        <ele>266.8</ele>
        <time>2022-03-09T14:29:09Z</time>
      </trkpt>
      <trkpt lat="46.68259" lon="5.55933">
        <ele>266.6</ele>
        <time>2022-03-09T14:29:10Z</time>
      </trkpt>
      <trkpt lat="46.68251" lon="5.55926">
        <ele>266.2</ele>
        <time>2022-03-09T14:29:11Z</time>
      </trkpt>
      <trkpt lat="46.68241" lon="5.55916">
        <ele>266</ele>
        <time>2022-03-09T14:29:12Z</time>
      </trkpt>
      <trkpt lat="46.68237" lon="5.55913">
        <ele>265.6</ele>
        <time>2022-03-09T14:29:13Z</time>
      </trkpt>
      <trkpt lat="46.6823" lon="5.55906">
        <ele>265.2</ele>
        <time>2022-03-09T14:29:14Z</time>
      </trkpt>
      <trkpt lat="46.68219" lon="5.55895">
        <ele>265</ele>
        <time>2022-03-09T14:29:15Z</time>
      </trkpt>
      <trkpt lat="46.68216" lon="5.55891">
        <ele>264.8</ele>
        <time>2022-03-09T14:29:16Z</time>
      </trkpt>
      <trkpt lat="46.68208" lon="5.55884">
        <ele>264.4</ele>
        <time>2022-03-09T14:29:17Z</time>
      </trkpt>
      <trkpt lat="46.68201" lon="5.55877">
        <ele>264.2</ele>
        <time>2022-03-09T14:29:18Z</time>
      </trkpt>
      <trkpt lat="46.68194" lon="5.55869">
        <ele>263.8</ele>
        <time>2022-03-09T14:29:19Z</time>
      </trkpt>
      <trkpt lat="46.68187" lon="5.55861">
        <ele>263.4</ele>
        <time>2022-03-09T14:29:20Z</time>
      </trkpt>
      <trkpt lat="46.68175" lon="5.5585">
        <ele>263</ele>
        <time>2022-03-09T14:29:21Z</time>
      </trkpt>
      <trkpt lat="46.68171" lon="5.55846">
        <ele>262.8</ele>
        <time>2022-03-09T14:29:22Z</time>
      </trkpt>
      <trkpt lat="46.68164" lon="5.55838">
        <ele>262.4</ele>
        <time>2022-03-09T14:29:23Z</time>
      </trkpt>
      <trkpt lat="46.68156" lon="5.55831">
        <ele>262.2</ele>
        <time>2022-03-09T14:29:24Z</time>
      </trkpt>
      <trkpt lat="46.68148" lon="5.55824">
        <ele>261.8</ele>
        <time>2022-03-09T14:29:25Z</time>
      </trkpt>
      <trkpt lat="46.68141" lon="5.55817">
        <ele>261.4</ele>
        <time>2022-03-09T14:29:26Z</time>
      </trkpt>
      <trkpt lat="46.6813" lon="5.55807">
        <ele>261.4</ele>
        <time>2022-03-09T14:29:27Z</time>
      </trkpt>
      <trkpt lat="46.68126" lon="5.55803">
        <ele>261.2</ele>
        <time>2022-03-09T14:29:28Z</time>
      </trkpt>
      <trkpt lat="46.68119" lon="5.55796">
        <ele>260.8</ele>
        <time>2022-03-09T14:29:29Z</time>
      </trkpt>
      <trkpt lat="46.68111" lon="5.55789">
        <ele>260.6</ele>
        <time>2022-03-09T14:29:30Z</time>
      </trkpt>
      <trkpt lat="46.68104" lon="5.55782">
        <ele>260.2</ele>
        <time>2022-03-09T14:29:31Z</time>
      </trkpt>
      <trkpt lat="46.68097" lon="5.55774">
        <ele>259.8</ele>
        <time>2022-03-09T14:29:32Z</time>
      </trkpt>
      <trkpt lat="46.68089" lon="5.55767">
        <ele>259.6</ele>
        <time>2022-03-09T14:29:33Z</time>
      </trkpt>
      <trkpt lat="46.68082" lon="5.5576">
        <ele>259.2</ele>
        <time>2022-03-09T14:29:34Z</time>
      </trkpt>
      <trkpt lat="46.68074" lon="5.55753">
        <ele>258.8</ele>
        <time>2022-03-09T14:29:35Z</time>
      </trkpt>
      <trkpt lat="46.68063" lon="5.55742">
        <ele>258.6</ele>
        <time>2022-03-09T14:29:36Z</time>
      </trkpt>
      <trkpt lat="46.6806" lon="5.55738">
        <ele>258.2</ele>
        <time>2022-03-09T14:29:37Z</time>
      </trkpt>
      <trkpt lat="46.68049" lon="5.55726">
        <ele>257.8</ele>
        <time>2022-03-09T14:29:38Z</time>
      </trkpt>
      <trkpt lat="46.68045" lon="5.55722">
        <ele>257.6</ele>
        <time>2022-03-09T14:29:39Z</time>
      </trkpt>
      <trkpt lat="46.68038" lon="5.55715">
        <ele>257.2</ele>
        <time>2022-03-09T14:29:40Z</time>
      </trkpt>
      <trkpt lat="46.6803" lon="5.55708">
        <ele>256.8</ele>
        <time>2022-03-09T14:29:41Z</time>
      </trkpt>
      <trkpt lat="46.68022" lon="5.55703">
        <ele>256.4</ele>
        <time>2022-03-09T14:29:42Z</time>
      </trkpt>
      <trkpt lat="46.68014" lon="5.55696">
        <ele>256.2</ele>
        <time>2022-03-09T14:29:43Z</time>
      </trkpt>
      <trkpt lat="46.68007" lon="5.55688">
        <ele>255.8</ele>
        <time>2022-03-09T14:29:44Z</time>
      </trkpt>
      <trkpt lat="46.67999" lon="5.5568">
        <ele>255.4</ele>
        <time>2022-03-09T14:29:45Z</time>
      </trkpt>
      <trkpt lat="46.6799" lon="5.55675">
        <ele>255.2</ele>
        <time>2022-03-09T14:29:46Z</time>
      </trkpt>
      <trkpt lat="46.67982" lon="5.55667">
        <ele>255.2</ele>
        <time>2022-03-09T14:29:47Z</time>
      </trkpt>
      <trkpt lat="46.67976" lon="5.55661">
        <ele>254.8</ele>
        <time>2022-03-09T14:29:48Z</time>
      </trkpt>
      <trkpt lat="46.6797" lon="5.55654">
        <ele>254.4</ele>
        <time>2022-03-09T14:29:49Z</time>
      </trkpt>
      <trkpt lat="46.67964" lon="5.55649">
        <ele>254</ele>
        <time>2022-03-09T14:29:50Z</time>
      </trkpt>
      <trkpt lat="46.67959" lon="5.55644">
        <ele>253.8</ele>
        <time>2022-03-09T14:29:51Z</time>
      </trkpt>
      <trkpt lat="46.67953" lon="5.55637">
        <ele>253.6</ele>
        <time>2022-03-09T14:29:52Z</time>
      </trkpt>
      <trkpt lat="46.67951" lon="5.55635">
        <ele>253</ele>
        <time>2022-03-09T14:29:53Z</time>
      </trkpt>
      <trkpt lat="46.67947" lon="5.55632">
        <ele>252.8</ele>
        <time>2022-03-09T14:29:54Z</time>
      </trkpt>
      <trkpt lat="46.67944" lon="5.55628">
        <ele>252.8</ele>
        <time>2022-03-09T14:29:55Z</time>
      </trkpt>
      <trkpt lat="46.67941" lon="5.55625">
        <ele>252.4</ele>
        <time>2022-03-09T14:29:56Z</time>
      </trkpt>
      <trkpt lat="46.67937" lon="5.55622">
        <ele>252.4</ele>
        <time>2022-03-09T14:29:57Z</time>
      </trkpt>
      <trkpt lat="46.67934" lon="5.55619">
        <ele>252.2</ele>
        <time>2022-03-09T14:29:58Z</time>
      </trkpt>
      <trkpt lat="46.6793" lon="5.55615">
        <ele>252.2</ele>
        <time>2022-03-09T14:29:59Z</time>
      </trkpt>
      <trkpt lat="46.67929" lon="5.55614">
        <ele>252.2</ele>
        <time>2022-03-09T14:30:00Z</time>
      </trkpt>
      <trkpt lat="46.67926" lon="5.55612">
        <ele>252.2</ele>
        <time>2022-03-09T14:30:01Z</time>
      </trkpt>
      <trkpt lat="46.67924" lon="5.55609">
        <ele>252</ele>
        <time>2022-03-09T14:30:02Z</time>
      </trkpt>
      <trkpt lat="46.67922" lon="5.55607">
        <ele>252</ele>
        <time>2022-03-09T14:30:03Z</time>
      </trkpt>
      <trkpt lat="46.6792" lon="5.55606">
        <ele>252</ele>
        <time>2022-03-09T14:30:04Z</time>
      </trkpt>
      <trkpt lat="46.67919" lon="5.55604">
        <ele>252</ele>
        <time>2022-03-09T14:30:05Z</time>
      </trkpt>
      <trkpt lat="46.67918" lon="5.55602">
        <ele>252</ele>
        <time>2022-03-09T14:30:06Z</time>
      </trkpt>
      <trkpt lat="46.67917" lon="5.556">
        <ele>252</ele>
        <time>2022-03-09T14:30:07Z</time>
      </trkpt>
      <trkpt lat="46.67915" lon="5.55599">
        <ele>252</ele>
        <time>2022-03-09T14:30:08Z</time>
      </trkpt>
      <trkpt lat="46.67912" lon="5.55598">
        <ele>252</ele>
        <time>2022-03-09T14:30:09Z</time>
      </trkpt>
      <trkpt lat="46.67909" lon="5.55596">
        <ele>252</ele>
        <time>2022-03-09T14:30:10Z</time>
      </trkpt>
      <trkpt lat="46.67906" lon="5.55594">
        <ele>252</ele>
        <time>2022-03-09T14:30:11Z</time>
      </trkpt>
      <trkpt lat="46.679" lon="5.55589">
        <ele>252</ele>
        <time>2022-03-09T14:30:12Z</time>
      </trkpt>
      <trkpt lat="46.67898" lon="5.55587">
        <ele>252</ele>
        <time>2022-03-09T14:30:13Z</time>
      </trkpt>
      <trkpt lat="46.67894" lon="5.55583">
        <ele>251.6</ele>
        <time>2022-03-09T14:30:14Z</time>
      </trkpt>
      <trkpt lat="46.6789" lon="5.55579">
        <ele>251.6</ele>
        <time>2022-03-09T14:30:15Z</time>
      </trkpt>
      <trkpt lat="46.67886" lon="5.55575">
        <ele>251.6</ele>
        <time>2022-03-09T14:30:16Z</time>
      </trkpt>
      <trkpt lat="46.67879" lon="5.5557">
        <ele>251.6</ele>
        <time>2022-03-09T14:30:17Z</time>
      </trkpt>
      <trkpt lat="46.67877" lon="5.55568">
        <ele>251.4</ele>
        <time>2022-03-09T14:30:18Z</time>
      </trkpt>
      <trkpt lat="46.67872" lon="5.55564">
        <ele>251.4</ele>
        <time>2022-03-09T14:30:19Z</time>
      </trkpt>
      <trkpt lat="46.67867" lon="5.55559">
        <ele>251.4</ele>
        <time>2022-03-09T14:30:20Z</time>
      </trkpt>
      <trkpt lat="46.6786" lon="5.55552">
        <ele>251.4</ele>
        <time>2022-03-09T14:30:21Z</time>
      </trkpt>
      <trkpt lat="46.67858" lon="5.5555">
        <ele>251.4</ele>
        <time>2022-03-09T14:30:22Z</time>
      </trkpt>
      <trkpt lat="46.67853" lon="5.55545">
        <ele>251.4</ele>
        <time>2022-03-09T14:30:23Z</time>
      </trkpt>
      <trkpt lat="46.67848" lon="5.5554">
        <ele>251.4</ele>
        <time>2022-03-09T14:30:24Z</time>
      </trkpt>
      <trkpt lat="46.67843" lon="5.55536">
        <ele>251.2</ele>
        <time>2022-03-09T14:30:25Z</time>
      </trkpt>
      <trkpt lat="46.67838" lon="5.55531">
        <ele>251.2</ele>
        <time>2022-03-09T14:30:26Z</time>
      </trkpt>
      <trkpt lat="46.67832" lon="5.55527">
        <ele>251.2</ele>
        <time>2022-03-09T14:30:27Z</time>
      </trkpt>
      <trkpt lat="46.67827" lon="5.55523">
        <ele>251</ele>
        <time>2022-03-09T14:30:28Z</time>
      </trkpt>
      <trkpt lat="46.67821" lon="5.55519">
        <ele>251</ele>
        <time>2022-03-09T14:30:29Z</time>
      </trkpt>
      <trkpt lat="46.67816" lon="5.55516">
        <ele>251</ele>
        <time>2022-03-09T14:30:30Z</time>
      </trkpt>
      <trkpt lat="46.6781" lon="5.55514">
        <ele>251</ele>
        <time>2022-03-09T14:30:31Z</time>
      </trkpt>
      <trkpt lat="46.67801" lon="5.5551">
        <ele>251</ele>
        <time>2022-03-09T14:30:32Z</time>
      </trkpt>
      <trkpt lat="46.67798" lon="5.55509">
        <ele>251</ele>
        <time>2022-03-09T14:30:33Z</time>
      </trkpt>
      <trkpt lat="46.67793" lon="5.55508">
        <ele>251</ele>
        <time>2022-03-09T14:30:34Z</time>
      </trkpt>
      <trkpt lat="46.67785" lon="5.55505">
        <ele>250.8</ele>
        <time>2022-03-09T14:30:35Z</time>
      </trkpt>
      <trkpt lat="46.67783" lon="5.55503">
        <ele>250.8</ele>
        <time>2022-03-09T14:30:36Z</time>
      </trkpt>
      <trkpt lat="46.6778" lon="5.55497">
        <ele>250.6</ele>
        <time>2022-03-09T14:30:37Z</time>
      </trkpt>
      <trkpt lat="46.67778" lon="5.55491">
        <ele>250.6</ele>
        <time>2022-03-09T14:30:38Z</time>
      </trkpt>
      <trkpt lat="46.67777" lon="5.55483">
        <ele>250.2</ele>
        <time>2022-03-09T14:30:39Z</time>
      </trkpt>
      <trkpt lat="46.67777" lon="5.55475">
        <ele>250.2</ele>
        <time>2022-03-09T14:30:40Z</time>
      </trkpt>
      <trkpt lat="46.67776" lon="5.55467">
        <ele>250</ele>
        <time>2022-03-09T14:30:41Z</time>
      </trkpt>
      <trkpt lat="46.67775" lon="5.55459">
        <ele>250</ele>
        <time>2022-03-09T14:30:42Z</time>
      </trkpt>
      <trkpt lat="46.67774" lon="5.55451">
        <ele>249.8</ele>
        <time>2022-03-09T14:30:43Z</time>
      </trkpt>
      <trkpt lat="46.67773" lon="5.55443">
        <ele>249.8</ele>
        <time>2022-03-09T14:30:44Z</time>
      </trkpt>
      <trkpt lat="46.67772" lon="5.55432">
        <ele>249.8</ele>
        <time>2022-03-09T14:30:45Z</time>
      </trkpt>
      <trkpt lat="46.67771" lon="5.55428">
        <ele>249.8</ele>
        <time>2022-03-09T14:30:46Z</time>
      </trkpt>
      <trkpt lat="46.67771" lon="5.5542">
        <ele>249.6</ele>
        <time>2022-03-09T14:30:47Z</time>
      </trkpt>
      <trkpt lat="46.67768" lon="5.55409">
        <ele>249.6</ele>
        <time>2022-03-09T14:30:48Z</time>
      </trkpt>
      <trkpt lat="46.67767" lon="5.55406">
        <ele>249.6</ele>
        <time>2022-03-09T14:30:49Z</time>
      </trkpt>
      <trkpt lat="46.67764" lon="5.554">
        <ele>249.6</ele>
        <time>2022-03-09T14:30:50Z</time>
      </trkpt>
      <trkpt lat="46.67762" lon="5.55393">
        <ele>249.4</ele>
        <time>2022-03-09T14:30:51Z</time>
      </trkpt>
      <trkpt lat="46.67759" lon="5.55387">
        <ele>249.4</ele>
        <time>2022-03-09T14:30:52Z</time>
      </trkpt>
      <trkpt lat="46.67756" lon="5.55382">
        <ele>249.4</ele>
        <time>2022-03-09T14:30:53Z</time>
      </trkpt>
      <trkpt lat="46.67753" lon="5.55376">
        <ele>249.4</ele>
        <time>2022-03-09T14:30:54Z</time>
      </trkpt>
      <trkpt lat="46.6775" lon="5.5537">
        <ele>249.4</ele>
        <time>2022-03-09T14:30:55Z</time>
      </trkpt>
      <trkpt lat="46.67746" lon="5.55364">
        <ele>249.4</ele>
        <time>2022-03-09T14:30:56Z</time>
      </trkpt>
      <trkpt lat="46.67743" lon="5.55358">
        <ele>249.4</ele>
        <time>2022-03-09T14:30:57Z</time>
      </trkpt>
      <trkpt lat="46.67739" lon="5.55353">
        <ele>249.4</ele>
        <time>2022-03-09T14:30:58Z</time>
      </trkpt>
      <trkpt lat="46.67736" lon="5.55347">
        <ele>249.2</ele>
        <time>2022-03-09T14:30:59Z</time>
      </trkpt>
      <trkpt lat="46.67732" lon="5.55341">
        <ele>249.2</ele>
        <time>2022-03-09T14:31:00Z</time>
      </trkpt>
      <trkpt lat="46.67729" lon="5.55335">
        <ele>249.2</ele>
        <time>2022-03-09T14:31:01Z</time>
      </trkpt>
      <trkpt lat="46.67725" lon="5.55329">
        <ele>249.2</ele>
        <time>2022-03-09T14:31:02Z</time>
      </trkpt>
      <trkpt lat="46.67722" lon="5.55323">
        <ele>249.2</ele>
        <time>2022-03-09T14:31:03Z</time>
      </trkpt>
      <trkpt lat="46.67719" lon="5.55318">
        <ele>249</ele>
        <time>2022-03-09T14:31:04Z</time>
      </trkpt>
      <trkpt lat="46.67715" lon="5.55312">
        <ele>249</ele>
        <time>2022-03-09T14:31:05Z</time>
      </trkpt>
      <trkpt lat="46.67712" lon="5.55307">
        <ele>249</ele>
        <time>2022-03-09T14:31:06Z</time>
      </trkpt>
      <trkpt lat="46.67707" lon="5.55299">
        <ele>249</ele>
        <time>2022-03-09T14:31:07Z</time>
      </trkpt>
      <trkpt lat="46.67706" lon="5.55297">
        <ele>248.6</ele>
        <time>2022-03-09T14:31:08Z</time>
      </trkpt>
      <trkpt lat="46.67703" lon="5.55293">
        <ele>248.6</ele>
        <time>2022-03-09T14:31:09Z</time>
      </trkpt>
      <trkpt lat="46.67701" lon="5.5529">
        <ele>248.4</ele>
        <time>2022-03-09T14:31:10Z</time>
      </trkpt>
      <trkpt lat="46.67699" lon="5.55286">
        <ele>248.4</ele>
        <time>2022-03-09T14:31:11Z</time>
      </trkpt>
      <trkpt lat="46.67699" lon="5.55285">
        <ele>248.4</ele>
        <time>2022-03-09T14:31:12Z</time>
      </trkpt>
      <trkpt lat="46.67699" lon="5.55282">
        <ele>248.4</ele>
        <time>2022-03-09T14:31:13Z</time>
      </trkpt>
      <trkpt lat="46.67699" lon="5.55279">
        <ele>248.4</ele>
        <time>2022-03-09T14:31:14Z</time>
      </trkpt>
      <trkpt lat="46.67698" lon="5.55275">
        <ele>248.4</ele>
        <time>2022-03-09T14:31:15Z</time>
      </trkpt>
      <trkpt lat="46.67696" lon="5.55272">
        <ele>248.4</ele>
        <time>2022-03-09T14:31:16Z</time>
      </trkpt>
      <trkpt lat="46.67693" lon="5.5527">
        <ele>248.4</ele>
        <time>2022-03-09T14:31:17Z</time>
      </trkpt>
      <trkpt lat="46.6769" lon="5.55268">
        <ele>248.4</ele>
        <time>2022-03-09T14:31:18Z</time>
      </trkpt>
      <trkpt lat="46.67682" lon="5.55266">
        <ele>248.4</ele>
        <time>2022-03-09T14:31:19Z</time>
      </trkpt>
      <trkpt lat="46.67677" lon="5.55265">
        <ele>248.4</ele>
        <time>2022-03-09T14:31:20Z</time>
      </trkpt>
      <trkpt lat="46.6767" lon="5.55265">
        <ele>248.4</ele>
        <time>2022-03-09T14:31:21Z</time>
      </trkpt>
      <trkpt lat="46.67668" lon="5.55265">
        <ele>248.4</ele>
        <time>2022-03-09T14:31:22Z</time>
      </trkpt>
      <trkpt lat="46.67663" lon="5.55266">
        <ele>248.8</ele>
        <time>2022-03-09T14:31:23Z</time>
      </trkpt>
      <trkpt lat="46.67657" lon="5.55269">
        <ele>248.8</ele>
        <time>2022-03-09T14:31:24Z</time>
      </trkpt>
      <trkpt lat="46.67655" lon="5.55271">
        <ele>249</ele>
        <time>2022-03-09T14:31:25Z</time>
      </trkpt>
      <trkpt lat="46.67655" lon="5.55271">
        <ele>249</ele>
        <time>2022-03-09T14:31:26Z</time>
      </trkpt>
      <trkpt lat="46.67652" lon="5.55275">
        <ele>249.2</ele>
        <time>2022-03-09T14:31:27Z</time>
      </trkpt>
      <trkpt lat="46.67648" lon="5.55278">
        <ele>249.2</ele>
        <time>2022-03-09T14:31:28Z</time>
      </trkpt>
      <trkpt lat="46.67645" lon="5.55279">
        <ele>249.6</ele>
        <time>2022-03-09T14:31:29Z</time>
      </trkpt>
      <trkpt lat="46.67639" lon="5.55279">
        <ele>249.6</ele>
        <time>2022-03-09T14:31:30Z</time>
      </trkpt>
      <trkpt lat="46.67637" lon="5.55278">
        <ele>250</ele>
        <time>2022-03-09T14:31:31Z</time>
      </trkpt>
      <trkpt lat="46.67634" lon="5.55277">
        <ele>250</ele>
        <time>2022-03-09T14:31:32Z</time>
      </trkpt>
      <trkpt lat="46.6763" lon="5.55275">
        <ele>250</ele>
        <time>2022-03-09T14:31:33Z</time>
      </trkpt>
      <trkpt lat="46.67624" lon="5.55271">
        <ele>250</ele>
        <time>2022-03-09T14:31:34Z</time>
      </trkpt>
      <trkpt lat="46.67622" lon="5.5527">
        <ele>250.2</ele>
        <time>2022-03-09T14:31:35Z</time>
      </trkpt>
      <trkpt lat="46.67615" lon="5.55266">
        <ele>250.2</ele>
        <time>2022-03-09T14:31:36Z</time>
      </trkpt>
      <trkpt lat="46.67612" lon="5.55265">
        <ele>250.2</ele>
        <time>2022-03-09T14:31:37Z</time>
      </trkpt>
      <trkpt lat="46.67608" lon="5.55263">
        <ele>250.2</ele>
        <time>2022-03-09T14:31:38Z</time>
      </trkpt>
      <trkpt lat="46.67603" lon="5.5526">
        <ele>250.2</ele>
        <time>2022-03-09T14:31:39Z</time>
      </trkpt>
      <trkpt lat="46.67598" lon="5.55258">
        <ele>250.2</ele>
        <time>2022-03-09T14:31:40Z</time>
      </trkpt>
      <trkpt lat="46.67591" lon="5.55254">
        <ele>250.2</ele>
        <time>2022-03-09T14:31:41Z</time>
      </trkpt>
      <trkpt lat="46.67588" lon="5.55253">
        <ele>250.2</ele>
        <time>2022-03-09T14:31:42Z</time>
      </trkpt>
      <trkpt lat="46.67583" lon="5.55251">
        <ele>250</ele>
        <time>2022-03-09T14:31:43Z</time>
      </trkpt>
      <trkpt lat="46.67579" lon="5.55249">
        <ele>250</ele>
        <time>2022-03-09T14:31:44Z</time>
      </trkpt>
      <trkpt lat="46.67574" lon="5.55247">
        <ele>250</ele>
        <time>2022-03-09T14:31:45Z</time>
      </trkpt>
      <trkpt lat="46.6757" lon="5.55244">
        <ele>249.6</ele>
        <time>2022-03-09T14:31:46Z</time>
      </trkpt>
      <trkpt lat="46.67565" lon="5.55242">
        <ele>249.6</ele>
        <time>2022-03-09T14:31:47Z</time>
      </trkpt>
      <trkpt lat="46.67561" lon="5.55238">
        <ele>249.6</ele>
        <time>2022-03-09T14:31:48Z</time>
      </trkpt>
      <trkpt lat="46.67556" lon="5.55236">
        <ele>249.4</ele>
        <time>2022-03-09T14:31:49Z</time>
      </trkpt>
      <trkpt lat="46.67551" lon="5.55233">
        <ele>249.4</ele>
        <time>2022-03-09T14:31:50Z</time>
      </trkpt>
      <trkpt lat="46.67547" lon="5.5523">
        <ele>249.4</ele>
        <time>2022-03-09T14:31:51Z</time>
      </trkpt>
      <trkpt lat="46.67542" lon="5.55227">
        <ele>249.4</ele>
        <time>2022-03-09T14:31:52Z</time>
      </trkpt>
      <trkpt lat="46.67537" lon="5.55225">
        <ele>249.4</ele>
        <time>2022-03-09T14:31:53Z</time>
      </trkpt>
      <trkpt lat="46.67532" lon="5.55222">
        <ele>249.4</ele>
        <time>2022-03-09T14:31:54Z</time>
      </trkpt>
      <trkpt lat="46.67528" lon="5.5522">
        <ele>249.2</ele>
        <time>2022-03-09T14:31:55Z</time>
      </trkpt>
      <trkpt lat="46.67523" lon="5.55217">
        <ele>249.2</ele>
        <time>2022-03-09T14:31:56Z</time>
      </trkpt>
      <trkpt lat="46.67518" lon="5.55215">
        <ele>249.2</ele>
        <time>2022-03-09T14:31:57Z</time>
      </trkpt>
      <trkpt lat="46.67514" lon="5.55213">
        <ele>249.2</ele>
        <time>2022-03-09T14:31:58Z</time>
      </trkpt>
      <trkpt lat="46.67509" lon="5.5521">
        <ele>249.2</ele>
        <time>2022-03-09T14:31:59Z</time>
      </trkpt>
      <trkpt lat="46.67504" lon="5.55207">
        <ele>249.2</ele>
        <time>2022-03-09T14:32:00Z</time>
      </trkpt>
      <trkpt lat="46.67497" lon="5.55203">
        <ele>249.2</ele>
        <time>2022-03-09T14:32:01Z</time>
      </trkpt>
      <trkpt lat="46.67494" lon="5.55202">
        <ele>249.2</ele>
        <time>2022-03-09T14:32:02Z</time>
      </trkpt>
      <trkpt lat="46.6749" lon="5.55199">
        <ele>249.2</ele>
        <time>2022-03-09T14:32:03Z</time>
      </trkpt>
      <trkpt lat="46.67485" lon="5.55197">
        <ele>249.2</ele>
        <time>2022-03-09T14:32:04Z</time>
      </trkpt>
      <trkpt lat="46.67478" lon="5.55193">
        <ele>249.2</ele>
        <time>2022-03-09T14:32:05Z</time>
      </trkpt>
      <trkpt lat="46.67475" lon="5.55192">
        <ele>249.2</ele>
        <time>2022-03-09T14:32:06Z</time>
      </trkpt>
      <trkpt lat="46.67471" lon="5.55189">
        <ele>249.2</ele>
        <time>2022-03-09T14:32:07Z</time>
      </trkpt>
      <trkpt lat="46.67466" lon="5.55186">
        <ele>249.4</ele>
        <time>2022-03-09T14:32:08Z</time>
      </trkpt>
      <trkpt lat="46.67461" lon="5.55184">
        <ele>249.4</ele>
        <time>2022-03-09T14:32:09Z</time>
      </trkpt>
      <trkpt lat="46.67457" lon="5.55181">
        <ele>249.4</ele>
        <time>2022-03-09T14:32:10Z</time>
      </trkpt>
      <trkpt lat="46.67453" lon="5.55179">
        <ele>249.4</ele>
        <time>2022-03-09T14:32:11Z</time>
      </trkpt>
      <trkpt lat="46.67449" lon="5.55175">
        <ele>249.4</ele>
        <time>2022-03-09T14:32:12Z</time>
      </trkpt>
      <trkpt lat="46.67445" lon="5.55173">
        <ele>249.4</ele>
        <time>2022-03-09T14:32:13Z</time>
      </trkpt>
      <trkpt lat="46.67442" lon="5.5517">
        <ele>249.6</ele>
        <time>2022-03-09T14:32:14Z</time>
      </trkpt>
      <trkpt lat="46.67438" lon="5.55167">
        <ele>249.6</ele>
        <time>2022-03-09T14:32:15Z</time>
      </trkpt>
      <trkpt lat="46.67432" lon="5.55163">
        <ele>249.6</ele>
        <time>2022-03-09T14:32:16Z</time>
      </trkpt>
      <trkpt lat="46.6743" lon="5.55161">
        <ele>249.6</ele>
        <time>2022-03-09T14:32:17Z</time>
      </trkpt>
      <trkpt lat="46.67426" lon="5.55159">
        <ele>249.6</ele>
        <time>2022-03-09T14:32:18Z</time>
      </trkpt>
      <trkpt lat="46.67423" lon="5.55157">
        <ele>249.6</ele>
        <time>2022-03-09T14:32:19Z</time>
      </trkpt>
      <trkpt lat="46.67419" lon="5.55158">
        <ele>249.4</ele>
        <time>2022-03-09T14:32:20Z</time>
      </trkpt>
      <trkpt lat="46.67416" lon="5.55161">
        <ele>249.4</ele>
        <time>2022-03-09T14:32:21Z</time>
      </trkpt>
      <trkpt lat="46.67413" lon="5.55167">
        <ele>249.4</ele>
        <time>2022-03-09T14:32:22Z</time>
      </trkpt>
      <trkpt lat="46.67412" lon="5.55169">
        <ele>249.4</ele>
        <time>2022-03-09T14:32:23Z</time>
      </trkpt>
      <trkpt lat="46.6741" lon="5.55174">
        <ele>249.4</ele>
        <time>2022-03-09T14:32:24Z</time>
      </trkpt>
      <trkpt lat="46.67407" lon="5.55179">
        <ele>249.4</ele>
        <time>2022-03-09T14:32:25Z</time>
      </trkpt>
      <trkpt lat="46.67403" lon="5.55181">
        <ele>249.6</ele>
        <time>2022-03-09T14:32:26Z</time>
      </trkpt>
      <trkpt lat="46.67399" lon="5.5518">
        <ele>249.6</ele>
        <time>2022-03-09T14:32:27Z</time>
      </trkpt>
      <trkpt lat="46.67396" lon="5.55178">
        <ele>249.6</ele>
        <time>2022-03-09T14:32:28Z</time>
      </trkpt>
      <trkpt lat="46.67393" lon="5.55175">
        <ele>249.6</ele>
        <time>2022-03-09T14:32:29Z</time>
      </trkpt>
      <trkpt lat="46.6739" lon="5.55171">
        <ele>249.6</ele>
        <time>2022-03-09T14:32:30Z</time>
      </trkpt>
      <trkpt lat="46.67387" lon="5.55168">
        <ele>249.6</ele>
        <time>2022-03-09T14:32:31Z</time>
      </trkpt>
      <trkpt lat="46.67384" lon="5.55165">
        <ele>249.6</ele>
        <time>2022-03-09T14:32:32Z</time>
      </trkpt>
      <trkpt lat="46.6738" lon="5.55161">
        <ele>249.6</ele>
        <time>2022-03-09T14:32:33Z</time>
      </trkpt>
      <trkpt lat="46.67378" lon="5.55159">
        <ele>249.6</ele>
        <time>2022-03-09T14:32:34Z</time>
      </trkpt>
      <trkpt lat="46.67375" lon="5.55157">
        <ele>249.6</ele>
        <time>2022-03-09T14:32:35Z</time>
      </trkpt>
      <trkpt lat="46.67372" lon="5.55155">
        <ele>249.4</ele>
        <time>2022-03-09T14:32:36Z</time>
      </trkpt>
      <trkpt lat="46.6737" lon="5.55153">
        <ele>249.4</ele>
        <time>2022-03-09T14:32:37Z</time>
      </trkpt>
      <trkpt lat="46.67368" lon="5.55151">
        <ele>249.4</ele>
        <time>2022-03-09T14:32:38Z</time>
      </trkpt>
      <trkpt lat="46.67365" lon="5.55149">
        <ele>249.4</ele>
        <time>2022-03-09T14:32:39Z</time>
      </trkpt>
      <trkpt lat="46.67363" lon="5.55147">
        <ele>249.4</ele>
        <time>2022-03-09T14:32:40Z</time>
      </trkpt>
      <trkpt lat="46.67361" lon="5.55146">
        <ele>249.4</ele>
        <time>2022-03-09T14:32:41Z</time>
      </trkpt>
      <trkpt lat="46.67359" lon="5.55144">
        <ele>249.4</ele>
        <time>2022-03-09T14:32:42Z</time>
      </trkpt>
      <trkpt lat="46.67357" lon="5.55143">
        <ele>249.2</ele>
        <time>2022-03-09T14:32:43Z</time>
      </trkpt>
      <trkpt lat="46.67355" lon="5.55141">
        <ele>249.2</ele>
        <time>2022-03-09T14:32:44Z</time>
      </trkpt>
      <trkpt lat="46.67353" lon="5.55139">
        <ele>249.2</ele>
        <time>2022-03-09T14:32:45Z</time>
      </trkpt>
      <trkpt lat="46.6735" lon="5.55137">
        <ele>249.2</ele>
        <time>2022-03-09T14:32:46Z</time>
      </trkpt>
      <trkpt lat="46.67348" lon="5.55135">
        <ele>249</ele>
        <time>2022-03-09T14:32:47Z</time>
      </trkpt>
      <trkpt lat="46.67345" lon="5.55134">
        <ele>249</ele>
        <time>2022-03-09T14:32:48Z</time>
      </trkpt>
      <trkpt lat="46.67343" lon="5.55132">
        <ele>249</ele>
        <time>2022-03-09T14:32:49Z</time>
      </trkpt>
      <trkpt lat="46.6734" lon="5.55129">
        <ele>249</ele>
        <time>2022-03-09T14:32:50Z</time>
      </trkpt>
      <trkpt lat="46.67338" lon="5.55127">
        <ele>249</ele>
        <time>2022-03-09T14:32:51Z</time>
      </trkpt>
      <trkpt lat="46.67336" lon="5.55125">
        <ele>249</ele>
        <time>2022-03-09T14:32:52Z</time>
      </trkpt>
      <trkpt lat="46.67333" lon="5.55123">
        <ele>249</ele>
        <time>2022-03-09T14:32:53Z</time>
      </trkpt>
      <trkpt lat="46.67331" lon="5.55122">
        <ele>249.2</ele>
        <time>2022-03-09T14:32:54Z</time>
      </trkpt>
      <trkpt lat="46.67329" lon="5.55122">
        <ele>249.2</ele>
        <time>2022-03-09T14:32:55Z</time>
      </trkpt>
      <trkpt lat="46.67328" lon="5.55122">
        <ele>249.2</ele>
        <time>2022-03-09T14:32:56Z</time>
      </trkpt>
      <trkpt lat="46.67328" lon="5.55123">
        <ele>249.4</ele>
        <time>2022-03-09T14:32:57Z</time>
      </trkpt>
      <trkpt lat="46.67327" lon="5.55123">
        <ele>249.4</ele>
        <time>2022-03-09T14:32:58Z</time>
      </trkpt>
      <trkpt lat="46.67327" lon="5.55123">
        <ele>249.4</ele>
        <time>2022-03-09T14:33:00Z</time>
      </trkpt>
      <trkpt lat="46.67327" lon="5.55123">
        <ele>249.4</ele>
        <time>2022-03-09T14:33:01Z</time>
      </trkpt>
      <trkpt lat="46.67325" lon="5.55124">
        <ele>249.4</ele>
        <time>2022-03-09T14:33:02Z</time>
      </trkpt>
      <trkpt lat="46.67323" lon="5.55124">
        <ele>249.4</ele>
        <time>2022-03-09T14:33:03Z</time>
      </trkpt>
      <trkpt lat="46.67321" lon="5.55124">
        <ele>249.4</ele>
        <time>2022-03-09T14:33:04Z</time>
      </trkpt>
      <trkpt lat="46.67318" lon="5.55125">
        <ele>249.4</ele>
        <time>2022-03-09T14:33:05Z</time>
      </trkpt>
      <trkpt lat="46.67318" lon="5.55125">
        <ele>249.4</ele>
        <time>2022-03-09T14:33:06Z</time>
      </trkpt>
      <trkpt lat="46.67316" lon="5.55126">
        <ele>249.4</ele>
        <time>2022-03-09T14:33:07Z</time>
      </trkpt>
      <trkpt lat="46.67313" lon="5.5513">
        <ele>249.4</ele>
        <time>2022-03-09T14:33:08Z</time>
      </trkpt>
      <trkpt lat="46.67312" lon="5.55131">
        <ele>249.8</ele>
        <time>2022-03-09T14:33:09Z</time>
      </trkpt>
      <trkpt lat="46.67309" lon="5.55137">
        <ele>249.8</ele>
        <time>2022-03-09T14:33:10Z</time>
      </trkpt>
      <trkpt lat="46.67308" lon="5.55139">
        <ele>249.8</ele>
        <time>2022-03-09T14:33:11Z</time>
      </trkpt>
      <trkpt lat="46.67305" lon="5.55145">
        <ele>249.8</ele>
        <time>2022-03-09T14:33:12Z</time>
      </trkpt>
      <trkpt lat="46.67304" lon="5.55147">
        <ele>249.8</ele>
        <time>2022-03-09T14:33:13Z</time>
      </trkpt>
      <trkpt lat="46.67301" lon="5.55153">
        <ele>249.8</ele>
        <time>2022-03-09T14:33:14Z</time>
      </trkpt>
      <trkpt lat="46.673" lon="5.55155">
        <ele>249.8</ele>
        <time>2022-03-09T14:33:15Z</time>
      </trkpt>
      <trkpt lat="46.67297" lon="5.55158">
        <ele>249.8</ele>
        <time>2022-03-09T14:33:16Z</time>
      </trkpt>
      <trkpt lat="46.67295" lon="5.55162">
        <ele>250</ele>
        <time>2022-03-09T14:33:17Z</time>
      </trkpt>
      <trkpt lat="46.67292" lon="5.55166">
        <ele>250</ele>
        <time>2022-03-09T14:33:18Z</time>
      </trkpt>
      <trkpt lat="46.6729" lon="5.5517">
        <ele>250</ele>
        <time>2022-03-09T14:33:19Z</time>
      </trkpt>
      <trkpt lat="46.67286" lon="5.55176">
        <ele>250</ele>
        <time>2022-03-09T14:33:20Z</time>
      </trkpt>
      <trkpt lat="46.67284" lon="5.55178">
        <ele>250.2</ele>
        <time>2022-03-09T14:33:21Z</time>
      </trkpt>
      <trkpt lat="46.6728" lon="5.5518">
        <ele>250.2</ele>
        <time>2022-03-09T14:33:22Z</time>
      </trkpt>
      <trkpt lat="46.67276" lon="5.55181">
        <ele>250.2</ele>
        <time>2022-03-09T14:33:23Z</time>
      </trkpt>
      <trkpt lat="46.67271" lon="5.55181">
        <ele>250.2</ele>
        <time>2022-03-09T14:33:24Z</time>
      </trkpt>
      <trkpt lat="46.67267" lon="5.5518">
        <ele>250.4</ele>
        <time>2022-03-09T14:33:25Z</time>
      </trkpt>
      <trkpt lat="46.67263" lon="5.55179">
        <ele>250.4</ele>
        <time>2022-03-09T14:33:26Z</time>
      </trkpt>
      <trkpt lat="46.67258" lon="5.55179">
        <ele>250.6</ele>
        <time>2022-03-09T14:33:27Z</time>
      </trkpt>
      <trkpt lat="46.67253" lon="5.55179">
        <ele>250.6</ele>
        <time>2022-03-09T14:33:28Z</time>
      </trkpt>
      <trkpt lat="46.67249" lon="5.55178">
        <ele>250.8</ele>
        <time>2022-03-09T14:33:29Z</time>
      </trkpt>
      <trkpt lat="46.67244" lon="5.55177">
        <ele>250.8</ele>
        <time>2022-03-09T14:33:30Z</time>
      </trkpt>
      <trkpt lat="46.67239" lon="5.55176">
        <ele>251.2</ele>
        <time>2022-03-09T14:33:31Z</time>
      </trkpt>
      <trkpt lat="46.67234" lon="5.55176">
        <ele>251.2</ele>
        <time>2022-03-09T14:33:32Z</time>
      </trkpt>
      <trkpt lat="46.67226" lon="5.55175">
        <ele>251.4</ele>
        <time>2022-03-09T14:33:33Z</time>
      </trkpt>
      <trkpt lat="46.67223" lon="5.55175">
        <ele>251.4</ele>
        <time>2022-03-09T14:33:34Z</time>
      </trkpt>
      <trkpt lat="46.67219" lon="5.55173">
        <ele>251.8</ele>
        <time>2022-03-09T14:33:35Z</time>
      </trkpt>
      <trkpt lat="46.67214" lon="5.55172">
        <ele>251.8</ele>
        <time>2022-03-09T14:33:36Z</time>
      </trkpt>
      <trkpt lat="46.67208" lon="5.55173">
        <ele>252.2</ele>
        <time>2022-03-09T14:33:37Z</time>
      </trkpt>
      <trkpt lat="46.67203" lon="5.55172">
        <ele>252.4</ele>
        <time>2022-03-09T14:33:38Z</time>
      </trkpt>
      <trkpt lat="46.67196" lon="5.55169">
        <ele>252.6</ele>
        <time>2022-03-09T14:33:39Z</time>
      </trkpt>
      <trkpt lat="46.67193" lon="5.55168">
        <ele>252.6</ele>
        <time>2022-03-09T14:33:40Z</time>
      </trkpt>
      <trkpt lat="46.67188" lon="5.55168">
        <ele>253</ele>
        <time>2022-03-09T14:33:41Z</time>
      </trkpt>
      <trkpt lat="46.67183" lon="5.55166">
        <ele>253</ele>
        <time>2022-03-09T14:33:42Z</time>
      </trkpt>
      <trkpt lat="46.67177" lon="5.55165">
        <ele>253.4</ele>
        <time>2022-03-09T14:33:43Z</time>
      </trkpt>
      <trkpt lat="46.67172" lon="5.55165">
        <ele>253.4</ele>
        <time>2022-03-09T14:33:44Z</time>
      </trkpt>
      <trkpt lat="46.67166" lon="5.55164">
        <ele>253.6</ele>
        <time>2022-03-09T14:33:45Z</time>
      </trkpt>
      <trkpt lat="46.6716" lon="5.55165">
        <ele>253.8</ele>
        <time>2022-03-09T14:33:46Z</time>
      </trkpt>
      <trkpt lat="46.67152" lon="5.55165">
        <ele>253.8</ele>
        <time>2022-03-09T14:33:47Z</time>
      </trkpt>
      <trkpt lat="46.67149" lon="5.55165">
        <ele>254</ele>
        <time>2022-03-09T14:33:48Z</time>
      </trkpt>
      <trkpt lat="46.67144" lon="5.55165">
        <ele>254</ele>
        <time>2022-03-09T14:33:49Z</time>
      </trkpt>
      <trkpt lat="46.67138" lon="5.55165">
        <ele>254.2</ele>
        <time>2022-03-09T14:33:50Z</time>
      </trkpt>
      <trkpt lat="46.67131" lon="5.55164">
        <ele>254.2</ele>
        <time>2022-03-09T14:33:51Z</time>
      </trkpt>
      <trkpt lat="46.67128" lon="5.55164">
        <ele>254.6</ele>
        <time>2022-03-09T14:33:52Z</time>
      </trkpt>
      <trkpt lat="46.67123" lon="5.55164">
        <ele>254.6</ele>
        <time>2022-03-09T14:33:53Z</time>
      </trkpt>
      <trkpt lat="46.67118" lon="5.55163">
        <ele>255</ele>
        <time>2022-03-09T14:33:54Z</time>
      </trkpt>
      <trkpt lat="46.67113" lon="5.55162">
        <ele>255</ele>
        <time>2022-03-09T14:33:55Z</time>
      </trkpt>
      <trkpt lat="46.67109" lon="5.55161">
        <ele>255.2</ele>
        <time>2022-03-09T14:33:56Z</time>
      </trkpt>
      <trkpt lat="46.67104" lon="5.5516">
        <ele>255.2</ele>
        <time>2022-03-09T14:33:57Z</time>
      </trkpt>
      <trkpt lat="46.67099" lon="5.55159">
        <ele>255.4</ele>
        <time>2022-03-09T14:33:58Z</time>
      </trkpt>
      <trkpt lat="46.67092" lon="5.55158">
        <ele>255.4</ele>
        <time>2022-03-09T14:33:59Z</time>
      </trkpt>
      <trkpt lat="46.6709" lon="5.55158">
        <ele>255.6</ele>
        <time>2022-03-09T14:34:00Z</time>
      </trkpt>
      <trkpt lat="46.67085" lon="5.55158">
        <ele>255.6</ele>
        <time>2022-03-09T14:34:01Z</time>
      </trkpt>
      <trkpt lat="46.67081" lon="5.55157">
        <ele>255.8</ele>
        <time>2022-03-09T14:34:02Z</time>
      </trkpt>
      <trkpt lat="46.67076" lon="5.55156">
        <ele>255.8</ele>
        <time>2022-03-09T14:34:03Z</time>
      </trkpt>
      <trkpt lat="46.67072" lon="5.55155">
        <ele>256.2</ele>
        <time>2022-03-09T14:34:04Z</time>
      </trkpt>
      <trkpt lat="46.67067" lon="5.55153">
        <ele>256.2</ele>
        <time>2022-03-09T14:34:05Z</time>
      </trkpt>
      <trkpt lat="46.67063" lon="5.55152">
        <ele>256.4</ele>
        <time>2022-03-09T14:34:06Z</time>
      </trkpt>
      <trkpt lat="46.67058" lon="5.55151">
        <ele>256.4</ele>
        <time>2022-03-09T14:34:07Z</time>
      </trkpt>
      <trkpt lat="46.67053" lon="5.5515">
        <ele>256.8</ele>
        <time>2022-03-09T14:34:08Z</time>
      </trkpt>
      <trkpt lat="46.67048" lon="5.55149">
        <ele>256.8</ele>
        <time>2022-03-09T14:34:09Z</time>
      </trkpt>
      <trkpt lat="46.67044" lon="5.55148">
        <ele>257</ele>
        <time>2022-03-09T14:34:10Z</time>
      </trkpt>
      <trkpt lat="46.67039" lon="5.55147">
        <ele>257</ele>
        <time>2022-03-09T14:34:11Z</time>
      </trkpt>
      <trkpt lat="46.67035" lon="5.55146">
        <ele>257.4</ele>
        <time>2022-03-09T14:34:12Z</time>
      </trkpt>
      <trkpt lat="46.67028" lon="5.55146">
        <ele>257.4</ele>
        <time>2022-03-09T14:34:13Z</time>
      </trkpt>
      <trkpt lat="46.67026" lon="5.55145">
        <ele>257.8</ele>
        <time>2022-03-09T14:34:14Z</time>
      </trkpt>
      <trkpt lat="46.67022" lon="5.55145">
        <ele>257.8</ele>
        <time>2022-03-09T14:34:15Z</time>
      </trkpt>
      <trkpt lat="46.67017" lon="5.55145">
        <ele>258.2</ele>
        <time>2022-03-09T14:34:16Z</time>
      </trkpt>
      <trkpt lat="46.67013" lon="5.55145">
        <ele>258.2</ele>
        <time>2022-03-09T14:34:17Z</time>
      </trkpt>
      <trkpt lat="46.67006" lon="5.55148">
        <ele>258.4</ele>
        <time>2022-03-09T14:34:18Z</time>
      </trkpt>
      <trkpt lat="46.67004" lon="5.55148">
        <ele>258.4</ele>
        <time>2022-03-09T14:34:19Z</time>
      </trkpt>
      <trkpt lat="46.67" lon="5.55147">
        <ele>258.6</ele>
        <time>2022-03-09T14:34:20Z</time>
      </trkpt>
      <trkpt lat="46.66996" lon="5.55148">
        <ele>258.6</ele>
        <time>2022-03-09T14:34:21Z</time>
      </trkpt>
      <trkpt lat="46.66991" lon="5.55148">
        <ele>259</ele>
        <time>2022-03-09T14:34:22Z</time>
      </trkpt>
      <trkpt lat="46.66987" lon="5.55148">
        <ele>259</ele>
        <time>2022-03-09T14:34:23Z</time>
      </trkpt>
      <trkpt lat="46.66983" lon="5.55149">
        <ele>259.2</ele>
        <time>2022-03-09T14:34:24Z</time>
      </trkpt>
      <trkpt lat="46.66978" lon="5.55149">
        <ele>259.2</ele>
        <time>2022-03-09T14:34:25Z</time>
      </trkpt>
      <trkpt lat="46.66973" lon="5.55152">
        <ele>259.6</ele>
        <time>2022-03-09T14:34:26Z</time>
      </trkpt>
      <trkpt lat="46.66969" lon="5.55153">
        <ele>259.6</ele>
        <time>2022-03-09T14:34:27Z</time>
      </trkpt>
      <trkpt lat="46.66965" lon="5.55151">
        <ele>259.8</ele>
        <time>2022-03-09T14:34:28Z</time>
      </trkpt>
      <trkpt lat="46.66962" lon="5.55149">
        <ele>259.8</ele>
        <time>2022-03-09T14:34:29Z</time>
      </trkpt>
      <trkpt lat="46.66956" lon="5.55147">
        <ele>260.2</ele>
        <time>2022-03-09T14:34:30Z</time>
      </trkpt>
      <trkpt lat="46.66954" lon="5.55147">
        <ele>260.2</ele>
        <time>2022-03-09T14:34:31Z</time>
      </trkpt>
      <trkpt lat="46.66951" lon="5.55145">
        <ele>260.4</ele>
        <time>2022-03-09T14:34:32Z</time>
      </trkpt>
      <trkpt lat="46.66947" lon="5.55144">
        <ele>260.4</ele>
        <time>2022-03-09T14:34:33Z</time>
      </trkpt>
      <trkpt lat="46.66944" lon="5.55143">
        <ele>260.6</ele>
        <time>2022-03-09T14:34:34Z</time>
      </trkpt>
      <trkpt lat="46.66941" lon="5.5514">
        <ele>260.6</ele>
        <time>2022-03-09T14:34:35Z</time>
      </trkpt>
      <trkpt lat="46.66938" lon="5.55138">
        <ele>260.6</ele>
        <time>2022-03-09T14:34:36Z</time>
      </trkpt>
      <trkpt lat="46.66934" lon="5.55138">
        <ele>260.8</ele>
        <time>2022-03-09T14:34:37Z</time>
      </trkpt>
      <trkpt lat="46.66928" lon="5.55137">
        <ele>260.8</ele>
        <time>2022-03-09T14:34:38Z</time>
      </trkpt>
      <trkpt lat="46.66926" lon="5.55136">
        <ele>261.2</ele>
        <time>2022-03-09T14:34:39Z</time>
      </trkpt>
      <trkpt lat="46.66921" lon="5.55137">
        <ele>261.2</ele>
        <time>2022-03-09T14:34:40Z</time>
      </trkpt>
      <trkpt lat="46.66917" lon="5.55135">
        <ele>261.4</ele>
        <time>2022-03-09T14:34:41Z</time>
      </trkpt>
      <trkpt lat="46.66912" lon="5.55131">
        <ele>261.4</ele>
        <time>2022-03-09T14:34:42Z</time>
      </trkpt>
      <trkpt lat="46.66911" lon="5.55129">
        <ele>261.8</ele>
        <time>2022-03-09T14:34:43Z</time>
      </trkpt>
      <trkpt lat="46.66909" lon="5.55121">
        <ele>261.8</ele>
        <time>2022-03-09T14:34:44Z</time>
      </trkpt>
      <trkpt lat="46.66908" lon="5.55119">
        <ele>262</ele>
        <time>2022-03-09T14:34:45Z</time>
      </trkpt>
      <trkpt lat="46.66907" lon="5.55113">
        <ele>262</ele>
        <time>2022-03-09T14:34:46Z</time>
      </trkpt>
      <trkpt lat="46.66906" lon="5.55107">
        <ele>262</ele>
        <time>2022-03-09T14:34:47Z</time>
      </trkpt>
      <trkpt lat="46.66905" lon="5.55101">
        <ele>262</ele>
        <time>2022-03-09T14:34:48Z</time>
      </trkpt>
      <trkpt lat="46.66905" lon="5.55095">
        <ele>262</ele>
        <time>2022-03-09T14:34:49Z</time>
      </trkpt>
      <trkpt lat="46.66904" lon="5.55088">
        <ele>262</ele>
        <time>2022-03-09T14:34:50Z</time>
      </trkpt>
      <trkpt lat="46.66903" lon="5.55081">
        <ele>262</ele>
        <time>2022-03-09T14:34:51Z</time>
      </trkpt>
      <trkpt lat="46.66903" lon="5.55073">
        <ele>262</ele>
        <time>2022-03-09T14:34:52Z</time>
      </trkpt>
      <trkpt lat="46.66902" lon="5.55062">
        <ele>262</ele>
        <time>2022-03-09T14:34:53Z</time>
      </trkpt>
      <trkpt lat="46.66902" lon="5.55059">
        <ele>262.2</ele>
        <time>2022-03-09T14:34:54Z</time>
      </trkpt>
      <trkpt lat="46.66902" lon="5.55051">
        <ele>262.2</ele>
        <time>2022-03-09T14:34:55Z</time>
      </trkpt>
      <trkpt lat="46.66902" lon="5.55043">
        <ele>262.2</ele>
        <time>2022-03-09T14:34:56Z</time>
      </trkpt>
      <trkpt lat="46.66902" lon="5.55036">
        <ele>262.6</ele>
        <time>2022-03-09T14:34:57Z</time>
      </trkpt>
      <trkpt lat="46.66902" lon="5.55028">
        <ele>262.6</ele>
        <time>2022-03-09T14:34:58Z</time>
      </trkpt>
      <trkpt lat="46.66902" lon="5.55021">
        <ele>262.6</ele>
        <time>2022-03-09T14:34:59Z</time>
      </trkpt>
      <trkpt lat="46.66903" lon="5.55013">
        <ele>262.6</ele>
        <time>2022-03-09T14:35:00Z</time>
      </trkpt>
      <trkpt lat="46.66903" lon="5.55006">
        <ele>262.6</ele>
        <time>2022-03-09T14:35:01Z</time>
      </trkpt>
      <trkpt lat="46.66904" lon="5.54998">
        <ele>262.6</ele>
        <time>2022-03-09T14:35:02Z</time>
      </trkpt>
      <trkpt lat="46.66905" lon="5.5499">
        <ele>262.6</ele>
        <time>2022-03-09T14:35:03Z</time>
      </trkpt>
      <trkpt lat="46.66905" lon="5.54982">
        <ele>262.6</ele>
        <time>2022-03-09T14:35:04Z</time>
      </trkpt>
      <trkpt lat="46.66906" lon="5.54974">
        <ele>262.6</ele>
        <time>2022-03-09T14:35:05Z</time>
      </trkpt>
      <trkpt lat="46.66907" lon="5.54966">
        <ele>262.6</ele>
        <time>2022-03-09T14:35:06Z</time>
      </trkpt>
      <trkpt lat="46.66908" lon="5.54957">
        <ele>262.6</ele>
        <time>2022-03-09T14:35:07Z</time>
      </trkpt>
      <trkpt lat="46.66909" lon="5.54949">
        <ele>262.6</ele>
        <time>2022-03-09T14:35:08Z</time>
      </trkpt>
      <trkpt lat="46.6691" lon="5.5494">
        <ele>262.6</ele>
        <time>2022-03-09T14:35:09Z</time>
      </trkpt>
      <trkpt lat="46.66911" lon="5.54932">
        <ele>262.6</ele>
        <time>2022-03-09T14:35:10Z</time>
      </trkpt>
      <trkpt lat="46.66912" lon="5.54924">
        <ele>262.6</ele>
        <time>2022-03-09T14:35:11Z</time>
      </trkpt>
      <trkpt lat="46.66913" lon="5.54916">
        <ele>262.6</ele>
        <time>2022-03-09T14:35:12Z</time>
      </trkpt>
      <trkpt lat="46.66914" lon="5.54903">
        <ele>262.6</ele>
        <time>2022-03-09T14:35:13Z</time>
      </trkpt>
      <trkpt lat="46.66915" lon="5.54899">
        <ele>262.6</ele>
        <time>2022-03-09T14:35:14Z</time>
      </trkpt>
      <trkpt lat="46.66916" lon="5.54891">
        <ele>262.6</ele>
        <time>2022-03-09T14:35:15Z</time>
      </trkpt>
      <trkpt lat="46.66917" lon="5.54882">
        <ele>262.6</ele>
        <time>2022-03-09T14:35:16Z</time>
      </trkpt>
      <trkpt lat="46.66918" lon="5.54874">
        <ele>262.6</ele>
        <time>2022-03-09T14:35:17Z</time>
      </trkpt>
      <trkpt lat="46.66919" lon="5.54865">
        <ele>262.2</ele>
        <time>2022-03-09T14:35:18Z</time>
      </trkpt>
      <trkpt lat="46.6692" lon="5.54856">
        <ele>262.2</ele>
        <time>2022-03-09T14:35:19Z</time>
      </trkpt>
      <trkpt lat="46.66922" lon="5.54848">
        <ele>262</ele>
        <time>2022-03-09T14:35:20Z</time>
      </trkpt>
      <trkpt lat="46.66923" lon="5.54839">
        <ele>262</ele>
        <time>2022-03-09T14:35:21Z</time>
      </trkpt>
      <trkpt lat="46.66923" lon="5.54831">
        <ele>262</ele>
        <time>2022-03-09T14:35:22Z</time>
      </trkpt>
      <trkpt lat="46.66924" lon="5.54822">
        <ele>261.8</ele>
        <time>2022-03-09T14:35:23Z</time>
      </trkpt>
      <trkpt lat="46.66926" lon="5.5481">
        <ele>261.8</ele>
        <time>2022-03-09T14:35:24Z</time>
      </trkpt>
      <trkpt lat="46.66926" lon="5.54806">
        <ele>261.4</ele>
        <time>2022-03-09T14:35:25Z</time>
      </trkpt>
      <trkpt lat="46.66927" lon="5.54799">
        <ele>261.4</ele>
        <time>2022-03-09T14:35:26Z</time>
      </trkpt>
      <trkpt lat="46.66927" lon="5.54791">
        <ele>261.2</ele>
        <time>2022-03-09T14:35:27Z</time>
      </trkpt>
      <trkpt lat="46.66928" lon="5.54783">
        <ele>261.2</ele>
        <time>2022-03-09T14:35:28Z</time>
      </trkpt>
      <trkpt lat="46.66929" lon="5.54776">
        <ele>261.2</ele>
        <time>2022-03-09T14:35:29Z</time>
      </trkpt>
      <trkpt lat="46.6693" lon="5.54766">
        <ele>261</ele>
        <time>2022-03-09T14:35:30Z</time>
      </trkpt>
      <trkpt lat="46.6693" lon="5.54764">
        <ele>261</ele>
        <time>2022-03-09T14:35:31Z</time>
      </trkpt>
      <trkpt lat="46.66931" lon="5.54758">
        <ele>261</ele>
        <time>2022-03-09T14:35:32Z</time>
      </trkpt>
      <trkpt lat="46.66932" lon="5.54753">
        <ele>260.6</ele>
        <time>2022-03-09T14:35:33Z</time>
      </trkpt>
      <trkpt lat="46.66933" lon="5.54747">
        <ele>260.6</ele>
        <time>2022-03-09T14:35:34Z</time>
      </trkpt>
      <trkpt lat="46.66935" lon="5.54742">
        <ele>260.6</ele>
        <time>2022-03-09T14:35:35Z</time>
      </trkpt>
      <trkpt lat="46.66937" lon="5.54733">
        <ele>260.4</ele>
        <time>2022-03-09T14:35:36Z</time>
      </trkpt>
      <trkpt lat="46.66938" lon="5.5473">
        <ele>260.4</ele>
        <time>2022-03-09T14:35:37Z</time>
      </trkpt>
      <trkpt lat="46.66941" lon="5.54723">
        <ele>260.4</ele>
        <time>2022-03-09T14:35:38Z</time>
      </trkpt>
      <trkpt lat="46.66944" lon="5.54717">
        <ele>260.2</ele>
        <time>2022-03-09T14:35:39Z</time>
      </trkpt>
      <trkpt lat="46.66948" lon="5.54711">
        <ele>260.2</ele>
        <time>2022-03-09T14:35:40Z</time>
      </trkpt>
      <trkpt lat="46.66952" lon="5.54705">
        <ele>259.8</ele>
        <time>2022-03-09T14:35:41Z</time>
      </trkpt>
      <trkpt lat="46.66959" lon="5.54695">
        <ele>259.8</ele>
        <time>2022-03-09T14:35:42Z</time>
      </trkpt>
      <trkpt lat="46.66961" lon="5.54692">
        <ele>259.6</ele>
        <time>2022-03-09T14:35:43Z</time>
      </trkpt>
      <trkpt lat="46.66965" lon="5.54685">
        <ele>259.6</ele>
        <time>2022-03-09T14:35:44Z</time>
      </trkpt>
      <trkpt lat="46.6697" lon="5.54678">
        <ele>259.2</ele>
        <time>2022-03-09T14:35:45Z</time>
      </trkpt>
      <trkpt lat="46.66975" lon="5.5467">
        <ele>259.2</ele>
        <time>2022-03-09T14:35:46Z</time>
      </trkpt>
      <trkpt lat="46.6698" lon="5.54662">
        <ele>258.8</ele>
        <time>2022-03-09T14:35:47Z</time>
      </trkpt>
      <trkpt lat="46.66985" lon="5.54654">
        <ele>258.8</ele>
        <time>2022-03-09T14:35:48Z</time>
      </trkpt>
      <trkpt lat="46.6699" lon="5.54646">
        <ele>258.4</ele>
        <time>2022-03-09T14:35:49Z</time>
      </trkpt>
      <trkpt lat="46.66996" lon="5.54638">
        <ele>258.2</ele>
        <time>2022-03-09T14:35:50Z</time>
      </trkpt>
      <trkpt lat="46.67002" lon="5.54629">
        <ele>258</ele>
        <time>2022-03-09T14:35:51Z</time>
      </trkpt>
      <trkpt lat="46.67008" lon="5.54621">
        <ele>257.8</ele>
        <time>2022-03-09T14:35:52Z</time>
      </trkpt>
      <trkpt lat="46.67017" lon="5.54608">
        <ele>257.6</ele>
        <time>2022-03-09T14:35:53Z</time>
      </trkpt>
      <trkpt lat="46.6702" lon="5.54604">
        <ele>257.2</ele>
        <time>2022-03-09T14:35:54Z</time>
      </trkpt>
      <trkpt lat="46.67026" lon="5.54595">
        <ele>257</ele>
        <time>2022-03-09T14:35:55Z</time>
      </trkpt>
      <trkpt lat="46.67032" lon="5.54586">
        <ele>256.8</ele>
        <time>2022-03-09T14:35:56Z</time>
      </trkpt>
      <trkpt lat="46.67041" lon="5.54573">
        <ele>256.2</ele>
        <time>2022-03-09T14:35:57Z</time>
      </trkpt>
      <trkpt lat="46.67044" lon="5.54569">
        <ele>256</ele>
        <time>2022-03-09T14:35:58Z</time>
      </trkpt>
      <trkpt lat="46.67051" lon="5.5456">
        <ele>255.6</ele>
        <time>2022-03-09T14:35:59Z</time>
      </trkpt>
      <trkpt lat="46.67057" lon="5.54552">
        <ele>255.4</ele>
        <time>2022-03-09T14:36:00Z</time>
      </trkpt>
      <trkpt lat="46.67063" lon="5.54542">
        <ele>255.2</ele>
        <time>2022-03-09T14:36:01Z</time>
      </trkpt>
      <trkpt lat="46.67069" lon="5.54534">
        <ele>254.8</ele>
        <time>2022-03-09T14:36:02Z</time>
      </trkpt>
      <trkpt lat="46.67075" lon="5.54525">
        <ele>254.6</ele>
        <time>2022-03-09T14:36:03Z</time>
      </trkpt>
      <trkpt lat="46.67081" lon="5.54516">
        <ele>254.2</ele>
        <time>2022-03-09T14:36:04Z</time>
      </trkpt>
      <trkpt lat="46.67091" lon="5.54503">
        <ele>253.8</ele>
        <time>2022-03-09T14:36:05Z</time>
      </trkpt>
      <trkpt lat="46.67094" lon="5.54498">
        <ele>253.8</ele>
        <time>2022-03-09T14:36:06Z</time>
      </trkpt>
      <trkpt lat="46.671" lon="5.5449">
        <ele>253.4</ele>
        <time>2022-03-09T14:36:07Z</time>
      </trkpt>
      <trkpt lat="46.67107" lon="5.54481">
        <ele>253.2</ele>
        <time>2022-03-09T14:36:08Z</time>
      </trkpt>
      <trkpt lat="46.67113" lon="5.54472">
        <ele>253</ele>
        <time>2022-03-09T14:36:09Z</time>
      </trkpt>
      <trkpt lat="46.67119" lon="5.54463">
        <ele>252.8</ele>
        <time>2022-03-09T14:36:10Z</time>
      </trkpt>
      <trkpt lat="46.67126" lon="5.54454">
        <ele>252.4</ele>
        <time>2022-03-09T14:36:11Z</time>
      </trkpt>
      <trkpt lat="46.67132" lon="5.54444">
        <ele>252.2</ele>
        <time>2022-03-09T14:36:12Z</time>
      </trkpt>
      <trkpt lat="46.67138" lon="5.54435">
        <ele>251.8</ele>
        <time>2022-03-09T14:36:13Z</time>
      </trkpt>
      <trkpt lat="46.67148" lon="5.54422">
        <ele>251.6</ele>
        <time>2022-03-09T14:36:14Z</time>
      </trkpt>
      <trkpt lat="46.67151" lon="5.54417">
        <ele>251.4</ele>
        <time>2022-03-09T14:36:15Z</time>
      </trkpt>
      <trkpt lat="46.6716" lon="5.54404">
        <ele>251.4</ele>
        <time>2022-03-09T14:36:16Z</time>
      </trkpt>
      <trkpt lat="46.67163" lon="5.544">
        <ele>251.2</ele>
        <time>2022-03-09T14:36:17Z</time>
      </trkpt>
      <trkpt lat="46.67169" lon="5.54392">
        <ele>250.8</ele>
        <time>2022-03-09T14:36:18Z</time>
      </trkpt>
      <trkpt lat="46.67175" lon="5.54384">
        <ele>250.6</ele>
        <time>2022-03-09T14:36:19Z</time>
      </trkpt>
      <trkpt lat="46.67181" lon="5.54376">
        <ele>250.4</ele>
        <time>2022-03-09T14:36:20Z</time>
      </trkpt>
      <trkpt lat="46.67187" lon="5.54368">
        <ele>250.2</ele>
        <time>2022-03-09T14:36:21Z</time>
      </trkpt>
      <trkpt lat="46.67196" lon="5.54358">
        <ele>250.2</ele>
        <time>2022-03-09T14:36:22Z</time>
      </trkpt>
      <trkpt lat="46.67198" lon="5.54354">
        <ele>249.8</ele>
        <time>2022-03-09T14:36:23Z</time>
      </trkpt>
      <trkpt lat="46.67204" lon="5.54347">
        <ele>249.8</ele>
        <time>2022-03-09T14:36:24Z</time>
      </trkpt>
      <trkpt lat="46.6721" lon="5.54339">
        <ele>249.6</ele>
        <time>2022-03-09T14:36:25Z</time>
      </trkpt>
      <trkpt lat="46.67215" lon="5.54333">
        <ele>249.6</ele>
        <time>2022-03-09T14:36:26Z</time>
      </trkpt>
      <trkpt lat="46.67222" lon="5.54325">
        <ele>249.2</ele>
        <time>2022-03-09T14:36:27Z</time>
      </trkpt>
      <trkpt lat="46.67224" lon="5.54322">
        <ele>249.2</ele>
        <time>2022-03-09T14:36:28Z</time>
      </trkpt>
      <trkpt lat="46.67228" lon="5.54317">
        <ele>249</ele>
        <time>2022-03-09T14:36:29Z</time>
      </trkpt>
      <trkpt lat="46.67232" lon="5.54313">
        <ele>249</ele>
        <time>2022-03-09T14:36:30Z</time>
      </trkpt>
      <trkpt lat="46.67235" lon="5.54309">
        <ele>249</ele>
        <time>2022-03-09T14:36:31Z</time>
      </trkpt>
      <trkpt lat="46.67237" lon="5.54306">
        <ele>248.6</ele>
        <time>2022-03-09T14:36:32Z</time>
      </trkpt>
      <trkpt lat="46.67239" lon="5.54304">
        <ele>248.6</ele>
        <time>2022-03-09T14:36:33Z</time>
      </trkpt>
      <trkpt lat="46.6724" lon="5.54302">
        <ele>248.6</ele>
        <time>2022-03-09T14:36:34Z</time>
      </trkpt>
      <trkpt lat="46.6724" lon="5.54301">
        <ele>248.4</ele>
        <time>2022-03-09T14:36:35Z</time>
      </trkpt>
      <trkpt lat="46.6724" lon="5.54301">
        <ele>248.4</ele>
        <time>2022-03-09T14:36:36Z</time>
      </trkpt>
      <trkpt lat="46.6724" lon="5.54301">
        <ele>248.4</ele>
        <time>2022-03-09T14:36:37Z</time>
      </trkpt>
      <trkpt lat="46.6724" lon="5.54301">
        <ele>248.4</ele>
        <time>2022-03-09T14:36:39Z</time>
      </trkpt>
      <trkpt lat="46.6724" lon="5.54301">
        <ele>248.4</ele>
        <time>2022-03-09T14:36:40Z</time>
      </trkpt>
      <trkpt lat="46.6724" lon="5.54301">
        <ele>248.4</ele>
        <time>2022-03-09T14:36:41Z</time>
      </trkpt>
      <trkpt lat="46.6724" lon="5.54301">
        <ele>248.4</ele>
        <time>2022-03-09T14:36:42Z</time>
      </trkpt>
      <trkpt lat="46.6724" lon="5.54301">
        <ele>248.4</ele>
        <time>2022-03-09T14:36:43Z</time>
      </trkpt>
      <trkpt lat="46.6724" lon="5.54301">
        <ele>248.4</ele>
        <time>2022-03-09T14:36:45Z</time>
      </trkpt>
      <trkpt lat="46.6724" lon="5.54301">
        <ele>248.4</ele>
        <time>2022-03-09T14:36:46Z</time>
      </trkpt>
      <trkpt lat="46.6724" lon="5.54301">
        <ele>248.4</ele>
        <time>2022-03-09T14:36:47Z</time>
      </trkpt>
      <trkpt lat="46.6724" lon="5.54301">
        <ele>248.4</ele>
        <time>2022-03-09T14:37:37Z</time>
      </trkpt>
      <trkpt lat="46.67242" lon="5.54299">
        <ele>248.4</ele>
        <time>2022-03-09T14:37:38Z</time>
      </trkpt>
      <trkpt lat="46.67244" lon="5.54298">
        <ele>248.4</ele>
        <time>2022-03-09T14:37:39Z</time>
      </trkpt>
      <trkpt lat="46.67246" lon="5.54296">
        <ele>248.4</ele>
        <time>2022-03-09T14:37:40Z</time>
      </trkpt>
      <trkpt lat="46.6725" lon="5.54293">
        <ele>248.4</ele>
        <time>2022-03-09T14:37:41Z</time>
      </trkpt>
      <trkpt lat="46.67252" lon="5.54291">
        <ele>248.4</ele>
        <time>2022-03-09T14:37:42Z</time>
      </trkpt>
      <trkpt lat="46.67255" lon="5.54288">
        <ele>248.4</ele>
        <time>2022-03-09T14:37:43Z</time>
      </trkpt>
      <trkpt lat="46.67259" lon="5.54285">
        <ele>248.4</ele>
        <time>2022-03-09T14:37:44Z</time>
      </trkpt>
      <trkpt lat="46.67262" lon="5.54282">
        <ele>248.6</ele>
        <time>2022-03-09T14:37:45Z</time>
      </trkpt>
      <trkpt lat="46.67265" lon="5.54277">
        <ele>248.6</ele>
        <time>2022-03-09T14:37:46Z</time>
      </trkpt>
      <trkpt lat="46.67268" lon="5.54271">
        <ele>248.6</ele>
        <time>2022-03-09T14:37:47Z</time>
      </trkpt>
      <trkpt lat="46.6727" lon="5.54265">
        <ele>248.6</ele>
        <time>2022-03-09T14:37:48Z</time>
      </trkpt>
      <trkpt lat="46.67272" lon="5.54259">
        <ele>248.6</ele>
        <time>2022-03-09T14:37:49Z</time>
      </trkpt>
      <trkpt lat="46.67273" lon="5.54252">
        <ele>248.6</ele>
        <time>2022-03-09T14:37:50Z</time>
      </trkpt>
      <trkpt lat="46.67275" lon="5.54245">
        <ele>249</ele>
        <time>2022-03-09T14:37:51Z</time>
      </trkpt>
      <trkpt lat="46.67275" lon="5.54238">
        <ele>249</ele>
        <time>2022-03-09T14:37:52Z</time>
      </trkpt>
      <trkpt lat="46.67277" lon="5.54227">
        <ele>249</ele>
        <time>2022-03-09T14:37:53Z</time>
      </trkpt>
      <trkpt lat="46.67277" lon="5.54224">
        <ele>249</ele>
        <time>2022-03-09T14:37:54Z</time>
      </trkpt>
      <trkpt lat="46.67278" lon="5.54217">
        <ele>249.2</ele>
        <time>2022-03-09T14:37:55Z</time>
      </trkpt>
      <trkpt lat="46.67279" lon="5.5421">
        <ele>249.2</ele>
        <time>2022-03-09T14:37:56Z</time>
      </trkpt>
      <trkpt lat="46.6728" lon="5.54203">
        <ele>249.2</ele>
        <time>2022-03-09T14:37:57Z</time>
      </trkpt>
      <trkpt lat="46.67281" lon="5.54196">
        <ele>249.2</ele>
        <time>2022-03-09T14:37:58Z</time>
      </trkpt>
      <trkpt lat="46.67282" lon="5.54188">
        <ele>249.2</ele>
        <time>2022-03-09T14:37:59Z</time>
      </trkpt>
      <trkpt lat="46.67284" lon="5.54177">
        <ele>249.2</ele>
        <time>2022-03-09T14:38:00Z</time>
      </trkpt>
      <trkpt lat="46.67285" lon="5.54173">
        <ele>249.4</ele>
        <time>2022-03-09T14:38:01Z</time>
      </trkpt>
      <trkpt lat="46.67286" lon="5.54165">
        <ele>249.4</ele>
        <time>2022-03-09T14:38:02Z</time>
      </trkpt>
      <trkpt lat="46.67287" lon="5.54157">
        <ele>249.4</ele>
        <time>2022-03-09T14:38:03Z</time>
      </trkpt>
      <trkpt lat="46.67288" lon="5.54149">
        <ele>249.4</ele>
        <time>2022-03-09T14:38:04Z</time>
      </trkpt>
      <trkpt lat="46.6729" lon="5.54136">
        <ele>249.4</ele>
        <time>2022-03-09T14:38:05Z</time>
      </trkpt>
      <trkpt lat="46.67291" lon="5.54131">
        <ele>249.2</ele>
        <time>2022-03-09T14:38:06Z</time>
      </trkpt>
      <trkpt lat="46.67292" lon="5.54122">
        <ele>249.2</ele>
        <time>2022-03-09T14:38:07Z</time>
      </trkpt>
      <trkpt lat="46.67294" lon="5.54113">
        <ele>249.2</ele>
        <time>2022-03-09T14:38:08Z</time>
      </trkpt>
      <trkpt lat="46.67295" lon="5.54104">
        <ele>249.2</ele>
        <time>2022-03-09T14:38:09Z</time>
      </trkpt>
      <trkpt lat="46.67298" lon="5.5409">
        <ele>249.2</ele>
        <time>2022-03-09T14:38:10Z</time>
      </trkpt>
      <trkpt lat="46.67298" lon="5.54085">
        <ele>249.2</ele>
        <time>2022-03-09T14:38:11Z</time>
      </trkpt>
      <trkpt lat="46.673" lon="5.54076">
        <ele>249.2</ele>
        <time>2022-03-09T14:38:12Z</time>
      </trkpt>
      <trkpt lat="46.67301" lon="5.54066">
        <ele>248.8</ele>
        <time>2022-03-09T14:38:13Z</time>
      </trkpt>
      <trkpt lat="46.67303" lon="5.54056">
        <ele>248.8</ele>
        <time>2022-03-09T14:38:14Z</time>
      </trkpt>
      <trkpt lat="46.67305" lon="5.54041">
        <ele>248.8</ele>
        <time>2022-03-09T14:38:15Z</time>
      </trkpt>
      <trkpt lat="46.67305" lon="5.54036">
        <ele>248.6</ele>
        <time>2022-03-09T14:38:16Z</time>
      </trkpt>
      <trkpt lat="46.67307" lon="5.54026">
        <ele>248.6</ele>
        <time>2022-03-09T14:38:17Z</time>
      </trkpt>
      <trkpt lat="46.67309" lon="5.5401">
        <ele>248.2</ele>
        <time>2022-03-09T14:38:18Z</time>
      </trkpt>
      <trkpt lat="46.6731" lon="5.54005">
        <ele>248.2</ele>
        <time>2022-03-09T14:38:19Z</time>
      </trkpt>
      <trkpt lat="46.67311" lon="5.53994">
        <ele>248.2</ele>
        <time>2022-03-09T14:38:20Z</time>
      </trkpt>
      <trkpt lat="46.67313" lon="5.53983">
        <ele>248</ele>
        <time>2022-03-09T14:38:21Z</time>
      </trkpt>
      <trkpt lat="46.67315" lon="5.53972">
        <ele>248</ele>
        <time>2022-03-09T14:38:22Z</time>
      </trkpt>
      <trkpt lat="46.67316" lon="5.53961">
        <ele>247.8</ele>
        <time>2022-03-09T14:38:23Z</time>
      </trkpt>
      <trkpt lat="46.67318" lon="5.5395">
        <ele>247.8</ele>
        <time>2022-03-09T14:38:24Z</time>
      </trkpt>
      <trkpt lat="46.67319" lon="5.53938">
        <ele>247.6</ele>
        <time>2022-03-09T14:38:25Z</time>
      </trkpt>
      <trkpt lat="46.67321" lon="5.53927">
        <ele>247.6</ele>
        <time>2022-03-09T14:38:26Z</time>
      </trkpt>
      <trkpt lat="46.67322" lon="5.53915">
        <ele>247.2</ele>
        <time>2022-03-09T14:38:27Z</time>
      </trkpt>
      <trkpt lat="46.67324" lon="5.53904">
        <ele>246.8</ele>
        <time>2022-03-09T14:38:28Z</time>
      </trkpt>
      <trkpt lat="46.67325" lon="5.53893">
        <ele>246.8</ele>
        <time>2022-03-09T14:38:29Z</time>
      </trkpt>
      <trkpt lat="46.67327" lon="5.53882">
        <ele>246.6</ele>
        <time>2022-03-09T14:38:30Z</time>
      </trkpt>
      <trkpt lat="46.67328" lon="5.53871">
        <ele>246.6</ele>
        <time>2022-03-09T14:38:31Z</time>
      </trkpt>
      <trkpt lat="46.67329" lon="5.5386">
        <ele>246.2</ele>
        <time>2022-03-09T14:38:32Z</time>
      </trkpt>
      <trkpt lat="46.67329" lon="5.53849">
        <ele>246.2</ele>
        <time>2022-03-09T14:38:33Z</time>
      </trkpt>
      <trkpt lat="46.6733" lon="5.53832">
        <ele>246</ele>
        <time>2022-03-09T14:38:34Z</time>
      </trkpt>
      <trkpt lat="46.6733" lon="5.53826">
        <ele>246</ele>
        <time>2022-03-09T14:38:35Z</time>
      </trkpt>
      <trkpt lat="46.67331" lon="5.53809">
        <ele>245.8</ele>
        <time>2022-03-09T14:38:36Z</time>
      </trkpt>
      <trkpt lat="46.67331" lon="5.53804">
        <ele>245.8</ele>
        <time>2022-03-09T14:38:37Z</time>
      </trkpt>
      <trkpt lat="46.67331" lon="5.53787">
        <ele>245.4</ele>
        <time>2022-03-09T14:38:38Z</time>
      </trkpt>
      <trkpt lat="46.67331" lon="5.53782">
        <ele>245.4</ele>
        <time>2022-03-09T14:38:39Z</time>
      </trkpt>
      <trkpt lat="46.67331" lon="5.5377">
        <ele>245.2</ele>
        <time>2022-03-09T14:38:40Z</time>
      </trkpt>
      <trkpt lat="46.6733" lon="5.53753">
        <ele>245</ele>
        <time>2022-03-09T14:38:41Z</time>
      </trkpt>
      <trkpt lat="46.6733" lon="5.53747">
        <ele>245</ele>
        <time>2022-03-09T14:38:42Z</time>
      </trkpt>
      <trkpt lat="46.6733" lon="5.53736">
        <ele>244.6</ele>
        <time>2022-03-09T14:38:43Z</time>
      </trkpt>
      <trkpt lat="46.6733" lon="5.53724">
        <ele>244.6</ele>
        <time>2022-03-09T14:38:44Z</time>
      </trkpt>
      <trkpt lat="46.67329" lon="5.53707">
        <ele>244.2</ele>
        <time>2022-03-09T14:38:45Z</time>
      </trkpt>
      <trkpt lat="46.67329" lon="5.53701">
        <ele>244.2</ele>
        <time>2022-03-09T14:38:46Z</time>
      </trkpt>
      <trkpt lat="46.67329" lon="5.53689">
        <ele>244</ele>
        <time>2022-03-09T14:38:47Z</time>
      </trkpt>
      <trkpt lat="46.67329" lon="5.53678">
        <ele>244</ele>
        <time>2022-03-09T14:38:48Z</time>
      </trkpt>
      <trkpt lat="46.6733" lon="5.53666">
        <ele>244</ele>
        <time>2022-03-09T14:38:49Z</time>
      </trkpt>
      <trkpt lat="46.67331" lon="5.53655">
        <ele>243.6</ele>
        <time>2022-03-09T14:38:50Z</time>
      </trkpt>
      <trkpt lat="46.67334" lon="5.53638">
        <ele>243.6</ele>
        <time>2022-03-09T14:38:51Z</time>
      </trkpt>
      <trkpt lat="46.67335" lon="5.53633">
        <ele>243.4</ele>
        <time>2022-03-09T14:38:52Z</time>
      </trkpt>
      <trkpt lat="46.67338" lon="5.53623">
        <ele>243.4</ele>
        <time>2022-03-09T14:38:53Z</time>
      </trkpt>
      <trkpt lat="46.67341" lon="5.53612">
        <ele>243</ele>
        <time>2022-03-09T14:38:54Z</time>
      </trkpt>
      <trkpt lat="46.67345" lon="5.53601">
        <ele>242.8</ele>
        <time>2022-03-09T14:38:55Z</time>
      </trkpt>
      <trkpt lat="46.67349" lon="5.53591">
        <ele>242.8</ele>
        <time>2022-03-09T14:38:56Z</time>
      </trkpt>
      <trkpt lat="46.67355" lon="5.53574">
        <ele>242.4</ele>
        <time>2022-03-09T14:38:57Z</time>
      </trkpt>
      <trkpt lat="46.67357" lon="5.53569">
        <ele>242.4</ele>
        <time>2022-03-09T14:38:58Z</time>
      </trkpt>
      <trkpt lat="46.67362" lon="5.53558">
        <ele>242</ele>
        <time>2022-03-09T14:38:59Z</time>
      </trkpt>
      <trkpt lat="46.67366" lon="5.53546">
        <ele>241.8</ele>
        <time>2022-03-09T14:39:00Z</time>
      </trkpt>
      <trkpt lat="46.6737" lon="5.53535">
        <ele>241.8</ele>
        <time>2022-03-09T14:39:01Z</time>
      </trkpt>
      <trkpt lat="46.67374" lon="5.53524">
        <ele>241.6</ele>
        <time>2022-03-09T14:39:02Z</time>
      </trkpt>
      <trkpt lat="46.67378" lon="5.53513">
        <ele>241.6</ele>
        <time>2022-03-09T14:39:03Z</time>
      </trkpt>
      <trkpt lat="46.67382" lon="5.53502">
        <ele>241.2</ele>
        <time>2022-03-09T14:39:04Z</time>
      </trkpt>
      <trkpt lat="46.67387" lon="5.5349">
        <ele>241.2</ele>
        <time>2022-03-09T14:39:05Z</time>
      </trkpt>
      <trkpt lat="46.67391" lon="5.53479">
        <ele>241.2</ele>
        <time>2022-03-09T14:39:06Z</time>
      </trkpt>
      <trkpt lat="46.67395" lon="5.53468">
        <ele>240.8</ele>
        <time>2022-03-09T14:39:07Z</time>
      </trkpt>
      <trkpt lat="46.67399" lon="5.53457">
        <ele>240.8</ele>
        <time>2022-03-09T14:39:08Z</time>
      </trkpt>
      <trkpt lat="46.67403" lon="5.53446">
        <ele>240.6</ele>
        <time>2022-03-09T14:39:09Z</time>
      </trkpt>
      <trkpt lat="46.67407" lon="5.53434">
        <ele>240.6</ele>
        <time>2022-03-09T14:39:10Z</time>
      </trkpt>
      <trkpt lat="46.67411" lon="5.53423">
        <ele>240.2</ele>
        <time>2022-03-09T14:39:11Z</time>
      </trkpt>
      <trkpt lat="46.67417" lon="5.53407">
        <ele>240</ele>
        <time>2022-03-09T14:39:12Z</time>
      </trkpt>
      <trkpt lat="46.67419" lon="5.53401">
        <ele>240</ele>
        <time>2022-03-09T14:39:13Z</time>
      </trkpt>
      <trkpt lat="46.67423" lon="5.5339">
        <ele>239.8</ele>
        <time>2022-03-09T14:39:14Z</time>
      </trkpt>
      <trkpt lat="46.67427" lon="5.53379">
        <ele>239.8</ele>
        <time>2022-03-09T14:39:15Z</time>
      </trkpt>
      <trkpt lat="46.67431" lon="5.53368">
        <ele>239.4</ele>
        <time>2022-03-09T14:39:16Z</time>
      </trkpt>
      <trkpt lat="46.67435" lon="5.53357">
        <ele>239.4</ele>
        <time>2022-03-09T14:39:17Z</time>
      </trkpt>
      <trkpt lat="46.67439" lon="5.53346">
        <ele>239.2</ele>
        <time>2022-03-09T14:39:18Z</time>
      </trkpt>
      <trkpt lat="46.67443" lon="5.53336">
        <ele>239.2</ele>
        <time>2022-03-09T14:39:19Z</time>
      </trkpt>
      <trkpt lat="46.67449" lon="5.5332">
        <ele>239</ele>
        <time>2022-03-09T14:39:20Z</time>
      </trkpt>
      <trkpt lat="46.67451" lon="5.53314">
        <ele>239</ele>
        <time>2022-03-09T14:39:21Z</time>
      </trkpt>
      <trkpt lat="46.67455" lon="5.53304">
        <ele>238.8</ele>
        <time>2022-03-09T14:39:22Z</time>
      </trkpt>
      <trkpt lat="46.67459" lon="5.53293">
        <ele>238.8</ele>
        <time>2022-03-09T14:39:23Z</time>
      </trkpt>
      <trkpt lat="46.67463" lon="5.53283">
        <ele>238.6</ele>
        <time>2022-03-09T14:39:24Z</time>
      </trkpt>
      <trkpt lat="46.67466" lon="5.53272">
        <ele>238.6</ele>
        <time>2022-03-09T14:39:25Z</time>
      </trkpt>
      <trkpt lat="46.6747" lon="5.53261">
        <ele>238.6</ele>
        <time>2022-03-09T14:39:26Z</time>
      </trkpt>
      <trkpt lat="46.67474" lon="5.5325">
        <ele>238.4</ele>
        <time>2022-03-09T14:39:27Z</time>
      </trkpt>
      <trkpt lat="46.67477" lon="5.5324">
        <ele>238.4</ele>
        <time>2022-03-09T14:39:28Z</time>
      </trkpt>
      <trkpt lat="46.67481" lon="5.53229">
        <ele>238</ele>
        <time>2022-03-09T14:39:29Z</time>
      </trkpt>
      <trkpt lat="46.67486" lon="5.53213">
        <ele>238</ele>
        <time>2022-03-09T14:39:30Z</time>
      </trkpt>
      <trkpt lat="46.67488" lon="5.53208">
        <ele>238</ele>
        <time>2022-03-09T14:39:31Z</time>
      </trkpt>
      <trkpt lat="46.67492" lon="5.53198">
        <ele>237.8</ele>
        <time>2022-03-09T14:39:32Z</time>
      </trkpt>
      <trkpt lat="46.67496" lon="5.53188">
        <ele>237.8</ele>
        <time>2022-03-09T14:39:33Z</time>
      </trkpt>
      <trkpt lat="46.67499" lon="5.53178">
        <ele>237.8</ele>
        <time>2022-03-09T14:39:34Z</time>
      </trkpt>
      <trkpt lat="46.67504" lon="5.53163">
        <ele>237.8</ele>
        <time>2022-03-09T14:39:35Z</time>
      </trkpt>
      <trkpt lat="46.67506" lon="5.53158">
        <ele>237.8</ele>
        <time>2022-03-09T14:39:36Z</time>
      </trkpt>
      <trkpt lat="46.6751" lon="5.53149">
        <ele>237.8</ele>
        <time>2022-03-09T14:39:37Z</time>
      </trkpt>
      <trkpt lat="46.67513" lon="5.53139">
        <ele>237.4</ele>
        <time>2022-03-09T14:39:38Z</time>
      </trkpt>
      <trkpt lat="46.67517" lon="5.5313">
        <ele>237.4</ele>
        <time>2022-03-09T14:39:39Z</time>
      </trkpt>
      <trkpt lat="46.6752" lon="5.5312">
        <ele>237.2</ele>
        <time>2022-03-09T14:39:40Z</time>
      </trkpt>
      <trkpt lat="46.67523" lon="5.53111">
        <ele>237.2</ele>
        <time>2022-03-09T14:39:41Z</time>
      </trkpt>
      <trkpt lat="46.67526" lon="5.53102">
        <ele>237.2</ele>
        <time>2022-03-09T14:39:42Z</time>
      </trkpt>
      <trkpt lat="46.67531" lon="5.53089">
        <ele>237.2</ele>
        <time>2022-03-09T14:39:43Z</time>
      </trkpt>
      <trkpt lat="46.67532" lon="5.53085">
        <ele>237.2</ele>
        <time>2022-03-09T14:39:44Z</time>
      </trkpt>
      <trkpt lat="46.67535" lon="5.53077">
        <ele>237</ele>
        <time>2022-03-09T14:39:45Z</time>
      </trkpt>
      <trkpt lat="46.67538" lon="5.5307">
        <ele>237</ele>
        <time>2022-03-09T14:39:46Z</time>
      </trkpt>
      <trkpt lat="46.67539" lon="5.53065">
        <ele>237</ele>
        <time>2022-03-09T14:39:47Z</time>
      </trkpt>
      <trkpt lat="46.67541" lon="5.5306">
        <ele>236.6</ele>
        <time>2022-03-09T14:39:48Z</time>
      </trkpt>
      <trkpt lat="46.67543" lon="5.53055">
        <ele>236.6</ele>
        <time>2022-03-09T14:39:49Z</time>
      </trkpt>
      <trkpt lat="46.67545" lon="5.5305">
        <ele>236.6</ele>
        <time>2022-03-09T14:39:50Z</time>
      </trkpt>
      <trkpt lat="46.67547" lon="5.53045">
        <ele>236.6</ele>
        <time>2022-03-09T14:39:51Z</time>
      </trkpt>
      <trkpt lat="46.6755" lon="5.53041">
        <ele>236.6</ele>
        <time>2022-03-09T14:39:52Z</time>
      </trkpt>
      <trkpt lat="46.67554" lon="5.53039">
        <ele>236.4</ele>
        <time>2022-03-09T14:39:53Z</time>
      </trkpt>
      <trkpt lat="46.67559" lon="5.53039">
        <ele>236.4</ele>
        <time>2022-03-09T14:39:54Z</time>
      </trkpt>
      <trkpt lat="46.67564" lon="5.53041">
        <ele>236.4</ele>
        <time>2022-03-09T14:39:55Z</time>
      </trkpt>
      <trkpt lat="46.67572" lon="5.53043">
        <ele>236.4</ele>
        <time>2022-03-09T14:39:56Z</time>
      </trkpt>
      <trkpt lat="46.67575" lon="5.53044">
        <ele>236.4</ele>
        <time>2022-03-09T14:39:57Z</time>
      </trkpt>
      <trkpt lat="46.67581" lon="5.53046">
        <ele>236.4</ele>
        <time>2022-03-09T14:39:58Z</time>
      </trkpt>
      <trkpt lat="46.67587" lon="5.53048">
        <ele>236.4</ele>
        <time>2022-03-09T14:39:59Z</time>
      </trkpt>
      <trkpt lat="46.67596" lon="5.53051">
        <ele>236.4</ele>
        <time>2022-03-09T14:40:00Z</time>
      </trkpt>
      <trkpt lat="46.67599" lon="5.53052">
        <ele>236.4</ele>
        <time>2022-03-09T14:40:01Z</time>
      </trkpt>
      <trkpt lat="46.67605" lon="5.53053">
        <ele>236.4</ele>
        <time>2022-03-09T14:40:02Z</time>
      </trkpt>
      <trkpt lat="46.67611" lon="5.53055">
        <ele>236.4</ele>
        <time>2022-03-09T14:40:03Z</time>
      </trkpt>
      <trkpt lat="46.67617" lon="5.53056">
        <ele>236.4</ele>
        <time>2022-03-09T14:40:04Z</time>
      </trkpt>
      <trkpt lat="46.67623" lon="5.53057">
        <ele>236.2</ele>
        <time>2022-03-09T14:40:05Z</time>
      </trkpt>
      <trkpt lat="46.67629" lon="5.53058">
        <ele>236.2</ele>
        <time>2022-03-09T14:40:06Z</time>
      </trkpt>
      <trkpt lat="46.67635" lon="5.53059">
        <ele>236.2</ele>
        <time>2022-03-09T14:40:07Z</time>
      </trkpt>
      <trkpt lat="46.67641" lon="5.5306">
        <ele>236.2</ele>
        <time>2022-03-09T14:40:08Z</time>
      </trkpt>
      <trkpt lat="46.67647" lon="5.53062">
        <ele>236.2</ele>
        <time>2022-03-09T14:40:09Z</time>
      </trkpt>
      <trkpt lat="46.67653" lon="5.53064">
        <ele>236.4</ele>
        <time>2022-03-09T14:40:10Z</time>
      </trkpt>
      <trkpt lat="46.67658" lon="5.53066">
        <ele>236.4</ele>
        <time>2022-03-09T14:40:11Z</time>
      </trkpt>
      <trkpt lat="46.67664" lon="5.53068">
        <ele>236.4</ele>
        <time>2022-03-09T14:40:12Z</time>
      </trkpt>
      <trkpt lat="46.67669" lon="5.5307">
        <ele>236.6</ele>
        <time>2022-03-09T14:40:13Z</time>
      </trkpt>
      <trkpt lat="46.67675" lon="5.53071">
        <ele>236.6</ele>
        <time>2022-03-09T14:40:14Z</time>
      </trkpt>
      <trkpt lat="46.6768" lon="5.53072">
        <ele>236.6</ele>
        <time>2022-03-09T14:40:15Z</time>
      </trkpt>
      <trkpt lat="46.67687" lon="5.53072">
        <ele>236.6</ele>
        <time>2022-03-09T14:40:16Z</time>
      </trkpt>
      <trkpt lat="46.67696" lon="5.53068">
        <ele>236.6</ele>
        <time>2022-03-09T14:40:17Z</time>
      </trkpt>
      <trkpt lat="46.67699" lon="5.53066">
        <ele>236.6</ele>
        <time>2022-03-09T14:40:18Z</time>
      </trkpt>
      <trkpt lat="46.67705" lon="5.53061">
        <ele>236.4</ele>
        <time>2022-03-09T14:40:19Z</time>
      </trkpt>
      <trkpt lat="46.6771" lon="5.53054">
        <ele>236.4</ele>
        <time>2022-03-09T14:40:20Z</time>
      </trkpt>
      <trkpt lat="46.67713" lon="5.53046">
        <ele>236</ele>
        <time>2022-03-09T14:40:21Z</time>
      </trkpt>
      <trkpt lat="46.67716" lon="5.53036">
        <ele>236</ele>
        <time>2022-03-09T14:40:22Z</time>
      </trkpt>
      <trkpt lat="46.6772" lon="5.53022">
        <ele>235.8</ele>
        <time>2022-03-09T14:40:23Z</time>
      </trkpt>
      <trkpt lat="46.67721" lon="5.53017">
        <ele>235.8</ele>
        <time>2022-03-09T14:40:24Z</time>
      </trkpt>
      <trkpt lat="46.67725" lon="5.53008">
        <ele>235.8</ele>
        <time>2022-03-09T14:40:25Z</time>
      </trkpt>
      <trkpt lat="46.67729" lon="5.53">
        <ele>235.8</ele>
        <time>2022-03-09T14:40:26Z</time>
      </trkpt>
      <trkpt lat="46.67733" lon="5.52993">
        <ele>235.8</ele>
        <time>2022-03-09T14:40:27Z</time>
      </trkpt>
      <trkpt lat="46.67738" lon="5.52988">
        <ele>235.8</ele>
        <time>2022-03-09T14:40:28Z</time>
      </trkpt>
      <trkpt lat="46.67747" lon="5.52982">
        <ele>235.8</ele>
        <time>2022-03-09T14:40:29Z</time>
      </trkpt>
      <trkpt lat="46.6775" lon="5.52981">
        <ele>235.8</ele>
        <time>2022-03-09T14:40:30Z</time>
      </trkpt>
      <trkpt lat="46.67756" lon="5.52977">
        <ele>236</ele>
        <time>2022-03-09T14:40:31Z</time>
      </trkpt>
      <trkpt lat="46.67761" lon="5.52974">
        <ele>236</ele>
        <time>2022-03-09T14:40:32Z</time>
      </trkpt>
      <trkpt lat="46.67765" lon="5.5297">
        <ele>236.4</ele>
        <time>2022-03-09T14:40:33Z</time>
      </trkpt>
      <trkpt lat="46.67769" lon="5.52965">
        <ele>236.4</ele>
        <time>2022-03-09T14:40:34Z</time>
      </trkpt>
      <trkpt lat="46.67772" lon="5.52959">
        <ele>236.4</ele>
        <time>2022-03-09T14:40:35Z</time>
      </trkpt>
      <trkpt lat="46.67773" lon="5.52948">
        <ele>236.8</ele>
        <time>2022-03-09T14:40:36Z</time>
      </trkpt>
      <trkpt lat="46.67774" lon="5.52944">
        <ele>237</ele>
        <time>2022-03-09T14:40:37Z</time>
      </trkpt>
      <trkpt lat="46.67774" lon="5.52933">
        <ele>237</ele>
        <time>2022-03-09T14:40:38Z</time>
      </trkpt>
      <trkpt lat="46.67774" lon="5.52929">
        <ele>237.4</ele>
        <time>2022-03-09T14:40:39Z</time>
      </trkpt>
      <trkpt lat="46.67774" lon="5.52921">
        <ele>237.4</ele>
        <time>2022-03-09T14:40:40Z</time>
      </trkpt>
      <trkpt lat="46.67773" lon="5.52914">
        <ele>237.8</ele>
        <time>2022-03-09T14:40:41Z</time>
      </trkpt>
      <trkpt lat="46.67773" lon="5.52906">
        <ele>237.8</ele>
        <time>2022-03-09T14:40:42Z</time>
      </trkpt>
      <trkpt lat="46.67773" lon="5.52897">
        <ele>238</ele>
        <time>2022-03-09T14:40:43Z</time>
      </trkpt>
      <trkpt lat="46.67772" lon="5.52888">
        <ele>238</ele>
        <time>2022-03-09T14:40:44Z</time>
      </trkpt>
      <trkpt lat="46.67771" lon="5.52878">
        <ele>238</ele>
        <time>2022-03-09T14:40:45Z</time>
      </trkpt>
      <trkpt lat="46.67769" lon="5.52862">
        <ele>237.6</ele>
        <time>2022-03-09T14:40:46Z</time>
      </trkpt>
      <trkpt lat="46.67768" lon="5.52857">
        <ele>237.4</ele>
        <time>2022-03-09T14:40:47Z</time>
      </trkpt>
      <trkpt lat="46.67767" lon="5.52846">
        <ele>237.4</ele>
        <time>2022-03-09T14:40:48Z</time>
      </trkpt>
      <trkpt lat="46.67766" lon="5.52835">
        <ele>237</ele>
        <time>2022-03-09T14:40:49Z</time>
      </trkpt>
      <trkpt lat="46.67765" lon="5.52823">
        <ele>237</ele>
        <time>2022-03-09T14:40:50Z</time>
      </trkpt>
      <trkpt lat="46.67764" lon="5.52811">
        <ele>236.8</ele>
        <time>2022-03-09T14:40:51Z</time>
      </trkpt>
      <trkpt lat="46.67764" lon="5.52799">
        <ele>236.2</ele>
        <time>2022-03-09T14:40:52Z</time>
      </trkpt>
      <trkpt lat="46.67764" lon="5.52788">
        <ele>236</ele>
        <time>2022-03-09T14:40:53Z</time>
      </trkpt>
      <trkpt lat="46.67764" lon="5.52776">
        <ele>235.8</ele>
        <time>2022-03-09T14:40:54Z</time>
      </trkpt>
      <trkpt lat="46.67765" lon="5.52765">
        <ele>235.8</ele>
        <time>2022-03-09T14:40:55Z</time>
      </trkpt>
      <trkpt lat="46.67766" lon="5.52753">
        <ele>235.4</ele>
        <time>2022-03-09T14:40:56Z</time>
      </trkpt>
      <trkpt lat="46.67767" lon="5.52742">
        <ele>235</ele>
        <time>2022-03-09T14:40:57Z</time>
      </trkpt>
      <trkpt lat="46.6777" lon="5.52725">
        <ele>235</ele>
        <time>2022-03-09T14:40:58Z</time>
      </trkpt>
      <trkpt lat="46.67771" lon="5.52719">
        <ele>234.8</ele>
        <time>2022-03-09T14:40:59Z</time>
      </trkpt>
      <trkpt lat="46.67774" lon="5.52708">
        <ele>234.8</ele>
        <time>2022-03-09T14:41:00Z</time>
      </trkpt>
      <trkpt lat="46.67776" lon="5.52698">
        <ele>234.4</ele>
        <time>2022-03-09T14:41:01Z</time>
      </trkpt>
      <trkpt lat="46.67779" lon="5.52687">
        <ele>234.4</ele>
        <time>2022-03-09T14:41:02Z</time>
      </trkpt>
      <trkpt lat="46.67782" lon="5.52676">
        <ele>234.4</ele>
        <time>2022-03-09T14:41:03Z</time>
      </trkpt>
      <trkpt lat="46.67785" lon="5.52666">
        <ele>234.2</ele>
        <time>2022-03-09T14:41:04Z</time>
      </trkpt>
      <trkpt lat="46.67787" lon="5.52655">
        <ele>234.2</ele>
        <time>2022-03-09T14:41:05Z</time>
      </trkpt>
      <trkpt lat="46.6779" lon="5.52645">
        <ele>234.2</ele>
        <time>2022-03-09T14:41:06Z</time>
      </trkpt>
      <trkpt lat="46.67792" lon="5.52635">
        <ele>234.2</ele>
        <time>2022-03-09T14:41:07Z</time>
      </trkpt>
      <trkpt lat="46.67794" lon="5.52624">
        <ele>234.2</ele>
        <time>2022-03-09T14:41:08Z</time>
      </trkpt>
      <trkpt lat="46.67796" lon="5.52609">
        <ele>234.2</ele>
        <time>2022-03-09T14:41:09Z</time>
      </trkpt>
      <trkpt lat="46.67797" lon="5.52604">
        <ele>234.2</ele>
        <time>2022-03-09T14:41:10Z</time>
      </trkpt>
      <trkpt lat="46.67798" lon="5.52594">
        <ele>234.2</ele>
        <time>2022-03-09T14:41:11Z</time>
      </trkpt>
      <trkpt lat="46.678" lon="5.52584">
        <ele>234.2</ele>
        <time>2022-03-09T14:41:12Z</time>
      </trkpt>
      <trkpt lat="46.67801" lon="5.52574">
        <ele>234.2</ele>
        <time>2022-03-09T14:41:13Z</time>
      </trkpt>
      <trkpt lat="46.67803" lon="5.52564">
        <ele>234</ele>
        <time>2022-03-09T14:41:14Z</time>
      </trkpt>
      <trkpt lat="46.67805" lon="5.52549">
        <ele>234</ele>
        <time>2022-03-09T14:41:15Z</time>
      </trkpt>
      <trkpt lat="46.67806" lon="5.52544">
        <ele>234</ele>
        <time>2022-03-09T14:41:16Z</time>
      </trkpt>
      <trkpt lat="46.67807" lon="5.52534">
        <ele>234</ele>
        <time>2022-03-09T14:41:17Z</time>
      </trkpt>
      <trkpt lat="46.67808" lon="5.52525">
        <ele>234</ele>
        <time>2022-03-09T14:41:18Z</time>
      </trkpt>
      <trkpt lat="46.67809" lon="5.52515">
        <ele>234</ele>
        <time>2022-03-09T14:41:19Z</time>
      </trkpt>
      <trkpt lat="46.67809" lon="5.52505">
        <ele>234</ele>
        <time>2022-03-09T14:41:20Z</time>
      </trkpt>
      <trkpt lat="46.67809" lon="5.52496">
        <ele>234</ele>
        <time>2022-03-09T14:41:21Z</time>
      </trkpt>
      <trkpt lat="46.67809" lon="5.52487">
        <ele>234</ele>
        <time>2022-03-09T14:41:22Z</time>
      </trkpt>
      <trkpt lat="46.67809" lon="5.52478">
        <ele>234</ele>
        <time>2022-03-09T14:41:23Z</time>
      </trkpt>
      <trkpt lat="46.67809" lon="5.52469">
        <ele>234</ele>
        <time>2022-03-09T14:41:24Z</time>
      </trkpt>
      <trkpt lat="46.67809" lon="5.5246">
        <ele>234.4</ele>
        <time>2022-03-09T14:41:25Z</time>
      </trkpt>
      <trkpt lat="46.6781" lon="5.52446">
        <ele>234.4</ele>
        <time>2022-03-09T14:41:26Z</time>
      </trkpt>
      <trkpt lat="46.6781" lon="5.52442">
        <ele>234.4</ele>
        <time>2022-03-09T14:41:27Z</time>
      </trkpt>
      <trkpt lat="46.6781" lon="5.52433">
        <ele>234.4</ele>
        <time>2022-03-09T14:41:28Z</time>
      </trkpt>
      <trkpt lat="46.6781" lon="5.52424">
        <ele>234.4</ele>
        <time>2022-03-09T14:41:29Z</time>
      </trkpt>
      <trkpt lat="46.6781" lon="5.52415">
        <ele>234.4</ele>
        <time>2022-03-09T14:41:30Z</time>
      </trkpt>
      <trkpt lat="46.67811" lon="5.52406">
        <ele>234.4</ele>
        <time>2022-03-09T14:41:31Z</time>
      </trkpt>
      <trkpt lat="46.67812" lon="5.52392">
        <ele>234.4</ele>
        <time>2022-03-09T14:41:32Z</time>
      </trkpt>
      <trkpt lat="46.67813" lon="5.52388">
        <ele>234.4</ele>
        <time>2022-03-09T14:41:33Z</time>
      </trkpt>
      <trkpt lat="46.67815" lon="5.52379">
        <ele>234</ele>
        <time>2022-03-09T14:41:34Z</time>
      </trkpt>
      <trkpt lat="46.67817" lon="5.5237">
        <ele>234</ele>
        <time>2022-03-09T14:41:35Z</time>
      </trkpt>
      <trkpt lat="46.6782" lon="5.52361">
        <ele>233.8</ele>
        <time>2022-03-09T14:41:36Z</time>
      </trkpt>
      <trkpt lat="46.67824" lon="5.52353">
        <ele>233.8</ele>
        <time>2022-03-09T14:41:37Z</time>
      </trkpt>
      <trkpt lat="46.67826" lon="5.52345">
        <ele>233.8</ele>
        <time>2022-03-09T14:41:38Z</time>
      </trkpt>
      <trkpt lat="46.6783" lon="5.52337">
        <ele>233.6</ele>
        <time>2022-03-09T14:41:39Z</time>
      </trkpt>
      <trkpt lat="46.67833" lon="5.52329">
        <ele>233.6</ele>
        <time>2022-03-09T14:41:40Z</time>
      </trkpt>
      <trkpt lat="46.67836" lon="5.5232">
        <ele>233.6</ele>
        <time>2022-03-09T14:41:41Z</time>
      </trkpt>
      <trkpt lat="46.6784" lon="5.52312">
        <ele>233.6</ele>
        <time>2022-03-09T14:41:42Z</time>
      </trkpt>
      <trkpt lat="46.67845" lon="5.52301">
        <ele>233.6</ele>
        <time>2022-03-09T14:41:43Z</time>
      </trkpt>
      <trkpt lat="46.67847" lon="5.52298">
        <ele>233.8</ele>
        <time>2022-03-09T14:41:44Z</time>
      </trkpt>
      <trkpt lat="46.6785" lon="5.52291">
        <ele>233.8</ele>
        <time>2022-03-09T14:41:45Z</time>
      </trkpt>
      <trkpt lat="46.67853" lon="5.52288">
        <ele>234</ele>
        <time>2022-03-09T14:41:46Z</time>
      </trkpt>
      <trkpt lat="46.67856" lon="5.52288">
        <ele>234</ele>
        <time>2022-03-09T14:41:47Z</time>
      </trkpt>
      <trkpt lat="46.67859" lon="5.52287">
        <ele>234</ele>
        <time>2022-03-09T14:41:48Z</time>
      </trkpt>
      <trkpt lat="46.67863" lon="5.52286">
        <ele>234.4</ele>
        <time>2022-03-09T14:41:49Z</time>
      </trkpt>
      <trkpt lat="46.67867" lon="5.52283">
        <ele>234.4</ele>
        <time>2022-03-09T14:41:50Z</time>
      </trkpt>
      <trkpt lat="46.67871" lon="5.5228">
        <ele>234.4</ele>
        <time>2022-03-09T14:41:51Z</time>
      </trkpt>
      <trkpt lat="46.67875" lon="5.52277">
        <ele>234.6</ele>
        <time>2022-03-09T14:41:52Z</time>
      </trkpt>
      <trkpt lat="46.67879" lon="5.52274">
        <ele>234.6</ele>
        <time>2022-03-09T14:41:53Z</time>
      </trkpt>
      <trkpt lat="46.67887" lon="5.52267">
        <ele>235</ele>
        <time>2022-03-09T14:41:54Z</time>
      </trkpt>
      <trkpt lat="46.67893" lon="5.52261">
        <ele>235</ele>
        <time>2022-03-09T14:41:55Z</time>
      </trkpt>
      <trkpt lat="46.67895" lon="5.52259">
        <ele>235.4</ele>
        <time>2022-03-09T14:41:56Z</time>
      </trkpt>
      <trkpt lat="46.67898" lon="5.52255">
        <ele>235.6</ele>
        <time>2022-03-09T14:41:57Z</time>
      </trkpt>
      <trkpt lat="46.67902" lon="5.52251">
        <ele>235.8</ele>
        <time>2022-03-09T14:41:58Z</time>
      </trkpt>
      <trkpt lat="46.67906" lon="5.52247">
        <ele>236</ele>
        <time>2022-03-09T14:41:59Z</time>
      </trkpt>
      <trkpt lat="46.67909" lon="5.52244">
        <ele>236.4</ele>
        <time>2022-03-09T14:42:00Z</time>
      </trkpt>
      <trkpt lat="46.67912" lon="5.5224">
        <ele>236.6</ele>
        <time>2022-03-09T14:42:01Z</time>
      </trkpt>
      <trkpt lat="46.67915" lon="5.52236">
        <ele>236.8</ele>
        <time>2022-03-09T14:42:02Z</time>
      </trkpt>
      <trkpt lat="46.67919" lon="5.52232">
        <ele>237</ele>
        <time>2022-03-09T14:42:03Z</time>
      </trkpt>
      <trkpt lat="46.67922" lon="5.52228">
        <ele>237.2</ele>
        <time>2022-03-09T14:42:04Z</time>
      </trkpt>
      <trkpt lat="46.67925" lon="5.52223">
        <ele>237.6</ele>
        <time>2022-03-09T14:42:05Z</time>
      </trkpt>
      <trkpt lat="46.67927" lon="5.52221">
        <ele>237.8</ele>
        <time>2022-03-09T14:42:06Z</time>
      </trkpt>
      <trkpt lat="46.67928" lon="5.52219">
        <ele>238</ele>
        <time>2022-03-09T14:42:07Z</time>
      </trkpt>
      <trkpt lat="46.67932" lon="5.52216">
        <ele>238.4</ele>
        <time>2022-03-09T14:42:08Z</time>
      </trkpt>
      <trkpt lat="46.67936" lon="5.52212">
        <ele>238.6</ele>
        <time>2022-03-09T14:42:09Z</time>
      </trkpt>
      <trkpt lat="46.67939" lon="5.52209">
        <ele>239</ele>
        <time>2022-03-09T14:42:10Z</time>
      </trkpt>
      <trkpt lat="46.67943" lon="5.52206">
        <ele>239.2</ele>
        <time>2022-03-09T14:42:11Z</time>
      </trkpt>
      <trkpt lat="46.67948" lon="5.52201">
        <ele>239.6</ele>
        <time>2022-03-09T14:42:12Z</time>
      </trkpt>
      <trkpt lat="46.6795" lon="5.52199">
        <ele>240</ele>
        <time>2022-03-09T14:42:13Z</time>
      </trkpt>
      <trkpt lat="46.67953" lon="5.52196">
        <ele>240.2</ele>
        <time>2022-03-09T14:42:14Z</time>
      </trkpt>
      <trkpt lat="46.67956" lon="5.52194">
        <ele>240.6</ele>
        <time>2022-03-09T14:42:15Z</time>
      </trkpt>
      <trkpt lat="46.67959" lon="5.52191">
        <ele>240.6</ele>
        <time>2022-03-09T14:42:16Z</time>
      </trkpt>
      <trkpt lat="46.67962" lon="5.52189">
        <ele>241</ele>
        <time>2022-03-09T14:42:17Z</time>
      </trkpt>
      <trkpt lat="46.67965" lon="5.52186">
        <ele>241.2</ele>
        <time>2022-03-09T14:42:18Z</time>
      </trkpt>
      <trkpt lat="46.67967" lon="5.52184">
        <ele>241.4</ele>
        <time>2022-03-09T14:42:19Z</time>
      </trkpt>
      <trkpt lat="46.67969" lon="5.5218">
        <ele>241.8</ele>
        <time>2022-03-09T14:42:20Z</time>
      </trkpt>
      <trkpt lat="46.67971" lon="5.52177">
        <ele>242</ele>
        <time>2022-03-09T14:42:21Z</time>
      </trkpt>
      <trkpt lat="46.67973" lon="5.52173">
        <ele>242.2</ele>
        <time>2022-03-09T14:42:22Z</time>
      </trkpt>
      <trkpt lat="46.67976" lon="5.52168">
        <ele>242.2</ele>
        <time>2022-03-09T14:42:23Z</time>
      </trkpt>
      <trkpt lat="46.67977" lon="5.52167">
        <ele>242.6</ele>
        <time>2022-03-09T14:42:24Z</time>
      </trkpt>
      <trkpt lat="46.6798" lon="5.52163">
        <ele>242.6</ele>
        <time>2022-03-09T14:42:25Z</time>
      </trkpt>
      <trkpt lat="46.67982" lon="5.5216">
        <ele>243</ele>
        <time>2022-03-09T14:42:26Z</time>
      </trkpt>
      <trkpt lat="46.67984" lon="5.52157">
        <ele>243</ele>
        <time>2022-03-09T14:42:27Z</time>
      </trkpt>
      <trkpt lat="46.67986" lon="5.52153">
        <ele>243.2</ele>
        <time>2022-03-09T14:42:28Z</time>
      </trkpt>
      <trkpt lat="46.67988" lon="5.5215">
        <ele>243.2</ele>
        <time>2022-03-09T14:42:29Z</time>
      </trkpt>
      <trkpt lat="46.6799" lon="5.52147">
        <ele>243.6</ele>
        <time>2022-03-09T14:42:30Z</time>
      </trkpt>
      <trkpt lat="46.67993" lon="5.52143">
        <ele>243.6</ele>
        <time>2022-03-09T14:42:31Z</time>
      </trkpt>
      <trkpt lat="46.67995" lon="5.5214">
        <ele>243.8</ele>
        <time>2022-03-09T14:42:32Z</time>
      </trkpt>
      <trkpt lat="46.67998" lon="5.52137">
        <ele>243.8</ele>
        <time>2022-03-09T14:42:33Z</time>
      </trkpt>
      <trkpt lat="46.68" lon="5.52133">
        <ele>244.2</ele>
        <time>2022-03-09T14:42:34Z</time>
      </trkpt>
      <trkpt lat="46.68002" lon="5.52131">
        <ele>244.2</ele>
        <time>2022-03-09T14:42:35Z</time>
      </trkpt>
      <trkpt lat="46.68006" lon="5.52127">
        <ele>244.6</ele>
        <time>2022-03-09T14:42:36Z</time>
      </trkpt>
      <trkpt lat="46.68007" lon="5.52126">
        <ele>244.6</ele>
        <time>2022-03-09T14:42:37Z</time>
      </trkpt>
      <trkpt lat="46.68011" lon="5.52123">
        <ele>245</ele>
        <time>2022-03-09T14:42:38Z</time>
      </trkpt>
      <trkpt lat="46.68013" lon="5.52122">
        <ele>245</ele>
        <time>2022-03-09T14:42:39Z</time>
      </trkpt>
      <trkpt lat="46.68016" lon="5.5212">
        <ele>245.2</ele>
        <time>2022-03-09T14:42:40Z</time>
      </trkpt>
      <trkpt lat="46.68019" lon="5.52118">
        <ele>245.2</ele>
        <time>2022-03-09T14:42:41Z</time>
      </trkpt>
      <trkpt lat="46.68023" lon="5.52115">
        <ele>245.6</ele>
        <time>2022-03-09T14:42:42Z</time>
      </trkpt>
      <trkpt lat="46.68024" lon="5.52114">
        <ele>245.8</ele>
        <time>2022-03-09T14:42:43Z</time>
      </trkpt>
      <trkpt lat="46.68027" lon="5.52112">
        <ele>246</ele>
        <time>2022-03-09T14:42:44Z</time>
      </trkpt>
      <trkpt lat="46.6803" lon="5.5211">
        <ele>246</ele>
        <time>2022-03-09T14:42:45Z</time>
      </trkpt>
      <trkpt lat="46.68033" lon="5.52109">
        <ele>246.4</ele>
        <time>2022-03-09T14:42:46Z</time>
      </trkpt>
      <trkpt lat="46.68036" lon="5.52106">
        <ele>246.4</ele>
        <time>2022-03-09T14:42:47Z</time>
      </trkpt>
      <trkpt lat="46.68039" lon="5.52104">
        <ele>246.8</ele>
        <time>2022-03-09T14:42:48Z</time>
      </trkpt>
      <trkpt lat="46.68043" lon="5.521">
        <ele>247.2</ele>
        <time>2022-03-09T14:42:49Z</time>
      </trkpt>
      <trkpt lat="46.68044" lon="5.52099">
        <ele>247.4</ele>
        <time>2022-03-09T14:42:50Z</time>
      </trkpt>
      <trkpt lat="46.68047" lon="5.52096">
        <ele>247.6</ele>
        <time>2022-03-09T14:42:51Z</time>
      </trkpt>
      <trkpt lat="46.68049" lon="5.52093">
        <ele>247.8</ele>
        <time>2022-03-09T14:42:52Z</time>
      </trkpt>
      <trkpt lat="46.68051" lon="5.5209">
        <ele>248</ele>
        <time>2022-03-09T14:42:53Z</time>
      </trkpt>
      <trkpt lat="46.68053" lon="5.52086">
        <ele>248.2</ele>
        <time>2022-03-09T14:42:54Z</time>
      </trkpt>
      <trkpt lat="46.68054" lon="5.52082">
        <ele>248.2</ele>
        <time>2022-03-09T14:42:55Z</time>
      </trkpt>
      <trkpt lat="46.68056" lon="5.52078">
        <ele>248.6</ele>
        <time>2022-03-09T14:42:56Z</time>
      </trkpt>
      <trkpt lat="46.68058" lon="5.52075">
        <ele>248.8</ele>
        <time>2022-03-09T14:42:57Z</time>
      </trkpt>
      <trkpt lat="46.68059" lon="5.52072">
        <ele>249</ele>
        <time>2022-03-09T14:42:58Z</time>
      </trkpt>
      <trkpt lat="46.68061" lon="5.52069">
        <ele>249.4</ele>
        <time>2022-03-09T14:42:59Z</time>
      </trkpt>
      <trkpt lat="46.68063" lon="5.52066">
        <ele>249.8</ele>
        <time>2022-03-09T14:43:00Z</time>
      </trkpt>
      <trkpt lat="46.68064" lon="5.52062">
        <ele>250</ele>
        <time>2022-03-09T14:43:01Z</time>
      </trkpt>
      <trkpt lat="46.68065" lon="5.52059">
        <ele>250.2</ele>
        <time>2022-03-09T14:43:02Z</time>
      </trkpt>
      <trkpt lat="46.68066" lon="5.52055">
        <ele>250.6</ele>
        <time>2022-03-09T14:43:03Z</time>
      </trkpt>
      <trkpt lat="46.68067" lon="5.52051">
        <ele>250.8</ele>
        <time>2022-03-09T14:43:04Z</time>
      </trkpt>
      <trkpt lat="46.68068" lon="5.52047">
        <ele>251</ele>
        <time>2022-03-09T14:43:05Z</time>
      </trkpt>
      <trkpt lat="46.68069" lon="5.52043">
        <ele>251</ele>
        <time>2022-03-09T14:43:06Z</time>
      </trkpt>
      <trkpt lat="46.6807" lon="5.52039">
        <ele>251.4</ele>
        <time>2022-03-09T14:43:07Z</time>
      </trkpt>
      <trkpt lat="46.68071" lon="5.52036">
        <ele>251.8</ele>
        <time>2022-03-09T14:43:08Z</time>
      </trkpt>
      <trkpt lat="46.68072" lon="5.52029">
        <ele>252</ele>
        <time>2022-03-09T14:43:09Z</time>
      </trkpt>
      <trkpt lat="46.68072" lon="5.52027">
        <ele>252</ele>
        <time>2022-03-09T14:43:10Z</time>
      </trkpt>
      <trkpt lat="46.68073" lon="5.52021">
        <ele>252.4</ele>
        <time>2022-03-09T14:43:11Z</time>
      </trkpt>
      <trkpt lat="46.68074" lon="5.52019">
        <ele>252.4</ele>
        <time>2022-03-09T14:43:12Z</time>
      </trkpt>
      <trkpt lat="46.68075" lon="5.52016">
        <ele>252.6</ele>
        <time>2022-03-09T14:43:13Z</time>
      </trkpt>
      <trkpt lat="46.68077" lon="5.52011">
        <ele>253</ele>
        <time>2022-03-09T14:43:14Z</time>
      </trkpt>
      <trkpt lat="46.68078" lon="5.52009">
        <ele>253</ele>
        <time>2022-03-09T14:43:15Z</time>
      </trkpt>
      <trkpt lat="46.68079" lon="5.52005">
        <ele>253.2</ele>
        <time>2022-03-09T14:43:16Z</time>
      </trkpt>
      <trkpt lat="46.68081" lon="5.52002">
        <ele>253.4</ele>
        <time>2022-03-09T14:43:17Z</time>
      </trkpt>
      <trkpt lat="46.68082" lon="5.51998">
        <ele>253.4</ele>
        <time>2022-03-09T14:43:18Z</time>
      </trkpt>
      <trkpt lat="46.68083" lon="5.51995">
        <ele>253.8</ele>
        <time>2022-03-09T14:43:19Z</time>
      </trkpt>
      <trkpt lat="46.68084" lon="5.51991">
        <ele>253.8</ele>
        <time>2022-03-09T14:43:20Z</time>
      </trkpt>
      <trkpt lat="46.68086" lon="5.51988">
        <ele>254.2</ele>
        <time>2022-03-09T14:43:21Z</time>
      </trkpt>
      <trkpt lat="46.68088" lon="5.51985">
        <ele>254.2</ele>
        <time>2022-03-09T14:43:22Z</time>
      </trkpt>
      <trkpt lat="46.68089" lon="5.51982">
        <ele>254.6</ele>
        <time>2022-03-09T14:43:23Z</time>
      </trkpt>
      <trkpt lat="46.68091" lon="5.5198">
        <ele>255</ele>
        <time>2022-03-09T14:43:24Z</time>
      </trkpt>
      <trkpt lat="46.68093" lon="5.51977">
        <ele>255</ele>
        <time>2022-03-09T14:43:25Z</time>
      </trkpt>
      <trkpt lat="46.68095" lon="5.51974">
        <ele>255.4</ele>
        <time>2022-03-09T14:43:26Z</time>
      </trkpt>
      <trkpt lat="46.68096" lon="5.51971">
        <ele>255.6</ele>
        <time>2022-03-09T14:43:27Z</time>
      </trkpt>
      <trkpt lat="46.68098" lon="5.51968">
        <ele>255.8</ele>
        <time>2022-03-09T14:43:28Z</time>
      </trkpt>
      <trkpt lat="46.681" lon="5.51966">
        <ele>256</ele>
        <time>2022-03-09T14:43:29Z</time>
      </trkpt>
      <trkpt lat="46.68101" lon="5.51963">
        <ele>256.4</ele>
        <time>2022-03-09T14:43:30Z</time>
      </trkpt>
      <trkpt lat="46.68103" lon="5.5196">
        <ele>256.4</ele>
        <time>2022-03-09T14:43:31Z</time>
      </trkpt>
      <trkpt lat="46.68105" lon="5.51956">
        <ele>256.8</ele>
        <time>2022-03-09T14:43:32Z</time>
      </trkpt>
      <trkpt lat="46.68106" lon="5.51954">
        <ele>256.8</ele>
        <time>2022-03-09T14:43:33Z</time>
      </trkpt>
      <trkpt lat="46.68108" lon="5.51951">
        <ele>257</ele>
        <time>2022-03-09T14:43:34Z</time>
      </trkpt>
      <trkpt lat="46.68109" lon="5.51947">
        <ele>257.4</ele>
        <time>2022-03-09T14:43:35Z</time>
      </trkpt>
      <trkpt lat="46.68111" lon="5.51944">
        <ele>257.4</ele>
        <time>2022-03-09T14:43:36Z</time>
      </trkpt>
      <trkpt lat="46.68112" lon="5.5194">
        <ele>257.8</ele>
        <time>2022-03-09T14:43:37Z</time>
      </trkpt>
      <trkpt lat="46.68114" lon="5.51936">
        <ele>257.8</ele>
        <time>2022-03-09T14:43:38Z</time>
      </trkpt>
      <trkpt lat="46.68115" lon="5.51933">
        <ele>258</ele>
        <time>2022-03-09T14:43:39Z</time>
      </trkpt>
      <trkpt lat="46.68117" lon="5.51929">
        <ele>258</ele>
        <time>2022-03-09T14:43:40Z</time>
      </trkpt>
      <trkpt lat="46.68119" lon="5.51925">
        <ele>258.4</ele>
        <time>2022-03-09T14:43:41Z</time>
      </trkpt>
      <trkpt lat="46.68121" lon="5.51922">
        <ele>258.4</ele>
        <time>2022-03-09T14:43:42Z</time>
      </trkpt>
      <trkpt lat="46.68123" lon="5.51919">
        <ele>258.6</ele>
        <time>2022-03-09T14:43:43Z</time>
      </trkpt>
      <trkpt lat="46.68125" lon="5.51916">
        <ele>258.6</ele>
        <time>2022-03-09T14:43:44Z</time>
      </trkpt>
      <trkpt lat="46.68127" lon="5.51913">
        <ele>258.8</ele>
        <time>2022-03-09T14:43:45Z</time>
      </trkpt>
      <trkpt lat="46.6813" lon="5.5191">
        <ele>258.8</ele>
        <time>2022-03-09T14:43:46Z</time>
      </trkpt>
      <trkpt lat="46.68133" lon="5.51907">
        <ele>259.2</ele>
        <time>2022-03-09T14:43:47Z</time>
      </trkpt>
      <trkpt lat="46.68136" lon="5.51905">
        <ele>259.2</ele>
        <time>2022-03-09T14:43:48Z</time>
      </trkpt>
      <trkpt lat="46.68139" lon="5.51903">
        <ele>259.4</ele>
        <time>2022-03-09T14:43:49Z</time>
      </trkpt>
      <trkpt lat="46.68144" lon="5.51901">
        <ele>259.4</ele>
        <time>2022-03-09T14:43:50Z</time>
      </trkpt>
      <trkpt lat="46.68146" lon="5.519">
        <ele>259.4</ele>
        <time>2022-03-09T14:43:51Z</time>
      </trkpt>
      <trkpt lat="46.6815" lon="5.51898">
        <ele>259.8</ele>
        <time>2022-03-09T14:43:52Z</time>
      </trkpt>
      <trkpt lat="46.68153" lon="5.51897">
        <ele>259.8</ele>
        <time>2022-03-09T14:43:53Z</time>
      </trkpt>
      <trkpt lat="46.68157" lon="5.51895">
        <ele>260</ele>
        <time>2022-03-09T14:43:54Z</time>
      </trkpt>
      <trkpt lat="46.6816" lon="5.51893">
        <ele>260</ele>
        <time>2022-03-09T14:43:55Z</time>
      </trkpt>
      <trkpt lat="46.68164" lon="5.51891">
        <ele>260.2</ele>
        <time>2022-03-09T14:43:56Z</time>
      </trkpt>
      <trkpt lat="46.68167" lon="5.51889">
        <ele>260.2</ele>
        <time>2022-03-09T14:43:57Z</time>
      </trkpt>
      <trkpt lat="46.68171" lon="5.51887">
        <ele>260.6</ele>
        <time>2022-03-09T14:43:58Z</time>
      </trkpt>
      <trkpt lat="46.68175" lon="5.51884">
        <ele>261</ele>
        <time>2022-03-09T14:43:59Z</time>
      </trkpt>
      <trkpt lat="46.68178" lon="5.51882">
        <ele>261.2</ele>
        <time>2022-03-09T14:44:00Z</time>
      </trkpt>
      <trkpt lat="46.68182" lon="5.5188">
        <ele>261.4</ele>
        <time>2022-03-09T14:44:01Z</time>
      </trkpt>
      <trkpt lat="46.68186" lon="5.51878">
        <ele>261.6</ele>
        <time>2022-03-09T14:44:02Z</time>
      </trkpt>
      <trkpt lat="46.6819" lon="5.51877">
        <ele>261.8</ele>
        <time>2022-03-09T14:44:03Z</time>
      </trkpt>
      <trkpt lat="46.68195" lon="5.51874">
        <ele>261.8</ele>
        <time>2022-03-09T14:44:04Z</time>
      </trkpt>
      <trkpt lat="46.68197" lon="5.51873">
        <ele>262.2</ele>
        <time>2022-03-09T14:44:05Z</time>
      </trkpt>
      <trkpt lat="46.68201" lon="5.51872">
        <ele>262.4</ele>
        <time>2022-03-09T14:44:06Z</time>
      </trkpt>
      <trkpt lat="46.68205" lon="5.5187">
        <ele>262.6</ele>
        <time>2022-03-09T14:44:07Z</time>
      </trkpt>
      <trkpt lat="46.68208" lon="5.51868">
        <ele>262.8</ele>
        <time>2022-03-09T14:44:08Z</time>
      </trkpt>
      <trkpt lat="46.68212" lon="5.51867">
        <ele>262.8</ele>
        <time>2022-03-09T14:44:09Z</time>
      </trkpt>
      <trkpt lat="46.68215" lon="5.51865">
        <ele>263.2</ele>
        <time>2022-03-09T14:44:10Z</time>
      </trkpt>
      <trkpt lat="46.68219" lon="5.51864">
        <ele>263.2</ele>
        <time>2022-03-09T14:44:11Z</time>
      </trkpt>
      <trkpt lat="46.68222" lon="5.51862">
        <ele>263.6</ele>
        <time>2022-03-09T14:44:12Z</time>
      </trkpt>
      <trkpt lat="46.68226" lon="5.5186">
        <ele>263.6</ele>
        <time>2022-03-09T14:44:13Z</time>
      </trkpt>
      <trkpt lat="46.68229" lon="5.51858">
        <ele>263.6</ele>
        <time>2022-03-09T14:44:14Z</time>
      </trkpt>
      <trkpt lat="46.68233" lon="5.51855">
        <ele>263.8</ele>
        <time>2022-03-09T14:44:15Z</time>
      </trkpt>
      <trkpt lat="46.68237" lon="5.51853">
        <ele>263.8</ele>
        <time>2022-03-09T14:44:16Z</time>
      </trkpt>
      <trkpt lat="46.68241" lon="5.5185">
        <ele>263.8</ele>
        <time>2022-03-09T14:44:17Z</time>
      </trkpt>
      <trkpt lat="46.68247" lon="5.51845">
        <ele>263.8</ele>
        <time>2022-03-09T14:44:18Z</time>
      </trkpt>
      <trkpt lat="46.68249" lon="5.51844">
        <ele>263.8</ele>
        <time>2022-03-09T14:44:19Z</time>
      </trkpt>
      <trkpt lat="46.68253" lon="5.5184">
        <ele>263.8</ele>
        <time>2022-03-09T14:44:20Z</time>
      </trkpt>
      <trkpt lat="46.68257" lon="5.51837">
        <ele>263.8</ele>
        <time>2022-03-09T14:44:21Z</time>
      </trkpt>
      <trkpt lat="46.68262" lon="5.51833">
        <ele>263.8</ele>
        <time>2022-03-09T14:44:22Z</time>
      </trkpt>
      <trkpt lat="46.68266" lon="5.5183">
        <ele>263.6</ele>
        <time>2022-03-09T14:44:23Z</time>
      </trkpt>
      <trkpt lat="46.68271" lon="5.51827">
        <ele>263.6</ele>
        <time>2022-03-09T14:44:24Z</time>
      </trkpt>
      <trkpt lat="46.68277" lon="5.51824">
        <ele>263.2</ele>
        <time>2022-03-09T14:44:25Z</time>
      </trkpt>
      <trkpt lat="46.68282" lon="5.5182">
        <ele>263.2</ele>
        <time>2022-03-09T14:44:26Z</time>
      </trkpt>
      <trkpt lat="46.68288" lon="5.51817">
        <ele>262.8</ele>
        <time>2022-03-09T14:44:27Z</time>
      </trkpt>
      <trkpt lat="46.68294" lon="5.51814">
        <ele>262.6</ele>
        <time>2022-03-09T14:44:28Z</time>
      </trkpt>
      <trkpt lat="46.683" lon="5.51811">
        <ele>262.4</ele>
        <time>2022-03-09T14:44:29Z</time>
      </trkpt>
      <trkpt lat="46.68306" lon="5.51808">
        <ele>262.4</ele>
        <time>2022-03-09T14:44:30Z</time>
      </trkpt>
      <trkpt lat="46.68312" lon="5.51804">
        <ele>262</ele>
        <time>2022-03-09T14:44:31Z</time>
      </trkpt>
      <trkpt lat="46.68319" lon="5.51801">
        <ele>261.8</ele>
        <time>2022-03-09T14:44:32Z</time>
      </trkpt>
      <trkpt lat="46.68325" lon="5.51798">
        <ele>261.6</ele>
        <time>2022-03-09T14:44:33Z</time>
      </trkpt>
      <trkpt lat="46.68332" lon="5.51795">
        <ele>261.2</ele>
        <time>2022-03-09T14:44:34Z</time>
      </trkpt>
      <trkpt lat="46.68339" lon="5.51791">
        <ele>261</ele>
        <time>2022-03-09T14:44:35Z</time>
      </trkpt>
      <trkpt lat="46.68346" lon="5.51788">
        <ele>260.6</ele>
        <time>2022-03-09T14:44:36Z</time>
      </trkpt>
      <trkpt lat="46.68353" lon="5.51784">
        <ele>260.2</ele>
        <time>2022-03-09T14:44:37Z</time>
      </trkpt>
      <trkpt lat="46.68364" lon="5.51779">
        <ele>259.8</ele>
        <time>2022-03-09T14:44:38Z</time>
      </trkpt>
      <trkpt lat="46.68368" lon="5.51777">
        <ele>259.4</ele>
        <time>2022-03-09T14:44:39Z</time>
      </trkpt>
      <trkpt lat="46.68376" lon="5.51774">
        <ele>259</ele>
        <time>2022-03-09T14:44:40Z</time>
      </trkpt>
      <trkpt lat="46.68384" lon="5.5177">
        <ele>258.6</ele>
        <time>2022-03-09T14:44:41Z</time>
      </trkpt>
      <trkpt lat="46.68393" lon="5.51767">
        <ele>258.2</ele>
        <time>2022-03-09T14:44:42Z</time>
      </trkpt>
      <trkpt lat="46.68401" lon="5.51763">
        <ele>257.6</ele>
        <time>2022-03-09T14:44:43Z</time>
      </trkpt>
      <trkpt lat="46.68411" lon="5.51761">
        <ele>257.2</ele>
        <time>2022-03-09T14:44:44Z</time>
      </trkpt>
      <trkpt lat="46.68422" lon="5.51758">
        <ele>256.8</ele>
        <time>2022-03-09T14:44:45Z</time>
      </trkpt>
      <trkpt lat="46.68432" lon="5.51754">
        <ele>256.2</ele>
        <time>2022-03-09T14:44:46Z</time>
      </trkpt>
      <trkpt lat="46.68442" lon="5.51749">
        <ele>255.8</ele>
        <time>2022-03-09T14:44:47Z</time>
      </trkpt>
      <trkpt lat="46.68451" lon="5.51742">
        <ele>255.2</ele>
        <time>2022-03-09T14:44:48Z</time>
      </trkpt>
      <trkpt lat="46.68461" lon="5.51735">
        <ele>254.6</ele>
        <time>2022-03-09T14:44:49Z</time>
      </trkpt>
      <trkpt lat="46.68469" lon="5.51728">
        <ele>254.2</ele>
        <time>2022-03-09T14:44:50Z</time>
      </trkpt>
      <trkpt lat="46.68478" lon="5.51721">
        <ele>253.8</ele>
        <time>2022-03-09T14:44:51Z</time>
      </trkpt>
      <trkpt lat="46.68486" lon="5.51713">
        <ele>253.8</ele>
        <time>2022-03-09T14:44:52Z</time>
      </trkpt>
      <trkpt lat="46.68495" lon="5.51706">
        <ele>253.4</ele>
        <time>2022-03-09T14:44:53Z</time>
      </trkpt>
      <trkpt lat="46.68504" lon="5.517">
        <ele>253.4</ele>
        <time>2022-03-09T14:44:54Z</time>
      </trkpt>
      <trkpt lat="46.68512" lon="5.51693">
        <ele>253.4</ele>
        <time>2022-03-09T14:44:55Z</time>
      </trkpt>
      <trkpt lat="46.68518" lon="5.51685">
        <ele>253.2</ele>
        <time>2022-03-09T14:44:56Z</time>
      </trkpt>
      <trkpt lat="46.68525" lon="5.51678">
        <ele>253.2</ele>
        <time>2022-03-09T14:44:57Z</time>
      </trkpt>
      <trkpt lat="46.68532" lon="5.51671">
        <ele>253.2</ele>
        <time>2022-03-09T14:44:58Z</time>
      </trkpt>
      <trkpt lat="46.68543" lon="5.51663">
        <ele>253.6</ele>
        <time>2022-03-09T14:44:59Z</time>
      </trkpt>
      <trkpt lat="46.68546" lon="5.5166">
        <ele>253.8</ele>
        <time>2022-03-09T14:45:00Z</time>
      </trkpt>
      <trkpt lat="46.68553" lon="5.51654">
        <ele>254.2</ele>
        <time>2022-03-09T14:45:01Z</time>
      </trkpt>
      <trkpt lat="46.68558" lon="5.5165">
        <ele>254.4</ele>
        <time>2022-03-09T14:45:02Z</time>
      </trkpt>
      <trkpt lat="46.68564" lon="5.51645">
        <ele>255</ele>
        <time>2022-03-09T14:45:03Z</time>
      </trkpt>
      <trkpt lat="46.68569" lon="5.51641">
        <ele>255.4</ele>
        <time>2022-03-09T14:45:04Z</time>
      </trkpt>
      <trkpt lat="46.68573" lon="5.51638">
        <ele>255.8</ele>
        <time>2022-03-09T14:45:05Z</time>
      </trkpt>
      <trkpt lat="46.68577" lon="5.51634">
        <ele>256.4</ele>
        <time>2022-03-09T14:45:06Z</time>
      </trkpt>
      <trkpt lat="46.68581" lon="5.5163">
        <ele>256.8</ele>
        <time>2022-03-09T14:45:07Z</time>
      </trkpt>
      <trkpt lat="46.68585" lon="5.51627">
        <ele>257.4</ele>
        <time>2022-03-09T14:45:08Z</time>
      </trkpt>
      <trkpt lat="46.68588" lon="5.51625">
        <ele>257.8</ele>
        <time>2022-03-09T14:45:09Z</time>
      </trkpt>
      <trkpt lat="46.68593" lon="5.5162">
        <ele>258.4</ele>
        <time>2022-03-09T14:45:10Z</time>
      </trkpt>
      <trkpt lat="46.68595" lon="5.51619">
        <ele>258.6</ele>
        <time>2022-03-09T14:45:11Z</time>
      </trkpt>
      <trkpt lat="46.68598" lon="5.51616">
        <ele>259</ele>
        <time>2022-03-09T14:45:12Z</time>
      </trkpt>
      <trkpt lat="46.68602" lon="5.51614">
        <ele>259.4</ele>
        <time>2022-03-09T14:45:13Z</time>
      </trkpt>
      <trkpt lat="46.68605" lon="5.51611">
        <ele>259.8</ele>
        <time>2022-03-09T14:45:14Z</time>
      </trkpt>
      <trkpt lat="46.68608" lon="5.51608">
        <ele>260.2</ele>
        <time>2022-03-09T14:45:15Z</time>
      </trkpt>
      <trkpt lat="46.68611" lon="5.51604">
        <ele>260.4</ele>
        <time>2022-03-09T14:45:16Z</time>
      </trkpt>
      <trkpt lat="46.68614" lon="5.51602">
        <ele>260.8</ele>
        <time>2022-03-09T14:45:17Z</time>
      </trkpt>
      <trkpt lat="46.68618" lon="5.51599">
        <ele>261</ele>
        <time>2022-03-09T14:45:18Z</time>
      </trkpt>
      <trkpt lat="46.68621" lon="5.51597">
        <ele>261.4</ele>
        <time>2022-03-09T14:45:19Z</time>
      </trkpt>
      <trkpt lat="46.68625" lon="5.51595">
        <ele>261.8</ele>
        <time>2022-03-09T14:45:20Z</time>
      </trkpt>
      <trkpt lat="46.68629" lon="5.51593">
        <ele>262</ele>
        <time>2022-03-09T14:45:21Z</time>
      </trkpt>
      <trkpt lat="46.68632" lon="5.5159">
        <ele>262.4</ele>
        <time>2022-03-09T14:45:22Z</time>
      </trkpt>
      <trkpt lat="46.68635" lon="5.51588">
        <ele>262.6</ele>
        <time>2022-03-09T14:45:23Z</time>
      </trkpt>
      <trkpt lat="46.68639" lon="5.51586">
        <ele>262.8</ele>
        <time>2022-03-09T14:45:24Z</time>
      </trkpt>
      <trkpt lat="46.68642" lon="5.51583">
        <ele>263</ele>
        <time>2022-03-09T14:45:25Z</time>
      </trkpt>
      <trkpt lat="46.68645" lon="5.5158">
        <ele>263.2</ele>
        <time>2022-03-09T14:45:26Z</time>
      </trkpt>
      <trkpt lat="46.68649" lon="5.51577">
        <ele>263.2</ele>
        <time>2022-03-09T14:45:27Z</time>
      </trkpt>
      <trkpt lat="46.68654" lon="5.51572">
        <ele>263.6</ele>
        <time>2022-03-09T14:45:28Z</time>
      </trkpt>
      <trkpt lat="46.68655" lon="5.5157">
        <ele>263.6</ele>
        <time>2022-03-09T14:45:29Z</time>
      </trkpt>
      <trkpt lat="46.68659" lon="5.51566">
        <ele>263.8</ele>
        <time>2022-03-09T14:45:30Z</time>
      </trkpt>
      <trkpt lat="46.68662" lon="5.51562">
        <ele>263.8</ele>
        <time>2022-03-09T14:45:31Z</time>
      </trkpt>
      <trkpt lat="46.68668" lon="5.51557">
        <ele>263.8</ele>
        <time>2022-03-09T14:45:32Z</time>
      </trkpt>
      <trkpt lat="46.6867" lon="5.51555">
        <ele>263.8</ele>
        <time>2022-03-09T14:45:33Z</time>
      </trkpt>
      <trkpt lat="46.68675" lon="5.51549">
        <ele>263.8</ele>
        <time>2022-03-09T14:45:34Z</time>
      </trkpt>
      <trkpt lat="46.68677" lon="5.51547">
        <ele>263.8</ele>
        <time>2022-03-09T14:45:35Z</time>
      </trkpt>
      <trkpt lat="46.68681" lon="5.51543">
        <ele>264</ele>
        <time>2022-03-09T14:45:36Z</time>
      </trkpt>
      <trkpt lat="46.68685" lon="5.51539">
        <ele>264</ele>
        <time>2022-03-09T14:45:37Z</time>
      </trkpt>
      <trkpt lat="46.68689" lon="5.51536">
        <ele>264</ele>
        <time>2022-03-09T14:45:38Z</time>
      </trkpt>
      <trkpt lat="46.68694" lon="5.51533">
        <ele>264</ele>
        <time>2022-03-09T14:45:39Z</time>
      </trkpt>
      <trkpt lat="46.68699" lon="5.51531">
        <ele>264</ele>
        <time>2022-03-09T14:45:40Z</time>
      </trkpt>
      <trkpt lat="46.68703" lon="5.51529">
        <ele>264</ele>
        <time>2022-03-09T14:45:41Z</time>
      </trkpt>
      <trkpt lat="46.68708" lon="5.51527">
        <ele>264</ele>
        <time>2022-03-09T14:45:42Z</time>
      </trkpt>
      <trkpt lat="46.68713" lon="5.51525">
        <ele>264</ele>
        <time>2022-03-09T14:45:43Z</time>
      </trkpt>
      <trkpt lat="46.68719" lon="5.51524">
        <ele>264</ele>
        <time>2022-03-09T14:45:44Z</time>
      </trkpt>
      <trkpt lat="46.68727" lon="5.51522">
        <ele>264</ele>
        <time>2022-03-09T14:45:45Z</time>
      </trkpt>
      <trkpt lat="46.68729" lon="5.51521">
        <ele>264.4</ele>
        <time>2022-03-09T14:45:46Z</time>
      </trkpt>
      <trkpt lat="46.68735" lon="5.5152">
        <ele>264.4</ele>
        <time>2022-03-09T14:45:47Z</time>
      </trkpt>
      <trkpt lat="46.68743" lon="5.51518">
        <ele>264.6</ele>
        <time>2022-03-09T14:45:48Z</time>
      </trkpt>
      <trkpt lat="46.68745" lon="5.51517">
        <ele>264.6</ele>
        <time>2022-03-09T14:45:49Z</time>
      </trkpt>
      <trkpt lat="46.6875" lon="5.51517">
        <ele>264.6</ele>
        <time>2022-03-09T14:45:50Z</time>
      </trkpt>
      <trkpt lat="46.68756" lon="5.51516">
        <ele>264.8</ele>
        <time>2022-03-09T14:45:51Z</time>
      </trkpt>
      <trkpt lat="46.68761" lon="5.51515">
        <ele>264.8</ele>
        <time>2022-03-09T14:45:52Z</time>
      </trkpt>
      <trkpt lat="46.68766" lon="5.51514">
        <ele>264.8</ele>
        <time>2022-03-09T14:45:53Z</time>
      </trkpt>
      <trkpt lat="46.68771" lon="5.51513">
        <ele>265</ele>
        <time>2022-03-09T14:45:54Z</time>
      </trkpt>
      <trkpt lat="46.68782" lon="5.5151">
        <ele>265</ele>
        <time>2022-03-09T14:45:55Z</time>
      </trkpt>
      <trkpt lat="46.68787" lon="5.51507">
        <ele>265.2</ele>
        <time>2022-03-09T14:45:56Z</time>
      </trkpt>
      <trkpt lat="46.68794" lon="5.51503">
        <ele>265.2</ele>
        <time>2022-03-09T14:45:57Z</time>
      </trkpt>
      <trkpt lat="46.68796" lon="5.51502">
        <ele>265.6</ele>
        <time>2022-03-09T14:45:58Z</time>
      </trkpt>
      <trkpt lat="46.68801" lon="5.51499">
        <ele>265.6</ele>
        <time>2022-03-09T14:45:59Z</time>
      </trkpt>
      <trkpt lat="46.68806" lon="5.51497">
        <ele>265.8</ele>
        <time>2022-03-09T14:46:00Z</time>
      </trkpt>
      <trkpt lat="46.68811" lon="5.51495">
        <ele>265.8</ele>
        <time>2022-03-09T14:46:01Z</time>
      </trkpt>
      <trkpt lat="46.68816" lon="5.51493">
        <ele>266.2</ele>
        <time>2022-03-09T14:46:02Z</time>
      </trkpt>
      <trkpt lat="46.68816" lon="5.51493">
        <ele>266.4</ele>
        <time>2022-03-09T14:46:03Z</time>
      </trkpt>
      <trkpt lat="46.68821" lon="5.51491">
        <ele>266.6</ele>
        <time>2022-03-09T14:46:04Z</time>
      </trkpt>
      <trkpt lat="46.68826" lon="5.51489">
        <ele>267</ele>
        <time>2022-03-09T14:46:05Z</time>
      </trkpt>
      <trkpt lat="46.6883" lon="5.51486">
        <ele>267.2</ele>
        <time>2022-03-09T14:46:06Z</time>
      </trkpt>
      <trkpt lat="46.68835" lon="5.51484">
        <ele>267.4</ele>
        <time>2022-03-09T14:46:07Z</time>
      </trkpt>
      <trkpt lat="46.6884" lon="5.51483">
        <ele>267.4</ele>
        <time>2022-03-09T14:46:08Z</time>
      </trkpt>
      <trkpt lat="46.68844" lon="5.51481">
        <ele>267.6</ele>
        <time>2022-03-09T14:46:09Z</time>
      </trkpt>
      <trkpt lat="46.68849" lon="5.5148">
        <ele>267.8</ele>
        <time>2022-03-09T14:46:10Z</time>
      </trkpt>
      <trkpt lat="46.68854" lon="5.51479">
        <ele>267.8</ele>
        <time>2022-03-09T14:46:11Z</time>
      </trkpt>
      <trkpt lat="46.68859" lon="5.51478">
        <ele>268.2</ele>
        <time>2022-03-09T14:46:12Z</time>
      </trkpt>
      <trkpt lat="46.68863" lon="5.51478">
        <ele>268.2</ele>
        <time>2022-03-09T14:46:13Z</time>
      </trkpt>
      <trkpt lat="46.68871" lon="5.51478">
        <ele>268.4</ele>
        <time>2022-03-09T14:46:14Z</time>
      </trkpt>
      <trkpt lat="46.68873" lon="5.51478">
        <ele>268.4</ele>
        <time>2022-03-09T14:46:15Z</time>
      </trkpt>
      <trkpt lat="46.68878" lon="5.51478">
        <ele>268.6</ele>
        <time>2022-03-09T14:46:16Z</time>
      </trkpt>
      <trkpt lat="46.68883" lon="5.51479">
        <ele>268.6</ele>
        <time>2022-03-09T14:46:17Z</time>
      </trkpt>
      <trkpt lat="46.68888" lon="5.51479">
        <ele>268.8</ele>
        <time>2022-03-09T14:46:18Z</time>
      </trkpt>
      <trkpt lat="46.68892" lon="5.5148">
        <ele>268.8</ele>
        <time>2022-03-09T14:46:19Z</time>
      </trkpt>
      <trkpt lat="46.68897" lon="5.51481">
        <ele>269.2</ele>
        <time>2022-03-09T14:46:20Z</time>
      </trkpt>
      <trkpt lat="46.68902" lon="5.51481">
        <ele>269.2</ele>
        <time>2022-03-09T14:46:21Z</time>
      </trkpt>
      <trkpt lat="46.68907" lon="5.51481">
        <ele>269.4</ele>
        <time>2022-03-09T14:46:22Z</time>
      </trkpt>
      <trkpt lat="46.68911" lon="5.51481">
        <ele>269.4</ele>
        <time>2022-03-09T14:46:23Z</time>
      </trkpt>
      <trkpt lat="46.68916" lon="5.51481">
        <ele>269.8</ele>
        <time>2022-03-09T14:46:24Z</time>
      </trkpt>
      <trkpt lat="46.68921" lon="5.51481">
        <ele>269.8</ele>
        <time>2022-03-09T14:46:25Z</time>
      </trkpt>
      <trkpt lat="46.68925" lon="5.51481">
        <ele>270</ele>
        <time>2022-03-09T14:46:26Z</time>
      </trkpt>
      <trkpt lat="46.6893" lon="5.5148">
        <ele>270</ele>
        <time>2022-03-09T14:46:27Z</time>
      </trkpt>
      <trkpt lat="46.68935" lon="5.51479">
        <ele>270</ele>
        <time>2022-03-09T14:46:28Z</time>
      </trkpt>
      <trkpt lat="46.6894" lon="5.51477">
        <ele>270</ele>
        <time>2022-03-09T14:46:29Z</time>
      </trkpt>
      <trkpt lat="46.68944" lon="5.51475">
        <ele>270</ele>
        <time>2022-03-09T14:46:30Z</time>
      </trkpt>
      <trkpt lat="46.68952" lon="5.51471">
        <ele>270.2</ele>
        <time>2022-03-09T14:46:31Z</time>
      </trkpt>
      <trkpt lat="46.68954" lon="5.51469">
        <ele>270.2</ele>
        <time>2022-03-09T14:46:32Z</time>
      </trkpt>
      <trkpt lat="46.68959" lon="5.51466">
        <ele>270</ele>
        <time>2022-03-09T14:46:33Z</time>
      </trkpt>
      <trkpt lat="46.68964" lon="5.51461">
        <ele>270</ele>
        <time>2022-03-09T14:46:34Z</time>
      </trkpt>
      <trkpt lat="46.68969" lon="5.51456">
        <ele>270</ele>
        <time>2022-03-09T14:46:35Z</time>
      </trkpt>
      <trkpt lat="46.68976" lon="5.51447">
        <ele>270</ele>
        <time>2022-03-09T14:46:36Z</time>
      </trkpt>
      <trkpt lat="46.68979" lon="5.51444">
        <ele>270</ele>
        <time>2022-03-09T14:46:37Z</time>
      </trkpt>
      <trkpt lat="46.68984" lon="5.51438">
        <ele>269.6</ele>
        <time>2022-03-09T14:46:38Z</time>
      </trkpt>
      <trkpt lat="46.68989" lon="5.51433">
        <ele>269.6</ele>
        <time>2022-03-09T14:46:39Z</time>
      </trkpt>
      <trkpt lat="46.68994" lon="5.51427">
        <ele>269.4</ele>
        <time>2022-03-09T14:46:40Z</time>
      </trkpt>
      <trkpt lat="46.68999" lon="5.51422">
        <ele>269.4</ele>
        <time>2022-03-09T14:46:41Z</time>
      </trkpt>
      <trkpt lat="46.69005" lon="5.51416">
        <ele>269.4</ele>
        <time>2022-03-09T14:46:42Z</time>
      </trkpt>
      <trkpt lat="46.6901" lon="5.51412">
        <ele>269.4</ele>
        <time>2022-03-09T14:46:43Z</time>
      </trkpt>
      <trkpt lat="46.69015" lon="5.51407">
        <ele>269.6</ele>
        <time>2022-03-09T14:46:44Z</time>
      </trkpt>
      <trkpt lat="46.69022" lon="5.51401">
        <ele>269.6</ele>
        <time>2022-03-09T14:46:45Z</time>
      </trkpt>
      <trkpt lat="46.69025" lon="5.51399">
        <ele>270</ele>
        <time>2022-03-09T14:46:46Z</time>
      </trkpt>
      <trkpt lat="46.6903" lon="5.51395">
        <ele>270</ele>
        <time>2022-03-09T14:46:47Z</time>
      </trkpt>
      <trkpt lat="46.69034" lon="5.51391">
        <ele>270.2</ele>
        <time>2022-03-09T14:46:48Z</time>
      </trkpt>
      <trkpt lat="46.69039" lon="5.51386">
        <ele>270.2</ele>
        <time>2022-03-09T14:46:49Z</time>
      </trkpt>
      <trkpt lat="46.69044" lon="5.51382">
        <ele>270.4</ele>
        <time>2022-03-09T14:46:50Z</time>
      </trkpt>
      <trkpt lat="46.69049" lon="5.51378">
        <ele>270.4</ele>
        <time>2022-03-09T14:46:51Z</time>
      </trkpt>
      <trkpt lat="46.69054" lon="5.51373">
        <ele>270.6</ele>
        <time>2022-03-09T14:46:52Z</time>
      </trkpt>
      <trkpt lat="46.69059" lon="5.51369">
        <ele>270.6</ele>
        <time>2022-03-09T14:46:53Z</time>
      </trkpt>
      <trkpt lat="46.69064" lon="5.51364">
        <ele>270.6</ele>
        <time>2022-03-09T14:46:54Z</time>
      </trkpt>
      <trkpt lat="46.69069" lon="5.51359">
        <ele>270.6</ele>
        <time>2022-03-09T14:46:55Z</time>
      </trkpt>
      <trkpt lat="46.69075" lon="5.51354">
        <ele>270.6</ele>
        <time>2022-03-09T14:46:56Z</time>
      </trkpt>
      <trkpt lat="46.6908" lon="5.51349">
        <ele>270.6</ele>
        <time>2022-03-09T14:46:57Z</time>
      </trkpt>
      <trkpt lat="46.69085" lon="5.51345">
        <ele>270.6</ele>
        <time>2022-03-09T14:46:58Z</time>
      </trkpt>
      <trkpt lat="46.69091" lon="5.5134">
        <ele>270.6</ele>
        <time>2022-03-09T14:46:59Z</time>
      </trkpt>
      <trkpt lat="46.69096" lon="5.51335">
        <ele>270.6</ele>
        <time>2022-03-09T14:47:00Z</time>
      </trkpt>
      <trkpt lat="46.69101" lon="5.5133">
        <ele>271</ele>
        <time>2022-03-09T14:47:01Z</time>
      </trkpt>
      <trkpt lat="46.69106" lon="5.51326">
        <ele>271</ele>
        <time>2022-03-09T14:47:02Z</time>
      </trkpt>
      <trkpt lat="46.69114" lon="5.51319">
        <ele>271.2</ele>
        <time>2022-03-09T14:47:03Z</time>
      </trkpt>
      <trkpt lat="46.69117" lon="5.51317">
        <ele>271.2</ele>
        <time>2022-03-09T14:47:04Z</time>
      </trkpt>
      <trkpt lat="46.69122" lon="5.51313">
        <ele>271.4</ele>
        <time>2022-03-09T14:47:05Z</time>
      </trkpt>
      <trkpt lat="46.69127" lon="5.51309">
        <ele>271.4</ele>
        <time>2022-03-09T14:47:06Z</time>
      </trkpt>
      <trkpt lat="46.69132" lon="5.51305">
        <ele>271.8</ele>
        <time>2022-03-09T14:47:07Z</time>
      </trkpt>
      <trkpt lat="46.69136" lon="5.51301">
        <ele>272</ele>
        <time>2022-03-09T14:47:08Z</time>
      </trkpt>
      <trkpt lat="46.6914" lon="5.51297">
        <ele>272.4</ele>
        <time>2022-03-09T14:47:09Z</time>
      </trkpt>
      <trkpt lat="46.69147" lon="5.51291">
        <ele>272.6</ele>
        <time>2022-03-09T14:47:10Z</time>
      </trkpt>
      <trkpt lat="46.69149" lon="5.51289">
        <ele>273</ele>
        <time>2022-03-09T14:47:11Z</time>
      </trkpt>
      <trkpt lat="46.69153" lon="5.51286">
        <ele>273.4</ele>
        <time>2022-03-09T14:47:12Z</time>
      </trkpt>
      <trkpt lat="46.69157" lon="5.51282">
        <ele>273.6</ele>
        <time>2022-03-09T14:47:13Z</time>
      </trkpt>
      <trkpt lat="46.6916" lon="5.51277">
        <ele>274</ele>
        <time>2022-03-09T14:47:14Z</time>
      </trkpt>
      <trkpt lat="46.69164" lon="5.51273">
        <ele>274.4</ele>
        <time>2022-03-09T14:47:15Z</time>
      </trkpt>
      <trkpt lat="46.69167" lon="5.51268">
        <ele>274.6</ele>
        <time>2022-03-09T14:47:16Z</time>
      </trkpt>
      <trkpt lat="46.69171" lon="5.51262">
        <ele>275</ele>
        <time>2022-03-09T14:47:17Z</time>
      </trkpt>
      <trkpt lat="46.69175" lon="5.51258">
        <ele>275.4</ele>
        <time>2022-03-09T14:47:18Z</time>
      </trkpt>
      <trkpt lat="46.69179" lon="5.51253">
        <ele>275.6</ele>
        <time>2022-03-09T14:47:19Z</time>
      </trkpt>
      <trkpt lat="46.69182" lon="5.51249">
        <ele>276</ele>
        <time>2022-03-09T14:47:20Z</time>
      </trkpt>
      <trkpt lat="46.69186" lon="5.51244">
        <ele>276.2</ele>
        <time>2022-03-09T14:47:21Z</time>
      </trkpt>
      <trkpt lat="46.69189" lon="5.5124">
        <ele>276.2</ele>
        <time>2022-03-09T14:47:22Z</time>
      </trkpt>
      <trkpt lat="46.69193" lon="5.51235">
        <ele>276.6</ele>
        <time>2022-03-09T14:47:23Z</time>
      </trkpt>
      <trkpt lat="46.69197" lon="5.51231">
        <ele>276.6</ele>
        <time>2022-03-09T14:47:24Z</time>
      </trkpt>
      <trkpt lat="46.692" lon="5.51227">
        <ele>276.8</ele>
        <time>2022-03-09T14:47:25Z</time>
      </trkpt>
      <trkpt lat="46.69204" lon="5.51223">
        <ele>276.8</ele>
        <time>2022-03-09T14:47:26Z</time>
      </trkpt>
      <trkpt lat="46.69209" lon="5.51219">
        <ele>276.8</ele>
        <time>2022-03-09T14:47:27Z</time>
      </trkpt>
      <trkpt lat="46.69214" lon="5.51215">
        <ele>276.8</ele>
        <time>2022-03-09T14:47:28Z</time>
      </trkpt>
      <trkpt lat="46.69219" lon="5.5121">
        <ele>276.8</ele>
        <time>2022-03-09T14:47:29Z</time>
      </trkpt>
      <trkpt lat="46.69224" lon="5.51206">
        <ele>276.8</ele>
        <time>2022-03-09T14:47:30Z</time>
      </trkpt>
      <trkpt lat="46.6923" lon="5.51202">
        <ele>276.6</ele>
        <time>2022-03-09T14:47:31Z</time>
      </trkpt>
      <trkpt lat="46.69236" lon="5.51197">
        <ele>276.4</ele>
        <time>2022-03-09T14:47:32Z</time>
      </trkpt>
      <trkpt lat="46.69243" lon="5.51192">
        <ele>276</ele>
        <time>2022-03-09T14:47:33Z</time>
      </trkpt>
      <trkpt lat="46.69249" lon="5.51187">
        <ele>276</ele>
        <time>2022-03-09T14:47:34Z</time>
      </trkpt>
      <trkpt lat="46.69256" lon="5.51183">
        <ele>275.6</ele>
        <time>2022-03-09T14:47:35Z</time>
      </trkpt>
      <trkpt lat="46.69262" lon="5.51179">
        <ele>275.6</ele>
        <time>2022-03-09T14:47:36Z</time>
      </trkpt>
      <trkpt lat="46.69269" lon="5.51176">
        <ele>275.6</ele>
        <time>2022-03-09T14:47:37Z</time>
      </trkpt>
      <trkpt lat="46.69275" lon="5.51173">
        <ele>275.6</ele>
        <time>2022-03-09T14:47:38Z</time>
      </trkpt>
      <trkpt lat="46.69281" lon="5.5117">
        <ele>275.8</ele>
        <time>2022-03-09T14:47:39Z</time>
      </trkpt>
      <trkpt lat="46.69287" lon="5.51168">
        <ele>275.8</ele>
        <time>2022-03-09T14:47:40Z</time>
      </trkpt>
      <trkpt lat="46.69292" lon="5.51166">
        <ele>276.2</ele>
        <time>2022-03-09T14:47:41Z</time>
      </trkpt>
      <trkpt lat="46.69298" lon="5.51165">
        <ele>276.2</ele>
        <time>2022-03-09T14:47:42Z</time>
      </trkpt>
      <trkpt lat="46.69303" lon="5.51163">
        <ele>276.2</ele>
        <time>2022-03-09T14:47:43Z</time>
      </trkpt>
      <trkpt lat="46.69309" lon="5.51161">
        <ele>276.2</ele>
        <time>2022-03-09T14:47:44Z</time>
      </trkpt>
      <trkpt lat="46.69315" lon="5.51159">
        <ele>276.2</ele>
        <time>2022-03-09T14:47:45Z</time>
      </trkpt>
      <trkpt lat="46.6932" lon="5.51156">
        <ele>276.2</ele>
        <time>2022-03-09T14:47:46Z</time>
      </trkpt>
      <trkpt lat="46.69326" lon="5.51153">
        <ele>276.2</ele>
        <time>2022-03-09T14:47:47Z</time>
      </trkpt>
      <trkpt lat="46.69332" lon="5.51151">
        <ele>276.2</ele>
        <time>2022-03-09T14:47:48Z</time>
      </trkpt>
      <trkpt lat="46.69338" lon="5.5115">
        <ele>275.8</ele>
        <time>2022-03-09T14:47:49Z</time>
      </trkpt>
      <trkpt lat="46.69345" lon="5.51149">
        <ele>275.6</ele>
        <time>2022-03-09T14:47:50Z</time>
      </trkpt>
      <trkpt lat="46.69352" lon="5.5115">
        <ele>275.6</ele>
        <time>2022-03-09T14:47:51Z</time>
      </trkpt>
      <trkpt lat="46.69359" lon="5.51151">
        <ele>275.2</ele>
        <time>2022-03-09T14:47:52Z</time>
      </trkpt>
      <trkpt lat="46.69366" lon="5.51154">
        <ele>274.8</ele>
        <time>2022-03-09T14:47:53Z</time>
      </trkpt>
      <trkpt lat="46.69373" lon="5.51157">
        <ele>274.6</ele>
        <time>2022-03-09T14:47:54Z</time>
      </trkpt>
      <trkpt lat="46.69381" lon="5.51161">
        <ele>274.4</ele>
        <time>2022-03-09T14:47:55Z</time>
      </trkpt>
      <trkpt lat="46.69388" lon="5.51166">
        <ele>273.8</ele>
        <time>2022-03-09T14:47:56Z</time>
      </trkpt>
      <trkpt lat="46.69396" lon="5.51171">
        <ele>273.4</ele>
        <time>2022-03-09T14:47:57Z</time>
      </trkpt>
      <trkpt lat="46.69404" lon="5.51177">
        <ele>273.2</ele>
        <time>2022-03-09T14:47:58Z</time>
      </trkpt>
      <trkpt lat="46.69412" lon="5.51183">
        <ele>272.8</ele>
        <time>2022-03-09T14:47:59Z</time>
      </trkpt>
      <trkpt lat="46.6942" lon="5.51189">
        <ele>272.2</ele>
        <time>2022-03-09T14:48:00Z</time>
      </trkpt>
      <trkpt lat="46.69429" lon="5.51196">
        <ele>271.8</ele>
        <time>2022-03-09T14:48:01Z</time>
      </trkpt>
      <trkpt lat="46.69438" lon="5.51202">
        <ele>271.4</ele>
        <time>2022-03-09T14:48:02Z</time>
      </trkpt>
      <trkpt lat="46.69446" lon="5.51208">
        <ele>271</ele>
        <time>2022-03-09T14:48:03Z</time>
      </trkpt>
      <trkpt lat="46.69455" lon="5.51211">
        <ele>270.4</ele>
        <time>2022-03-09T14:48:04Z</time>
      </trkpt>
      <trkpt lat="46.69464" lon="5.51214">
        <ele>270</ele>
        <time>2022-03-09T14:48:05Z</time>
      </trkpt>
      <trkpt lat="46.69473" lon="5.51216">
        <ele>269.6</ele>
        <time>2022-03-09T14:48:06Z</time>
      </trkpt>
      <trkpt lat="46.69483" lon="5.51216">
        <ele>269.2</ele>
        <time>2022-03-09T14:48:07Z</time>
      </trkpt>
      <trkpt lat="46.69493" lon="5.51216">
        <ele>268.6</ele>
        <time>2022-03-09T14:48:08Z</time>
      </trkpt>
      <trkpt lat="46.69504" lon="5.51217">
        <ele>268.2</ele>
        <time>2022-03-09T14:48:09Z</time>
      </trkpt>
      <trkpt lat="46.69513" lon="5.51218">
        <ele>267.8</ele>
        <time>2022-03-09T14:48:10Z</time>
      </trkpt>
      <trkpt lat="46.69524" lon="5.51219">
        <ele>267.2</ele>
        <time>2022-03-09T14:48:11Z</time>
      </trkpt>
      <trkpt lat="46.69535" lon="5.51219">
        <ele>266.8</ele>
        <time>2022-03-09T14:48:12Z</time>
      </trkpt>
      <trkpt lat="46.69544" lon="5.5122">
        <ele>266.6</ele>
        <time>2022-03-09T14:48:13Z</time>
      </trkpt>
      <trkpt lat="46.69554" lon="5.51221">
        <ele>266.4</ele>
        <time>2022-03-09T14:48:14Z</time>
      </trkpt>
      <trkpt lat="46.69564" lon="5.51222">
        <ele>266.2</ele>
        <time>2022-03-09T14:48:15Z</time>
      </trkpt>
      <trkpt lat="46.69574" lon="5.51222">
        <ele>265.8</ele>
        <time>2022-03-09T14:48:16Z</time>
      </trkpt>
      <trkpt lat="46.69584" lon="5.51222">
        <ele>265.6</ele>
        <time>2022-03-09T14:48:17Z</time>
      </trkpt>
      <trkpt lat="46.69593" lon="5.51221">
        <ele>265.4</ele>
        <time>2022-03-09T14:48:18Z</time>
      </trkpt>
      <trkpt lat="46.69602" lon="5.51221">
        <ele>265.4</ele>
        <time>2022-03-09T14:48:19Z</time>
      </trkpt>
      <trkpt lat="46.69611" lon="5.51221">
        <ele>265.2</ele>
        <time>2022-03-09T14:48:20Z</time>
      </trkpt>
      <trkpt lat="46.6962" lon="5.51221">
        <ele>265.2</ele>
        <time>2022-03-09T14:48:21Z</time>
      </trkpt>
      <trkpt lat="46.69629" lon="5.51222">
        <ele>265.2</ele>
        <time>2022-03-09T14:48:22Z</time>
      </trkpt>
      <trkpt lat="46.69638" lon="5.51226">
        <ele>265.2</ele>
        <time>2022-03-09T14:48:23Z</time>
      </trkpt>
      <trkpt lat="46.69645" lon="5.51231">
        <ele>265.2</ele>
        <time>2022-03-09T14:48:24Z</time>
      </trkpt>
      <trkpt lat="46.69652" lon="5.51237">
        <ele>265.6</ele>
        <time>2022-03-09T14:48:25Z</time>
      </trkpt>
      <trkpt lat="46.69657" lon="5.51244">
        <ele>265.8</ele>
        <time>2022-03-09T14:48:26Z</time>
      </trkpt>
      <trkpt lat="46.69661" lon="5.51251">
        <ele>266.2</ele>
        <time>2022-03-09T14:48:27Z</time>
      </trkpt>
      <trkpt lat="46.69665" lon="5.51259">
        <ele>266.4</ele>
        <time>2022-03-09T14:48:28Z</time>
      </trkpt>
      <trkpt lat="46.69667" lon="5.51267">
        <ele>266.6</ele>
        <time>2022-03-09T14:48:29Z</time>
      </trkpt>
      <trkpt lat="46.6967" lon="5.51275">
        <ele>266.6</ele>
        <time>2022-03-09T14:48:30Z</time>
      </trkpt>
      <trkpt lat="46.69672" lon="5.51283">
        <ele>267</ele>
        <time>2022-03-09T14:48:31Z</time>
      </trkpt>
      <trkpt lat="46.69674" lon="5.51292">
        <ele>267</ele>
        <time>2022-03-09T14:48:32Z</time>
      </trkpt>
      <trkpt lat="46.69676" lon="5.51302">
        <ele>267</ele>
        <time>2022-03-09T14:48:33Z</time>
      </trkpt>
      <trkpt lat="46.69678" lon="5.51311">
        <ele>266.6</ele>
        <time>2022-03-09T14:48:34Z</time>
      </trkpt>
      <trkpt lat="46.69681" lon="5.51321">
        <ele>266.6</ele>
        <time>2022-03-09T14:48:35Z</time>
      </trkpt>
      <trkpt lat="46.69683" lon="5.51331">
        <ele>266.4</ele>
        <time>2022-03-09T14:48:36Z</time>
      </trkpt>
      <trkpt lat="46.69686" lon="5.51341">
        <ele>266.4</ele>
        <time>2022-03-09T14:48:37Z</time>
      </trkpt>
      <trkpt lat="46.69688" lon="5.51351">
        <ele>266.4</ele>
        <time>2022-03-09T14:48:38Z</time>
      </trkpt>
      <trkpt lat="46.69691" lon="5.51361">
        <ele>266.2</ele>
        <time>2022-03-09T14:48:39Z</time>
      </trkpt>
      <trkpt lat="46.69693" lon="5.51371">
        <ele>266.2</ele>
        <time>2022-03-09T14:48:40Z</time>
      </trkpt>
      <trkpt lat="46.69695" lon="5.51382">
        <ele>265.8</ele>
        <time>2022-03-09T14:48:41Z</time>
      </trkpt>
      <trkpt lat="46.69697" lon="5.51393">
        <ele>265.8</ele>
        <time>2022-03-09T14:48:42Z</time>
      </trkpt>
      <trkpt lat="46.69698" lon="5.51404">
        <ele>265.6</ele>
        <time>2022-03-09T14:48:43Z</time>
      </trkpt>
      <trkpt lat="46.697" lon="5.51414">
        <ele>265.6</ele>
        <time>2022-03-09T14:48:44Z</time>
      </trkpt>
      <trkpt lat="46.69701" lon="5.51425">
        <ele>265.6</ele>
        <time>2022-03-09T14:48:45Z</time>
      </trkpt>
      <trkpt lat="46.69702" lon="5.51435">
        <ele>265.4</ele>
        <time>2022-03-09T14:48:46Z</time>
      </trkpt>
      <trkpt lat="46.69703" lon="5.51446">
        <ele>265.4</ele>
        <time>2022-03-09T14:48:47Z</time>
      </trkpt>
      <trkpt lat="46.69704" lon="5.51457">
        <ele>265.4</ele>
        <time>2022-03-09T14:48:48Z</time>
      </trkpt>
      <trkpt lat="46.69706" lon="5.51468">
        <ele>265</ele>
        <time>2022-03-09T14:48:49Z</time>
      </trkpt>
      <trkpt lat="46.69707" lon="5.51479">
        <ele>264.8</ele>
        <time>2022-03-09T14:48:50Z</time>
      </trkpt>
      <trkpt lat="46.69708" lon="5.51491">
        <ele>264.4</ele>
        <time>2022-03-09T14:48:51Z</time>
      </trkpt>
      <trkpt lat="46.69708" lon="5.51504">
        <ele>264.2</ele>
        <time>2022-03-09T14:48:52Z</time>
      </trkpt>
      <trkpt lat="46.69708" lon="5.51516">
        <ele>264.2</ele>
        <time>2022-03-09T14:48:53Z</time>
      </trkpt>
      <trkpt lat="46.69706" lon="5.51528">
        <ele>264</ele>
        <time>2022-03-09T14:48:54Z</time>
      </trkpt>
      <trkpt lat="46.69705" lon="5.5154">
        <ele>264</ele>
        <time>2022-03-09T14:48:55Z</time>
      </trkpt>
      <trkpt lat="46.69704" lon="5.51551">
        <ele>264</ele>
        <time>2022-03-09T14:48:56Z</time>
      </trkpt>
      <trkpt lat="46.69703" lon="5.51562">
        <ele>264</ele>
        <time>2022-03-09T14:48:57Z</time>
      </trkpt>
      <trkpt lat="46.69702" lon="5.51573">
        <ele>264.4</ele>
        <time>2022-03-09T14:48:58Z</time>
      </trkpt>
      <trkpt lat="46.69702" lon="5.51582">
        <ele>264.4</ele>
        <time>2022-03-09T14:48:59Z</time>
      </trkpt>
      <trkpt lat="46.69702" lon="5.51592">
        <ele>264.8</ele>
        <time>2022-03-09T14:49:00Z</time>
      </trkpt>
      <trkpt lat="46.69701" lon="5.51601">
        <ele>265</ele>
        <time>2022-03-09T14:49:01Z</time>
      </trkpt>
      <trkpt lat="46.69701" lon="5.5161">
        <ele>265.2</ele>
        <time>2022-03-09T14:49:02Z</time>
      </trkpt>
      <trkpt lat="46.69701" lon="5.51619">
        <ele>265.6</ele>
        <time>2022-03-09T14:49:03Z</time>
      </trkpt>
      <trkpt lat="46.69701" lon="5.51628">
        <ele>265.8</ele>
        <time>2022-03-09T14:49:04Z</time>
      </trkpt>
      <trkpt lat="46.697" lon="5.51636">
        <ele>266.2</ele>
        <time>2022-03-09T14:49:05Z</time>
      </trkpt>
      <trkpt lat="46.697" lon="5.51644">
        <ele>266.4</ele>
        <time>2022-03-09T14:49:06Z</time>
      </trkpt>
      <trkpt lat="46.697" lon="5.51652">
        <ele>266.8</ele>
        <time>2022-03-09T14:49:07Z</time>
      </trkpt>
      <trkpt lat="46.69699" lon="5.5166">
        <ele>267</ele>
        <time>2022-03-09T14:49:08Z</time>
      </trkpt>
      <trkpt lat="46.69699" lon="5.51668">
        <ele>267.2</ele>
        <time>2022-03-09T14:49:09Z</time>
      </trkpt>
      <trkpt lat="46.69698" lon="5.51676">
        <ele>267.4</ele>
        <time>2022-03-09T14:49:10Z</time>
      </trkpt>
      <trkpt lat="46.69697" lon="5.51684">
        <ele>267.4</ele>
        <time>2022-03-09T14:49:11Z</time>
      </trkpt>
      <trkpt lat="46.69696" lon="5.51692">
        <ele>267.6</ele>
        <time>2022-03-09T14:49:12Z</time>
      </trkpt>
      <trkpt lat="46.69695" lon="5.517">
        <ele>267.6</ele>
        <time>2022-03-09T14:49:13Z</time>
      </trkpt>
      <trkpt lat="46.69694" lon="5.51708">
        <ele>267.6</ele>
        <time>2022-03-09T14:49:14Z</time>
      </trkpt>
      <trkpt lat="46.69694" lon="5.51715">
        <ele>268</ele>
        <time>2022-03-09T14:49:15Z</time>
      </trkpt>
      <trkpt lat="46.69694" lon="5.51722">
        <ele>268</ele>
        <time>2022-03-09T14:49:16Z</time>
      </trkpt>
      <trkpt lat="46.69696" lon="5.51728">
        <ele>268</ele>
        <time>2022-03-09T14:49:17Z</time>
      </trkpt>
      <trkpt lat="46.69698" lon="5.51733">
        <ele>268.2</ele>
        <time>2022-03-09T14:49:18Z</time>
      </trkpt>
      <trkpt lat="46.69701" lon="5.51736">
        <ele>268.2</ele>
        <time>2022-03-09T14:49:19Z</time>
      </trkpt>
      <trkpt lat="46.69706" lon="5.51738">
        <ele>268.2</ele>
        <time>2022-03-09T14:49:20Z</time>
      </trkpt>
      <trkpt lat="46.6971" lon="5.51738">
        <ele>268.2</ele>
        <time>2022-03-09T14:49:21Z</time>
      </trkpt>
      <trkpt lat="46.69715" lon="5.51738">
        <ele>268.4</ele>
        <time>2022-03-09T14:49:22Z</time>
      </trkpt>
      <trkpt lat="46.6972" lon="5.51737">
        <ele>268.4</ele>
        <time>2022-03-09T14:49:23Z</time>
      </trkpt>
      <trkpt lat="46.69725" lon="5.51736">
        <ele>268.4</ele>
        <time>2022-03-09T14:49:24Z</time>
      </trkpt>
      <trkpt lat="46.69729" lon="5.51735">
        <ele>268.6</ele>
        <time>2022-03-09T14:49:25Z</time>
      </trkpt>
      <trkpt lat="46.69734" lon="5.51735">
        <ele>268.8</ele>
        <time>2022-03-09T14:49:26Z</time>
      </trkpt>
      <trkpt lat="46.6974" lon="5.51735">
        <ele>269</ele>
        <time>2022-03-09T14:49:27Z</time>
      </trkpt>
      <trkpt lat="46.69745" lon="5.51735">
        <ele>269</ele>
        <time>2022-03-09T14:49:28Z</time>
      </trkpt>
      <trkpt lat="46.6975" lon="5.51735">
        <ele>269.4</ele>
        <time>2022-03-09T14:49:29Z</time>
      </trkpt>
      <trkpt lat="46.69756" lon="5.51736">
        <ele>269.4</ele>
        <time>2022-03-09T14:49:30Z</time>
      </trkpt>
      <trkpt lat="46.69761" lon="5.51736">
        <ele>269.8</ele>
        <time>2022-03-09T14:49:31Z</time>
      </trkpt>
      <trkpt lat="46.69766" lon="5.51737">
        <ele>269.8</ele>
        <time>2022-03-09T14:49:32Z</time>
      </trkpt>
      <trkpt lat="46.69772" lon="5.51738">
        <ele>270</ele>
        <time>2022-03-09T14:49:33Z</time>
      </trkpt>
      <trkpt lat="46.69777" lon="5.5174">
        <ele>270</ele>
        <time>2022-03-09T14:49:34Z</time>
      </trkpt>
      <trkpt lat="46.69782" lon="5.51742">
        <ele>270.4</ele>
        <time>2022-03-09T14:49:35Z</time>
      </trkpt>
      <trkpt lat="46.69787" lon="5.51744">
        <ele>270.4</ele>
        <time>2022-03-09T14:49:36Z</time>
      </trkpt>
      <trkpt lat="46.69793" lon="5.51746">
        <ele>270.6</ele>
        <time>2022-03-09T14:49:37Z</time>
      </trkpt>
      <trkpt lat="46.69798" lon="5.51749">
        <ele>270.6</ele>
        <time>2022-03-09T14:49:38Z</time>
      </trkpt>
      <trkpt lat="46.69803" lon="5.51751">
        <ele>271</ele>
        <time>2022-03-09T14:49:39Z</time>
      </trkpt>
      <trkpt lat="46.69809" lon="5.51753">
        <ele>271</ele>
        <time>2022-03-09T14:49:40Z</time>
      </trkpt>
      <trkpt lat="46.69814" lon="5.51756">
        <ele>271</ele>
        <time>2022-03-09T14:49:41Z</time>
      </trkpt>
      <trkpt lat="46.6982" lon="5.51758">
        <ele>271.2</ele>
        <time>2022-03-09T14:49:42Z</time>
      </trkpt>
      <trkpt lat="46.69825" lon="5.51761">
        <ele>271.2</ele>
        <time>2022-03-09T14:49:43Z</time>
      </trkpt>
      <trkpt lat="46.69831" lon="5.51763">
        <ele>271.2</ele>
        <time>2022-03-09T14:49:44Z</time>
      </trkpt>
      <trkpt lat="46.69837" lon="5.51765">
        <ele>271.2</ele>
        <time>2022-03-09T14:49:45Z</time>
      </trkpt>
      <trkpt lat="46.69843" lon="5.51766">
        <ele>271.2</ele>
        <time>2022-03-09T14:49:46Z</time>
      </trkpt>
      <trkpt lat="46.69849" lon="5.51768">
        <ele>271.4</ele>
        <time>2022-03-09T14:49:47Z</time>
      </trkpt>
      <trkpt lat="46.69855" lon="5.5177">
        <ele>271.4</ele>
        <time>2022-03-09T14:49:48Z</time>
      </trkpt>
      <trkpt lat="46.69861" lon="5.51771">
        <ele>271.4</ele>
        <time>2022-03-09T14:49:49Z</time>
      </trkpt>
      <trkpt lat="46.69867" lon="5.51773">
        <ele>271.6</ele>
        <time>2022-03-09T14:49:50Z</time>
      </trkpt>
      <trkpt lat="46.69873" lon="5.51774">
        <ele>271.8</ele>
        <time>2022-03-09T14:49:51Z</time>
      </trkpt>
      <trkpt lat="46.69878" lon="5.51776">
        <ele>272.2</ele>
        <time>2022-03-09T14:49:52Z</time>
      </trkpt>
      <trkpt lat="46.69883" lon="5.51779">
        <ele>272.2</ele>
        <time>2022-03-09T14:49:53Z</time>
      </trkpt>
      <trkpt lat="46.69887" lon="5.51782">
        <ele>272.6</ele>
        <time>2022-03-09T14:49:54Z</time>
      </trkpt>
      <trkpt lat="46.69892" lon="5.51786">
        <ele>272.8</ele>
        <time>2022-03-09T14:49:55Z</time>
      </trkpt>
      <trkpt lat="46.69896" lon="5.5179">
        <ele>273</ele>
        <time>2022-03-09T14:49:56Z</time>
      </trkpt>
      <trkpt lat="46.69901" lon="5.51794">
        <ele>273.4</ele>
        <time>2022-03-09T14:49:57Z</time>
      </trkpt>
      <trkpt lat="46.69905" lon="5.51798">
        <ele>273.6</ele>
        <time>2022-03-09T14:49:58Z</time>
      </trkpt>
      <trkpt lat="46.6991" lon="5.51802">
        <ele>274</ele>
        <time>2022-03-09T14:49:59Z</time>
      </trkpt>
      <trkpt lat="46.69914" lon="5.51807">
        <ele>274.2</ele>
        <time>2022-03-09T14:50:00Z</time>
      </trkpt>
      <trkpt lat="46.69917" lon="5.51811">
        <ele>274.6</ele>
        <time>2022-03-09T14:50:01Z</time>
      </trkpt>
      <trkpt lat="46.6992" lon="5.51816">
        <ele>275</ele>
        <time>2022-03-09T14:50:02Z</time>
      </trkpt>
      <trkpt lat="46.69923" lon="5.5182">
        <ele>275.4</ele>
        <time>2022-03-09T14:50:03Z</time>
      </trkpt>
      <trkpt lat="46.69926" lon="5.51824">
        <ele>275.6</ele>
        <time>2022-03-09T14:50:04Z</time>
      </trkpt>
      <trkpt lat="46.69929" lon="5.51828">
        <ele>275.8</ele>
        <time>2022-03-09T14:50:05Z</time>
      </trkpt>
      <trkpt lat="46.69931" lon="5.51832">
        <ele>276.2</ele>
        <time>2022-03-09T14:50:06Z</time>
      </trkpt>
      <trkpt lat="46.69934" lon="5.51836">
        <ele>276.4</ele>
        <time>2022-03-09T14:50:07Z</time>
      </trkpt>
      <trkpt lat="46.69936" lon="5.5184">
        <ele>276.6</ele>
        <time>2022-03-09T14:50:08Z</time>
      </trkpt>
      <trkpt lat="46.69938" lon="5.51844">
        <ele>276.8</ele>
        <time>2022-03-09T14:50:09Z</time>
      </trkpt>
      <trkpt lat="46.6994" lon="5.51847">
        <ele>276.8</ele>
        <time>2022-03-09T14:50:10Z</time>
      </trkpt>
      <trkpt lat="46.69942" lon="5.51851">
        <ele>277.2</ele>
        <time>2022-03-09T14:50:11Z</time>
      </trkpt>
      <trkpt lat="46.69944" lon="5.51855">
        <ele>277.6</ele>
        <time>2022-03-09T14:50:12Z</time>
      </trkpt>
      <trkpt lat="46.69946" lon="5.51859">
        <ele>277.8</ele>
        <time>2022-03-09T14:50:13Z</time>
      </trkpt>
      <trkpt lat="46.69948" lon="5.51862">
        <ele>277.8</ele>
        <time>2022-03-09T14:50:14Z</time>
      </trkpt>
      <trkpt lat="46.69953" lon="5.51869">
        <ele>278.2</ele>
        <time>2022-03-09T14:50:15Z</time>
      </trkpt>
      <trkpt lat="46.69955" lon="5.51872">
        <ele>278.6</ele>
        <time>2022-03-09T14:50:16Z</time>
      </trkpt>
      <trkpt lat="46.69957" lon="5.51875">
        <ele>278.8</ele>
        <time>2022-03-09T14:50:17Z</time>
      </trkpt>
      <trkpt lat="46.6996" lon="5.51877">
        <ele>279.2</ele>
        <time>2022-03-09T14:50:18Z</time>
      </trkpt>
      <trkpt lat="46.69963" lon="5.51879">
        <ele>279.4</ele>
        <time>2022-03-09T14:50:19Z</time>
      </trkpt>
      <trkpt lat="46.69963" lon="5.51879">
        <ele>279.4</ele>
        <time>2022-03-09T14:50:20Z</time>
      </trkpt>
      <trkpt lat="46.69966" lon="5.51881">
        <ele>279.8</ele>
        <time>2022-03-09T14:50:21Z</time>
      </trkpt>
      <trkpt lat="46.69969" lon="5.51883">
        <ele>279.8</ele>
        <time>2022-03-09T14:50:22Z</time>
      </trkpt>
      <trkpt lat="46.69972" lon="5.51885">
        <ele>280.2</ele>
        <time>2022-03-09T14:50:23Z</time>
      </trkpt>
      <trkpt lat="46.69975" lon="5.51887">
        <ele>280.2</ele>
        <time>2022-03-09T14:50:24Z</time>
      </trkpt>
      <trkpt lat="46.69977" lon="5.51889">
        <ele>280.6</ele>
        <time>2022-03-09T14:50:25Z</time>
      </trkpt>
      <trkpt lat="46.6998" lon="5.51891">
        <ele>280.8</ele>
        <time>2022-03-09T14:50:26Z</time>
      </trkpt>
      <trkpt lat="46.69983" lon="5.51893">
        <ele>281</ele>
        <time>2022-03-09T14:50:27Z</time>
      </trkpt>
      <trkpt lat="46.69985" lon="5.51896">
        <ele>281</ele>
        <time>2022-03-09T14:50:28Z</time>
      </trkpt>
      <trkpt lat="46.69988" lon="5.51898">
        <ele>281.4</ele>
        <time>2022-03-09T14:50:29Z</time>
      </trkpt>
      <trkpt lat="46.69991" lon="5.519">
        <ele>281.4</ele>
        <time>2022-03-09T14:50:30Z</time>
      </trkpt>
      <trkpt lat="46.69993" lon="5.51902">
        <ele>281.8</ele>
        <time>2022-03-09T14:50:31Z</time>
      </trkpt>
      <trkpt lat="46.69996" lon="5.51903">
        <ele>281.8</ele>
        <time>2022-03-09T14:50:32Z</time>
      </trkpt>
      <trkpt lat="46.69999" lon="5.51904">
        <ele>282</ele>
        <time>2022-03-09T14:50:33Z</time>
      </trkpt>
      <trkpt lat="46.70002" lon="5.51906">
        <ele>282.4</ele>
        <time>2022-03-09T14:50:34Z</time>
      </trkpt>
      <trkpt lat="46.70005" lon="5.51908">
        <ele>282.4</ele>
        <time>2022-03-09T14:50:35Z</time>
      </trkpt>
      <trkpt lat="46.70008" lon="5.5191">
        <ele>282.6</ele>
        <time>2022-03-09T14:50:36Z</time>
      </trkpt>
      <trkpt lat="46.70011" lon="5.51913">
        <ele>282.6</ele>
        <time>2022-03-09T14:50:37Z</time>
      </trkpt>
      <trkpt lat="46.70014" lon="5.51916">
        <ele>283</ele>
        <time>2022-03-09T14:50:38Z</time>
      </trkpt>
      <trkpt lat="46.70016" lon="5.5192">
        <ele>283</ele>
        <time>2022-03-09T14:50:39Z</time>
      </trkpt>
      <trkpt lat="46.70019" lon="5.51924">
        <ele>283.2</ele>
        <time>2022-03-09T14:50:40Z</time>
      </trkpt>
      <trkpt lat="46.70022" lon="5.51928">
        <ele>283.2</ele>
        <time>2022-03-09T14:50:41Z</time>
      </trkpt>
      <trkpt lat="46.70024" lon="5.51933">
        <ele>283.4</ele>
        <time>2022-03-09T14:50:42Z</time>
      </trkpt>
      <trkpt lat="46.70027" lon="5.51938">
        <ele>283.4</ele>
        <time>2022-03-09T14:50:43Z</time>
      </trkpt>
      <trkpt lat="46.70029" lon="5.51943">
        <ele>283.4</ele>
        <time>2022-03-09T14:50:44Z</time>
      </trkpt>
      <trkpt lat="46.70033" lon="5.51948">
        <ele>283.4</ele>
        <time>2022-03-09T14:50:45Z</time>
      </trkpt>
      <trkpt lat="46.70036" lon="5.51954">
        <ele>283.4</ele>
        <time>2022-03-09T14:50:46Z</time>
      </trkpt>
      <trkpt lat="46.70039" lon="5.51959">
        <ele>283.4</ele>
        <time>2022-03-09T14:50:47Z</time>
      </trkpt>
      <trkpt lat="46.70043" lon="5.51964">
        <ele>283.4</ele>
        <time>2022-03-09T14:50:48Z</time>
      </trkpt>
      <trkpt lat="46.70047" lon="5.51968">
        <ele>283.4</ele>
        <time>2022-03-09T14:50:49Z</time>
      </trkpt>
      <trkpt lat="46.70051" lon="5.51972">
        <ele>283.4</ele>
        <time>2022-03-09T14:50:50Z</time>
      </trkpt>
      <trkpt lat="46.70056" lon="5.51976">
        <ele>283.4</ele>
        <time>2022-03-09T14:50:51Z</time>
      </trkpt>
      <trkpt lat="46.7006" lon="5.5198">
        <ele>283.4</ele>
        <time>2022-03-09T14:50:52Z</time>
      </trkpt>
      <trkpt lat="46.70065" lon="5.51985">
        <ele>283.4</ele>
        <time>2022-03-09T14:50:53Z</time>
      </trkpt>
      <trkpt lat="46.70069" lon="5.51989">
        <ele>283.4</ele>
        <time>2022-03-09T14:50:54Z</time>
      </trkpt>
      <trkpt lat="46.70073" lon="5.51994">
        <ele>283.6</ele>
        <time>2022-03-09T14:50:55Z</time>
      </trkpt>
      <trkpt lat="46.70076" lon="5.51999">
        <ele>283.6</ele>
        <time>2022-03-09T14:50:56Z</time>
      </trkpt>
      <trkpt lat="46.70078" lon="5.52005">
        <ele>284</ele>
        <time>2022-03-09T14:50:57Z</time>
      </trkpt>
      <trkpt lat="46.70079" lon="5.5201">
        <ele>284.2</ele>
        <time>2022-03-09T14:50:58Z</time>
      </trkpt>
      <trkpt lat="46.7008" lon="5.52015">
        <ele>284.6</ele>
        <time>2022-03-09T14:50:59Z</time>
      </trkpt>
      <trkpt lat="46.70081" lon="5.5202">
        <ele>284.8</ele>
        <time>2022-03-09T14:51:00Z</time>
      </trkpt>
      <trkpt lat="46.70082" lon="5.52024">
        <ele>285.2</ele>
        <time>2022-03-09T14:51:01Z</time>
      </trkpt>
      <trkpt lat="46.70083" lon="5.52028">
        <ele>285.2</ele>
        <time>2022-03-09T14:51:02Z</time>
      </trkpt>
      <trkpt lat="46.70085" lon="5.52031">
        <ele>285.4</ele>
        <time>2022-03-09T14:51:03Z</time>
      </trkpt>
      <trkpt lat="46.70086" lon="5.52035">
        <ele>285.8</ele>
        <time>2022-03-09T14:51:04Z</time>
      </trkpt>
      <trkpt lat="46.70088" lon="5.52038">
        <ele>286</ele>
        <time>2022-03-09T14:51:05Z</time>
      </trkpt>
      <trkpt lat="46.7009" lon="5.52041">
        <ele>286.4</ele>
        <time>2022-03-09T14:51:06Z</time>
      </trkpt>
      <trkpt lat="46.70092" lon="5.52044">
        <ele>286.6</ele>
        <time>2022-03-09T14:51:07Z</time>
      </trkpt>
      <trkpt lat="46.70094" lon="5.52046">
        <ele>286.8</ele>
        <time>2022-03-09T14:51:08Z</time>
      </trkpt>
      <trkpt lat="46.70097" lon="5.52047">
        <ele>287.2</ele>
        <time>2022-03-09T14:51:09Z</time>
      </trkpt>
      <trkpt lat="46.701" lon="5.52047">
        <ele>287.4</ele>
        <time>2022-03-09T14:51:10Z</time>
      </trkpt>
      <trkpt lat="46.70102" lon="5.52046">
        <ele>287.6</ele>
        <time>2022-03-09T14:51:11Z</time>
      </trkpt>
      <trkpt lat="46.70105" lon="5.52045">
        <ele>288</ele>
        <time>2022-03-09T14:51:12Z</time>
      </trkpt>
      <trkpt lat="46.70108" lon="5.52045">
        <ele>288.4</ele>
        <time>2022-03-09T14:51:13Z</time>
      </trkpt>
      <trkpt lat="46.70111" lon="5.52045">
        <ele>288.8</ele>
        <time>2022-03-09T14:51:14Z</time>
      </trkpt>
      <trkpt lat="46.70114" lon="5.52044">
        <ele>289</ele>
        <time>2022-03-09T14:51:15Z</time>
      </trkpt>
      <trkpt lat="46.70117" lon="5.52044">
        <ele>289.4</ele>
        <time>2022-03-09T14:51:16Z</time>
      </trkpt>
      <trkpt lat="46.7012" lon="5.52043">
        <ele>289.6</ele>
        <time>2022-03-09T14:51:17Z</time>
      </trkpt>
      <trkpt lat="46.70123" lon="5.52043">
        <ele>289.8</ele>
        <time>2022-03-09T14:51:18Z</time>
      </trkpt>
      <trkpt lat="46.70127" lon="5.52043">
        <ele>289.8</ele>
        <time>2022-03-09T14:51:19Z</time>
      </trkpt>
      <trkpt lat="46.7013" lon="5.52043">
        <ele>289.8</ele>
        <time>2022-03-09T14:51:20Z</time>
      </trkpt>
      <trkpt lat="46.70134" lon="5.52044">
        <ele>290.2</ele>
        <time>2022-03-09T14:51:21Z</time>
      </trkpt>
      <trkpt lat="46.70137" lon="5.52044">
        <ele>290.2</ele>
        <time>2022-03-09T14:51:22Z</time>
      </trkpt>
      <trkpt lat="46.70141" lon="5.52044">
        <ele>290.4</ele>
        <time>2022-03-09T14:51:23Z</time>
      </trkpt>
      <trkpt lat="46.70145" lon="5.52044">
        <ele>290.4</ele>
        <time>2022-03-09T14:51:24Z</time>
      </trkpt>
      <trkpt lat="46.70149" lon="5.52044">
        <ele>290.4</ele>
        <time>2022-03-09T14:51:25Z</time>
      </trkpt>
      <trkpt lat="46.70153" lon="5.52043">
        <ele>290.8</ele>
        <time>2022-03-09T14:51:26Z</time>
      </trkpt>
      <trkpt lat="46.70157" lon="5.52042">
        <ele>290.8</ele>
        <time>2022-03-09T14:51:27Z</time>
      </trkpt>
      <trkpt lat="46.70162" lon="5.5204">
        <ele>290.8</ele>
        <time>2022-03-09T14:51:28Z</time>
      </trkpt>
      <trkpt lat="46.70167" lon="5.52039">
        <ele>290.8</ele>
        <time>2022-03-09T14:51:29Z</time>
      </trkpt>
      <trkpt lat="46.70171" lon="5.52037">
        <ele>290.8</ele>
        <time>2022-03-09T14:51:30Z</time>
      </trkpt>
      <trkpt lat="46.70176" lon="5.52035">
        <ele>290.8</ele>
        <time>2022-03-09T14:51:31Z</time>
      </trkpt>
      <trkpt lat="46.70182" lon="5.52034">
        <ele>290.6</ele>
        <time>2022-03-09T14:51:32Z</time>
      </trkpt>
      <trkpt lat="46.70188" lon="5.52032">
        <ele>290.4</ele>
        <time>2022-03-09T14:51:33Z</time>
      </trkpt>
      <trkpt lat="46.70194" lon="5.52032">
        <ele>290</ele>
        <time>2022-03-09T14:51:34Z</time>
      </trkpt>
      <trkpt lat="46.70199" lon="5.52033">
        <ele>289.6</ele>
        <time>2022-03-09T14:51:35Z</time>
      </trkpt>
      <trkpt lat="46.70204" lon="5.52035">
        <ele>289.2</ele>
        <time>2022-03-09T14:51:36Z</time>
      </trkpt>
      <trkpt lat="46.70209" lon="5.52039">
        <ele>288.8</ele>
        <time>2022-03-09T14:51:37Z</time>
      </trkpt>
      <trkpt lat="46.70213" lon="5.52044">
        <ele>288.2</ele>
        <time>2022-03-09T14:51:38Z</time>
      </trkpt>
      <trkpt lat="46.70216" lon="5.52051">
        <ele>287.8</ele>
        <time>2022-03-09T14:51:39Z</time>
      </trkpt>
      <trkpt lat="46.70218" lon="5.52061">
        <ele>287.2</ele>
        <time>2022-03-09T14:51:40Z</time>
      </trkpt>
      <trkpt lat="46.70219" lon="5.52072">
        <ele>286.6</ele>
        <time>2022-03-09T14:51:41Z</time>
      </trkpt>
      <trkpt lat="46.7022" lon="5.52084">
        <ele>285.8</ele>
        <time>2022-03-09T14:51:42Z</time>
      </trkpt>
      <trkpt lat="46.70221" lon="5.52097">
        <ele>285</ele>
        <time>2022-03-09T14:51:43Z</time>
      </trkpt>
      <trkpt lat="46.70223" lon="5.5211">
        <ele>284.4</ele>
        <time>2022-03-09T14:51:44Z</time>
      </trkpt>
      <trkpt lat="46.70226" lon="5.52123">
        <ele>283.8</ele>
        <time>2022-03-09T14:51:45Z</time>
      </trkpt>
      <trkpt lat="46.70229" lon="5.52136">
        <ele>283.2</ele>
        <time>2022-03-09T14:51:46Z</time>
      </trkpt>
      <trkpt lat="46.70231" lon="5.52148">
        <ele>282.8</ele>
        <time>2022-03-09T14:51:47Z</time>
      </trkpt>
      <trkpt lat="46.70233" lon="5.5216">
        <ele>282.6</ele>
        <time>2022-03-09T14:51:48Z</time>
      </trkpt>
      <trkpt lat="46.70234" lon="5.52172">
        <ele>282.2</ele>
        <time>2022-03-09T14:51:49Z</time>
      </trkpt>
      <trkpt lat="46.70235" lon="5.52184">
        <ele>282</ele>
        <time>2022-03-09T14:51:50Z</time>
      </trkpt>
      <trkpt lat="46.70236" lon="5.52196">
        <ele>281.6</ele>
        <time>2022-03-09T14:51:51Z</time>
      </trkpt>
      <trkpt lat="46.70236" lon="5.52208">
        <ele>281.2</ele>
        <time>2022-03-09T14:51:52Z</time>
      </trkpt>
      <trkpt lat="46.70237" lon="5.5222">
        <ele>280.8</ele>
        <time>2022-03-09T14:51:53Z</time>
      </trkpt>
      <trkpt lat="46.70236" lon="5.52232">
        <ele>280.4</ele>
        <time>2022-03-09T14:51:54Z</time>
      </trkpt>
      <trkpt lat="46.70235" lon="5.52244">
        <ele>279.8</ele>
        <time>2022-03-09T14:51:55Z</time>
      </trkpt>
      <trkpt lat="46.70233" lon="5.52257">
        <ele>279.4</ele>
        <time>2022-03-09T14:51:56Z</time>
      </trkpt>
      <trkpt lat="46.70231" lon="5.52269">
        <ele>278.8</ele>
        <time>2022-03-09T14:51:57Z</time>
      </trkpt>
      <trkpt lat="46.70228" lon="5.52281">
        <ele>278.4</ele>
        <time>2022-03-09T14:51:58Z</time>
      </trkpt>
      <trkpt lat="46.70225" lon="5.52292">
        <ele>278.2</ele>
        <time>2022-03-09T14:51:59Z</time>
      </trkpt>
      <trkpt lat="46.70221" lon="5.52304">
        <ele>277.8</ele>
        <time>2022-03-09T14:52:00Z</time>
      </trkpt>
      <trkpt lat="46.70217" lon="5.52315">
        <ele>277.4</ele>
        <time>2022-03-09T14:52:01Z</time>
      </trkpt>
      <trkpt lat="46.70213" lon="5.52326">
        <ele>276.8</ele>
        <time>2022-03-09T14:52:02Z</time>
      </trkpt>
      <trkpt lat="46.70208" lon="5.52338">
        <ele>276.6</ele>
        <time>2022-03-09T14:52:03Z</time>
      </trkpt>
      <trkpt lat="46.70204" lon="5.52349">
        <ele>276.2</ele>
        <time>2022-03-09T14:52:04Z</time>
      </trkpt>
      <trkpt lat="46.702" lon="5.5236">
        <ele>276</ele>
        <time>2022-03-09T14:52:05Z</time>
      </trkpt>
      <trkpt lat="46.70195" lon="5.5237">
        <ele>276</ele>
        <time>2022-03-09T14:52:06Z</time>
      </trkpt>
      <trkpt lat="46.70192" lon="5.52379">
        <ele>276</ele>
        <time>2022-03-09T14:52:07Z</time>
      </trkpt>
      <trkpt lat="46.70188" lon="5.52388">
        <ele>275.8</ele>
        <time>2022-03-09T14:52:08Z</time>
      </trkpt>
      <trkpt lat="46.70183" lon="5.52394">
        <ele>275.8</ele>
        <time>2022-03-09T14:52:09Z</time>
      </trkpt>
      <trkpt lat="46.70178" lon="5.52397">
        <ele>275.8</ele>
        <time>2022-03-09T14:52:10Z</time>
      </trkpt>
      <trkpt lat="46.70173" lon="5.52398">
        <ele>275.8</ele>
        <time>2022-03-09T14:52:11Z</time>
      </trkpt>
      <trkpt lat="46.70168" lon="5.52399">
        <ele>275.8</ele>
        <time>2022-03-09T14:52:12Z</time>
      </trkpt>
      <trkpt lat="46.70162" lon="5.52399">
        <ele>275.8</ele>
        <time>2022-03-09T14:52:13Z</time>
      </trkpt>
      <trkpt lat="46.70157" lon="5.52398">
        <ele>276</ele>
        <time>2022-03-09T14:52:14Z</time>
      </trkpt>
      <trkpt lat="46.70152" lon="5.52398">
        <ele>276</ele>
        <time>2022-03-09T14:52:15Z</time>
      </trkpt>
      <trkpt lat="46.70148" lon="5.52397">
        <ele>276.4</ele>
        <time>2022-03-09T14:52:16Z</time>
      </trkpt>
      <trkpt lat="46.70143" lon="5.52396">
        <ele>276.4</ele>
        <time>2022-03-09T14:52:17Z</time>
      </trkpt>
      <trkpt lat="46.70138" lon="5.52395">
        <ele>276.6</ele>
        <time>2022-03-09T14:52:18Z</time>
      </trkpt>
      <trkpt lat="46.70134" lon="5.52392">
        <ele>276.6</ele>
        <time>2022-03-09T14:52:19Z</time>
      </trkpt>
      <trkpt lat="46.70129" lon="5.5239">
        <ele>276.6</ele>
        <time>2022-03-09T14:52:20Z</time>
      </trkpt>
      <trkpt lat="46.70123" lon="5.52388">
        <ele>276.8</ele>
        <time>2022-03-09T14:52:21Z</time>
      </trkpt>
      <trkpt lat="46.70118" lon="5.52387">
        <ele>276.8</ele>
        <time>2022-03-09T14:52:22Z</time>
      </trkpt>
      <trkpt lat="46.70112" lon="5.52389">
        <ele>276.8</ele>
        <time>2022-03-09T14:52:23Z</time>
      </trkpt>
      <trkpt lat="46.70107" lon="5.52392">
        <ele>276.8</ele>
        <time>2022-03-09T14:52:24Z</time>
      </trkpt>
      <trkpt lat="46.70103" lon="5.52397">
        <ele>276.8</ele>
        <time>2022-03-09T14:52:25Z</time>
      </trkpt>
      <trkpt lat="46.70099" lon="5.52401">
        <ele>277</ele>
        <time>2022-03-09T14:52:26Z</time>
      </trkpt>
      <trkpt lat="46.70096" lon="5.52405">
        <ele>277</ele>
        <time>2022-03-09T14:52:27Z</time>
      </trkpt>
      <trkpt lat="46.70093" lon="5.52411">
        <ele>277.4</ele>
        <time>2022-03-09T14:52:28Z</time>
      </trkpt>
      <trkpt lat="46.70091" lon="5.52418">
        <ele>277.4</ele>
        <time>2022-03-09T14:52:29Z</time>
      </trkpt>
      <trkpt lat="46.70088" lon="5.52424">
        <ele>277.6</ele>
        <time>2022-03-09T14:52:30Z</time>
      </trkpt>
      <trkpt lat="46.70086" lon="5.52429">
        <ele>278</ele>
        <time>2022-03-09T14:52:31Z</time>
      </trkpt>
      <trkpt lat="46.70085" lon="5.52434">
        <ele>278.2</ele>
        <time>2022-03-09T14:52:32Z</time>
      </trkpt>
      <trkpt lat="46.70083" lon="5.52439">
        <ele>278.6</ele>
        <time>2022-03-09T14:52:33Z</time>
      </trkpt>
      <trkpt lat="46.70082" lon="5.52444">
        <ele>278.8</ele>
        <time>2022-03-09T14:52:34Z</time>
      </trkpt>
      <trkpt lat="46.7008" lon="5.52448">
        <ele>279</ele>
        <time>2022-03-09T14:52:35Z</time>
      </trkpt>
      <trkpt lat="46.70079" lon="5.52451">
        <ele>279.4</ele>
        <time>2022-03-09T14:52:36Z</time>
      </trkpt>
      <trkpt lat="46.70077" lon="5.52455">
        <ele>279.8</ele>
        <time>2022-03-09T14:52:37Z</time>
      </trkpt>
      <trkpt lat="46.70075" lon="5.52458">
        <ele>280</ele>
        <time>2022-03-09T14:52:38Z</time>
      </trkpt>
      <trkpt lat="46.70074" lon="5.52461">
        <ele>280.4</ele>
        <time>2022-03-09T14:52:39Z</time>
      </trkpt>
      <trkpt lat="46.70072" lon="5.52464">
        <ele>280.6</ele>
        <time>2022-03-09T14:52:40Z</time>
      </trkpt>
      <trkpt lat="46.7007" lon="5.52467">
        <ele>281</ele>
        <time>2022-03-09T14:52:41Z</time>
      </trkpt>
      <trkpt lat="46.70068" lon="5.5247">
        <ele>281.2</ele>
        <time>2022-03-09T14:52:42Z</time>
      </trkpt>
      <trkpt lat="46.70065" lon="5.52471">
        <ele>281.4</ele>
        <time>2022-03-09T14:52:43Z</time>
      </trkpt>
      <trkpt lat="46.70062" lon="5.52473">
        <ele>281.6</ele>
        <time>2022-03-09T14:52:44Z</time>
      </trkpt>
      <trkpt lat="46.70059" lon="5.52475">
        <ele>282</ele>
        <time>2022-03-09T14:52:45Z</time>
      </trkpt>
      <trkpt lat="46.70056" lon="5.52477">
        <ele>282.2</ele>
        <time>2022-03-09T14:52:46Z</time>
      </trkpt>
      <trkpt lat="46.70053" lon="5.52479">
        <ele>282.4</ele>
        <time>2022-03-09T14:52:47Z</time>
      </trkpt>
      <trkpt lat="46.7005" lon="5.52481">
        <ele>282.6</ele>
        <time>2022-03-09T14:52:48Z</time>
      </trkpt>
      <trkpt lat="46.70047" lon="5.52484">
        <ele>282.8</ele>
        <time>2022-03-09T14:52:49Z</time>
      </trkpt>
      <trkpt lat="46.70045" lon="5.52487">
        <ele>283.2</ele>
        <time>2022-03-09T14:52:50Z</time>
      </trkpt>
      <trkpt lat="46.70042" lon="5.5249">
        <ele>283.2</ele>
        <time>2022-03-09T14:52:51Z</time>
      </trkpt>
      <trkpt lat="46.7004" lon="5.52493">
        <ele>283.6</ele>
        <time>2022-03-09T14:52:52Z</time>
      </trkpt>
      <trkpt lat="46.70039" lon="5.52497">
        <ele>283.8</ele>
        <time>2022-03-09T14:52:53Z</time>
      </trkpt>
      <trkpt lat="46.70038" lon="5.52501">
        <ele>284</ele>
        <time>2022-03-09T14:52:54Z</time>
      </trkpt>
      <trkpt lat="46.70037" lon="5.52505">
        <ele>284</ele>
        <time>2022-03-09T14:52:55Z</time>
      </trkpt>
      <trkpt lat="46.70036" lon="5.5251">
        <ele>284.4</ele>
        <time>2022-03-09T14:52:56Z</time>
      </trkpt>
      <trkpt lat="46.70035" lon="5.52514">
        <ele>284.4</ele>
        <time>2022-03-09T14:52:57Z</time>
      </trkpt>
      <trkpt lat="46.70035" lon="5.52518">
        <ele>284.4</ele>
        <time>2022-03-09T14:52:58Z</time>
      </trkpt>
      <trkpt lat="46.70034" lon="5.52524">
        <ele>284.4</ele>
        <time>2022-03-09T14:52:59Z</time>
      </trkpt>
      <trkpt lat="46.70033" lon="5.5253">
        <ele>284</ele>
        <time>2022-03-09T14:53:00Z</time>
      </trkpt>
      <trkpt lat="46.70032" lon="5.52535">
        <ele>284</ele>
        <time>2022-03-09T14:53:01Z</time>
      </trkpt>
      <trkpt lat="46.70032" lon="5.52539">
        <ele>283.6</ele>
        <time>2022-03-09T14:53:02Z</time>
      </trkpt>
      <trkpt lat="46.70032" lon="5.52542">
        <ele>283.4</ele>
        <time>2022-03-09T14:53:03Z</time>
      </trkpt>
      <trkpt lat="46.70032" lon="5.52545">
        <ele>283.2</ele>
        <time>2022-03-09T14:53:04Z</time>
      </trkpt>
      <trkpt lat="46.70032" lon="5.52548">
        <ele>283</ele>
        <time>2022-03-09T14:53:05Z</time>
      </trkpt>
      <trkpt lat="46.70031" lon="5.52551">
        <ele>282.6</ele>
        <time>2022-03-09T14:53:06Z</time>
      </trkpt>
      <trkpt lat="46.70031" lon="5.52551">
        <ele>282.4</ele>
        <time>2022-03-09T14:53:07Z</time>
      </trkpt>
      <trkpt lat="46.70031" lon="5.52552">
        <ele>282.4</ele>
        <time>2022-03-09T14:53:08Z</time>
      </trkpt>
      <trkpt lat="46.70031" lon="5.52552">
        <ele>282.2</ele>
        <time>2022-03-09T14:53:09Z</time>
      </trkpt>
      <trkpt lat="46.70031" lon="5.52553">
        <ele>282.2</ele>
        <time>2022-03-09T14:53:10Z</time>
      </trkpt>
      <trkpt lat="46.70031" lon="5.52554">
        <ele>282.2</ele>
        <time>2022-03-09T14:53:11Z</time>
      </trkpt>
      <trkpt lat="46.70031" lon="5.52554">
        <ele>282.2</ele>
        <time>2022-03-09T14:53:12Z</time>
      </trkpt>
      <trkpt lat="46.7003" lon="5.52555">
        <ele>282.2</ele>
        <time>2022-03-09T14:53:13Z</time>
      </trkpt>
      <trkpt lat="46.7003" lon="5.52555">
        <ele>282.2</ele>
        <time>2022-03-09T14:53:14Z</time>
      </trkpt>
      <trkpt lat="46.7003" lon="5.52556">
        <ele>282.2</ele>
        <time>2022-03-09T14:53:15Z</time>
      </trkpt>
      <trkpt lat="46.7003" lon="5.52557">
        <ele>282.2</ele>
        <time>2022-03-09T14:53:16Z</time>
      </trkpt>
      <trkpt lat="46.7003" lon="5.52557">
        <ele>282.2</ele>
        <time>2022-03-09T14:53:17Z</time>
      </trkpt>
      <trkpt lat="46.7003" lon="5.52558">
        <ele>282.2</ele>
        <time>2022-03-09T14:53:18Z</time>
      </trkpt>
      <trkpt lat="46.7003" lon="5.52558">
        <ele>282</ele>
        <time>2022-03-09T14:53:34Z</time>
      </trkpt>
      <trkpt lat="46.7003" lon="5.52559">
        <ele>282</ele>
        <time>2022-03-09T14:53:35Z</time>
      </trkpt>
      <trkpt lat="46.70029" lon="5.52559">
        <ele>282</ele>
        <time>2022-03-09T14:53:36Z</time>
      </trkpt>
      <trkpt lat="46.70029" lon="5.5256">
        <ele>281.6</ele>
        <time>2022-03-09T14:53:37Z</time>
      </trkpt>
      <trkpt lat="46.70028" lon="5.52565">
        <ele>281.4</ele>
        <time>2022-03-09T14:53:38Z</time>
      </trkpt>
      <trkpt lat="46.70027" lon="5.52571">
        <ele>281</ele>
        <time>2022-03-09T14:53:39Z</time>
      </trkpt>
      <trkpt lat="46.70025" lon="5.52577">
        <ele>280.8</ele>
        <time>2022-03-09T14:53:40Z</time>
      </trkpt>
      <trkpt lat="46.70023" lon="5.52585">
        <ele>280.4</ele>
        <time>2022-03-09T14:53:41Z</time>
      </trkpt>
      <trkpt lat="46.70021" lon="5.52594">
        <ele>279.8</ele>
        <time>2022-03-09T14:53:42Z</time>
      </trkpt>
      <trkpt lat="46.7002" lon="5.52603">
        <ele>279.2</ele>
        <time>2022-03-09T14:53:43Z</time>
      </trkpt>
      <trkpt lat="46.70019" lon="5.52614">
        <ele>278.8</ele>
        <time>2022-03-09T14:53:44Z</time>
      </trkpt>
      <trkpt lat="46.70018" lon="5.52625">
        <ele>278.2</ele>
        <time>2022-03-09T14:53:45Z</time>
      </trkpt>
      <trkpt lat="46.70018" lon="5.52637">
        <ele>277.6</ele>
        <time>2022-03-09T14:53:46Z</time>
      </trkpt>
      <trkpt lat="46.70018" lon="5.52648">
        <ele>277</ele>
        <time>2022-03-09T14:53:47Z</time>
      </trkpt>
      <trkpt lat="46.70018" lon="5.5266">
        <ele>276.2</ele>
        <time>2022-03-09T14:53:48Z</time>
      </trkpt>
      <trkpt lat="46.70017" lon="5.52671">
        <ele>275.4</ele>
        <time>2022-03-09T14:53:49Z</time>
      </trkpt>
      <trkpt lat="46.70015" lon="5.52684">
        <ele>274.8</ele>
        <time>2022-03-09T14:53:50Z</time>
      </trkpt>
      <trkpt lat="46.70013" lon="5.52696">
        <ele>274</ele>
        <time>2022-03-09T14:53:51Z</time>
      </trkpt>
      <trkpt lat="46.7001" lon="5.52709">
        <ele>273.2</ele>
        <time>2022-03-09T14:53:52Z</time>
      </trkpt>
      <trkpt lat="46.70007" lon="5.5272">
        <ele>272.2</ele>
        <time>2022-03-09T14:53:53Z</time>
      </trkpt>
      <trkpt lat="46.70004" lon="5.52732">
        <ele>271.4</ele>
        <time>2022-03-09T14:53:54Z</time>
      </trkpt>
      <trkpt lat="46.70002" lon="5.52744">
        <ele>270.4</ele>
        <time>2022-03-09T14:53:55Z</time>
      </trkpt>
      <trkpt lat="46.7" lon="5.52755">
        <ele>269.6</ele>
        <time>2022-03-09T14:53:56Z</time>
      </trkpt>
      <trkpt lat="46.69998" lon="5.52766">
        <ele>268.8</ele>
        <time>2022-03-09T14:53:57Z</time>
      </trkpt>
      <trkpt lat="46.69996" lon="5.52776">
        <ele>268</ele>
        <time>2022-03-09T14:53:58Z</time>
      </trkpt>
      <trkpt lat="46.69995" lon="5.52785">
        <ele>267.2</ele>
        <time>2022-03-09T14:53:59Z</time>
      </trkpt>
      <trkpt lat="46.69996" lon="5.52796">
        <ele>266.4</ele>
        <time>2022-03-09T14:54:00Z</time>
      </trkpt>
      <trkpt lat="46.69998" lon="5.52807">
        <ele>265.8</ele>
        <time>2022-03-09T14:54:01Z</time>
      </trkpt>
      <trkpt lat="46.7" lon="5.52818">
        <ele>265</ele>
        <time>2022-03-09T14:54:02Z</time>
      </trkpt>
      <trkpt lat="46.70003" lon="5.52829">
        <ele>264.4</ele>
        <time>2022-03-09T14:54:03Z</time>
      </trkpt>
      <trkpt lat="46.70006" lon="5.5284">
        <ele>263.8</ele>
        <time>2022-03-09T14:54:04Z</time>
      </trkpt>
      <trkpt lat="46.70008" lon="5.52851">
        <ele>263.2</ele>
        <time>2022-03-09T14:54:05Z</time>
      </trkpt>
      <trkpt lat="46.70009" lon="5.52861">
        <ele>262.4</ele>
        <time>2022-03-09T14:54:06Z</time>
      </trkpt>
      <trkpt lat="46.70009" lon="5.5287">
        <ele>261.8</ele>
        <time>2022-03-09T14:54:07Z</time>
      </trkpt>
      <trkpt lat="46.70008" lon="5.52878">
        <ele>261.2</ele>
        <time>2022-03-09T14:54:08Z</time>
      </trkpt>
      <trkpt lat="46.70005" lon="5.52887">
        <ele>260.6</ele>
        <time>2022-03-09T14:54:09Z</time>
      </trkpt>
      <trkpt lat="46.70002" lon="5.52896">
        <ele>260</ele>
        <time>2022-03-09T14:54:10Z</time>
      </trkpt>
      <trkpt lat="46.69998" lon="5.52906">
        <ele>259.6</ele>
        <time>2022-03-09T14:54:11Z</time>
      </trkpt>
      <trkpt lat="46.69995" lon="5.52916">
        <ele>259.2</ele>
        <time>2022-03-09T14:54:12Z</time>
      </trkpt>
      <trkpt lat="46.69991" lon="5.52926">
        <ele>258.8</ele>
        <time>2022-03-09T14:54:13Z</time>
      </trkpt>
      <trkpt lat="46.69988" lon="5.52936">
        <ele>258.6</ele>
        <time>2022-03-09T14:54:14Z</time>
      </trkpt>
      <trkpt lat="46.69986" lon="5.52946">
        <ele>258.6</ele>
        <time>2022-03-09T14:54:15Z</time>
      </trkpt>
      <trkpt lat="46.69984" lon="5.52956">
        <ele>258.4</ele>
        <time>2022-03-09T14:54:16Z</time>
      </trkpt>
      <trkpt lat="46.69982" lon="5.52966">
        <ele>258.4</ele>
        <time>2022-03-09T14:54:17Z</time>
      </trkpt>
      <trkpt lat="46.6998" lon="5.52976">
        <ele>258</ele>
        <time>2022-03-09T14:54:18Z</time>
      </trkpt>
      <trkpt lat="46.69977" lon="5.52985">
        <ele>258</ele>
        <time>2022-03-09T14:54:19Z</time>
      </trkpt>
      <trkpt lat="46.69973" lon="5.52994">
        <ele>257.8</ele>
        <time>2022-03-09T14:54:20Z</time>
      </trkpt>
      <trkpt lat="46.69969" lon="5.53">
        <ele>257.6</ele>
        <time>2022-03-09T14:54:21Z</time>
      </trkpt>
      <trkpt lat="46.69964" lon="5.53005">
        <ele>257.6</ele>
        <time>2022-03-09T14:54:22Z</time>
      </trkpt>
      <trkpt lat="46.69959" lon="5.53008">
        <ele>257.6</ele>
        <time>2022-03-09T14:54:23Z</time>
      </trkpt>
      <trkpt lat="46.69953" lon="5.5301">
        <ele>257.6</ele>
        <time>2022-03-09T14:54:24Z</time>
      </trkpt>
      <trkpt lat="46.69947" lon="5.53012">
        <ele>257.2</ele>
        <time>2022-03-09T14:54:25Z</time>
      </trkpt>
      <trkpt lat="46.69941" lon="5.53014">
        <ele>257.2</ele>
        <time>2022-03-09T14:54:26Z</time>
      </trkpt>
      <trkpt lat="46.69935" lon="5.53016">
        <ele>257.2</ele>
        <time>2022-03-09T14:54:27Z</time>
      </trkpt>
      <trkpt lat="46.69929" lon="5.53019">
        <ele>257</ele>
        <time>2022-03-09T14:54:28Z</time>
      </trkpt>
      <trkpt lat="46.69924" lon="5.53024">
        <ele>257</ele>
        <time>2022-03-09T14:54:29Z</time>
      </trkpt>
      <trkpt lat="46.6992" lon="5.5303">
        <ele>256.8</ele>
        <time>2022-03-09T14:54:30Z</time>
      </trkpt>
      <trkpt lat="46.69916" lon="5.53037">
        <ele>256.8</ele>
        <time>2022-03-09T14:54:31Z</time>
      </trkpt>
      <trkpt lat="46.69913" lon="5.53045">
        <ele>256.8</ele>
        <time>2022-03-09T14:54:32Z</time>
      </trkpt>
      <trkpt lat="46.69911" lon="5.53053">
        <ele>256.6</ele>
        <time>2022-03-09T14:54:33Z</time>
      </trkpt>
      <trkpt lat="46.69909" lon="5.53061">
        <ele>256.6</ele>
        <time>2022-03-09T14:54:34Z</time>
      </trkpt>
      <trkpt lat="46.69908" lon="5.5307">
        <ele>256.6</ele>
        <time>2022-03-09T14:54:35Z</time>
      </trkpt>
      <trkpt lat="46.69906" lon="5.53078">
        <ele>256.2</ele>
        <time>2022-03-09T14:54:36Z</time>
      </trkpt>
      <trkpt lat="46.69904" lon="5.53086">
        <ele>256.2</ele>
        <time>2022-03-09T14:54:37Z</time>
      </trkpt>
      <trkpt lat="46.69902" lon="5.53094">
        <ele>256.2</ele>
        <time>2022-03-09T14:54:38Z</time>
      </trkpt>
      <trkpt lat="46.69899" lon="5.53101">
        <ele>256.2</ele>
        <time>2022-03-09T14:54:39Z</time>
      </trkpt>
      <trkpt lat="46.69897" lon="5.53109">
        <ele>256.2</ele>
        <time>2022-03-09T14:54:40Z</time>
      </trkpt>
      <trkpt lat="46.69894" lon="5.53116">
        <ele>256.2</ele>
        <time>2022-03-09T14:54:41Z</time>
      </trkpt>
      <trkpt lat="46.69892" lon="5.53123">
        <ele>256.2</ele>
        <time>2022-03-09T14:54:42Z</time>
      </trkpt>
      <trkpt lat="46.69892" lon="5.53131">
        <ele>256.2</ele>
        <time>2022-03-09T14:54:43Z</time>
      </trkpt>
      <trkpt lat="46.69893" lon="5.53138">
        <ele>256.2</ele>
        <time>2022-03-09T14:54:44Z</time>
      </trkpt>
      <trkpt lat="46.69895" lon="5.53144">
        <ele>256.2</ele>
        <time>2022-03-09T14:54:45Z</time>
      </trkpt>
      <trkpt lat="46.69899" lon="5.5315">
        <ele>256.2</ele>
        <time>2022-03-09T14:54:46Z</time>
      </trkpt>
      <trkpt lat="46.69903" lon="5.53155">
        <ele>256.4</ele>
        <time>2022-03-09T14:54:47Z</time>
      </trkpt>
      <trkpt lat="46.69907" lon="5.53161">
        <ele>256.4</ele>
        <time>2022-03-09T14:54:48Z</time>
      </trkpt>
      <trkpt lat="46.69911" lon="5.53167">
        <ele>256.4</ele>
        <time>2022-03-09T14:54:49Z</time>
      </trkpt>
      <trkpt lat="46.69916" lon="5.53173">
        <ele>256.4</ele>
        <time>2022-03-09T14:54:50Z</time>
      </trkpt>
      <trkpt lat="46.6992" lon="5.5318">
        <ele>256.4</ele>
        <time>2022-03-09T14:54:51Z</time>
      </trkpt>
      <trkpt lat="46.69925" lon="5.53187">
        <ele>256.2</ele>
        <time>2022-03-09T14:54:52Z</time>
      </trkpt>
      <trkpt lat="46.6993" lon="5.53194">
        <ele>256</ele>
        <time>2022-03-09T14:54:53Z</time>
      </trkpt>
      <trkpt lat="46.69935" lon="5.53201">
        <ele>255.6</ele>
        <time>2022-03-09T14:54:54Z</time>
      </trkpt>
      <trkpt lat="46.69941" lon="5.53208">
        <ele>255.2</ele>
        <time>2022-03-09T14:54:55Z</time>
      </trkpt>
      <trkpt lat="46.69946" lon="5.53216">
        <ele>255.2</ele>
        <time>2022-03-09T14:54:56Z</time>
      </trkpt>
      <trkpt lat="46.69952" lon="5.53223">
        <ele>255</ele>
        <time>2022-03-09T14:54:57Z</time>
      </trkpt>
      <trkpt lat="46.69957" lon="5.5323">
        <ele>255</ele>
        <time>2022-03-09T14:54:58Z</time>
      </trkpt>
      <trkpt lat="46.69961" lon="5.53237">
        <ele>254.4</ele>
        <time>2022-03-09T14:54:59Z</time>
      </trkpt>
      <trkpt lat="46.69966" lon="5.53243">
        <ele>254.2</ele>
        <time>2022-03-09T14:55:00Z</time>
      </trkpt>
      <trkpt lat="46.69971" lon="5.53247">
        <ele>254</ele>
        <time>2022-03-09T14:55:01Z</time>
      </trkpt>
      <trkpt lat="46.69976" lon="5.53248">
        <ele>254</ele>
        <time>2022-03-09T14:55:02Z</time>
      </trkpt>
      <trkpt lat="46.69981" lon="5.53247">
        <ele>253.6</ele>
        <time>2022-03-09T14:55:03Z</time>
      </trkpt>
      <trkpt lat="46.69986" lon="5.53243">
        <ele>253.6</ele>
        <time>2022-03-09T14:55:04Z</time>
      </trkpt>
      <trkpt lat="46.69991" lon="5.53238">
        <ele>253.4</ele>
        <time>2022-03-09T14:55:05Z</time>
      </trkpt>
      <trkpt lat="46.69995" lon="5.53232">
        <ele>253.4</ele>
        <time>2022-03-09T14:55:06Z</time>
      </trkpt>
      <trkpt lat="46.69999" lon="5.53226">
        <ele>253.4</ele>
        <time>2022-03-09T14:55:07Z</time>
      </trkpt>
      <trkpt lat="46.70004" lon="5.5322">
        <ele>253.2</ele>
        <time>2022-03-09T14:55:08Z</time>
      </trkpt>
      <trkpt lat="46.70008" lon="5.53214">
        <ele>253.2</ele>
        <time>2022-03-09T14:55:09Z</time>
      </trkpt>
      <trkpt lat="46.70013" lon="5.53208">
        <ele>253.2</ele>
        <time>2022-03-09T14:55:10Z</time>
      </trkpt>
      <trkpt lat="46.70018" lon="5.53203">
        <ele>253.2</ele>
        <time>2022-03-09T14:55:11Z</time>
      </trkpt>
      <trkpt lat="46.70023" lon="5.53197">
        <ele>253.2</ele>
        <time>2022-03-09T14:55:12Z</time>
      </trkpt>
      <trkpt lat="46.70027" lon="5.53191">
        <ele>253.2</ele>
        <time>2022-03-09T14:55:13Z</time>
      </trkpt>
      <trkpt lat="46.70033" lon="5.53185">
        <ele>253.2</ele>
        <time>2022-03-09T14:55:14Z</time>
      </trkpt>
      <trkpt lat="46.70038" lon="5.53179">
        <ele>253.2</ele>
        <time>2022-03-09T14:55:15Z</time>
      </trkpt>
      <trkpt lat="46.70043" lon="5.53173">
        <ele>253.2</ele>
        <time>2022-03-09T14:55:16Z</time>
      </trkpt>
      <trkpt lat="46.70048" lon="5.53167">
        <ele>253.2</ele>
        <time>2022-03-09T14:55:17Z</time>
      </trkpt>
      <trkpt lat="46.70053" lon="5.53161">
        <ele>253.2</ele>
        <time>2022-03-09T14:55:18Z</time>
      </trkpt>
      <trkpt lat="46.70059" lon="5.53155">
        <ele>253.2</ele>
        <time>2022-03-09T14:55:19Z</time>
      </trkpt>
      <trkpt lat="46.70064" lon="5.53149">
        <ele>253.2</ele>
        <time>2022-03-09T14:55:20Z</time>
      </trkpt>
      <trkpt lat="46.70069" lon="5.53143">
        <ele>253.2</ele>
        <time>2022-03-09T14:55:21Z</time>
      </trkpt>
      <trkpt lat="46.70074" lon="5.53137">
        <ele>253.2</ele>
        <time>2022-03-09T14:55:22Z</time>
      </trkpt>
      <trkpt lat="46.70079" lon="5.53132">
        <ele>253.2</ele>
        <time>2022-03-09T14:55:23Z</time>
      </trkpt>
      <trkpt lat="46.70084" lon="5.53126">
        <ele>253.2</ele>
        <time>2022-03-09T14:55:24Z</time>
      </trkpt>
      <trkpt lat="46.7009" lon="5.5312">
        <ele>253.2</ele>
        <time>2022-03-09T14:55:25Z</time>
      </trkpt>
      <trkpt lat="46.70095" lon="5.53114">
        <ele>253.2</ele>
        <time>2022-03-09T14:55:26Z</time>
      </trkpt>
      <trkpt lat="46.701" lon="5.53108">
        <ele>253.4</ele>
        <time>2022-03-09T14:55:27Z</time>
      </trkpt>
      <trkpt lat="46.70105" lon="5.53103">
        <ele>253.4</ele>
        <time>2022-03-09T14:55:28Z</time>
      </trkpt>
      <trkpt lat="46.7011" lon="5.53097">
        <ele>253.4</ele>
        <time>2022-03-09T14:55:29Z</time>
      </trkpt>
      <trkpt lat="46.70115" lon="5.53091">
        <ele>253.4</ele>
        <time>2022-03-09T14:55:30Z</time>
      </trkpt>
      <trkpt lat="46.7012" lon="5.53085">
        <ele>253.4</ele>
        <time>2022-03-09T14:55:31Z</time>
      </trkpt>
      <trkpt lat="46.70125" lon="5.53079">
        <ele>253.4</ele>
        <time>2022-03-09T14:55:32Z</time>
      </trkpt>
      <trkpt lat="46.70131" lon="5.53073">
        <ele>253.4</ele>
        <time>2022-03-09T14:55:33Z</time>
      </trkpt>
      <trkpt lat="46.70136" lon="5.53067">
        <ele>253.2</ele>
        <time>2022-03-09T14:55:34Z</time>
      </trkpt>
      <trkpt lat="46.70141" lon="5.5306">
        <ele>253.2</ele>
        <time>2022-03-09T14:55:35Z</time>
      </trkpt>
      <trkpt lat="46.70147" lon="5.53054">
        <ele>253</ele>
        <time>2022-03-09T14:55:36Z</time>
      </trkpt>
      <trkpt lat="46.70153" lon="5.53047">
        <ele>253</ele>
        <time>2022-03-09T14:55:37Z</time>
      </trkpt>
      <trkpt lat="46.70159" lon="5.53041">
        <ele>252.6</ele>
        <time>2022-03-09T14:55:38Z</time>
      </trkpt>
      <trkpt lat="46.70164" lon="5.53035">
        <ele>252.6</ele>
        <time>2022-03-09T14:55:39Z</time>
      </trkpt>
      <trkpt lat="46.7017" lon="5.53028">
        <ele>252.2</ele>
        <time>2022-03-09T14:55:40Z</time>
      </trkpt>
      <trkpt lat="46.70176" lon="5.53021">
        <ele>252.2</ele>
        <time>2022-03-09T14:55:41Z</time>
      </trkpt>
      <trkpt lat="46.70182" lon="5.53014">
        <ele>252</ele>
        <time>2022-03-09T14:55:42Z</time>
      </trkpt>
      <trkpt lat="46.70188" lon="5.53008">
        <ele>252</ele>
        <time>2022-03-09T14:55:43Z</time>
      </trkpt>
      <trkpt lat="46.70194" lon="5.53">
        <ele>251.8</ele>
        <time>2022-03-09T14:55:44Z</time>
      </trkpt>
      <trkpt lat="46.702" lon="5.52993">
        <ele>251.4</ele>
        <time>2022-03-09T14:55:45Z</time>
      </trkpt>
      <trkpt lat="46.70206" lon="5.52987">
        <ele>251.2</ele>
        <time>2022-03-09T14:55:46Z</time>
      </trkpt>
      <trkpt lat="46.70213" lon="5.52981">
        <ele>251.2</ele>
        <time>2022-03-09T14:55:47Z</time>
      </trkpt>
      <trkpt lat="46.7022" lon="5.52977">
        <ele>251</ele>
        <time>2022-03-09T14:55:48Z</time>
      </trkpt>
      <trkpt lat="46.70228" lon="5.52975">
        <ele>251</ele>
        <time>2022-03-09T14:55:49Z</time>
      </trkpt>
      <trkpt lat="46.70236" lon="5.52974">
        <ele>251</ele>
        <time>2022-03-09T14:55:50Z</time>
      </trkpt>
      <trkpt lat="46.70244" lon="5.52974">
        <ele>250.6</ele>
        <time>2022-03-09T14:55:51Z</time>
      </trkpt>
      <trkpt lat="46.70252" lon="5.52974">
        <ele>250.6</ele>
        <time>2022-03-09T14:55:52Z</time>
      </trkpt>
      <trkpt lat="46.70259" lon="5.52974">
        <ele>250.6</ele>
        <time>2022-03-09T14:55:53Z</time>
      </trkpt>
      <trkpt lat="46.70267" lon="5.52974">
        <ele>250.6</ele>
        <time>2022-03-09T14:55:54Z</time>
      </trkpt>
      <trkpt lat="46.70275" lon="5.52973">
        <ele>250.6</ele>
        <time>2022-03-09T14:55:55Z</time>
      </trkpt>
      <trkpt lat="46.70282" lon="5.52973">
        <ele>250.6</ele>
        <time>2022-03-09T14:55:56Z</time>
      </trkpt>
      <trkpt lat="46.70289" lon="5.52973">
        <ele>250.6</ele>
        <time>2022-03-09T14:55:57Z</time>
      </trkpt>
      <trkpt lat="46.70296" lon="5.52973">
        <ele>250.6</ele>
        <time>2022-03-09T14:55:58Z</time>
      </trkpt>
      <trkpt lat="46.70302" lon="5.52973">
        <ele>251</ele>
        <time>2022-03-09T14:55:59Z</time>
      </trkpt>
      <trkpt lat="46.70309" lon="5.52973">
        <ele>251</ele>
        <time>2022-03-09T14:56:00Z</time>
      </trkpt>
      <trkpt lat="46.70315" lon="5.52972">
        <ele>251.2</ele>
        <time>2022-03-09T14:56:01Z</time>
      </trkpt>
      <trkpt lat="46.70321" lon="5.52972">
        <ele>251.2</ele>
        <time>2022-03-09T14:56:02Z</time>
      </trkpt>
      <trkpt lat="46.70326" lon="5.52971">
        <ele>251.6</ele>
        <time>2022-03-09T14:56:03Z</time>
      </trkpt>
      <trkpt lat="46.70332" lon="5.5297">
        <ele>252</ele>
        <time>2022-03-09T14:56:04Z</time>
      </trkpt>
      <trkpt lat="46.70338" lon="5.52969">
        <ele>252</ele>
        <time>2022-03-09T14:56:05Z</time>
      </trkpt>
      <trkpt lat="46.70344" lon="5.52967">
        <ele>252.4</ele>
        <time>2022-03-09T14:56:06Z</time>
      </trkpt>
      <trkpt lat="46.70349" lon="5.52966">
        <ele>252.4</ele>
        <time>2022-03-09T14:56:07Z</time>
      </trkpt>
      <trkpt lat="46.70355" lon="5.52964">
        <ele>252.6</ele>
        <time>2022-03-09T14:56:08Z</time>
      </trkpt>
      <trkpt lat="46.7036" lon="5.52962">
        <ele>252.6</ele>
        <time>2022-03-09T14:56:09Z</time>
      </trkpt>
      <trkpt lat="46.70366" lon="5.52959">
        <ele>253</ele>
        <time>2022-03-09T14:56:10Z</time>
      </trkpt>
      <trkpt lat="46.70371" lon="5.52957">
        <ele>253</ele>
        <time>2022-03-09T14:56:11Z</time>
      </trkpt>
      <trkpt lat="46.70376" lon="5.52955">
        <ele>253.2</ele>
        <time>2022-03-09T14:56:12Z</time>
      </trkpt>
      <trkpt lat="46.70381" lon="5.52952">
        <ele>253.6</ele>
        <time>2022-03-09T14:56:13Z</time>
      </trkpt>
      <trkpt lat="46.70386" lon="5.52949">
        <ele>253.6</ele>
        <time>2022-03-09T14:56:14Z</time>
      </trkpt>
      <trkpt lat="46.7039" lon="5.52946">
        <ele>254</ele>
        <time>2022-03-09T14:56:15Z</time>
      </trkpt>
      <trkpt lat="46.70395" lon="5.52943">
        <ele>254</ele>
        <time>2022-03-09T14:56:16Z</time>
      </trkpt>
      <trkpt lat="46.704" lon="5.5294">
        <ele>254.2</ele>
        <time>2022-03-09T14:56:17Z</time>
      </trkpt>
      <trkpt lat="46.70405" lon="5.52937">
        <ele>254.2</ele>
        <time>2022-03-09T14:56:18Z</time>
      </trkpt>
      <trkpt lat="46.7041" lon="5.52933">
        <ele>254.4</ele>
        <time>2022-03-09T14:56:19Z</time>
      </trkpt>
      <trkpt lat="46.70415" lon="5.5293">
        <ele>254.4</ele>
        <time>2022-03-09T14:56:20Z</time>
      </trkpt>
      <trkpt lat="46.7042" lon="5.52926">
        <ele>254.4</ele>
        <time>2022-03-09T14:56:21Z</time>
      </trkpt>
      <trkpt lat="46.70425" lon="5.52922">
        <ele>254.4</ele>
        <time>2022-03-09T14:56:22Z</time>
      </trkpt>
      <trkpt lat="46.70431" lon="5.52919">
        <ele>254.4</ele>
        <time>2022-03-09T14:56:23Z</time>
      </trkpt>
      <trkpt lat="46.70437" lon="5.52915">
        <ele>254.4</ele>
        <time>2022-03-09T14:56:24Z</time>
      </trkpt>
      <trkpt lat="46.70443" lon="5.52912">
        <ele>254.4</ele>
        <time>2022-03-09T14:56:25Z</time>
      </trkpt>
      <trkpt lat="46.7045" lon="5.5291">
        <ele>254.4</ele>
        <time>2022-03-09T14:56:26Z</time>
      </trkpt>
      <trkpt lat="46.70457" lon="5.52908">
        <ele>254.4</ele>
        <time>2022-03-09T14:56:27Z</time>
      </trkpt>
      <trkpt lat="46.70464" lon="5.52906">
        <ele>254.2</ele>
        <time>2022-03-09T14:56:28Z</time>
      </trkpt>
      <trkpt lat="46.70471" lon="5.52904">
        <ele>254</ele>
        <time>2022-03-09T14:56:29Z</time>
      </trkpt>
      <trkpt lat="46.70478" lon="5.52903">
        <ele>254</ele>
        <time>2022-03-09T14:56:30Z</time>
      </trkpt>
      <trkpt lat="46.70486" lon="5.52901">
        <ele>253.8</ele>
        <time>2022-03-09T14:56:31Z</time>
      </trkpt>
      <trkpt lat="46.70494" lon="5.52899">
        <ele>253.4</ele>
        <time>2022-03-09T14:56:32Z</time>
      </trkpt>
      <trkpt lat="46.70501" lon="5.52898">
        <ele>253.4</ele>
        <time>2022-03-09T14:56:33Z</time>
      </trkpt>
      <trkpt lat="46.70509" lon="5.52897">
        <ele>253.2</ele>
        <time>2022-03-09T14:56:34Z</time>
      </trkpt>
      <trkpt lat="46.70517" lon="5.52895">
        <ele>253</ele>
        <time>2022-03-09T14:56:35Z</time>
      </trkpt>
      <trkpt lat="46.70525" lon="5.52894">
        <ele>252.8</ele>
        <time>2022-03-09T14:56:36Z</time>
      </trkpt>
      <trkpt lat="46.70534" lon="5.52892">
        <ele>252.6</ele>
        <time>2022-03-09T14:56:37Z</time>
      </trkpt>
      <trkpt lat="46.70542" lon="5.52891">
        <ele>252.4</ele>
        <time>2022-03-09T14:56:38Z</time>
      </trkpt>
      <trkpt lat="46.70549" lon="5.52888">
        <ele>252</ele>
        <time>2022-03-09T14:56:39Z</time>
      </trkpt>
      <trkpt lat="46.70557" lon="5.52885">
        <ele>251.8</ele>
        <time>2022-03-09T14:56:40Z</time>
      </trkpt>
      <trkpt lat="46.70565" lon="5.52881">
        <ele>251.4</ele>
        <time>2022-03-09T14:56:41Z</time>
      </trkpt>
      <trkpt lat="46.70573" lon="5.52877">
        <ele>251.2</ele>
        <time>2022-03-09T14:56:42Z</time>
      </trkpt>
      <trkpt lat="46.70581" lon="5.52872">
        <ele>250.8</ele>
        <time>2022-03-09T14:56:43Z</time>
      </trkpt>
      <trkpt lat="46.70589" lon="5.52866">
        <ele>250.4</ele>
        <time>2022-03-09T14:56:44Z</time>
      </trkpt>
      <trkpt lat="46.70596" lon="5.5286">
        <ele>250</ele>
        <time>2022-03-09T14:56:45Z</time>
      </trkpt>
      <trkpt lat="46.70603" lon="5.52852">
        <ele>249.8</ele>
        <time>2022-03-09T14:56:46Z</time>
      </trkpt>
      <trkpt lat="46.70611" lon="5.52844">
        <ele>249.4</ele>
        <time>2022-03-09T14:56:47Z</time>
      </trkpt>
      <trkpt lat="46.70617" lon="5.52836">
        <ele>249.2</ele>
        <time>2022-03-09T14:56:48Z</time>
      </trkpt>
      <trkpt lat="46.70624" lon="5.52828">
        <ele>249.2</ele>
        <time>2022-03-09T14:56:49Z</time>
      </trkpt>
      <trkpt lat="46.70631" lon="5.52819">
        <ele>248.8</ele>
        <time>2022-03-09T14:56:50Z</time>
      </trkpt>
      <trkpt lat="46.70637" lon="5.52811">
        <ele>248.8</ele>
        <time>2022-03-09T14:56:51Z</time>
      </trkpt>
      <trkpt lat="46.70644" lon="5.52803">
        <ele>248.8</ele>
        <time>2022-03-09T14:56:52Z</time>
      </trkpt>
      <trkpt lat="46.7065" lon="5.52795">
        <ele>248.8</ele>
        <time>2022-03-09T14:56:53Z</time>
      </trkpt>
      <trkpt lat="46.70656" lon="5.52787">
        <ele>248.8</ele>
        <time>2022-03-09T14:56:54Z</time>
      </trkpt>
      <trkpt lat="46.70662" lon="5.5278">
        <ele>248.8</ele>
        <time>2022-03-09T14:56:55Z</time>
      </trkpt>
      <trkpt lat="46.70668" lon="5.52772">
        <ele>248.8</ele>
        <time>2022-03-09T14:56:56Z</time>
      </trkpt>
      <trkpt lat="46.70673" lon="5.52765">
        <ele>248.8</ele>
        <time>2022-03-09T14:56:57Z</time>
      </trkpt>
      <trkpt lat="46.70679" lon="5.52758">
        <ele>248.8</ele>
        <time>2022-03-09T14:56:58Z</time>
      </trkpt>
      <trkpt lat="46.70684" lon="5.52751">
        <ele>249.2</ele>
        <time>2022-03-09T14:56:59Z</time>
      </trkpt>
      <trkpt lat="46.70689" lon="5.52744">
        <ele>249.4</ele>
        <time>2022-03-09T14:57:00Z</time>
      </trkpt>
      <trkpt lat="46.70694" lon="5.52738">
        <ele>249.6</ele>
        <time>2022-03-09T14:57:01Z</time>
      </trkpt>
      <trkpt lat="46.70699" lon="5.52733">
        <ele>250</ele>
        <time>2022-03-09T14:57:02Z</time>
      </trkpt>
      <trkpt lat="46.70703" lon="5.52727">
        <ele>250.2</ele>
        <time>2022-03-09T14:57:03Z</time>
      </trkpt>
      <trkpt lat="46.70708" lon="5.52721">
        <ele>250.6</ele>
        <time>2022-03-09T14:57:04Z</time>
      </trkpt>
      <trkpt lat="46.70712" lon="5.52716">
        <ele>250.8</ele>
        <time>2022-03-09T14:57:05Z</time>
      </trkpt>
      <trkpt lat="46.70716" lon="5.52712">
        <ele>251.2</ele>
        <time>2022-03-09T14:57:06Z</time>
      </trkpt>
      <trkpt lat="46.70719" lon="5.52707">
        <ele>251.4</ele>
        <time>2022-03-09T14:57:07Z</time>
      </trkpt>
      <trkpt lat="46.70723" lon="5.52703">
        <ele>251.4</ele>
        <time>2022-03-09T14:57:08Z</time>
      </trkpt>
      <trkpt lat="46.70726" lon="5.52698">
        <ele>251.6</ele>
        <time>2022-03-09T14:57:09Z</time>
      </trkpt>
      <trkpt lat="46.7073" lon="5.52694">
        <ele>251.6</ele>
        <time>2022-03-09T14:57:10Z</time>
      </trkpt>
      <trkpt lat="46.70733" lon="5.5269">
        <ele>252</ele>
        <time>2022-03-09T14:57:11Z</time>
      </trkpt>
      <trkpt lat="46.70736" lon="5.52687">
        <ele>252</ele>
        <time>2022-03-09T14:57:12Z</time>
      </trkpt>
      <trkpt lat="46.70739" lon="5.52683">
        <ele>252.2</ele>
        <time>2022-03-09T14:57:13Z</time>
      </trkpt>
      <trkpt lat="46.70742" lon="5.52679">
        <ele>252.2</ele>
        <time>2022-03-09T14:57:14Z</time>
      </trkpt>
      <trkpt lat="46.70745" lon="5.52675">
        <ele>252.6</ele>
        <time>2022-03-09T14:57:15Z</time>
      </trkpt>
      <trkpt lat="46.70748" lon="5.52671">
        <ele>252.6</ele>
        <time>2022-03-09T14:57:16Z</time>
      </trkpt>
      <trkpt lat="46.70751" lon="5.52668">
        <ele>253</ele>
        <time>2022-03-09T14:57:17Z</time>
      </trkpt>
      <trkpt lat="46.70754" lon="5.52665">
        <ele>253.2</ele>
        <time>2022-03-09T14:57:18Z</time>
      </trkpt>
      <trkpt lat="46.70757" lon="5.52661">
        <ele>253.4</ele>
        <time>2022-03-09T14:57:19Z</time>
      </trkpt>
      <trkpt lat="46.7076" lon="5.52657">
        <ele>253.4</ele>
        <time>2022-03-09T14:57:20Z</time>
      </trkpt>
      <trkpt lat="46.70762" lon="5.52654">
        <ele>254</ele>
        <time>2022-03-09T14:57:21Z</time>
      </trkpt>
      <trkpt lat="46.70765" lon="5.5265">
        <ele>254.2</ele>
        <time>2022-03-09T14:57:22Z</time>
      </trkpt>
      <trkpt lat="46.70768" lon="5.52647">
        <ele>254.4</ele>
        <time>2022-03-09T14:57:23Z</time>
      </trkpt>
      <trkpt lat="46.7077" lon="5.52644">
        <ele>254.4</ele>
        <time>2022-03-09T14:57:24Z</time>
      </trkpt>
      <trkpt lat="46.70773" lon="5.52641">
        <ele>254.8</ele>
        <time>2022-03-09T14:57:25Z</time>
      </trkpt>
      <trkpt lat="46.70776" lon="5.52638">
        <ele>255</ele>
        <time>2022-03-09T14:57:26Z</time>
      </trkpt>
      <trkpt lat="46.70779" lon="5.52634">
        <ele>255.2</ele>
        <time>2022-03-09T14:57:27Z</time>
      </trkpt>
      <trkpt lat="46.70782" lon="5.52631">
        <ele>255.4</ele>
        <time>2022-03-09T14:57:28Z</time>
      </trkpt>
      <trkpt lat="46.70784" lon="5.52627">
        <ele>255.8</ele>
        <time>2022-03-09T14:57:29Z</time>
      </trkpt>
      <trkpt lat="46.70784" lon="5.52627">
        <ele>256</ele>
        <time>2022-03-09T14:57:30Z</time>
      </trkpt>
      <trkpt lat="46.70787" lon="5.52624">
        <ele>256.2</ele>
        <time>2022-03-09T14:57:31Z</time>
      </trkpt>
      <trkpt lat="46.70789" lon="5.5262">
        <ele>256.4</ele>
        <time>2022-03-09T14:57:32Z</time>
      </trkpt>
      <trkpt lat="46.70792" lon="5.52617">
        <ele>256.6</ele>
        <time>2022-03-09T14:57:33Z</time>
      </trkpt>
      <trkpt lat="46.70794" lon="5.52613">
        <ele>257</ele>
        <time>2022-03-09T14:57:34Z</time>
      </trkpt>
      <trkpt lat="46.70797" lon="5.52611">
        <ele>257.4</ele>
        <time>2022-03-09T14:57:35Z</time>
      </trkpt>
      <trkpt lat="46.708" lon="5.52608">
        <ele>257.4</ele>
        <time>2022-03-09T14:57:36Z</time>
      </trkpt>
      <trkpt lat="46.70802" lon="5.52605">
        <ele>257.8</ele>
        <time>2022-03-09T14:57:37Z</time>
      </trkpt>
      <trkpt lat="46.70804" lon="5.52603">
        <ele>258.2</ele>
        <time>2022-03-09T14:57:38Z</time>
      </trkpt>
      <trkpt lat="46.70806" lon="5.526">
        <ele>258.4</ele>
        <time>2022-03-09T14:57:39Z</time>
      </trkpt>
      <trkpt lat="46.70809" lon="5.52598">
        <ele>258.8</ele>
        <time>2022-03-09T14:57:40Z</time>
      </trkpt>
      <trkpt lat="46.70812" lon="5.52595">
        <ele>259.2</ele>
        <time>2022-03-09T14:57:41Z</time>
      </trkpt>
      <trkpt lat="46.70814" lon="5.52592">
        <ele>259.4</ele>
        <time>2022-03-09T14:57:42Z</time>
      </trkpt>
      <trkpt lat="46.70817" lon="5.52588">
        <ele>259.8</ele>
        <time>2022-03-09T14:57:43Z</time>
      </trkpt>
      <trkpt lat="46.70819" lon="5.52585">
        <ele>260</ele>
        <time>2022-03-09T14:57:44Z</time>
      </trkpt>
      <trkpt lat="46.70822" lon="5.52582">
        <ele>260.2</ele>
        <time>2022-03-09T14:57:45Z</time>
      </trkpt>
      <trkpt lat="46.70824" lon="5.52579">
        <ele>260.6</ele>
        <time>2022-03-09T14:57:46Z</time>
      </trkpt>
      <trkpt lat="46.70827" lon="5.52577">
        <ele>261</ele>
        <time>2022-03-09T14:57:47Z</time>
      </trkpt>
      <trkpt lat="46.7083" lon="5.52574">
        <ele>261.4</ele>
        <time>2022-03-09T14:57:48Z</time>
      </trkpt>
      <trkpt lat="46.70832" lon="5.52572">
        <ele>261.6</ele>
        <time>2022-03-09T14:57:49Z</time>
      </trkpt>
      <trkpt lat="46.70835" lon="5.5257">
        <ele>262</ele>
        <time>2022-03-09T14:57:50Z</time>
      </trkpt>
      <trkpt lat="46.70838" lon="5.52567">
        <ele>262.2</ele>
        <time>2022-03-09T14:57:51Z</time>
      </trkpt>
      <trkpt lat="46.7084" lon="5.52565">
        <ele>262.4</ele>
        <time>2022-03-09T14:57:52Z</time>
      </trkpt>
      <trkpt lat="46.70842" lon="5.52563">
        <ele>262.6</ele>
        <time>2022-03-09T14:57:53Z</time>
      </trkpt>
      <trkpt lat="46.70845" lon="5.5256">
        <ele>263</ele>
        <time>2022-03-09T14:57:54Z</time>
      </trkpt>
      <trkpt lat="46.70847" lon="5.52559">
        <ele>263.2</ele>
        <time>2022-03-09T14:57:55Z</time>
      </trkpt>
      <trkpt lat="46.7085" lon="5.52557">
        <ele>263.2</ele>
        <time>2022-03-09T14:57:56Z</time>
      </trkpt>
      <trkpt lat="46.70852" lon="5.52555">
        <ele>263.6</ele>
        <time>2022-03-09T14:57:57Z</time>
      </trkpt>
      <trkpt lat="46.70855" lon="5.52554">
        <ele>263.6</ele>
        <time>2022-03-09T14:57:58Z</time>
      </trkpt>
      <trkpt lat="46.70857" lon="5.52553">
        <ele>263.8</ele>
        <time>2022-03-09T14:57:59Z</time>
      </trkpt>
      <trkpt lat="46.70861" lon="5.52552">
        <ele>263.8</ele>
        <time>2022-03-09T14:58:00Z</time>
      </trkpt>
      <trkpt lat="46.70864" lon="5.52551">
        <ele>264.2</ele>
        <time>2022-03-09T14:58:01Z</time>
      </trkpt>
      <trkpt lat="46.7087" lon="5.52549">
        <ele>264.2</ele>
        <time>2022-03-09T14:58:02Z</time>
      </trkpt>
      <trkpt lat="46.70873" lon="5.52548">
        <ele>264.6</ele>
        <time>2022-03-09T14:58:03Z</time>
      </trkpt>
      <trkpt lat="46.70876" lon="5.52547">
        <ele>264.6</ele>
        <time>2022-03-09T14:58:04Z</time>
      </trkpt>
      <trkpt lat="46.70879" lon="5.52545">
        <ele>265.2</ele>
        <time>2022-03-09T14:58:05Z</time>
      </trkpt>
      <trkpt lat="46.70882" lon="5.52544">
        <ele>265.2</ele>
        <time>2022-03-09T14:58:06Z</time>
      </trkpt>
      <trkpt lat="46.70886" lon="5.52544">
        <ele>265.4</ele>
        <time>2022-03-09T14:58:07Z</time>
      </trkpt>
      <trkpt lat="46.70889" lon="5.52543">
        <ele>265.6</ele>
        <time>2022-03-09T14:58:08Z</time>
      </trkpt>
      <trkpt lat="46.70892" lon="5.52542">
        <ele>265.6</ele>
        <time>2022-03-09T14:58:09Z</time>
      </trkpt>
      <trkpt lat="46.70895" lon="5.52541">
        <ele>265.8</ele>
        <time>2022-03-09T14:58:10Z</time>
      </trkpt>
      <trkpt lat="46.70899" lon="5.5254">
        <ele>265.8</ele>
        <time>2022-03-09T14:58:11Z</time>
      </trkpt>
      <trkpt lat="46.70902" lon="5.52539">
        <ele>265.8</ele>
        <time>2022-03-09T14:58:12Z</time>
      </trkpt>
      <trkpt lat="46.70906" lon="5.52537">
        <ele>266.2</ele>
        <time>2022-03-09T14:58:13Z</time>
      </trkpt>
      <trkpt lat="46.7091" lon="5.52536">
        <ele>266.2</ele>
        <time>2022-03-09T14:58:14Z</time>
      </trkpt>
      <trkpt lat="46.70913" lon="5.52535">
        <ele>266.2</ele>
        <time>2022-03-09T14:58:15Z</time>
      </trkpt>
      <trkpt lat="46.70917" lon="5.52533">
        <ele>266.4</ele>
        <time>2022-03-09T14:58:16Z</time>
      </trkpt>
      <trkpt lat="46.70921" lon="5.52532">
        <ele>266.4</ele>
        <time>2022-03-09T14:58:17Z</time>
      </trkpt>
      <trkpt lat="46.70924" lon="5.5253">
        <ele>266.4</ele>
        <time>2022-03-09T14:58:18Z</time>
      </trkpt>
      <trkpt lat="46.70928" lon="5.52528">
        <ele>266.6</ele>
        <time>2022-03-09T14:58:19Z</time>
      </trkpt>
      <trkpt lat="46.70931" lon="5.52527">
        <ele>266.6</ele>
        <time>2022-03-09T14:58:20Z</time>
      </trkpt>
      <trkpt lat="46.70935" lon="5.52525">
        <ele>266.6</ele>
        <time>2022-03-09T14:58:21Z</time>
      </trkpt>
      <trkpt lat="46.70938" lon="5.52522">
        <ele>266.8</ele>
        <time>2022-03-09T14:58:22Z</time>
      </trkpt>
      <trkpt lat="46.70941" lon="5.5252">
        <ele>267.2</ele>
        <time>2022-03-09T14:58:23Z</time>
      </trkpt>
      <trkpt lat="46.70944" lon="5.52517">
        <ele>267.2</ele>
        <time>2022-03-09T14:58:24Z</time>
      </trkpt>
      <trkpt lat="46.70947" lon="5.52515">
        <ele>267.4</ele>
        <time>2022-03-09T14:58:25Z</time>
      </trkpt>
      <trkpt lat="46.7095" lon="5.52512">
        <ele>267.4</ele>
        <time>2022-03-09T14:58:26Z</time>
      </trkpt>
      <trkpt lat="46.70953" lon="5.52509">
        <ele>267.4</ele>
        <time>2022-03-09T14:58:27Z</time>
      </trkpt>
      <trkpt lat="46.70956" lon="5.52506">
        <ele>267.4</ele>
        <time>2022-03-09T14:58:28Z</time>
      </trkpt>
      <trkpt lat="46.70959" lon="5.52503">
        <ele>267.8</ele>
        <time>2022-03-09T14:58:29Z</time>
      </trkpt>
      <trkpt lat="46.70962" lon="5.525">
        <ele>267.8</ele>
        <time>2022-03-09T14:58:30Z</time>
      </trkpt>
      <trkpt lat="46.70965" lon="5.52497">
        <ele>268</ele>
        <time>2022-03-09T14:58:31Z</time>
      </trkpt>
      <trkpt lat="46.70967" lon="5.52494">
        <ele>268.2</ele>
        <time>2022-03-09T14:58:32Z</time>
      </trkpt>
      <trkpt lat="46.7097" lon="5.5249">
        <ele>268.2</ele>
        <time>2022-03-09T14:58:33Z</time>
      </trkpt>
      <trkpt lat="46.70972" lon="5.52487">
        <ele>268.6</ele>
        <time>2022-03-09T14:58:34Z</time>
      </trkpt>
      <trkpt lat="46.70974" lon="5.52484">
        <ele>268.6</ele>
        <time>2022-03-09T14:58:35Z</time>
      </trkpt>
      <trkpt lat="46.70976" lon="5.5248">
        <ele>268.8</ele>
        <time>2022-03-09T14:58:36Z</time>
      </trkpt>
      <trkpt lat="46.70977" lon="5.52476">
        <ele>269</ele>
        <time>2022-03-09T14:58:37Z</time>
      </trkpt>
      <trkpt lat="46.70979" lon="5.52473">
        <ele>269.2</ele>
        <time>2022-03-09T14:58:38Z</time>
      </trkpt>
      <trkpt lat="46.70981" lon="5.52468">
        <ele>269.6</ele>
        <time>2022-03-09T14:58:39Z</time>
      </trkpt>
      <trkpt lat="46.70982" lon="5.52464">
        <ele>269.6</ele>
        <time>2022-03-09T14:58:40Z</time>
      </trkpt>
      <trkpt lat="46.70983" lon="5.5246">
        <ele>270</ele>
        <time>2022-03-09T14:58:41Z</time>
      </trkpt>
      <trkpt lat="46.70984" lon="5.52456">
        <ele>270</ele>
        <time>2022-03-09T14:58:42Z</time>
      </trkpt>
      <trkpt lat="46.70985" lon="5.52451">
        <ele>270.4</ele>
        <time>2022-03-09T14:58:43Z</time>
      </trkpt>
      <trkpt lat="46.70986" lon="5.52447">
        <ele>270.6</ele>
        <time>2022-03-09T14:58:44Z</time>
      </trkpt>
      <trkpt lat="46.70987" lon="5.52443">
        <ele>270.8</ele>
        <time>2022-03-09T14:58:45Z</time>
      </trkpt>
      <trkpt lat="46.70987" lon="5.52439">
        <ele>271</ele>
        <time>2022-03-09T14:58:46Z</time>
      </trkpt>
      <trkpt lat="46.70988" lon="5.52434">
        <ele>271.2</ele>
        <time>2022-03-09T14:58:47Z</time>
      </trkpt>
      <trkpt lat="46.70988" lon="5.5243">
        <ele>271.6</ele>
        <time>2022-03-09T14:58:48Z</time>
      </trkpt>
      <trkpt lat="46.70989" lon="5.52425">
        <ele>271.6</ele>
        <time>2022-03-09T14:58:49Z</time>
      </trkpt>
      <trkpt lat="46.70989" lon="5.52421">
        <ele>271.8</ele>
        <time>2022-03-09T14:58:50Z</time>
      </trkpt>
      <trkpt lat="46.7099" lon="5.52417">
        <ele>271.8</ele>
        <time>2022-03-09T14:58:51Z</time>
      </trkpt>
      <trkpt lat="46.70991" lon="5.52412">
        <ele>272.2</ele>
        <time>2022-03-09T14:58:52Z</time>
      </trkpt>
      <trkpt lat="46.70992" lon="5.52408">
        <ele>272.2</ele>
        <time>2022-03-09T14:58:53Z</time>
      </trkpt>
      <trkpt lat="46.70993" lon="5.52403">
        <ele>272.6</ele>
        <time>2022-03-09T14:58:54Z</time>
      </trkpt>
      <trkpt lat="46.70994" lon="5.52398">
        <ele>272.8</ele>
        <time>2022-03-09T14:58:55Z</time>
      </trkpt>
      <trkpt lat="46.70995" lon="5.52394">
        <ele>272.8</ele>
        <time>2022-03-09T14:58:56Z</time>
      </trkpt>
      <trkpt lat="46.70997" lon="5.52388">
        <ele>273.2</ele>
        <time>2022-03-09T14:58:57Z</time>
      </trkpt>
      <trkpt lat="46.70998" lon="5.52383">
        <ele>273.2</ele>
        <time>2022-03-09T14:58:58Z</time>
      </trkpt>
      <trkpt lat="46.71" lon="5.52378">
        <ele>273.2</ele>
        <time>2022-03-09T14:58:59Z</time>
      </trkpt>
      <trkpt lat="46.71003" lon="5.52374">
        <ele>273.4</ele>
        <time>2022-03-09T14:59:00Z</time>
      </trkpt>
      <trkpt lat="46.71005" lon="5.52369">
        <ele>273.4</ele>
        <time>2022-03-09T14:59:01Z</time>
      </trkpt>
      <trkpt lat="46.71008" lon="5.52364">
        <ele>273.4</ele>
        <time>2022-03-09T14:59:02Z</time>
      </trkpt>
      <trkpt lat="46.71011" lon="5.52359">
        <ele>273.4</ele>
        <time>2022-03-09T14:59:03Z</time>
      </trkpt>
      <trkpt lat="46.71014" lon="5.52354">
        <ele>273.4</ele>
        <time>2022-03-09T14:59:04Z</time>
      </trkpt>
      <trkpt lat="46.71017" lon="5.52349">
        <ele>273.4</ele>
        <time>2022-03-09T14:59:05Z</time>
      </trkpt>
      <trkpt lat="46.7102" lon="5.52344">
        <ele>273.4</ele>
        <time>2022-03-09T14:59:06Z</time>
      </trkpt>
      <trkpt lat="46.71023" lon="5.5234">
        <ele>273.6</ele>
        <time>2022-03-09T14:59:07Z</time>
      </trkpt>
      <trkpt lat="46.71026" lon="5.52335">
        <ele>273.6</ele>
        <time>2022-03-09T14:59:08Z</time>
      </trkpt>
      <trkpt lat="46.71029" lon="5.52331">
        <ele>273.8</ele>
        <time>2022-03-09T14:59:09Z</time>
      </trkpt>
      <trkpt lat="46.71033" lon="5.52327">
        <ele>273.8</ele>
        <time>2022-03-09T14:59:10Z</time>
      </trkpt>
      <trkpt lat="46.71036" lon="5.52324">
        <ele>274</ele>
        <time>2022-03-09T14:59:11Z</time>
      </trkpt>
      <trkpt lat="46.71039" lon="5.5232">
        <ele>274</ele>
        <time>2022-03-09T14:59:12Z</time>
      </trkpt>
      <trkpt lat="46.71043" lon="5.52317">
        <ele>274.2</ele>
        <time>2022-03-09T14:59:13Z</time>
      </trkpt>
      <trkpt lat="46.71046" lon="5.52314">
        <ele>274.2</ele>
        <time>2022-03-09T14:59:14Z</time>
      </trkpt>
      <trkpt lat="46.7105" lon="5.5231">
        <ele>274.2</ele>
        <time>2022-03-09T14:59:15Z</time>
      </trkpt>
      <trkpt lat="46.71053" lon="5.52307">
        <ele>274.2</ele>
        <time>2022-03-09T14:59:16Z</time>
      </trkpt>
      <trkpt lat="46.71057" lon="5.52304">
        <ele>274.2</ele>
        <time>2022-03-09T14:59:17Z</time>
      </trkpt>
      <trkpt lat="46.71061" lon="5.52302">
        <ele>274.2</ele>
        <time>2022-03-09T14:59:18Z</time>
      </trkpt>
      <trkpt lat="46.71066" lon="5.52299">
        <ele>273.8</ele>
        <time>2022-03-09T14:59:19Z</time>
      </trkpt>
      <trkpt lat="46.71071" lon="5.52295">
        <ele>273.8</ele>
        <time>2022-03-09T14:59:20Z</time>
      </trkpt>
      <trkpt lat="46.71076" lon="5.52291">
        <ele>273.6</ele>
        <time>2022-03-09T14:59:21Z</time>
      </trkpt>
      <trkpt lat="46.71081" lon="5.52286">
        <ele>273.2</ele>
        <time>2022-03-09T14:59:22Z</time>
      </trkpt>
      <trkpt lat="46.71087" lon="5.52281">
        <ele>272.8</ele>
        <time>2022-03-09T14:59:23Z</time>
      </trkpt>
      <trkpt lat="46.71092" lon="5.52276">
        <ele>272.6</ele>
        <time>2022-03-09T14:59:24Z</time>
      </trkpt>
      <trkpt lat="46.71098" lon="5.52269">
        <ele>272.2</ele>
        <time>2022-03-09T14:59:25Z</time>
      </trkpt>
      <trkpt lat="46.71103" lon="5.52261">
        <ele>271.6</ele>
        <time>2022-03-09T14:59:26Z</time>
      </trkpt>
      <trkpt lat="46.71108" lon="5.52252">
        <ele>271.2</ele>
        <time>2022-03-09T14:59:27Z</time>
      </trkpt>
      <trkpt lat="46.71113" lon="5.52243">
        <ele>270.8</ele>
        <time>2022-03-09T14:59:28Z</time>
      </trkpt>
      <trkpt lat="46.71117" lon="5.52231">
        <ele>270.2</ele>
        <time>2022-03-09T14:59:29Z</time>
      </trkpt>
      <trkpt lat="46.71121" lon="5.52219">
        <ele>269.8</ele>
        <time>2022-03-09T14:59:30Z</time>
      </trkpt>
      <trkpt lat="46.71124" lon="5.52205">
        <ele>269.2</ele>
        <time>2022-03-09T14:59:31Z</time>
      </trkpt>
      <trkpt lat="46.71126" lon="5.5219">
        <ele>268.6</ele>
        <time>2022-03-09T14:59:32Z</time>
      </trkpt>
      <trkpt lat="46.71128" lon="5.52174">
        <ele>267.8</ele>
        <time>2022-03-09T14:59:33Z</time>
      </trkpt>
      <trkpt lat="46.71127" lon="5.52159">
        <ele>267.2</ele>
        <time>2022-03-09T14:59:34Z</time>
      </trkpt>
      <trkpt lat="46.71126" lon="5.52144">
        <ele>266.6</ele>
        <time>2022-03-09T14:59:35Z</time>
      </trkpt>
      <trkpt lat="46.71123" lon="5.52128">
        <ele>265.8</ele>
        <time>2022-03-09T14:59:36Z</time>
      </trkpt>
      <trkpt lat="46.71119" lon="5.52114">
        <ele>265.2</ele>
        <time>2022-03-09T14:59:37Z</time>
      </trkpt>
      <trkpt lat="46.71114" lon="5.521">
        <ele>264.6</ele>
        <time>2022-03-09T14:59:38Z</time>
      </trkpt>
      <trkpt lat="46.71108" lon="5.52087">
        <ele>263.8</ele>
        <time>2022-03-09T14:59:39Z</time>
      </trkpt>
      <trkpt lat="46.71102" lon="5.52073">
        <ele>263.4</ele>
        <time>2022-03-09T14:59:40Z</time>
      </trkpt>
      <trkpt lat="46.71095" lon="5.52061">
        <ele>263</ele>
        <time>2022-03-09T14:59:41Z</time>
      </trkpt>
      <trkpt lat="46.71089" lon="5.52048">
        <ele>262.6</ele>
        <time>2022-03-09T14:59:42Z</time>
      </trkpt>
      <trkpt lat="46.71083" lon="5.52037">
        <ele>262.2</ele>
        <time>2022-03-09T14:59:43Z</time>
      </trkpt>
      <trkpt lat="46.71076" lon="5.52026">
        <ele>261.6</ele>
        <time>2022-03-09T14:59:44Z</time>
      </trkpt>
      <trkpt lat="46.7107" lon="5.52014">
        <ele>261.2</ele>
        <time>2022-03-09T14:59:45Z</time>
      </trkpt>
      <trkpt lat="46.71064" lon="5.52003">
        <ele>260.8</ele>
        <time>2022-03-09T14:59:46Z</time>
      </trkpt>
      <trkpt lat="46.71058" lon="5.51992">
        <ele>260.4</ele>
        <time>2022-03-09T14:59:47Z</time>
      </trkpt>
      <trkpt lat="46.71052" lon="5.5198">
        <ele>260</ele>
        <time>2022-03-09T14:59:48Z</time>
      </trkpt>
      <trkpt lat="46.71047" lon="5.51968">
        <ele>259.6</ele>
        <time>2022-03-09T14:59:49Z</time>
      </trkpt>
      <trkpt lat="46.71043" lon="5.51955">
        <ele>259.2</ele>
        <time>2022-03-09T14:59:50Z</time>
      </trkpt>
      <trkpt lat="46.71039" lon="5.51942">
        <ele>259</ele>
        <time>2022-03-09T14:59:51Z</time>
      </trkpt>
      <trkpt lat="46.71037" lon="5.51929">
        <ele>259</ele>
        <time>2022-03-09T14:59:52Z</time>
      </trkpt>
      <trkpt lat="46.71036" lon="5.51917">
        <ele>259</ele>
        <time>2022-03-09T14:59:53Z</time>
      </trkpt>
      <trkpt lat="46.71035" lon="5.51904">
        <ele>259</ele>
        <time>2022-03-09T14:59:54Z</time>
      </trkpt>
      <trkpt lat="46.71033" lon="5.51892">
        <ele>259</ele>
        <time>2022-03-09T14:59:55Z</time>
      </trkpt>
      <trkpt lat="46.71031" lon="5.5188">
        <ele>259.4</ele>
        <time>2022-03-09T14:59:56Z</time>
      </trkpt>
      <trkpt lat="46.71027" lon="5.51859">
        <ele>259.8</ele>
        <time>2022-03-09T14:59:57Z</time>
      </trkpt>
      <trkpt lat="46.71026" lon="5.5185">
        <ele>259.8</ele>
        <time>2022-03-09T14:59:58Z</time>
      </trkpt>
      <trkpt lat="46.71024" lon="5.51841">
        <ele>260.2</ele>
        <time>2022-03-09T14:59:59Z</time>
      </trkpt>
      <trkpt lat="46.71021" lon="5.51832">
        <ele>260.2</ele>
        <time>2022-03-09T15:00:00Z</time>
      </trkpt>
      <trkpt lat="46.71018" lon="5.51824">
        <ele>260.8</ele>
        <time>2022-03-09T15:00:01Z</time>
      </trkpt>
      <trkpt lat="46.71015" lon="5.51817">
        <ele>260.8</ele>
        <time>2022-03-09T15:00:02Z</time>
      </trkpt>
      <trkpt lat="46.71012" lon="5.5181">
        <ele>261</ele>
        <time>2022-03-09T15:00:03Z</time>
      </trkpt>
      <trkpt lat="46.71009" lon="5.51803">
        <ele>261</ele>
        <time>2022-03-09T15:00:04Z</time>
      </trkpt>
      <trkpt lat="46.71005" lon="5.51796">
        <ele>261.4</ele>
        <time>2022-03-09T15:00:05Z</time>
      </trkpt>
      <trkpt lat="46.71002" lon="5.5179">
        <ele>261.8</ele>
        <time>2022-03-09T15:00:06Z</time>
      </trkpt>
      <trkpt lat="46.70998" lon="5.51784">
        <ele>262</ele>
        <time>2022-03-09T15:00:07Z</time>
      </trkpt>
      <trkpt lat="46.70994" lon="5.51778">
        <ele>262.4</ele>
        <time>2022-03-09T15:00:08Z</time>
      </trkpt>
      <trkpt lat="46.7099" lon="5.51773">
        <ele>262.6</ele>
        <time>2022-03-09T15:00:09Z</time>
      </trkpt>
      <trkpt lat="46.70986" lon="5.51768">
        <ele>262.8</ele>
        <time>2022-03-09T15:00:10Z</time>
      </trkpt>
      <trkpt lat="46.70981" lon="5.51763">
        <ele>263.2</ele>
        <time>2022-03-09T15:00:11Z</time>
      </trkpt>
      <trkpt lat="46.70976" lon="5.51759">
        <ele>263.4</ele>
        <time>2022-03-09T15:00:12Z</time>
      </trkpt>
      <trkpt lat="46.70972" lon="5.51754">
        <ele>263.6</ele>
        <time>2022-03-09T15:00:13Z</time>
      </trkpt>
      <trkpt lat="46.70969" lon="5.51751">
        <ele>263.8</ele>
        <time>2022-03-09T15:00:14Z</time>
      </trkpt>
      <trkpt lat="46.70965" lon="5.51747">
        <ele>264.2</ele>
        <time>2022-03-09T15:00:15Z</time>
      </trkpt>
      <trkpt lat="46.70965" lon="5.51747">
        <ele>264.6</ele>
        <time>2022-03-09T15:00:16Z</time>
      </trkpt>
      <trkpt lat="46.70962" lon="5.51744">
        <ele>264.8</ele>
        <time>2022-03-09T15:00:17Z</time>
      </trkpt>
      <trkpt lat="46.70958" lon="5.51741">
        <ele>265</ele>
        <time>2022-03-09T15:00:18Z</time>
      </trkpt>
      <trkpt lat="46.70956" lon="5.51738">
        <ele>265.4</ele>
        <time>2022-03-09T15:00:19Z</time>
      </trkpt>
      <trkpt lat="46.70953" lon="5.51735">
        <ele>265.6</ele>
        <time>2022-03-09T15:00:20Z</time>
      </trkpt>
      <trkpt lat="46.7095" lon="5.51732">
        <ele>265.8</ele>
        <time>2022-03-09T15:00:21Z</time>
      </trkpt>
      <trkpt lat="46.70947" lon="5.5173">
        <ele>266</ele>
        <time>2022-03-09T15:00:22Z</time>
      </trkpt>
      <trkpt lat="46.70945" lon="5.51727">
        <ele>266</ele>
        <time>2022-03-09T15:00:24Z</time>
      </trkpt>
      <trkpt lat="46.70942" lon="5.51725">
        <ele>266</ele>
        <time>2022-03-09T15:00:25Z</time>
      </trkpt>
      <trkpt lat="46.70939" lon="5.51722">
        <ele>266.4</ele>
        <time>2022-03-09T15:00:26Z</time>
      </trkpt>
      <trkpt lat="46.70937" lon="5.51719">
        <ele>266.4</ele>
        <time>2022-03-09T15:00:27Z</time>
      </trkpt>
      <trkpt lat="46.70934" lon="5.51716">
        <ele>266.8</ele>
        <time>2022-03-09T15:00:28Z</time>
      </trkpt>
      <trkpt lat="46.70932" lon="5.51714">
        <ele>266.8</ele>
        <time>2022-03-09T15:00:29Z</time>
      </trkpt>
      <trkpt lat="46.70929" lon="5.51711">
        <ele>267.4</ele>
        <time>2022-03-09T15:00:30Z</time>
      </trkpt>
      <trkpt lat="46.70926" lon="5.51708">
        <ele>267.4</ele>
        <time>2022-03-09T15:00:31Z</time>
      </trkpt>
      <trkpt lat="46.70924" lon="5.51706">
        <ele>267.6</ele>
        <time>2022-03-09T15:00:32Z</time>
      </trkpt>
      <trkpt lat="46.70921" lon="5.51703">
        <ele>267.6</ele>
        <time>2022-03-09T15:00:33Z</time>
      </trkpt>
      <trkpt lat="46.70918" lon="5.517">
        <ele>267.8</ele>
        <time>2022-03-09T15:00:34Z</time>
      </trkpt>
      <trkpt lat="46.70916" lon="5.51697">
        <ele>267.8</ele>
        <time>2022-03-09T15:00:35Z</time>
      </trkpt>
      <trkpt lat="46.70913" lon="5.51695">
        <ele>268.2</ele>
        <time>2022-03-09T15:00:36Z</time>
      </trkpt>
      <trkpt lat="46.7091" lon="5.51692">
        <ele>268.2</ele>
        <time>2022-03-09T15:00:37Z</time>
      </trkpt>
      <trkpt lat="46.70908" lon="5.51689">
        <ele>268.6</ele>
        <time>2022-03-09T15:00:38Z</time>
      </trkpt>
      <trkpt lat="46.70905" lon="5.51686">
        <ele>269</ele>
        <time>2022-03-09T15:00:39Z</time>
      </trkpt>
      <trkpt lat="46.70903" lon="5.51683">
        <ele>269</ele>
        <time>2022-03-09T15:00:40Z</time>
      </trkpt>
      <trkpt lat="46.709" lon="5.5168">
        <ele>269.2</ele>
        <time>2022-03-09T15:00:41Z</time>
      </trkpt>
      <trkpt lat="46.70898" lon="5.51677">
        <ele>269.2</ele>
        <time>2022-03-09T15:00:42Z</time>
      </trkpt>
      <trkpt lat="46.70895" lon="5.51674">
        <ele>269.6</ele>
        <time>2022-03-09T15:00:43Z</time>
      </trkpt>
      <trkpt lat="46.70893" lon="5.5167">
        <ele>269.6</ele>
        <time>2022-03-09T15:00:44Z</time>
      </trkpt>
      <trkpt lat="46.70891" lon="5.51668">
        <ele>270</ele>
        <time>2022-03-09T15:00:45Z</time>
      </trkpt>
      <trkpt lat="46.70888" lon="5.51665">
        <ele>270</ele>
        <time>2022-03-09T15:00:46Z</time>
      </trkpt>
      <trkpt lat="46.70886" lon="5.51662">
        <ele>270.4</ele>
        <time>2022-03-09T15:00:47Z</time>
      </trkpt>
      <trkpt lat="46.70883" lon="5.51659">
        <ele>270.6</ele>
        <time>2022-03-09T15:00:48Z</time>
      </trkpt>
      <trkpt lat="46.70881" lon="5.51656">
        <ele>270.8</ele>
        <time>2022-03-09T15:00:49Z</time>
      </trkpt>
      <trkpt lat="46.70879" lon="5.51654">
        <ele>271</ele>
        <time>2022-03-09T15:00:50Z</time>
      </trkpt>
      <trkpt lat="46.70877" lon="5.51651">
        <ele>271.2</ele>
        <time>2022-03-09T15:00:51Z</time>
      </trkpt>
      <trkpt lat="46.70875" lon="5.51647">
        <ele>271.6</ele>
        <time>2022-03-09T15:00:52Z</time>
      </trkpt>
      <trkpt lat="46.70873" lon="5.51644">
        <ele>271.6</ele>
        <time>2022-03-09T15:00:53Z</time>
      </trkpt>
      <trkpt lat="46.70871" lon="5.51641">
        <ele>271.8</ele>
        <time>2022-03-09T15:00:54Z</time>
      </trkpt>
      <trkpt lat="46.70869" lon="5.51638">
        <ele>271.8</ele>
        <time>2022-03-09T15:00:55Z</time>
      </trkpt>
      <trkpt lat="46.70867" lon="5.51635">
        <ele>272.2</ele>
        <time>2022-03-09T15:00:56Z</time>
      </trkpt>
      <trkpt lat="46.70864" lon="5.51632">
        <ele>272.2</ele>
        <time>2022-03-09T15:00:57Z</time>
      </trkpt>
      <trkpt lat="46.70862" lon="5.51629">
        <ele>272.6</ele>
        <time>2022-03-09T15:00:58Z</time>
      </trkpt>
      <trkpt lat="46.7086" lon="5.51626">
        <ele>272.6</ele>
        <time>2022-03-09T15:00:59Z</time>
      </trkpt>
      <trkpt lat="46.70857" lon="5.51623">
        <ele>273</ele>
        <time>2022-03-09T15:01:00Z</time>
      </trkpt>
      <trkpt lat="46.70855" lon="5.51621">
        <ele>273</ele>
        <time>2022-03-09T15:01:01Z</time>
      </trkpt>
      <trkpt lat="46.70853" lon="5.51618">
        <ele>273.4</ele>
        <time>2022-03-09T15:01:02Z</time>
      </trkpt>
      <trkpt lat="46.7085" lon="5.51615">
        <ele>273.4</ele>
        <time>2022-03-09T15:01:03Z</time>
      </trkpt>
      <trkpt lat="46.70847" lon="5.51612">
        <ele>273.6</ele>
        <time>2022-03-09T15:01:04Z</time>
      </trkpt>
      <trkpt lat="46.70845" lon="5.51609">
        <ele>273.6</ele>
        <time>2022-03-09T15:01:05Z</time>
      </trkpt>
      <trkpt lat="46.70842" lon="5.51606">
        <ele>273.8</ele>
        <time>2022-03-09T15:01:06Z</time>
      </trkpt>
      <trkpt lat="46.7084" lon="5.51604">
        <ele>274</ele>
        <time>2022-03-09T15:01:07Z</time>
      </trkpt>
      <trkpt lat="46.70837" lon="5.51601">
        <ele>274</ele>
        <time>2022-03-09T15:01:08Z</time>
      </trkpt>
      <trkpt lat="46.70834" lon="5.51598">
        <ele>274.4</ele>
        <time>2022-03-09T15:01:09Z</time>
      </trkpt>
      <trkpt lat="46.70831" lon="5.51595">
        <ele>274.4</ele>
        <time>2022-03-09T15:01:10Z</time>
      </trkpt>
      <trkpt lat="46.70828" lon="5.51592">
        <ele>274.6</ele>
        <time>2022-03-09T15:01:11Z</time>
      </trkpt>
      <trkpt lat="46.70826" lon="5.51589">
        <ele>274.6</ele>
        <time>2022-03-09T15:01:12Z</time>
      </trkpt>
      <trkpt lat="46.70823" lon="5.51586">
        <ele>275</ele>
        <time>2022-03-09T15:01:13Z</time>
      </trkpt>
      <trkpt lat="46.7082" lon="5.51583">
        <ele>275</ele>
        <time>2022-03-09T15:01:14Z</time>
      </trkpt>
      <trkpt lat="46.70817" lon="5.51579">
        <ele>275.2</ele>
        <time>2022-03-09T15:01:15Z</time>
      </trkpt>
      <trkpt lat="46.70814" lon="5.51576">
        <ele>275.2</ele>
        <time>2022-03-09T15:01:16Z</time>
      </trkpt>
      <trkpt lat="46.70811" lon="5.51573">
        <ele>275.4</ele>
        <time>2022-03-09T15:01:17Z</time>
      </trkpt>
      <trkpt lat="46.70808" lon="5.51569">
        <ele>275.4</ele>
        <time>2022-03-09T15:01:18Z</time>
      </trkpt>
      <trkpt lat="46.70805" lon="5.51565">
        <ele>275.4</ele>
        <time>2022-03-09T15:01:19Z</time>
      </trkpt>
      <trkpt lat="46.70802" lon="5.51561">
        <ele>275.4</ele>
        <time>2022-03-09T15:01:20Z</time>
      </trkpt>
      <trkpt lat="46.70799" lon="5.51556">
        <ele>275.4</ele>
        <time>2022-03-09T15:01:21Z</time>
      </trkpt>
      <trkpt lat="46.70796" lon="5.51552">
        <ele>275.4</ele>
        <time>2022-03-09T15:01:22Z</time>
      </trkpt>
      <trkpt lat="46.70793" lon="5.51547">
        <ele>275.4</ele>
        <time>2022-03-09T15:01:23Z</time>
      </trkpt>
      <trkpt lat="46.70791" lon="5.51542">
        <ele>275.4</ele>
        <time>2022-03-09T15:01:24Z</time>
      </trkpt>
      <trkpt lat="46.70789" lon="5.51536">
        <ele>275.4</ele>
        <time>2022-03-09T15:01:25Z</time>
      </trkpt>
      <trkpt lat="46.70788" lon="5.5153">
        <ele>275.4</ele>
        <time>2022-03-09T15:01:26Z</time>
      </trkpt>
      <trkpt lat="46.70786" lon="5.51524">
        <ele>275.6</ele>
        <time>2022-03-09T15:01:27Z</time>
      </trkpt>
      <trkpt lat="46.70785" lon="5.51518">
        <ele>275.6</ele>
        <time>2022-03-09T15:01:28Z</time>
      </trkpt>
      <trkpt lat="46.70784" lon="5.51513">
        <ele>276</ele>
        <time>2022-03-09T15:01:29Z</time>
      </trkpt>
      <trkpt lat="46.70783" lon="5.51508">
        <ele>276</ele>
        <time>2022-03-09T15:01:30Z</time>
      </trkpt>
      <trkpt lat="46.70783" lon="5.51503">
        <ele>276.4</ele>
        <time>2022-03-09T15:01:31Z</time>
      </trkpt>
      <trkpt lat="46.70782" lon="5.51498">
        <ele>276.4</ele>
        <time>2022-03-09T15:01:32Z</time>
      </trkpt>
      <trkpt lat="46.70782" lon="5.51493">
        <ele>276.6</ele>
        <time>2022-03-09T15:01:33Z</time>
      </trkpt>
      <trkpt lat="46.70782" lon="5.51488">
        <ele>276.6</ele>
        <time>2022-03-09T15:01:34Z</time>
      </trkpt>
      <trkpt lat="46.70781" lon="5.51483">
        <ele>276.8</ele>
        <time>2022-03-09T15:01:35Z</time>
      </trkpt>
      <trkpt lat="46.70781" lon="5.51478">
        <ele>276.8</ele>
        <time>2022-03-09T15:01:36Z</time>
      </trkpt>
      <trkpt lat="46.7078" lon="5.51473">
        <ele>277.2</ele>
        <time>2022-03-09T15:01:37Z</time>
      </trkpt>
      <trkpt lat="46.70779" lon="5.51468">
        <ele>277.2</ele>
        <time>2022-03-09T15:01:38Z</time>
      </trkpt>
      <trkpt lat="46.70779" lon="5.51463">
        <ele>277.4</ele>
        <time>2022-03-09T15:01:39Z</time>
      </trkpt>
      <trkpt lat="46.70778" lon="5.51458">
        <ele>277.4</ele>
        <time>2022-03-09T15:01:40Z</time>
      </trkpt>
      <trkpt lat="46.70777" lon="5.51452">
        <ele>277.4</ele>
        <time>2022-03-09T15:01:41Z</time>
      </trkpt>
      <trkpt lat="46.70776" lon="5.51447">
        <ele>277.4</ele>
        <time>2022-03-09T15:01:42Z</time>
      </trkpt>
      <trkpt lat="46.70775" lon="5.51441">
        <ele>277.4</ele>
        <time>2022-03-09T15:01:43Z</time>
      </trkpt>
      <trkpt lat="46.70775" lon="5.51435">
        <ele>277.4</ele>
        <time>2022-03-09T15:01:44Z</time>
      </trkpt>
      <trkpt lat="46.70774" lon="5.51429">
        <ele>277.4</ele>
        <time>2022-03-09T15:01:45Z</time>
      </trkpt>
      <trkpt lat="46.70773" lon="5.51422">
        <ele>277.4</ele>
        <time>2022-03-09T15:01:46Z</time>
      </trkpt>
      <trkpt lat="46.70772" lon="5.51415">
        <ele>277</ele>
        <time>2022-03-09T15:01:47Z</time>
      </trkpt>
      <trkpt lat="46.70772" lon="5.51407">
        <ele>277</ele>
        <time>2022-03-09T15:01:48Z</time>
      </trkpt>
      <trkpt lat="46.70772" lon="5.51399">
        <ele>276.6</ele>
        <time>2022-03-09T15:01:49Z</time>
      </trkpt>
      <trkpt lat="46.70771" lon="5.51391">
        <ele>276.4</ele>
        <time>2022-03-09T15:01:50Z</time>
      </trkpt>
      <trkpt lat="46.70771" lon="5.51382">
        <ele>276</ele>
        <time>2022-03-09T15:01:51Z</time>
      </trkpt>
      <trkpt lat="46.7077" lon="5.51373">
        <ele>275.6</ele>
        <time>2022-03-09T15:01:52Z</time>
      </trkpt>
      <trkpt lat="46.70769" lon="5.51364">
        <ele>275.2</ele>
        <time>2022-03-09T15:01:53Z</time>
      </trkpt>
      <trkpt lat="46.70769" lon="5.51354">
        <ele>274.8</ele>
        <time>2022-03-09T15:01:54Z</time>
      </trkpt>
      <trkpt lat="46.7077" lon="5.51345">
        <ele>274.4</ele>
        <time>2022-03-09T15:01:55Z</time>
      </trkpt>
      <trkpt lat="46.70773" lon="5.51337">
        <ele>274</ele>
        <time>2022-03-09T15:01:56Z</time>
      </trkpt>
      <trkpt lat="46.70777" lon="5.51328">
        <ele>273.6</ele>
        <time>2022-03-09T15:01:57Z</time>
      </trkpt>
      <trkpt lat="46.70782" lon="5.5132">
        <ele>273.2</ele>
        <time>2022-03-09T15:01:58Z</time>
      </trkpt>
      <trkpt lat="46.70787" lon="5.51312">
        <ele>273</ele>
        <time>2022-03-09T15:01:59Z</time>
      </trkpt>
      <trkpt lat="46.70792" lon="5.51304">
        <ele>272.6</ele>
        <time>2022-03-09T15:02:00Z</time>
      </trkpt>
      <trkpt lat="46.70798" lon="5.51297">
        <ele>272.2</ele>
        <time>2022-03-09T15:02:01Z</time>
      </trkpt>
      <trkpt lat="46.70804" lon="5.51289">
        <ele>271.8</ele>
        <time>2022-03-09T15:02:02Z</time>
      </trkpt>
      <trkpt lat="46.7081" lon="5.51281">
        <ele>271.2</ele>
        <time>2022-03-09T15:02:03Z</time>
      </trkpt>
      <trkpt lat="46.70816" lon="5.51273">
        <ele>270.6</ele>
        <time>2022-03-09T15:02:04Z</time>
      </trkpt>
      <trkpt lat="46.70823" lon="5.51265">
        <ele>270.2</ele>
        <time>2022-03-09T15:02:05Z</time>
      </trkpt>
      <trkpt lat="46.7083" lon="5.51255">
        <ele>269.6</ele>
        <time>2022-03-09T15:02:06Z</time>
      </trkpt>
      <trkpt lat="46.70836" lon="5.51245">
        <ele>269</ele>
        <time>2022-03-09T15:02:07Z</time>
      </trkpt>
      <trkpt lat="46.70843" lon="5.51233">
        <ele>268.4</ele>
        <time>2022-03-09T15:02:08Z</time>
      </trkpt>
      <trkpt lat="46.70849" lon="5.5122">
        <ele>268</ele>
        <time>2022-03-09T15:02:09Z</time>
      </trkpt>
      <trkpt lat="46.70854" lon="5.51207">
        <ele>267.6</ele>
        <time>2022-03-09T15:02:10Z</time>
      </trkpt>
      <trkpt lat="46.70858" lon="5.51193">
        <ele>267.2</ele>
        <time>2022-03-09T15:02:11Z</time>
      </trkpt>
      <trkpt lat="46.70861" lon="5.51179">
        <ele>267</ele>
        <time>2022-03-09T15:02:12Z</time>
      </trkpt>
      <trkpt lat="46.70862" lon="5.51165">
        <ele>266.8</ele>
        <time>2022-03-09T15:02:13Z</time>
      </trkpt>
      <trkpt lat="46.70862" lon="5.51153">
        <ele>266.8</ele>
        <time>2022-03-09T15:02:14Z</time>
      </trkpt>
      <trkpt lat="46.70862" lon="5.5114">
        <ele>266.8</ele>
        <time>2022-03-09T15:02:15Z</time>
      </trkpt>
      <trkpt lat="46.70863" lon="5.51128">
        <ele>266.8</ele>
        <time>2022-03-09T15:02:16Z</time>
      </trkpt>
      <trkpt lat="46.70863" lon="5.51117">
        <ele>266.8</ele>
        <time>2022-03-09T15:02:17Z</time>
      </trkpt>
      <trkpt lat="46.70862" lon="5.51107">
        <ele>266.6</ele>
        <time>2022-03-09T15:02:18Z</time>
      </trkpt>
      <trkpt lat="46.70861" lon="5.51096">
        <ele>266.6</ele>
        <time>2022-03-09T15:02:19Z</time>
      </trkpt>
      <trkpt lat="46.70861" lon="5.51086">
        <ele>266.6</ele>
        <time>2022-03-09T15:02:20Z</time>
      </trkpt>
      <trkpt lat="46.7086" lon="5.51077">
        <ele>266.6</ele>
        <time>2022-03-09T15:02:21Z</time>
      </trkpt>
      <trkpt lat="46.70858" lon="5.51058">
        <ele>266.6</ele>
        <time>2022-03-09T15:02:22Z</time>
      </trkpt>
      <trkpt lat="46.70856" lon="5.51049">
        <ele>266.6</ele>
        <time>2022-03-09T15:02:23Z</time>
      </trkpt>
      <trkpt lat="46.70855" lon="5.51041">
        <ele>266.6</ele>
        <time>2022-03-09T15:02:24Z</time>
      </trkpt>
      <trkpt lat="46.70853" lon="5.51033">
        <ele>266.6</ele>
        <time>2022-03-09T15:02:25Z</time>
      </trkpt>
      <trkpt lat="46.7085" lon="5.51024">
        <ele>266.6</ele>
        <time>2022-03-09T15:02:26Z</time>
      </trkpt>
      <trkpt lat="46.70847" lon="5.51017">
        <ele>266.6</ele>
        <time>2022-03-09T15:02:27Z</time>
      </trkpt>
      <trkpt lat="46.70843" lon="5.51009">
        <ele>266.2</ele>
        <time>2022-03-09T15:02:28Z</time>
      </trkpt>
      <trkpt lat="46.70838" lon="5.51001">
        <ele>265.8</ele>
        <time>2022-03-09T15:02:29Z</time>
      </trkpt>
      <trkpt lat="46.70834" lon="5.50993">
        <ele>265.4</ele>
        <time>2022-03-09T15:02:30Z</time>
      </trkpt>
      <trkpt lat="46.70828" lon="5.50984">
        <ele>264.8</ele>
        <time>2022-03-09T15:02:31Z</time>
      </trkpt>
      <trkpt lat="46.70822" lon="5.50974">
        <ele>264.4</ele>
        <time>2022-03-09T15:02:32Z</time>
      </trkpt>
      <trkpt lat="46.70817" lon="5.50963">
        <ele>263.8</ele>
        <time>2022-03-09T15:02:33Z</time>
      </trkpt>
      <trkpt lat="46.70812" lon="5.50952">
        <ele>263</ele>
        <time>2022-03-09T15:02:34Z</time>
      </trkpt>
      <trkpt lat="46.70806" lon="5.50941">
        <ele>262.4</ele>
        <time>2022-03-09T15:02:35Z</time>
      </trkpt>
      <trkpt lat="46.708" lon="5.5093">
        <ele>261.4</ele>
        <time>2022-03-09T15:02:36Z</time>
      </trkpt>
      <trkpt lat="46.70794" lon="5.5092">
        <ele>260.6</ele>
        <time>2022-03-09T15:02:37Z</time>
      </trkpt>
      <trkpt lat="46.70789" lon="5.50908">
        <ele>259.8</ele>
        <time>2022-03-09T15:02:38Z</time>
      </trkpt>
      <trkpt lat="46.70785" lon="5.50896">
        <ele>259</ele>
        <time>2022-03-09T15:02:39Z</time>
      </trkpt>
      <trkpt lat="46.70783" lon="5.50882">
        <ele>258.2</ele>
        <time>2022-03-09T15:02:40Z</time>
      </trkpt>
      <trkpt lat="46.70782" lon="5.50867">
        <ele>257.4</ele>
        <time>2022-03-09T15:02:41Z</time>
      </trkpt>
      <trkpt lat="46.70782" lon="5.50852">
        <ele>256.6</ele>
        <time>2022-03-09T15:02:42Z</time>
      </trkpt>
      <trkpt lat="46.70781" lon="5.50836">
        <ele>256</ele>
        <time>2022-03-09T15:02:43Z</time>
      </trkpt>
      <trkpt lat="46.70781" lon="5.50819">
        <ele>255.4</ele>
        <time>2022-03-09T15:02:44Z</time>
      </trkpt>
      <trkpt lat="46.7078" lon="5.508">
        <ele>254.6</ele>
        <time>2022-03-09T15:02:45Z</time>
      </trkpt>
      <trkpt lat="46.7078" lon="5.50783">
        <ele>253.8</ele>
        <time>2022-03-09T15:02:46Z</time>
      </trkpt>
      <trkpt lat="46.70779" lon="5.50766">
        <ele>253</ele>
        <time>2022-03-09T15:02:47Z</time>
      </trkpt>
      <trkpt lat="46.70779" lon="5.50751">
        <ele>252</ele>
        <time>2022-03-09T15:02:48Z</time>
      </trkpt>
      <trkpt lat="46.7078" lon="5.50736">
        <ele>251</ele>
        <time>2022-03-09T15:02:49Z</time>
      </trkpt>
      <trkpt lat="46.70781" lon="5.50722">
        <ele>250.2</ele>
        <time>2022-03-09T15:02:50Z</time>
      </trkpt>
      <trkpt lat="46.70785" lon="5.50708">
        <ele>249</ele>
        <time>2022-03-09T15:02:51Z</time>
      </trkpt>
      <trkpt lat="46.70791" lon="5.50693">
        <ele>248.2</ele>
        <time>2022-03-09T15:02:52Z</time>
      </trkpt>
      <trkpt lat="46.70797" lon="5.50679">
        <ele>247.2</ele>
        <time>2022-03-09T15:02:53Z</time>
      </trkpt>
      <trkpt lat="46.70803" lon="5.50665">
        <ele>246.2</ele>
        <time>2022-03-09T15:02:54Z</time>
      </trkpt>
      <trkpt lat="46.70809" lon="5.50651">
        <ele>245.2</ele>
        <time>2022-03-09T15:02:55Z</time>
      </trkpt>
      <trkpt lat="46.70814" lon="5.5064">
        <ele>244.2</ele>
        <time>2022-03-09T15:02:56Z</time>
      </trkpt>
      <trkpt lat="46.70818" lon="5.50627">
        <ele>243.2</ele>
        <time>2022-03-09T15:02:57Z</time>
      </trkpt>
      <trkpt lat="46.7082" lon="5.50613">
        <ele>242.2</ele>
        <time>2022-03-09T15:02:58Z</time>
      </trkpt>
      <trkpt lat="46.7082" lon="5.50598">
        <ele>241.2</ele>
        <time>2022-03-09T15:02:59Z</time>
      </trkpt>
      <trkpt lat="46.70818" lon="5.50583">
        <ele>240.2</ele>
        <time>2022-03-09T15:03:00Z</time>
      </trkpt>
      <trkpt lat="46.70813" lon="5.50568">
        <ele>239.2</ele>
        <time>2022-03-09T15:03:01Z</time>
      </trkpt>
      <trkpt lat="46.70808" lon="5.50553">
        <ele>238.2</ele>
        <time>2022-03-09T15:03:02Z</time>
      </trkpt>
      <trkpt lat="46.70804" lon="5.50537">
        <ele>237.2</ele>
        <time>2022-03-09T15:03:03Z</time>
      </trkpt>
      <trkpt lat="46.70802" lon="5.50521">
        <ele>236.2</ele>
        <time>2022-03-09T15:03:04Z</time>
      </trkpt>
      <trkpt lat="46.70802" lon="5.50504">
        <ele>235.2</ele>
        <time>2022-03-09T15:03:05Z</time>
      </trkpt>
      <trkpt lat="46.70802" lon="5.50488">
        <ele>234.2</ele>
        <time>2022-03-09T15:03:06Z</time>
      </trkpt>
      <trkpt lat="46.70804" lon="5.5047">
        <ele>233</ele>
        <time>2022-03-09T15:03:07Z</time>
      </trkpt>
      <trkpt lat="46.70806" lon="5.50453">
        <ele>232</ele>
        <time>2022-03-09T15:03:08Z</time>
      </trkpt>
      <trkpt lat="46.70808" lon="5.50435">
        <ele>230.8</ele>
        <time>2022-03-09T15:03:09Z</time>
      </trkpt>
      <trkpt lat="46.70809" lon="5.50418">
        <ele>229.8</ele>
        <time>2022-03-09T15:03:10Z</time>
      </trkpt>
      <trkpt lat="46.70811" lon="5.504">
        <ele>228.8</ele>
        <time>2022-03-09T15:03:11Z</time>
      </trkpt>
      <trkpt lat="46.7081" lon="5.50383">
        <ele>227.8</ele>
        <time>2022-03-09T15:03:12Z</time>
      </trkpt>
      <trkpt lat="46.70808" lon="5.50366">
        <ele>227</ele>
        <time>2022-03-09T15:03:13Z</time>
      </trkpt>
      <trkpt lat="46.70804" lon="5.50351">
        <ele>226</ele>
        <time>2022-03-09T15:03:14Z</time>
      </trkpt>
      <trkpt lat="46.70797" lon="5.50336">
        <ele>225</ele>
        <time>2022-03-09T15:03:15Z</time>
      </trkpt>
      <trkpt lat="46.70789" lon="5.50322">
        <ele>224</ele>
        <time>2022-03-09T15:03:16Z</time>
      </trkpt>
      <trkpt lat="46.70781" lon="5.5031">
        <ele>223.4</ele>
        <time>2022-03-09T15:03:17Z</time>
      </trkpt>
      <trkpt lat="46.70774" lon="5.503">
        <ele>222.6</ele>
        <time>2022-03-09T15:03:18Z</time>
      </trkpt>
      <trkpt lat="46.70769" lon="5.50291">
        <ele>221.8</ele>
        <time>2022-03-09T15:03:19Z</time>
      </trkpt>
      <trkpt lat="46.70765" lon="5.50285">
        <ele>221.4</ele>
        <time>2022-03-09T15:03:20Z</time>
      </trkpt>
      <trkpt lat="46.70761" lon="5.50279">
        <ele>221</ele>
        <time>2022-03-09T15:03:21Z</time>
      </trkpt>
      <trkpt lat="46.70757" lon="5.50275">
        <ele>220.6</ele>
        <time>2022-03-09T15:03:22Z</time>
      </trkpt>
      <trkpt lat="46.70754" lon="5.50275">
        <ele>220.4</ele>
        <time>2022-03-09T15:03:23Z</time>
      </trkpt>
      <trkpt lat="46.70752" lon="5.50277">
        <ele>220</ele>
        <time>2022-03-09T15:03:24Z</time>
      </trkpt>
      <trkpt lat="46.70751" lon="5.50281">
        <ele>219.8</ele>
        <time>2022-03-09T15:03:25Z</time>
      </trkpt>
      <trkpt lat="46.70751" lon="5.50285">
        <ele>219.6</ele>
        <time>2022-03-09T15:03:26Z</time>
      </trkpt>
      <trkpt lat="46.70753" lon="5.50288">
        <ele>219.6</ele>
        <time>2022-03-09T15:03:27Z</time>
      </trkpt>
      <trkpt lat="46.70755" lon="5.50291">
        <ele>219.4</ele>
        <time>2022-03-09T15:03:28Z</time>
      </trkpt>
      <trkpt lat="46.70758" lon="5.50293">
        <ele>219.4</ele>
        <time>2022-03-09T15:03:29Z</time>
      </trkpt>
      <trkpt lat="46.70761" lon="5.50295">
        <ele>219.4</ele>
        <time>2022-03-09T15:03:30Z</time>
      </trkpt>
      <trkpt lat="46.70764" lon="5.50297">
        <ele>219.4</ele>
        <time>2022-03-09T15:03:31Z</time>
      </trkpt>
      <trkpt lat="46.70767" lon="5.50299">
        <ele>219.4</ele>
        <time>2022-03-09T15:03:32Z</time>
      </trkpt>
      <trkpt lat="46.7077" lon="5.50302">
        <ele>219.4</ele>
        <time>2022-03-09T15:03:33Z</time>
      </trkpt>
      <trkpt lat="46.70773" lon="5.50304">
        <ele>219.4</ele>
        <time>2022-03-09T15:03:34Z</time>
      </trkpt>
      <trkpt lat="46.70776" lon="5.50308">
        <ele>219.6</ele>
        <time>2022-03-09T15:03:35Z</time>
      </trkpt>
      <trkpt lat="46.70778" lon="5.50311">
        <ele>219.6</ele>
        <time>2022-03-09T15:03:36Z</time>
      </trkpt>
      <trkpt lat="46.70781" lon="5.50315">
        <ele>220</ele>
        <time>2022-03-09T15:03:37Z</time>
      </trkpt>
      <trkpt lat="46.70783" lon="5.50319">
        <ele>220</ele>
        <time>2022-03-09T15:03:38Z</time>
      </trkpt>
      <trkpt lat="46.70785" lon="5.50323">
        <ele>220.4</ele>
        <time>2022-03-09T15:03:39Z</time>
      </trkpt>
      <trkpt lat="46.70788" lon="5.50328">
        <ele>220.4</ele>
        <time>2022-03-09T15:03:40Z</time>
      </trkpt>
      <trkpt lat="46.7079" lon="5.50332">
        <ele>220.6</ele>
        <time>2022-03-09T15:03:41Z</time>
      </trkpt>
      <trkpt lat="46.70792" lon="5.50336">
        <ele>220.6</ele>
        <time>2022-03-09T15:03:42Z</time>
      </trkpt>
      <trkpt lat="46.70794" lon="5.50341">
        <ele>220.8</ele>
        <time>2022-03-09T15:03:43Z</time>
      </trkpt>
      <trkpt lat="46.70796" lon="5.50345">
        <ele>220.8</ele>
        <time>2022-03-09T15:03:44Z</time>
      </trkpt>
      <trkpt lat="46.70798" lon="5.50349">
        <ele>221.2</ele>
        <time>2022-03-09T15:03:45Z</time>
      </trkpt>
      <trkpt lat="46.70801" lon="5.50353">
        <ele>221.2</ele>
        <time>2022-03-09T15:03:46Z</time>
      </trkpt>
      <trkpt lat="46.70803" lon="5.50358">
        <ele>221.4</ele>
        <time>2022-03-09T15:03:47Z</time>
      </trkpt>
      <trkpt lat="46.70805" lon="5.50362">
        <ele>221.8</ele>
        <time>2022-03-09T15:03:48Z</time>
      </trkpt>
      <trkpt lat="46.70806" lon="5.50366">
        <ele>222</ele>
        <time>2022-03-09T15:03:49Z</time>
      </trkpt>
      <trkpt lat="46.70808" lon="5.50371">
        <ele>222.2</ele>
        <time>2022-03-09T15:03:50Z</time>
      </trkpt>
      <trkpt lat="46.70808" lon="5.50376">
        <ele>222.4</ele>
        <time>2022-03-09T15:03:51Z</time>
      </trkpt>
      <trkpt lat="46.70809" lon="5.5038">
        <ele>222.6</ele>
        <time>2022-03-09T15:03:52Z</time>
      </trkpt>
      <trkpt lat="46.7081" lon="5.50385">
        <ele>222.8</ele>
        <time>2022-03-09T15:03:53Z</time>
      </trkpt>
      <trkpt lat="46.70811" lon="5.50389">
        <ele>223.2</ele>
        <time>2022-03-09T15:03:54Z</time>
      </trkpt>
      <trkpt lat="46.70812" lon="5.50393">
        <ele>223.2</ele>
        <time>2022-03-09T15:03:55Z</time>
      </trkpt>
      <trkpt lat="46.70813" lon="5.50398">
        <ele>223.4</ele>
        <time>2022-03-09T15:03:56Z</time>
      </trkpt>
      <trkpt lat="46.70813" lon="5.50402">
        <ele>223.6</ele>
        <time>2022-03-09T15:03:57Z</time>
      </trkpt>
      <trkpt lat="46.70813" lon="5.50407">
        <ele>223.8</ele>
        <time>2022-03-09T15:03:58Z</time>
      </trkpt>
      <trkpt lat="46.70813" lon="5.50412">
        <ele>224.2</ele>
        <time>2022-03-09T15:03:59Z</time>
      </trkpt>
      <trkpt lat="46.70813" lon="5.50416">
        <ele>224.4</ele>
        <time>2022-03-09T15:04:00Z</time>
      </trkpt>
      <trkpt lat="46.70813" lon="5.50421">
        <ele>224.6</ele>
        <time>2022-03-09T15:04:01Z</time>
      </trkpt>
      <trkpt lat="46.70813" lon="5.50426">
        <ele>224.8</ele>
        <time>2022-03-09T15:04:02Z</time>
      </trkpt>
      <trkpt lat="46.70812" lon="5.5043">
        <ele>225.2</ele>
        <time>2022-03-09T15:04:03Z</time>
      </trkpt>
      <trkpt lat="46.70812" lon="5.50435">
        <ele>225.4</ele>
        <time>2022-03-09T15:04:04Z</time>
      </trkpt>
      <trkpt lat="46.70811" lon="5.5044">
        <ele>225.6</ele>
        <time>2022-03-09T15:04:05Z</time>
      </trkpt>
      <trkpt lat="46.70811" lon="5.50445">
        <ele>226</ele>
        <time>2022-03-09T15:04:06Z</time>
      </trkpt>
      <trkpt lat="46.7081" lon="5.5045">
        <ele>226.2</ele>
        <time>2022-03-09T15:04:07Z</time>
      </trkpt>
      <trkpt lat="46.7081" lon="5.50454">
        <ele>226.6</ele>
        <time>2022-03-09T15:04:08Z</time>
      </trkpt>
      <trkpt lat="46.70809" lon="5.50458">
        <ele>226.8</ele>
        <time>2022-03-09T15:04:09Z</time>
      </trkpt>
      <trkpt lat="46.70808" lon="5.50463">
        <ele>227.2</ele>
        <time>2022-03-09T15:04:10Z</time>
      </trkpt>
      <trkpt lat="46.70808" lon="5.50466">
        <ele>227.4</ele>
        <time>2022-03-09T15:04:11Z</time>
      </trkpt>
      <trkpt lat="46.70807" lon="5.50471">
        <ele>227.8</ele>
        <time>2022-03-09T15:04:12Z</time>
      </trkpt>
      <trkpt lat="46.70807" lon="5.50475">
        <ele>228</ele>
        <time>2022-03-09T15:04:13Z</time>
      </trkpt>
      <trkpt lat="46.70807" lon="5.5048">
        <ele>228.2</ele>
        <time>2022-03-09T15:04:14Z</time>
      </trkpt>
      <trkpt lat="46.70807" lon="5.50484">
        <ele>228.6</ele>
        <time>2022-03-09T15:04:15Z</time>
      </trkpt>
      <trkpt lat="46.70807" lon="5.50489">
        <ele>229</ele>
        <time>2022-03-09T15:04:16Z</time>
      </trkpt>
      <trkpt lat="46.70808" lon="5.50493">
        <ele>229.2</ele>
        <time>2022-03-09T15:04:17Z</time>
      </trkpt>
      <trkpt lat="46.70809" lon="5.50497">
        <ele>229.6</ele>
        <time>2022-03-09T15:04:18Z</time>
      </trkpt>
      <trkpt lat="46.70812" lon="5.50499">
        <ele>229.8</ele>
        <time>2022-03-09T15:04:19Z</time>
      </trkpt>
      <trkpt lat="46.70814" lon="5.505">
        <ele>230.2</ele>
        <time>2022-03-09T15:04:20Z</time>
      </trkpt>
      <trkpt lat="46.70816" lon="5.50499">
        <ele>230.6</ele>
        <time>2022-03-09T15:04:21Z</time>
      </trkpt>
      <trkpt lat="46.70818" lon="5.50497">
        <ele>230.8</ele>
        <time>2022-03-09T15:04:22Z</time>
      </trkpt>
      <trkpt lat="46.7082" lon="5.50494">
        <ele>231</ele>
        <time>2022-03-09T15:04:23Z</time>
      </trkpt>
      <trkpt lat="46.70823" lon="5.50491">
        <ele>231</ele>
        <time>2022-03-09T15:04:24Z</time>
      </trkpt>
      <trkpt lat="46.70825" lon="5.50487">
        <ele>231.4</ele>
        <time>2022-03-09T15:04:25Z</time>
      </trkpt>
      <trkpt lat="46.70827" lon="5.50484">
        <ele>231.4</ele>
        <time>2022-03-09T15:04:26Z</time>
      </trkpt>
      <trkpt lat="46.70829" lon="5.5048">
        <ele>231.6</ele>
        <time>2022-03-09T15:04:27Z</time>
      </trkpt>
      <trkpt lat="46.70832" lon="5.50476">
        <ele>231.6</ele>
        <time>2022-03-09T15:04:28Z</time>
      </trkpt>
      <trkpt lat="46.70834" lon="5.50473">
        <ele>231.6</ele>
        <time>2022-03-09T15:04:29Z</time>
      </trkpt>
      <trkpt lat="46.70836" lon="5.50469">
        <ele>231.8</ele>
        <time>2022-03-09T15:04:30Z</time>
      </trkpt>
      <trkpt lat="46.70838" lon="5.50465">
        <ele>231.8</ele>
        <time>2022-03-09T15:04:31Z</time>
      </trkpt>
      <trkpt lat="46.70839" lon="5.5046">
        <ele>231.8</ele>
        <time>2022-03-09T15:04:32Z</time>
      </trkpt>
      <trkpt lat="46.70841" lon="5.50455">
        <ele>232</ele>
        <time>2022-03-09T15:04:33Z</time>
      </trkpt>
      <trkpt lat="46.70842" lon="5.5045">
        <ele>232</ele>
        <time>2022-03-09T15:04:34Z</time>
      </trkpt>
      <trkpt lat="46.70844" lon="5.50445">
        <ele>232</ele>
        <time>2022-03-09T15:04:35Z</time>
      </trkpt>
      <trkpt lat="46.70845" lon="5.50439">
        <ele>232</ele>
        <time>2022-03-09T15:04:36Z</time>
      </trkpt>
      <trkpt lat="46.70847" lon="5.50433">
        <ele>232</ele>
        <time>2022-03-09T15:04:37Z</time>
      </trkpt>
      <trkpt lat="46.7085" lon="5.50428">
        <ele>232</ele>
        <time>2022-03-09T15:04:38Z</time>
      </trkpt>
      <trkpt lat="46.70853" lon="5.50424">
        <ele>232</ele>
        <time>2022-03-09T15:04:39Z</time>
      </trkpt>
      <trkpt lat="46.70857" lon="5.50422">
        <ele>232</ele>
        <time>2022-03-09T15:04:40Z</time>
      </trkpt>
      <trkpt lat="46.70861" lon="5.50421">
        <ele>232</ele>
        <time>2022-03-09T15:04:41Z</time>
      </trkpt>
      <trkpt lat="46.70865" lon="5.5042">
        <ele>232</ele>
        <time>2022-03-09T15:04:42Z</time>
      </trkpt>
      <trkpt lat="46.70869" lon="5.50419">
        <ele>232</ele>
        <time>2022-03-09T15:04:43Z</time>
      </trkpt>
      <trkpt lat="46.70872" lon="5.50418">
        <ele>232.2</ele>
        <time>2022-03-09T15:04:44Z</time>
      </trkpt>
      <trkpt lat="46.70875" lon="5.50417">
        <ele>232.2</ele>
        <time>2022-03-09T15:04:45Z</time>
      </trkpt>
      <trkpt lat="46.70879" lon="5.50416">
        <ele>232.4</ele>
        <time>2022-03-09T15:04:46Z</time>
      </trkpt>
      <trkpt lat="46.70882" lon="5.50415">
        <ele>232.4</ele>
        <time>2022-03-09T15:04:47Z</time>
      </trkpt>
      <trkpt lat="46.70886" lon="5.50414">
        <ele>232.4</ele>
        <time>2022-03-09T15:04:48Z</time>
      </trkpt>
      <trkpt lat="46.7089" lon="5.50412">
        <ele>232.4</ele>
        <time>2022-03-09T15:04:49Z</time>
      </trkpt>
      <trkpt lat="46.70893" lon="5.5041">
        <ele>232.4</ele>
        <time>2022-03-09T15:04:50Z</time>
      </trkpt>
      <trkpt lat="46.70897" lon="5.50408">
        <ele>232.4</ele>
        <time>2022-03-09T15:04:51Z</time>
      </trkpt>
      <trkpt lat="46.709" lon="5.50406">
        <ele>232.4</ele>
        <time>2022-03-09T15:04:52Z</time>
      </trkpt>
      <trkpt lat="46.70904" lon="5.50404">
        <ele>232.4</ele>
        <time>2022-03-09T15:04:53Z</time>
      </trkpt>
      <trkpt lat="46.70908" lon="5.50403">
        <ele>232.4</ele>
        <time>2022-03-09T15:04:54Z</time>
      </trkpt>
      <trkpt lat="46.70911" lon="5.50401">
        <ele>232.4</ele>
        <time>2022-03-09T15:04:55Z</time>
      </trkpt>
      <trkpt lat="46.70915" lon="5.504">
        <ele>232.4</ele>
        <time>2022-03-09T15:04:56Z</time>
      </trkpt>
      <trkpt lat="46.70919" lon="5.50398">
        <ele>232.2</ele>
        <time>2022-03-09T15:04:57Z</time>
      </trkpt>
      <trkpt lat="46.70923" lon="5.50397">
        <ele>232.2</ele>
        <time>2022-03-09T15:04:58Z</time>
      </trkpt>
      <trkpt lat="46.70928" lon="5.50395">
        <ele>231.8</ele>
        <time>2022-03-09T15:04:59Z</time>
      </trkpt>
      <trkpt lat="46.70932" lon="5.50394">
        <ele>231.6</ele>
        <time>2022-03-09T15:05:00Z</time>
      </trkpt>
      <trkpt lat="46.70938" lon="5.50391">
        <ele>231.4</ele>
        <time>2022-03-09T15:05:01Z</time>
      </trkpt>
      <trkpt lat="46.70944" lon="5.50389">
        <ele>231</ele>
        <time>2022-03-09T15:05:02Z</time>
      </trkpt>
      <trkpt lat="46.7095" lon="5.50387">
        <ele>230.8</ele>
        <time>2022-03-09T15:05:03Z</time>
      </trkpt>
      <trkpt lat="46.70957" lon="5.50384">
        <ele>230.2</ele>
        <time>2022-03-09T15:05:04Z</time>
      </trkpt>
      <trkpt lat="46.70964" lon="5.50381">
        <ele>229.6</ele>
        <time>2022-03-09T15:05:05Z</time>
      </trkpt>
      <trkpt lat="46.70972" lon="5.50378">
        <ele>228.8</ele>
        <time>2022-03-09T15:05:06Z</time>
      </trkpt>
      <trkpt lat="46.7098" lon="5.50374">
        <ele>228.2</ele>
        <time>2022-03-09T15:05:07Z</time>
      </trkpt>
      <trkpt lat="46.70988" lon="5.5037">
        <ele>227.6</ele>
        <time>2022-03-09T15:05:08Z</time>
      </trkpt>
      <trkpt lat="46.70996" lon="5.50367">
        <ele>227</ele>
        <time>2022-03-09T15:05:09Z</time>
      </trkpt>
      <trkpt lat="46.71002" lon="5.50364">
        <ele>226.4</ele>
        <time>2022-03-09T15:05:10Z</time>
      </trkpt>
      <trkpt lat="46.71008" lon="5.50362">
        <ele>226</ele>
        <time>2022-03-09T15:05:11Z</time>
      </trkpt>
      <trkpt lat="46.71014" lon="5.50362">
        <ele>225.6</ele>
        <time>2022-03-09T15:05:12Z</time>
      </trkpt>
      <trkpt lat="46.7102" lon="5.50365">
        <ele>225.2</ele>
        <time>2022-03-09T15:05:13Z</time>
      </trkpt>
      <trkpt lat="46.71025" lon="5.5037">
        <ele>224.8</ele>
        <time>2022-03-09T15:05:14Z</time>
      </trkpt>
      <trkpt lat="46.71029" lon="5.50379">
        <ele>224.6</ele>
        <time>2022-03-09T15:05:15Z</time>
      </trkpt>
      <trkpt lat="46.71031" lon="5.50388">
        <ele>224.6</ele>
        <time>2022-03-09T15:05:16Z</time>
      </trkpt>
      <trkpt lat="46.71033" lon="5.50398">
        <ele>224.2</ele>
        <time>2022-03-09T15:05:17Z</time>
      </trkpt>
      <trkpt lat="46.71035" lon="5.50408">
        <ele>224.2</ele>
        <time>2022-03-09T15:05:18Z</time>
      </trkpt>
      <trkpt lat="46.71036" lon="5.50417">
        <ele>224.2</ele>
        <time>2022-03-09T15:05:19Z</time>
      </trkpt>
      <trkpt lat="46.71037" lon="5.50426">
        <ele>224</ele>
        <time>2022-03-09T15:05:20Z</time>
      </trkpt>
      <trkpt lat="46.71038" lon="5.50435">
        <ele>224</ele>
        <time>2022-03-09T15:05:21Z</time>
      </trkpt>
      <trkpt lat="46.71039" lon="5.50445">
        <ele>224</ele>
        <time>2022-03-09T15:05:22Z</time>
      </trkpt>
      <trkpt lat="46.7104" lon="5.50453">
        <ele>224</ele>
        <time>2022-03-09T15:05:23Z</time>
      </trkpt>
      <trkpt lat="46.71042" lon="5.50462">
        <ele>224.4</ele>
        <time>2022-03-09T15:05:24Z</time>
      </trkpt>
      <trkpt lat="46.71044" lon="5.5047">
        <ele>224.4</ele>
        <time>2022-03-09T15:05:25Z</time>
      </trkpt>
      <trkpt lat="46.71046" lon="5.50477">
        <ele>224.8</ele>
        <time>2022-03-09T15:05:26Z</time>
      </trkpt>
      <trkpt lat="46.71048" lon="5.50484">
        <ele>225</ele>
        <time>2022-03-09T15:05:27Z</time>
      </trkpt>
      <trkpt lat="46.71051" lon="5.50491">
        <ele>225</ele>
        <time>2022-03-09T15:05:28Z</time>
      </trkpt>
      <trkpt lat="46.71054" lon="5.50498">
        <ele>225.2</ele>
        <time>2022-03-09T15:05:29Z</time>
      </trkpt>
      <trkpt lat="46.71054" lon="5.50498">
        <ele>225.2</ele>
        <time>2022-03-09T15:05:30Z</time>
      </trkpt>
      <trkpt lat="46.71058" lon="5.50505">
        <ele>225.2</ele>
        <time>2022-03-09T15:05:31Z</time>
      </trkpt>
      <trkpt lat="46.71062" lon="5.50512">
        <ele>225.2</ele>
        <time>2022-03-09T15:05:32Z</time>
      </trkpt>
      <trkpt lat="46.71065" lon="5.50518">
        <ele>225.2</ele>
        <time>2022-03-09T15:05:33Z</time>
      </trkpt>
      <trkpt lat="46.71069" lon="5.50525">
        <ele>225.2</ele>
        <time>2022-03-09T15:05:34Z</time>
      </trkpt>
      <trkpt lat="46.71073" lon="5.50532">
        <ele>225.2</ele>
        <time>2022-03-09T15:05:35Z</time>
      </trkpt>
      <trkpt lat="46.71077" lon="5.50539">
        <ele>225.2</ele>
        <time>2022-03-09T15:05:36Z</time>
      </trkpt>
      <trkpt lat="46.71081" lon="5.50546">
        <ele>225.2</ele>
        <time>2022-03-09T15:05:37Z</time>
      </trkpt>
      <trkpt lat="46.71086" lon="5.50552">
        <ele>225.2</ele>
        <time>2022-03-09T15:05:38Z</time>
      </trkpt>
      <trkpt lat="46.7109" lon="5.50559">
        <ele>225.4</ele>
        <time>2022-03-09T15:05:39Z</time>
      </trkpt>
      <trkpt lat="46.71095" lon="5.50565">
        <ele>225.4</ele>
        <time>2022-03-09T15:05:40Z</time>
      </trkpt>
      <trkpt lat="46.71099" lon="5.50571">
        <ele>225.4</ele>
        <time>2022-03-09T15:05:41Z</time>
      </trkpt>
      <trkpt lat="46.71104" lon="5.50577">
        <ele>225.4</ele>
        <time>2022-03-09T15:05:42Z</time>
      </trkpt>
      <trkpt lat="46.71109" lon="5.50583">
        <ele>225.4</ele>
        <time>2022-03-09T15:05:43Z</time>
      </trkpt>
      <trkpt lat="46.71114" lon="5.50588">
        <ele>225.4</ele>
        <time>2022-03-09T15:05:44Z</time>
      </trkpt>
      <trkpt lat="46.71119" lon="5.50593">
        <ele>225.4</ele>
        <time>2022-03-09T15:05:45Z</time>
      </trkpt>
      <trkpt lat="46.71124" lon="5.50599">
        <ele>225.4</ele>
        <time>2022-03-09T15:05:46Z</time>
      </trkpt>
      <trkpt lat="46.71129" lon="5.50605">
        <ele>225.4</ele>
        <time>2022-03-09T15:05:47Z</time>
      </trkpt>
      <trkpt lat="46.71133" lon="5.50611">
        <ele>225.4</ele>
        <time>2022-03-09T15:05:48Z</time>
      </trkpt>
      <trkpt lat="46.71138" lon="5.50617">
        <ele>225.4</ele>
        <time>2022-03-09T15:05:49Z</time>
      </trkpt>
      <trkpt lat="46.71143" lon="5.50623">
        <ele>225.4</ele>
        <time>2022-03-09T15:05:50Z</time>
      </trkpt>
      <trkpt lat="46.71147" lon="5.50629">
        <ele>225.4</ele>
        <time>2022-03-09T15:05:51Z</time>
      </trkpt>
      <trkpt lat="46.71152" lon="5.50634">
        <ele>225.4</ele>
        <time>2022-03-09T15:05:52Z</time>
      </trkpt>
      <trkpt lat="46.71156" lon="5.50638">
        <ele>225.4</ele>
        <time>2022-03-09T15:05:53Z</time>
      </trkpt>
      <trkpt lat="46.71161" lon="5.50641">
        <ele>225.4</ele>
        <time>2022-03-09T15:05:54Z</time>
      </trkpt>
      <trkpt lat="46.71166" lon="5.50641">
        <ele>225.4</ele>
        <time>2022-03-09T15:05:55Z</time>
      </trkpt>
      <trkpt lat="46.71171" lon="5.50639">
        <ele>225.4</ele>
        <time>2022-03-09T15:05:56Z</time>
      </trkpt>
      <trkpt lat="46.71176" lon="5.50636">
        <ele>225.4</ele>
        <time>2022-03-09T15:05:57Z</time>
      </trkpt>
      <trkpt lat="46.7118" lon="5.50632">
        <ele>225.4</ele>
        <time>2022-03-09T15:05:58Z</time>
      </trkpt>
      <trkpt lat="46.71184" lon="5.50627">
        <ele>225.4</ele>
        <time>2022-03-09T15:05:59Z</time>
      </trkpt>
      <trkpt lat="46.71189" lon="5.50623">
        <ele>225.6</ele>
        <time>2022-03-09T15:06:00Z</time>
      </trkpt>
      <trkpt lat="46.71193" lon="5.50618">
        <ele>225.6</ele>
        <time>2022-03-09T15:06:01Z</time>
      </trkpt>
      <trkpt lat="46.71197" lon="5.50613">
        <ele>225.6</ele>
        <time>2022-03-09T15:06:02Z</time>
      </trkpt>
      <trkpt lat="46.71201" lon="5.50609">
        <ele>225.8</ele>
        <time>2022-03-09T15:06:03Z</time>
      </trkpt>
      <trkpt lat="46.71205" lon="5.50604">
        <ele>225.8</ele>
        <time>2022-03-09T15:06:04Z</time>
      </trkpt>
      <trkpt lat="46.7121" lon="5.506">
        <ele>226</ele>
        <time>2022-03-09T15:06:05Z</time>
      </trkpt>
      <trkpt lat="46.71214" lon="5.50595">
        <ele>226.2</ele>
        <time>2022-03-09T15:06:06Z</time>
      </trkpt>
      <trkpt lat="46.71217" lon="5.50591">
        <ele>226.6</ele>
        <time>2022-03-09T15:06:07Z</time>
      </trkpt>
      <trkpt lat="46.71221" lon="5.50587">
        <ele>226.6</ele>
        <time>2022-03-09T15:06:08Z</time>
      </trkpt>
      <trkpt lat="46.71224" lon="5.50582">
        <ele>227</ele>
        <time>2022-03-09T15:06:09Z</time>
      </trkpt>
      <trkpt lat="46.71228" lon="5.50578">
        <ele>227.2</ele>
        <time>2022-03-09T15:06:10Z</time>
      </trkpt>
      <trkpt lat="46.71231" lon="5.50575">
        <ele>227.6</ele>
        <time>2022-03-09T15:06:11Z</time>
      </trkpt>
      <trkpt lat="46.71234" lon="5.50573">
        <ele>227.8</ele>
        <time>2022-03-09T15:06:12Z</time>
      </trkpt>
      <trkpt lat="46.71237" lon="5.5057">
        <ele>228.2</ele>
        <time>2022-03-09T15:06:13Z</time>
      </trkpt>
      <trkpt lat="46.7124" lon="5.50568">
        <ele>228.4</ele>
        <time>2022-03-09T15:06:14Z</time>
      </trkpt>
      <trkpt lat="46.71242" lon="5.50566">
        <ele>228.8</ele>
        <time>2022-03-09T15:06:15Z</time>
      </trkpt>
      <trkpt lat="46.71245" lon="5.50563">
        <ele>229.2</ele>
        <time>2022-03-09T15:06:16Z</time>
      </trkpt>
      <trkpt lat="46.71248" lon="5.50561">
        <ele>229.4</ele>
        <time>2022-03-09T15:06:17Z</time>
      </trkpt>
      <trkpt lat="46.71251" lon="5.50558">
        <ele>229.8</ele>
        <time>2022-03-09T15:06:18Z</time>
      </trkpt>
      <trkpt lat="46.71253" lon="5.50555">
        <ele>230</ele>
        <time>2022-03-09T15:06:19Z</time>
      </trkpt>
      <trkpt lat="46.71257" lon="5.50551">
        <ele>230.2</ele>
        <time>2022-03-09T15:06:20Z</time>
      </trkpt>
      <trkpt lat="46.7126" lon="5.50547">
        <ele>230.6</ele>
        <time>2022-03-09T15:06:21Z</time>
      </trkpt>
      <trkpt lat="46.71263" lon="5.50543">
        <ele>231</ele>
        <time>2022-03-09T15:06:22Z</time>
      </trkpt>
      <trkpt lat="46.71266" lon="5.50538">
        <ele>231.4</ele>
        <time>2022-03-09T15:06:23Z</time>
      </trkpt>
      <trkpt lat="46.7127" lon="5.50532">
        <ele>231.6</ele>
        <time>2022-03-09T15:06:24Z</time>
      </trkpt>
      <trkpt lat="46.71273" lon="5.50527">
        <ele>232</ele>
        <time>2022-03-09T15:06:25Z</time>
      </trkpt>
      <trkpt lat="46.71276" lon="5.50522">
        <ele>232.2</ele>
        <time>2022-03-09T15:06:26Z</time>
      </trkpt>
      <trkpt lat="46.71279" lon="5.50518">
        <ele>232.2</ele>
        <time>2022-03-09T15:06:27Z</time>
      </trkpt>
      <trkpt lat="46.71281" lon="5.50514">
        <ele>232.6</ele>
        <time>2022-03-09T15:06:28Z</time>
      </trkpt>
      <trkpt lat="46.71283" lon="5.5051">
        <ele>232.6</ele>
        <time>2022-03-09T15:06:29Z</time>
      </trkpt>
      <trkpt lat="46.71285" lon="5.50506">
        <ele>232.8</ele>
        <time>2022-03-09T15:06:30Z</time>
      </trkpt>
      <trkpt lat="46.71287" lon="5.50501">
        <ele>232.8</ele>
        <time>2022-03-09T15:06:31Z</time>
      </trkpt>
      <trkpt lat="46.71288" lon="5.50498">
        <ele>233</ele>
        <time>2022-03-09T15:06:32Z</time>
      </trkpt>
      <trkpt lat="46.7129" lon="5.50494">
        <ele>233</ele>
        <time>2022-03-09T15:06:33Z</time>
      </trkpt>
      <trkpt lat="46.71291" lon="5.50492">
        <ele>233</ele>
        <time>2022-03-09T15:06:34Z</time>
      </trkpt>
      <trkpt lat="46.71291" lon="5.50491">
        <ele>233.2</ele>
        <time>2022-03-09T15:06:35Z</time>
      </trkpt>
      <trkpt lat="46.71291" lon="5.50491">
        <ele>233.2</ele>
        <time>2022-03-09T15:06:36Z</time>
      </trkpt>
      <trkpt lat="46.71291" lon="5.50491">
        <ele>233.2</ele>
        <time>2022-03-09T15:06:37Z</time>
      </trkpt>
      <trkpt lat="46.71292" lon="5.5049">
        <ele>233.2</ele>
        <time>2022-03-09T15:06:39Z</time>
      </trkpt>
      <trkpt lat="46.71292" lon="5.5049">
        <ele>233.2</ele>
        <time>2022-03-09T15:06:40Z</time>
      </trkpt>
      <trkpt lat="46.71292" lon="5.5049">
        <ele>233.2</ele>
        <time>2022-03-09T15:06:41Z</time>
      </trkpt>
      <trkpt lat="46.71292" lon="5.50489">
        <ele>233.2</ele>
        <time>2022-03-09T15:06:42Z</time>
      </trkpt>
      <trkpt lat="46.71292" lon="5.50489">
        <ele>233.2</ele>
        <time>2022-03-09T15:06:44Z</time>
      </trkpt>
      <trkpt lat="46.71292" lon="5.50489">
        <ele>233.2</ele>
        <time>2022-03-09T15:06:45Z</time>
      </trkpt>
      <trkpt lat="46.71292" lon="5.50488">
        <ele>233.2</ele>
        <time>2022-03-09T15:06:49Z</time>
      </trkpt>
      <trkpt lat="46.71292" lon="5.50488">
        <ele>233.2</ele>
        <time>2022-03-09T15:06:50Z</time>
      </trkpt>
      <trkpt lat="46.71292" lon="5.50488">
        <ele>233.2</ele>
        <time>2022-03-09T15:06:52Z</time>
      </trkpt>
      <trkpt lat="46.71292" lon="5.50487">
        <ele>233.2</ele>
        <time>2022-03-09T15:06:53Z</time>
      </trkpt>
      <trkpt lat="46.71293" lon="5.50487">
        <ele>233.2</ele>
        <time>2022-03-09T15:06:56Z</time>
      </trkpt>
      <trkpt lat="46.71293" lon="5.50487">
        <ele>233.2</ele>
        <time>2022-03-09T15:06:57Z</time>
      </trkpt>
      <trkpt lat="46.71293" lon="5.50486">
        <ele>233.2</ele>
        <time>2022-03-09T15:06:59Z</time>
      </trkpt>
      <trkpt lat="46.71293" lon="5.50486">
        <ele>233.2</ele>
        <time>2022-03-09T15:07:00Z</time>
      </trkpt>
      <trkpt lat="46.71293" lon="5.50486">
        <ele>233.2</ele>
        <time>2022-03-09T15:07:02Z</time>
      </trkpt>
      <trkpt lat="46.71293" lon="5.50485">
        <ele>233.2</ele>
        <time>2022-03-09T15:07:03Z</time>
      </trkpt>
      <trkpt lat="46.71293" lon="5.50485">
        <ele>233.2</ele>
        <time>2022-03-09T15:07:04Z</time>
      </trkpt>
      <trkpt lat="46.71293" lon="5.50485">
        <ele>233.2</ele>
        <time>2022-03-09T15:07:05Z</time>
      </trkpt>
      <trkpt lat="46.71293" lon="5.50484">
        <ele>233.2</ele>
        <time>2022-03-09T15:07:06Z</time>
      </trkpt>
      <trkpt lat="46.71293" lon="5.50484">
        <ele>233.2</ele>
        <time>2022-03-09T15:07:07Z</time>
      </trkpt>
      <trkpt lat="46.71294" lon="5.50484">
        <ele>233.2</ele>
        <time>2022-03-09T15:07:08Z</time>
      </trkpt>
      <trkpt lat="46.71294" lon="5.50483">
        <ele>233.2</ele>
        <time>2022-03-09T15:07:09Z</time>
      </trkpt>
      <trkpt lat="46.71294" lon="5.50483">
        <ele>233.2</ele>
        <time>2022-03-09T15:07:10Z</time>
      </trkpt>
      <trkpt lat="46.71295" lon="5.5048">
        <ele>233.2</ele>
        <time>2022-03-09T15:07:11Z</time>
      </trkpt>
      <trkpt lat="46.71295" lon="5.50477">
        <ele>233.2</ele>
        <time>2022-03-09T15:07:12Z</time>
      </trkpt>
      <trkpt lat="46.71296" lon="5.50474">
        <ele>233.6</ele>
        <time>2022-03-09T15:07:13Z</time>
      </trkpt>
      <trkpt lat="46.71298" lon="5.50471">
        <ele>233.6</ele>
        <time>2022-03-09T15:07:14Z</time>
      </trkpt>
      <trkpt lat="46.713" lon="5.50467">
        <ele>233.6</ele>
        <time>2022-03-09T15:07:15Z</time>
      </trkpt>
      <trkpt lat="46.71303" lon="5.50462">
        <ele>233.6</ele>
        <time>2022-03-09T15:07:16Z</time>
      </trkpt>
      <trkpt lat="46.71306" lon="5.50457">
        <ele>233.6</ele>
        <time>2022-03-09T15:07:17Z</time>
      </trkpt>
      <trkpt lat="46.71309" lon="5.50452">
        <ele>233.6</ele>
        <time>2022-03-09T15:07:18Z</time>
      </trkpt>
      <trkpt lat="46.71312" lon="5.50447">
        <ele>233.6</ele>
        <time>2022-03-09T15:07:19Z</time>
      </trkpt>
      <trkpt lat="46.71314" lon="5.50441">
        <ele>233.6</ele>
        <time>2022-03-09T15:07:20Z</time>
      </trkpt>
      <trkpt lat="46.71317" lon="5.50436">
        <ele>233.6</ele>
        <time>2022-03-09T15:07:21Z</time>
      </trkpt>
      <trkpt lat="46.7132" lon="5.50431">
        <ele>233.2</ele>
        <time>2022-03-09T15:07:22Z</time>
      </trkpt>
      <trkpt lat="46.71322" lon="5.50425">
        <ele>233.2</ele>
        <time>2022-03-09T15:07:23Z</time>
      </trkpt>
      <trkpt lat="46.71324" lon="5.50419">
        <ele>233.2</ele>
        <time>2022-03-09T15:07:24Z</time>
      </trkpt>
      <trkpt lat="46.71326" lon="5.50413">
        <ele>233.2</ele>
        <time>2022-03-09T15:07:25Z</time>
      </trkpt>
      <trkpt lat="46.71329" lon="5.50407">
        <ele>233.2</ele>
        <time>2022-03-09T15:07:26Z</time>
      </trkpt>
      <trkpt lat="46.71332" lon="5.50402">
        <ele>233.2</ele>
        <time>2022-03-09T15:07:27Z</time>
      </trkpt>
      <trkpt lat="46.71334" lon="5.50396">
        <ele>233.2</ele>
        <time>2022-03-09T15:07:28Z</time>
      </trkpt>
      <trkpt lat="46.71337" lon="5.5039">
        <ele>233.2</ele>
        <time>2022-03-09T15:07:29Z</time>
      </trkpt>
      <trkpt lat="46.71339" lon="5.50385">
        <ele>233</ele>
        <time>2022-03-09T15:07:30Z</time>
      </trkpt>
      <trkpt lat="46.71342" lon="5.50379">
        <ele>233</ele>
        <time>2022-03-09T15:07:31Z</time>
      </trkpt>
      <trkpt lat="46.71344" lon="5.50372">
        <ele>233</ele>
        <time>2022-03-09T15:07:32Z</time>
      </trkpt>
      <trkpt lat="46.71347" lon="5.50366">
        <ele>233</ele>
        <time>2022-03-09T15:07:33Z</time>
      </trkpt>
      <trkpt lat="46.71349" lon="5.50359">
        <ele>233</ele>
        <time>2022-03-09T15:07:34Z</time>
      </trkpt>
      <trkpt lat="46.71351" lon="5.50353">
        <ele>233</ele>
        <time>2022-03-09T15:07:35Z</time>
      </trkpt>
      <trkpt lat="46.71354" lon="5.50346">
        <ele>233</ele>
        <time>2022-03-09T15:07:36Z</time>
      </trkpt>
      <trkpt lat="46.71355" lon="5.5034">
        <ele>233</ele>
        <time>2022-03-09T15:07:37Z</time>
      </trkpt>
      <trkpt lat="46.71358" lon="5.50333">
        <ele>233</ele>
        <time>2022-03-09T15:07:38Z</time>
      </trkpt>
      <trkpt lat="46.7136" lon="5.50327">
        <ele>233</ele>
        <time>2022-03-09T15:07:39Z</time>
      </trkpt>
      <trkpt lat="46.71363" lon="5.50321">
        <ele>233</ele>
        <time>2022-03-09T15:07:40Z</time>
      </trkpt>
      <trkpt lat="46.71366" lon="5.50314">
        <ele>233</ele>
        <time>2022-03-09T15:07:41Z</time>
      </trkpt>
      <trkpt lat="46.71369" lon="5.50309">
        <ele>233</ele>
        <time>2022-03-09T15:07:42Z</time>
      </trkpt>
      <trkpt lat="46.71372" lon="5.50302">
        <ele>233</ele>
        <time>2022-03-09T15:07:43Z</time>
      </trkpt>
      <trkpt lat="46.71376" lon="5.50296">
        <ele>233</ele>
        <time>2022-03-09T15:07:44Z</time>
      </trkpt>
      <trkpt lat="46.71379" lon="5.50291">
        <ele>233</ele>
        <time>2022-03-09T15:07:45Z</time>
      </trkpt>
      <trkpt lat="46.71382" lon="5.50285">
        <ele>233</ele>
        <time>2022-03-09T15:07:46Z</time>
      </trkpt>
      <trkpt lat="46.71386" lon="5.50279">
        <ele>232.8</ele>
        <time>2022-03-09T15:07:47Z</time>
      </trkpt>
      <trkpt lat="46.7139" lon="5.50272">
        <ele>232.8</ele>
        <time>2022-03-09T15:07:48Z</time>
      </trkpt>
      <trkpt lat="46.71394" lon="5.50266">
        <ele>232.8</ele>
        <time>2022-03-09T15:07:49Z</time>
      </trkpt>
      <trkpt lat="46.71398" lon="5.5026">
        <ele>232.6</ele>
        <time>2022-03-09T15:07:50Z</time>
      </trkpt>
      <trkpt lat="46.71403" lon="5.50253">
        <ele>232.6</ele>
        <time>2022-03-09T15:07:51Z</time>
      </trkpt>
      <trkpt lat="46.71407" lon="5.50247">
        <ele>232.6</ele>
        <time>2022-03-09T15:07:52Z</time>
      </trkpt>
      <trkpt lat="46.71412" lon="5.5024">
        <ele>232.2</ele>
        <time>2022-03-09T15:07:53Z</time>
      </trkpt>
      <trkpt lat="46.71417" lon="5.50234">
        <ele>232.2</ele>
        <time>2022-03-09T15:07:54Z</time>
      </trkpt>
      <trkpt lat="46.71421" lon="5.50228">
        <ele>232.2</ele>
        <time>2022-03-09T15:07:55Z</time>
      </trkpt>
      <trkpt lat="46.71426" lon="5.50223">
        <ele>232.2</ele>
        <time>2022-03-09T15:07:56Z</time>
      </trkpt>
      <trkpt lat="46.71431" lon="5.50217">
        <ele>231.8</ele>
        <time>2022-03-09T15:07:57Z</time>
      </trkpt>
      <trkpt lat="46.71436" lon="5.5021">
        <ele>231.8</ele>
        <time>2022-03-09T15:07:58Z</time>
      </trkpt>
      <trkpt lat="46.71441" lon="5.50204">
        <ele>231.8</ele>
        <time>2022-03-09T15:07:59Z</time>
      </trkpt>
      <trkpt lat="46.71446" lon="5.50198">
        <ele>231.6</ele>
        <time>2022-03-09T15:08:00Z</time>
      </trkpt>
      <trkpt lat="46.71451" lon="5.50191">
        <ele>231.6</ele>
        <time>2022-03-09T15:08:01Z</time>
      </trkpt>
      <trkpt lat="46.71455" lon="5.50185">
        <ele>231.6</ele>
        <time>2022-03-09T15:08:02Z</time>
      </trkpt>
      <trkpt lat="46.71459" lon="5.50179">
        <ele>231.6</ele>
        <time>2022-03-09T15:08:03Z</time>
      </trkpt>
      <trkpt lat="46.71464" lon="5.50173">
        <ele>231.6</ele>
        <time>2022-03-09T15:08:04Z</time>
      </trkpt>
      <trkpt lat="46.71468" lon="5.50167">
        <ele>231.6</ele>
        <time>2022-03-09T15:08:05Z</time>
      </trkpt>
      <trkpt lat="46.71473" lon="5.5016">
        <ele>231.4</ele>
        <time>2022-03-09T15:08:06Z</time>
      </trkpt>
      <trkpt lat="46.71477" lon="5.50154">
        <ele>231.4</ele>
        <time>2022-03-09T15:08:07Z</time>
      </trkpt>
      <trkpt lat="46.71482" lon="5.50148">
        <ele>231.4</ele>
        <time>2022-03-09T15:08:08Z</time>
      </trkpt>
      <trkpt lat="46.71486" lon="5.50141">
        <ele>231.4</ele>
        <time>2022-03-09T15:08:09Z</time>
      </trkpt>
      <trkpt lat="46.71491" lon="5.50134">
        <ele>231.4</ele>
        <time>2022-03-09T15:08:10Z</time>
      </trkpt>
      <trkpt lat="46.71495" lon="5.50128">
        <ele>231.4</ele>
        <time>2022-03-09T15:08:11Z</time>
      </trkpt>
      <trkpt lat="46.715" lon="5.50122">
        <ele>231.4</ele>
        <time>2022-03-09T15:08:12Z</time>
      </trkpt>
      <trkpt lat="46.71505" lon="5.50116">
        <ele>231.4</ele>
        <time>2022-03-09T15:08:13Z</time>
      </trkpt>
      <trkpt lat="46.71509" lon="5.5011">
        <ele>231.4</ele>
        <time>2022-03-09T15:08:14Z</time>
      </trkpt>
      <trkpt lat="46.71514" lon="5.50105">
        <ele>231.4</ele>
        <time>2022-03-09T15:08:15Z</time>
      </trkpt>
      <trkpt lat="46.71519" lon="5.50099">
        <ele>231.4</ele>
        <time>2022-03-09T15:08:16Z</time>
      </trkpt>
      <trkpt lat="46.71524" lon="5.50094">
        <ele>231.4</ele>
        <time>2022-03-09T15:08:17Z</time>
      </trkpt>
      <trkpt lat="46.71528" lon="5.50089">
        <ele>231.4</ele>
        <time>2022-03-09T15:08:18Z</time>
      </trkpt>
      <trkpt lat="46.71533" lon="5.50084">
        <ele>231.4</ele>
        <time>2022-03-09T15:08:19Z</time>
      </trkpt>
      <trkpt lat="46.71537" lon="5.50079">
        <ele>231.4</ele>
        <time>2022-03-09T15:08:20Z</time>
      </trkpt>
      <trkpt lat="46.71542" lon="5.50073">
        <ele>231.4</ele>
        <time>2022-03-09T15:08:21Z</time>
      </trkpt>
      <trkpt lat="46.71546" lon="5.50068">
        <ele>231.4</ele>
        <time>2022-03-09T15:08:22Z</time>
      </trkpt>
      <trkpt lat="46.71551" lon="5.50062">
        <ele>231.4</ele>
        <time>2022-03-09T15:08:23Z</time>
      </trkpt>
      <trkpt lat="46.71555" lon="5.50055">
        <ele>231.4</ele>
        <time>2022-03-09T15:08:24Z</time>
      </trkpt>
      <trkpt lat="46.7156" lon="5.50049">
        <ele>231.4</ele>
        <time>2022-03-09T15:08:25Z</time>
      </trkpt>
      <trkpt lat="46.71564" lon="5.50042">
        <ele>231.4</ele>
        <time>2022-03-09T15:08:26Z</time>
      </trkpt>
      <trkpt lat="46.71569" lon="5.50036">
        <ele>231.4</ele>
        <time>2022-03-09T15:08:27Z</time>
      </trkpt>
      <trkpt lat="46.71573" lon="5.50029">
        <ele>231.4</ele>
        <time>2022-03-09T15:08:28Z</time>
      </trkpt>
      <trkpt lat="46.71578" lon="5.50022">
        <ele>231.4</ele>
        <time>2022-03-09T15:08:29Z</time>
      </trkpt>
      <trkpt lat="46.71583" lon="5.50015">
        <ele>231.2</ele>
        <time>2022-03-09T15:08:30Z</time>
      </trkpt>
      <trkpt lat="46.71588" lon="5.50009">
        <ele>231.2</ele>
        <time>2022-03-09T15:08:31Z</time>
      </trkpt>
      <trkpt lat="46.71592" lon="5.50002">
        <ele>231.2</ele>
        <time>2022-03-09T15:08:32Z</time>
      </trkpt>
      <trkpt lat="46.71597" lon="5.49994">
        <ele>231.2</ele>
        <time>2022-03-09T15:08:33Z</time>
      </trkpt>
      <trkpt lat="46.71601" lon="5.49986">
        <ele>231</ele>
        <time>2022-03-09T15:08:34Z</time>
      </trkpt>
      <trkpt lat="46.71606" lon="5.49979">
        <ele>231</ele>
        <time>2022-03-09T15:08:35Z</time>
      </trkpt>
      <trkpt lat="46.7161" lon="5.49971">
        <ele>230.8</ele>
        <time>2022-03-09T15:08:36Z</time>
      </trkpt>
      <trkpt lat="46.71615" lon="5.49963">
        <ele>230.8</ele>
        <time>2022-03-09T15:08:37Z</time>
      </trkpt>
      <trkpt lat="46.71619" lon="5.49955">
        <ele>230.8</ele>
        <time>2022-03-09T15:08:38Z</time>
      </trkpt>
      <trkpt lat="46.71623" lon="5.49947">
        <ele>230.8</ele>
        <time>2022-03-09T15:08:39Z</time>
      </trkpt>
      <trkpt lat="46.71628" lon="5.49938">
        <ele>230.8</ele>
        <time>2022-03-09T15:08:40Z</time>
      </trkpt>
      <trkpt lat="46.71632" lon="5.4993">
        <ele>230.6</ele>
        <time>2022-03-09T15:08:41Z</time>
      </trkpt>
      <trkpt lat="46.71637" lon="5.49922">
        <ele>230.6</ele>
        <time>2022-03-09T15:08:42Z</time>
      </trkpt>
      <trkpt lat="46.71641" lon="5.49914">
        <ele>230.6</ele>
        <time>2022-03-09T15:08:43Z</time>
      </trkpt>
      <trkpt lat="46.71646" lon="5.49906">
        <ele>230.4</ele>
        <time>2022-03-09T15:08:44Z</time>
      </trkpt>
      <trkpt lat="46.7165" lon="5.49897">
        <ele>230.4</ele>
        <time>2022-03-09T15:08:45Z</time>
      </trkpt>
      <trkpt lat="46.71654" lon="5.49889">
        <ele>230.4</ele>
        <time>2022-03-09T15:08:46Z</time>
      </trkpt>
      <trkpt lat="46.71659" lon="5.4988">
        <ele>230.4</ele>
        <time>2022-03-09T15:08:47Z</time>
      </trkpt>
      <trkpt lat="46.71663" lon="5.49872">
        <ele>230.4</ele>
        <time>2022-03-09T15:08:48Z</time>
      </trkpt>
      <trkpt lat="46.71668" lon="5.49864">
        <ele>230.4</ele>
        <time>2022-03-09T15:08:49Z</time>
      </trkpt>
      <trkpt lat="46.71672" lon="5.49857">
        <ele>230.4</ele>
        <time>2022-03-09T15:08:50Z</time>
      </trkpt>
      <trkpt lat="46.71677" lon="5.49849">
        <ele>230.4</ele>
        <time>2022-03-09T15:08:51Z</time>
      </trkpt>
      <trkpt lat="46.71682" lon="5.49842">
        <ele>230.4</ele>
        <time>2022-03-09T15:08:52Z</time>
      </trkpt>
      <trkpt lat="46.71687" lon="5.49836">
        <ele>230.4</ele>
        <time>2022-03-09T15:08:53Z</time>
      </trkpt>
      <trkpt lat="46.71692" lon="5.4983">
        <ele>230.4</ele>
        <time>2022-03-09T15:08:54Z</time>
      </trkpt>
      <trkpt lat="46.71698" lon="5.49824">
        <ele>230.4</ele>
        <time>2022-03-09T15:08:55Z</time>
      </trkpt>
      <trkpt lat="46.71702" lon="5.49819">
        <ele>230.4</ele>
        <time>2022-03-09T15:08:56Z</time>
      </trkpt>
      <trkpt lat="46.71707" lon="5.49814">
        <ele>230.4</ele>
        <time>2022-03-09T15:08:57Z</time>
      </trkpt>
      <trkpt lat="46.71712" lon="5.4981">
        <ele>230.4</ele>
        <time>2022-03-09T15:08:58Z</time>
      </trkpt>
      <trkpt lat="46.71717" lon="5.49806">
        <ele>230.4</ele>
        <time>2022-03-09T15:08:59Z</time>
      </trkpt>
      <trkpt lat="46.71721" lon="5.49801">
        <ele>230.4</ele>
        <time>2022-03-09T15:09:00Z</time>
      </trkpt>
      <trkpt lat="46.71726" lon="5.49798">
        <ele>230.6</ele>
        <time>2022-03-09T15:09:01Z</time>
      </trkpt>
      <trkpt lat="46.7173" lon="5.49794">
        <ele>230.6</ele>
        <time>2022-03-09T15:09:02Z</time>
      </trkpt>
      <trkpt lat="46.71734" lon="5.49789">
        <ele>230.8</ele>
        <time>2022-03-09T15:09:03Z</time>
      </trkpt>
      <trkpt lat="46.71737" lon="5.49784">
        <ele>230.8</ele>
        <time>2022-03-09T15:09:04Z</time>
      </trkpt>
      <trkpt lat="46.71741" lon="5.49779">
        <ele>230.8</ele>
        <time>2022-03-09T15:09:05Z</time>
      </trkpt>
      <trkpt lat="46.71745" lon="5.49773">
        <ele>230.8</ele>
        <time>2022-03-09T15:09:06Z</time>
      </trkpt>
      <trkpt lat="46.7175" lon="5.49768">
        <ele>230.8</ele>
        <time>2022-03-09T15:09:07Z</time>
      </trkpt>
      <trkpt lat="46.71754" lon="5.49762">
        <ele>230.8</ele>
        <time>2022-03-09T15:09:08Z</time>
      </trkpt>
      <trkpt lat="46.71759" lon="5.49756">
        <ele>230.8</ele>
        <time>2022-03-09T15:09:09Z</time>
      </trkpt>
      <trkpt lat="46.71764" lon="5.4975">
        <ele>230.8</ele>
        <time>2022-03-09T15:09:10Z</time>
      </trkpt>
      <trkpt lat="46.71769" lon="5.49743">
        <ele>230.6</ele>
        <time>2022-03-09T15:09:11Z</time>
      </trkpt>
      <trkpt lat="46.71774" lon="5.49737">
        <ele>230.6</ele>
        <time>2022-03-09T15:09:12Z</time>
      </trkpt>
      <trkpt lat="46.7178" lon="5.49731">
        <ele>230.6</ele>
        <time>2022-03-09T15:09:13Z</time>
      </trkpt>
      <trkpt lat="46.71786" lon="5.49726">
        <ele>230.2</ele>
        <time>2022-03-09T15:09:14Z</time>
      </trkpt>
      <trkpt lat="46.71792" lon="5.49719">
        <ele>230</ele>
        <time>2022-03-09T15:09:15Z</time>
      </trkpt>
      <trkpt lat="46.71797" lon="5.49713">
        <ele>229.6</ele>
        <time>2022-03-09T15:09:16Z</time>
      </trkpt>
      <trkpt lat="46.71803" lon="5.49707">
        <ele>229.2</ele>
        <time>2022-03-09T15:09:17Z</time>
      </trkpt>
      <trkpt lat="46.71808" lon="5.49701">
        <ele>229</ele>
        <time>2022-03-09T15:09:18Z</time>
      </trkpt>
      <trkpt lat="46.71814" lon="5.49695">
        <ele>228.8</ele>
        <time>2022-03-09T15:09:19Z</time>
      </trkpt>
      <trkpt lat="46.7182" lon="5.49689">
        <ele>228.6</ele>
        <time>2022-03-09T15:09:20Z</time>
      </trkpt>
      <trkpt lat="46.71825" lon="5.49682">
        <ele>228.2</ele>
        <time>2022-03-09T15:09:21Z</time>
      </trkpt>
      <trkpt lat="46.7183" lon="5.49675">
        <ele>228</ele>
        <time>2022-03-09T15:09:22Z</time>
      </trkpt>
      <trkpt lat="46.71835" lon="5.4967">
        <ele>227.8</ele>
        <time>2022-03-09T15:09:23Z</time>
      </trkpt>
      <trkpt lat="46.71841" lon="5.49664">
        <ele>227.8</ele>
        <time>2022-03-09T15:09:24Z</time>
      </trkpt>
      <trkpt lat="46.71846" lon="5.49659">
        <ele>227.4</ele>
        <time>2022-03-09T15:09:25Z</time>
      </trkpt>
      <trkpt lat="46.71851" lon="5.49653">
        <ele>227.2</ele>
        <time>2022-03-09T15:09:26Z</time>
      </trkpt>
      <trkpt lat="46.71857" lon="5.49647">
        <ele>227.2</ele>
        <time>2022-03-09T15:09:27Z</time>
      </trkpt>
      <trkpt lat="46.71862" lon="5.49641">
        <ele>226.8</ele>
        <time>2022-03-09T15:09:28Z</time>
      </trkpt>
      <trkpt lat="46.71868" lon="5.49634">
        <ele>226.4</ele>
        <time>2022-03-09T15:09:29Z</time>
      </trkpt>
      <trkpt lat="46.71873" lon="5.49628">
        <ele>226.2</ele>
        <time>2022-03-09T15:09:30Z</time>
      </trkpt>
      <trkpt lat="46.71878" lon="5.49621">
        <ele>226.2</ele>
        <time>2022-03-09T15:09:31Z</time>
      </trkpt>
      <trkpt lat="46.71884" lon="5.49614">
        <ele>225.8</ele>
        <time>2022-03-09T15:09:32Z</time>
      </trkpt>
      <trkpt lat="46.71889" lon="5.49608">
        <ele>225.8</ele>
        <time>2022-03-09T15:09:33Z</time>
      </trkpt>
      <trkpt lat="46.71895" lon="5.49601">
        <ele>225.4</ele>
        <time>2022-03-09T15:09:34Z</time>
      </trkpt>
      <trkpt lat="46.719" lon="5.49594">
        <ele>225.4</ele>
        <time>2022-03-09T15:09:35Z</time>
      </trkpt>
      <trkpt lat="46.719" lon="5.49594">
        <ele>225</ele>
        <time>2022-03-09T15:09:36Z</time>
      </trkpt>
      <trkpt lat="46.71905" lon="5.49586">
        <ele>225</ele>
        <time>2022-03-09T15:09:37Z</time>
      </trkpt>
      <trkpt lat="46.71909" lon="5.49578">
        <ele>224.8</ele>
        <time>2022-03-09T15:09:38Z</time>
      </trkpt>
      <trkpt lat="46.71913" lon="5.49569">
        <ele>224.8</ele>
        <time>2022-03-09T15:09:39Z</time>
      </trkpt>
      <trkpt lat="46.71918" lon="5.4956">
        <ele>224.6</ele>
        <time>2022-03-09T15:09:40Z</time>
      </trkpt>
      <trkpt lat="46.71922" lon="5.49552">
        <ele>224.6</ele>
        <time>2022-03-09T15:09:41Z</time>
      </trkpt>
      <trkpt lat="46.71925" lon="5.49543">
        <ele>224.2</ele>
        <time>2022-03-09T15:09:42Z</time>
      </trkpt>
      <trkpt lat="46.71929" lon="5.49533">
        <ele>224.2</ele>
        <time>2022-03-09T15:09:43Z</time>
      </trkpt>
      <trkpt lat="46.71933" lon="5.49524">
        <ele>224.2</ele>
        <time>2022-03-09T15:09:44Z</time>
      </trkpt>
      <trkpt lat="46.71936" lon="5.49515">
        <ele>224</ele>
        <time>2022-03-09T15:09:45Z</time>
      </trkpt>
      <trkpt lat="46.7194" lon="5.49506">
        <ele>224</ele>
        <time>2022-03-09T15:09:46Z</time>
      </trkpt>
      <trkpt lat="46.71945" lon="5.49498">
        <ele>224</ele>
        <time>2022-03-09T15:09:47Z</time>
      </trkpt>
      <trkpt lat="46.7195" lon="5.4949">
        <ele>223.8</ele>
        <time>2022-03-09T15:09:48Z</time>
      </trkpt>
      <trkpt lat="46.71955" lon="5.49483">
        <ele>223.8</ele>
        <time>2022-03-09T15:09:49Z</time>
      </trkpt>
      <trkpt lat="46.71961" lon="5.49477">
        <ele>223.8</ele>
        <time>2022-03-09T15:09:50Z</time>
      </trkpt>
      <trkpt lat="46.71967" lon="5.49472">
        <ele>223.8</ele>
        <time>2022-03-09T15:09:51Z</time>
      </trkpt>
      <trkpt lat="46.71973" lon="5.49467">
        <ele>223.4</ele>
        <time>2022-03-09T15:09:52Z</time>
      </trkpt>
      <trkpt lat="46.71979" lon="5.49462">
        <ele>223.4</ele>
        <time>2022-03-09T15:09:53Z</time>
      </trkpt>
      <trkpt lat="46.71984" lon="5.49458">
        <ele>223.4</ele>
        <time>2022-03-09T15:09:54Z</time>
      </trkpt>
      <trkpt lat="46.7199" lon="5.49453">
        <ele>223.4</ele>
        <time>2022-03-09T15:09:55Z</time>
      </trkpt>
      <trkpt lat="46.71996" lon="5.49449">
        <ele>223.6</ele>
        <time>2022-03-09T15:09:56Z</time>
      </trkpt>
      <trkpt lat="46.72002" lon="5.49445">
        <ele>223.6</ele>
        <time>2022-03-09T15:09:57Z</time>
      </trkpt>
      <trkpt lat="46.72007" lon="5.49441">
        <ele>223.6</ele>
        <time>2022-03-09T15:09:58Z</time>
      </trkpt>
      <trkpt lat="46.72013" lon="5.49436">
        <ele>223.6</ele>
        <time>2022-03-09T15:09:59Z</time>
      </trkpt>
      <trkpt lat="46.72018" lon="5.49432">
        <ele>223.8</ele>
        <time>2022-03-09T15:10:00Z</time>
      </trkpt>
      <trkpt lat="46.72023" lon="5.49428">
        <ele>223.8</ele>
        <time>2022-03-09T15:10:01Z</time>
      </trkpt>
      <trkpt lat="46.72029" lon="5.49424">
        <ele>224.2</ele>
        <time>2022-03-09T15:10:02Z</time>
      </trkpt>
      <trkpt lat="46.72034" lon="5.4942">
        <ele>224.2</ele>
        <time>2022-03-09T15:10:03Z</time>
      </trkpt>
      <trkpt lat="46.72039" lon="5.49417">
        <ele>224.2</ele>
        <time>2022-03-09T15:10:04Z</time>
      </trkpt>
      <trkpt lat="46.72044" lon="5.49413">
        <ele>224.2</ele>
        <time>2022-03-09T15:10:05Z</time>
      </trkpt>
      <trkpt lat="46.72049" lon="5.49409">
        <ele>224.4</ele>
        <time>2022-03-09T15:10:06Z</time>
      </trkpt>
      <trkpt lat="46.72053" lon="5.49405">
        <ele>224.4</ele>
        <time>2022-03-09T15:10:07Z</time>
      </trkpt>
      <trkpt lat="46.72058" lon="5.49401">
        <ele>224.4</ele>
        <time>2022-03-09T15:10:08Z</time>
      </trkpt>
      <trkpt lat="46.72063" lon="5.49398">
        <ele>224.4</ele>
        <time>2022-03-09T15:10:09Z</time>
      </trkpt>
      <trkpt lat="46.72068" lon="5.49394">
        <ele>224.6</ele>
        <time>2022-03-09T15:10:10Z</time>
      </trkpt>
      <trkpt lat="46.72073" lon="5.4939">
        <ele>224.6</ele>
        <time>2022-03-09T15:10:11Z</time>
      </trkpt>
      <trkpt lat="46.72078" lon="5.49387">
        <ele>224.8</ele>
        <time>2022-03-09T15:10:12Z</time>
      </trkpt>
      <trkpt lat="46.72083" lon="5.49383">
        <ele>224.8</ele>
        <time>2022-03-09T15:10:13Z</time>
      </trkpt>
      <trkpt lat="46.72087" lon="5.4938">
        <ele>225.2</ele>
        <time>2022-03-09T15:10:14Z</time>
      </trkpt>
      <trkpt lat="46.72092" lon="5.49377">
        <ele>225.2</ele>
        <time>2022-03-09T15:10:15Z</time>
      </trkpt>
      <trkpt lat="46.72097" lon="5.49374">
        <ele>225.2</ele>
        <time>2022-03-09T15:10:16Z</time>
      </trkpt>
      <trkpt lat="46.72102" lon="5.49372">
        <ele>225.6</ele>
        <time>2022-03-09T15:10:17Z</time>
      </trkpt>
      <trkpt lat="46.72106" lon="5.49371">
        <ele>225.6</ele>
        <time>2022-03-09T15:10:18Z</time>
      </trkpt>
      <trkpt lat="46.72111" lon="5.49369">
        <ele>225.6</ele>
        <time>2022-03-09T15:10:19Z</time>
      </trkpt>
      <trkpt lat="46.72116" lon="5.49368">
        <ele>225.6</ele>
        <time>2022-03-09T15:10:20Z</time>
      </trkpt>
      <trkpt lat="46.72122" lon="5.49368">
        <ele>225.6</ele>
        <time>2022-03-09T15:10:21Z</time>
      </trkpt>
      <trkpt lat="46.72127" lon="5.49367">
        <ele>225.8</ele>
        <time>2022-03-09T15:10:22Z</time>
      </trkpt>
      <trkpt lat="46.72132" lon="5.49367">
        <ele>225.8</ele>
        <time>2022-03-09T15:10:23Z</time>
      </trkpt>
      <trkpt lat="46.72137" lon="5.49367">
        <ele>225.8</ele>
        <time>2022-03-09T15:10:24Z</time>
      </trkpt>
      <trkpt lat="46.72142" lon="5.49367">
        <ele>225.8</ele>
        <time>2022-03-09T15:10:25Z</time>
      </trkpt>
      <trkpt lat="46.72147" lon="5.49368">
        <ele>225.8</ele>
        <time>2022-03-09T15:10:26Z</time>
      </trkpt>
      <trkpt lat="46.72153" lon="5.4937">
        <ele>225.8</ele>
        <time>2022-03-09T15:10:27Z</time>
      </trkpt>
      <trkpt lat="46.72158" lon="5.49373">
        <ele>225.8</ele>
        <time>2022-03-09T15:10:28Z</time>
      </trkpt>
      <trkpt lat="46.72163" lon="5.49376">
        <ele>226</ele>
        <time>2022-03-09T15:10:29Z</time>
      </trkpt>
      <trkpt lat="46.72167" lon="5.4938">
        <ele>226</ele>
        <time>2022-03-09T15:10:30Z</time>
      </trkpt>
      <trkpt lat="46.72172" lon="5.49385">
        <ele>226</ele>
        <time>2022-03-09T15:10:31Z</time>
      </trkpt>
      <trkpt lat="46.72176" lon="5.49391">
        <ele>226</ele>
        <time>2022-03-09T15:10:32Z</time>
      </trkpt>
      <trkpt lat="46.72179" lon="5.49398">
        <ele>226</ele>
        <time>2022-03-09T15:10:33Z</time>
      </trkpt>
      <trkpt lat="46.72183" lon="5.49404">
        <ele>226</ele>
        <time>2022-03-09T15:10:34Z</time>
      </trkpt>
      <trkpt lat="46.72186" lon="5.49411">
        <ele>226</ele>
        <time>2022-03-09T15:10:35Z</time>
      </trkpt>
      <trkpt lat="46.7219" lon="5.49418">
        <ele>226</ele>
        <time>2022-03-09T15:10:36Z</time>
      </trkpt>
      <trkpt lat="46.72194" lon="5.49425">
        <ele>226</ele>
        <time>2022-03-09T15:10:37Z</time>
      </trkpt>
      <trkpt lat="46.72198" lon="5.49432">
        <ele>226</ele>
        <time>2022-03-09T15:10:38Z</time>
      </trkpt>
      <trkpt lat="46.72203" lon="5.49439">
        <ele>226</ele>
        <time>2022-03-09T15:10:39Z</time>
      </trkpt>
      <trkpt lat="46.72207" lon="5.49446">
        <ele>226</ele>
        <time>2022-03-09T15:10:40Z</time>
      </trkpt>
      <trkpt lat="46.72211" lon="5.49452">
        <ele>226</ele>
        <time>2022-03-09T15:10:41Z</time>
      </trkpt>
      <trkpt lat="46.72216" lon="5.49459">
        <ele>226</ele>
        <time>2022-03-09T15:10:42Z</time>
      </trkpt>
      <trkpt lat="46.7222" lon="5.49466">
        <ele>226</ele>
        <time>2022-03-09T15:10:43Z</time>
      </trkpt>
      <trkpt lat="46.72225" lon="5.49472">
        <ele>226</ele>
        <time>2022-03-09T15:10:44Z</time>
      </trkpt>
      <trkpt lat="46.72229" lon="5.49478">
        <ele>226</ele>
        <time>2022-03-09T15:10:45Z</time>
      </trkpt>
      <trkpt lat="46.72234" lon="5.49484">
        <ele>226</ele>
        <time>2022-03-09T15:10:46Z</time>
      </trkpt>
      <trkpt lat="46.72239" lon="5.4949">
        <ele>226</ele>
        <time>2022-03-09T15:10:47Z</time>
      </trkpt>
      <trkpt lat="46.72243" lon="5.49496">
        <ele>226.2</ele>
        <time>2022-03-09T15:10:48Z</time>
      </trkpt>
      <trkpt lat="46.72248" lon="5.49502">
        <ele>226.2</ele>
        <time>2022-03-09T15:10:49Z</time>
      </trkpt>
      <trkpt lat="46.72253" lon="5.49507">
        <ele>226.2</ele>
        <time>2022-03-09T15:10:50Z</time>
      </trkpt>
      <trkpt lat="46.72258" lon="5.49513">
        <ele>226.2</ele>
        <time>2022-03-09T15:10:51Z</time>
      </trkpt>
      <trkpt lat="46.72262" lon="5.49519">
        <ele>226.2</ele>
        <time>2022-03-09T15:10:52Z</time>
      </trkpt>
      <trkpt lat="46.72267" lon="5.49526">
        <ele>226.2</ele>
        <time>2022-03-09T15:10:53Z</time>
      </trkpt>
      <trkpt lat="46.72271" lon="5.49532">
        <ele>226.2</ele>
        <time>2022-03-09T15:10:54Z</time>
      </trkpt>
      <trkpt lat="46.72276" lon="5.49539">
        <ele>226</ele>
        <time>2022-03-09T15:10:55Z</time>
      </trkpt>
      <trkpt lat="46.72281" lon="5.49547">
        <ele>226</ele>
        <time>2022-03-09T15:10:56Z</time>
      </trkpt>
      <trkpt lat="46.72286" lon="5.49554">
        <ele>225.6</ele>
        <time>2022-03-09T15:10:57Z</time>
      </trkpt>
      <trkpt lat="46.72295" lon="5.4957">
        <ele>225.6</ele>
        <time>2022-03-09T15:10:58Z</time>
      </trkpt>
      <trkpt lat="46.723" lon="5.49577">
        <ele>225.6</ele>
        <time>2022-03-09T15:10:59Z</time>
      </trkpt>
      <trkpt lat="46.72304" lon="5.49585">
        <ele>225.6</ele>
        <time>2022-03-09T15:11:00Z</time>
      </trkpt>
      <trkpt lat="46.72309" lon="5.49592">
        <ele>225.6</ele>
        <time>2022-03-09T15:11:01Z</time>
      </trkpt>
      <trkpt lat="46.72313" lon="5.496">
        <ele>225.6</ele>
        <time>2022-03-09T15:11:02Z</time>
      </trkpt>
      <trkpt lat="46.72318" lon="5.49608">
        <ele>225.6</ele>
        <time>2022-03-09T15:11:03Z</time>
      </trkpt>
      <trkpt lat="46.72322" lon="5.49615">
        <ele>225.6</ele>
        <time>2022-03-09T15:11:04Z</time>
      </trkpt>
      <trkpt lat="46.72327" lon="5.49622">
        <ele>225.6</ele>
        <time>2022-03-09T15:11:05Z</time>
      </trkpt>
      <trkpt lat="46.72332" lon="5.49629">
        <ele>225.6</ele>
        <time>2022-03-09T15:11:06Z</time>
      </trkpt>
      <trkpt lat="46.72337" lon="5.49636">
        <ele>225.6</ele>
        <time>2022-03-09T15:11:07Z</time>
      </trkpt>
      <trkpt lat="46.72342" lon="5.49642">
        <ele>225.6</ele>
        <time>2022-03-09T15:11:08Z</time>
      </trkpt>
      <trkpt lat="46.72348" lon="5.49648">
        <ele>225.6</ele>
        <time>2022-03-09T15:11:09Z</time>
      </trkpt>
      <trkpt lat="46.72353" lon="5.49653">
        <ele>225.6</ele>
        <time>2022-03-09T15:11:10Z</time>
      </trkpt>
      <trkpt lat="46.72358" lon="5.49658">
        <ele>225.6</ele>
        <time>2022-03-09T15:11:11Z</time>
      </trkpt>
      <trkpt lat="46.72364" lon="5.49663">
        <ele>225.6</ele>
        <time>2022-03-09T15:11:12Z</time>
      </trkpt>
      <trkpt lat="46.72369" lon="5.49669">
        <ele>225.6</ele>
        <time>2022-03-09T15:11:13Z</time>
      </trkpt>
      <trkpt lat="46.72373" lon="5.49675">
        <ele>225.6</ele>
        <time>2022-03-09T15:11:14Z</time>
      </trkpt>
      <trkpt lat="46.72377" lon="5.49682">
        <ele>225.6</ele>
        <time>2022-03-09T15:11:15Z</time>
      </trkpt>
      <trkpt lat="46.72379" lon="5.49689">
        <ele>225.6</ele>
        <time>2022-03-09T15:11:16Z</time>
      </trkpt>
      <trkpt lat="46.72381" lon="5.49697">
        <ele>225.4</ele>
        <time>2022-03-09T15:11:17Z</time>
      </trkpt>
      <trkpt lat="46.72382" lon="5.49706">
        <ele>225.4</ele>
        <time>2022-03-09T15:11:18Z</time>
      </trkpt>
      <trkpt lat="46.72383" lon="5.49714">
        <ele>225.4</ele>
        <time>2022-03-09T15:11:19Z</time>
      </trkpt>
      <trkpt lat="46.72385" lon="5.49723">
        <ele>225.4</ele>
        <time>2022-03-09T15:11:20Z</time>
      </trkpt>
      <trkpt lat="46.72388" lon="5.49732">
        <ele>225.4</ele>
        <time>2022-03-09T15:11:21Z</time>
      </trkpt>
      <trkpt lat="46.72391" lon="5.4974">
        <ele>225.4</ele>
        <time>2022-03-09T15:11:22Z</time>
      </trkpt>
      <trkpt lat="46.72395" lon="5.49747">
        <ele>225.4</ele>
        <time>2022-03-09T15:11:23Z</time>
      </trkpt>
      <trkpt lat="46.724" lon="5.49754">
        <ele>225.2</ele>
        <time>2022-03-09T15:11:24Z</time>
      </trkpt>
      <trkpt lat="46.72405" lon="5.4976">
        <ele>225.2</ele>
        <time>2022-03-09T15:11:25Z</time>
      </trkpt>
      <trkpt lat="46.72411" lon="5.49766">
        <ele>224.8</ele>
        <time>2022-03-09T15:11:26Z</time>
      </trkpt>
      <trkpt lat="46.72418" lon="5.49771">
        <ele>224.6</ele>
        <time>2022-03-09T15:11:27Z</time>
      </trkpt>
      <trkpt lat="46.72425" lon="5.49777">
        <ele>224.6</ele>
        <time>2022-03-09T15:11:28Z</time>
      </trkpt>
      <trkpt lat="46.72432" lon="5.49783">
        <ele>224.2</ele>
        <time>2022-03-09T15:11:29Z</time>
      </trkpt>
      <trkpt lat="46.72439" lon="5.49789">
        <ele>224</ele>
        <time>2022-03-09T15:11:30Z</time>
      </trkpt>
      <trkpt lat="46.72446" lon="5.49795">
        <ele>223.8</ele>
        <time>2022-03-09T15:11:31Z</time>
      </trkpt>
      <trkpt lat="46.72453" lon="5.498">
        <ele>223.4</ele>
        <time>2022-03-09T15:11:32Z</time>
      </trkpt>
      <trkpt lat="46.72461" lon="5.49805">
        <ele>223.2</ele>
        <time>2022-03-09T15:11:33Z</time>
      </trkpt>
      <trkpt lat="46.72475" lon="5.49815">
        <ele>223</ele>
        <time>2022-03-09T15:11:34Z</time>
      </trkpt>
      <trkpt lat="46.72482" lon="5.49819">
        <ele>223</ele>
        <time>2022-03-09T15:11:35Z</time>
      </trkpt>
      <trkpt lat="46.72489" lon="5.49824">
        <ele>222.8</ele>
        <time>2022-03-09T15:11:36Z</time>
      </trkpt>
      <trkpt lat="46.72495" lon="5.49829">
        <ele>222.8</ele>
        <time>2022-03-09T15:11:37Z</time>
      </trkpt>
      <trkpt lat="46.72502" lon="5.49835">
        <ele>222.4</ele>
        <time>2022-03-09T15:11:38Z</time>
      </trkpt>
      <trkpt lat="46.72509" lon="5.4984">
        <ele>222.4</ele>
        <time>2022-03-09T15:11:39Z</time>
      </trkpt>
      <trkpt lat="46.72515" lon="5.49845">
        <ele>222.2</ele>
        <time>2022-03-09T15:11:40Z</time>
      </trkpt>
      <trkpt lat="46.72522" lon="5.49851">
        <ele>222.2</ele>
        <time>2022-03-09T15:11:41Z</time>
      </trkpt>
      <trkpt lat="46.72528" lon="5.49857">
        <ele>222.2</ele>
        <time>2022-03-09T15:11:42Z</time>
      </trkpt>
      <trkpt lat="46.72534" lon="5.49863">
        <ele>222.2</ele>
        <time>2022-03-09T15:11:43Z</time>
      </trkpt>
      <trkpt lat="46.72534" lon="5.49863">
        <ele>222.2</ele>
        <time>2022-03-09T15:11:44Z</time>
      </trkpt>
      <trkpt lat="46.7254" lon="5.49868">
        <ele>222</ele>
        <time>2022-03-09T15:11:45Z</time>
      </trkpt>
      <trkpt lat="46.72546" lon="5.49874">
        <ele>222</ele>
        <time>2022-03-09T15:11:46Z</time>
      </trkpt>
      <trkpt lat="46.72551" lon="5.49879">
        <ele>222</ele>
        <time>2022-03-09T15:11:47Z</time>
      </trkpt>
      <trkpt lat="46.7256" lon="5.49886">
        <ele>221.6</ele>
        <time>2022-03-09T15:11:48Z</time>
      </trkpt>
      <trkpt lat="46.72563" lon="5.49889">
        <ele>221.6</ele>
        <time>2022-03-09T15:11:49Z</time>
      </trkpt>
      <trkpt lat="46.72568" lon="5.49894">
        <ele>221.6</ele>
        <time>2022-03-09T15:11:50Z</time>
      </trkpt>
      <trkpt lat="46.72576" lon="5.49902">
        <ele>221.6</ele>
        <time>2022-03-09T15:11:51Z</time>
      </trkpt>
      <trkpt lat="46.72579" lon="5.49905">
        <ele>221.6</ele>
        <time>2022-03-09T15:11:52Z</time>
      </trkpt>
      <trkpt lat="46.72585" lon="5.49911">
        <ele>221.6</ele>
        <time>2022-03-09T15:11:53Z</time>
      </trkpt>
      <trkpt lat="46.72591" lon="5.49916">
        <ele>221.6</ele>
        <time>2022-03-09T15:11:54Z</time>
      </trkpt>
      <trkpt lat="46.72597" lon="5.49922">
        <ele>221.6</ele>
        <time>2022-03-09T15:11:55Z</time>
      </trkpt>
      <trkpt lat="46.72603" lon="5.49927">
        <ele>221.6</ele>
        <time>2022-03-09T15:11:56Z</time>
      </trkpt>
      <trkpt lat="46.72611" lon="5.49935">
        <ele>221.6</ele>
        <time>2022-03-09T15:11:57Z</time>
      </trkpt>
      <trkpt lat="46.72614" lon="5.49938">
        <ele>221.6</ele>
        <time>2022-03-09T15:11:58Z</time>
      </trkpt>
      <trkpt lat="46.7262" lon="5.49943">
        <ele>221.6</ele>
        <time>2022-03-09T15:11:59Z</time>
      </trkpt>
      <trkpt lat="46.72626" lon="5.49949">
        <ele>221.6</ele>
        <time>2022-03-09T15:12:00Z</time>
      </trkpt>
      <trkpt lat="46.72631" lon="5.49954">
        <ele>221.8</ele>
        <time>2022-03-09T15:12:01Z</time>
      </trkpt>
      <trkpt lat="46.72637" lon="5.49959">
        <ele>221.8</ele>
        <time>2022-03-09T15:12:02Z</time>
      </trkpt>
      <trkpt lat="46.72642" lon="5.49964">
        <ele>221.8</ele>
        <time>2022-03-09T15:12:03Z</time>
      </trkpt>
      <trkpt lat="46.72647" lon="5.49969">
        <ele>221.8</ele>
        <time>2022-03-09T15:12:04Z</time>
      </trkpt>
      <trkpt lat="46.72655" lon="5.49976">
        <ele>222</ele>
        <time>2022-03-09T15:12:05Z</time>
      </trkpt>
      <trkpt lat="46.72658" lon="5.49978">
        <ele>222</ele>
        <time>2022-03-09T15:12:06Z</time>
      </trkpt>
      <trkpt lat="46.72664" lon="5.49982">
        <ele>222</ele>
        <time>2022-03-09T15:12:07Z</time>
      </trkpt>
      <trkpt lat="46.72669" lon="5.49986">
        <ele>222.4</ele>
        <time>2022-03-09T15:12:08Z</time>
      </trkpt>
      <trkpt lat="46.72674" lon="5.4999">
        <ele>222.4</ele>
        <time>2022-03-09T15:12:09Z</time>
      </trkpt>
      <trkpt lat="46.72678" lon="5.49995">
        <ele>222.4</ele>
        <time>2022-03-09T15:12:10Z</time>
      </trkpt>
      <trkpt lat="46.72682" lon="5.50007">
        <ele>222.4</ele>
        <time>2022-03-09T15:12:11Z</time>
      </trkpt>
      <trkpt lat="46.72683" lon="5.50013">
        <ele>222</ele>
        <time>2022-03-09T15:12:12Z</time>
      </trkpt>
      <trkpt lat="46.72686" lon="5.50024">
        <ele>222</ele>
        <time>2022-03-09T15:12:13Z</time>
      </trkpt>
      <trkpt lat="46.72687" lon="5.50033">
        <ele>221.8</ele>
        <time>2022-03-09T15:12:14Z</time>
      </trkpt>
      <trkpt lat="46.72689" lon="5.50042">
        <ele>221.8</ele>
        <time>2022-03-09T15:12:15Z</time>
      </trkpt>
      <trkpt lat="46.72693" lon="5.5005">
        <ele>221.6</ele>
        <time>2022-03-09T15:12:16Z</time>
      </trkpt>
      <trkpt lat="46.72697" lon="5.50059">
        <ele>221.6</ele>
        <time>2022-03-09T15:12:17Z</time>
      </trkpt>
      <trkpt lat="46.72702" lon="5.50067">
        <ele>221</ele>
        <time>2022-03-09T15:12:18Z</time>
      </trkpt>
      <trkpt lat="46.72707" lon="5.50075">
        <ele>220.8</ele>
        <time>2022-03-09T15:12:19Z</time>
      </trkpt>
      <trkpt lat="46.72713" lon="5.50084">
        <ele>220.4</ele>
        <time>2022-03-09T15:12:20Z</time>
      </trkpt>
      <trkpt lat="46.72719" lon="5.50092">
        <ele>219.8</ele>
        <time>2022-03-09T15:12:21Z</time>
      </trkpt>
      <trkpt lat="46.72725" lon="5.50101">
        <ele>219.2</ele>
        <time>2022-03-09T15:12:22Z</time>
      </trkpt>
      <trkpt lat="46.72732" lon="5.5011">
        <ele>218.8</ele>
        <time>2022-03-09T15:12:23Z</time>
      </trkpt>
      <trkpt lat="46.7274" lon="5.5012">
        <ele>218.2</ele>
        <time>2022-03-09T15:12:24Z</time>
      </trkpt>
      <trkpt lat="46.72747" lon="5.5013">
        <ele>217.6</ele>
        <time>2022-03-09T15:12:25Z</time>
      </trkpt>
      <trkpt lat="46.72754" lon="5.5014">
        <ele>217</ele>
        <time>2022-03-09T15:12:26Z</time>
      </trkpt>
      <trkpt lat="46.72761" lon="5.5015">
        <ele>216.4</ele>
        <time>2022-03-09T15:12:27Z</time>
      </trkpt>
      <trkpt lat="46.72768" lon="5.5016">
        <ele>216</ele>
        <time>2022-03-09T15:12:28Z</time>
      </trkpt>
      <trkpt lat="46.7277" lon="5.50166">
        <ele>215.4</ele>
        <time>2022-03-09T15:12:29Z</time>
      </trkpt>
      <trkpt lat="46.72773" lon="5.50172">
        <ele>215</ele>
        <time>2022-03-09T15:12:30Z</time>
      </trkpt>
      <trkpt lat="46.72779" lon="5.50185">
        <ele>214.6</ele>
        <time>2022-03-09T15:12:31Z</time>
      </trkpt>
      <trkpt lat="46.72783" lon="5.50198">
        <ele>214.2</ele>
        <time>2022-03-09T15:12:32Z</time>
      </trkpt>
      <trkpt lat="46.72786" lon="5.50211">
        <ele>214</ele>
        <time>2022-03-09T15:12:33Z</time>
      </trkpt>
      <trkpt lat="46.72788" lon="5.50224">
        <ele>214</ele>
        <time>2022-03-09T15:12:34Z</time>
      </trkpt>
      <trkpt lat="46.7279" lon="5.50237">
        <ele>213.6</ele>
        <time>2022-03-09T15:12:35Z</time>
      </trkpt>
      <trkpt lat="46.72792" lon="5.5025">
        <ele>213.6</ele>
        <time>2022-03-09T15:12:36Z</time>
      </trkpt>
      <trkpt lat="46.72795" lon="5.50261">
        <ele>213.6</ele>
        <time>2022-03-09T15:12:37Z</time>
      </trkpt>
      <trkpt lat="46.72799" lon="5.50271">
        <ele>214</ele>
        <time>2022-03-09T15:12:38Z</time>
      </trkpt>
      <trkpt lat="46.72803" lon="5.5028">
        <ele>214.2</ele>
        <time>2022-03-09T15:12:39Z</time>
      </trkpt>
      <trkpt lat="46.72807" lon="5.50289">
        <ele>214.6</ele>
        <time>2022-03-09T15:12:40Z</time>
      </trkpt>
      <trkpt lat="46.7281" lon="5.50296">
        <ele>215</ele>
        <time>2022-03-09T15:12:41Z</time>
      </trkpt>
      <trkpt lat="46.72814" lon="5.50303">
        <ele>215.2</ele>
        <time>2022-03-09T15:12:42Z</time>
      </trkpt>
      <trkpt lat="46.72818" lon="5.5031">
        <ele>215.6</ele>
        <time>2022-03-09T15:12:43Z</time>
      </trkpt>
      <trkpt lat="46.72822" lon="5.50316">
        <ele>215.8</ele>
        <time>2022-03-09T15:12:44Z</time>
      </trkpt>
      <trkpt lat="46.72825" lon="5.50322">
        <ele>216.2</ele>
        <time>2022-03-09T15:12:45Z</time>
      </trkpt>
      <trkpt lat="46.72829" lon="5.50328">
        <ele>216.4</ele>
        <time>2022-03-09T15:12:46Z</time>
      </trkpt>
      <trkpt lat="46.72832" lon="5.50334">
        <ele>216.8</ele>
        <time>2022-03-09T15:12:47Z</time>
      </trkpt>
      <trkpt lat="46.72836" lon="5.50339">
        <ele>217</ele>
        <time>2022-03-09T15:12:48Z</time>
      </trkpt>
      <trkpt lat="46.72839" lon="5.50344">
        <ele>217.4</ele>
        <time>2022-03-09T15:12:49Z</time>
      </trkpt>
      <trkpt lat="46.72843" lon="5.50349">
        <ele>217.8</ele>
        <time>2022-03-09T15:12:50Z</time>
      </trkpt>
      <trkpt lat="46.72847" lon="5.50354">
        <ele>218.2</ele>
        <time>2022-03-09T15:12:51Z</time>
      </trkpt>
      <trkpt lat="46.7285" lon="5.50358">
        <ele>218.6</ele>
        <time>2022-03-09T15:12:52Z</time>
      </trkpt>
      <trkpt lat="46.72853" lon="5.50363">
        <ele>218.8</ele>
        <time>2022-03-09T15:12:53Z</time>
      </trkpt>
      <trkpt lat="46.72856" lon="5.50368">
        <ele>218.8</ele>
        <time>2022-03-09T15:12:54Z</time>
      </trkpt>
      <trkpt lat="46.72859" lon="5.50373">
        <ele>219.2</ele>
        <time>2022-03-09T15:12:55Z</time>
      </trkpt>
      <trkpt lat="46.72863" lon="5.50377">
        <ele>219.4</ele>
        <time>2022-03-09T15:12:56Z</time>
      </trkpt>
      <trkpt lat="46.72867" lon="5.50381">
        <ele>219.6</ele>
        <time>2022-03-09T15:12:57Z</time>
      </trkpt>
      <trkpt lat="46.7287" lon="5.50386">
        <ele>220</ele>
        <time>2022-03-09T15:12:58Z</time>
      </trkpt>
      <trkpt lat="46.72874" lon="5.50391">
        <ele>220.2</ele>
        <time>2022-03-09T15:12:59Z</time>
      </trkpt>
      <trkpt lat="46.72878" lon="5.50396">
        <ele>220.6</ele>
        <time>2022-03-09T15:13:00Z</time>
      </trkpt>
      <trkpt lat="46.72881" lon="5.504">
        <ele>220.8</ele>
        <time>2022-03-09T15:13:01Z</time>
      </trkpt>
      <trkpt lat="46.72884" lon="5.50404">
        <ele>220.8</ele>
        <time>2022-03-09T15:13:02Z</time>
      </trkpt>
      <trkpt lat="46.72888" lon="5.50408">
        <ele>221.2</ele>
        <time>2022-03-09T15:13:03Z</time>
      </trkpt>
      <trkpt lat="46.72891" lon="5.50411">
        <ele>221.2</ele>
        <time>2022-03-09T15:13:04Z</time>
      </trkpt>
      <trkpt lat="46.72895" lon="5.50415">
        <ele>221.6</ele>
        <time>2022-03-09T15:13:05Z</time>
      </trkpt>
      <trkpt lat="46.72898" lon="5.50419">
        <ele>222</ele>
        <time>2022-03-09T15:13:06Z</time>
      </trkpt>
      <trkpt lat="46.72902" lon="5.50422">
        <ele>222.2</ele>
        <time>2022-03-09T15:13:07Z</time>
      </trkpt>
      <trkpt lat="46.72905" lon="5.50426">
        <ele>222.4</ele>
        <time>2022-03-09T15:13:08Z</time>
      </trkpt>
      <trkpt lat="46.72909" lon="5.5043">
        <ele>222.6</ele>
        <time>2022-03-09T15:13:09Z</time>
      </trkpt>
      <trkpt lat="46.72912" lon="5.50434">
        <ele>223</ele>
        <time>2022-03-09T15:13:10Z</time>
      </trkpt>
      <trkpt lat="46.72916" lon="5.50438">
        <ele>223.2</ele>
        <time>2022-03-09T15:13:11Z</time>
      </trkpt>
      <trkpt lat="46.72919" lon="5.50442">
        <ele>223.4</ele>
        <time>2022-03-09T15:13:12Z</time>
      </trkpt>
      <trkpt lat="46.72922" lon="5.50446">
        <ele>223.8</ele>
        <time>2022-03-09T15:13:13Z</time>
      </trkpt>
      <trkpt lat="46.72924" lon="5.50449">
        <ele>223.8</ele>
        <time>2022-03-09T15:13:14Z</time>
      </trkpt>
      <trkpt lat="46.72927" lon="5.50453">
        <ele>224</ele>
        <time>2022-03-09T15:13:15Z</time>
      </trkpt>
      <trkpt lat="46.7293" lon="5.50456">
        <ele>224</ele>
        <time>2022-03-09T15:13:16Z</time>
      </trkpt>
      <trkpt lat="46.72932" lon="5.5046">
        <ele>224.4</ele>
        <time>2022-03-09T15:13:17Z</time>
      </trkpt>
      <trkpt lat="46.72934" lon="5.50463">
        <ele>224.4</ele>
        <time>2022-03-09T15:13:18Z</time>
      </trkpt>
      <trkpt lat="46.72936" lon="5.50466">
        <ele>224.8</ele>
        <time>2022-03-09T15:13:19Z</time>
      </trkpt>
      <trkpt lat="46.72939" lon="5.50469">
        <ele>224.8</ele>
        <time>2022-03-09T15:13:20Z</time>
      </trkpt>
      <trkpt lat="46.72941" lon="5.50472">
        <ele>225.2</ele>
        <time>2022-03-09T15:13:21Z</time>
      </trkpt>
      <trkpt lat="46.72943" lon="5.50476">
        <ele>225.2</ele>
        <time>2022-03-09T15:13:22Z</time>
      </trkpt>
      <trkpt lat="46.72944" lon="5.50479">
        <ele>225.4</ele>
        <time>2022-03-09T15:13:23Z</time>
      </trkpt>
      <trkpt lat="46.72947" lon="5.50482">
        <ele>225.4</ele>
        <time>2022-03-09T15:13:24Z</time>
      </trkpt>
      <trkpt lat="46.72949" lon="5.50485">
        <ele>225.4</ele>
        <time>2022-03-09T15:13:25Z</time>
      </trkpt>
      <trkpt lat="46.72951" lon="5.50487">
        <ele>225.6</ele>
        <time>2022-03-09T15:13:26Z</time>
      </trkpt>
      <trkpt lat="46.72954" lon="5.5049">
        <ele>225.6</ele>
        <time>2022-03-09T15:13:27Z</time>
      </trkpt>
      <trkpt lat="46.72956" lon="5.50493">
        <ele>225.6</ele>
        <time>2022-03-09T15:13:28Z</time>
      </trkpt>
      <trkpt lat="46.72958" lon="5.50497">
        <ele>225.8</ele>
        <time>2022-03-09T15:13:29Z</time>
      </trkpt>
      <trkpt lat="46.72961" lon="5.50501">
        <ele>225.8</ele>
        <time>2022-03-09T15:13:30Z</time>
      </trkpt>
      <trkpt lat="46.72963" lon="5.50504">
        <ele>225.8</ele>
        <time>2022-03-09T15:13:31Z</time>
      </trkpt>
      <trkpt lat="46.72966" lon="5.50508">
        <ele>225.8</ele>
        <time>2022-03-09T15:13:32Z</time>
      </trkpt>
      <trkpt lat="46.72968" lon="5.50513">
        <ele>225.8</ele>
        <time>2022-03-09T15:13:33Z</time>
      </trkpt>
      <trkpt lat="46.72971" lon="5.50517">
        <ele>225.8</ele>
        <time>2022-03-09T15:13:34Z</time>
      </trkpt>
      <trkpt lat="46.72973" lon="5.50522">
        <ele>225.8</ele>
        <time>2022-03-09T15:13:35Z</time>
      </trkpt>
      <trkpt lat="46.72976" lon="5.50526">
        <ele>225.8</ele>
        <time>2022-03-09T15:13:36Z</time>
      </trkpt>
      <trkpt lat="46.72979" lon="5.50529">
        <ele>225.8</ele>
        <time>2022-03-09T15:13:37Z</time>
      </trkpt>
      <trkpt lat="46.72982" lon="5.50532">
        <ele>225.8</ele>
        <time>2022-03-09T15:13:38Z</time>
      </trkpt>
      <trkpt lat="46.72986" lon="5.50533">
        <ele>225.8</ele>
        <time>2022-03-09T15:13:39Z</time>
      </trkpt>
      <trkpt lat="46.72989" lon="5.50534">
        <ele>225.8</ele>
        <time>2022-03-09T15:13:40Z</time>
      </trkpt>
      <trkpt lat="46.72993" lon="5.50533">
        <ele>225.8</ele>
        <time>2022-03-09T15:13:41Z</time>
      </trkpt>
      <trkpt lat="46.72997" lon="5.50531">
        <ele>225.8</ele>
        <time>2022-03-09T15:13:42Z</time>
      </trkpt>
      <trkpt lat="46.73001" lon="5.50528">
        <ele>225.8</ele>
        <time>2022-03-09T15:13:43Z</time>
      </trkpt>
      <trkpt lat="46.73005" lon="5.50525">
        <ele>225.8</ele>
        <time>2022-03-09T15:13:44Z</time>
      </trkpt>
      <trkpt lat="46.73009" lon="5.50522">
        <ele>225.8</ele>
        <time>2022-03-09T15:13:45Z</time>
      </trkpt>
      <trkpt lat="46.73013" lon="5.50519">
        <ele>225.8</ele>
        <time>2022-03-09T15:13:46Z</time>
      </trkpt>
      <trkpt lat="46.73018" lon="5.50515">
        <ele>225.8</ele>
        <time>2022-03-09T15:13:47Z</time>
      </trkpt>
      <trkpt lat="46.73022" lon="5.50512">
        <ele>225.8</ele>
        <time>2022-03-09T15:13:48Z</time>
      </trkpt>
      <trkpt lat="46.73027" lon="5.50509">
        <ele>225.8</ele>
        <time>2022-03-09T15:13:49Z</time>
      </trkpt>
      <trkpt lat="46.73032" lon="5.50506">
        <ele>225.8</ele>
        <time>2022-03-09T15:13:50Z</time>
      </trkpt>
      <trkpt lat="46.73037" lon="5.50502">
        <ele>225.8</ele>
        <time>2022-03-09T15:13:51Z</time>
      </trkpt>
      <trkpt lat="46.73043" lon="5.50498">
        <ele>225.8</ele>
        <time>2022-03-09T15:13:52Z</time>
      </trkpt>
      <trkpt lat="46.73048" lon="5.50494">
        <ele>225.8</ele>
        <time>2022-03-09T15:13:53Z</time>
      </trkpt>
      <trkpt lat="46.73053" lon="5.5049">
        <ele>225.8</ele>
        <time>2022-03-09T15:13:54Z</time>
      </trkpt>
      <trkpt lat="46.73059" lon="5.50486">
        <ele>225.8</ele>
        <time>2022-03-09T15:13:55Z</time>
      </trkpt>
      <trkpt lat="46.73064" lon="5.50481">
        <ele>225.8</ele>
        <time>2022-03-09T15:13:56Z</time>
      </trkpt>
      <trkpt lat="46.7307" lon="5.50477">
        <ele>225.8</ele>
        <time>2022-03-09T15:13:57Z</time>
      </trkpt>
      <trkpt lat="46.73076" lon="5.50472">
        <ele>225.8</ele>
        <time>2022-03-09T15:13:58Z</time>
      </trkpt>
      <trkpt lat="46.73082" lon="5.50468">
        <ele>225.8</ele>
        <time>2022-03-09T15:13:59Z</time>
      </trkpt>
      <trkpt lat="46.73088" lon="5.50464">
        <ele>225.8</ele>
        <time>2022-03-09T15:14:00Z</time>
      </trkpt>
      <trkpt lat="46.73094" lon="5.5046">
        <ele>225.8</ele>
        <time>2022-03-09T15:14:01Z</time>
      </trkpt>
      <trkpt lat="46.731" lon="5.50455">
        <ele>225.8</ele>
        <time>2022-03-09T15:14:02Z</time>
      </trkpt>
      <trkpt lat="46.73106" lon="5.50451">
        <ele>225.8</ele>
        <time>2022-03-09T15:14:03Z</time>
      </trkpt>
      <trkpt lat="46.73111" lon="5.50447">
        <ele>225.8</ele>
        <time>2022-03-09T15:14:04Z</time>
      </trkpt>
      <trkpt lat="46.73117" lon="5.50442">
        <ele>225.8</ele>
        <time>2022-03-09T15:14:05Z</time>
      </trkpt>
      <trkpt lat="46.73117" lon="5.50442">
        <ele>225.8</ele>
        <time>2022-03-09T15:14:06Z</time>
      </trkpt>
      <trkpt lat="46.73123" lon="5.50438">
        <ele>225.8</ele>
        <time>2022-03-09T15:14:07Z</time>
      </trkpt>
      <trkpt lat="46.73129" lon="5.50434">
        <ele>225.8</ele>
        <time>2022-03-09T15:14:08Z</time>
      </trkpt>
      <trkpt lat="46.73135" lon="5.50429">
        <ele>225.8</ele>
        <time>2022-03-09T15:14:09Z</time>
      </trkpt>
      <trkpt lat="46.73141" lon="5.50425">
        <ele>225.8</ele>
        <time>2022-03-09T15:14:10Z</time>
      </trkpt>
      <trkpt lat="46.73147" lon="5.5042">
        <ele>225.8</ele>
        <time>2022-03-09T15:14:11Z</time>
      </trkpt>
      <trkpt lat="46.73153" lon="5.50415">
        <ele>225.8</ele>
        <time>2022-03-09T15:14:12Z</time>
      </trkpt>
      <trkpt lat="46.73159" lon="5.50411">
        <ele>225.8</ele>
        <time>2022-03-09T15:14:13Z</time>
      </trkpt>
      <trkpt lat="46.73165" lon="5.50407">
        <ele>225.8</ele>
        <time>2022-03-09T15:14:14Z</time>
      </trkpt>
      <trkpt lat="46.73172" lon="5.50403">
        <ele>225.8</ele>
        <time>2022-03-09T15:14:15Z</time>
      </trkpt>
      <trkpt lat="46.73178" lon="5.50398">
        <ele>225.8</ele>
        <time>2022-03-09T15:14:16Z</time>
      </trkpt>
      <trkpt lat="46.73184" lon="5.50394">
        <ele>225.8</ele>
        <time>2022-03-09T15:14:17Z</time>
      </trkpt>
      <trkpt lat="46.7319" lon="5.50389">
        <ele>225.8</ele>
        <time>2022-03-09T15:14:18Z</time>
      </trkpt>
      <trkpt lat="46.73196" lon="5.50384">
        <ele>225.8</ele>
        <time>2022-03-09T15:14:19Z</time>
      </trkpt>
      <trkpt lat="46.73203" lon="5.5038">
        <ele>225.8</ele>
        <time>2022-03-09T15:14:20Z</time>
      </trkpt>
      <trkpt lat="46.73209" lon="5.50375">
        <ele>225.8</ele>
        <time>2022-03-09T15:14:21Z</time>
      </trkpt>
      <trkpt lat="46.73216" lon="5.5037">
        <ele>225.6</ele>
        <time>2022-03-09T15:14:22Z</time>
      </trkpt>
      <trkpt lat="46.73223" lon="5.50365">
        <ele>225.6</ele>
        <time>2022-03-09T15:14:23Z</time>
      </trkpt>
      <trkpt lat="46.7323" lon="5.5036">
        <ele>225.4</ele>
        <time>2022-03-09T15:14:24Z</time>
      </trkpt>
      <trkpt lat="46.73237" lon="5.50355">
        <ele>225.4</ele>
        <time>2022-03-09T15:14:25Z</time>
      </trkpt>
      <trkpt lat="46.73244" lon="5.5035">
        <ele>224.8</ele>
        <time>2022-03-09T15:14:26Z</time>
      </trkpt>
      <trkpt lat="46.73252" lon="5.50345">
        <ele>224.6</ele>
        <time>2022-03-09T15:14:27Z</time>
      </trkpt>
      <trkpt lat="46.7326" lon="5.5034">
        <ele>224.2</ele>
        <time>2022-03-09T15:14:28Z</time>
      </trkpt>
      <trkpt lat="46.73268" lon="5.50335">
        <ele>224</ele>
        <time>2022-03-09T15:14:29Z</time>
      </trkpt>
      <trkpt lat="46.73276" lon="5.50331">
        <ele>223.6</ele>
        <time>2022-03-09T15:14:30Z</time>
      </trkpt>
      <trkpt lat="46.73284" lon="5.50328">
        <ele>223.4</ele>
        <time>2022-03-09T15:14:31Z</time>
      </trkpt>
      <trkpt lat="46.73293" lon="5.50324">
        <ele>223</ele>
        <time>2022-03-09T15:14:32Z</time>
      </trkpt>
      <trkpt lat="46.73301" lon="5.50322">
        <ele>222.6</ele>
        <time>2022-03-09T15:14:33Z</time>
      </trkpt>
      <trkpt lat="46.73311" lon="5.50319">
        <ele>222.2</ele>
        <time>2022-03-09T15:14:34Z</time>
      </trkpt>
      <trkpt lat="46.73321" lon="5.50318">
        <ele>221.8</ele>
        <time>2022-03-09T15:14:35Z</time>
      </trkpt>
      <trkpt lat="46.73331" lon="5.50316">
        <ele>221.2</ele>
        <time>2022-03-09T15:14:36Z</time>
      </trkpt>
      <trkpt lat="46.73341" lon="5.50315">
        <ele>220.8</ele>
        <time>2022-03-09T15:14:37Z</time>
      </trkpt>
      <trkpt lat="46.73351" lon="5.50314">
        <ele>220.4</ele>
        <time>2022-03-09T15:14:38Z</time>
      </trkpt>
      <trkpt lat="46.73361" lon="5.50313">
        <ele>219.8</ele>
        <time>2022-03-09T15:14:39Z</time>
      </trkpt>
      <trkpt lat="46.73371" lon="5.50312">
        <ele>219.2</ele>
        <time>2022-03-09T15:14:40Z</time>
      </trkpt>
      <trkpt lat="46.73382" lon="5.50311">
        <ele>218.8</ele>
        <time>2022-03-09T15:14:41Z</time>
      </trkpt>
      <trkpt lat="46.73392" lon="5.5031">
        <ele>218.2</ele>
        <time>2022-03-09T15:14:42Z</time>
      </trkpt>
      <trkpt lat="46.73403" lon="5.50308">
        <ele>217.6</ele>
        <time>2022-03-09T15:14:43Z</time>
      </trkpt>
      <trkpt lat="46.73414" lon="5.50306">
        <ele>217</ele>
        <time>2022-03-09T15:14:44Z</time>
      </trkpt>
      <trkpt lat="46.73424" lon="5.50304">
        <ele>216.2</ele>
        <time>2022-03-09T15:14:45Z</time>
      </trkpt>
      <trkpt lat="46.73435" lon="5.503">
        <ele>215.6</ele>
        <time>2022-03-09T15:14:46Z</time>
      </trkpt>
      <trkpt lat="46.73445" lon="5.50296">
        <ele>215</ele>
        <time>2022-03-09T15:14:47Z</time>
      </trkpt>
      <trkpt lat="46.73456" lon="5.50291">
        <ele>214.4</ele>
        <time>2022-03-09T15:14:48Z</time>
      </trkpt>
      <trkpt lat="46.73467" lon="5.50287">
        <ele>213.6</ele>
        <time>2022-03-09T15:14:49Z</time>
      </trkpt>
      <trkpt lat="46.73478" lon="5.50282">
        <ele>213</ele>
        <time>2022-03-09T15:14:50Z</time>
      </trkpt>
      <trkpt lat="46.7349" lon="5.50277">
        <ele>212.4</ele>
        <time>2022-03-09T15:14:51Z</time>
      </trkpt>
      <trkpt lat="46.73501" lon="5.50273">
        <ele>212</ele>
        <time>2022-03-09T15:14:52Z</time>
      </trkpt>
      <trkpt lat="46.73512" lon="5.50267">
        <ele>211.6</ele>
        <time>2022-03-09T15:14:53Z</time>
      </trkpt>
      <trkpt lat="46.73522" lon="5.50263">
        <ele>211.2</ele>
        <time>2022-03-09T15:14:54Z</time>
      </trkpt>
      <trkpt lat="46.73532" lon="5.50258">
        <ele>210.8</ele>
        <time>2022-03-09T15:14:55Z</time>
      </trkpt>
      <trkpt lat="46.73543" lon="5.50253">
        <ele>210.6</ele>
        <time>2022-03-09T15:14:56Z</time>
      </trkpt>
      <trkpt lat="46.73553" lon="5.50248">
        <ele>210.2</ele>
        <time>2022-03-09T15:14:57Z</time>
      </trkpt>
      <trkpt lat="46.73563" lon="5.50242">
        <ele>210</ele>
        <time>2022-03-09T15:14:58Z</time>
      </trkpt>
      <trkpt lat="46.73572" lon="5.50239">
        <ele>209.6</ele>
        <time>2022-03-09T15:14:59Z</time>
      </trkpt>
      <trkpt lat="46.73581" lon="5.50234">
        <ele>209.6</ele>
        <time>2022-03-09T15:15:00Z</time>
      </trkpt>
      <trkpt lat="46.7359" lon="5.5023">
        <ele>209.2</ele>
        <time>2022-03-09T15:15:01Z</time>
      </trkpt>
      <trkpt lat="46.736" lon="5.50226">
        <ele>209</ele>
        <time>2022-03-09T15:15:02Z</time>
      </trkpt>
      <trkpt lat="46.73608" lon="5.50223">
        <ele>209</ele>
        <time>2022-03-09T15:15:03Z</time>
      </trkpt>
      <trkpt lat="46.73617" lon="5.50218">
        <ele>208.8</ele>
        <time>2022-03-09T15:15:04Z</time>
      </trkpt>
      <trkpt lat="46.73626" lon="5.50214">
        <ele>208.8</ele>
        <time>2022-03-09T15:15:05Z</time>
      </trkpt>
      <trkpt lat="46.73634" lon="5.5021">
        <ele>208.6</ele>
        <time>2022-03-09T15:15:06Z</time>
      </trkpt>
      <trkpt lat="46.73642" lon="5.50207">
        <ele>208.6</ele>
        <time>2022-03-09T15:15:07Z</time>
      </trkpt>
      <trkpt lat="46.7365" lon="5.50203">
        <ele>208.6</ele>
        <time>2022-03-09T15:15:08Z</time>
      </trkpt>
      <trkpt lat="46.73658" lon="5.50199">
        <ele>208.2</ele>
        <time>2022-03-09T15:15:09Z</time>
      </trkpt>
      <trkpt lat="46.73665" lon="5.50195">
        <ele>208.2</ele>
        <time>2022-03-09T15:15:10Z</time>
      </trkpt>
      <trkpt lat="46.73672" lon="5.50191">
        <ele>208.2</ele>
        <time>2022-03-09T15:15:11Z</time>
      </trkpt>
      <trkpt lat="46.73679" lon="5.50188">
        <ele>208.2</ele>
        <time>2022-03-09T15:15:12Z</time>
      </trkpt>
      <trkpt lat="46.73686" lon="5.50185">
        <ele>208.2</ele>
        <time>2022-03-09T15:15:13Z</time>
      </trkpt>
      <trkpt lat="46.73693" lon="5.50182">
        <ele>208.2</ele>
        <time>2022-03-09T15:15:14Z</time>
      </trkpt>
      <trkpt lat="46.737" lon="5.50179">
        <ele>208.2</ele>
        <time>2022-03-09T15:15:15Z</time>
      </trkpt>
      <trkpt lat="46.73707" lon="5.50176">
        <ele>208.2</ele>
        <time>2022-03-09T15:15:16Z</time>
      </trkpt>
      <trkpt lat="46.73714" lon="5.50173">
        <ele>208.2</ele>
        <time>2022-03-09T15:15:17Z</time>
      </trkpt>
      <trkpt lat="46.73721" lon="5.5017">
        <ele>208.2</ele>
        <time>2022-03-09T15:15:18Z</time>
      </trkpt>
      <trkpt lat="46.73728" lon="5.50167">
        <ele>208.2</ele>
        <time>2022-03-09T15:15:19Z</time>
      </trkpt>
      <trkpt lat="46.73734" lon="5.50164">
        <ele>208.2</ele>
        <time>2022-03-09T15:15:20Z</time>
      </trkpt>
      <trkpt lat="46.73741" lon="5.5016">
        <ele>208</ele>
        <time>2022-03-09T15:15:21Z</time>
      </trkpt>
      <trkpt lat="46.73753" lon="5.50152">
        <ele>208</ele>
        <time>2022-03-09T15:15:22Z</time>
      </trkpt>
      <trkpt lat="46.73759" lon="5.50147">
        <ele>208</ele>
        <time>2022-03-09T15:15:23Z</time>
      </trkpt>
      <trkpt lat="46.73765" lon="5.50143">
        <ele>208</ele>
        <time>2022-03-09T15:15:24Z</time>
      </trkpt>
      <trkpt lat="46.73771" lon="5.50138">
        <ele>208</ele>
        <time>2022-03-09T15:15:25Z</time>
      </trkpt>
      <trkpt lat="46.73777" lon="5.50133">
        <ele>208</ele>
        <time>2022-03-09T15:15:26Z</time>
      </trkpt>
      <trkpt lat="46.73782" lon="5.50128">
        <ele>208</ele>
        <time>2022-03-09T15:15:27Z</time>
      </trkpt>
      <trkpt lat="46.73788" lon="5.50122">
        <ele>208</ele>
        <time>2022-03-09T15:15:28Z</time>
      </trkpt>
      <trkpt lat="46.73794" lon="5.50117">
        <ele>208.2</ele>
        <time>2022-03-09T15:15:29Z</time>
      </trkpt>
      <trkpt lat="46.73799" lon="5.50112">
        <ele>208.2</ele>
        <time>2022-03-09T15:15:30Z</time>
      </trkpt>
      <trkpt lat="46.73805" lon="5.50107">
        <ele>208.2</ele>
        <time>2022-03-09T15:15:31Z</time>
      </trkpt>
      <trkpt lat="46.7381" lon="5.50103">
        <ele>208.2</ele>
        <time>2022-03-09T15:15:32Z</time>
      </trkpt>
      <trkpt lat="46.73816" lon="5.50098">
        <ele>208.2</ele>
        <time>2022-03-09T15:15:33Z</time>
      </trkpt>
      <trkpt lat="46.73822" lon="5.50094">
        <ele>208.2</ele>
        <time>2022-03-09T15:15:34Z</time>
      </trkpt>
      <trkpt lat="46.73827" lon="5.50089">
        <ele>208.2</ele>
        <time>2022-03-09T15:15:35Z</time>
      </trkpt>
      <trkpt lat="46.73833" lon="5.50084">
        <ele>208.2</ele>
        <time>2022-03-09T15:15:36Z</time>
      </trkpt>
      <trkpt lat="46.73839" lon="5.50079">
        <ele>208.2</ele>
        <time>2022-03-09T15:15:37Z</time>
      </trkpt>
      <trkpt lat="46.73845" lon="5.50074">
        <ele>208.2</ele>
        <time>2022-03-09T15:15:38Z</time>
      </trkpt>
      <trkpt lat="46.73851" lon="5.50068">
        <ele>208.2</ele>
        <time>2022-03-09T15:15:39Z</time>
      </trkpt>
      <trkpt lat="46.73857" lon="5.50063">
        <ele>208</ele>
        <time>2022-03-09T15:15:40Z</time>
      </trkpt>
      <trkpt lat="46.73864" lon="5.50058">
        <ele>208</ele>
        <time>2022-03-09T15:15:41Z</time>
      </trkpt>
      <trkpt lat="46.7387" lon="5.50052">
        <ele>208</ele>
        <time>2022-03-09T15:15:42Z</time>
      </trkpt>
      <trkpt lat="46.73877" lon="5.50047">
        <ele>208</ele>
        <time>2022-03-09T15:15:43Z</time>
      </trkpt>
      <trkpt lat="46.73883" lon="5.50042">
        <ele>207.6</ele>
        <time>2022-03-09T15:15:44Z</time>
      </trkpt>
      <trkpt lat="46.7389" lon="5.50037">
        <ele>207.6</ele>
        <time>2022-03-09T15:15:45Z</time>
      </trkpt>
      <trkpt lat="46.73896" lon="5.50031">
        <ele>207.6</ele>
        <time>2022-03-09T15:15:46Z</time>
      </trkpt>
      <trkpt lat="46.73902" lon="5.50026">
        <ele>207.6</ele>
        <time>2022-03-09T15:15:47Z</time>
      </trkpt>
      <trkpt lat="46.73909" lon="5.50021">
        <ele>207.6</ele>
        <time>2022-03-09T15:15:48Z</time>
      </trkpt>
      <trkpt lat="46.73915" lon="5.50015">
        <ele>207.4</ele>
        <time>2022-03-09T15:15:49Z</time>
      </trkpt>
      <trkpt lat="46.73922" lon="5.5001">
        <ele>207.4</ele>
        <time>2022-03-09T15:15:50Z</time>
      </trkpt>
      <trkpt lat="46.73928" lon="5.50005">
        <ele>207.4</ele>
        <time>2022-03-09T15:15:51Z</time>
      </trkpt>
      <trkpt lat="46.73935" lon="5.49999">
        <ele>207.4</ele>
        <time>2022-03-09T15:15:52Z</time>
      </trkpt>
      <trkpt lat="46.73941" lon="5.49995">
        <ele>207.4</ele>
        <time>2022-03-09T15:15:53Z</time>
      </trkpt>
      <trkpt lat="46.73948" lon="5.49989">
        <ele>207.4</ele>
        <time>2022-03-09T15:15:54Z</time>
      </trkpt>
      <trkpt lat="46.73954" lon="5.49984">
        <ele>207.2</ele>
        <time>2022-03-09T15:15:55Z</time>
      </trkpt>
      <trkpt lat="46.73961" lon="5.49979">
        <ele>207.2</ele>
        <time>2022-03-09T15:15:56Z</time>
      </trkpt>
      <trkpt lat="46.73967" lon="5.49974">
        <ele>207.2</ele>
        <time>2022-03-09T15:15:57Z</time>
      </trkpt>
      <trkpt lat="46.73973" lon="5.49969">
        <ele>207.2</ele>
        <time>2022-03-09T15:15:58Z</time>
      </trkpt>
      <trkpt lat="46.73979" lon="5.49964">
        <ele>207.2</ele>
        <time>2022-03-09T15:15:59Z</time>
      </trkpt>
      <trkpt lat="46.73985" lon="5.4996">
        <ele>207.2</ele>
        <time>2022-03-09T15:16:00Z</time>
      </trkpt>
      <trkpt lat="46.73992" lon="5.49955">
        <ele>207.2</ele>
        <time>2022-03-09T15:16:01Z</time>
      </trkpt>
      <trkpt lat="46.73998" lon="5.4995">
        <ele>207.2</ele>
        <time>2022-03-09T15:16:02Z</time>
      </trkpt>
      <trkpt lat="46.74003" lon="5.49945">
        <ele>207</ele>
        <time>2022-03-09T15:16:03Z</time>
      </trkpt>
      <trkpt lat="46.74009" lon="5.4994">
        <ele>207</ele>
        <time>2022-03-09T15:16:04Z</time>
      </trkpt>
      <trkpt lat="46.74015" lon="5.49936">
        <ele>207</ele>
        <time>2022-03-09T15:16:05Z</time>
      </trkpt>
      <trkpt lat="46.74021" lon="5.49934">
        <ele>207</ele>
        <time>2022-03-09T15:16:06Z</time>
      </trkpt>
      <trkpt lat="46.74028" lon="5.49934">
        <ele>207</ele>
        <time>2022-03-09T15:16:07Z</time>
      </trkpt>
      <trkpt lat="46.74034" lon="5.49937">
        <ele>207</ele>
        <time>2022-03-09T15:16:08Z</time>
      </trkpt>
      <trkpt lat="46.74039" lon="5.49942">
        <ele>207</ele>
        <time>2022-03-09T15:16:09Z</time>
      </trkpt>
      <trkpt lat="46.74044" lon="5.49946">
        <ele>207</ele>
        <time>2022-03-09T15:16:10Z</time>
      </trkpt>
      <trkpt lat="46.74049" lon="5.49948">
        <ele>206.8</ele>
        <time>2022-03-09T15:16:11Z</time>
      </trkpt>
      <trkpt lat="46.74054" lon="5.49947">
        <ele>206.8</ele>
        <time>2022-03-09T15:16:12Z</time>
      </trkpt>
      <trkpt lat="46.74058" lon="5.49943">
        <ele>206.8</ele>
        <time>2022-03-09T15:16:13Z</time>
      </trkpt>
      <trkpt lat="46.74061" lon="5.49937">
        <ele>206.8</ele>
        <time>2022-03-09T15:16:14Z</time>
      </trkpt>
      <trkpt lat="46.74063" lon="5.49929">
        <ele>206.8</ele>
        <time>2022-03-09T15:16:15Z</time>
      </trkpt>
      <trkpt lat="46.74064" lon="5.49921">
        <ele>206.8</ele>
        <time>2022-03-09T15:16:16Z</time>
      </trkpt>
      <trkpt lat="46.74065" lon="5.49913">
        <ele>206.8</ele>
        <time>2022-03-09T15:16:17Z</time>
      </trkpt>
      <trkpt lat="46.74067" lon="5.49905">
        <ele>206.8</ele>
        <time>2022-03-09T15:16:18Z</time>
      </trkpt>
      <trkpt lat="46.74071" lon="5.49898">
        <ele>206.8</ele>
        <time>2022-03-09T15:16:19Z</time>
      </trkpt>
      <trkpt lat="46.74074" lon="5.49891">
        <ele>206.8</ele>
        <time>2022-03-09T15:16:20Z</time>
      </trkpt>
      <trkpt lat="46.74079" lon="5.49885">
        <ele>206.8</ele>
        <time>2022-03-09T15:16:21Z</time>
      </trkpt>
      <trkpt lat="46.74083" lon="5.49878">
        <ele>206.8</ele>
        <time>2022-03-09T15:16:22Z</time>
      </trkpt>
      <trkpt lat="46.74087" lon="5.49872">
        <ele>206.8</ele>
        <time>2022-03-09T15:16:23Z</time>
      </trkpt>
      <trkpt lat="46.74091" lon="5.49865">
        <ele>206.8</ele>
        <time>2022-03-09T15:16:24Z</time>
      </trkpt>
      <trkpt lat="46.74094" lon="5.49858">
        <ele>206.8</ele>
        <time>2022-03-09T15:16:25Z</time>
      </trkpt>
      <trkpt lat="46.74098" lon="5.49851">
        <ele>206.8</ele>
        <time>2022-03-09T15:16:26Z</time>
      </trkpt>
      <trkpt lat="46.74102" lon="5.49844">
        <ele>206.8</ele>
        <time>2022-03-09T15:16:27Z</time>
      </trkpt>
      <trkpt lat="46.74106" lon="5.49838">
        <ele>207</ele>
        <time>2022-03-09T15:16:28Z</time>
      </trkpt>
      <trkpt lat="46.7411" lon="5.49831">
        <ele>207</ele>
        <time>2022-03-09T15:16:29Z</time>
      </trkpt>
      <trkpt lat="46.74114" lon="5.49824">
        <ele>207</ele>
        <time>2022-03-09T15:16:30Z</time>
      </trkpt>
      <trkpt lat="46.74118" lon="5.49817">
        <ele>207</ele>
        <time>2022-03-09T15:16:31Z</time>
      </trkpt>
      <trkpt lat="46.74122" lon="5.49811">
        <ele>207</ele>
        <time>2022-03-09T15:16:32Z</time>
      </trkpt>
      <trkpt lat="46.74126" lon="5.49804">
        <ele>207</ele>
        <time>2022-03-09T15:16:33Z</time>
      </trkpt>
      <trkpt lat="46.74131" lon="5.49797">
        <ele>207</ele>
        <time>2022-03-09T15:16:34Z</time>
      </trkpt>
      <trkpt lat="46.74135" lon="5.49791">
        <ele>207</ele>
        <time>2022-03-09T15:16:35Z</time>
      </trkpt>
      <trkpt lat="46.74139" lon="5.49784">
        <ele>207</ele>
        <time>2022-03-09T15:16:36Z</time>
      </trkpt>
      <trkpt lat="46.74143" lon="5.49778">
        <ele>207</ele>
        <time>2022-03-09T15:16:37Z</time>
      </trkpt>
      <trkpt lat="46.74148" lon="5.49771">
        <ele>207</ele>
        <time>2022-03-09T15:16:38Z</time>
      </trkpt>
      <trkpt lat="46.74152" lon="5.49765">
        <ele>207</ele>
        <time>2022-03-09T15:16:39Z</time>
      </trkpt>
      <trkpt lat="46.74157" lon="5.49759">
        <ele>207</ele>
        <time>2022-03-09T15:16:40Z</time>
      </trkpt>
      <trkpt lat="46.74162" lon="5.49753">
        <ele>207</ele>
        <time>2022-03-09T15:16:41Z</time>
      </trkpt>
      <trkpt lat="46.74166" lon="5.49747">
        <ele>207</ele>
        <time>2022-03-09T15:16:42Z</time>
      </trkpt>
      <trkpt lat="46.74171" lon="5.49742">
        <ele>207</ele>
        <time>2022-03-09T15:16:43Z</time>
      </trkpt>
      <trkpt lat="46.74177" lon="5.49736">
        <ele>207</ele>
        <time>2022-03-09T15:16:44Z</time>
      </trkpt>
      <trkpt lat="46.74182" lon="5.49731">
        <ele>206.8</ele>
        <time>2022-03-09T15:16:45Z</time>
      </trkpt>
      <trkpt lat="46.74188" lon="5.49726">
        <ele>206.8</ele>
        <time>2022-03-09T15:16:46Z</time>
      </trkpt>
      <trkpt lat="46.74193" lon="5.49722">
        <ele>206.8</ele>
        <time>2022-03-09T15:16:47Z</time>
      </trkpt>
      <trkpt lat="46.74199" lon="5.49717">
        <ele>206.8</ele>
        <time>2022-03-09T15:16:48Z</time>
      </trkpt>
      <trkpt lat="46.74205" lon="5.49713">
        <ele>206.8</ele>
        <time>2022-03-09T15:16:49Z</time>
      </trkpt>
      <trkpt lat="46.74211" lon="5.49711">
        <ele>206.8</ele>
        <time>2022-03-09T15:16:50Z</time>
      </trkpt>
      <trkpt lat="46.74217" lon="5.49709">
        <ele>206.8</ele>
        <time>2022-03-09T15:16:51Z</time>
      </trkpt>
      <trkpt lat="46.74224" lon="5.49708">
        <ele>206.8</ele>
        <time>2022-03-09T15:16:52Z</time>
      </trkpt>
      <trkpt lat="46.7423" lon="5.49707">
        <ele>206.8</ele>
        <time>2022-03-09T15:16:53Z</time>
      </trkpt>
      <trkpt lat="46.74237" lon="5.49706">
        <ele>206.8</ele>
        <time>2022-03-09T15:16:54Z</time>
      </trkpt>
      <trkpt lat="46.74243" lon="5.49706">
        <ele>206.8</ele>
        <time>2022-03-09T15:16:55Z</time>
      </trkpt>
      <trkpt lat="46.7425" lon="5.49706">
        <ele>206.8</ele>
        <time>2022-03-09T15:16:56Z</time>
      </trkpt>
      <trkpt lat="46.74257" lon="5.49706">
        <ele>206.8</ele>
        <time>2022-03-09T15:16:57Z</time>
      </trkpt>
      <trkpt lat="46.74263" lon="5.49705">
        <ele>206.8</ele>
        <time>2022-03-09T15:16:58Z</time>
      </trkpt>
      <trkpt lat="46.7427" lon="5.49705">
        <ele>206.8</ele>
        <time>2022-03-09T15:16:59Z</time>
      </trkpt>
      <trkpt lat="46.74276" lon="5.49705">
        <ele>206.8</ele>
        <time>2022-03-09T15:17:00Z</time>
      </trkpt>
      <trkpt lat="46.74283" lon="5.49705">
        <ele>206.8</ele>
        <time>2022-03-09T15:17:01Z</time>
      </trkpt>
      <trkpt lat="46.7429" lon="5.49705">
        <ele>206.8</ele>
        <time>2022-03-09T15:17:02Z</time>
      </trkpt>
      <trkpt lat="46.74297" lon="5.49705">
        <ele>206.8</ele>
        <time>2022-03-09T15:17:03Z</time>
      </trkpt>
      <trkpt lat="46.74303" lon="5.49704">
        <ele>206.8</ele>
        <time>2022-03-09T15:17:04Z</time>
      </trkpt>
      <trkpt lat="46.7431" lon="5.49704">
        <ele>206.8</ele>
        <time>2022-03-09T15:17:05Z</time>
      </trkpt>
      <trkpt lat="46.74316" lon="5.49704">
        <ele>206.8</ele>
        <time>2022-03-09T15:17:06Z</time>
      </trkpt>
      <trkpt lat="46.74323" lon="5.49704">
        <ele>207</ele>
        <time>2022-03-09T15:17:07Z</time>
      </trkpt>
      <trkpt lat="46.74329" lon="5.49703">
        <ele>207</ele>
        <time>2022-03-09T15:17:08Z</time>
      </trkpt>
      <trkpt lat="46.74335" lon="5.49702">
        <ele>207</ele>
        <time>2022-03-09T15:17:09Z</time>
      </trkpt>
      <trkpt lat="46.74341" lon="5.49701">
        <ele>207.4</ele>
        <time>2022-03-09T15:17:10Z</time>
      </trkpt>
      <trkpt lat="46.74347" lon="5.49699">
        <ele>207.4</ele>
        <time>2022-03-09T15:17:11Z</time>
      </trkpt>
      <trkpt lat="46.74352" lon="5.49698">
        <ele>207.8</ele>
        <time>2022-03-09T15:17:12Z</time>
      </trkpt>
      <trkpt lat="46.74358" lon="5.49697">
        <ele>207.8</ele>
        <time>2022-03-09T15:17:13Z</time>
      </trkpt>
      <trkpt lat="46.74363" lon="5.49695">
        <ele>207.8</ele>
        <time>2022-03-09T15:17:14Z</time>
      </trkpt>
      <trkpt lat="46.74369" lon="5.49694">
        <ele>207.8</ele>
        <time>2022-03-09T15:17:15Z</time>
      </trkpt>
      <trkpt lat="46.74375" lon="5.49693">
        <ele>207.8</ele>
        <time>2022-03-09T15:17:16Z</time>
      </trkpt>
      <trkpt lat="46.74381" lon="5.49692">
        <ele>208</ele>
        <time>2022-03-09T15:17:17Z</time>
      </trkpt>
      <trkpt lat="46.74387" lon="5.4969">
        <ele>208</ele>
        <time>2022-03-09T15:17:18Z</time>
      </trkpt>
      <trkpt lat="46.74392" lon="5.49688">
        <ele>208</ele>
        <time>2022-03-09T15:17:19Z</time>
      </trkpt>
      <trkpt lat="46.74398" lon="5.49686">
        <ele>208</ele>
        <time>2022-03-09T15:17:20Z</time>
      </trkpt>
      <trkpt lat="46.74404" lon="5.49683">
        <ele>208</ele>
        <time>2022-03-09T15:17:21Z</time>
      </trkpt>
      <trkpt lat="46.7441" lon="5.4968">
        <ele>208</ele>
        <time>2022-03-09T15:17:22Z</time>
      </trkpt>
      <trkpt lat="46.74416" lon="5.49676">
        <ele>208</ele>
        <time>2022-03-09T15:17:23Z</time>
      </trkpt>
      <trkpt lat="46.74422" lon="5.49671">
        <ele>208</ele>
        <time>2022-03-09T15:17:24Z</time>
      </trkpt>
      <trkpt lat="46.74427" lon="5.49666">
        <ele>208</ele>
        <time>2022-03-09T15:17:25Z</time>
      </trkpt>
      <trkpt lat="46.74433" lon="5.49661">
        <ele>208</ele>
        <time>2022-03-09T15:17:26Z</time>
      </trkpt>
      <trkpt lat="46.74438" lon="5.49655">
        <ele>207.8</ele>
        <time>2022-03-09T15:17:27Z</time>
      </trkpt>
      <trkpt lat="46.74443" lon="5.49648">
        <ele>207.8</ele>
        <time>2022-03-09T15:17:28Z</time>
      </trkpt>
      <trkpt lat="46.74448" lon="5.49641">
        <ele>207.8</ele>
        <time>2022-03-09T15:17:29Z</time>
      </trkpt>
      <trkpt lat="46.74452" lon="5.49634">
        <ele>207.8</ele>
        <time>2022-03-09T15:17:30Z</time>
      </trkpt>
      <trkpt lat="46.74456" lon="5.49626">
        <ele>207.8</ele>
        <time>2022-03-09T15:17:31Z</time>
      </trkpt>
      <trkpt lat="46.74459" lon="5.49618">
        <ele>207.8</ele>
        <time>2022-03-09T15:17:32Z</time>
      </trkpt>
      <trkpt lat="46.74462" lon="5.49608">
        <ele>207.8</ele>
        <time>2022-03-09T15:17:33Z</time>
      </trkpt>
      <trkpt lat="46.74464" lon="5.49599">
        <ele>207.8</ele>
        <time>2022-03-09T15:17:34Z</time>
      </trkpt>
      <trkpt lat="46.74466" lon="5.4959">
        <ele>207.8</ele>
        <time>2022-03-09T15:17:35Z</time>
      </trkpt>
      <trkpt lat="46.74469" lon="5.49582">
        <ele>207.8</ele>
        <time>2022-03-09T15:17:36Z</time>
      </trkpt>
      <trkpt lat="46.74471" lon="5.49574">
        <ele>207.8</ele>
        <time>2022-03-09T15:17:37Z</time>
      </trkpt>
      <trkpt lat="46.74474" lon="5.49565">
        <ele>207.4</ele>
        <time>2022-03-09T15:17:38Z</time>
      </trkpt>
      <trkpt lat="46.74476" lon="5.49557">
        <ele>207.4</ele>
        <time>2022-03-09T15:17:39Z</time>
      </trkpt>
      <trkpt lat="46.74478" lon="5.49549">
        <ele>207.2</ele>
        <time>2022-03-09T15:17:40Z</time>
      </trkpt>
      <trkpt lat="46.7448" lon="5.49543">
        <ele>207.2</ele>
        <time>2022-03-09T15:17:41Z</time>
      </trkpt>
      <trkpt lat="46.74481" lon="5.49537">
        <ele>207</ele>
        <time>2022-03-09T15:17:42Z</time>
      </trkpt>
      <trkpt lat="46.74483" lon="5.49531">
        <ele>207</ele>
        <time>2022-03-09T15:17:43Z</time>
      </trkpt>
      <trkpt lat="46.74484" lon="5.49525">
        <ele>207</ele>
        <time>2022-03-09T15:17:44Z</time>
      </trkpt>
      <trkpt lat="46.74485" lon="5.49519">
        <ele>207</ele>
        <time>2022-03-09T15:17:45Z</time>
      </trkpt>
      <trkpt lat="46.74486" lon="5.49513">
        <ele>207</ele>
        <time>2022-03-09T15:17:46Z</time>
      </trkpt>
      <trkpt lat="46.74487" lon="5.49506">
        <ele>207</ele>
        <time>2022-03-09T15:17:47Z</time>
      </trkpt>
      <trkpt lat="46.74488" lon="5.49499">
        <ele>207</ele>
        <time>2022-03-09T15:17:48Z</time>
      </trkpt>
      <trkpt lat="46.7449" lon="5.49492">
        <ele>207.2</ele>
        <time>2022-03-09T15:17:49Z</time>
      </trkpt>
      <trkpt lat="46.74491" lon="5.49485">
        <ele>207.2</ele>
        <time>2022-03-09T15:17:50Z</time>
      </trkpt>
      <trkpt lat="46.74492" lon="5.49478">
        <ele>207.2</ele>
        <time>2022-03-09T15:17:51Z</time>
      </trkpt>
      <trkpt lat="46.74492" lon="5.49471">
        <ele>207.2</ele>
        <time>2022-03-09T15:17:52Z</time>
      </trkpt>
      <trkpt lat="46.7449" lon="5.49465">
        <ele>207.2</ele>
        <time>2022-03-09T15:17:53Z</time>
      </trkpt>
      <trkpt lat="46.74487" lon="5.49458">
        <ele>206.8</ele>
        <time>2022-03-09T15:17:54Z</time>
      </trkpt>
      <trkpt lat="46.74482" lon="5.49451">
        <ele>206.6</ele>
        <time>2022-03-09T15:17:55Z</time>
      </trkpt>
      <trkpt lat="46.74478" lon="5.49444">
        <ele>206.6</ele>
        <time>2022-03-09T15:17:56Z</time>
      </trkpt>
      <trkpt lat="46.74473" lon="5.49436">
        <ele>206.2</ele>
        <time>2022-03-09T15:17:57Z</time>
      </trkpt>
      <trkpt lat="46.74469" lon="5.49428">
        <ele>206.2</ele>
        <time>2022-03-09T15:17:58Z</time>
      </trkpt>
      <trkpt lat="46.74465" lon="5.49419">
        <ele>206</ele>
        <time>2022-03-09T15:17:59Z</time>
      </trkpt>
      <trkpt lat="46.74462" lon="5.4941">
        <ele>206</ele>
        <time>2022-03-09T15:18:00Z</time>
      </trkpt>
      <trkpt lat="46.74459" lon="5.49401">
        <ele>206</ele>
        <time>2022-03-09T15:18:01Z</time>
      </trkpt>
      <trkpt lat="46.74457" lon="5.49391">
        <ele>206</ele>
        <time>2022-03-09T15:18:02Z</time>
      </trkpt>
      <trkpt lat="46.74456" lon="5.49382">
        <ele>205.8</ele>
        <time>2022-03-09T15:18:03Z</time>
      </trkpt>
      <trkpt lat="46.74456" lon="5.49375">
        <ele>205.8</ele>
        <time>2022-03-09T15:18:04Z</time>
      </trkpt>
      <trkpt lat="46.74457" lon="5.4937">
        <ele>205.8</ele>
        <time>2022-03-09T15:18:05Z</time>
      </trkpt>
      <trkpt lat="46.74458" lon="5.49367">
        <ele>205.8</ele>
        <time>2022-03-09T15:18:06Z</time>
      </trkpt>
      <trkpt lat="46.74458" lon="5.49367">
        <ele>205.8</ele>
        <time>2022-03-09T15:18:07Z</time>
      </trkpt>
      <trkpt lat="46.74459" lon="5.49366">
        <ele>205.8</ele>
        <time>2022-03-09T15:18:08Z</time>
      </trkpt>
      <trkpt lat="46.74459" lon="5.49366">
        <ele>205.4</ele>
        <time>2022-03-09T15:18:09Z</time>
      </trkpt>
      <trkpt lat="46.74459" lon="5.49365">
        <ele>205.4</ele>
        <time>2022-03-09T15:18:10Z</time>
      </trkpt>
      <trkpt lat="46.74459" lon="5.49365">
        <ele>205.4</ele>
        <time>2022-03-09T15:18:16Z</time>
      </trkpt>
      <trkpt lat="46.74459" lon="5.49365">
        <ele>205.4</ele>
        <time>2022-03-09T15:18:17Z</time>
      </trkpt>
      <trkpt lat="46.74459" lon="5.49365">
        <ele>205.4</ele>
        <time>2022-03-09T15:18:18Z</time>
      </trkpt>
      <trkpt lat="46.74454" lon="5.49369">
        <ele>205.6</ele>
        <time>2022-03-09T15:24:41Z</time>
      </trkpt>
      <trkpt lat="46.74455" lon="5.49366">
        <ele>205.6</ele>
        <time>2022-03-09T15:24:42Z</time>
      </trkpt>
      <trkpt lat="46.74456" lon="5.49363">
        <ele>205.6</ele>
        <time>2022-03-09T15:24:43Z</time>
      </trkpt>
      <trkpt lat="46.74456" lon="5.49359">
        <ele>205.6</ele>
        <time>2022-03-09T15:24:44Z</time>
      </trkpt>
      <trkpt lat="46.74456" lon="5.49356">
        <ele>205.6</ele>
        <time>2022-03-09T15:24:45Z</time>
      </trkpt>
      <trkpt lat="46.74456" lon="5.49352">
        <ele>205.6</ele>
        <time>2022-03-09T15:24:46Z</time>
      </trkpt>
      <trkpt lat="46.74456" lon="5.49348">
        <ele>205.6</ele>
        <time>2022-03-09T15:24:47Z</time>
      </trkpt>
      <trkpt lat="46.74456" lon="5.49343">
        <ele>205.6</ele>
        <time>2022-03-09T15:24:48Z</time>
      </trkpt>
      <trkpt lat="46.74457" lon="5.49338">
        <ele>205.2</ele>
        <time>2022-03-09T15:24:49Z</time>
      </trkpt>
      <trkpt lat="46.74458" lon="5.49332">
        <ele>205.2</ele>
        <time>2022-03-09T15:24:50Z</time>
      </trkpt>
      <trkpt lat="46.74459" lon="5.49325">
        <ele>205.2</ele>
        <time>2022-03-09T15:24:51Z</time>
      </trkpt>
      <trkpt lat="46.7446" lon="5.49318">
        <ele>205.2</ele>
        <time>2022-03-09T15:24:52Z</time>
      </trkpt>
      <trkpt lat="46.74461" lon="5.49311">
        <ele>205.2</ele>
        <time>2022-03-09T15:24:53Z</time>
      </trkpt>
      <trkpt lat="46.74464" lon="5.49305">
        <ele>205.6</ele>
        <time>2022-03-09T15:24:54Z</time>
      </trkpt>
      <trkpt lat="46.74467" lon="5.49301">
        <ele>205.6</ele>
        <time>2022-03-09T15:24:55Z</time>
      </trkpt>
      <trkpt lat="46.74472" lon="5.49298">
        <ele>205.6</ele>
        <time>2022-03-09T15:24:56Z</time>
      </trkpt>
      <trkpt lat="46.74477" lon="5.49297">
        <ele>205.8</ele>
        <time>2022-03-09T15:24:57Z</time>
      </trkpt>
      <trkpt lat="46.74482" lon="5.49296">
        <ele>205.8</ele>
        <time>2022-03-09T15:24:58Z</time>
      </trkpt>
      <trkpt lat="46.74487" lon="5.49296">
        <ele>205.8</ele>
        <time>2022-03-09T15:24:59Z</time>
      </trkpt>
      <trkpt lat="46.74492" lon="5.49296">
        <ele>205.8</ele>
        <time>2022-03-09T15:25:00Z</time>
      </trkpt>
      <trkpt lat="46.74497" lon="5.49295">
        <ele>205.8</ele>
        <time>2022-03-09T15:25:01Z</time>
      </trkpt>
      <trkpt lat="46.74503" lon="5.49295">
        <ele>205.8</ele>
        <time>2022-03-09T15:25:02Z</time>
      </trkpt>
      <trkpt lat="46.74508" lon="5.49295">
        <ele>205.8</ele>
        <time>2022-03-09T15:25:03Z</time>
      </trkpt>
      <trkpt lat="46.74513" lon="5.49294">
        <ele>205.6</ele>
        <time>2022-03-09T15:25:04Z</time>
      </trkpt>
      <trkpt lat="46.74518" lon="5.49294">
        <ele>205.6</ele>
        <time>2022-03-09T15:25:05Z</time>
      </trkpt>
      <trkpt lat="46.74523" lon="5.49294">
        <ele>205.6</ele>
        <time>2022-03-09T15:25:06Z</time>
      </trkpt>
      <trkpt lat="46.74529" lon="5.49294">
        <ele>205.6</ele>
        <time>2022-03-09T15:25:07Z</time>
      </trkpt>
      <trkpt lat="46.74534" lon="5.49294">
        <ele>205.6</ele>
        <time>2022-03-09T15:25:08Z</time>
      </trkpt>
      <trkpt lat="46.7454" lon="5.49295">
        <ele>205.6</ele>
        <time>2022-03-09T15:25:09Z</time>
      </trkpt>
      <trkpt lat="46.74545" lon="5.49297">
        <ele>205.6</ele>
        <time>2022-03-09T15:25:10Z</time>
      </trkpt>
      <trkpt lat="46.74551" lon="5.49298">
        <ele>205.6</ele>
        <time>2022-03-09T15:25:11Z</time>
      </trkpt>
      <trkpt lat="46.74556" lon="5.49298">
        <ele>205.6</ele>
        <time>2022-03-09T15:25:12Z</time>
      </trkpt>
      <trkpt lat="46.74561" lon="5.49297">
        <ele>205.6</ele>
        <time>2022-03-09T15:25:13Z</time>
      </trkpt>
      <trkpt lat="46.74566" lon="5.49294">
        <ele>205.6</ele>
        <time>2022-03-09T15:25:14Z</time>
      </trkpt>
      <trkpt lat="46.74571" lon="5.4929">
        <ele>205.6</ele>
        <time>2022-03-09T15:25:15Z</time>
      </trkpt>
      <trkpt lat="46.74576" lon="5.49285">
        <ele>205.6</ele>
        <time>2022-03-09T15:25:16Z</time>
      </trkpt>
      <trkpt lat="46.7458" lon="5.49279">
        <ele>205.6</ele>
        <time>2022-03-09T15:25:17Z</time>
      </trkpt>
      <trkpt lat="46.74585" lon="5.49274">
        <ele>205.6</ele>
        <time>2022-03-09T15:25:18Z</time>
      </trkpt>
      <trkpt lat="46.7459" lon="5.49269">
        <ele>205.6</ele>
        <time>2022-03-09T15:25:19Z</time>
      </trkpt>
      <trkpt lat="46.74594" lon="5.49264">
        <ele>205.4</ele>
        <time>2022-03-09T15:25:20Z</time>
      </trkpt>
      <trkpt lat="46.74599" lon="5.49259">
        <ele>205.4</ele>
        <time>2022-03-09T15:25:21Z</time>
      </trkpt>
      <trkpt lat="46.74603" lon="5.49254">
        <ele>205.4</ele>
        <time>2022-03-09T15:25:22Z</time>
      </trkpt>
      <trkpt lat="46.74608" lon="5.4925">
        <ele>205.4</ele>
        <time>2022-03-09T15:25:23Z</time>
      </trkpt>
      <trkpt lat="46.74612" lon="5.49245">
        <ele>205.4</ele>
        <time>2022-03-09T15:25:24Z</time>
      </trkpt>
      <trkpt lat="46.74616" lon="5.49241">
        <ele>205.4</ele>
        <time>2022-03-09T15:25:25Z</time>
      </trkpt>
      <trkpt lat="46.7462" lon="5.49236">
        <ele>205.4</ele>
        <time>2022-03-09T15:25:26Z</time>
      </trkpt>
      <trkpt lat="46.74624" lon="5.49232">
        <ele>205.4</ele>
        <time>2022-03-09T15:25:27Z</time>
      </trkpt>
      <trkpt lat="46.74628" lon="5.49228">
        <ele>205.4</ele>
        <time>2022-03-09T15:25:28Z</time>
      </trkpt>
      <trkpt lat="46.74632" lon="5.49224">
        <ele>205.4</ele>
        <time>2022-03-09T15:25:29Z</time>
      </trkpt>
      <trkpt lat="46.74636" lon="5.4922">
        <ele>205.4</ele>
        <time>2022-03-09T15:25:30Z</time>
      </trkpt>
      <trkpt lat="46.7464" lon="5.49216">
        <ele>205.4</ele>
        <time>2022-03-09T15:25:31Z</time>
      </trkpt>
      <trkpt lat="46.74644" lon="5.49212">
        <ele>205.4</ele>
        <time>2022-03-09T15:25:32Z</time>
      </trkpt>
      <trkpt lat="46.74647" lon="5.49208">
        <ele>205.4</ele>
        <time>2022-03-09T15:25:33Z</time>
      </trkpt>
      <trkpt lat="46.74651" lon="5.49204">
        <ele>205.4</ele>
        <time>2022-03-09T15:25:34Z</time>
      </trkpt>
      <trkpt lat="46.74655" lon="5.492">
        <ele>205.4</ele>
        <time>2022-03-09T15:25:35Z</time>
      </trkpt>
      <trkpt lat="46.7466" lon="5.49195">
        <ele>205</ele>
        <time>2022-03-09T15:25:36Z</time>
      </trkpt>
      <trkpt lat="46.74666" lon="5.4919">
        <ele>205</ele>
        <time>2022-03-09T15:25:37Z</time>
      </trkpt>
      <trkpt lat="46.74671" lon="5.49185">
        <ele>205</ele>
        <time>2022-03-09T15:25:38Z</time>
      </trkpt>
      <trkpt lat="46.74676" lon="5.49179">
        <ele>205</ele>
        <time>2022-03-09T15:25:39Z</time>
      </trkpt>
      <trkpt lat="46.74682" lon="5.49173">
        <ele>205</ele>
        <time>2022-03-09T15:25:40Z</time>
      </trkpt>
      <trkpt lat="46.74687" lon="5.49168">
        <ele>205.4</ele>
        <time>2022-03-09T15:25:41Z</time>
      </trkpt>
      <trkpt lat="46.74693" lon="5.49162">
        <ele>205.4</ele>
        <time>2022-03-09T15:25:42Z</time>
      </trkpt>
      <trkpt lat="46.74699" lon="5.49156">
        <ele>205.4</ele>
        <time>2022-03-09T15:25:43Z</time>
      </trkpt>
      <trkpt lat="46.74704" lon="5.4915">
        <ele>205.4</ele>
        <time>2022-03-09T15:25:44Z</time>
      </trkpt>
      <trkpt lat="46.7471" lon="5.49144">
        <ele>205.4</ele>
        <time>2022-03-09T15:25:45Z</time>
      </trkpt>
      <trkpt lat="46.74716" lon="5.49138">
        <ele>205.4</ele>
        <time>2022-03-09T15:25:46Z</time>
      </trkpt>
      <trkpt lat="46.74722" lon="5.49132">
        <ele>205.4</ele>
        <time>2022-03-09T15:25:47Z</time>
      </trkpt>
      <trkpt lat="46.74728" lon="5.49126">
        <ele>205.4</ele>
        <time>2022-03-09T15:25:48Z</time>
      </trkpt>
      <trkpt lat="46.74734" lon="5.49119">
        <ele>205.4</ele>
        <time>2022-03-09T15:25:49Z</time>
      </trkpt>
      <trkpt lat="46.7474" lon="5.49113">
        <ele>205.4</ele>
        <time>2022-03-09T15:25:50Z</time>
      </trkpt>
      <trkpt lat="46.74746" lon="5.49106">
        <ele>205.4</ele>
        <time>2022-03-09T15:25:51Z</time>
      </trkpt>
      <trkpt lat="46.74752" lon="5.49099">
        <ele>205.6</ele>
        <time>2022-03-09T15:25:52Z</time>
      </trkpt>
      <trkpt lat="46.74759" lon="5.49092">
        <ele>205.6</ele>
        <time>2022-03-09T15:25:53Z</time>
      </trkpt>
      <trkpt lat="46.74765" lon="5.49086">
        <ele>205.6</ele>
        <time>2022-03-09T15:25:54Z</time>
      </trkpt>
      <trkpt lat="46.74772" lon="5.49079">
        <ele>205.6</ele>
        <time>2022-03-09T15:25:55Z</time>
      </trkpt>
      <trkpt lat="46.74778" lon="5.49072">
        <ele>205.6</ele>
        <time>2022-03-09T15:25:56Z</time>
      </trkpt>
      <trkpt lat="46.74784" lon="5.49066">
        <ele>205.6</ele>
        <time>2022-03-09T15:25:57Z</time>
      </trkpt>
      <trkpt lat="46.74791" lon="5.49059">
        <ele>205.6</ele>
        <time>2022-03-09T15:25:58Z</time>
      </trkpt>
      <trkpt lat="46.74797" lon="5.49053">
        <ele>205.6</ele>
        <time>2022-03-09T15:25:59Z</time>
      </trkpt>
      <trkpt lat="46.74803" lon="5.49046">
        <ele>205.6</ele>
        <time>2022-03-09T15:26:00Z</time>
      </trkpt>
      <trkpt lat="46.74809" lon="5.4904">
        <ele>205.8</ele>
        <time>2022-03-09T15:26:01Z</time>
      </trkpt>
      <trkpt lat="46.74815" lon="5.49033">
        <ele>206.4</ele>
        <time>2022-03-09T15:26:02Z</time>
      </trkpt>
      <trkpt lat="46.74821" lon="5.49027">
        <ele>206.4</ele>
        <time>2022-03-09T15:26:03Z</time>
      </trkpt>
      <trkpt lat="46.74827" lon="5.4902">
        <ele>205.8</ele>
        <time>2022-03-09T15:26:04Z</time>
      </trkpt>
      <trkpt lat="46.74834" lon="5.49013">
        <ele>205.8</ele>
        <time>2022-03-09T15:26:05Z</time>
      </trkpt>
      <trkpt lat="46.7484" lon="5.49006">
        <ele>205.8</ele>
        <time>2022-03-09T15:26:06Z</time>
      </trkpt>
      <trkpt lat="46.74847" lon="5.49">
        <ele>205.4</ele>
        <time>2022-03-09T15:26:07Z</time>
      </trkpt>
      <trkpt lat="46.74853" lon="5.48993">
        <ele>205.4</ele>
        <time>2022-03-09T15:26:08Z</time>
      </trkpt>
      <trkpt lat="46.7486" lon="5.48986">
        <ele>205.4</ele>
        <time>2022-03-09T15:26:09Z</time>
      </trkpt>
      <trkpt lat="46.74866" lon="5.48979">
        <ele>205.2</ele>
        <time>2022-03-09T15:26:10Z</time>
      </trkpt>
      <trkpt lat="46.74872" lon="5.48972">
        <ele>205.2</ele>
        <time>2022-03-09T15:26:11Z</time>
      </trkpt>
      <trkpt lat="46.74879" lon="5.48966">
        <ele>205.2</ele>
        <time>2022-03-09T15:26:12Z</time>
      </trkpt>
      <trkpt lat="46.74886" lon="5.48959">
        <ele>205</ele>
        <time>2022-03-09T15:26:13Z</time>
      </trkpt>
      <trkpt lat="46.74892" lon="5.48952">
        <ele>205</ele>
        <time>2022-03-09T15:26:14Z</time>
      </trkpt>
      <trkpt lat="46.74899" lon="5.48945">
        <ele>205</ele>
        <time>2022-03-09T15:26:15Z</time>
      </trkpt>
      <trkpt lat="46.74905" lon="5.48938">
        <ele>205</ele>
        <time>2022-03-09T15:26:16Z</time>
      </trkpt>
      <trkpt lat="46.74912" lon="5.48931">
        <ele>205</ele>
        <time>2022-03-09T15:26:17Z</time>
      </trkpt>
      <trkpt lat="46.74918" lon="5.48924">
        <ele>205</ele>
        <time>2022-03-09T15:26:18Z</time>
      </trkpt>
      <trkpt lat="46.74925" lon="5.48918">
        <ele>205</ele>
        <time>2022-03-09T15:26:19Z</time>
      </trkpt>
      <trkpt lat="46.74931" lon="5.48911">
        <ele>205</ele>
        <time>2022-03-09T15:26:20Z</time>
      </trkpt>
      <trkpt lat="46.74938" lon="5.48904">
        <ele>205</ele>
        <time>2022-03-09T15:26:21Z</time>
      </trkpt>
      <trkpt lat="46.74944" lon="5.48897">
        <ele>205</ele>
        <time>2022-03-09T15:26:22Z</time>
      </trkpt>
      <trkpt lat="46.74951" lon="5.4889">
        <ele>205</ele>
        <time>2022-03-09T15:26:23Z</time>
      </trkpt>
      <trkpt lat="46.74957" lon="5.48883">
        <ele>205</ele>
        <time>2022-03-09T15:26:24Z</time>
      </trkpt>
      <trkpt lat="46.74964" lon="5.48876">
        <ele>205</ele>
        <time>2022-03-09T15:26:25Z</time>
      </trkpt>
      <trkpt lat="46.74971" lon="5.48869">
        <ele>205</ele>
        <time>2022-03-09T15:26:26Z</time>
      </trkpt>
      <trkpt lat="46.74977" lon="5.48862">
        <ele>205</ele>
        <time>2022-03-09T15:26:27Z</time>
      </trkpt>
      <trkpt lat="46.74984" lon="5.48855">
        <ele>205</ele>
        <time>2022-03-09T15:26:28Z</time>
      </trkpt>
      <trkpt lat="46.7499" lon="5.48849">
        <ele>205</ele>
        <time>2022-03-09T15:26:29Z</time>
      </trkpt>
      <trkpt lat="46.74997" lon="5.48842">
        <ele>205</ele>
        <time>2022-03-09T15:26:30Z</time>
      </trkpt>
      <trkpt lat="46.75003" lon="5.48836">
        <ele>205</ele>
        <time>2022-03-09T15:26:31Z</time>
      </trkpt>
      <trkpt lat="46.75009" lon="5.48829">
        <ele>205</ele>
        <time>2022-03-09T15:26:32Z</time>
      </trkpt>
      <trkpt lat="46.75016" lon="5.48822">
        <ele>205</ele>
        <time>2022-03-09T15:26:33Z</time>
      </trkpt>
      <trkpt lat="46.75022" lon="5.48816">
        <ele>205</ele>
        <time>2022-03-09T15:26:34Z</time>
      </trkpt>
      <trkpt lat="46.75028" lon="5.48809">
        <ele>205</ele>
        <time>2022-03-09T15:26:35Z</time>
      </trkpt>
      <trkpt lat="46.75034" lon="5.48802">
        <ele>205</ele>
        <time>2022-03-09T15:26:36Z</time>
      </trkpt>
      <trkpt lat="46.7504" lon="5.48796">
        <ele>204.8</ele>
        <time>2022-03-09T15:26:37Z</time>
      </trkpt>
      <trkpt lat="46.75046" lon="5.48789">
        <ele>204.8</ele>
        <time>2022-03-09T15:26:38Z</time>
      </trkpt>
      <trkpt lat="46.75053" lon="5.48783">
        <ele>204.8</ele>
        <time>2022-03-09T15:26:39Z</time>
      </trkpt>
      <trkpt lat="46.75059" lon="5.48776">
        <ele>204.8</ele>
        <time>2022-03-09T15:26:40Z</time>
      </trkpt>
      <trkpt lat="46.75065" lon="5.48769">
        <ele>204.8</ele>
        <time>2022-03-09T15:26:41Z</time>
      </trkpt>
      <trkpt lat="46.75071" lon="5.48763">
        <ele>204.8</ele>
        <time>2022-03-09T15:26:42Z</time>
      </trkpt>
      <trkpt lat="46.75078" lon="5.48756">
        <ele>204.8</ele>
        <time>2022-03-09T15:26:43Z</time>
      </trkpt>
      <trkpt lat="46.75084" lon="5.4875">
        <ele>204.8</ele>
        <time>2022-03-09T15:26:44Z</time>
      </trkpt>
      <trkpt lat="46.7509" lon="5.48743">
        <ele>204.8</ele>
        <time>2022-03-09T15:26:45Z</time>
      </trkpt>
      <trkpt lat="46.75096" lon="5.48737">
        <ele>204.8</ele>
        <time>2022-03-09T15:26:46Z</time>
      </trkpt>
      <trkpt lat="46.75102" lon="5.4873">
        <ele>204.8</ele>
        <time>2022-03-09T15:26:47Z</time>
      </trkpt>
      <trkpt lat="46.75108" lon="5.48724">
        <ele>204.6</ele>
        <time>2022-03-09T15:26:48Z</time>
      </trkpt>
      <trkpt lat="46.75114" lon="5.48718">
        <ele>204.6</ele>
        <time>2022-03-09T15:26:49Z</time>
      </trkpt>
      <trkpt lat="46.7512" lon="5.48711">
        <ele>204.6</ele>
        <time>2022-03-09T15:26:50Z</time>
      </trkpt>
      <trkpt lat="46.75126" lon="5.48705">
        <ele>204.6</ele>
        <time>2022-03-09T15:26:51Z</time>
      </trkpt>
      <trkpt lat="46.75132" lon="5.48699">
        <ele>204.6</ele>
        <time>2022-03-09T15:26:52Z</time>
      </trkpt>
      <trkpt lat="46.75138" lon="5.48692">
        <ele>204.6</ele>
        <time>2022-03-09T15:26:53Z</time>
      </trkpt>
      <trkpt lat="46.75144" lon="5.48686">
        <ele>204.6</ele>
        <time>2022-03-09T15:26:54Z</time>
      </trkpt>
      <trkpt lat="46.7515" lon="5.4868">
        <ele>204.6</ele>
        <time>2022-03-09T15:26:55Z</time>
      </trkpt>
      <trkpt lat="46.75156" lon="5.48674">
        <ele>204.6</ele>
        <time>2022-03-09T15:26:56Z</time>
      </trkpt>
      <trkpt lat="46.75162" lon="5.48668">
        <ele>204.6</ele>
        <time>2022-03-09T15:26:57Z</time>
      </trkpt>
      <trkpt lat="46.75167" lon="5.48662">
        <ele>204.6</ele>
        <time>2022-03-09T15:26:58Z</time>
      </trkpt>
      <trkpt lat="46.75173" lon="5.48656">
        <ele>204.6</ele>
        <time>2022-03-09T15:26:59Z</time>
      </trkpt>
      <trkpt lat="46.75179" lon="5.4865">
        <ele>204.6</ele>
        <time>2022-03-09T15:27:00Z</time>
      </trkpt>
      <trkpt lat="46.75184" lon="5.48644">
        <ele>204.6</ele>
        <time>2022-03-09T15:27:01Z</time>
      </trkpt>
      <trkpt lat="46.7519" lon="5.48638">
        <ele>204.6</ele>
        <time>2022-03-09T15:27:02Z</time>
      </trkpt>
      <trkpt lat="46.75195" lon="5.48632">
        <ele>204.8</ele>
        <time>2022-03-09T15:27:03Z</time>
      </trkpt>
      <trkpt lat="46.75201" lon="5.48626">
        <ele>204.8</ele>
        <time>2022-03-09T15:27:04Z</time>
      </trkpt>
      <trkpt lat="46.75206" lon="5.4862">
        <ele>204.8</ele>
        <time>2022-03-09T15:27:05Z</time>
      </trkpt>
      <trkpt lat="46.75211" lon="5.48615">
        <ele>204.8</ele>
        <time>2022-03-09T15:27:06Z</time>
      </trkpt>
      <trkpt lat="46.75216" lon="5.48609">
        <ele>204.8</ele>
        <time>2022-03-09T15:27:07Z</time>
      </trkpt>
      <trkpt lat="46.75222" lon="5.48604">
        <ele>204.8</ele>
        <time>2022-03-09T15:27:08Z</time>
      </trkpt>
      <trkpt lat="46.75227" lon="5.48598">
        <ele>204.8</ele>
        <time>2022-03-09T15:27:09Z</time>
      </trkpt>
      <trkpt lat="46.75232" lon="5.48593">
        <ele>204.6</ele>
        <time>2022-03-09T15:27:10Z</time>
      </trkpt>
      <trkpt lat="46.75238" lon="5.48587">
        <ele>204.6</ele>
        <time>2022-03-09T15:27:11Z</time>
      </trkpt>
      <trkpt lat="46.75243" lon="5.48581">
        <ele>204.6</ele>
        <time>2022-03-09T15:27:12Z</time>
      </trkpt>
      <trkpt lat="46.75248" lon="5.48576">
        <ele>204.6</ele>
        <time>2022-03-09T15:27:13Z</time>
      </trkpt>
      <trkpt lat="46.75254" lon="5.4857">
        <ele>204.6</ele>
        <time>2022-03-09T15:27:14Z</time>
      </trkpt>
      <trkpt lat="46.75259" lon="5.48565">
        <ele>204.6</ele>
        <time>2022-03-09T15:27:15Z</time>
      </trkpt>
      <trkpt lat="46.75264" lon="5.48559">
        <ele>204.4</ele>
        <time>2022-03-09T15:27:16Z</time>
      </trkpt>
      <trkpt lat="46.7527" lon="5.48554">
        <ele>204.4</ele>
        <time>2022-03-09T15:27:17Z</time>
      </trkpt>
      <trkpt lat="46.75275" lon="5.4855">
        <ele>204.4</ele>
        <time>2022-03-09T15:27:18Z</time>
      </trkpt>
      <trkpt lat="46.7528" lon="5.48545">
        <ele>204.4</ele>
        <time>2022-03-09T15:27:19Z</time>
      </trkpt>
      <trkpt lat="46.75285" lon="5.4854">
        <ele>204.4</ele>
        <time>2022-03-09T15:27:20Z</time>
      </trkpt>
      <trkpt lat="46.7529" lon="5.48537">
        <ele>204.4</ele>
        <time>2022-03-09T15:27:21Z</time>
      </trkpt>
      <trkpt lat="46.75296" lon="5.48533">
        <ele>204.4</ele>
        <time>2022-03-09T15:27:22Z</time>
      </trkpt>
      <trkpt lat="46.753" lon="5.4853">
        <ele>204.4</ele>
        <time>2022-03-09T15:27:23Z</time>
      </trkpt>
      <trkpt lat="46.75305" lon="5.48527">
        <ele>204.4</ele>
        <time>2022-03-09T15:27:24Z</time>
      </trkpt>
      <trkpt lat="46.7531" lon="5.48525">
        <ele>204.4</ele>
        <time>2022-03-09T15:27:25Z</time>
      </trkpt>
      <trkpt lat="46.75314" lon="5.48523">
        <ele>204.4</ele>
        <time>2022-03-09T15:27:26Z</time>
      </trkpt>
      <trkpt lat="46.75319" lon="5.48522">
        <ele>204.4</ele>
        <time>2022-03-09T15:27:27Z</time>
      </trkpt>
      <trkpt lat="46.75322" lon="5.4852">
        <ele>204</ele>
        <time>2022-03-09T15:27:28Z</time>
      </trkpt>
      <trkpt lat="46.75326" lon="5.48518">
        <ele>204</ele>
        <time>2022-03-09T15:27:29Z</time>
      </trkpt>
      <trkpt lat="46.75329" lon="5.48516">
        <ele>204</ele>
        <time>2022-03-09T15:27:30Z</time>
      </trkpt>
      <trkpt lat="46.75332" lon="5.48513">
        <ele>204</ele>
        <time>2022-03-09T15:27:31Z</time>
      </trkpt>
      <trkpt lat="46.75334" lon="5.48508">
        <ele>204</ele>
        <time>2022-03-09T15:27:32Z</time>
      </trkpt>
      <trkpt lat="46.75335" lon="5.48503">
        <ele>204</ele>
        <time>2022-03-09T15:27:33Z</time>
      </trkpt>
      <trkpt lat="46.75335" lon="5.48497">
        <ele>204</ele>
        <time>2022-03-09T15:27:34Z</time>
      </trkpt>
      <trkpt lat="46.75334" lon="5.4849">
        <ele>204.4</ele>
        <time>2022-03-09T15:27:35Z</time>
      </trkpt>
      <trkpt lat="46.75332" lon="5.48484">
        <ele>204.4</ele>
        <time>2022-03-09T15:27:36Z</time>
      </trkpt>
      <trkpt lat="46.7533" lon="5.48477">
        <ele>204.4</ele>
        <time>2022-03-09T15:27:37Z</time>
      </trkpt>
      <trkpt lat="46.75328" lon="5.48471">
        <ele>204.4</ele>
        <time>2022-03-09T15:27:38Z</time>
      </trkpt>
      <trkpt lat="46.75328" lon="5.48466">
        <ele>204.4</ele>
        <time>2022-03-09T15:27:39Z</time>
      </trkpt>
      <trkpt lat="46.75327" lon="5.48461">
        <ele>204.4</ele>
        <time>2022-03-09T15:27:40Z</time>
      </trkpt>
      <trkpt lat="46.75327" lon="5.48456">
        <ele>204.4</ele>
        <time>2022-03-09T15:27:41Z</time>
      </trkpt>
      <trkpt lat="46.75327" lon="5.48452">
        <ele>204</ele>
        <time>2022-03-09T15:27:42Z</time>
      </trkpt>
      <trkpt lat="46.75326" lon="5.4845">
        <ele>204</ele>
        <time>2022-03-09T15:27:43Z</time>
      </trkpt>
      <trkpt lat="46.75326" lon="5.48449">
        <ele>203.8</ele>
        <time>2022-03-09T15:27:44Z</time>
      </trkpt>
      <trkpt lat="46.75326" lon="5.48449">
        <ele>203.8</ele>
        <time>2022-03-09T15:27:45Z</time>
      </trkpt>
      <trkpt lat="46.75326" lon="5.48449">
        <ele>203.6</ele>
        <time>2022-03-09T15:27:46Z</time>
      </trkpt>
      <trkpt lat="46.75326" lon="5.48449">
        <ele>203.6</ele>
        <time>2022-03-09T15:27:47Z</time>
      </trkpt>
      <trkpt lat="46.75327" lon="5.48453">
        <ele>203.6</ele>
        <time>2022-03-09T15:27:51Z</time>
      </trkpt>
      <trkpt lat="46.75328" lon="5.48455">
        <ele>203.6</ele>
        <time>2022-03-09T15:27:52Z</time>
      </trkpt>
      <trkpt lat="46.75331" lon="5.48456">
        <ele>203.6</ele>
        <time>2022-03-09T15:27:53Z</time>
      </trkpt>
      <trkpt lat="46.75333" lon="5.48457">
        <ele>203.6</ele>
        <time>2022-03-09T15:27:54Z</time>
      </trkpt>
      <trkpt lat="46.75336" lon="5.48457">
        <ele>203.6</ele>
        <time>2022-03-09T15:27:55Z</time>
      </trkpt>
      <trkpt lat="46.75339" lon="5.48457">
        <ele>203.6</ele>
        <time>2022-03-09T15:27:56Z</time>
      </trkpt>
      <trkpt lat="46.75342" lon="5.48457">
        <ele>203.6</ele>
        <time>2022-03-09T15:27:57Z</time>
      </trkpt>
      <trkpt lat="46.75346" lon="5.48456">
        <ele>203.6</ele>
        <time>2022-03-09T15:27:58Z</time>
      </trkpt>
      <trkpt lat="46.7535" lon="5.48454">
        <ele>203.6</ele>
        <time>2022-03-09T15:27:59Z</time>
      </trkpt>
      <trkpt lat="46.75354" lon="5.48452">
        <ele>203.6</ele>
        <time>2022-03-09T15:28:00Z</time>
      </trkpt>
      <trkpt lat="46.75358" lon="5.4845">
        <ele>203.6</ele>
        <time>2022-03-09T15:28:01Z</time>
      </trkpt>
      <trkpt lat="46.75362" lon="5.48448">
        <ele>203.6</ele>
        <time>2022-03-09T15:28:02Z</time>
      </trkpt>
      <trkpt lat="46.75367" lon="5.48446">
        <ele>203.6</ele>
        <time>2022-03-09T15:28:03Z</time>
      </trkpt>
      <trkpt lat="46.75372" lon="5.48444">
        <ele>203.6</ele>
        <time>2022-03-09T15:28:04Z</time>
      </trkpt>
      <trkpt lat="46.75376" lon="5.48441">
        <ele>203.6</ele>
        <time>2022-03-09T15:28:05Z</time>
      </trkpt>
      <trkpt lat="46.75381" lon="5.48438">
        <ele>203.6</ele>
        <time>2022-03-09T15:28:06Z</time>
      </trkpt>
      <trkpt lat="46.75386" lon="5.48434">
        <ele>203.6</ele>
        <time>2022-03-09T15:28:07Z</time>
      </trkpt>
      <trkpt lat="46.75391" lon="5.48429">
        <ele>203.6</ele>
        <time>2022-03-09T15:28:08Z</time>
      </trkpt>
      <trkpt lat="46.75395" lon="5.48424">
        <ele>203.6</ele>
        <time>2022-03-09T15:28:09Z</time>
      </trkpt>
      <trkpt lat="46.754" lon="5.48419">
        <ele>203.6</ele>
        <time>2022-03-09T15:28:10Z</time>
      </trkpt>
      <trkpt lat="46.75405" lon="5.48414">
        <ele>203.6</ele>
        <time>2022-03-09T15:28:11Z</time>
      </trkpt>
      <trkpt lat="46.75409" lon="5.48409">
        <ele>203.6</ele>
        <time>2022-03-09T15:28:12Z</time>
      </trkpt>
      <trkpt lat="46.75414" lon="5.48404">
        <ele>203.8</ele>
        <time>2022-03-09T15:28:13Z</time>
      </trkpt>
      <trkpt lat="46.75419" lon="5.48399">
        <ele>203.8</ele>
        <time>2022-03-09T15:28:14Z</time>
      </trkpt>
      <trkpt lat="46.75424" lon="5.48394">
        <ele>203.8</ele>
        <time>2022-03-09T15:28:15Z</time>
      </trkpt>
      <trkpt lat="46.75429" lon="5.48388">
        <ele>203.8</ele>
        <time>2022-03-09T15:28:16Z</time>
      </trkpt>
      <trkpt lat="46.75434" lon="5.48383">
        <ele>203.8</ele>
        <time>2022-03-09T15:28:17Z</time>
      </trkpt>
      <trkpt lat="46.75439" lon="5.48378">
        <ele>203.8</ele>
        <time>2022-03-09T15:28:18Z</time>
      </trkpt>
      <trkpt lat="46.75444" lon="5.48373">
        <ele>203.8</ele>
        <time>2022-03-09T15:28:19Z</time>
      </trkpt>
      <trkpt lat="46.75448" lon="5.48368">
        <ele>203.8</ele>
        <time>2022-03-09T15:28:20Z</time>
      </trkpt>
      <trkpt lat="46.75453" lon="5.48363">
        <ele>203.8</ele>
        <time>2022-03-09T15:28:21Z</time>
      </trkpt>
      <trkpt lat="46.75458" lon="5.48357">
        <ele>203.8</ele>
        <time>2022-03-09T15:28:22Z</time>
      </trkpt>
      <trkpt lat="46.75463" lon="5.48352">
        <ele>203.8</ele>
        <time>2022-03-09T15:28:23Z</time>
      </trkpt>
      <trkpt lat="46.75468" lon="5.48347">
        <ele>203.6</ele>
        <time>2022-03-09T15:28:24Z</time>
      </trkpt>
      <trkpt lat="46.75473" lon="5.48342">
        <ele>203.6</ele>
        <time>2022-03-09T15:28:25Z</time>
      </trkpt>
      <trkpt lat="46.75478" lon="5.48336">
        <ele>203.6</ele>
        <time>2022-03-09T15:28:26Z</time>
      </trkpt>
      <trkpt lat="46.75484" lon="5.48331">
        <ele>203.6</ele>
        <time>2022-03-09T15:28:27Z</time>
      </trkpt>
      <trkpt lat="46.75489" lon="5.48325">
        <ele>203.6</ele>
        <time>2022-03-09T15:28:28Z</time>
      </trkpt>
      <trkpt lat="46.75494" lon="5.4832">
        <ele>203.2</ele>
        <time>2022-03-09T15:28:29Z</time>
      </trkpt>
      <trkpt lat="46.75499" lon="5.48314">
        <ele>203.2</ele>
        <time>2022-03-09T15:28:30Z</time>
      </trkpt>
      <trkpt lat="46.75505" lon="5.48308">
        <ele>203.2</ele>
        <time>2022-03-09T15:28:31Z</time>
      </trkpt>
      <trkpt lat="46.7551" lon="5.48302">
        <ele>203.2</ele>
        <time>2022-03-09T15:28:32Z</time>
      </trkpt>
      <trkpt lat="46.75516" lon="5.48297">
        <ele>203.2</ele>
        <time>2022-03-09T15:28:33Z</time>
      </trkpt>
      <trkpt lat="46.75522" lon="5.48291">
        <ele>203</ele>
        <time>2022-03-09T15:28:34Z</time>
      </trkpt>
      <trkpt lat="46.75527" lon="5.48285">
        <ele>203</ele>
        <time>2022-03-09T15:28:35Z</time>
      </trkpt>
      <trkpt lat="46.75533" lon="5.48278">
        <ele>203</ele>
        <time>2022-03-09T15:28:36Z</time>
      </trkpt>
      <trkpt lat="46.75539" lon="5.48272">
        <ele>203</ele>
        <time>2022-03-09T15:28:37Z</time>
      </trkpt>
      <trkpt lat="46.75545" lon="5.48266">
        <ele>203</ele>
        <time>2022-03-09T15:28:38Z</time>
      </trkpt>
      <trkpt lat="46.7555" lon="5.4826">
        <ele>203</ele>
        <time>2022-03-09T15:28:39Z</time>
      </trkpt>
      <trkpt lat="46.75556" lon="5.48254">
        <ele>203</ele>
        <time>2022-03-09T15:28:40Z</time>
      </trkpt>
      <trkpt lat="46.75562" lon="5.48248">
        <ele>203</ele>
        <time>2022-03-09T15:28:41Z</time>
      </trkpt>
      <trkpt lat="46.75568" lon="5.48242">
        <ele>203</ele>
        <time>2022-03-09T15:28:42Z</time>
      </trkpt>
      <trkpt lat="46.75574" lon="5.48236">
        <ele>203</ele>
        <time>2022-03-09T15:28:43Z</time>
      </trkpt>
      <trkpt lat="46.7558" lon="5.48229">
        <ele>203</ele>
        <time>2022-03-09T15:28:44Z</time>
      </trkpt>
      <trkpt lat="46.75586" lon="5.48223">
        <ele>203</ele>
        <time>2022-03-09T15:28:45Z</time>
      </trkpt>
      <trkpt lat="46.75591" lon="5.48217">
        <ele>203</ele>
        <time>2022-03-09T15:28:46Z</time>
      </trkpt>
      <trkpt lat="46.75597" lon="5.48211">
        <ele>203</ele>
        <time>2022-03-09T15:28:47Z</time>
      </trkpt>
      <trkpt lat="46.75603" lon="5.48205">
        <ele>203</ele>
        <time>2022-03-09T15:28:48Z</time>
      </trkpt>
      <trkpt lat="46.75609" lon="5.48199">
        <ele>203</ele>
        <time>2022-03-09T15:28:49Z</time>
      </trkpt>
      <trkpt lat="46.75615" lon="5.48192">
        <ele>203</ele>
        <time>2022-03-09T15:28:50Z</time>
      </trkpt>
      <trkpt lat="46.7562" lon="5.48186">
        <ele>203</ele>
        <time>2022-03-09T15:28:51Z</time>
      </trkpt>
      <trkpt lat="46.75626" lon="5.4818">
        <ele>203</ele>
        <time>2022-03-09T15:28:52Z</time>
      </trkpt>
      <trkpt lat="46.75632" lon="5.48174">
        <ele>203</ele>
        <time>2022-03-09T15:28:53Z</time>
      </trkpt>
      <trkpt lat="46.75638" lon="5.48168">
        <ele>203</ele>
        <time>2022-03-09T15:28:54Z</time>
      </trkpt>
      <trkpt lat="46.75643" lon="5.48162">
        <ele>203</ele>
        <time>2022-03-09T15:28:55Z</time>
      </trkpt>
      <trkpt lat="46.75649" lon="5.48157">
        <ele>202.8</ele>
        <time>2022-03-09T15:28:56Z</time>
      </trkpt>
      <trkpt lat="46.75655" lon="5.48151">
        <ele>202.8</ele>
        <time>2022-03-09T15:28:57Z</time>
      </trkpt>
      <trkpt lat="46.7566" lon="5.48145">
        <ele>202.8</ele>
        <time>2022-03-09T15:28:58Z</time>
      </trkpt>
      <trkpt lat="46.75665" lon="5.48139">
        <ele>202.8</ele>
        <time>2022-03-09T15:28:59Z</time>
      </trkpt>
      <trkpt lat="46.75671" lon="5.48133">
        <ele>202.8</ele>
        <time>2022-03-09T15:29:00Z</time>
      </trkpt>
      <trkpt lat="46.75677" lon="5.48127">
        <ele>202.8</ele>
        <time>2022-03-09T15:29:01Z</time>
      </trkpt>
      <trkpt lat="46.75682" lon="5.48122">
        <ele>202.8</ele>
        <time>2022-03-09T15:29:02Z</time>
      </trkpt>
      <trkpt lat="46.75688" lon="5.48116">
        <ele>202.8</ele>
        <time>2022-03-09T15:29:03Z</time>
      </trkpt>
      <trkpt lat="46.75693" lon="5.4811">
        <ele>202.8</ele>
        <time>2022-03-09T15:29:04Z</time>
      </trkpt>
      <trkpt lat="46.75699" lon="5.48105">
        <ele>202.8</ele>
        <time>2022-03-09T15:29:05Z</time>
      </trkpt>
      <trkpt lat="46.75704" lon="5.48099">
        <ele>202.8</ele>
        <time>2022-03-09T15:29:06Z</time>
      </trkpt>
      <trkpt lat="46.7571" lon="5.48093">
        <ele>202.8</ele>
        <time>2022-03-09T15:29:07Z</time>
      </trkpt>
      <trkpt lat="46.75715" lon="5.48088">
        <ele>202.8</ele>
        <time>2022-03-09T15:29:08Z</time>
      </trkpt>
      <trkpt lat="46.75721" lon="5.48082">
        <ele>202.6</ele>
        <time>2022-03-09T15:29:09Z</time>
      </trkpt>
      <trkpt lat="46.75726" lon="5.48076">
        <ele>202.6</ele>
        <time>2022-03-09T15:29:10Z</time>
      </trkpt>
      <trkpt lat="46.75731" lon="5.4807">
        <ele>202.6</ele>
        <time>2022-03-09T15:29:11Z</time>
      </trkpt>
      <trkpt lat="46.75737" lon="5.48065">
        <ele>202.6</ele>
        <time>2022-03-09T15:29:12Z</time>
      </trkpt>
      <trkpt lat="46.75742" lon="5.48059">
        <ele>202.6</ele>
        <time>2022-03-09T15:29:13Z</time>
      </trkpt>
      <trkpt lat="46.75748" lon="5.48053">
        <ele>202.6</ele>
        <time>2022-03-09T15:29:14Z</time>
      </trkpt>
      <trkpt lat="46.75753" lon="5.48048">
        <ele>202.6</ele>
        <time>2022-03-09T15:29:15Z</time>
      </trkpt>
      <trkpt lat="46.75758" lon="5.48042">
        <ele>202.6</ele>
        <time>2022-03-09T15:29:16Z</time>
      </trkpt>
      <trkpt lat="46.75764" lon="5.48037">
        <ele>202.6</ele>
        <time>2022-03-09T15:29:17Z</time>
      </trkpt>
      <trkpt lat="46.75769" lon="5.48031">
        <ele>202.6</ele>
        <time>2022-03-09T15:29:18Z</time>
      </trkpt>
      <trkpt lat="46.75774" lon="5.48026">
        <ele>202.6</ele>
        <time>2022-03-09T15:29:19Z</time>
      </trkpt>
      <trkpt lat="46.75779" lon="5.4802">
        <ele>202.6</ele>
        <time>2022-03-09T15:29:20Z</time>
      </trkpt>
      <trkpt lat="46.75784" lon="5.48014">
        <ele>202.6</ele>
        <time>2022-03-09T15:29:21Z</time>
      </trkpt>
      <trkpt lat="46.7579" lon="5.48009">
        <ele>202.6</ele>
        <time>2022-03-09T15:29:22Z</time>
      </trkpt>
      <trkpt lat="46.75795" lon="5.48003">
        <ele>202.6</ele>
        <time>2022-03-09T15:29:23Z</time>
      </trkpt>
      <trkpt lat="46.758" lon="5.47997">
        <ele>202.6</ele>
        <time>2022-03-09T15:29:24Z</time>
      </trkpt>
      <trkpt lat="46.75806" lon="5.47992">
        <ele>202.6</ele>
        <time>2022-03-09T15:29:25Z</time>
      </trkpt>
      <trkpt lat="46.75811" lon="5.47986">
        <ele>202.6</ele>
        <time>2022-03-09T15:29:26Z</time>
      </trkpt>
      <trkpt lat="46.75816" lon="5.4798">
        <ele>202.6</ele>
        <time>2022-03-09T15:29:27Z</time>
      </trkpt>
      <trkpt lat="46.75822" lon="5.47974">
        <ele>202.6</ele>
        <time>2022-03-09T15:29:28Z</time>
      </trkpt>
      <trkpt lat="46.75827" lon="5.47968">
        <ele>202.6</ele>
        <time>2022-03-09T15:29:29Z</time>
      </trkpt>
      <trkpt lat="46.75833" lon="5.47962">
        <ele>202.4</ele>
        <time>2022-03-09T15:29:30Z</time>
      </trkpt>
      <trkpt lat="46.75838" lon="5.47956">
        <ele>202.4</ele>
        <time>2022-03-09T15:29:31Z</time>
      </trkpt>
      <trkpt lat="46.75844" lon="5.47951">
        <ele>202.4</ele>
        <time>2022-03-09T15:29:32Z</time>
      </trkpt>
      <trkpt lat="46.75849" lon="5.47945">
        <ele>202.4</ele>
        <time>2022-03-09T15:29:33Z</time>
      </trkpt>
      <trkpt lat="46.75855" lon="5.4794">
        <ele>202.4</ele>
        <time>2022-03-09T15:29:34Z</time>
      </trkpt>
      <trkpt lat="46.75861" lon="5.47934">
        <ele>202.2</ele>
        <time>2022-03-09T15:29:35Z</time>
      </trkpt>
      <trkpt lat="46.75866" lon="5.47928">
        <ele>202.2</ele>
        <time>2022-03-09T15:29:36Z</time>
      </trkpt>
      <trkpt lat="46.75872" lon="5.47922">
        <ele>202.2</ele>
        <time>2022-03-09T15:29:37Z</time>
      </trkpt>
      <trkpt lat="46.75878" lon="5.47916">
        <ele>202.2</ele>
        <time>2022-03-09T15:29:38Z</time>
      </trkpt>
      <trkpt lat="46.75884" lon="5.4791">
        <ele>202.2</ele>
        <time>2022-03-09T15:29:39Z</time>
      </trkpt>
      <trkpt lat="46.75889" lon="5.47904">
        <ele>202</ele>
        <time>2022-03-09T15:29:40Z</time>
      </trkpt>
      <trkpt lat="46.75895" lon="5.47898">
        <ele>202</ele>
        <time>2022-03-09T15:29:41Z</time>
      </trkpt>
      <trkpt lat="46.75901" lon="5.47892">
        <ele>202</ele>
        <time>2022-03-09T15:29:42Z</time>
      </trkpt>
      <trkpt lat="46.75907" lon="5.47886">
        <ele>202</ele>
        <time>2022-03-09T15:29:43Z</time>
      </trkpt>
      <trkpt lat="46.75912" lon="5.4788">
        <ele>202</ele>
        <time>2022-03-09T15:29:44Z</time>
      </trkpt>
      <trkpt lat="46.75918" lon="5.47874">
        <ele>202</ele>
        <time>2022-03-09T15:29:45Z</time>
      </trkpt>
      <trkpt lat="46.75924" lon="5.47868">
        <ele>202</ele>
        <time>2022-03-09T15:29:46Z</time>
      </trkpt>
      <trkpt lat="46.7593" lon="5.47862">
        <ele>202</ele>
        <time>2022-03-09T15:29:47Z</time>
      </trkpt>
      <trkpt lat="46.75935" lon="5.47855">
        <ele>202</ele>
        <time>2022-03-09T15:29:48Z</time>
      </trkpt>
      <trkpt lat="46.75941" lon="5.47849">
        <ele>201.6</ele>
        <time>2022-03-09T15:29:49Z</time>
      </trkpt>
      <trkpt lat="46.75947" lon="5.47844">
        <ele>201.6</ele>
        <time>2022-03-09T15:29:50Z</time>
      </trkpt>
      <trkpt lat="46.75953" lon="5.47837">
        <ele>201.6</ele>
        <time>2022-03-09T15:29:51Z</time>
      </trkpt>
      <trkpt lat="46.75958" lon="5.47831">
        <ele>201.6</ele>
        <time>2022-03-09T15:29:52Z</time>
      </trkpt>
      <trkpt lat="46.75964" lon="5.47825">
        <ele>201.6</ele>
        <time>2022-03-09T15:29:53Z</time>
      </trkpt>
      <trkpt lat="46.7597" lon="5.47819">
        <ele>201.6</ele>
        <time>2022-03-09T15:29:54Z</time>
      </trkpt>
      <trkpt lat="46.75976" lon="5.47813">
        <ele>201.6</ele>
        <time>2022-03-09T15:29:55Z</time>
      </trkpt>
      <trkpt lat="46.75981" lon="5.47807">
        <ele>201.4</ele>
        <time>2022-03-09T15:29:56Z</time>
      </trkpt>
      <trkpt lat="46.75987" lon="5.47801">
        <ele>201.4</ele>
        <time>2022-03-09T15:29:57Z</time>
      </trkpt>
      <trkpt lat="46.75993" lon="5.47795">
        <ele>201.4</ele>
        <time>2022-03-09T15:29:58Z</time>
      </trkpt>
      <trkpt lat="46.75999" lon="5.47789">
        <ele>201.4</ele>
        <time>2022-03-09T15:29:59Z</time>
      </trkpt>
      <trkpt lat="46.76004" lon="5.47784">
        <ele>201.4</ele>
        <time>2022-03-09T15:30:00Z</time>
      </trkpt>
      <trkpt lat="46.7601" lon="5.47778">
        <ele>201.2</ele>
        <time>2022-03-09T15:30:01Z</time>
      </trkpt>
      <trkpt lat="46.76016" lon="5.47772">
        <ele>201.2</ele>
        <time>2022-03-09T15:30:02Z</time>
      </trkpt>
      <trkpt lat="46.76021" lon="5.47766">
        <ele>201.2</ele>
        <time>2022-03-09T15:30:03Z</time>
      </trkpt>
      <trkpt lat="46.76027" lon="5.4776">
        <ele>201.2</ele>
        <time>2022-03-09T15:30:04Z</time>
      </trkpt>
      <trkpt lat="46.76032" lon="5.47754">
        <ele>201.2</ele>
        <time>2022-03-09T15:30:05Z</time>
      </trkpt>
      <trkpt lat="46.76038" lon="5.47748">
        <ele>200.8</ele>
        <time>2022-03-09T15:30:06Z</time>
      </trkpt>
      <trkpt lat="46.76044" lon="5.47742">
        <ele>200.8</ele>
        <time>2022-03-09T15:30:07Z</time>
      </trkpt>
      <trkpt lat="46.7605" lon="5.47736">
        <ele>200.8</ele>
        <time>2022-03-09T15:30:08Z</time>
      </trkpt>
      <trkpt lat="46.76056" lon="5.4773">
        <ele>200.8</ele>
        <time>2022-03-09T15:30:09Z</time>
      </trkpt>
      <trkpt lat="46.76061" lon="5.47724">
        <ele>200.8</ele>
        <time>2022-03-09T15:30:10Z</time>
      </trkpt>
      <trkpt lat="46.76067" lon="5.47718">
        <ele>200.8</ele>
        <time>2022-03-09T15:30:11Z</time>
      </trkpt>
      <trkpt lat="46.76072" lon="5.47711">
        <ele>200.8</ele>
        <time>2022-03-09T15:30:12Z</time>
      </trkpt>
      <trkpt lat="46.76078" lon="5.47705">
        <ele>200.6</ele>
        <time>2022-03-09T15:30:13Z</time>
      </trkpt>
      <trkpt lat="46.76083" lon="5.47699">
        <ele>200.6</ele>
        <time>2022-03-09T15:30:14Z</time>
      </trkpt>
      <trkpt lat="46.76089" lon="5.47692">
        <ele>200.6</ele>
        <time>2022-03-09T15:30:15Z</time>
      </trkpt>
      <trkpt lat="46.76094" lon="5.47685">
        <ele>200.6</ele>
        <time>2022-03-09T15:30:16Z</time>
      </trkpt>
      <trkpt lat="46.761" lon="5.47679">
        <ele>200.6</ele>
        <time>2022-03-09T15:30:17Z</time>
      </trkpt>
      <trkpt lat="46.76105" lon="5.47672">
        <ele>200.6</ele>
        <time>2022-03-09T15:30:18Z</time>
      </trkpt>
      <trkpt lat="46.7611" lon="5.47665">
        <ele>200.6</ele>
        <time>2022-03-09T15:30:19Z</time>
      </trkpt>
      <trkpt lat="46.76115" lon="5.47658">
        <ele>200.6</ele>
        <time>2022-03-09T15:30:20Z</time>
      </trkpt>
      <trkpt lat="46.7612" lon="5.47651">
        <ele>200.6</ele>
        <time>2022-03-09T15:30:21Z</time>
      </trkpt>
      <trkpt lat="46.76125" lon="5.47644">
        <ele>200.6</ele>
        <time>2022-03-09T15:30:22Z</time>
      </trkpt>
      <trkpt lat="46.7613" lon="5.47637">
        <ele>200.6</ele>
        <time>2022-03-09T15:30:23Z</time>
      </trkpt>
      <trkpt lat="46.76135" lon="5.47629">
        <ele>200.6</ele>
        <time>2022-03-09T15:30:24Z</time>
      </trkpt>
      <trkpt lat="46.7614" lon="5.47622">
        <ele>200.6</ele>
        <time>2022-03-09T15:30:25Z</time>
      </trkpt>
      <trkpt lat="46.76144" lon="5.47615">
        <ele>200.6</ele>
        <time>2022-03-09T15:30:26Z</time>
      </trkpt>
      <trkpt lat="46.76149" lon="5.47607">
        <ele>200.4</ele>
        <time>2022-03-09T15:30:27Z</time>
      </trkpt>
      <trkpt lat="46.76153" lon="5.47599">
        <ele>200.4</ele>
        <time>2022-03-09T15:30:28Z</time>
      </trkpt>
      <trkpt lat="46.76157" lon="5.47591">
        <ele>200.4</ele>
        <time>2022-03-09T15:30:29Z</time>
      </trkpt>
      <trkpt lat="46.76161" lon="5.47583">
        <ele>200.4</ele>
        <time>2022-03-09T15:30:30Z</time>
      </trkpt>
      <trkpt lat="46.76165" lon="5.47575">
        <ele>200.4</ele>
        <time>2022-03-09T15:30:31Z</time>
      </trkpt>
      <trkpt lat="46.76169" lon="5.47567">
        <ele>200.4</ele>
        <time>2022-03-09T15:30:32Z</time>
      </trkpt>
      <trkpt lat="46.76172" lon="5.47559">
        <ele>200.2</ele>
        <time>2022-03-09T15:30:33Z</time>
      </trkpt>
      <trkpt lat="46.76176" lon="5.4755">
        <ele>200.2</ele>
        <time>2022-03-09T15:30:34Z</time>
      </trkpt>
      <trkpt lat="46.76179" lon="5.47542">
        <ele>200.2</ele>
        <time>2022-03-09T15:30:35Z</time>
      </trkpt>
      <trkpt lat="46.76182" lon="5.47534">
        <ele>200.2</ele>
        <time>2022-03-09T15:30:36Z</time>
      </trkpt>
      <trkpt lat="46.76186" lon="5.47525">
        <ele>200.2</ele>
        <time>2022-03-09T15:30:37Z</time>
      </trkpt>
      <trkpt lat="46.76189" lon="5.47517">
        <ele>200.2</ele>
        <time>2022-03-09T15:30:38Z</time>
      </trkpt>
      <trkpt lat="46.76192" lon="5.47508">
        <ele>200.2</ele>
        <time>2022-03-09T15:30:39Z</time>
      </trkpt>
      <trkpt lat="46.76196" lon="5.47499">
        <ele>200.2</ele>
        <time>2022-03-09T15:30:40Z</time>
      </trkpt>
      <trkpt lat="46.76199" lon="5.4749">
        <ele>200.2</ele>
        <time>2022-03-09T15:30:41Z</time>
      </trkpt>
      <trkpt lat="46.76202" lon="5.47481">
        <ele>200.2</ele>
        <time>2022-03-09T15:30:42Z</time>
      </trkpt>
      <trkpt lat="46.76206" lon="5.47472">
        <ele>200.2</ele>
        <time>2022-03-09T15:30:43Z</time>
      </trkpt>
      <trkpt lat="46.76209" lon="5.47463">
        <ele>200.2</ele>
        <time>2022-03-09T15:30:44Z</time>
      </trkpt>
      <trkpt lat="46.76212" lon="5.47455">
        <ele>199.8</ele>
        <time>2022-03-09T15:30:45Z</time>
      </trkpt>
      <trkpt lat="46.76216" lon="5.47446">
        <ele>199.8</ele>
        <time>2022-03-09T15:30:46Z</time>
      </trkpt>
      <trkpt lat="46.76219" lon="5.47437">
        <ele>199.8</ele>
        <time>2022-03-09T15:30:47Z</time>
      </trkpt>
      <trkpt lat="46.76219" lon="5.47437">
        <ele>199.8</ele>
        <time>2022-03-09T15:30:48Z</time>
      </trkpt>
      <trkpt lat="46.76222" lon="5.47428">
        <ele>199.8</ele>
        <time>2022-03-09T15:30:49Z</time>
      </trkpt>
      <trkpt lat="46.76225" lon="5.47419">
        <ele>199.8</ele>
        <time>2022-03-09T15:30:50Z</time>
      </trkpt>
      <trkpt lat="46.76228" lon="5.4741">
        <ele>199.8</ele>
        <time>2022-03-09T15:30:51Z</time>
      </trkpt>
      <trkpt lat="46.76231" lon="5.47402">
        <ele>199.6</ele>
        <time>2022-03-09T15:30:52Z</time>
      </trkpt>
      <trkpt lat="46.76235" lon="5.47393">
        <ele>199.6</ele>
        <time>2022-03-09T15:30:53Z</time>
      </trkpt>
      <trkpt lat="46.76238" lon="5.47385">
        <ele>199.6</ele>
        <time>2022-03-09T15:30:54Z</time>
      </trkpt>
      <trkpt lat="46.76241" lon="5.47377">
        <ele>199.6</ele>
        <time>2022-03-09T15:30:55Z</time>
      </trkpt>
      <trkpt lat="46.76244" lon="5.47368">
        <ele>199.6</ele>
        <time>2022-03-09T15:30:56Z</time>
      </trkpt>
      <trkpt lat="46.76248" lon="5.4736">
        <ele>199.6</ele>
        <time>2022-03-09T15:30:57Z</time>
      </trkpt>
      <trkpt lat="46.76251" lon="5.47351">
        <ele>199.6</ele>
        <time>2022-03-09T15:30:58Z</time>
      </trkpt>
      <trkpt lat="46.76254" lon="5.47343">
        <ele>199.6</ele>
        <time>2022-03-09T15:30:59Z</time>
      </trkpt>
      <trkpt lat="46.76257" lon="5.47334">
        <ele>199.6</ele>
        <time>2022-03-09T15:31:00Z</time>
      </trkpt>
      <trkpt lat="46.7626" lon="5.47326">
        <ele>199.6</ele>
        <time>2022-03-09T15:31:01Z</time>
      </trkpt>
      <trkpt lat="46.76263" lon="5.47319">
        <ele>199.6</ele>
        <time>2022-03-09T15:31:02Z</time>
      </trkpt>
      <trkpt lat="46.76267" lon="5.47311">
        <ele>199.6</ele>
        <time>2022-03-09T15:31:03Z</time>
      </trkpt>
      <trkpt lat="46.7627" lon="5.47304">
        <ele>199.4</ele>
        <time>2022-03-09T15:31:04Z</time>
      </trkpt>
      <trkpt lat="46.76273" lon="5.47299">
        <ele>199.4</ele>
        <time>2022-03-09T15:31:05Z</time>
      </trkpt>
      <trkpt lat="46.76275" lon="5.47296">
        <ele>199.4</ele>
        <time>2022-03-09T15:31:06Z</time>
      </trkpt>
      <trkpt lat="46.76278" lon="5.47293">
        <ele>199.4</ele>
        <time>2022-03-09T15:31:07Z</time>
      </trkpt>
      <trkpt lat="46.76281" lon="5.47291">
        <ele>199.4</ele>
        <time>2022-03-09T15:31:08Z</time>
      </trkpt>
      <trkpt lat="46.76285" lon="5.4729">
        <ele>199.4</ele>
        <time>2022-03-09T15:31:09Z</time>
      </trkpt>
      <trkpt lat="46.76289" lon="5.4729">
        <ele>199.4</ele>
        <time>2022-03-09T15:31:10Z</time>
      </trkpt>
      <trkpt lat="46.76294" lon="5.47289">
        <ele>199.4</ele>
        <time>2022-03-09T15:31:11Z</time>
      </trkpt>
      <trkpt lat="46.76299" lon="5.47288">
        <ele>199.4</ele>
        <time>2022-03-09T15:31:12Z</time>
      </trkpt>
      <trkpt lat="46.76304" lon="5.47286">
        <ele>199.4</ele>
        <time>2022-03-09T15:31:13Z</time>
      </trkpt>
      <trkpt lat="46.76309" lon="5.47283">
        <ele>199.4</ele>
        <time>2022-03-09T15:31:14Z</time>
      </trkpt>
      <trkpt lat="46.76313" lon="5.4728">
        <ele>199.4</ele>
        <time>2022-03-09T15:31:15Z</time>
      </trkpt>
      <trkpt lat="46.76318" lon="5.47278">
        <ele>199.4</ele>
        <time>2022-03-09T15:31:16Z</time>
      </trkpt>
      <trkpt lat="46.76323" lon="5.47275">
        <ele>199.4</ele>
        <time>2022-03-09T15:31:17Z</time>
      </trkpt>
      <trkpt lat="46.76328" lon="5.47273">
        <ele>199.4</ele>
        <time>2022-03-09T15:31:18Z</time>
      </trkpt>
      <trkpt lat="46.76334" lon="5.47272">
        <ele>199.4</ele>
        <time>2022-03-09T15:31:19Z</time>
      </trkpt>
      <trkpt lat="46.76339" lon="5.47269">
        <ele>199.4</ele>
        <time>2022-03-09T15:31:20Z</time>
      </trkpt>
      <trkpt lat="46.76345" lon="5.47267">
        <ele>199.4</ele>
        <time>2022-03-09T15:31:21Z</time>
      </trkpt>
      <trkpt lat="46.76351" lon="5.47265">
        <ele>199.4</ele>
        <time>2022-03-09T15:31:22Z</time>
      </trkpt>
      <trkpt lat="46.76357" lon="5.47263">
        <ele>199.4</ele>
        <time>2022-03-09T15:31:23Z</time>
      </trkpt>
      <trkpt lat="46.76363" lon="5.4726">
        <ele>199.4</ele>
        <time>2022-03-09T15:31:24Z</time>
      </trkpt>
      <trkpt lat="46.7637" lon="5.47258">
        <ele>199.4</ele>
        <time>2022-03-09T15:31:25Z</time>
      </trkpt>
      <trkpt lat="46.76376" lon="5.47255">
        <ele>199.4</ele>
        <time>2022-03-09T15:31:26Z</time>
      </trkpt>
      <trkpt lat="46.76382" lon="5.47252">
        <ele>199.4</ele>
        <time>2022-03-09T15:31:27Z</time>
      </trkpt>
      <trkpt lat="46.76389" lon="5.4725">
        <ele>199.6</ele>
        <time>2022-03-09T15:31:28Z</time>
      </trkpt>
      <trkpt lat="46.76396" lon="5.47248">
        <ele>199.6</ele>
        <time>2022-03-09T15:31:29Z</time>
      </trkpt>
      <trkpt lat="46.76402" lon="5.47245">
        <ele>199.6</ele>
        <time>2022-03-09T15:31:30Z</time>
      </trkpt>
      <trkpt lat="46.76409" lon="5.47242">
        <ele>199.6</ele>
        <time>2022-03-09T15:31:31Z</time>
      </trkpt>
      <trkpt lat="46.76416" lon="5.47239">
        <ele>199.6</ele>
        <time>2022-03-09T15:31:32Z</time>
      </trkpt>
      <trkpt lat="46.76422" lon="5.47237">
        <ele>199.6</ele>
        <time>2022-03-09T15:31:33Z</time>
      </trkpt>
      <trkpt lat="46.76429" lon="5.47234">
        <ele>199.6</ele>
        <time>2022-03-09T15:31:34Z</time>
      </trkpt>
      <trkpt lat="46.76436" lon="5.47231">
        <ele>199.6</ele>
        <time>2022-03-09T15:31:35Z</time>
      </trkpt>
      <trkpt lat="46.76443" lon="5.47228">
        <ele>199.6</ele>
        <time>2022-03-09T15:31:36Z</time>
      </trkpt>
      <trkpt lat="46.76449" lon="5.47225">
        <ele>199.6</ele>
        <time>2022-03-09T15:31:37Z</time>
      </trkpt>
      <trkpt lat="46.76456" lon="5.47222">
        <ele>199.6</ele>
        <time>2022-03-09T15:31:38Z</time>
      </trkpt>
      <trkpt lat="46.76463" lon="5.4722">
        <ele>199.6</ele>
        <time>2022-03-09T15:31:39Z</time>
      </trkpt>
      <trkpt lat="46.7647" lon="5.47217">
        <ele>199.6</ele>
        <time>2022-03-09T15:31:40Z</time>
      </trkpt>
      <trkpt lat="46.76477" lon="5.47214">
        <ele>199.6</ele>
        <time>2022-03-09T15:31:41Z</time>
      </trkpt>
      <trkpt lat="46.76484" lon="5.47211">
        <ele>199.6</ele>
        <time>2022-03-09T15:31:42Z</time>
      </trkpt>
      <trkpt lat="46.76491" lon="5.47208">
        <ele>199.6</ele>
        <time>2022-03-09T15:31:43Z</time>
      </trkpt>
      <trkpt lat="46.76498" lon="5.47205">
        <ele>199.6</ele>
        <time>2022-03-09T15:31:44Z</time>
      </trkpt>
      <trkpt lat="46.76504" lon="5.47203">
        <ele>199.6</ele>
        <time>2022-03-09T15:31:45Z</time>
      </trkpt>
      <trkpt lat="46.76511" lon="5.472">
        <ele>199.6</ele>
        <time>2022-03-09T15:31:46Z</time>
      </trkpt>
      <trkpt lat="46.76517" lon="5.47197">
        <ele>199.6</ele>
        <time>2022-03-09T15:31:47Z</time>
      </trkpt>
      <trkpt lat="46.76524" lon="5.47195">
        <ele>199.6</ele>
        <time>2022-03-09T15:31:48Z</time>
      </trkpt>
      <trkpt lat="46.7653" lon="5.47192">
        <ele>199.8</ele>
        <time>2022-03-09T15:31:49Z</time>
      </trkpt>
      <trkpt lat="46.76536" lon="5.47189">
        <ele>199.8</ele>
        <time>2022-03-09T15:31:50Z</time>
      </trkpt>
      <trkpt lat="46.76542" lon="5.47187">
        <ele>200.2</ele>
        <time>2022-03-09T15:31:51Z</time>
      </trkpt>
      <trkpt lat="46.76548" lon="5.47185">
        <ele>200.2</ele>
        <time>2022-03-09T15:31:52Z</time>
      </trkpt>
      <trkpt lat="46.76554" lon="5.47182">
        <ele>200.2</ele>
        <time>2022-03-09T15:31:53Z</time>
      </trkpt>
      <trkpt lat="46.7656" lon="5.47179">
        <ele>200.4</ele>
        <time>2022-03-09T15:31:54Z</time>
      </trkpt>
      <trkpt lat="46.76566" lon="5.47177">
        <ele>200.4</ele>
        <time>2022-03-09T15:31:55Z</time>
      </trkpt>
      <trkpt lat="46.76571" lon="5.47174">
        <ele>200.4</ele>
        <time>2022-03-09T15:31:56Z</time>
      </trkpt>
      <trkpt lat="46.76577" lon="5.47172">
        <ele>200.8</ele>
        <time>2022-03-09T15:31:57Z</time>
      </trkpt>
      <trkpt lat="46.76582" lon="5.4717">
        <ele>200.8</ele>
        <time>2022-03-09T15:31:58Z</time>
      </trkpt>
      <trkpt lat="46.76588" lon="5.47167">
        <ele>200.8</ele>
        <time>2022-03-09T15:31:59Z</time>
      </trkpt>
      <trkpt lat="46.76593" lon="5.47165">
        <ele>201</ele>
        <time>2022-03-09T15:32:00Z</time>
      </trkpt>
      <trkpt lat="46.76599" lon="5.47162">
        <ele>201</ele>
        <time>2022-03-09T15:32:01Z</time>
      </trkpt>
      <trkpt lat="46.76605" lon="5.47159">
        <ele>201.2</ele>
        <time>2022-03-09T15:32:02Z</time>
      </trkpt>
      <trkpt lat="46.7661" lon="5.47157">
        <ele>201.2</ele>
        <time>2022-03-09T15:32:03Z</time>
      </trkpt>
      <trkpt lat="46.76616" lon="5.47155">
        <ele>201.6</ele>
        <time>2022-03-09T15:32:04Z</time>
      </trkpt>
      <trkpt lat="46.76622" lon="5.47153">
        <ele>201.6</ele>
        <time>2022-03-09T15:32:05Z</time>
      </trkpt>
      <trkpt lat="46.76627" lon="5.47151">
        <ele>202</ele>
        <time>2022-03-09T15:32:06Z</time>
      </trkpt>
      <trkpt lat="46.76633" lon="5.47149">
        <ele>202</ele>
        <time>2022-03-09T15:32:07Z</time>
      </trkpt>
      <trkpt lat="46.76638" lon="5.47147">
        <ele>202.4</ele>
        <time>2022-03-09T15:32:08Z</time>
      </trkpt>
      <trkpt lat="46.76643" lon="5.47145">
        <ele>202.4</ele>
        <time>2022-03-09T15:32:09Z</time>
      </trkpt>
      <trkpt lat="46.76648" lon="5.47143">
        <ele>202.6</ele>
        <time>2022-03-09T15:32:10Z</time>
      </trkpt>
      <trkpt lat="46.76654" lon="5.47141">
        <ele>202.6</ele>
        <time>2022-03-09T15:32:11Z</time>
      </trkpt>
      <trkpt lat="46.76658" lon="5.47139">
        <ele>203</ele>
        <time>2022-03-09T15:32:12Z</time>
      </trkpt>
      <trkpt lat="46.76663" lon="5.47137">
        <ele>203.4</ele>
        <time>2022-03-09T15:32:13Z</time>
      </trkpt>
      <trkpt lat="46.76668" lon="5.47135">
        <ele>203.4</ele>
        <time>2022-03-09T15:32:14Z</time>
      </trkpt>
      <trkpt lat="46.76673" lon="5.47133">
        <ele>203.6</ele>
        <time>2022-03-09T15:32:15Z</time>
      </trkpt>
      <trkpt lat="46.76677" lon="5.47131">
        <ele>203.6</ele>
        <time>2022-03-09T15:32:16Z</time>
      </trkpt>
      <trkpt lat="46.76682" lon="5.47129">
        <ele>204</ele>
        <time>2022-03-09T15:32:17Z</time>
      </trkpt>
      <trkpt lat="46.76687" lon="5.47127">
        <ele>204</ele>
        <time>2022-03-09T15:32:18Z</time>
      </trkpt>
      <trkpt lat="46.76691" lon="5.47125">
        <ele>204.4</ele>
        <time>2022-03-09T15:32:19Z</time>
      </trkpt>
      <trkpt lat="46.76696" lon="5.47123">
        <ele>204.4</ele>
        <time>2022-03-09T15:32:20Z</time>
      </trkpt>
      <trkpt lat="46.76701" lon="5.47121">
        <ele>204.8</ele>
        <time>2022-03-09T15:32:21Z</time>
      </trkpt>
      <trkpt lat="46.76707" lon="5.47119">
        <ele>205</ele>
        <time>2022-03-09T15:32:22Z</time>
      </trkpt>
      <trkpt lat="46.76712" lon="5.47117">
        <ele>205.4</ele>
        <time>2022-03-09T15:32:23Z</time>
      </trkpt>
      <trkpt lat="46.76717" lon="5.47115">
        <ele>205.6</ele>
        <time>2022-03-09T15:32:24Z</time>
      </trkpt>
      <trkpt lat="46.76722" lon="5.47112">
        <ele>205.8</ele>
        <time>2022-03-09T15:32:25Z</time>
      </trkpt>
      <trkpt lat="46.76727" lon="5.4711">
        <ele>205.8</ele>
        <time>2022-03-09T15:32:26Z</time>
      </trkpt>
      <trkpt lat="46.76732" lon="5.47108">
        <ele>206.2</ele>
        <time>2022-03-09T15:32:27Z</time>
      </trkpt>
      <trkpt lat="46.76737" lon="5.47106">
        <ele>206.2</ele>
        <time>2022-03-09T15:32:28Z</time>
      </trkpt>
      <trkpt lat="46.76742" lon="5.47104">
        <ele>206.6</ele>
        <time>2022-03-09T15:32:29Z</time>
      </trkpt>
      <trkpt lat="46.76747" lon="5.47102">
        <ele>206.6</ele>
        <time>2022-03-09T15:32:30Z</time>
      </trkpt>
      <trkpt lat="46.76752" lon="5.471">
        <ele>207</ele>
        <time>2022-03-09T15:32:31Z</time>
      </trkpt>
      <trkpt lat="46.76757" lon="5.47097">
        <ele>207</ele>
        <time>2022-03-09T15:32:32Z</time>
      </trkpt>
      <trkpt lat="46.76762" lon="5.47095">
        <ele>207.4</ele>
        <time>2022-03-09T15:32:33Z</time>
      </trkpt>
      <trkpt lat="46.76767" lon="5.47093">
        <ele>207.6</ele>
        <time>2022-03-09T15:32:34Z</time>
      </trkpt>
      <trkpt lat="46.76772" lon="5.47091">
        <ele>207.6</ele>
        <time>2022-03-09T15:32:35Z</time>
      </trkpt>
      <trkpt lat="46.76777" lon="5.47089">
        <ele>207.8</ele>
        <time>2022-03-09T15:32:36Z</time>
      </trkpt>
      <trkpt lat="46.76783" lon="5.47087">
        <ele>207.8</ele>
        <time>2022-03-09T15:32:37Z</time>
      </trkpt>
      <trkpt lat="46.76788" lon="5.47086">
        <ele>208.2</ele>
        <time>2022-03-09T15:32:38Z</time>
      </trkpt>
      <trkpt lat="46.76793" lon="5.47084">
        <ele>208.2</ele>
        <time>2022-03-09T15:32:39Z</time>
      </trkpt>
      <trkpt lat="46.76799" lon="5.47082">
        <ele>208.6</ele>
        <time>2022-03-09T15:32:40Z</time>
      </trkpt>
      <trkpt lat="46.76804" lon="5.47079">
        <ele>208.6</ele>
        <time>2022-03-09T15:32:41Z</time>
      </trkpt>
      <trkpt lat="46.7681" lon="5.47077">
        <ele>208.8</ele>
        <time>2022-03-09T15:32:42Z</time>
      </trkpt>
      <trkpt lat="46.76815" lon="5.47075">
        <ele>208.8</ele>
        <time>2022-03-09T15:32:43Z</time>
      </trkpt>
      <trkpt lat="46.7682" lon="5.47072">
        <ele>208.8</ele>
        <time>2022-03-09T15:32:44Z</time>
      </trkpt>
      <trkpt lat="46.76826" lon="5.4707">
        <ele>209.2</ele>
        <time>2022-03-09T15:32:45Z</time>
      </trkpt>
      <trkpt lat="46.76832" lon="5.47067">
        <ele>209.2</ele>
        <time>2022-03-09T15:32:46Z</time>
      </trkpt>
      <trkpt lat="46.76844" lon="5.47062">
        <ele>209.4</ele>
        <time>2022-03-09T15:32:47Z</time>
      </trkpt>
      <trkpt lat="46.7685" lon="5.47059">
        <ele>209.4</ele>
        <time>2022-03-09T15:32:48Z</time>
      </trkpt>
      <trkpt lat="46.76855" lon="5.47056">
        <ele>209.4</ele>
        <time>2022-03-09T15:32:49Z</time>
      </trkpt>
      <trkpt lat="46.76861" lon="5.47053">
        <ele>209.6</ele>
        <time>2022-03-09T15:32:50Z</time>
      </trkpt>
      <trkpt lat="46.76867" lon="5.4705">
        <ele>209.6</ele>
        <time>2022-03-09T15:32:51Z</time>
      </trkpt>
      <trkpt lat="46.76873" lon="5.47048">
        <ele>209.6</ele>
        <time>2022-03-09T15:32:52Z</time>
      </trkpt>
      <trkpt lat="46.7688" lon="5.47046">
        <ele>209.6</ele>
        <time>2022-03-09T15:32:53Z</time>
      </trkpt>
      <trkpt lat="46.76886" lon="5.47043">
        <ele>209.6</ele>
        <time>2022-03-09T15:32:54Z</time>
      </trkpt>
      <trkpt lat="46.76893" lon="5.47041">
        <ele>209.6</ele>
        <time>2022-03-09T15:32:55Z</time>
      </trkpt>
      <trkpt lat="46.76899" lon="5.47039">
        <ele>209.6</ele>
        <time>2022-03-09T15:32:56Z</time>
      </trkpt>
      <trkpt lat="46.76906" lon="5.47036">
        <ele>209.6</ele>
        <time>2022-03-09T15:32:57Z</time>
      </trkpt>
      <trkpt lat="46.76913" lon="5.47033">
        <ele>209.6</ele>
        <time>2022-03-09T15:32:58Z</time>
      </trkpt>
      <trkpt lat="46.76919" lon="5.4703">
        <ele>209.6</ele>
        <time>2022-03-09T15:32:59Z</time>
      </trkpt>
      <trkpt lat="46.76926" lon="5.47028">
        <ele>209.6</ele>
        <time>2022-03-09T15:33:00Z</time>
      </trkpt>
      <trkpt lat="46.76934" lon="5.47025">
        <ele>209.4</ele>
        <time>2022-03-09T15:33:01Z</time>
      </trkpt>
      <trkpt lat="46.76941" lon="5.47022">
        <ele>209.4</ele>
        <time>2022-03-09T15:33:02Z</time>
      </trkpt>
      <trkpt lat="46.76948" lon="5.4702">
        <ele>209.2</ele>
        <time>2022-03-09T15:33:03Z</time>
      </trkpt>
      <trkpt lat="46.76956" lon="5.47016">
        <ele>209.2</ele>
        <time>2022-03-09T15:33:04Z</time>
      </trkpt>
      <trkpt lat="46.76963" lon="5.47013">
        <ele>209</ele>
        <time>2022-03-09T15:33:05Z</time>
      </trkpt>
      <trkpt lat="46.76971" lon="5.47009">
        <ele>209</ele>
        <time>2022-03-09T15:33:06Z</time>
      </trkpt>
      <trkpt lat="46.76979" lon="5.47006">
        <ele>208.6</ele>
        <time>2022-03-09T15:33:07Z</time>
      </trkpt>
      <trkpt lat="46.76987" lon="5.47002">
        <ele>208.6</ele>
        <time>2022-03-09T15:33:08Z</time>
      </trkpt>
      <trkpt lat="46.76995" lon="5.46999">
        <ele>208.4</ele>
        <time>2022-03-09T15:33:09Z</time>
      </trkpt>
      <trkpt lat="46.77003" lon="5.46996">
        <ele>208.4</ele>
        <time>2022-03-09T15:33:10Z</time>
      </trkpt>
      <trkpt lat="46.77011" lon="5.46993">
        <ele>208</ele>
        <time>2022-03-09T15:33:11Z</time>
      </trkpt>
      <trkpt lat="46.77019" lon="5.4699">
        <ele>208</ele>
        <time>2022-03-09T15:33:12Z</time>
      </trkpt>
      <trkpt lat="46.77028" lon="5.46987">
        <ele>207.8</ele>
        <time>2022-03-09T15:33:13Z</time>
      </trkpt>
      <trkpt lat="46.77036" lon="5.46984">
        <ele>207.8</ele>
        <time>2022-03-09T15:33:14Z</time>
      </trkpt>
      <trkpt lat="46.77044" lon="5.4698">
        <ele>207.6</ele>
        <time>2022-03-09T15:33:15Z</time>
      </trkpt>
      <trkpt lat="46.77053" lon="5.46976">
        <ele>207.6</ele>
        <time>2022-03-09T15:33:16Z</time>
      </trkpt>
      <trkpt lat="46.77061" lon="5.46973">
        <ele>207.4</ele>
        <time>2022-03-09T15:33:17Z</time>
      </trkpt>
      <trkpt lat="46.77069" lon="5.46969">
        <ele>207.4</ele>
        <time>2022-03-09T15:33:18Z</time>
      </trkpt>
      <trkpt lat="46.77078" lon="5.46966">
        <ele>207</ele>
        <time>2022-03-09T15:33:19Z</time>
      </trkpt>
      <trkpt lat="46.77086" lon="5.46962">
        <ele>207</ele>
        <time>2022-03-09T15:33:20Z</time>
      </trkpt>
      <trkpt lat="46.77094" lon="5.46959">
        <ele>206.8</ele>
        <time>2022-03-09T15:33:21Z</time>
      </trkpt>
      <trkpt lat="46.77102" lon="5.46956">
        <ele>206.8</ele>
        <time>2022-03-09T15:33:22Z</time>
      </trkpt>
      <trkpt lat="46.7711" lon="5.46953">
        <ele>206.4</ele>
        <time>2022-03-09T15:33:23Z</time>
      </trkpt>
      <trkpt lat="46.77118" lon="5.46949">
        <ele>206.4</ele>
        <time>2022-03-09T15:33:24Z</time>
      </trkpt>
      <trkpt lat="46.77126" lon="5.46946">
        <ele>206</ele>
        <time>2022-03-09T15:33:25Z</time>
      </trkpt>
      <trkpt lat="46.77134" lon="5.46943">
        <ele>206</ele>
        <time>2022-03-09T15:33:26Z</time>
      </trkpt>
      <trkpt lat="46.77142" lon="5.46939">
        <ele>205.8</ele>
        <time>2022-03-09T15:33:27Z</time>
      </trkpt>
      <trkpt lat="46.77149" lon="5.46936">
        <ele>205.8</ele>
        <time>2022-03-09T15:33:28Z</time>
      </trkpt>
      <trkpt lat="46.77157" lon="5.46933">
        <ele>205.8</ele>
        <time>2022-03-09T15:33:29Z</time>
      </trkpt>
      <trkpt lat="46.77165" lon="5.4693">
        <ele>205.8</ele>
        <time>2022-03-09T15:33:30Z</time>
      </trkpt>
      <trkpt lat="46.77173" lon="5.46927">
        <ele>205.8</ele>
        <time>2022-03-09T15:33:31Z</time>
      </trkpt>
      <trkpt lat="46.7718" lon="5.46924">
        <ele>205.8</ele>
        <time>2022-03-09T15:33:32Z</time>
      </trkpt>
      <trkpt lat="46.77188" lon="5.46921">
        <ele>205.8</ele>
        <time>2022-03-09T15:33:33Z</time>
      </trkpt>
      <trkpt lat="46.77195" lon="5.46918">
        <ele>205.8</ele>
        <time>2022-03-09T15:33:34Z</time>
      </trkpt>
      <trkpt lat="46.77202" lon="5.46915">
        <ele>205.8</ele>
        <time>2022-03-09T15:33:35Z</time>
      </trkpt>
      <trkpt lat="46.7721" lon="5.46912">
        <ele>205.8</ele>
        <time>2022-03-09T15:33:36Z</time>
      </trkpt>
      <trkpt lat="46.77217" lon="5.46909">
        <ele>205.8</ele>
        <time>2022-03-09T15:33:37Z</time>
      </trkpt>
      <trkpt lat="46.77224" lon="5.46906">
        <ele>205.8</ele>
        <time>2022-03-09T15:33:38Z</time>
      </trkpt>
      <trkpt lat="46.77231" lon="5.46903">
        <ele>205.6</ele>
        <time>2022-03-09T15:33:39Z</time>
      </trkpt>
      <trkpt lat="46.77238" lon="5.469">
        <ele>205.6</ele>
        <time>2022-03-09T15:33:40Z</time>
      </trkpt>
      <trkpt lat="46.77245" lon="5.46897">
        <ele>205.6</ele>
        <time>2022-03-09T15:33:41Z</time>
      </trkpt>
      <trkpt lat="46.77252" lon="5.46894">
        <ele>205.6</ele>
        <time>2022-03-09T15:33:42Z</time>
      </trkpt>
      <trkpt lat="46.77259" lon="5.46891">
        <ele>205.6</ele>
        <time>2022-03-09T15:33:43Z</time>
      </trkpt>
      <trkpt lat="46.77266" lon="5.46888">
        <ele>205.6</ele>
        <time>2022-03-09T15:33:44Z</time>
      </trkpt>
      <trkpt lat="46.77273" lon="5.46885">
        <ele>205.6</ele>
        <time>2022-03-09T15:33:45Z</time>
      </trkpt>
      <trkpt lat="46.7728" lon="5.46883">
        <ele>205.6</ele>
        <time>2022-03-09T15:33:46Z</time>
      </trkpt>
      <trkpt lat="46.77287" lon="5.4688">
        <ele>205.4</ele>
        <time>2022-03-09T15:33:47Z</time>
      </trkpt>
      <trkpt lat="46.77295" lon="5.46877">
        <ele>205.4</ele>
        <time>2022-03-09T15:33:48Z</time>
      </trkpt>
      <trkpt lat="46.77302" lon="5.46874">
        <ele>205.4</ele>
        <time>2022-03-09T15:33:49Z</time>
      </trkpt>
      <trkpt lat="46.77309" lon="5.46871">
        <ele>205.4</ele>
        <time>2022-03-09T15:33:50Z</time>
      </trkpt>
      <trkpt lat="46.77316" lon="5.46868">
        <ele>205.4</ele>
        <time>2022-03-09T15:33:51Z</time>
      </trkpt>
      <trkpt lat="46.77323" lon="5.46865">
        <ele>205.4</ele>
        <time>2022-03-09T15:33:52Z</time>
      </trkpt>
      <trkpt lat="46.7733" lon="5.46863">
        <ele>205.4</ele>
        <time>2022-03-09T15:33:53Z</time>
      </trkpt>
      <trkpt lat="46.77337" lon="5.4686">
        <ele>205.4</ele>
        <time>2022-03-09T15:33:54Z</time>
      </trkpt>
      <trkpt lat="46.77344" lon="5.46857">
        <ele>205.6</ele>
        <time>2022-03-09T15:33:55Z</time>
      </trkpt>
      <trkpt lat="46.7735" lon="5.46854">
        <ele>205.6</ele>
        <time>2022-03-09T15:33:56Z</time>
      </trkpt>
      <trkpt lat="46.77357" lon="5.46851">
        <ele>205.8</ele>
        <time>2022-03-09T15:33:57Z</time>
      </trkpt>
      <trkpt lat="46.77363" lon="5.46848">
        <ele>205.8</ele>
        <time>2022-03-09T15:33:58Z</time>
      </trkpt>
      <trkpt lat="46.7737" lon="5.46846">
        <ele>205.8</ele>
        <time>2022-03-09T15:33:59Z</time>
      </trkpt>
      <trkpt lat="46.77376" lon="5.46843">
        <ele>206</ele>
        <time>2022-03-09T15:34:00Z</time>
      </trkpt>
      <trkpt lat="46.77382" lon="5.46841">
        <ele>206</ele>
        <time>2022-03-09T15:34:01Z</time>
      </trkpt>
      <trkpt lat="46.77392" lon="5.46837">
        <ele>206.2</ele>
        <time>2022-03-09T15:34:02Z</time>
      </trkpt>
      <trkpt lat="46.77395" lon="5.46835">
        <ele>206.2</ele>
        <time>2022-03-09T15:34:03Z</time>
      </trkpt>
      <trkpt lat="46.77401" lon="5.46833">
        <ele>206.8</ele>
        <time>2022-03-09T15:34:04Z</time>
      </trkpt>
      <trkpt lat="46.77407" lon="5.4683">
        <ele>206.8</ele>
        <time>2022-03-09T15:34:05Z</time>
      </trkpt>
      <trkpt lat="46.77413" lon="5.46827">
        <ele>206.8</ele>
        <time>2022-03-09T15:34:06Z</time>
      </trkpt>
      <trkpt lat="46.77419" lon="5.46825">
        <ele>206.8</ele>
        <time>2022-03-09T15:34:07Z</time>
      </trkpt>
      <trkpt lat="46.77425" lon="5.46822">
        <ele>206.8</ele>
        <time>2022-03-09T15:34:08Z</time>
      </trkpt>
      <trkpt lat="46.77432" lon="5.46819">
        <ele>207</ele>
        <time>2022-03-09T15:34:09Z</time>
      </trkpt>
      <trkpt lat="46.77438" lon="5.46817">
        <ele>207</ele>
        <time>2022-03-09T15:34:10Z</time>
      </trkpt>
      <trkpt lat="46.77444" lon="5.46814">
        <ele>207</ele>
        <time>2022-03-09T15:34:11Z</time>
      </trkpt>
      <trkpt lat="46.77451" lon="5.46812">
        <ele>207.4</ele>
        <time>2022-03-09T15:34:12Z</time>
      </trkpt>
      <trkpt lat="46.77457" lon="5.46809">
        <ele>207.4</ele>
        <time>2022-03-09T15:34:13Z</time>
      </trkpt>
      <trkpt lat="46.77463" lon="5.46807">
        <ele>207.6</ele>
        <time>2022-03-09T15:34:14Z</time>
      </trkpt>
      <trkpt lat="46.7747" lon="5.46804">
        <ele>207.6</ele>
        <time>2022-03-09T15:34:15Z</time>
      </trkpt>
      <trkpt lat="46.77476" lon="5.46801">
        <ele>207.8</ele>
        <time>2022-03-09T15:34:16Z</time>
      </trkpt>
      <trkpt lat="46.77482" lon="5.46798">
        <ele>207.8</ele>
        <time>2022-03-09T15:34:17Z</time>
      </trkpt>
      <trkpt lat="46.77489" lon="5.46796">
        <ele>208.2</ele>
        <time>2022-03-09T15:34:18Z</time>
      </trkpt>
      <trkpt lat="46.77495" lon="5.46793">
        <ele>208.2</ele>
        <time>2022-03-09T15:34:19Z</time>
      </trkpt>
      <trkpt lat="46.77501" lon="5.4679">
        <ele>208.4</ele>
        <time>2022-03-09T15:34:20Z</time>
      </trkpt>
      <trkpt lat="46.77507" lon="5.46788">
        <ele>208.4</ele>
        <time>2022-03-09T15:34:21Z</time>
      </trkpt>
      <trkpt lat="46.77513" lon="5.46785">
        <ele>208.6</ele>
        <time>2022-03-09T15:34:22Z</time>
      </trkpt>
      <trkpt lat="46.77519" lon="5.46783">
        <ele>208.6</ele>
        <time>2022-03-09T15:34:23Z</time>
      </trkpt>
      <trkpt lat="46.77525" lon="5.46781">
        <ele>209</ele>
        <time>2022-03-09T15:34:24Z</time>
      </trkpt>
      <trkpt lat="46.77531" lon="5.46778">
        <ele>209</ele>
        <time>2022-03-09T15:34:25Z</time>
      </trkpt>
      <trkpt lat="46.77537" lon="5.46775">
        <ele>209.2</ele>
        <time>2022-03-09T15:34:26Z</time>
      </trkpt>
      <trkpt lat="46.77543" lon="5.46773">
        <ele>209.2</ele>
        <time>2022-03-09T15:34:27Z</time>
      </trkpt>
      <trkpt lat="46.77549" lon="5.46771">
        <ele>209.2</ele>
        <time>2022-03-09T15:34:28Z</time>
      </trkpt>
      <trkpt lat="46.77555" lon="5.46768">
        <ele>209.2</ele>
        <time>2022-03-09T15:34:29Z</time>
      </trkpt>
      <trkpt lat="46.77561" lon="5.46765">
        <ele>209.6</ele>
        <time>2022-03-09T15:34:30Z</time>
      </trkpt>
      <trkpt lat="46.77566" lon="5.46762">
        <ele>209.6</ele>
        <time>2022-03-09T15:34:31Z</time>
      </trkpt>
      <trkpt lat="46.77572" lon="5.4676">
        <ele>209.8</ele>
        <time>2022-03-09T15:34:32Z</time>
      </trkpt>
      <trkpt lat="46.77578" lon="5.46758">
        <ele>209.8</ele>
        <time>2022-03-09T15:34:33Z</time>
      </trkpt>
      <trkpt lat="46.77584" lon="5.46755">
        <ele>210</ele>
        <time>2022-03-09T15:34:34Z</time>
      </trkpt>
      <trkpt lat="46.7759" lon="5.46753">
        <ele>210</ele>
        <time>2022-03-09T15:34:35Z</time>
      </trkpt>
      <trkpt lat="46.77595" lon="5.46751">
        <ele>210.4</ele>
        <time>2022-03-09T15:34:36Z</time>
      </trkpt>
      <trkpt lat="46.77601" lon="5.46749">
        <ele>210.4</ele>
        <time>2022-03-09T15:34:37Z</time>
      </trkpt>
      <trkpt lat="46.77606" lon="5.46747">
        <ele>210.6</ele>
        <time>2022-03-09T15:34:38Z</time>
      </trkpt>
      <trkpt lat="46.77612" lon="5.46744">
        <ele>210.6</ele>
        <time>2022-03-09T15:34:39Z</time>
      </trkpt>
      <trkpt lat="46.77618" lon="5.46742">
        <ele>211</ele>
        <time>2022-03-09T15:34:40Z</time>
      </trkpt>
      <trkpt lat="46.77623" lon="5.46739">
        <ele>211</ele>
        <time>2022-03-09T15:34:41Z</time>
      </trkpt>
      <trkpt lat="46.77629" lon="5.46737">
        <ele>211.4</ele>
        <time>2022-03-09T15:34:42Z</time>
      </trkpt>
      <trkpt lat="46.77634" lon="5.46735">
        <ele>211.4</ele>
        <time>2022-03-09T15:34:43Z</time>
      </trkpt>
      <trkpt lat="46.7764" lon="5.46733">
        <ele>211.6</ele>
        <time>2022-03-09T15:34:44Z</time>
      </trkpt>
      <trkpt lat="46.77645" lon="5.4673">
        <ele>211.6</ele>
        <time>2022-03-09T15:34:45Z</time>
      </trkpt>
      <trkpt lat="46.77651" lon="5.46727">
        <ele>211.8</ele>
        <time>2022-03-09T15:34:46Z</time>
      </trkpt>
      <trkpt lat="46.77656" lon="5.46725">
        <ele>211.8</ele>
        <time>2022-03-09T15:34:47Z</time>
      </trkpt>
      <trkpt lat="46.77662" lon="5.46723">
        <ele>211.8</ele>
        <time>2022-03-09T15:34:48Z</time>
      </trkpt>
      <trkpt lat="46.77668" lon="5.46721">
        <ele>212.2</ele>
        <time>2022-03-09T15:34:49Z</time>
      </trkpt>
      <trkpt lat="46.77673" lon="5.46718">
        <ele>212.2</ele>
        <time>2022-03-09T15:34:50Z</time>
      </trkpt>
      <trkpt lat="46.77679" lon="5.46716">
        <ele>212.4</ele>
        <time>2022-03-09T15:34:51Z</time>
      </trkpt>
      <trkpt lat="46.77685" lon="5.46713">
        <ele>212.4</ele>
        <time>2022-03-09T15:34:52Z</time>
      </trkpt>
      <trkpt lat="46.77691" lon="5.46711">
        <ele>212.4</ele>
        <time>2022-03-09T15:34:53Z</time>
      </trkpt>
      <trkpt lat="46.77696" lon="5.46708">
        <ele>212.4</ele>
        <time>2022-03-09T15:34:54Z</time>
      </trkpt>
      <trkpt lat="46.77703" lon="5.46706">
        <ele>212.6</ele>
        <time>2022-03-09T15:34:55Z</time>
      </trkpt>
      <trkpt lat="46.77709" lon="5.46703">
        <ele>212.6</ele>
        <time>2022-03-09T15:34:56Z</time>
      </trkpt>
      <trkpt lat="46.77715" lon="5.46701">
        <ele>212.6</ele>
        <time>2022-03-09T15:34:57Z</time>
      </trkpt>
      <trkpt lat="46.77721" lon="5.46698">
        <ele>212.8</ele>
        <time>2022-03-09T15:34:58Z</time>
      </trkpt>
      <trkpt lat="46.77729" lon="5.46695">
        <ele>212.8</ele>
        <time>2022-03-09T15:34:59Z</time>
      </trkpt>
      <trkpt lat="46.7773" lon="5.46695">
        <ele>212.8</ele>
        <time>2022-03-09T15:35:00Z</time>
      </trkpt>
      <trkpt lat="46.77737" lon="5.46692">
        <ele>212.8</ele>
        <time>2022-03-09T15:35:01Z</time>
      </trkpt>
      <trkpt lat="46.7774" lon="5.46691">
        <ele>213.2</ele>
        <time>2022-03-09T15:35:02Z</time>
      </trkpt>
      <trkpt lat="46.77746" lon="5.46688">
        <ele>213.2</ele>
        <time>2022-03-09T15:35:03Z</time>
      </trkpt>
      <trkpt lat="46.77752" lon="5.46685">
        <ele>213.2</ele>
        <time>2022-03-09T15:35:04Z</time>
      </trkpt>
      <trkpt lat="46.77758" lon="5.46683">
        <ele>213.2</ele>
        <time>2022-03-09T15:35:05Z</time>
      </trkpt>
      <trkpt lat="46.77765" lon="5.4668">
        <ele>213.4</ele>
        <time>2022-03-09T15:35:06Z</time>
      </trkpt>
      <trkpt lat="46.7777" lon="5.46678">
        <ele>213.4</ele>
        <time>2022-03-09T15:35:07Z</time>
      </trkpt>
      <trkpt lat="46.77776" lon="5.46675">
        <ele>213.6</ele>
        <time>2022-03-09T15:35:08Z</time>
      </trkpt>
      <trkpt lat="46.77782" lon="5.46672">
        <ele>213.6</ele>
        <time>2022-03-09T15:35:09Z</time>
      </trkpt>
      <trkpt lat="46.77789" lon="5.4667">
        <ele>214</ele>
        <time>2022-03-09T15:35:10Z</time>
      </trkpt>
      <trkpt lat="46.77795" lon="5.46667">
        <ele>214</ele>
        <time>2022-03-09T15:35:11Z</time>
      </trkpt>
      <trkpt lat="46.77801" lon="5.46665">
        <ele>214.2</ele>
        <time>2022-03-09T15:35:12Z</time>
      </trkpt>
      <trkpt lat="46.77807" lon="5.46662">
        <ele>214.2</ele>
        <time>2022-03-09T15:35:13Z</time>
      </trkpt>
      <trkpt lat="46.77813" lon="5.46659">
        <ele>214.2</ele>
        <time>2022-03-09T15:35:14Z</time>
      </trkpt>
      <trkpt lat="46.77819" lon="5.46657">
        <ele>214.4</ele>
        <time>2022-03-09T15:35:15Z</time>
      </trkpt>
      <trkpt lat="46.77826" lon="5.46654">
        <ele>214.4</ele>
        <time>2022-03-09T15:35:16Z</time>
      </trkpt>
      <trkpt lat="46.77831" lon="5.46652">
        <ele>214.8</ele>
        <time>2022-03-09T15:35:17Z</time>
      </trkpt>
      <trkpt lat="46.77837" lon="5.46649">
        <ele>214.8</ele>
        <time>2022-03-09T15:35:18Z</time>
      </trkpt>
      <trkpt lat="46.77843" lon="5.46647">
        <ele>215</ele>
        <time>2022-03-09T15:35:19Z</time>
      </trkpt>
      <trkpt lat="46.7785" lon="5.46644">
        <ele>215.2</ele>
        <time>2022-03-09T15:35:20Z</time>
      </trkpt>
      <trkpt lat="46.77856" lon="5.46642">
        <ele>215.6</ele>
        <time>2022-03-09T15:35:21Z</time>
      </trkpt>
      <trkpt lat="46.77862" lon="5.46639">
        <ele>215.6</ele>
        <time>2022-03-09T15:35:22Z</time>
      </trkpt>
      <trkpt lat="46.77868" lon="5.46637">
        <ele>215.8</ele>
        <time>2022-03-09T15:35:23Z</time>
      </trkpt>
      <trkpt lat="46.77874" lon="5.46635">
        <ele>215.8</ele>
        <time>2022-03-09T15:35:24Z</time>
      </trkpt>
      <trkpt lat="46.7788" lon="5.46633">
        <ele>216.2</ele>
        <time>2022-03-09T15:35:25Z</time>
      </trkpt>
      <trkpt lat="46.77887" lon="5.4663">
        <ele>216.2</ele>
        <time>2022-03-09T15:35:26Z</time>
      </trkpt>
      <trkpt lat="46.77892" lon="5.46628">
        <ele>216.6</ele>
        <time>2022-03-09T15:35:27Z</time>
      </trkpt>
      <trkpt lat="46.77899" lon="5.46625">
        <ele>216.6</ele>
        <time>2022-03-09T15:35:28Z</time>
      </trkpt>
      <trkpt lat="46.77904" lon="5.46623">
        <ele>216.8</ele>
        <time>2022-03-09T15:35:29Z</time>
      </trkpt>
      <trkpt lat="46.7791" lon="5.4662">
        <ele>216.8</ele>
        <time>2022-03-09T15:35:30Z</time>
      </trkpt>
      <trkpt lat="46.77917" lon="5.46618">
        <ele>217</ele>
        <time>2022-03-09T15:35:31Z</time>
      </trkpt>
      <trkpt lat="46.77923" lon="5.46616">
        <ele>217</ele>
        <time>2022-03-09T15:35:32Z</time>
      </trkpt>
      <trkpt lat="46.77929" lon="5.46613">
        <ele>217.4</ele>
        <time>2022-03-09T15:35:33Z</time>
      </trkpt>
      <trkpt lat="46.77935" lon="5.4661">
        <ele>217.4</ele>
        <time>2022-03-09T15:35:34Z</time>
      </trkpt>
      <trkpt lat="46.77941" lon="5.46607">
        <ele>217.6</ele>
        <time>2022-03-09T15:35:35Z</time>
      </trkpt>
      <trkpt lat="46.77947" lon="5.46605">
        <ele>217.6</ele>
        <time>2022-03-09T15:35:36Z</time>
      </trkpt>
      <trkpt lat="46.77954" lon="5.46602">
        <ele>217.6</ele>
        <time>2022-03-09T15:35:37Z</time>
      </trkpt>
      <trkpt lat="46.7796" lon="5.46599">
        <ele>217.6</ele>
        <time>2022-03-09T15:35:38Z</time>
      </trkpt>
      <trkpt lat="46.77966" lon="5.46596">
        <ele>217.6</ele>
        <time>2022-03-09T15:35:39Z</time>
      </trkpt>
      <trkpt lat="46.77972" lon="5.46593">
        <ele>217.6</ele>
        <time>2022-03-09T15:35:40Z</time>
      </trkpt>
      <trkpt lat="46.77978" lon="5.4659">
        <ele>217.6</ele>
        <time>2022-03-09T15:35:41Z</time>
      </trkpt>
      <trkpt lat="46.77984" lon="5.46587">
        <ele>217.8</ele>
        <time>2022-03-09T15:35:42Z</time>
      </trkpt>
      <trkpt lat="46.77991" lon="5.46585">
        <ele>217.8</ele>
        <time>2022-03-09T15:35:43Z</time>
      </trkpt>
      <trkpt lat="46.77997" lon="5.46582">
        <ele>217.8</ele>
        <time>2022-03-09T15:35:44Z</time>
      </trkpt>
      <trkpt lat="46.78004" lon="5.4658">
        <ele>217.8</ele>
        <time>2022-03-09T15:35:45Z</time>
      </trkpt>
      <trkpt lat="46.7801" lon="5.46577">
        <ele>217.8</ele>
        <time>2022-03-09T15:35:46Z</time>
      </trkpt>
      <trkpt lat="46.78017" lon="5.46574">
        <ele>217.8</ele>
        <time>2022-03-09T15:35:47Z</time>
      </trkpt>
      <trkpt lat="46.78023" lon="5.46571">
        <ele>217.8</ele>
        <time>2022-03-09T15:35:48Z</time>
      </trkpt>
      <trkpt lat="46.7803" lon="5.46568">
        <ele>217.8</ele>
        <time>2022-03-09T15:35:49Z</time>
      </trkpt>
      <trkpt lat="46.78037" lon="5.46566">
        <ele>217.8</ele>
        <time>2022-03-09T15:35:50Z</time>
      </trkpt>
      <trkpt lat="46.78043" lon="5.46562">
        <ele>217.8</ele>
        <time>2022-03-09T15:35:51Z</time>
      </trkpt>
      <trkpt lat="46.78049" lon="5.46559">
        <ele>217.8</ele>
        <time>2022-03-09T15:35:52Z</time>
      </trkpt>
      <trkpt lat="46.78056" lon="5.46556">
        <ele>217.8</ele>
        <time>2022-03-09T15:35:53Z</time>
      </trkpt>
      <trkpt lat="46.78063" lon="5.46554">
        <ele>217.8</ele>
        <time>2022-03-09T15:35:54Z</time>
      </trkpt>
      <trkpt lat="46.7807" lon="5.46551">
        <ele>217.8</ele>
        <time>2022-03-09T15:35:55Z</time>
      </trkpt>
      <trkpt lat="46.78076" lon="5.46548">
        <ele>217.8</ele>
        <time>2022-03-09T15:35:56Z</time>
      </trkpt>
      <trkpt lat="46.78083" lon="5.46545">
        <ele>217.8</ele>
        <time>2022-03-09T15:35:57Z</time>
      </trkpt>
      <trkpt lat="46.7809" lon="5.46543">
        <ele>217.4</ele>
        <time>2022-03-09T15:35:58Z</time>
      </trkpt>
      <trkpt lat="46.78097" lon="5.46539">
        <ele>217.4</ele>
        <time>2022-03-09T15:35:59Z</time>
      </trkpt>
      <trkpt lat="46.78104" lon="5.46536">
        <ele>217.4</ele>
        <time>2022-03-09T15:36:00Z</time>
      </trkpt>
      <trkpt lat="46.78111" lon="5.46533">
        <ele>217.2</ele>
        <time>2022-03-09T15:36:01Z</time>
      </trkpt>
      <trkpt lat="46.78118" lon="5.4653">
        <ele>217.2</ele>
        <time>2022-03-09T15:36:02Z</time>
      </trkpt>
      <trkpt lat="46.78125" lon="5.46527">
        <ele>216.8</ele>
        <time>2022-03-09T15:36:03Z</time>
      </trkpt>
      <trkpt lat="46.78133" lon="5.46524">
        <ele>216.8</ele>
        <time>2022-03-09T15:36:04Z</time>
      </trkpt>
      <trkpt lat="46.7814" lon="5.46521">
        <ele>216.6</ele>
        <time>2022-03-09T15:36:05Z</time>
      </trkpt>
      <trkpt lat="46.78148" lon="5.46517">
        <ele>216.6</ele>
        <time>2022-03-09T15:36:06Z</time>
      </trkpt>
      <trkpt lat="46.78156" lon="5.46514">
        <ele>216.4</ele>
        <time>2022-03-09T15:36:07Z</time>
      </trkpt>
      <trkpt lat="46.78163" lon="5.4651">
        <ele>216.2</ele>
        <time>2022-03-09T15:36:08Z</time>
      </trkpt>
      <trkpt lat="46.78171" lon="5.46507">
        <ele>216</ele>
        <time>2022-03-09T15:36:09Z</time>
      </trkpt>
      <trkpt lat="46.78179" lon="5.46504">
        <ele>216</ele>
        <time>2022-03-09T15:36:10Z</time>
      </trkpt>
      <trkpt lat="46.78188" lon="5.465">
        <ele>215.6</ele>
        <time>2022-03-09T15:36:11Z</time>
      </trkpt>
      <trkpt lat="46.78196" lon="5.46497">
        <ele>215.6</ele>
        <time>2022-03-09T15:36:12Z</time>
      </trkpt>
      <trkpt lat="46.78204" lon="5.46494">
        <ele>215.2</ele>
        <time>2022-03-09T15:36:13Z</time>
      </trkpt>
      <trkpt lat="46.78213" lon="5.4649">
        <ele>215</ele>
        <time>2022-03-09T15:36:14Z</time>
      </trkpt>
      <trkpt lat="46.78221" lon="5.46487">
        <ele>214.8</ele>
        <time>2022-03-09T15:36:15Z</time>
      </trkpt>
      <trkpt lat="46.78229" lon="5.46483">
        <ele>214.8</ele>
        <time>2022-03-09T15:36:16Z</time>
      </trkpt>
      <trkpt lat="46.78238" lon="5.46479">
        <ele>214.4</ele>
        <time>2022-03-09T15:36:17Z</time>
      </trkpt>
      <trkpt lat="46.78246" lon="5.46476">
        <ele>214.2</ele>
        <time>2022-03-09T15:36:18Z</time>
      </trkpt>
      <trkpt lat="46.78254" lon="5.46473">
        <ele>213.8</ele>
        <time>2022-03-09T15:36:19Z</time>
      </trkpt>
      <trkpt lat="46.78263" lon="5.46469">
        <ele>213.6</ele>
        <time>2022-03-09T15:36:20Z</time>
      </trkpt>
      <trkpt lat="46.78271" lon="5.46466">
        <ele>213.4</ele>
        <time>2022-03-09T15:36:21Z</time>
      </trkpt>
      <trkpt lat="46.78279" lon="5.46462">
        <ele>213</ele>
        <time>2022-03-09T15:36:22Z</time>
      </trkpt>
      <trkpt lat="46.78287" lon="5.46459">
        <ele>212.8</ele>
        <time>2022-03-09T15:36:23Z</time>
      </trkpt>
      <trkpt lat="46.78295" lon="5.46456">
        <ele>212.4</ele>
        <time>2022-03-09T15:36:24Z</time>
      </trkpt>
      <trkpt lat="46.78303" lon="5.46452">
        <ele>212.2</ele>
        <time>2022-03-09T15:36:25Z</time>
      </trkpt>
      <trkpt lat="46.78311" lon="5.46449">
        <ele>212</ele>
        <time>2022-03-09T15:36:26Z</time>
      </trkpt>
      <trkpt lat="46.78319" lon="5.46446">
        <ele>211.8</ele>
        <time>2022-03-09T15:36:27Z</time>
      </trkpt>
      <trkpt lat="46.78328" lon="5.46442">
        <ele>211.8</ele>
        <time>2022-03-09T15:36:28Z</time>
      </trkpt>
      <trkpt lat="46.78335" lon="5.46439">
        <ele>211.4</ele>
        <time>2022-03-09T15:36:29Z</time>
      </trkpt>
      <trkpt lat="46.78344" lon="5.46435">
        <ele>211.4</ele>
        <time>2022-03-09T15:36:30Z</time>
      </trkpt>
      <trkpt lat="46.78352" lon="5.46431">
        <ele>211</ele>
        <time>2022-03-09T15:36:31Z</time>
      </trkpt>
      <trkpt lat="46.7836" lon="5.46427">
        <ele>210.8</ele>
        <time>2022-03-09T15:36:32Z</time>
      </trkpt>
      <trkpt lat="46.78369" lon="5.46424">
        <ele>210.6</ele>
        <time>2022-03-09T15:36:33Z</time>
      </trkpt>
      <trkpt lat="46.78377" lon="5.4642">
        <ele>210.6</ele>
        <time>2022-03-09T15:36:34Z</time>
      </trkpt>
      <trkpt lat="46.78385" lon="5.46416">
        <ele>210.2</ele>
        <time>2022-03-09T15:36:35Z</time>
      </trkpt>
      <trkpt lat="46.78393" lon="5.46413">
        <ele>210.2</ele>
        <time>2022-03-09T15:36:36Z</time>
      </trkpt>
      <trkpt lat="46.78402" lon="5.46409">
        <ele>210.2</ele>
        <time>2022-03-09T15:36:37Z</time>
      </trkpt>
      <trkpt lat="46.7841" lon="5.46405">
        <ele>210.2</ele>
        <time>2022-03-09T15:36:38Z</time>
      </trkpt>
      <trkpt lat="46.78418" lon="5.46402">
        <ele>209.8</ele>
        <time>2022-03-09T15:36:39Z</time>
      </trkpt>
      <trkpt lat="46.78426" lon="5.46399">
        <ele>209.8</ele>
        <time>2022-03-09T15:36:40Z</time>
      </trkpt>
      <trkpt lat="46.78435" lon="5.46395">
        <ele>209.8</ele>
        <time>2022-03-09T15:36:41Z</time>
      </trkpt>
      <trkpt lat="46.78443" lon="5.46392">
        <ele>209.8</ele>
        <time>2022-03-09T15:36:42Z</time>
      </trkpt>
      <trkpt lat="46.7845" lon="5.46389">
        <ele>209.8</ele>
        <time>2022-03-09T15:36:43Z</time>
      </trkpt>
      <trkpt lat="46.78458" lon="5.46385">
        <ele>209.8</ele>
        <time>2022-03-09T15:36:44Z</time>
      </trkpt>
      <trkpt lat="46.78466" lon="5.46382">
        <ele>209.8</ele>
        <time>2022-03-09T15:36:45Z</time>
      </trkpt>
      <trkpt lat="46.78473" lon="5.46379">
        <ele>209.8</ele>
        <time>2022-03-09T15:36:46Z</time>
      </trkpt>
      <trkpt lat="46.78481" lon="5.46376">
        <ele>209.8</ele>
        <time>2022-03-09T15:36:47Z</time>
      </trkpt>
      <trkpt lat="46.78488" lon="5.46372">
        <ele>209.8</ele>
        <time>2022-03-09T15:36:48Z</time>
      </trkpt>
      <trkpt lat="46.78496" lon="5.46369">
        <ele>209.8</ele>
        <time>2022-03-09T15:36:49Z</time>
      </trkpt>
      <trkpt lat="46.78503" lon="5.46366">
        <ele>209.8</ele>
        <time>2022-03-09T15:36:50Z</time>
      </trkpt>
      <trkpt lat="46.7851" lon="5.46363">
        <ele>209.8</ele>
        <time>2022-03-09T15:36:51Z</time>
      </trkpt>
      <trkpt lat="46.78518" lon="5.4636">
        <ele>209.8</ele>
        <time>2022-03-09T15:36:52Z</time>
      </trkpt>
      <trkpt lat="46.78525" lon="5.46357">
        <ele>209.8</ele>
        <time>2022-03-09T15:36:53Z</time>
      </trkpt>
      <trkpt lat="46.78532" lon="5.46354">
        <ele>209.6</ele>
        <time>2022-03-09T15:36:54Z</time>
      </trkpt>
      <trkpt lat="46.7854" lon="5.46351">
        <ele>209.6</ele>
        <time>2022-03-09T15:36:55Z</time>
      </trkpt>
      <trkpt lat="46.78547" lon="5.46348">
        <ele>209.6</ele>
        <time>2022-03-09T15:36:56Z</time>
      </trkpt>
      <trkpt lat="46.78555" lon="5.46344">
        <ele>209.6</ele>
        <time>2022-03-09T15:36:57Z</time>
      </trkpt>
      <trkpt lat="46.78562" lon="5.46341">
        <ele>209.6</ele>
        <time>2022-03-09T15:36:58Z</time>
      </trkpt>
      <trkpt lat="46.7857" lon="5.46338">
        <ele>209.6</ele>
        <time>2022-03-09T15:36:59Z</time>
      </trkpt>
      <trkpt lat="46.78578" lon="5.46335">
        <ele>209.4</ele>
        <time>2022-03-09T15:37:00Z</time>
      </trkpt>
      <trkpt lat="46.78585" lon="5.46332">
        <ele>209.4</ele>
        <time>2022-03-09T15:37:01Z</time>
      </trkpt>
      <trkpt lat="46.78592" lon="5.46329">
        <ele>209.4</ele>
        <time>2022-03-09T15:37:02Z</time>
      </trkpt>
      <trkpt lat="46.78599" lon="5.46325">
        <ele>209.4</ele>
        <time>2022-03-09T15:37:03Z</time>
      </trkpt>
      <trkpt lat="46.78607" lon="5.46322">
        <ele>209.4</ele>
        <time>2022-03-09T15:37:04Z</time>
      </trkpt>
      <trkpt lat="46.78614" lon="5.46318">
        <ele>209.4</ele>
        <time>2022-03-09T15:37:05Z</time>
      </trkpt>
      <trkpt lat="46.78621" lon="5.46315">
        <ele>209.4</ele>
        <time>2022-03-09T15:37:06Z</time>
      </trkpt>
      <trkpt lat="46.78628" lon="5.46312">
        <ele>209.4</ele>
        <time>2022-03-09T15:37:07Z</time>
      </trkpt>
      <trkpt lat="46.78635" lon="5.46309">
        <ele>209.4</ele>
        <time>2022-03-09T15:37:08Z</time>
      </trkpt>
      <trkpt lat="46.78642" lon="5.46306">
        <ele>209.4</ele>
        <time>2022-03-09T15:37:09Z</time>
      </trkpt>
      <trkpt lat="46.78649" lon="5.46303">
        <ele>209.6</ele>
        <time>2022-03-09T15:37:10Z</time>
      </trkpt>
      <trkpt lat="46.78656" lon="5.463">
        <ele>209.6</ele>
        <time>2022-03-09T15:37:11Z</time>
      </trkpt>
      <trkpt lat="46.78662" lon="5.46298">
        <ele>209.6</ele>
        <time>2022-03-09T15:37:12Z</time>
      </trkpt>
      <trkpt lat="46.78669" lon="5.46295">
        <ele>209.8</ele>
        <time>2022-03-09T15:37:13Z</time>
      </trkpt>
      <trkpt lat="46.78675" lon="5.46292">
        <ele>209.8</ele>
        <time>2022-03-09T15:37:14Z</time>
      </trkpt>
      <trkpt lat="46.78681" lon="5.4629">
        <ele>210.2</ele>
        <time>2022-03-09T15:37:15Z</time>
      </trkpt>
      <trkpt lat="46.78687" lon="5.46288">
        <ele>210.2</ele>
        <time>2022-03-09T15:37:16Z</time>
      </trkpt>
      <trkpt lat="46.78692" lon="5.46285">
        <ele>210.4</ele>
        <time>2022-03-09T15:37:17Z</time>
      </trkpt>
      <trkpt lat="46.78698" lon="5.46282">
        <ele>210.4</ele>
        <time>2022-03-09T15:37:18Z</time>
      </trkpt>
      <trkpt lat="46.78703" lon="5.4628">
        <ele>210.8</ele>
        <time>2022-03-09T15:37:19Z</time>
      </trkpt>
      <trkpt lat="46.78708" lon="5.46277">
        <ele>210.8</ele>
        <time>2022-03-09T15:37:20Z</time>
      </trkpt>
      <trkpt lat="46.78712" lon="5.46274">
        <ele>211.2</ele>
        <time>2022-03-09T15:37:21Z</time>
      </trkpt>
      <trkpt lat="46.78717" lon="5.46271">
        <ele>211.4</ele>
        <time>2022-03-09T15:37:22Z</time>
      </trkpt>
      <trkpt lat="46.78721" lon="5.46268">
        <ele>211.6</ele>
        <time>2022-03-09T15:37:23Z</time>
      </trkpt>
      <trkpt lat="46.78726" lon="5.46266">
        <ele>211.6</ele>
        <time>2022-03-09T15:37:24Z</time>
      </trkpt>
      <trkpt lat="46.78731" lon="5.46264">
        <ele>211.8</ele>
        <time>2022-03-09T15:37:25Z</time>
      </trkpt>
      <trkpt lat="46.78736" lon="5.46262">
        <ele>211.8</ele>
        <time>2022-03-09T15:37:26Z</time>
      </trkpt>
      <trkpt lat="46.7874" lon="5.46259">
        <ele>212.2</ele>
        <time>2022-03-09T15:37:27Z</time>
      </trkpt>
      <trkpt lat="46.78745" lon="5.46258">
        <ele>212.2</ele>
        <time>2022-03-09T15:37:28Z</time>
      </trkpt>
      <trkpt lat="46.78749" lon="5.46256">
        <ele>212.4</ele>
        <time>2022-03-09T15:37:29Z</time>
      </trkpt>
      <trkpt lat="46.78754" lon="5.46254">
        <ele>212.8</ele>
        <time>2022-03-09T15:37:30Z</time>
      </trkpt>
      <trkpt lat="46.78758" lon="5.46252">
        <ele>213</ele>
        <time>2022-03-09T15:37:31Z</time>
      </trkpt>
      <trkpt lat="46.78762" lon="5.4625">
        <ele>213</ele>
        <time>2022-03-09T15:37:32Z</time>
      </trkpt>
      <trkpt lat="46.78766" lon="5.46248">
        <ele>213.4</ele>
        <time>2022-03-09T15:37:33Z</time>
      </trkpt>
      <trkpt lat="46.78771" lon="5.46247">
        <ele>213.4</ele>
        <time>2022-03-09T15:37:34Z</time>
      </trkpt>
      <trkpt lat="46.78776" lon="5.46245">
        <ele>213.6</ele>
        <time>2022-03-09T15:37:35Z</time>
      </trkpt>
      <trkpt lat="46.7878" lon="5.46243">
        <ele>213.6</ele>
        <time>2022-03-09T15:37:36Z</time>
      </trkpt>
      <trkpt lat="46.78785" lon="5.46241">
        <ele>213.8</ele>
        <time>2022-03-09T15:37:37Z</time>
      </trkpt>
      <trkpt lat="46.78794" lon="5.46238">
        <ele>213.8</ele>
        <time>2022-03-09T15:37:38Z</time>
      </trkpt>
      <trkpt lat="46.78798" lon="5.46237">
        <ele>214.2</ele>
        <time>2022-03-09T15:37:39Z</time>
      </trkpt>
      <trkpt lat="46.78803" lon="5.46235">
        <ele>214.2</ele>
        <time>2022-03-09T15:37:40Z</time>
      </trkpt>
      <trkpt lat="46.78807" lon="5.46233">
        <ele>214.4</ele>
        <time>2022-03-09T15:37:41Z</time>
      </trkpt>
      <trkpt lat="46.78812" lon="5.46232">
        <ele>214.4</ele>
        <time>2022-03-09T15:37:42Z</time>
      </trkpt>
      <trkpt lat="46.78817" lon="5.4623">
        <ele>214.8</ele>
        <time>2022-03-09T15:37:43Z</time>
      </trkpt>
      <trkpt lat="46.78821" lon="5.46228">
        <ele>214.8</ele>
        <time>2022-03-09T15:37:44Z</time>
      </trkpt>
      <trkpt lat="46.78826" lon="5.46226">
        <ele>215</ele>
        <time>2022-03-09T15:37:45Z</time>
      </trkpt>
      <trkpt lat="46.78831" lon="5.46224">
        <ele>215</ele>
        <time>2022-03-09T15:37:46Z</time>
      </trkpt>
      <trkpt lat="46.78836" lon="5.46222">
        <ele>215</ele>
        <time>2022-03-09T15:37:47Z</time>
      </trkpt>
      <trkpt lat="46.78841" lon="5.46219">
        <ele>215.2</ele>
        <time>2022-03-09T15:37:48Z</time>
      </trkpt>
      <trkpt lat="46.78846" lon="5.46217">
        <ele>215.2</ele>
        <time>2022-03-09T15:37:49Z</time>
      </trkpt>
      <trkpt lat="46.78851" lon="5.46215">
        <ele>215.2</ele>
        <time>2022-03-09T15:37:50Z</time>
      </trkpt>
      <trkpt lat="46.78857" lon="5.46213">
        <ele>215.2</ele>
        <time>2022-03-09T15:37:51Z</time>
      </trkpt>
      <trkpt lat="46.78862" lon="5.4621">
        <ele>215.2</ele>
        <time>2022-03-09T15:37:52Z</time>
      </trkpt>
      <trkpt lat="46.78868" lon="5.46208">
        <ele>215.2</ele>
        <time>2022-03-09T15:37:53Z</time>
      </trkpt>
      <trkpt lat="46.78874" lon="5.46205">
        <ele>215.2</ele>
        <time>2022-03-09T15:37:54Z</time>
      </trkpt>
      <trkpt lat="46.7888" lon="5.46203">
        <ele>215.2</ele>
        <time>2022-03-09T15:37:55Z</time>
      </trkpt>
      <trkpt lat="46.78886" lon="5.462">
        <ele>215</ele>
        <time>2022-03-09T15:37:56Z</time>
      </trkpt>
      <trkpt lat="46.78893" lon="5.46197">
        <ele>215</ele>
        <time>2022-03-09T15:37:57Z</time>
      </trkpt>
      <trkpt lat="46.78899" lon="5.46194">
        <ele>214.6</ele>
        <time>2022-03-09T15:37:58Z</time>
      </trkpt>
      <trkpt lat="46.78906" lon="5.46191">
        <ele>214.4</ele>
        <time>2022-03-09T15:37:59Z</time>
      </trkpt>
      <trkpt lat="46.78912" lon="5.46188">
        <ele>214.4</ele>
        <time>2022-03-09T15:38:00Z</time>
      </trkpt>
      <trkpt lat="46.78919" lon="5.46185">
        <ele>214.2</ele>
        <time>2022-03-09T15:38:01Z</time>
      </trkpt>
      <trkpt lat="46.78926" lon="5.46182">
        <ele>214.2</ele>
        <time>2022-03-09T15:38:02Z</time>
      </trkpt>
      <trkpt lat="46.78933" lon="5.4618">
        <ele>213.8</ele>
        <time>2022-03-09T15:38:03Z</time>
      </trkpt>
      <trkpt lat="46.7894" lon="5.46177">
        <ele>213.8</ele>
        <time>2022-03-09T15:38:04Z</time>
      </trkpt>
      <trkpt lat="46.78947" lon="5.46173">
        <ele>213.6</ele>
        <time>2022-03-09T15:38:05Z</time>
      </trkpt>
      <trkpt lat="46.78954" lon="5.4617">
        <ele>213.6</ele>
        <time>2022-03-09T15:38:06Z</time>
      </trkpt>
      <trkpt lat="46.78961" lon="5.46167">
        <ele>213.4</ele>
        <time>2022-03-09T15:38:07Z</time>
      </trkpt>
      <trkpt lat="46.78969" lon="5.46163">
        <ele>213.4</ele>
        <time>2022-03-09T15:38:08Z</time>
      </trkpt>
      <trkpt lat="46.78976" lon="5.4616">
        <ele>213.2</ele>
        <time>2022-03-09T15:38:09Z</time>
      </trkpt>
      <trkpt lat="46.78984" lon="5.46157">
        <ele>213.2</ele>
        <time>2022-03-09T15:38:10Z</time>
      </trkpt>
      <trkpt lat="46.78992" lon="5.46153">
        <ele>213</ele>
        <time>2022-03-09T15:38:11Z</time>
      </trkpt>
      <trkpt lat="46.79" lon="5.46149">
        <ele>212.8</ele>
        <time>2022-03-09T15:38:12Z</time>
      </trkpt>
      <trkpt lat="46.79009" lon="5.46145">
        <ele>212.4</ele>
        <time>2022-03-09T15:38:13Z</time>
      </trkpt>
      <trkpt lat="46.79017" lon="5.46141">
        <ele>212.2</ele>
        <time>2022-03-09T15:38:14Z</time>
      </trkpt>
      <trkpt lat="46.79026" lon="5.46138">
        <ele>212</ele>
        <time>2022-03-09T15:38:15Z</time>
      </trkpt>
      <trkpt lat="46.79034" lon="5.46134">
        <ele>211.6</ele>
        <time>2022-03-09T15:38:16Z</time>
      </trkpt>
      <trkpt lat="46.79043" lon="5.46131">
        <ele>211.4</ele>
        <time>2022-03-09T15:38:17Z</time>
      </trkpt>
      <trkpt lat="46.79052" lon="5.46127">
        <ele>211.2</ele>
        <time>2022-03-09T15:38:18Z</time>
      </trkpt>
      <trkpt lat="46.79061" lon="5.46123">
        <ele>210.8</ele>
        <time>2022-03-09T15:38:19Z</time>
      </trkpt>
      <trkpt lat="46.7907" lon="5.46119">
        <ele>210.4</ele>
        <time>2022-03-09T15:38:20Z</time>
      </trkpt>
      <trkpt lat="46.79079" lon="5.46115">
        <ele>210.2</ele>
        <time>2022-03-09T15:38:21Z</time>
      </trkpt>
      <trkpt lat="46.79088" lon="5.46111">
        <ele>209.8</ele>
        <time>2022-03-09T15:38:22Z</time>
      </trkpt>
      <trkpt lat="46.79098" lon="5.46107">
        <ele>209.8</ele>
        <time>2022-03-09T15:38:23Z</time>
      </trkpt>
      <trkpt lat="46.79107" lon="5.46103">
        <ele>209.4</ele>
        <time>2022-03-09T15:38:24Z</time>
      </trkpt>
      <trkpt lat="46.79117" lon="5.46098">
        <ele>209</ele>
        <time>2022-03-09T15:38:25Z</time>
      </trkpt>
      <trkpt lat="46.79127" lon="5.46095">
        <ele>208.8</ele>
        <time>2022-03-09T15:38:26Z</time>
      </trkpt>
      <trkpt lat="46.79136" lon="5.4609">
        <ele>208.8</ele>
        <time>2022-03-09T15:38:27Z</time>
      </trkpt>
      <trkpt lat="46.79145" lon="5.46086">
        <ele>208.6</ele>
        <time>2022-03-09T15:38:28Z</time>
      </trkpt>
      <trkpt lat="46.79155" lon="5.46082">
        <ele>208.4</ele>
        <time>2022-03-09T15:38:29Z</time>
      </trkpt>
      <trkpt lat="46.79164" lon="5.46078">
        <ele>208.4</ele>
        <time>2022-03-09T15:38:30Z</time>
      </trkpt>
      <trkpt lat="46.79172" lon="5.46074">
        <ele>208</ele>
        <time>2022-03-09T15:38:31Z</time>
      </trkpt>
      <trkpt lat="46.79181" lon="5.4607">
        <ele>208</ele>
        <time>2022-03-09T15:38:32Z</time>
      </trkpt>
      <trkpt lat="46.79189" lon="5.46067">
        <ele>208</ele>
        <time>2022-03-09T15:38:33Z</time>
      </trkpt>
      <trkpt lat="46.79197" lon="5.46063">
        <ele>208.2</ele>
        <time>2022-03-09T15:38:34Z</time>
      </trkpt>
      <trkpt lat="46.79204" lon="5.4606">
        <ele>208.2</ele>
        <time>2022-03-09T15:38:35Z</time>
      </trkpt>
      <trkpt lat="46.79212" lon="5.46057">
        <ele>208.6</ele>
        <time>2022-03-09T15:38:36Z</time>
      </trkpt>
      <trkpt lat="46.79218" lon="5.46053">
        <ele>208.8</ele>
        <time>2022-03-09T15:38:37Z</time>
      </trkpt>
      <trkpt lat="46.79225" lon="5.4605">
        <ele>209.2</ele>
        <time>2022-03-09T15:38:38Z</time>
      </trkpt>
      <trkpt lat="46.79232" lon="5.46048">
        <ele>209.4</ele>
        <time>2022-03-09T15:38:39Z</time>
      </trkpt>
      <trkpt lat="46.79238" lon="5.46045">
        <ele>209.8</ele>
        <time>2022-03-09T15:38:40Z</time>
      </trkpt>
      <trkpt lat="46.79244" lon="5.46042">
        <ele>210</ele>
        <time>2022-03-09T15:38:41Z</time>
      </trkpt>
      <trkpt lat="46.79249" lon="5.46039">
        <ele>210.4</ele>
        <time>2022-03-09T15:38:42Z</time>
      </trkpt>
      <trkpt lat="46.79254" lon="5.46037">
        <ele>210.6</ele>
        <time>2022-03-09T15:38:43Z</time>
      </trkpt>
      <trkpt lat="46.7926" lon="5.46035">
        <ele>210.8</ele>
        <time>2022-03-09T15:38:44Z</time>
      </trkpt>
      <trkpt lat="46.79265" lon="5.46032">
        <ele>211</ele>
        <time>2022-03-09T15:38:45Z</time>
      </trkpt>
      <trkpt lat="46.7927" lon="5.4603">
        <ele>211.4</ele>
        <time>2022-03-09T15:38:46Z</time>
      </trkpt>
      <trkpt lat="46.79276" lon="5.46028">
        <ele>211.6</ele>
        <time>2022-03-09T15:38:47Z</time>
      </trkpt>
      <trkpt lat="46.79281" lon="5.46026">
        <ele>212</ele>
        <time>2022-03-09T15:38:48Z</time>
      </trkpt>
      <trkpt lat="46.79286" lon="5.46024">
        <ele>212.2</ele>
        <time>2022-03-09T15:38:49Z</time>
      </trkpt>
      <trkpt lat="46.79291" lon="5.46023">
        <ele>212.4</ele>
        <time>2022-03-09T15:38:50Z</time>
      </trkpt>
      <trkpt lat="46.79295" lon="5.46021">
        <ele>212.6</ele>
        <time>2022-03-09T15:38:51Z</time>
      </trkpt>
      <trkpt lat="46.793" lon="5.46019">
        <ele>212.6</ele>
        <time>2022-03-09T15:38:52Z</time>
      </trkpt>
      <trkpt lat="46.79304" lon="5.46017">
        <ele>213</ele>
        <time>2022-03-09T15:38:53Z</time>
      </trkpt>
      <trkpt lat="46.79308" lon="5.46015">
        <ele>213</ele>
        <time>2022-03-09T15:38:54Z</time>
      </trkpt>
      <trkpt lat="46.79312" lon="5.46013">
        <ele>213.4</ele>
        <time>2022-03-09T15:38:55Z</time>
      </trkpt>
      <trkpt lat="46.79316" lon="5.46012">
        <ele>213.8</ele>
        <time>2022-03-09T15:38:56Z</time>
      </trkpt>
      <trkpt lat="46.79321" lon="5.46009">
        <ele>213.8</ele>
        <time>2022-03-09T15:38:57Z</time>
      </trkpt>
      <trkpt lat="46.79325" lon="5.46007">
        <ele>214</ele>
        <time>2022-03-09T15:38:58Z</time>
      </trkpt>
      <trkpt lat="46.79329" lon="5.46005">
        <ele>214</ele>
        <time>2022-03-09T15:38:59Z</time>
      </trkpt>
      <trkpt lat="46.79333" lon="5.46003">
        <ele>214.4</ele>
        <time>2022-03-09T15:39:00Z</time>
      </trkpt>
      <trkpt lat="46.79338" lon="5.46001">
        <ele>214.6</ele>
        <time>2022-03-09T15:39:01Z</time>
      </trkpt>
      <trkpt lat="46.79342" lon="5.45999">
        <ele>214.6</ele>
        <time>2022-03-09T15:39:02Z</time>
      </trkpt>
      <trkpt lat="46.79347" lon="5.45997">
        <ele>215</ele>
        <time>2022-03-09T15:39:03Z</time>
      </trkpt>
      <trkpt lat="46.79352" lon="5.45995">
        <ele>215</ele>
        <time>2022-03-09T15:39:04Z</time>
      </trkpt>
      <trkpt lat="46.79357" lon="5.45992">
        <ele>215.4</ele>
        <time>2022-03-09T15:39:05Z</time>
      </trkpt>
      <trkpt lat="46.79362" lon="5.4599">
        <ele>215.4</ele>
        <time>2022-03-09T15:39:06Z</time>
      </trkpt>
      <trkpt lat="46.79367" lon="5.45988">
        <ele>215.6</ele>
        <time>2022-03-09T15:39:07Z</time>
      </trkpt>
      <trkpt lat="46.79372" lon="5.45986">
        <ele>215.6</ele>
        <time>2022-03-09T15:39:08Z</time>
      </trkpt>
      <trkpt lat="46.79378" lon="5.45983">
        <ele>215.8</ele>
        <time>2022-03-09T15:39:09Z</time>
      </trkpt>
      <trkpt lat="46.79383" lon="5.45981">
        <ele>215.8</ele>
        <time>2022-03-09T15:39:10Z</time>
      </trkpt>
      <trkpt lat="46.79388" lon="5.45979">
        <ele>215.8</ele>
        <time>2022-03-09T15:39:11Z</time>
      </trkpt>
      <trkpt lat="46.79394" lon="5.45977">
        <ele>216.2</ele>
        <time>2022-03-09T15:39:12Z</time>
      </trkpt>
      <trkpt lat="46.79399" lon="5.45974">
        <ele>216.2</ele>
        <time>2022-03-09T15:39:13Z</time>
      </trkpt>
      <trkpt lat="46.79405" lon="5.45972">
        <ele>216.2</ele>
        <time>2022-03-09T15:39:14Z</time>
      </trkpt>
      <trkpt lat="46.7941" lon="5.45969">
        <ele>216.4</ele>
        <time>2022-03-09T15:39:15Z</time>
      </trkpt>
      <trkpt lat="46.79416" lon="5.45967">
        <ele>216.4</ele>
        <time>2022-03-09T15:39:16Z</time>
      </trkpt>
      <trkpt lat="46.79421" lon="5.45965">
        <ele>216.4</ele>
        <time>2022-03-09T15:39:17Z</time>
      </trkpt>
      <trkpt lat="46.79427" lon="5.45962">
        <ele>216.4</ele>
        <time>2022-03-09T15:39:18Z</time>
      </trkpt>
      <trkpt lat="46.79433" lon="5.45959">
        <ele>216.4</ele>
        <time>2022-03-09T15:39:19Z</time>
      </trkpt>
      <trkpt lat="46.7944" lon="5.45957">
        <ele>216.4</ele>
        <time>2022-03-09T15:39:20Z</time>
      </trkpt>
      <trkpt lat="46.79446" lon="5.45954">
        <ele>216.4</ele>
        <time>2022-03-09T15:39:21Z</time>
      </trkpt>
      <trkpt lat="46.79452" lon="5.45952">
        <ele>216.4</ele>
        <time>2022-03-09T15:39:22Z</time>
      </trkpt>
      <trkpt lat="46.79458" lon="5.45949">
        <ele>216.4</ele>
        <time>2022-03-09T15:39:23Z</time>
      </trkpt>
      <trkpt lat="46.79464" lon="5.45947">
        <ele>216.4</ele>
        <time>2022-03-09T15:39:24Z</time>
      </trkpt>
      <trkpt lat="46.79471" lon="5.45944">
        <ele>216.4</ele>
        <time>2022-03-09T15:39:25Z</time>
      </trkpt>
      <trkpt lat="46.79477" lon="5.45941">
        <ele>216.4</ele>
        <time>2022-03-09T15:39:26Z</time>
      </trkpt>
      <trkpt lat="46.79477" lon="5.45941">
        <ele>216.4</ele>
        <time>2022-03-09T15:39:27Z</time>
      </trkpt>
      <trkpt lat="46.79484" lon="5.45938">
        <ele>216.4</ele>
        <time>2022-03-09T15:39:28Z</time>
      </trkpt>
      <trkpt lat="46.7949" lon="5.45936">
        <ele>216.4</ele>
        <time>2022-03-09T15:39:29Z</time>
      </trkpt>
      <trkpt lat="46.79497" lon="5.45933">
        <ele>216.4</ele>
        <time>2022-03-09T15:39:30Z</time>
      </trkpt>
      <trkpt lat="46.79504" lon="5.4593">
        <ele>216.4</ele>
        <time>2022-03-09T15:39:31Z</time>
      </trkpt>
      <trkpt lat="46.7951" lon="5.45927">
        <ele>216.2</ele>
        <time>2022-03-09T15:39:32Z</time>
      </trkpt>
      <trkpt lat="46.79517" lon="5.45924">
        <ele>216.2</ele>
        <time>2022-03-09T15:39:33Z</time>
      </trkpt>
      <trkpt lat="46.79524" lon="5.45921">
        <ele>216.2</ele>
        <time>2022-03-09T15:39:34Z</time>
      </trkpt>
      <trkpt lat="46.79531" lon="5.45918">
        <ele>215.8</ele>
        <time>2022-03-09T15:39:35Z</time>
      </trkpt>
      <trkpt lat="46.79538" lon="5.45915">
        <ele>215.8</ele>
        <time>2022-03-09T15:39:36Z</time>
      </trkpt>
      <trkpt lat="46.79545" lon="5.45912">
        <ele>215.6</ele>
        <time>2022-03-09T15:39:37Z</time>
      </trkpt>
      <trkpt lat="46.79553" lon="5.45909">
        <ele>215.6</ele>
        <time>2022-03-09T15:39:38Z</time>
      </trkpt>
      <trkpt lat="46.7956" lon="5.45906">
        <ele>215.2</ele>
        <time>2022-03-09T15:39:39Z</time>
      </trkpt>
      <trkpt lat="46.79567" lon="5.45903">
        <ele>215.2</ele>
        <time>2022-03-09T15:39:40Z</time>
      </trkpt>
      <trkpt lat="46.79575" lon="5.459">
        <ele>215</ele>
        <time>2022-03-09T15:39:41Z</time>
      </trkpt>
      <trkpt lat="46.79583" lon="5.45897">
        <ele>214.8</ele>
        <time>2022-03-09T15:39:42Z</time>
      </trkpt>
      <trkpt lat="46.79591" lon="5.45894">
        <ele>214.8</ele>
        <time>2022-03-09T15:39:43Z</time>
      </trkpt>
      <trkpt lat="46.79598" lon="5.45891">
        <ele>214.4</ele>
        <time>2022-03-09T15:39:44Z</time>
      </trkpt>
      <trkpt lat="46.79606" lon="5.45888">
        <ele>214.4</ele>
        <time>2022-03-09T15:39:45Z</time>
      </trkpt>
      <trkpt lat="46.79614" lon="5.45885">
        <ele>214</ele>
        <time>2022-03-09T15:39:46Z</time>
      </trkpt>
      <trkpt lat="46.79622" lon="5.45882">
        <ele>213.8</ele>
        <time>2022-03-09T15:39:47Z</time>
      </trkpt>
      <trkpt lat="46.79629" lon="5.45879">
        <ele>213.4</ele>
        <time>2022-03-09T15:39:48Z</time>
      </trkpt>
      <trkpt lat="46.79637" lon="5.45876">
        <ele>213.2</ele>
        <time>2022-03-09T15:39:49Z</time>
      </trkpt>
      <trkpt lat="46.79644" lon="5.45873">
        <ele>212.8</ele>
        <time>2022-03-09T15:39:50Z</time>
      </trkpt>
      <trkpt lat="46.79652" lon="5.4587">
        <ele>212.6</ele>
        <time>2022-03-09T15:39:51Z</time>
      </trkpt>
      <trkpt lat="46.7966" lon="5.45867">
        <ele>212.2</ele>
        <time>2022-03-09T15:39:52Z</time>
      </trkpt>
      <trkpt lat="46.79668" lon="5.45863">
        <ele>212</ele>
        <time>2022-03-09T15:39:53Z</time>
      </trkpt>
      <trkpt lat="46.79677" lon="5.45859">
        <ele>211.6</ele>
        <time>2022-03-09T15:39:54Z</time>
      </trkpt>
      <trkpt lat="46.79685" lon="5.45855">
        <ele>211.2</ele>
        <time>2022-03-09T15:39:55Z</time>
      </trkpt>
      <trkpt lat="46.79694" lon="5.45852">
        <ele>210.8</ele>
        <time>2022-03-09T15:39:56Z</time>
      </trkpt>
      <trkpt lat="46.79702" lon="5.45848">
        <ele>210.4</ele>
        <time>2022-03-09T15:39:57Z</time>
      </trkpt>
      <trkpt lat="46.79712" lon="5.45844">
        <ele>210</ele>
        <time>2022-03-09T15:39:58Z</time>
      </trkpt>
      <trkpt lat="46.79722" lon="5.4584">
        <ele>209.6</ele>
        <time>2022-03-09T15:39:59Z</time>
      </trkpt>
      <trkpt lat="46.79732" lon="5.45835">
        <ele>209.2</ele>
        <time>2022-03-09T15:40:00Z</time>
      </trkpt>
      <trkpt lat="46.79742" lon="5.45831">
        <ele>208.8</ele>
        <time>2022-03-09T15:40:01Z</time>
      </trkpt>
      <trkpt lat="46.79751" lon="5.45827">
        <ele>208.4</ele>
        <time>2022-03-09T15:40:02Z</time>
      </trkpt>
      <trkpt lat="46.7976" lon="5.45824">
        <ele>208.2</ele>
        <time>2022-03-09T15:40:03Z</time>
      </trkpt>
      <trkpt lat="46.79769" lon="5.45821">
        <ele>208</ele>
        <time>2022-03-09T15:40:04Z</time>
      </trkpt>
      <trkpt lat="46.79778" lon="5.45816">
        <ele>207.6</ele>
        <time>2022-03-09T15:40:05Z</time>
      </trkpt>
      <trkpt lat="46.79787" lon="5.45813">
        <ele>207.4</ele>
        <time>2022-03-09T15:40:06Z</time>
      </trkpt>
      <trkpt lat="46.79795" lon="5.45808">
        <ele>207.2</ele>
        <time>2022-03-09T15:40:07Z</time>
      </trkpt>
      <trkpt lat="46.79803" lon="5.45805">
        <ele>207</ele>
        <time>2022-03-09T15:40:08Z</time>
      </trkpt>
      <trkpt lat="46.79812" lon="5.45802">
        <ele>207</ele>
        <time>2022-03-09T15:40:09Z</time>
      </trkpt>
      <trkpt lat="46.7982" lon="5.45798">
        <ele>206.4</ele>
        <time>2022-03-09T15:40:10Z</time>
      </trkpt>
      <trkpt lat="46.79828" lon="5.45795">
        <ele>206.4</ele>
        <time>2022-03-09T15:40:11Z</time>
      </trkpt>
      <trkpt lat="46.79836" lon="5.45792">
        <ele>206</ele>
        <time>2022-03-09T15:40:12Z</time>
      </trkpt>
      <trkpt lat="46.79845" lon="5.45789">
        <ele>205.8</ele>
        <time>2022-03-09T15:40:13Z</time>
      </trkpt>
      <trkpt lat="46.79852" lon="5.45786">
        <ele>205.6</ele>
        <time>2022-03-09T15:40:14Z</time>
      </trkpt>
      <trkpt lat="46.79861" lon="5.45782">
        <ele>205.6</ele>
        <time>2022-03-09T15:40:15Z</time>
      </trkpt>
      <trkpt lat="46.79869" lon="5.45779">
        <ele>205.2</ele>
        <time>2022-03-09T15:40:16Z</time>
      </trkpt>
      <trkpt lat="46.79877" lon="5.45776">
        <ele>205.2</ele>
        <time>2022-03-09T15:40:17Z</time>
      </trkpt>
      <trkpt lat="46.79885" lon="5.45773">
        <ele>205</ele>
        <time>2022-03-09T15:40:18Z</time>
      </trkpt>
      <trkpt lat="46.79892" lon="5.45769">
        <ele>205</ele>
        <time>2022-03-09T15:40:19Z</time>
      </trkpt>
      <trkpt lat="46.799" lon="5.45766">
        <ele>205</ele>
        <time>2022-03-09T15:40:20Z</time>
      </trkpt>
      <trkpt lat="46.79908" lon="5.45762">
        <ele>205</ele>
        <time>2022-03-09T15:40:21Z</time>
      </trkpt>
      <trkpt lat="46.79915" lon="5.45759">
        <ele>205</ele>
        <time>2022-03-09T15:40:22Z</time>
      </trkpt>
      <trkpt lat="46.79922" lon="5.45755">
        <ele>204.8</ele>
        <time>2022-03-09T15:40:23Z</time>
      </trkpt>
      <trkpt lat="46.7993" lon="5.45752">
        <ele>204.8</ele>
        <time>2022-03-09T15:40:24Z</time>
      </trkpt>
      <trkpt lat="46.79937" lon="5.45749">
        <ele>204.8</ele>
        <time>2022-03-09T15:40:25Z</time>
      </trkpt>
      <trkpt lat="46.79945" lon="5.45745">
        <ele>204.6</ele>
        <time>2022-03-09T15:40:26Z</time>
      </trkpt>
      <trkpt lat="46.79952" lon="5.45742">
        <ele>204.6</ele>
        <time>2022-03-09T15:40:27Z</time>
      </trkpt>
      <trkpt lat="46.7996" lon="5.45739">
        <ele>204.6</ele>
        <time>2022-03-09T15:40:28Z</time>
      </trkpt>
      <trkpt lat="46.79967" lon="5.45736">
        <ele>204.6</ele>
        <time>2022-03-09T15:40:29Z</time>
      </trkpt>
      <trkpt lat="46.79975" lon="5.45733">
        <ele>204.6</ele>
        <time>2022-03-09T15:40:30Z</time>
      </trkpt>
      <trkpt lat="46.79982" lon="5.4573">
        <ele>204.6</ele>
        <time>2022-03-09T15:40:31Z</time>
      </trkpt>
      <trkpt lat="46.79989" lon="5.45727">
        <ele>204.6</ele>
        <time>2022-03-09T15:40:32Z</time>
      </trkpt>
      <trkpt lat="46.79996" lon="5.45724">
        <ele>204.6</ele>
        <time>2022-03-09T15:40:33Z</time>
      </trkpt>
      <trkpt lat="46.80004" lon="5.45722">
        <ele>204.6</ele>
        <time>2022-03-09T15:40:34Z</time>
      </trkpt>
      <trkpt lat="46.80011" lon="5.45719">
        <ele>204.6</ele>
        <time>2022-03-09T15:40:35Z</time>
      </trkpt>
      <trkpt lat="46.80018" lon="5.45716">
        <ele>204.8</ele>
        <time>2022-03-09T15:40:36Z</time>
      </trkpt>
      <trkpt lat="46.80024" lon="5.45712">
        <ele>204.8</ele>
        <time>2022-03-09T15:40:37Z</time>
      </trkpt>
      <trkpt lat="46.80031" lon="5.45709">
        <ele>205</ele>
        <time>2022-03-09T15:40:38Z</time>
      </trkpt>
      <trkpt lat="46.80036" lon="5.45705">
        <ele>205</ele>
        <time>2022-03-09T15:40:39Z</time>
      </trkpt>
      <trkpt lat="46.80042" lon="5.45702">
        <ele>205</ele>
        <time>2022-03-09T15:40:40Z</time>
      </trkpt>
      <trkpt lat="46.80047" lon="5.45698">
        <ele>205.4</ele>
        <time>2022-03-09T15:40:41Z</time>
      </trkpt>
      <trkpt lat="46.80052" lon="5.45694">
        <ele>205.6</ele>
        <time>2022-03-09T15:40:42Z</time>
      </trkpt>
      <trkpt lat="46.80058" lon="5.45689">
        <ele>205.6</ele>
        <time>2022-03-09T15:40:43Z</time>
      </trkpt>
      <trkpt lat="46.80062" lon="5.45684">
        <ele>206</ele>
        <time>2022-03-09T15:40:44Z</time>
      </trkpt>
      <trkpt lat="46.80067" lon="5.45679">
        <ele>206</ele>
        <time>2022-03-09T15:40:45Z</time>
      </trkpt>
      <trkpt lat="46.80071" lon="5.45674">
        <ele>206.2</ele>
        <time>2022-03-09T15:40:46Z</time>
      </trkpt>
      <trkpt lat="46.80076" lon="5.45669">
        <ele>206.2</ele>
        <time>2022-03-09T15:40:47Z</time>
      </trkpt>
      <trkpt lat="46.8008" lon="5.45663">
        <ele>206.6</ele>
        <time>2022-03-09T15:40:48Z</time>
      </trkpt>
      <trkpt lat="46.80084" lon="5.45656">
        <ele>206.8</ele>
        <time>2022-03-09T15:40:49Z</time>
      </trkpt>
      <trkpt lat="46.80088" lon="5.4565">
        <ele>207.2</ele>
        <time>2022-03-09T15:40:50Z</time>
      </trkpt>
      <trkpt lat="46.80092" lon="5.45644">
        <ele>207.4</ele>
        <time>2022-03-09T15:40:51Z</time>
      </trkpt>
      <trkpt lat="46.80096" lon="5.45637">
        <ele>207.6</ele>
        <time>2022-03-09T15:40:52Z</time>
      </trkpt>
      <trkpt lat="46.801" lon="5.45629">
        <ele>207.8</ele>
        <time>2022-03-09T15:40:53Z</time>
      </trkpt>
      <trkpt lat="46.80103" lon="5.45622">
        <ele>208</ele>
        <time>2022-03-09T15:40:54Z</time>
      </trkpt>
      <trkpt lat="46.80106" lon="5.45615">
        <ele>208</ele>
        <time>2022-03-09T15:40:55Z</time>
      </trkpt>
      <trkpt lat="46.80109" lon="5.45608">
        <ele>208.4</ele>
        <time>2022-03-09T15:40:56Z</time>
      </trkpt>
      <trkpt lat="46.80112" lon="5.45601">
        <ele>208.6</ele>
        <time>2022-03-09T15:40:57Z</time>
      </trkpt>
      <trkpt lat="46.80114" lon="5.45593">
        <ele>209</ele>
        <time>2022-03-09T15:40:58Z</time>
      </trkpt>
      <trkpt lat="46.80117" lon="5.45586">
        <ele>209.2</ele>
        <time>2022-03-09T15:40:59Z</time>
      </trkpt>
      <trkpt lat="46.8012" lon="5.45578">
        <ele>209.4</ele>
        <time>2022-03-09T15:41:00Z</time>
      </trkpt>
      <trkpt lat="46.80123" lon="5.45571">
        <ele>209.6</ele>
        <time>2022-03-09T15:41:01Z</time>
      </trkpt>
      <trkpt lat="46.80126" lon="5.45563">
        <ele>210</ele>
        <time>2022-03-09T15:41:02Z</time>
      </trkpt>
      <trkpt lat="46.80129" lon="5.45556">
        <ele>210.4</ele>
        <time>2022-03-09T15:41:03Z</time>
      </trkpt>
      <trkpt lat="46.80131" lon="5.45549">
        <ele>210.4</ele>
        <time>2022-03-09T15:41:04Z</time>
      </trkpt>
      <trkpt lat="46.80134" lon="5.45542">
        <ele>210.8</ele>
        <time>2022-03-09T15:41:05Z</time>
      </trkpt>
      <trkpt lat="46.80137" lon="5.45535">
        <ele>211</ele>
        <time>2022-03-09T15:41:06Z</time>
      </trkpt>
      <trkpt lat="46.8014" lon="5.45528">
        <ele>211.4</ele>
        <time>2022-03-09T15:41:07Z</time>
      </trkpt>
      <trkpt lat="46.80143" lon="5.45521">
        <ele>211.6</ele>
        <time>2022-03-09T15:41:08Z</time>
      </trkpt>
      <trkpt lat="46.80146" lon="5.45513">
        <ele>212</ele>
        <time>2022-03-09T15:41:09Z</time>
      </trkpt>
      <trkpt lat="46.80149" lon="5.45505">
        <ele>212.2</ele>
        <time>2022-03-09T15:41:10Z</time>
      </trkpt>
      <trkpt lat="46.80151" lon="5.45497">
        <ele>212.6</ele>
        <time>2022-03-09T15:41:11Z</time>
      </trkpt>
      <trkpt lat="46.80154" lon="5.4549">
        <ele>212.8</ele>
        <time>2022-03-09T15:41:12Z</time>
      </trkpt>
      <trkpt lat="46.80155" lon="5.45483">
        <ele>212.8</ele>
        <time>2022-03-09T15:41:13Z</time>
      </trkpt>
      <trkpt lat="46.80157" lon="5.45477">
        <ele>213</ele>
        <time>2022-03-09T15:41:14Z</time>
      </trkpt>
      <trkpt lat="46.80159" lon="5.45472">
        <ele>213</ele>
        <time>2022-03-09T15:41:15Z</time>
      </trkpt>
      <trkpt lat="46.80162" lon="5.45467">
        <ele>213</ele>
        <time>2022-03-09T15:41:16Z</time>
      </trkpt>
      <trkpt lat="46.80164" lon="5.45462">
        <ele>213.4</ele>
        <time>2022-03-09T15:41:17Z</time>
      </trkpt>
      <trkpt lat="46.80167" lon="5.45457">
        <ele>213.4</ele>
        <time>2022-03-09T15:41:18Z</time>
      </trkpt>
      <trkpt lat="46.80169" lon="5.45451">
        <ele>213.6</ele>
        <time>2022-03-09T15:41:19Z</time>
      </trkpt>
      <trkpt lat="46.80171" lon="5.45445">
        <ele>213.6</ele>
        <time>2022-03-09T15:41:20Z</time>
      </trkpt>
      <trkpt lat="46.80174" lon="5.4544">
        <ele>213.8</ele>
        <time>2022-03-09T15:41:21Z</time>
      </trkpt>
      <trkpt lat="46.80177" lon="5.45435">
        <ele>213.8</ele>
        <time>2022-03-09T15:41:22Z</time>
      </trkpt>
      <trkpt lat="46.8018" lon="5.4543">
        <ele>214.2</ele>
        <time>2022-03-09T15:41:23Z</time>
      </trkpt>
      <trkpt lat="46.80183" lon="5.45425">
        <ele>214.2</ele>
        <time>2022-03-09T15:41:24Z</time>
      </trkpt>
      <trkpt lat="46.80186" lon="5.4542">
        <ele>214.4</ele>
        <time>2022-03-09T15:41:25Z</time>
      </trkpt>
      <trkpt lat="46.80189" lon="5.45414">
        <ele>214.4</ele>
        <time>2022-03-09T15:41:26Z</time>
      </trkpt>
      <trkpt lat="46.80192" lon="5.45408">
        <ele>214.4</ele>
        <time>2022-03-09T15:41:27Z</time>
      </trkpt>
      <trkpt lat="46.80196" lon="5.45403">
        <ele>214.4</ele>
        <time>2022-03-09T15:41:28Z</time>
      </trkpt>
      <trkpt lat="46.80199" lon="5.45397">
        <ele>214.6</ele>
        <time>2022-03-09T15:41:29Z</time>
      </trkpt>
      <trkpt lat="46.80202" lon="5.45391">
        <ele>214.6</ele>
        <time>2022-03-09T15:41:30Z</time>
      </trkpt>
      <trkpt lat="46.80206" lon="5.45386">
        <ele>214.6</ele>
        <time>2022-03-09T15:41:31Z</time>
      </trkpt>
      <trkpt lat="46.8021" lon="5.4538">
        <ele>214.6</ele>
        <time>2022-03-09T15:41:32Z</time>
      </trkpt>
      <trkpt lat="46.80214" lon="5.45374">
        <ele>214.6</ele>
        <time>2022-03-09T15:41:33Z</time>
      </trkpt>
      <trkpt lat="46.80217" lon="5.45368">
        <ele>214.6</ele>
        <time>2022-03-09T15:41:34Z</time>
      </trkpt>
      <trkpt lat="46.80221" lon="5.45362">
        <ele>214.6</ele>
        <time>2022-03-09T15:41:35Z</time>
      </trkpt>
      <trkpt lat="46.80225" lon="5.45355">
        <ele>214.6</ele>
        <time>2022-03-09T15:41:36Z</time>
      </trkpt>
      <trkpt lat="46.80229" lon="5.45348">
        <ele>214.4</ele>
        <time>2022-03-09T15:41:37Z</time>
      </trkpt>
      <trkpt lat="46.80232" lon="5.45341">
        <ele>214.4</ele>
        <time>2022-03-09T15:41:38Z</time>
      </trkpt>
      <trkpt lat="46.80235" lon="5.45333">
        <ele>214.4</ele>
        <time>2022-03-09T15:41:39Z</time>
      </trkpt>
      <trkpt lat="46.80237" lon="5.45325">
        <ele>214</ele>
        <time>2022-03-09T15:41:40Z</time>
      </trkpt>
      <trkpt lat="46.80239" lon="5.45318">
        <ele>214</ele>
        <time>2022-03-09T15:41:41Z</time>
      </trkpt>
      <trkpt lat="46.80241" lon="5.45309">
        <ele>213.8</ele>
        <time>2022-03-09T15:41:42Z</time>
      </trkpt>
      <trkpt lat="46.80243" lon="5.45301">
        <ele>213.8</ele>
        <time>2022-03-09T15:41:43Z</time>
      </trkpt>
      <trkpt lat="46.80244" lon="5.45292">
        <ele>213.6</ele>
        <time>2022-03-09T15:41:44Z</time>
      </trkpt>
      <trkpt lat="46.80246" lon="5.45284">
        <ele>213.6</ele>
        <time>2022-03-09T15:41:45Z</time>
      </trkpt>
      <trkpt lat="46.80247" lon="5.45275">
        <ele>213.4</ele>
        <time>2022-03-09T15:41:46Z</time>
      </trkpt>
      <trkpt lat="46.80249" lon="5.45267">
        <ele>213.4</ele>
        <time>2022-03-09T15:41:47Z</time>
      </trkpt>
      <trkpt lat="46.8025" lon="5.45258">
        <ele>213.2</ele>
        <time>2022-03-09T15:41:48Z</time>
      </trkpt>
      <trkpt lat="46.80252" lon="5.4525">
        <ele>213.2</ele>
        <time>2022-03-09T15:41:49Z</time>
      </trkpt>
      <trkpt lat="46.80253" lon="5.45241">
        <ele>213.2</ele>
        <time>2022-03-09T15:41:50Z</time>
      </trkpt>
      <trkpt lat="46.80255" lon="5.45233">
        <ele>213</ele>
        <time>2022-03-09T15:41:51Z</time>
      </trkpt>
      <trkpt lat="46.80257" lon="5.45226">
        <ele>213</ele>
        <time>2022-03-09T15:41:52Z</time>
      </trkpt>
      <trkpt lat="46.8026" lon="5.45219">
        <ele>213</ele>
        <time>2022-03-09T15:41:53Z</time>
      </trkpt>
      <trkpt lat="46.80262" lon="5.45212">
        <ele>213</ele>
        <time>2022-03-09T15:41:54Z</time>
      </trkpt>
      <trkpt lat="46.80265" lon="5.45205">
        <ele>213</ele>
        <time>2022-03-09T15:41:55Z</time>
      </trkpt>
      <trkpt lat="46.80268" lon="5.45199">
        <ele>212.6</ele>
        <time>2022-03-09T15:41:56Z</time>
      </trkpt>
      <trkpt lat="46.8027" lon="5.45193">
        <ele>212.6</ele>
        <time>2022-03-09T15:41:57Z</time>
      </trkpt>
      <trkpt lat="46.80272" lon="5.45187">
        <ele>212.6</ele>
        <time>2022-03-09T15:41:58Z</time>
      </trkpt>
      <trkpt lat="46.80273" lon="5.45183">
        <ele>212.4</ele>
        <time>2022-03-09T15:41:59Z</time>
      </trkpt>
      <trkpt lat="46.80274" lon="5.45178">
        <ele>212.4</ele>
        <time>2022-03-09T15:42:00Z</time>
      </trkpt>
      <trkpt lat="46.80273" lon="5.45175">
        <ele>212.4</ele>
        <time>2022-03-09T15:42:01Z</time>
      </trkpt>
      <trkpt lat="46.80273" lon="5.45172">
        <ele>212.4</ele>
        <time>2022-03-09T15:42:02Z</time>
      </trkpt>
      <trkpt lat="46.80272" lon="5.4517">
        <ele>212.4</ele>
        <time>2022-03-09T15:42:03Z</time>
      </trkpt>
      <trkpt lat="46.8027" lon="5.45167">
        <ele>212.4</ele>
        <time>2022-03-09T15:42:04Z</time>
      </trkpt>
      <trkpt lat="46.80268" lon="5.45165">
        <ele>212.4</ele>
        <time>2022-03-09T15:42:05Z</time>
      </trkpt>
      <trkpt lat="46.80265" lon="5.45164">
        <ele>212.4</ele>
        <time>2022-03-09T15:42:06Z</time>
      </trkpt>
      <trkpt lat="46.80262" lon="5.45163">
        <ele>212.4</ele>
        <time>2022-03-09T15:42:07Z</time>
      </trkpt>
      <trkpt lat="46.80258" lon="5.45162">
        <ele>212.6</ele>
        <time>2022-03-09T15:42:08Z</time>
      </trkpt>
      <trkpt lat="46.80254" lon="5.45162">
        <ele>212.6</ele>
        <time>2022-03-09T15:42:09Z</time>
      </trkpt>
      <trkpt lat="46.8025" lon="5.45161">
        <ele>212.8</ele>
        <time>2022-03-09T15:42:10Z</time>
      </trkpt>
      <trkpt lat="46.80246" lon="5.45161">
        <ele>212.8</ele>
        <time>2022-03-09T15:42:11Z</time>
      </trkpt>
      <trkpt lat="46.80242" lon="5.45161">
        <ele>212.8</ele>
        <time>2022-03-09T15:42:12Z</time>
      </trkpt>
      <trkpt lat="46.80238" lon="5.4516">
        <ele>213</ele>
        <time>2022-03-09T15:42:13Z</time>
      </trkpt>
      <trkpt lat="46.80234" lon="5.4516">
        <ele>213</ele>
        <time>2022-03-09T15:42:14Z</time>
      </trkpt>
      <trkpt lat="46.8023" lon="5.4516">
        <ele>213</ele>
        <time>2022-03-09T15:42:15Z</time>
      </trkpt>
      <trkpt lat="46.80226" lon="5.45159">
        <ele>213.4</ele>
        <time>2022-03-09T15:42:16Z</time>
      </trkpt>
      <trkpt lat="46.80222" lon="5.45158">
        <ele>213.4</ele>
        <time>2022-03-09T15:42:17Z</time>
      </trkpt>
      <trkpt lat="46.80218" lon="5.45158">
        <ele>213.6</ele>
        <time>2022-03-09T15:42:18Z</time>
      </trkpt>
      <trkpt lat="46.80214" lon="5.45157">
        <ele>213.6</ele>
        <time>2022-03-09T15:42:19Z</time>
      </trkpt>
      <trkpt lat="46.8021" lon="5.45157">
        <ele>213.6</ele>
        <time>2022-03-09T15:42:20Z</time>
      </trkpt>
      <trkpt lat="46.80206" lon="5.45156">
        <ele>213.6</ele>
        <time>2022-03-09T15:42:21Z</time>
      </trkpt>
      <trkpt lat="46.80201" lon="5.45155">
        <ele>213.8</ele>
        <time>2022-03-09T15:42:22Z</time>
      </trkpt>
      <trkpt lat="46.80197" lon="5.45155">
        <ele>213.8</ele>
        <time>2022-03-09T15:42:23Z</time>
      </trkpt>
      <trkpt lat="46.80192" lon="5.45154">
        <ele>213.8</ele>
        <time>2022-03-09T15:42:24Z</time>
      </trkpt>
      <trkpt lat="46.80188" lon="5.45153">
        <ele>214</ele>
        <time>2022-03-09T15:42:25Z</time>
      </trkpt>
      <trkpt lat="46.80183" lon="5.45152">
        <ele>214</ele>
        <time>2022-03-09T15:42:26Z</time>
      </trkpt>
      <trkpt lat="46.80174" lon="5.4515">
        <ele>214</ele>
        <time>2022-03-09T15:42:27Z</time>
      </trkpt>
      <trkpt lat="46.80169" lon="5.45149">
        <ele>214.4</ele>
        <time>2022-03-09T15:42:28Z</time>
      </trkpt>
      <trkpt lat="46.80164" lon="5.45148">
        <ele>214.4</ele>
        <time>2022-03-09T15:42:29Z</time>
      </trkpt>
      <trkpt lat="46.8016" lon="5.45146">
        <ele>214.4</ele>
        <time>2022-03-09T15:42:30Z</time>
      </trkpt>
      <trkpt lat="46.80155" lon="5.45144">
        <ele>214.4</ele>
        <time>2022-03-09T15:42:31Z</time>
      </trkpt>
      <trkpt lat="46.8015" lon="5.45142">
        <ele>214.6</ele>
        <time>2022-03-09T15:42:32Z</time>
      </trkpt>
      <trkpt lat="46.80145" lon="5.4514">
        <ele>214.6</ele>
        <time>2022-03-09T15:42:33Z</time>
      </trkpt>
      <trkpt lat="46.8014" lon="5.45138">
        <ele>214.6</ele>
        <time>2022-03-09T15:42:34Z</time>
      </trkpt>
      <trkpt lat="46.80135" lon="5.45136">
        <ele>214.6</ele>
        <time>2022-03-09T15:42:35Z</time>
      </trkpt>
      <trkpt lat="46.8013" lon="5.45134">
        <ele>214.6</ele>
        <time>2022-03-09T15:42:36Z</time>
      </trkpt>
      <trkpt lat="46.80125" lon="5.45132">
        <ele>214.6</ele>
        <time>2022-03-09T15:42:37Z</time>
      </trkpt>
      <trkpt lat="46.8012" lon="5.4513">
        <ele>214.6</ele>
        <time>2022-03-09T15:42:38Z</time>
      </trkpt>
      <trkpt lat="46.80114" lon="5.45128">
        <ele>214.6</ele>
        <time>2022-03-09T15:42:39Z</time>
      </trkpt>
      <trkpt lat="46.80108" lon="5.45125">
        <ele>214.6</ele>
        <time>2022-03-09T15:42:40Z</time>
      </trkpt>
      <trkpt lat="46.80102" lon="5.45123">
        <ele>214.6</ele>
        <time>2022-03-09T15:42:41Z</time>
      </trkpt>
      <trkpt lat="46.80096" lon="5.4512">
        <ele>214.6</ele>
        <time>2022-03-09T15:42:42Z</time>
      </trkpt>
      <trkpt lat="46.8009" lon="5.45117">
        <ele>214.2</ele>
        <time>2022-03-09T15:42:43Z</time>
      </trkpt>
      <trkpt lat="46.80084" lon="5.45114">
        <ele>214.2</ele>
        <time>2022-03-09T15:42:44Z</time>
      </trkpt>
      <trkpt lat="46.80078" lon="5.45112">
        <ele>214</ele>
        <time>2022-03-09T15:42:45Z</time>
      </trkpt>
      <trkpt lat="46.80071" lon="5.45109">
        <ele>214</ele>
        <time>2022-03-09T15:42:46Z</time>
      </trkpt>
      <trkpt lat="46.80064" lon="5.45106">
        <ele>213.8</ele>
        <time>2022-03-09T15:42:47Z</time>
      </trkpt>
      <trkpt lat="46.80057" lon="5.45103">
        <ele>213.6</ele>
        <time>2022-03-09T15:42:48Z</time>
      </trkpt>
      <trkpt lat="46.80051" lon="5.451">
        <ele>213.6</ele>
        <time>2022-03-09T15:42:49Z</time>
      </trkpt>
      <trkpt lat="46.80044" lon="5.45097">
        <ele>213.2</ele>
        <time>2022-03-09T15:42:50Z</time>
      </trkpt>
      <trkpt lat="46.80036" lon="5.45094">
        <ele>213.2</ele>
        <time>2022-03-09T15:42:51Z</time>
      </trkpt>
      <trkpt lat="46.80029" lon="5.45091">
        <ele>213</ele>
        <time>2022-03-09T15:42:52Z</time>
      </trkpt>
      <trkpt lat="46.80022" lon="5.45087">
        <ele>212.8</ele>
        <time>2022-03-09T15:42:53Z</time>
      </trkpt>
      <trkpt lat="46.80014" lon="5.45084">
        <ele>212.8</ele>
        <time>2022-03-09T15:42:54Z</time>
      </trkpt>
      <trkpt lat="46.80006" lon="5.45081">
        <ele>212.4</ele>
        <time>2022-03-09T15:42:55Z</time>
      </trkpt>
      <trkpt lat="46.79998" lon="5.45077">
        <ele>212.2</ele>
        <time>2022-03-09T15:42:56Z</time>
      </trkpt>
      <trkpt lat="46.7999" lon="5.45074">
        <ele>212.2</ele>
        <time>2022-03-09T15:42:57Z</time>
      </trkpt>
      <trkpt lat="46.79982" lon="5.4507">
        <ele>211.8</ele>
        <time>2022-03-09T15:42:58Z</time>
      </trkpt>
      <trkpt lat="46.79974" lon="5.45067">
        <ele>211.8</ele>
        <time>2022-03-09T15:42:59Z</time>
      </trkpt>
      <trkpt lat="46.79965" lon="5.45063">
        <ele>211.6</ele>
        <time>2022-03-09T15:43:00Z</time>
      </trkpt>
      <trkpt lat="46.79957" lon="5.4506">
        <ele>211.6</ele>
        <time>2022-03-09T15:43:01Z</time>
      </trkpt>
      <trkpt lat="46.79949" lon="5.45057">
        <ele>211.6</ele>
        <time>2022-03-09T15:43:02Z</time>
      </trkpt>
      <trkpt lat="46.79941" lon="5.45053">
        <ele>211.6</ele>
        <time>2022-03-09T15:43:03Z</time>
      </trkpt>
      <trkpt lat="46.79934" lon="5.4505">
        <ele>211.6</ele>
        <time>2022-03-09T15:43:04Z</time>
      </trkpt>
      <trkpt lat="46.79927" lon="5.45046">
        <ele>211.6</ele>
        <time>2022-03-09T15:43:05Z</time>
      </trkpt>
      <trkpt lat="46.7992" lon="5.45042">
        <ele>211.6</ele>
        <time>2022-03-09T15:43:06Z</time>
      </trkpt>
      <trkpt lat="46.79913" lon="5.45039">
        <ele>211.6</ele>
        <time>2022-03-09T15:43:07Z</time>
      </trkpt>
      <trkpt lat="46.79907" lon="5.45036">
        <ele>211.8</ele>
        <time>2022-03-09T15:43:08Z</time>
      </trkpt>
      <trkpt lat="46.799" lon="5.45033">
        <ele>211.8</ele>
        <time>2022-03-09T15:43:09Z</time>
      </trkpt>
      <trkpt lat="46.79894" lon="5.4503">
        <ele>212.2</ele>
        <time>2022-03-09T15:43:10Z</time>
      </trkpt>
      <trkpt lat="46.79888" lon="5.45027">
        <ele>212.4</ele>
        <time>2022-03-09T15:43:11Z</time>
      </trkpt>
      <trkpt lat="46.79882" lon="5.45025">
        <ele>212.4</ele>
        <time>2022-03-09T15:43:12Z</time>
      </trkpt>
      <trkpt lat="46.79876" lon="5.45023">
        <ele>212.8</ele>
        <time>2022-03-09T15:43:13Z</time>
      </trkpt>
      <trkpt lat="46.79871" lon="5.4502">
        <ele>212.8</ele>
        <time>2022-03-09T15:43:14Z</time>
      </trkpt>
      <trkpt lat="46.79866" lon="5.45018">
        <ele>213</ele>
        <time>2022-03-09T15:43:15Z</time>
      </trkpt>
      <trkpt lat="46.7986" lon="5.45015">
        <ele>213</ele>
        <time>2022-03-09T15:43:16Z</time>
      </trkpt>
      <trkpt lat="46.79855" lon="5.45013">
        <ele>213.2</ele>
        <time>2022-03-09T15:43:17Z</time>
      </trkpt>
      <trkpt lat="46.7985" lon="5.45011">
        <ele>213.2</ele>
        <time>2022-03-09T15:43:18Z</time>
      </trkpt>
      <trkpt lat="46.79845" lon="5.45008">
        <ele>213.4</ele>
        <time>2022-03-09T15:43:19Z</time>
      </trkpt>
      <trkpt lat="46.7984" lon="5.45006">
        <ele>213.4</ele>
        <time>2022-03-09T15:43:20Z</time>
      </trkpt>
      <trkpt lat="46.79835" lon="5.45004">
        <ele>213.4</ele>
        <time>2022-03-09T15:43:21Z</time>
      </trkpt>
      <trkpt lat="46.7983" lon="5.45001">
        <ele>213.8</ele>
        <time>2022-03-09T15:43:22Z</time>
      </trkpt>
      <trkpt lat="46.79825" lon="5.44999">
        <ele>213.8</ele>
        <time>2022-03-09T15:43:23Z</time>
      </trkpt>
      <trkpt lat="46.7982" lon="5.44997">
        <ele>213.8</ele>
        <time>2022-03-09T15:43:24Z</time>
      </trkpt>
      <trkpt lat="46.79815" lon="5.44995">
        <ele>214</ele>
        <time>2022-03-09T15:43:25Z</time>
      </trkpt>
      <trkpt lat="46.7981" lon="5.44993">
        <ele>214</ele>
        <time>2022-03-09T15:43:26Z</time>
      </trkpt>
      <trkpt lat="46.79804" lon="5.4499">
        <ele>214</ele>
        <time>2022-03-09T15:43:27Z</time>
      </trkpt>
      <trkpt lat="46.79799" lon="5.44988">
        <ele>214</ele>
        <time>2022-03-09T15:43:28Z</time>
      </trkpt>
      <trkpt lat="46.79794" lon="5.44986">
        <ele>214</ele>
        <time>2022-03-09T15:43:29Z</time>
      </trkpt>
      <trkpt lat="46.79789" lon="5.44983">
        <ele>214</ele>
        <time>2022-03-09T15:43:30Z</time>
      </trkpt>
      <trkpt lat="46.79783" lon="5.44981">
        <ele>214.4</ele>
        <time>2022-03-09T15:43:31Z</time>
      </trkpt>
      <trkpt lat="46.79778" lon="5.44979">
        <ele>214.4</ele>
        <time>2022-03-09T15:43:32Z</time>
      </trkpt>
      <trkpt lat="46.79773" lon="5.44977">
        <ele>214.4</ele>
        <time>2022-03-09T15:43:33Z</time>
      </trkpt>
      <trkpt lat="46.79768" lon="5.44974">
        <ele>214.4</ele>
        <time>2022-03-09T15:43:34Z</time>
      </trkpt>
      <trkpt lat="46.79763" lon="5.44972">
        <ele>214.4</ele>
        <time>2022-03-09T15:43:35Z</time>
      </trkpt>
      <trkpt lat="46.79758" lon="5.4497">
        <ele>214.4</ele>
        <time>2022-03-09T15:43:36Z</time>
      </trkpt>
      <trkpt lat="46.79752" lon="5.44967">
        <ele>214.6</ele>
        <time>2022-03-09T15:43:37Z</time>
      </trkpt>
      <trkpt lat="46.79747" lon="5.44964">
        <ele>214.6</ele>
        <time>2022-03-09T15:43:38Z</time>
      </trkpt>
      <trkpt lat="46.79741" lon="5.44961">
        <ele>214.6</ele>
        <time>2022-03-09T15:43:39Z</time>
      </trkpt>
      <trkpt lat="46.79736" lon="5.44959">
        <ele>214.6</ele>
        <time>2022-03-09T15:43:40Z</time>
      </trkpt>
      <trkpt lat="46.7973" lon="5.44956">
        <ele>214.6</ele>
        <time>2022-03-09T15:43:41Z</time>
      </trkpt>
      <trkpt lat="46.79725" lon="5.44953">
        <ele>214.6</ele>
        <time>2022-03-09T15:43:42Z</time>
      </trkpt>
      <trkpt lat="46.79719" lon="5.44951">
        <ele>215</ele>
        <time>2022-03-09T15:43:43Z</time>
      </trkpt>
      <trkpt lat="46.79714" lon="5.44948">
        <ele>215</ele>
        <time>2022-03-09T15:43:44Z</time>
      </trkpt>
      <trkpt lat="46.79708" lon="5.44945">
        <ele>215</ele>
        <time>2022-03-09T15:43:45Z</time>
      </trkpt>
      <trkpt lat="46.79703" lon="5.44942">
        <ele>215</ele>
        <time>2022-03-09T15:43:46Z</time>
      </trkpt>
      <trkpt lat="46.79697" lon="5.44939">
        <ele>215.2</ele>
        <time>2022-03-09T15:43:47Z</time>
      </trkpt>
      <trkpt lat="46.79692" lon="5.44936">
        <ele>215.2</ele>
        <time>2022-03-09T15:43:48Z</time>
      </trkpt>
      <trkpt lat="46.79686" lon="5.44933">
        <ele>215.2</ele>
        <time>2022-03-09T15:43:49Z</time>
      </trkpt>
      <trkpt lat="46.79681" lon="5.44929">
        <ele>215.2</ele>
        <time>2022-03-09T15:43:50Z</time>
      </trkpt>
      <trkpt lat="46.79675" lon="5.44926">
        <ele>215.4</ele>
        <time>2022-03-09T15:43:51Z</time>
      </trkpt>
      <trkpt lat="46.7967" lon="5.44923">
        <ele>215.4</ele>
        <time>2022-03-09T15:43:52Z</time>
      </trkpt>
      <trkpt lat="46.79664" lon="5.44919">
        <ele>215.4</ele>
        <time>2022-03-09T15:43:53Z</time>
      </trkpt>
      <trkpt lat="46.79658" lon="5.44916">
        <ele>215.4</ele>
        <time>2022-03-09T15:43:54Z</time>
      </trkpt>
      <trkpt lat="46.79653" lon="5.44913">
        <ele>215.4</ele>
        <time>2022-03-09T15:43:55Z</time>
      </trkpt>
      <trkpt lat="46.79647" lon="5.4491">
        <ele>215.4</ele>
        <time>2022-03-09T15:43:56Z</time>
      </trkpt>
      <trkpt lat="46.79641" lon="5.44907">
        <ele>215.4</ele>
        <time>2022-03-09T15:43:57Z</time>
      </trkpt>
      <trkpt lat="46.79635" lon="5.44904">
        <ele>215.4</ele>
        <time>2022-03-09T15:43:58Z</time>
      </trkpt>
      <trkpt lat="46.79629" lon="5.44901">
        <ele>215.4</ele>
        <time>2022-03-09T15:43:59Z</time>
      </trkpt>
      <trkpt lat="46.79623" lon="5.44898">
        <ele>215.4</ele>
        <time>2022-03-09T15:44:00Z</time>
      </trkpt>
      <trkpt lat="46.79617" lon="5.44894">
        <ele>215.4</ele>
        <time>2022-03-09T15:44:01Z</time>
      </trkpt>
      <trkpt lat="46.79611" lon="5.44891">
        <ele>215.4</ele>
        <time>2022-03-09T15:44:02Z</time>
      </trkpt>
      <trkpt lat="46.79605" lon="5.44888">
        <ele>215.4</ele>
        <time>2022-03-09T15:44:03Z</time>
      </trkpt>
      <trkpt lat="46.79599" lon="5.44884">
        <ele>215.4</ele>
        <time>2022-03-09T15:44:04Z</time>
      </trkpt>
      <trkpt lat="46.79593" lon="5.44881">
        <ele>215.4</ele>
        <time>2022-03-09T15:44:05Z</time>
      </trkpt>
      <trkpt lat="46.79587" lon="5.44878">
        <ele>215.4</ele>
        <time>2022-03-09T15:44:06Z</time>
      </trkpt>
      <trkpt lat="46.79581" lon="5.44875">
        <ele>215.4</ele>
        <time>2022-03-09T15:44:07Z</time>
      </trkpt>
      <trkpt lat="46.79575" lon="5.44872">
        <ele>215.4</ele>
        <time>2022-03-09T15:44:08Z</time>
      </trkpt>
      <trkpt lat="46.79569" lon="5.44868">
        <ele>215.4</ele>
        <time>2022-03-09T15:44:09Z</time>
      </trkpt>
      <trkpt lat="46.79563" lon="5.44865">
        <ele>215.4</ele>
        <time>2022-03-09T15:44:10Z</time>
      </trkpt>
      <trkpt lat="46.79556" lon="5.44863">
        <ele>215.4</ele>
        <time>2022-03-09T15:44:11Z</time>
      </trkpt>
      <trkpt lat="46.7955" lon="5.4486">
        <ele>215.4</ele>
        <time>2022-03-09T15:44:12Z</time>
      </trkpt>
      <trkpt lat="46.79544" lon="5.44857">
        <ele>215.4</ele>
        <time>2022-03-09T15:44:13Z</time>
      </trkpt>
      <trkpt lat="46.79538" lon="5.44853">
        <ele>215.4</ele>
        <time>2022-03-09T15:44:14Z</time>
      </trkpt>
      <trkpt lat="46.79532" lon="5.4485">
        <ele>215.4</ele>
        <time>2022-03-09T15:44:15Z</time>
      </trkpt>
      <trkpt lat="46.79532" lon="5.4485">
        <ele>215.4</ele>
        <time>2022-03-09T15:44:16Z</time>
      </trkpt>
      <trkpt lat="46.79526" lon="5.44846">
        <ele>215.4</ele>
        <time>2022-03-09T15:44:17Z</time>
      </trkpt>
      <trkpt lat="46.7952" lon="5.44843">
        <ele>215.4</ele>
        <time>2022-03-09T15:44:18Z</time>
      </trkpt>
      <trkpt lat="46.79513" lon="5.44839">
        <ele>215.4</ele>
        <time>2022-03-09T15:44:19Z</time>
      </trkpt>
      <trkpt lat="46.79507" lon="5.44836">
        <ele>215.4</ele>
        <time>2022-03-09T15:44:20Z</time>
      </trkpt>
      <trkpt lat="46.795" lon="5.44833">
        <ele>215.4</ele>
        <time>2022-03-09T15:44:21Z</time>
      </trkpt>
      <trkpt lat="46.79494" lon="5.4483">
        <ele>215.4</ele>
        <time>2022-03-09T15:44:22Z</time>
      </trkpt>
      <trkpt lat="46.79487" lon="5.44826">
        <ele>215.4</ele>
        <time>2022-03-09T15:44:23Z</time>
      </trkpt>
      <trkpt lat="46.79481" lon="5.44823">
        <ele>215.4</ele>
        <time>2022-03-09T15:44:24Z</time>
      </trkpt>
      <trkpt lat="46.79475" lon="5.4482">
        <ele>215.4</ele>
        <time>2022-03-09T15:44:25Z</time>
      </trkpt>
      <trkpt lat="46.79468" lon="5.44816">
        <ele>215.4</ele>
        <time>2022-03-09T15:44:26Z</time>
      </trkpt>
      <trkpt lat="46.79461" lon="5.44812">
        <ele>215.4</ele>
        <time>2022-03-09T15:44:27Z</time>
      </trkpt>
      <trkpt lat="46.79455" lon="5.44809">
        <ele>215.4</ele>
        <time>2022-03-09T15:44:28Z</time>
      </trkpt>
      <trkpt lat="46.79448" lon="5.44805">
        <ele>215.4</ele>
        <time>2022-03-09T15:44:29Z</time>
      </trkpt>
      <trkpt lat="46.79442" lon="5.44802">
        <ele>215.4</ele>
        <time>2022-03-09T15:44:30Z</time>
      </trkpt>
      <trkpt lat="46.79435" lon="5.44798">
        <ele>215.4</ele>
        <time>2022-03-09T15:44:31Z</time>
      </trkpt>
      <trkpt lat="46.79428" lon="5.44794">
        <ele>215.4</ele>
        <time>2022-03-09T15:44:32Z</time>
      </trkpt>
      <trkpt lat="46.79421" lon="5.4479">
        <ele>215.4</ele>
        <time>2022-03-09T15:44:33Z</time>
      </trkpt>
      <trkpt lat="46.79415" lon="5.44786">
        <ele>215.4</ele>
        <time>2022-03-09T15:44:34Z</time>
      </trkpt>
      <trkpt lat="46.79408" lon="5.44783">
        <ele>215.4</ele>
        <time>2022-03-09T15:44:35Z</time>
      </trkpt>
      <trkpt lat="46.79401" lon="5.44779">
        <ele>215.4</ele>
        <time>2022-03-09T15:44:36Z</time>
      </trkpt>
      <trkpt lat="46.79395" lon="5.44775">
        <ele>215.4</ele>
        <time>2022-03-09T15:44:37Z</time>
      </trkpt>
      <trkpt lat="46.79388" lon="5.44772">
        <ele>215.2</ele>
        <time>2022-03-09T15:44:38Z</time>
      </trkpt>
      <trkpt lat="46.79381" lon="5.44768">
        <ele>215.2</ele>
        <time>2022-03-09T15:44:39Z</time>
      </trkpt>
      <trkpt lat="46.79375" lon="5.44764">
        <ele>215.2</ele>
        <time>2022-03-09T15:44:40Z</time>
      </trkpt>
      <trkpt lat="46.79368" lon="5.44761">
        <ele>215.2</ele>
        <time>2022-03-09T15:44:41Z</time>
      </trkpt>
      <trkpt lat="46.79362" lon="5.44757">
        <ele>215.2</ele>
        <time>2022-03-09T15:44:42Z</time>
      </trkpt>
      <trkpt lat="46.79355" lon="5.44753">
        <ele>215.2</ele>
        <time>2022-03-09T15:44:43Z</time>
      </trkpt>
      <trkpt lat="46.79349" lon="5.44749">
        <ele>215.2</ele>
        <time>2022-03-09T15:44:44Z</time>
      </trkpt>
      <trkpt lat="46.79342" lon="5.44746">
        <ele>215</ele>
        <time>2022-03-09T15:44:45Z</time>
      </trkpt>
      <trkpt lat="46.79336" lon="5.44742">
        <ele>215</ele>
        <time>2022-03-09T15:44:46Z</time>
      </trkpt>
      <trkpt lat="46.79329" lon="5.44738">
        <ele>215</ele>
        <time>2022-03-09T15:44:47Z</time>
      </trkpt>
      <trkpt lat="46.79322" lon="5.44735">
        <ele>215</ele>
        <time>2022-03-09T15:44:48Z</time>
      </trkpt>
      <trkpt lat="46.79316" lon="5.44732">
        <ele>215</ele>
        <time>2022-03-09T15:44:49Z</time>
      </trkpt>
      <trkpt lat="46.79309" lon="5.44729">
        <ele>215</ele>
        <time>2022-03-09T15:44:50Z</time>
      </trkpt>
      <trkpt lat="46.79302" lon="5.44725">
        <ele>215</ele>
        <time>2022-03-09T15:44:51Z</time>
      </trkpt>
      <trkpt lat="46.79295" lon="5.44722">
        <ele>215</ele>
        <time>2022-03-09T15:44:52Z</time>
      </trkpt>
      <trkpt lat="46.79288" lon="5.44718">
        <ele>215</ele>
        <time>2022-03-09T15:44:53Z</time>
      </trkpt>
      <trkpt lat="46.79282" lon="5.44714">
        <ele>215</ele>
        <time>2022-03-09T15:44:54Z</time>
      </trkpt>
      <trkpt lat="46.79275" lon="5.44711">
        <ele>215</ele>
        <time>2022-03-09T15:44:55Z</time>
      </trkpt>
      <trkpt lat="46.79268" lon="5.44707">
        <ele>215</ele>
        <time>2022-03-09T15:44:56Z</time>
      </trkpt>
      <trkpt lat="46.79261" lon="5.44703">
        <ele>215</ele>
        <time>2022-03-09T15:44:57Z</time>
      </trkpt>
      <trkpt lat="46.79254" lon="5.447">
        <ele>215</ele>
        <time>2022-03-09T15:44:58Z</time>
      </trkpt>
      <trkpt lat="46.79247" lon="5.44696">
        <ele>215</ele>
        <time>2022-03-09T15:44:59Z</time>
      </trkpt>
      <trkpt lat="46.7924" lon="5.44693">
        <ele>215</ele>
        <time>2022-03-09T15:45:00Z</time>
      </trkpt>
      <trkpt lat="46.79233" lon="5.44689">
        <ele>215</ele>
        <time>2022-03-09T15:45:01Z</time>
      </trkpt>
      <trkpt lat="46.79226" lon="5.44686">
        <ele>215</ele>
        <time>2022-03-09T15:45:02Z</time>
      </trkpt>
      <trkpt lat="46.79218" lon="5.44683">
        <ele>215</ele>
        <time>2022-03-09T15:45:03Z</time>
      </trkpt>
      <trkpt lat="46.79211" lon="5.4468">
        <ele>215</ele>
        <time>2022-03-09T15:45:04Z</time>
      </trkpt>
      <trkpt lat="46.79204" lon="5.44677">
        <ele>215</ele>
        <time>2022-03-09T15:45:05Z</time>
      </trkpt>
      <trkpt lat="46.79196" lon="5.44675">
        <ele>215</ele>
        <time>2022-03-09T15:45:06Z</time>
      </trkpt>
      <trkpt lat="46.79189" lon="5.44672">
        <ele>215</ele>
        <time>2022-03-09T15:45:07Z</time>
      </trkpt>
      <trkpt lat="46.79182" lon="5.4467">
        <ele>215</ele>
        <time>2022-03-09T15:45:08Z</time>
      </trkpt>
      <trkpt lat="46.79174" lon="5.44668">
        <ele>215</ele>
        <time>2022-03-09T15:45:09Z</time>
      </trkpt>
      <trkpt lat="46.79167" lon="5.44666">
        <ele>215</ele>
        <time>2022-03-09T15:45:10Z</time>
      </trkpt>
      <trkpt lat="46.79159" lon="5.44664">
        <ele>215</ele>
        <time>2022-03-09T15:45:11Z</time>
      </trkpt>
      <trkpt lat="46.79152" lon="5.44662">
        <ele>214.6</ele>
        <time>2022-03-09T15:45:12Z</time>
      </trkpt>
      <trkpt lat="46.79144" lon="5.4466">
        <ele>214.6</ele>
        <time>2022-03-09T15:45:13Z</time>
      </trkpt>
      <trkpt lat="46.79137" lon="5.44659">
        <ele>214.6</ele>
        <time>2022-03-09T15:45:14Z</time>
      </trkpt>
      <trkpt lat="46.79129" lon="5.44658">
        <ele>214.4</ele>
        <time>2022-03-09T15:45:15Z</time>
      </trkpt>
      <trkpt lat="46.79122" lon="5.44656">
        <ele>214.4</ele>
        <time>2022-03-09T15:45:16Z</time>
      </trkpt>
      <trkpt lat="46.79114" lon="5.44655">
        <ele>214.4</ele>
        <time>2022-03-09T15:45:17Z</time>
      </trkpt>
      <trkpt lat="46.79107" lon="5.44654">
        <ele>214.4</ele>
        <time>2022-03-09T15:45:18Z</time>
      </trkpt>
      <trkpt lat="46.79099" lon="5.44653">
        <ele>214.2</ele>
        <time>2022-03-09T15:45:19Z</time>
      </trkpt>
      <trkpt lat="46.79091" lon="5.44652">
        <ele>214.2</ele>
        <time>2022-03-09T15:45:20Z</time>
      </trkpt>
      <trkpt lat="46.79083" lon="5.44652">
        <ele>214.2</ele>
        <time>2022-03-09T15:45:21Z</time>
      </trkpt>
      <trkpt lat="46.79075" lon="5.44651">
        <ele>213.8</ele>
        <time>2022-03-09T15:45:22Z</time>
      </trkpt>
      <trkpt lat="46.79058" lon="5.44651">
        <ele>213.8</ele>
        <time>2022-03-09T15:45:23Z</time>
      </trkpt>
      <trkpt lat="46.79049" lon="5.44651">
        <ele>213.8</ele>
        <time>2022-03-09T15:45:24Z</time>
      </trkpt>
      <trkpt lat="46.79041" lon="5.44651">
        <ele>213.6</ele>
        <time>2022-03-09T15:45:25Z</time>
      </trkpt>
      <trkpt lat="46.79032" lon="5.44651">
        <ele>213.6</ele>
        <time>2022-03-09T15:45:26Z</time>
      </trkpt>
      <trkpt lat="46.79023" lon="5.44652">
        <ele>213.2</ele>
        <time>2022-03-09T15:45:27Z</time>
      </trkpt>
      <trkpt lat="46.79014" lon="5.44653">
        <ele>213</ele>
        <time>2022-03-09T15:45:28Z</time>
      </trkpt>
      <trkpt lat="46.79005" lon="5.44654">
        <ele>212.6</ele>
        <time>2022-03-09T15:45:29Z</time>
      </trkpt>
      <trkpt lat="46.78996" lon="5.44655">
        <ele>212.6</ele>
        <time>2022-03-09T15:45:30Z</time>
      </trkpt>
      <trkpt lat="46.78987" lon="5.44657">
        <ele>212.4</ele>
        <time>2022-03-09T15:45:31Z</time>
      </trkpt>
      <trkpt lat="46.78979" lon="5.44659">
        <ele>212.4</ele>
        <time>2022-03-09T15:45:32Z</time>
      </trkpt>
      <trkpt lat="46.78969" lon="5.4466">
        <ele>212.2</ele>
        <time>2022-03-09T15:45:33Z</time>
      </trkpt>
      <trkpt lat="46.7896" lon="5.44661">
        <ele>212.2</ele>
        <time>2022-03-09T15:45:34Z</time>
      </trkpt>
      <trkpt lat="46.78951" lon="5.44663">
        <ele>212.2</ele>
        <time>2022-03-09T15:45:35Z</time>
      </trkpt>
      <trkpt lat="46.78942" lon="5.44665">
        <ele>212.2</ele>
        <time>2022-03-09T15:45:36Z</time>
      </trkpt>
      <trkpt lat="46.78934" lon="5.44666">
        <ele>212.2</ele>
        <time>2022-03-09T15:45:37Z</time>
      </trkpt>
      <trkpt lat="46.78926" lon="5.44668">
        <ele>212.2</ele>
        <time>2022-03-09T15:45:38Z</time>
      </trkpt>
      <trkpt lat="46.78917" lon="5.44669">
        <ele>212.2</ele>
        <time>2022-03-09T15:45:39Z</time>
      </trkpt>
      <trkpt lat="46.78909" lon="5.4467">
        <ele>212.4</ele>
        <time>2022-03-09T15:45:40Z</time>
      </trkpt>
      <trkpt lat="46.78901" lon="5.44672">
        <ele>212.4</ele>
        <time>2022-03-09T15:45:41Z</time>
      </trkpt>
      <trkpt lat="46.78893" lon="5.44673">
        <ele>212.8</ele>
        <time>2022-03-09T15:45:42Z</time>
      </trkpt>
      <trkpt lat="46.78885" lon="5.44674">
        <ele>212.8</ele>
        <time>2022-03-09T15:45:43Z</time>
      </trkpt>
      <trkpt lat="46.78878" lon="5.44676">
        <ele>213</ele>
        <time>2022-03-09T15:45:44Z</time>
      </trkpt>
      <trkpt lat="46.7887" lon="5.44677">
        <ele>213</ele>
        <time>2022-03-09T15:45:45Z</time>
      </trkpt>
      <trkpt lat="46.78862" lon="5.44678">
        <ele>213.2</ele>
        <time>2022-03-09T15:45:46Z</time>
      </trkpt>
      <trkpt lat="46.78855" lon="5.4468">
        <ele>213.2</ele>
        <time>2022-03-09T15:45:47Z</time>
      </trkpt>
      <trkpt lat="46.78847" lon="5.44681">
        <ele>213.6</ele>
        <time>2022-03-09T15:45:48Z</time>
      </trkpt>
      <trkpt lat="46.7884" lon="5.44683">
        <ele>214</ele>
        <time>2022-03-09T15:45:49Z</time>
      </trkpt>
      <trkpt lat="46.78832" lon="5.44684">
        <ele>214</ele>
        <time>2022-03-09T15:45:50Z</time>
      </trkpt>
      <trkpt lat="46.78825" lon="5.44685">
        <ele>214.2</ele>
        <time>2022-03-09T15:45:51Z</time>
      </trkpt>
      <trkpt lat="46.78818" lon="5.44686">
        <ele>214.6</ele>
        <time>2022-03-09T15:45:52Z</time>
      </trkpt>
      <trkpt lat="46.78811" lon="5.44687">
        <ele>214.6</ele>
        <time>2022-03-09T15:45:53Z</time>
      </trkpt>
      <trkpt lat="46.78805" lon="5.44689">
        <ele>214.6</ele>
        <time>2022-03-09T15:45:54Z</time>
      </trkpt>
      <trkpt lat="46.78798" lon="5.4469">
        <ele>214.8</ele>
        <time>2022-03-09T15:45:55Z</time>
      </trkpt>
      <trkpt lat="46.78791" lon="5.44691">
        <ele>214.8</ele>
        <time>2022-03-09T15:45:56Z</time>
      </trkpt>
      <trkpt lat="46.78785" lon="5.44692">
        <ele>215</ele>
        <time>2022-03-09T15:45:57Z</time>
      </trkpt>
      <trkpt lat="46.78778" lon="5.44693">
        <ele>215</ele>
        <time>2022-03-09T15:45:58Z</time>
      </trkpt>
      <trkpt lat="46.78772" lon="5.44694">
        <ele>215</ele>
        <time>2022-03-09T15:45:59Z</time>
      </trkpt>
      <trkpt lat="46.78765" lon="5.44695">
        <ele>215.4</ele>
        <time>2022-03-09T15:46:00Z</time>
      </trkpt>
      <trkpt lat="46.78759" lon="5.44696">
        <ele>215.4</ele>
        <time>2022-03-09T15:46:01Z</time>
      </trkpt>
      <trkpt lat="46.78752" lon="5.44697">
        <ele>215.4</ele>
        <time>2022-03-09T15:46:02Z</time>
      </trkpt>
      <trkpt lat="46.78746" lon="5.44698">
        <ele>215.4</ele>
        <time>2022-03-09T15:46:03Z</time>
      </trkpt>
      <trkpt lat="46.78739" lon="5.44699">
        <ele>215.4</ele>
        <time>2022-03-09T15:46:04Z</time>
      </trkpt>
      <trkpt lat="46.78732" lon="5.447">
        <ele>215.4</ele>
        <time>2022-03-09T15:46:05Z</time>
      </trkpt>
      <trkpt lat="46.78726" lon="5.44701">
        <ele>215.4</ele>
        <time>2022-03-09T15:46:06Z</time>
      </trkpt>
      <trkpt lat="46.78719" lon="5.44702">
        <ele>215.4</ele>
        <time>2022-03-09T15:46:07Z</time>
      </trkpt>
      <trkpt lat="46.78712" lon="5.44702">
        <ele>215.6</ele>
        <time>2022-03-09T15:46:08Z</time>
      </trkpt>
      <trkpt lat="46.78705" lon="5.44703">
        <ele>215.6</ele>
        <time>2022-03-09T15:46:09Z</time>
      </trkpt>
      <trkpt lat="46.78698" lon="5.44704">
        <ele>215.6</ele>
        <time>2022-03-09T15:46:10Z</time>
      </trkpt>
      <trkpt lat="46.78691" lon="5.44704">
        <ele>215.6</ele>
        <time>2022-03-09T15:46:11Z</time>
      </trkpt>
      <trkpt lat="46.78684" lon="5.44705">
        <ele>215.6</ele>
        <time>2022-03-09T15:46:12Z</time>
      </trkpt>
      <trkpt lat="46.78677" lon="5.44705">
        <ele>215.6</ele>
        <time>2022-03-09T15:46:13Z</time>
      </trkpt>
      <trkpt lat="46.7867" lon="5.44706">
        <ele>215.6</ele>
        <time>2022-03-09T15:46:14Z</time>
      </trkpt>
      <trkpt lat="46.78662" lon="5.44706">
        <ele>215.2</ele>
        <time>2022-03-09T15:46:15Z</time>
      </trkpt>
      <trkpt lat="46.78655" lon="5.44706">
        <ele>215.2</ele>
        <time>2022-03-09T15:46:16Z</time>
      </trkpt>
      <trkpt lat="46.78647" lon="5.44706">
        <ele>215</ele>
        <time>2022-03-09T15:46:17Z</time>
      </trkpt>
      <trkpt lat="46.78639" lon="5.44706">
        <ele>215</ele>
        <time>2022-03-09T15:46:18Z</time>
      </trkpt>
      <trkpt lat="46.78631" lon="5.44706">
        <ele>214.8</ele>
        <time>2022-03-09T15:46:19Z</time>
      </trkpt>
      <trkpt lat="46.78623" lon="5.44706">
        <ele>214.8</ele>
        <time>2022-03-09T15:46:20Z</time>
      </trkpt>
      <trkpt lat="46.78615" lon="5.44705">
        <ele>214.4</ele>
        <time>2022-03-09T15:46:21Z</time>
      </trkpt>
      <trkpt lat="46.78607" lon="5.44705">
        <ele>214.4</ele>
        <time>2022-03-09T15:46:22Z</time>
      </trkpt>
      <trkpt lat="46.78598" lon="5.44704">
        <ele>214.2</ele>
        <time>2022-03-09T15:46:23Z</time>
      </trkpt>
      <trkpt lat="46.7859" lon="5.44704">
        <ele>214.2</ele>
        <time>2022-03-09T15:46:24Z</time>
      </trkpt>
      <trkpt lat="46.78582" lon="5.44703">
        <ele>214.2</ele>
        <time>2022-03-09T15:46:25Z</time>
      </trkpt>
      <trkpt lat="46.78574" lon="5.44702">
        <ele>214</ele>
        <time>2022-03-09T15:46:26Z</time>
      </trkpt>
      <trkpt lat="46.78566" lon="5.44702">
        <ele>214</ele>
        <time>2022-03-09T15:46:27Z</time>
      </trkpt>
      <trkpt lat="46.78558" lon="5.44701">
        <ele>214</ele>
        <time>2022-03-09T15:46:28Z</time>
      </trkpt>
      <trkpt lat="46.78551" lon="5.44701">
        <ele>214</ele>
        <time>2022-03-09T15:46:29Z</time>
      </trkpt>
      <trkpt lat="46.78543" lon="5.447">
        <ele>214</ele>
        <time>2022-03-09T15:46:30Z</time>
      </trkpt>
      <trkpt lat="46.78535" lon="5.447">
        <ele>214</ele>
        <time>2022-03-09T15:46:31Z</time>
      </trkpt>
      <trkpt lat="46.78527" lon="5.44699">
        <ele>214</ele>
        <time>2022-03-09T15:46:32Z</time>
      </trkpt>
      <trkpt lat="46.7852" lon="5.44699">
        <ele>214</ele>
        <time>2022-03-09T15:46:33Z</time>
      </trkpt>
      <trkpt lat="46.78512" lon="5.44698">
        <ele>214</ele>
        <time>2022-03-09T15:46:34Z</time>
      </trkpt>
      <trkpt lat="46.78504" lon="5.44697">
        <ele>214</ele>
        <time>2022-03-09T15:46:35Z</time>
      </trkpt>
      <trkpt lat="46.78497" lon="5.44696">
        <ele>214</ele>
        <time>2022-03-09T15:46:36Z</time>
      </trkpt>
      <trkpt lat="46.78489" lon="5.44696">
        <ele>214</ele>
        <time>2022-03-09T15:46:37Z</time>
      </trkpt>
      <trkpt lat="46.78481" lon="5.44695">
        <ele>214</ele>
        <time>2022-03-09T15:46:38Z</time>
      </trkpt>
      <trkpt lat="46.78474" lon="5.44694">
        <ele>214</ele>
        <time>2022-03-09T15:46:39Z</time>
      </trkpt>
      <trkpt lat="46.78466" lon="5.44694">
        <ele>213.8</ele>
        <time>2022-03-09T15:46:40Z</time>
      </trkpt>
      <trkpt lat="46.78458" lon="5.44693">
        <ele>213.8</ele>
        <time>2022-03-09T15:46:41Z</time>
      </trkpt>
      <trkpt lat="46.7845" lon="5.44693">
        <ele>213.4</ele>
        <time>2022-03-09T15:46:42Z</time>
      </trkpt>
      <trkpt lat="46.78441" lon="5.44692">
        <ele>213.4</ele>
        <time>2022-03-09T15:46:43Z</time>
      </trkpt>
      <trkpt lat="46.78433" lon="5.44691">
        <ele>213.2</ele>
        <time>2022-03-09T15:46:44Z</time>
      </trkpt>
      <trkpt lat="46.78424" lon="5.4469">
        <ele>213</ele>
        <time>2022-03-09T15:46:45Z</time>
      </trkpt>
      <trkpt lat="46.78416" lon="5.4469">
        <ele>212.6</ele>
        <time>2022-03-09T15:46:46Z</time>
      </trkpt>
      <trkpt lat="46.78407" lon="5.44689">
        <ele>212.6</ele>
        <time>2022-03-09T15:46:47Z</time>
      </trkpt>
      <trkpt lat="46.78398" lon="5.44688">
        <ele>212.2</ele>
        <time>2022-03-09T15:46:48Z</time>
      </trkpt>
      <trkpt lat="46.78389" lon="5.44688">
        <ele>212.2</ele>
        <time>2022-03-09T15:46:49Z</time>
      </trkpt>
      <trkpt lat="46.78379" lon="5.44688">
        <ele>211.8</ele>
        <time>2022-03-09T15:46:50Z</time>
      </trkpt>
      <trkpt lat="46.7837" lon="5.44687">
        <ele>211.4</ele>
        <time>2022-03-09T15:46:51Z</time>
      </trkpt>
      <trkpt lat="46.7836" lon="5.44686">
        <ele>211</ele>
        <time>2022-03-09T15:46:52Z</time>
      </trkpt>
      <trkpt lat="46.7835" lon="5.44685">
        <ele>210.8</ele>
        <time>2022-03-09T15:46:53Z</time>
      </trkpt>
      <trkpt lat="46.78339" lon="5.44684">
        <ele>210.4</ele>
        <time>2022-03-09T15:46:54Z</time>
      </trkpt>
      <trkpt lat="46.7833" lon="5.44684">
        <ele>210.2</ele>
        <time>2022-03-09T15:46:55Z</time>
      </trkpt>
      <trkpt lat="46.7832" lon="5.44684">
        <ele>209.8</ele>
        <time>2022-03-09T15:46:56Z</time>
      </trkpt>
      <trkpt lat="46.7831" lon="5.44682">
        <ele>209.6</ele>
        <time>2022-03-09T15:46:57Z</time>
      </trkpt>
      <trkpt lat="46.78299" lon="5.44681">
        <ele>209</ele>
        <time>2022-03-09T15:46:58Z</time>
      </trkpt>
      <trkpt lat="46.78289" lon="5.4468">
        <ele>208.6</ele>
        <time>2022-03-09T15:46:59Z</time>
      </trkpt>
      <trkpt lat="46.78279" lon="5.44679">
        <ele>208.2</ele>
        <time>2022-03-09T15:47:00Z</time>
      </trkpt>
      <trkpt lat="46.78268" lon="5.44678">
        <ele>207.8</ele>
        <time>2022-03-09T15:47:01Z</time>
      </trkpt>
      <trkpt lat="46.78258" lon="5.44678">
        <ele>207.4</ele>
        <time>2022-03-09T15:47:02Z</time>
      </trkpt>
      <trkpt lat="46.78247" lon="5.44677">
        <ele>207.2</ele>
        <time>2022-03-09T15:47:03Z</time>
      </trkpt>
      <trkpt lat="46.78237" lon="5.44676">
        <ele>206.8</ele>
        <time>2022-03-09T15:47:04Z</time>
      </trkpt>
      <trkpt lat="46.78227" lon="5.44675">
        <ele>206.6</ele>
        <time>2022-03-09T15:47:05Z</time>
      </trkpt>
      <trkpt lat="46.78218" lon="5.44674">
        <ele>206.4</ele>
        <time>2022-03-09T15:47:06Z</time>
      </trkpt>
      <trkpt lat="46.78207" lon="5.44674">
        <ele>206.4</ele>
        <time>2022-03-09T15:47:07Z</time>
      </trkpt>
      <trkpt lat="46.78198" lon="5.44673">
        <ele>206</ele>
        <time>2022-03-09T15:47:08Z</time>
      </trkpt>
      <trkpt lat="46.78188" lon="5.44672">
        <ele>205.8</ele>
        <time>2022-03-09T15:47:09Z</time>
      </trkpt>
      <trkpt lat="46.78179" lon="5.44672">
        <ele>205.8</ele>
        <time>2022-03-09T15:47:10Z</time>
      </trkpt>
      <trkpt lat="46.78169" lon="5.44671">
        <ele>205.4</ele>
        <time>2022-03-09T15:47:11Z</time>
      </trkpt>
      <trkpt lat="46.7816" lon="5.44671">
        <ele>205.4</ele>
        <time>2022-03-09T15:47:12Z</time>
      </trkpt>
      <trkpt lat="46.78151" lon="5.4467">
        <ele>205.4</ele>
        <time>2022-03-09T15:47:13Z</time>
      </trkpt>
      <trkpt lat="46.78142" lon="5.44669">
        <ele>205.4</ele>
        <time>2022-03-09T15:47:14Z</time>
      </trkpt>
      <trkpt lat="46.78132" lon="5.44669">
        <ele>205.2</ele>
        <time>2022-03-09T15:47:15Z</time>
      </trkpt>
      <trkpt lat="46.78123" lon="5.44669">
        <ele>205.2</ele>
        <time>2022-03-09T15:47:16Z</time>
      </trkpt>
      <trkpt lat="46.78114" lon="5.44668">
        <ele>205.2</ele>
        <time>2022-03-09T15:47:17Z</time>
      </trkpt>
      <trkpt lat="46.78105" lon="5.44667">
        <ele>205.2</ele>
        <time>2022-03-09T15:47:18Z</time>
      </trkpt>
      <trkpt lat="46.78096" lon="5.44667">
        <ele>205</ele>
        <time>2022-03-09T15:47:19Z</time>
      </trkpt>
      <trkpt lat="46.78087" lon="5.44666">
        <ele>205</ele>
        <time>2022-03-09T15:47:20Z</time>
      </trkpt>
      <trkpt lat="46.78079" lon="5.44665">
        <ele>205</ele>
        <time>2022-03-09T15:47:21Z</time>
      </trkpt>
      <trkpt lat="46.7807" lon="5.44665">
        <ele>205</ele>
        <time>2022-03-09T15:47:22Z</time>
      </trkpt>
      <trkpt lat="46.78062" lon="5.44664">
        <ele>205</ele>
        <time>2022-03-09T15:47:23Z</time>
      </trkpt>
      <trkpt lat="46.78054" lon="5.44664">
        <ele>205</ele>
        <time>2022-03-09T15:47:24Z</time>
      </trkpt>
      <trkpt lat="46.78046" lon="5.44663">
        <ele>205.4</ele>
        <time>2022-03-09T15:47:25Z</time>
      </trkpt>
      <trkpt lat="46.78038" lon="5.44662">
        <ele>205.4</ele>
        <time>2022-03-09T15:47:26Z</time>
      </trkpt>
      <trkpt lat="46.7803" lon="5.4466">
        <ele>205.4</ele>
        <time>2022-03-09T15:47:27Z</time>
      </trkpt>
      <trkpt lat="46.78016" lon="5.44657">
        <ele>205.6</ele>
        <time>2022-03-09T15:47:28Z</time>
      </trkpt>
      <trkpt lat="46.78008" lon="5.44655">
        <ele>205.6</ele>
        <time>2022-03-09T15:47:29Z</time>
      </trkpt>
      <trkpt lat="46.78002" lon="5.44652">
        <ele>205.8</ele>
        <time>2022-03-09T15:47:30Z</time>
      </trkpt>
      <trkpt lat="46.77995" lon="5.4465">
        <ele>205.8</ele>
        <time>2022-03-09T15:47:31Z</time>
      </trkpt>
      <trkpt lat="46.77988" lon="5.44647">
        <ele>205.8</ele>
        <time>2022-03-09T15:47:32Z</time>
      </trkpt>
      <trkpt lat="46.77981" lon="5.44644">
        <ele>206.2</ele>
        <time>2022-03-09T15:47:33Z</time>
      </trkpt>
      <trkpt lat="46.77975" lon="5.4464">
        <ele>206.2</ele>
        <time>2022-03-09T15:47:34Z</time>
      </trkpt>
      <trkpt lat="46.77968" lon="5.44637">
        <ele>206.4</ele>
        <time>2022-03-09T15:47:35Z</time>
      </trkpt>
      <trkpt lat="46.77962" lon="5.44633">
        <ele>206.4</ele>
        <time>2022-03-09T15:47:36Z</time>
      </trkpt>
      <trkpt lat="46.77956" lon="5.44629">
        <ele>206.6</ele>
        <time>2022-03-09T15:47:37Z</time>
      </trkpt>
      <trkpt lat="46.7795" lon="5.44625">
        <ele>206.6</ele>
        <time>2022-03-09T15:47:38Z</time>
      </trkpt>
      <trkpt lat="46.77943" lon="5.44621">
        <ele>206.6</ele>
        <time>2022-03-09T15:47:39Z</time>
      </trkpt>
      <trkpt lat="46.77937" lon="5.44616">
        <ele>207</ele>
        <time>2022-03-09T15:47:40Z</time>
      </trkpt>
      <trkpt lat="46.77931" lon="5.44612">
        <ele>207</ele>
        <time>2022-03-09T15:47:41Z</time>
      </trkpt>
      <trkpt lat="46.77925" lon="5.44607">
        <ele>207</ele>
        <time>2022-03-09T15:47:42Z</time>
      </trkpt>
      <trkpt lat="46.77918" lon="5.44603">
        <ele>207.2</ele>
        <time>2022-03-09T15:47:43Z</time>
      </trkpt>
      <trkpt lat="46.77912" lon="5.44599">
        <ele>207.2</ele>
        <time>2022-03-09T15:47:44Z</time>
      </trkpt>
      <trkpt lat="46.77906" lon="5.44594">
        <ele>207.2</ele>
        <time>2022-03-09T15:47:45Z</time>
      </trkpt>
      <trkpt lat="46.779" lon="5.4459">
        <ele>207.4</ele>
        <time>2022-03-09T15:47:46Z</time>
      </trkpt>
      <trkpt lat="46.77893" lon="5.44586">
        <ele>207.4</ele>
        <time>2022-03-09T15:47:47Z</time>
      </trkpt>
      <trkpt lat="46.77887" lon="5.44581">
        <ele>207.4</ele>
        <time>2022-03-09T15:47:48Z</time>
      </trkpt>
      <trkpt lat="46.77881" lon="5.44576">
        <ele>207.4</ele>
        <time>2022-03-09T15:47:49Z</time>
      </trkpt>
      <trkpt lat="46.77875" lon="5.44572">
        <ele>207.4</ele>
        <time>2022-03-09T15:47:50Z</time>
      </trkpt>
      <trkpt lat="46.77868" lon="5.44567">
        <ele>207.4</ele>
        <time>2022-03-09T15:47:51Z</time>
      </trkpt>
      <trkpt lat="46.77862" lon="5.44563">
        <ele>207.4</ele>
        <time>2022-03-09T15:47:52Z</time>
      </trkpt>
      <trkpt lat="46.77856" lon="5.44558">
        <ele>207.4</ele>
        <time>2022-03-09T15:47:53Z</time>
      </trkpt>
      <trkpt lat="46.7785" lon="5.44554">
        <ele>207.4</ele>
        <time>2022-03-09T15:47:54Z</time>
      </trkpt>
      <trkpt lat="46.77843" lon="5.4455">
        <ele>207.4</ele>
        <time>2022-03-09T15:47:55Z</time>
      </trkpt>
      <trkpt lat="46.77837" lon="5.44545">
        <ele>207.4</ele>
        <time>2022-03-09T15:47:56Z</time>
      </trkpt>
      <trkpt lat="46.77831" lon="5.44541">
        <ele>207.4</ele>
        <time>2022-03-09T15:47:57Z</time>
      </trkpt>
      <trkpt lat="46.77825" lon="5.44537">
        <ele>207.4</ele>
        <time>2022-03-09T15:47:58Z</time>
      </trkpt>
      <trkpt lat="46.77819" lon="5.44532">
        <ele>207.4</ele>
        <time>2022-03-09T15:47:59Z</time>
      </trkpt>
      <trkpt lat="46.77812" lon="5.44528">
        <ele>207.2</ele>
        <time>2022-03-09T15:48:00Z</time>
      </trkpt>
      <trkpt lat="46.77806" lon="5.44523">
        <ele>207.2</ele>
        <time>2022-03-09T15:48:01Z</time>
      </trkpt>
      <trkpt lat="46.778" lon="5.44519">
        <ele>207.2</ele>
        <time>2022-03-09T15:48:02Z</time>
      </trkpt>
      <trkpt lat="46.77794" lon="5.44515">
        <ele>207.2</ele>
        <time>2022-03-09T15:48:03Z</time>
      </trkpt>
      <trkpt lat="46.77788" lon="5.44511">
        <ele>207.2</ele>
        <time>2022-03-09T15:48:04Z</time>
      </trkpt>
      <trkpt lat="46.77782" lon="5.44506">
        <ele>207.2</ele>
        <time>2022-03-09T15:48:05Z</time>
      </trkpt>
      <trkpt lat="46.77776" lon="5.44502">
        <ele>207.2</ele>
        <time>2022-03-09T15:48:06Z</time>
      </trkpt>
      <trkpt lat="46.7777" lon="5.44497">
        <ele>207.2</ele>
        <time>2022-03-09T15:48:07Z</time>
      </trkpt>
      <trkpt lat="46.77764" lon="5.44493">
        <ele>207.2</ele>
        <time>2022-03-09T15:48:08Z</time>
      </trkpt>
      <trkpt lat="46.77758" lon="5.44489">
        <ele>207.4</ele>
        <time>2022-03-09T15:48:09Z</time>
      </trkpt>
      <trkpt lat="46.77753" lon="5.44485">
        <ele>207.4</ele>
        <time>2022-03-09T15:48:10Z</time>
      </trkpt>
      <trkpt lat="46.77747" lon="5.44481">
        <ele>207.4</ele>
        <time>2022-03-09T15:48:11Z</time>
      </trkpt>
      <trkpt lat="46.77741" lon="5.44477">
        <ele>207.8</ele>
        <time>2022-03-09T15:48:12Z</time>
      </trkpt>
      <trkpt lat="46.77736" lon="5.44473">
        <ele>207.8</ele>
        <time>2022-03-09T15:48:13Z</time>
      </trkpt>
      <trkpt lat="46.7773" lon="5.44469">
        <ele>207.8</ele>
        <time>2022-03-09T15:48:14Z</time>
      </trkpt>
      <trkpt lat="46.77724" lon="5.44465">
        <ele>207.8</ele>
        <time>2022-03-09T15:48:15Z</time>
      </trkpt>
      <trkpt lat="46.77718" lon="5.44461">
        <ele>207.8</ele>
        <time>2022-03-09T15:48:16Z</time>
      </trkpt>
      <trkpt lat="46.77712" lon="5.44456">
        <ele>207.8</ele>
        <time>2022-03-09T15:48:17Z</time>
      </trkpt>
      <trkpt lat="46.77705" lon="5.44451">
        <ele>207.6</ele>
        <time>2022-03-09T15:48:18Z</time>
      </trkpt>
      <trkpt lat="46.77699" lon="5.44447">
        <ele>207.6</ele>
        <time>2022-03-09T15:48:19Z</time>
      </trkpt>
      <trkpt lat="46.77692" lon="5.44442">
        <ele>207.4</ele>
        <time>2022-03-09T15:48:20Z</time>
      </trkpt>
      <trkpt lat="46.77685" lon="5.44437">
        <ele>207.4</ele>
        <time>2022-03-09T15:48:21Z</time>
      </trkpt>
      <trkpt lat="46.77678" lon="5.44432">
        <ele>207</ele>
        <time>2022-03-09T15:48:22Z</time>
      </trkpt>
      <trkpt lat="46.77671" lon="5.44427">
        <ele>207</ele>
        <time>2022-03-09T15:48:23Z</time>
      </trkpt>
      <trkpt lat="46.77664" lon="5.44422">
        <ele>206.6</ele>
        <time>2022-03-09T15:48:24Z</time>
      </trkpt>
      <trkpt lat="46.77657" lon="5.44417">
        <ele>206.6</ele>
        <time>2022-03-09T15:48:25Z</time>
      </trkpt>
      <trkpt lat="46.7765" lon="5.44412">
        <ele>206.4</ele>
        <time>2022-03-09T15:48:26Z</time>
      </trkpt>
      <trkpt lat="46.77642" lon="5.44406">
        <ele>206.4</ele>
        <time>2022-03-09T15:48:27Z</time>
      </trkpt>
      <trkpt lat="46.77635" lon="5.44401">
        <ele>206</ele>
        <time>2022-03-09T15:48:28Z</time>
      </trkpt>
      <trkpt lat="46.77627" lon="5.44396">
        <ele>205.6</ele>
        <time>2022-03-09T15:48:29Z</time>
      </trkpt>
      <trkpt lat="46.77619" lon="5.4439">
        <ele>205.6</ele>
        <time>2022-03-09T15:48:30Z</time>
      </trkpt>
      <trkpt lat="46.77611" lon="5.44385">
        <ele>205.2</ele>
        <time>2022-03-09T15:48:31Z</time>
      </trkpt>
      <trkpt lat="46.77604" lon="5.44381">
        <ele>205.2</ele>
        <time>2022-03-09T15:48:32Z</time>
      </trkpt>
      <trkpt lat="46.77596" lon="5.44376">
        <ele>204.8</ele>
        <time>2022-03-09T15:48:33Z</time>
      </trkpt>
      <trkpt lat="46.77588" lon="5.44372">
        <ele>204.6</ele>
        <time>2022-03-09T15:48:34Z</time>
      </trkpt>
      <trkpt lat="46.7758" lon="5.44368">
        <ele>204.4</ele>
        <time>2022-03-09T15:48:35Z</time>
      </trkpt>
      <trkpt lat="46.77572" lon="5.44364">
        <ele>204.4</ele>
        <time>2022-03-09T15:48:36Z</time>
      </trkpt>
      <trkpt lat="46.77564" lon="5.44361">
        <ele>204.2</ele>
        <time>2022-03-09T15:48:37Z</time>
      </trkpt>
      <trkpt lat="46.77556" lon="5.44357">
        <ele>204.2</ele>
        <time>2022-03-09T15:48:38Z</time>
      </trkpt>
      <trkpt lat="46.77548" lon="5.44354">
        <ele>204.2</ele>
        <time>2022-03-09T15:48:39Z</time>
      </trkpt>
      <trkpt lat="46.7754" lon="5.44352">
        <ele>204.2</ele>
        <time>2022-03-09T15:48:40Z</time>
      </trkpt>
      <trkpt lat="46.77532" lon="5.4435">
        <ele>204.2</ele>
        <time>2022-03-09T15:48:41Z</time>
      </trkpt>
      <trkpt lat="46.77525" lon="5.44348">
        <ele>204.2</ele>
        <time>2022-03-09T15:48:42Z</time>
      </trkpt>
      <trkpt lat="46.77518" lon="5.44346">
        <ele>204.2</ele>
        <time>2022-03-09T15:48:43Z</time>
      </trkpt>
      <trkpt lat="46.77511" lon="5.44345">
        <ele>204.2</ele>
        <time>2022-03-09T15:48:44Z</time>
      </trkpt>
      <trkpt lat="46.77504" lon="5.44344">
        <ele>204.2</ele>
        <time>2022-03-09T15:48:45Z</time>
      </trkpt>
      <trkpt lat="46.77497" lon="5.44343">
        <ele>204.4</ele>
        <time>2022-03-09T15:48:46Z</time>
      </trkpt>
      <trkpt lat="46.7749" lon="5.44342">
        <ele>204.4</ele>
        <time>2022-03-09T15:48:47Z</time>
      </trkpt>
      <trkpt lat="46.77484" lon="5.44341">
        <ele>204.6</ele>
        <time>2022-03-09T15:48:48Z</time>
      </trkpt>
      <trkpt lat="46.77477" lon="5.4434">
        <ele>204.6</ele>
        <time>2022-03-09T15:48:49Z</time>
      </trkpt>
      <trkpt lat="46.77471" lon="5.4434">
        <ele>205</ele>
        <time>2022-03-09T15:48:50Z</time>
      </trkpt>
      <trkpt lat="46.77464" lon="5.4434">
        <ele>205</ele>
        <time>2022-03-09T15:48:51Z</time>
      </trkpt>
      <trkpt lat="46.77458" lon="5.4434">
        <ele>205.2</ele>
        <time>2022-03-09T15:48:52Z</time>
      </trkpt>
      <trkpt lat="46.77451" lon="5.4434">
        <ele>205.2</ele>
        <time>2022-03-09T15:48:53Z</time>
      </trkpt>
      <trkpt lat="46.77445" lon="5.4434">
        <ele>205.6</ele>
        <time>2022-03-09T15:48:54Z</time>
      </trkpt>
      <trkpt lat="46.77438" lon="5.4434">
        <ele>205.6</ele>
        <time>2022-03-09T15:48:55Z</time>
      </trkpt>
      <trkpt lat="46.77432" lon="5.44341">
        <ele>206</ele>
        <time>2022-03-09T15:48:56Z</time>
      </trkpt>
      <trkpt lat="46.77425" lon="5.44341">
        <ele>206.2</ele>
        <time>2022-03-09T15:48:57Z</time>
      </trkpt>
      <trkpt lat="46.77419" lon="5.44342">
        <ele>206.2</ele>
        <time>2022-03-09T15:48:58Z</time>
      </trkpt>
      <trkpt lat="46.77413" lon="5.44342">
        <ele>206.6</ele>
        <time>2022-03-09T15:48:59Z</time>
      </trkpt>
      <trkpt lat="46.77407" lon="5.44343">
        <ele>206.6</ele>
        <time>2022-03-09T15:49:00Z</time>
      </trkpt>
      <trkpt lat="46.774" lon="5.44343">
        <ele>207</ele>
        <time>2022-03-09T15:49:01Z</time>
      </trkpt>
      <trkpt lat="46.77394" lon="5.44343">
        <ele>207</ele>
        <time>2022-03-09T15:49:02Z</time>
      </trkpt>
      <trkpt lat="46.77388" lon="5.44344">
        <ele>207.2</ele>
        <time>2022-03-09T15:49:03Z</time>
      </trkpt>
      <trkpt lat="46.77382" lon="5.44344">
        <ele>207.4</ele>
        <time>2022-03-09T15:49:04Z</time>
      </trkpt>
      <trkpt lat="46.77376" lon="5.44344">
        <ele>207.8</ele>
        <time>2022-03-09T15:49:05Z</time>
      </trkpt>
      <trkpt lat="46.7737" lon="5.44344">
        <ele>207.8</ele>
        <time>2022-03-09T15:49:06Z</time>
      </trkpt>
      <trkpt lat="46.77364" lon="5.44344">
        <ele>208.2</ele>
        <time>2022-03-09T15:49:07Z</time>
      </trkpt>
      <trkpt lat="46.77358" lon="5.44345">
        <ele>208.2</ele>
        <time>2022-03-09T15:49:08Z</time>
      </trkpt>
      <trkpt lat="46.77351" lon="5.44346">
        <ele>208.6</ele>
        <time>2022-03-09T15:49:09Z</time>
      </trkpt>
      <trkpt lat="46.77345" lon="5.44346">
        <ele>208.6</ele>
        <time>2022-03-09T15:49:10Z</time>
      </trkpt>
      <trkpt lat="46.77345" lon="5.44346">
        <ele>208.8</ele>
        <time>2022-03-09T15:49:11Z</time>
      </trkpt>
      <trkpt lat="46.77339" lon="5.44346">
        <ele>208.8</ele>
        <time>2022-03-09T15:49:12Z</time>
      </trkpt>
      <trkpt lat="46.77332" lon="5.44346">
        <ele>209.2</ele>
        <time>2022-03-09T15:49:13Z</time>
      </trkpt>
      <trkpt lat="46.77326" lon="5.44346">
        <ele>209.2</ele>
        <time>2022-03-09T15:49:14Z</time>
      </trkpt>
      <trkpt lat="46.77319" lon="5.44346">
        <ele>209.4</ele>
        <time>2022-03-09T15:49:15Z</time>
      </trkpt>
      <trkpt lat="46.77313" lon="5.44346">
        <ele>209.4</ele>
        <time>2022-03-09T15:49:16Z</time>
      </trkpt>
      <trkpt lat="46.77307" lon="5.44346">
        <ele>209.6</ele>
        <time>2022-03-09T15:49:17Z</time>
      </trkpt>
      <trkpt lat="46.77301" lon="5.44347">
        <ele>209.6</ele>
        <time>2022-03-09T15:49:18Z</time>
      </trkpt>
      <trkpt lat="46.77294" lon="5.44347">
        <ele>209.6</ele>
        <time>2022-03-09T15:49:19Z</time>
      </trkpt>
      <trkpt lat="46.77288" lon="5.44347">
        <ele>210</ele>
        <time>2022-03-09T15:49:20Z</time>
      </trkpt>
      <trkpt lat="46.77282" lon="5.44347">
        <ele>210.2</ele>
        <time>2022-03-09T15:49:21Z</time>
      </trkpt>
      <trkpt lat="46.77276" lon="5.44347">
        <ele>210.2</ele>
        <time>2022-03-09T15:49:22Z</time>
      </trkpt>
      <trkpt lat="46.7727" lon="5.44347">
        <ele>210.4</ele>
        <time>2022-03-09T15:49:23Z</time>
      </trkpt>
      <trkpt lat="46.77264" lon="5.44347">
        <ele>210.4</ele>
        <time>2022-03-09T15:49:24Z</time>
      </trkpt>
      <trkpt lat="46.77258" lon="5.44347">
        <ele>210.8</ele>
        <time>2022-03-09T15:49:25Z</time>
      </trkpt>
      <trkpt lat="46.77252" lon="5.44348">
        <ele>210.8</ele>
        <time>2022-03-09T15:49:26Z</time>
      </trkpt>
      <trkpt lat="46.77246" lon="5.44348">
        <ele>211</ele>
        <time>2022-03-09T15:49:27Z</time>
      </trkpt>
      <trkpt lat="46.7724" lon="5.44348">
        <ele>211</ele>
        <time>2022-03-09T15:49:28Z</time>
      </trkpt>
      <trkpt lat="46.77234" lon="5.44348">
        <ele>211.2</ele>
        <time>2022-03-09T15:49:29Z</time>
      </trkpt>
      <trkpt lat="46.77229" lon="5.44348">
        <ele>211.2</ele>
        <time>2022-03-09T15:49:30Z</time>
      </trkpt>
      <trkpt lat="46.77223" lon="5.44348">
        <ele>211.6</ele>
        <time>2022-03-09T15:49:31Z</time>
      </trkpt>
      <trkpt lat="46.77218" lon="5.44348">
        <ele>211.6</ele>
        <time>2022-03-09T15:49:32Z</time>
      </trkpt>
      <trkpt lat="46.77212" lon="5.44348">
        <ele>212</ele>
        <time>2022-03-09T15:49:33Z</time>
      </trkpt>
      <trkpt lat="46.77206" lon="5.44349">
        <ele>212</ele>
        <time>2022-03-09T15:49:34Z</time>
      </trkpt>
      <trkpt lat="46.77201" lon="5.44349">
        <ele>212.2</ele>
        <time>2022-03-09T15:49:35Z</time>
      </trkpt>
      <trkpt lat="46.77195" lon="5.44349">
        <ele>212.2</ele>
        <time>2022-03-09T15:49:36Z</time>
      </trkpt>
      <trkpt lat="46.77189" lon="5.4435">
        <ele>212.4</ele>
        <time>2022-03-09T15:49:37Z</time>
      </trkpt>
      <trkpt lat="46.77184" lon="5.4435">
        <ele>212.4</ele>
        <time>2022-03-09T15:49:38Z</time>
      </trkpt>
      <trkpt lat="46.77178" lon="5.4435">
        <ele>212.8</ele>
        <time>2022-03-09T15:49:39Z</time>
      </trkpt>
      <trkpt lat="46.77172" lon="5.4435">
        <ele>212.8</ele>
        <time>2022-03-09T15:49:40Z</time>
      </trkpt>
      <trkpt lat="46.77167" lon="5.4435">
        <ele>213</ele>
        <time>2022-03-09T15:49:41Z</time>
      </trkpt>
      <trkpt lat="46.77161" lon="5.4435">
        <ele>213</ele>
        <time>2022-03-09T15:49:42Z</time>
      </trkpt>
      <trkpt lat="46.77155" lon="5.4435">
        <ele>213.2</ele>
        <time>2022-03-09T15:49:43Z</time>
      </trkpt>
      <trkpt lat="46.77149" lon="5.4435">
        <ele>213.2</ele>
        <time>2022-03-09T15:49:44Z</time>
      </trkpt>
      <trkpt lat="46.77143" lon="5.4435">
        <ele>213.2</ele>
        <time>2022-03-09T15:49:45Z</time>
      </trkpt>
      <trkpt lat="46.77137" lon="5.4435">
        <ele>213.2</ele>
        <time>2022-03-09T15:49:46Z</time>
      </trkpt>
      <trkpt lat="46.77131" lon="5.44351">
        <ele>213.2</ele>
        <time>2022-03-09T15:49:47Z</time>
      </trkpt>
      <trkpt lat="46.77125" lon="5.44351">
        <ele>213.2</ele>
        <time>2022-03-09T15:49:48Z</time>
      </trkpt>
      <trkpt lat="46.77118" lon="5.44352">
        <ele>213.2</ele>
        <time>2022-03-09T15:49:49Z</time>
      </trkpt>
      <trkpt lat="46.77112" lon="5.44352">
        <ele>213</ele>
        <time>2022-03-09T15:49:50Z</time>
      </trkpt>
      <trkpt lat="46.77105" lon="5.44353">
        <ele>213</ele>
        <time>2022-03-09T15:49:51Z</time>
      </trkpt>
      <trkpt lat="46.77098" lon="5.44354">
        <ele>212.8</ele>
        <time>2022-03-09T15:49:52Z</time>
      </trkpt>
      <trkpt lat="46.77091" lon="5.44354">
        <ele>212.8</ele>
        <time>2022-03-09T15:49:53Z</time>
      </trkpt>
      <trkpt lat="46.77085" lon="5.44355">
        <ele>212.6</ele>
        <time>2022-03-09T15:49:54Z</time>
      </trkpt>
      <trkpt lat="46.77078" lon="5.44357">
        <ele>212.6</ele>
        <time>2022-03-09T15:49:55Z</time>
      </trkpt>
      <trkpt lat="46.77072" lon="5.44358">
        <ele>212.2</ele>
        <time>2022-03-09T15:49:56Z</time>
      </trkpt>
      <trkpt lat="46.77066" lon="5.4436">
        <ele>212</ele>
        <time>2022-03-09T15:49:57Z</time>
      </trkpt>
      <trkpt lat="46.7706" lon="5.44361">
        <ele>212</ele>
        <time>2022-03-09T15:49:58Z</time>
      </trkpt>
      <trkpt lat="46.77053" lon="5.44363">
        <ele>212</ele>
        <time>2022-03-09T15:49:59Z</time>
      </trkpt>
      <trkpt lat="46.77044" lon="5.44366">
        <ele>212</ele>
        <time>2022-03-09T15:50:00Z</time>
      </trkpt>
      <trkpt lat="46.7704" lon="5.44368">
        <ele>211.8</ele>
        <time>2022-03-09T15:50:01Z</time>
      </trkpt>
      <trkpt lat="46.77034" lon="5.4437">
        <ele>211.8</ele>
        <time>2022-03-09T15:50:02Z</time>
      </trkpt>
      <trkpt lat="46.77027" lon="5.44373">
        <ele>211.8</ele>
        <time>2022-03-09T15:50:03Z</time>
      </trkpt>
      <trkpt lat="46.7702" lon="5.44376">
        <ele>211.6</ele>
        <time>2022-03-09T15:50:04Z</time>
      </trkpt>
      <trkpt lat="46.77013" lon="5.4438">
        <ele>211.6</ele>
        <time>2022-03-09T15:50:05Z</time>
      </trkpt>
      <trkpt lat="46.77006" lon="5.44383">
        <ele>211.6</ele>
        <time>2022-03-09T15:50:06Z</time>
      </trkpt>
      <trkpt lat="46.76999" lon="5.44387">
        <ele>211.2</ele>
        <time>2022-03-09T15:50:07Z</time>
      </trkpt>
      <trkpt lat="46.76992" lon="5.44391">
        <ele>211.2</ele>
        <time>2022-03-09T15:50:08Z</time>
      </trkpt>
      <trkpt lat="46.76984" lon="5.44394">
        <ele>210.8</ele>
        <time>2022-03-09T15:50:09Z</time>
      </trkpt>
      <trkpt lat="46.76977" lon="5.44398">
        <ele>210.8</ele>
        <time>2022-03-09T15:50:10Z</time>
      </trkpt>
      <trkpt lat="46.7697" lon="5.44402">
        <ele>210.6</ele>
        <time>2022-03-09T15:50:11Z</time>
      </trkpt>
      <trkpt lat="46.76962" lon="5.44406">
        <ele>210.6</ele>
        <time>2022-03-09T15:50:12Z</time>
      </trkpt>
      <trkpt lat="46.76955" lon="5.44409">
        <ele>210.2</ele>
        <time>2022-03-09T15:50:13Z</time>
      </trkpt>
      <trkpt lat="46.76947" lon="5.44413">
        <ele>210.2</ele>
        <time>2022-03-09T15:50:14Z</time>
      </trkpt>
      <trkpt lat="46.7694" lon="5.44416">
        <ele>210.2</ele>
        <time>2022-03-09T15:50:15Z</time>
      </trkpt>
      <trkpt lat="46.76932" lon="5.4442">
        <ele>210.2</ele>
        <time>2022-03-09T15:50:16Z</time>
      </trkpt>
      <trkpt lat="46.76925" lon="5.44424">
        <ele>210</ele>
        <time>2022-03-09T15:50:17Z</time>
      </trkpt>
      <trkpt lat="46.76917" lon="5.44428">
        <ele>210</ele>
        <time>2022-03-09T15:50:18Z</time>
      </trkpt>
      <trkpt lat="46.7691" lon="5.44431">
        <ele>210</ele>
        <time>2022-03-09T15:50:19Z</time>
      </trkpt>
      <trkpt lat="46.76902" lon="5.44435">
        <ele>209.8</ele>
        <time>2022-03-09T15:50:20Z</time>
      </trkpt>
      <trkpt lat="46.76895" lon="5.44439">
        <ele>209.8</ele>
        <time>2022-03-09T15:50:21Z</time>
      </trkpt>
      <trkpt lat="46.76888" lon="5.44442">
        <ele>209.8</ele>
        <time>2022-03-09T15:50:22Z</time>
      </trkpt>
      <trkpt lat="46.7688" lon="5.44446">
        <ele>209.8</ele>
        <time>2022-03-09T15:50:23Z</time>
      </trkpt>
      <trkpt lat="46.76873" lon="5.4445">
        <ele>209.8</ele>
        <time>2022-03-09T15:50:24Z</time>
      </trkpt>
      <trkpt lat="46.76866" lon="5.44454">
        <ele>209.8</ele>
        <time>2022-03-09T15:50:25Z</time>
      </trkpt>
      <trkpt lat="46.76859" lon="5.44457">
        <ele>209.8</ele>
        <time>2022-03-09T15:50:26Z</time>
      </trkpt>
      <trkpt lat="46.76852" lon="5.44461">
        <ele>209.8</ele>
        <time>2022-03-09T15:50:27Z</time>
      </trkpt>
      <trkpt lat="46.76845" lon="5.44464">
        <ele>209.8</ele>
        <time>2022-03-09T15:50:28Z</time>
      </trkpt>
      <trkpt lat="46.76838" lon="5.44467">
        <ele>209.8</ele>
        <time>2022-03-09T15:50:29Z</time>
      </trkpt>
      <trkpt lat="46.76831" lon="5.44471">
        <ele>210</ele>
        <time>2022-03-09T15:50:30Z</time>
      </trkpt>
      <trkpt lat="46.76824" lon="5.44474">
        <ele>210</ele>
        <time>2022-03-09T15:50:31Z</time>
      </trkpt>
      <trkpt lat="46.76818" lon="5.44478">
        <ele>210</ele>
        <time>2022-03-09T15:50:32Z</time>
      </trkpt>
      <trkpt lat="46.76811" lon="5.44482">
        <ele>210.4</ele>
        <time>2022-03-09T15:50:33Z</time>
      </trkpt>
      <trkpt lat="46.76805" lon="5.44485">
        <ele>210.4</ele>
        <time>2022-03-09T15:50:34Z</time>
      </trkpt>
      <trkpt lat="46.76799" lon="5.44488">
        <ele>210.6</ele>
        <time>2022-03-09T15:50:35Z</time>
      </trkpt>
      <trkpt lat="46.76792" lon="5.44491">
        <ele>210.6</ele>
        <time>2022-03-09T15:50:36Z</time>
      </trkpt>
      <trkpt lat="46.76786" lon="5.44494">
        <ele>211</ele>
        <time>2022-03-09T15:50:37Z</time>
      </trkpt>
      <trkpt lat="46.7678" lon="5.44497">
        <ele>211.2</ele>
        <time>2022-03-09T15:50:38Z</time>
      </trkpt>
      <trkpt lat="46.76774" lon="5.44501">
        <ele>211.4</ele>
        <time>2022-03-09T15:50:39Z</time>
      </trkpt>
      <trkpt lat="46.76768" lon="5.44503">
        <ele>211.4</ele>
        <time>2022-03-09T15:50:40Z</time>
      </trkpt>
      <trkpt lat="46.76762" lon="5.44506">
        <ele>211.8</ele>
        <time>2022-03-09T15:50:41Z</time>
      </trkpt>
      <trkpt lat="46.76755" lon="5.44509">
        <ele>212</ele>
        <time>2022-03-09T15:50:42Z</time>
      </trkpt>
      <trkpt lat="46.76749" lon="5.44512">
        <ele>212.2</ele>
        <time>2022-03-09T15:50:43Z</time>
      </trkpt>
      <trkpt lat="46.76744" lon="5.44515">
        <ele>212.2</ele>
        <time>2022-03-09T15:50:44Z</time>
      </trkpt>
      <trkpt lat="46.76738" lon="5.44518">
        <ele>212.4</ele>
        <time>2022-03-09T15:50:45Z</time>
      </trkpt>
      <trkpt lat="46.76732" lon="5.44521">
        <ele>212.4</ele>
        <time>2022-03-09T15:50:46Z</time>
      </trkpt>
      <trkpt lat="46.76726" lon="5.44524">
        <ele>212.6</ele>
        <time>2022-03-09T15:50:47Z</time>
      </trkpt>
      <trkpt lat="46.7672" lon="5.44527">
        <ele>212.6</ele>
        <time>2022-03-09T15:50:48Z</time>
      </trkpt>
      <trkpt lat="46.76715" lon="5.4453">
        <ele>212.6</ele>
        <time>2022-03-09T15:50:49Z</time>
      </trkpt>
      <trkpt lat="46.76709" lon="5.44533">
        <ele>213</ele>
        <time>2022-03-09T15:50:50Z</time>
      </trkpt>
      <trkpt lat="46.76703" lon="5.44535">
        <ele>213</ele>
        <time>2022-03-09T15:50:51Z</time>
      </trkpt>
      <trkpt lat="46.76696" lon="5.44538">
        <ele>213</ele>
        <time>2022-03-09T15:50:52Z</time>
      </trkpt>
      <trkpt lat="46.7669" lon="5.44541">
        <ele>213</ele>
        <time>2022-03-09T15:50:53Z</time>
      </trkpt>
      <trkpt lat="46.76683" lon="5.44545">
        <ele>213</ele>
        <time>2022-03-09T15:50:54Z</time>
      </trkpt>
      <trkpt lat="46.76677" lon="5.44548">
        <ele>213</ele>
        <time>2022-03-09T15:50:55Z</time>
      </trkpt>
      <trkpt lat="46.76671" lon="5.44551">
        <ele>213</ele>
        <time>2022-03-09T15:50:56Z</time>
      </trkpt>
      <trkpt lat="46.76664" lon="5.44554">
        <ele>213</ele>
        <time>2022-03-09T15:50:57Z</time>
      </trkpt>
      <trkpt lat="46.76657" lon="5.44558">
        <ele>213</ele>
        <time>2022-03-09T15:50:58Z</time>
      </trkpt>
      <trkpt lat="46.76651" lon="5.44561">
        <ele>213</ele>
        <time>2022-03-09T15:50:59Z</time>
      </trkpt>
      <trkpt lat="46.76644" lon="5.44565">
        <ele>213</ele>
        <time>2022-03-09T15:51:00Z</time>
      </trkpt>
      <trkpt lat="46.76637" lon="5.44568">
        <ele>213</ele>
        <time>2022-03-09T15:51:01Z</time>
      </trkpt>
      <trkpt lat="46.7663" lon="5.44572">
        <ele>213</ele>
        <time>2022-03-09T15:51:02Z</time>
      </trkpt>
      <trkpt lat="46.76623" lon="5.44576">
        <ele>213</ele>
        <time>2022-03-09T15:51:03Z</time>
      </trkpt>
      <trkpt lat="46.76616" lon="5.44579">
        <ele>213</ele>
        <time>2022-03-09T15:51:04Z</time>
      </trkpt>
      <trkpt lat="46.76609" lon="5.44583">
        <ele>213</ele>
        <time>2022-03-09T15:51:05Z</time>
      </trkpt>
      <trkpt lat="46.76602" lon="5.44587">
        <ele>213</ele>
        <time>2022-03-09T15:51:06Z</time>
      </trkpt>
      <trkpt lat="46.76595" lon="5.4459">
        <ele>213</ele>
        <time>2022-03-09T15:51:07Z</time>
      </trkpt>
      <trkpt lat="46.76588" lon="5.44594">
        <ele>213</ele>
        <time>2022-03-09T15:51:08Z</time>
      </trkpt>
      <trkpt lat="46.76581" lon="5.44597">
        <ele>213</ele>
        <time>2022-03-09T15:51:09Z</time>
      </trkpt>
      <trkpt lat="46.76574" lon="5.44601">
        <ele>213</ele>
        <time>2022-03-09T15:51:10Z</time>
      </trkpt>
      <trkpt lat="46.76567" lon="5.44605">
        <ele>213</ele>
        <time>2022-03-09T15:51:11Z</time>
      </trkpt>
      <trkpt lat="46.7656" lon="5.44608">
        <ele>213</ele>
        <time>2022-03-09T15:51:12Z</time>
      </trkpt>
      <trkpt lat="46.76554" lon="5.44612">
        <ele>213.2</ele>
        <time>2022-03-09T15:51:13Z</time>
      </trkpt>
      <trkpt lat="46.76547" lon="5.44616">
        <ele>213.2</ele>
        <time>2022-03-09T15:51:14Z</time>
      </trkpt>
      <trkpt lat="46.76541" lon="5.44621">
        <ele>213.2</ele>
        <time>2022-03-09T15:51:15Z</time>
      </trkpt>
      <trkpt lat="46.76534" lon="5.44626">
        <ele>213.2</ele>
        <time>2022-03-09T15:51:16Z</time>
      </trkpt>
      <trkpt lat="46.76528" lon="5.4463">
        <ele>213.4</ele>
        <time>2022-03-09T15:51:17Z</time>
      </trkpt>
      <trkpt lat="46.76522" lon="5.44636">
        <ele>213.4</ele>
        <time>2022-03-09T15:51:18Z</time>
      </trkpt>
      <trkpt lat="46.76516" lon="5.44641">
        <ele>213.4</ele>
        <time>2022-03-09T15:51:19Z</time>
      </trkpt>
      <trkpt lat="46.76511" lon="5.44648">
        <ele>213.4</ele>
        <time>2022-03-09T15:51:20Z</time>
      </trkpt>
      <trkpt lat="46.76505" lon="5.44654">
        <ele>213.4</ele>
        <time>2022-03-09T15:51:21Z</time>
      </trkpt>
      <trkpt lat="46.765" lon="5.44662">
        <ele>213.4</ele>
        <time>2022-03-09T15:51:22Z</time>
      </trkpt>
      <trkpt lat="46.76494" lon="5.44669">
        <ele>213.4</ele>
        <time>2022-03-09T15:51:23Z</time>
      </trkpt>
      <trkpt lat="46.76489" lon="5.44677">
        <ele>213.4</ele>
        <time>2022-03-09T15:51:24Z</time>
      </trkpt>
      <trkpt lat="46.76483" lon="5.44686">
        <ele>213.4</ele>
        <time>2022-03-09T15:51:25Z</time>
      </trkpt>
      <trkpt lat="46.76483" lon="5.44686">
        <ele>213.4</ele>
        <time>2022-03-09T15:51:26Z</time>
      </trkpt>
      <trkpt lat="46.76478" lon="5.44695">
        <ele>213.2</ele>
        <time>2022-03-09T15:51:27Z</time>
      </trkpt>
      <trkpt lat="46.76473" lon="5.44704">
        <ele>213.2</ele>
        <time>2022-03-09T15:51:28Z</time>
      </trkpt>
      <trkpt lat="46.76468" lon="5.44713">
        <ele>213.2</ele>
        <time>2022-03-09T15:51:29Z</time>
      </trkpt>
      <trkpt lat="46.76463" lon="5.44721">
        <ele>213</ele>
        <time>2022-03-09T15:51:30Z</time>
      </trkpt>
      <trkpt lat="46.76457" lon="5.44728">
        <ele>213</ele>
        <time>2022-03-09T15:51:31Z</time>
      </trkpt>
      <trkpt lat="46.7645" lon="5.44735">
        <ele>212.6</ele>
        <time>2022-03-09T15:51:32Z</time>
      </trkpt>
      <trkpt lat="46.76443" lon="5.4474">
        <ele>212.6</ele>
        <time>2022-03-09T15:51:33Z</time>
      </trkpt>
      <trkpt lat="46.76436" lon="5.44744">
        <ele>212.4</ele>
        <time>2022-03-09T15:51:34Z</time>
      </trkpt>
      <trkpt lat="46.76428" lon="5.44747">
        <ele>212.4</ele>
        <time>2022-03-09T15:51:35Z</time>
      </trkpt>
      <trkpt lat="46.7642" lon="5.44749">
        <ele>212.4</ele>
        <time>2022-03-09T15:51:36Z</time>
      </trkpt>
      <trkpt lat="46.76412" lon="5.4475">
        <ele>212</ele>
        <time>2022-03-09T15:51:37Z</time>
      </trkpt>
      <trkpt lat="46.76404" lon="5.44752">
        <ele>211.8</ele>
        <time>2022-03-09T15:51:38Z</time>
      </trkpt>
      <trkpt lat="46.76396" lon="5.44753">
        <ele>211.4</ele>
        <time>2022-03-09T15:51:39Z</time>
      </trkpt>
      <trkpt lat="46.76388" lon="5.44755">
        <ele>211.2</ele>
        <time>2022-03-09T15:51:40Z</time>
      </trkpt>
      <trkpt lat="46.7638" lon="5.44757">
        <ele>211.2</ele>
        <time>2022-03-09T15:51:41Z</time>
      </trkpt>
      <trkpt lat="46.76372" lon="5.44759">
        <ele>211.2</ele>
        <time>2022-03-09T15:51:42Z</time>
      </trkpt>
      <trkpt lat="46.76364" lon="5.44761">
        <ele>210.8</ele>
        <time>2022-03-09T15:51:43Z</time>
      </trkpt>
      <trkpt lat="46.76356" lon="5.44762">
        <ele>210.6</ele>
        <time>2022-03-09T15:51:44Z</time>
      </trkpt>
      <trkpt lat="46.76348" lon="5.44763">
        <ele>210.4</ele>
        <time>2022-03-09T15:51:45Z</time>
      </trkpt>
      <trkpt lat="46.7634" lon="5.44765">
        <ele>210.2</ele>
        <time>2022-03-09T15:51:46Z</time>
      </trkpt>
      <trkpt lat="46.76331" lon="5.44766">
        <ele>210.2</ele>
        <time>2022-03-09T15:51:47Z</time>
      </trkpt>
      <trkpt lat="46.76323" lon="5.44767">
        <ele>209.8</ele>
        <time>2022-03-09T15:51:48Z</time>
      </trkpt>
      <trkpt lat="46.76315" lon="5.44769">
        <ele>209.8</ele>
        <time>2022-03-09T15:51:49Z</time>
      </trkpt>
      <trkpt lat="46.76307" lon="5.44771">
        <ele>209.4</ele>
        <time>2022-03-09T15:51:50Z</time>
      </trkpt>
      <trkpt lat="46.76298" lon="5.44772">
        <ele>209.2</ele>
        <time>2022-03-09T15:51:51Z</time>
      </trkpt>
      <trkpt lat="46.7629" lon="5.44774">
        <ele>208.8</ele>
        <time>2022-03-09T15:51:52Z</time>
      </trkpt>
      <trkpt lat="46.76281" lon="5.44776">
        <ele>208.6</ele>
        <time>2022-03-09T15:51:53Z</time>
      </trkpt>
      <trkpt lat="46.76263" lon="5.44779">
        <ele>208.4</ele>
        <time>2022-03-09T15:51:54Z</time>
      </trkpt>
      <trkpt lat="46.76255" lon="5.4478">
        <ele>208.2</ele>
        <time>2022-03-09T15:51:55Z</time>
      </trkpt>
      <trkpt lat="46.76246" lon="5.44782">
        <ele>208.2</ele>
        <time>2022-03-09T15:51:56Z</time>
      </trkpt>
      <trkpt lat="46.76237" lon="5.44783">
        <ele>207.8</ele>
        <time>2022-03-09T15:51:57Z</time>
      </trkpt>
      <trkpt lat="46.76229" lon="5.44785">
        <ele>207.6</ele>
        <time>2022-03-09T15:51:58Z</time>
      </trkpt>
      <trkpt lat="46.7622" lon="5.44786">
        <ele>207.6</ele>
        <time>2022-03-09T15:51:59Z</time>
      </trkpt>
      <trkpt lat="46.76212" lon="5.44787">
        <ele>207.4</ele>
        <time>2022-03-09T15:52:00Z</time>
      </trkpt>
      <trkpt lat="46.76204" lon="5.44787">
        <ele>207.4</ele>
        <time>2022-03-09T15:52:01Z</time>
      </trkpt>
      <trkpt lat="46.76195" lon="5.44787">
        <ele>207.4</ele>
        <time>2022-03-09T15:52:02Z</time>
      </trkpt>
      <trkpt lat="46.76188" lon="5.44786">
        <ele>207.4</ele>
        <time>2022-03-09T15:52:03Z</time>
      </trkpt>
      <trkpt lat="46.7618" lon="5.44784">
        <ele>207.4</ele>
        <time>2022-03-09T15:52:04Z</time>
      </trkpt>
      <trkpt lat="46.76172" lon="5.44783">
        <ele>207.4</ele>
        <time>2022-03-09T15:52:05Z</time>
      </trkpt>
      <trkpt lat="46.76165" lon="5.44781">
        <ele>207.4</ele>
        <time>2022-03-09T15:52:06Z</time>
      </trkpt>
      <trkpt lat="46.76157" lon="5.44778">
        <ele>207.4</ele>
        <time>2022-03-09T15:52:07Z</time>
      </trkpt>
      <trkpt lat="46.7615" lon="5.44776">
        <ele>207.4</ele>
        <time>2022-03-09T15:52:08Z</time>
      </trkpt>
      <trkpt lat="46.76143" lon="5.44773">
        <ele>207.4</ele>
        <time>2022-03-09T15:52:09Z</time>
      </trkpt>
      <trkpt lat="46.76136" lon="5.44771">
        <ele>207.4</ele>
        <time>2022-03-09T15:52:10Z</time>
      </trkpt>
      <trkpt lat="46.76128" lon="5.44768">
        <ele>207.4</ele>
        <time>2022-03-09T15:52:11Z</time>
      </trkpt>
      <trkpt lat="46.76121" lon="5.44767">
        <ele>207.4</ele>
        <time>2022-03-09T15:52:12Z</time>
      </trkpt>
      <trkpt lat="46.76113" lon="5.44766">
        <ele>207.4</ele>
        <time>2022-03-09T15:52:13Z</time>
      </trkpt>
      <trkpt lat="46.76106" lon="5.44765">
        <ele>207.4</ele>
        <time>2022-03-09T15:52:14Z</time>
      </trkpt>
      <trkpt lat="46.76094" lon="5.44763">
        <ele>207.4</ele>
        <time>2022-03-09T15:52:15Z</time>
      </trkpt>
      <trkpt lat="46.7609" lon="5.44763">
        <ele>207.4</ele>
        <time>2022-03-09T15:52:16Z</time>
      </trkpt>
      <trkpt lat="46.76082" lon="5.44762">
        <ele>207.4</ele>
        <time>2022-03-09T15:52:17Z</time>
      </trkpt>
      <trkpt lat="46.76075" lon="5.44762">
        <ele>207</ele>
        <time>2022-03-09T15:52:18Z</time>
      </trkpt>
      <trkpt lat="46.76067" lon="5.44762">
        <ele>207</ele>
        <time>2022-03-09T15:52:19Z</time>
      </trkpt>
      <trkpt lat="46.76059" lon="5.44762">
        <ele>206.6</ele>
        <time>2022-03-09T15:52:20Z</time>
      </trkpt>
      <trkpt lat="46.7605" lon="5.44762">
        <ele>206.4</ele>
        <time>2022-03-09T15:52:21Z</time>
      </trkpt>
      <trkpt lat="46.76042" lon="5.44763">
        <ele>206.4</ele>
        <time>2022-03-09T15:52:22Z</time>
      </trkpt>
      <trkpt lat="46.76034" lon="5.44764">
        <ele>206</ele>
        <time>2022-03-09T15:52:23Z</time>
      </trkpt>
      <trkpt lat="46.76026" lon="5.44765">
        <ele>206</ele>
        <time>2022-03-09T15:52:24Z</time>
      </trkpt>
      <trkpt lat="46.76018" lon="5.44769">
        <ele>206</ele>
        <time>2022-03-09T15:52:25Z</time>
      </trkpt>
      <trkpt lat="46.76011" lon="5.44774">
        <ele>205.8</ele>
        <time>2022-03-09T15:52:26Z</time>
      </trkpt>
      <trkpt lat="46.76004" lon="5.44781">
        <ele>205.8</ele>
        <time>2022-03-09T15:52:27Z</time>
      </trkpt>
      <trkpt lat="46.75997" lon="5.44788">
        <ele>205.4</ele>
        <time>2022-03-09T15:52:28Z</time>
      </trkpt>
      <trkpt lat="46.7599" lon="5.44796">
        <ele>205.2</ele>
        <time>2022-03-09T15:52:29Z</time>
      </trkpt>
      <trkpt lat="46.75983" lon="5.44804">
        <ele>205.2</ele>
        <time>2022-03-09T15:52:30Z</time>
      </trkpt>
      <trkpt lat="46.75976" lon="5.44812">
        <ele>204.8</ele>
        <time>2022-03-09T15:52:31Z</time>
      </trkpt>
      <trkpt lat="46.75968" lon="5.44819">
        <ele>204.8</ele>
        <time>2022-03-09T15:52:32Z</time>
      </trkpt>
      <trkpt lat="46.75961" lon="5.44826">
        <ele>204.4</ele>
        <time>2022-03-09T15:52:33Z</time>
      </trkpt>
      <trkpt lat="46.75953" lon="5.44833">
        <ele>204.4</ele>
        <time>2022-03-09T15:52:34Z</time>
      </trkpt>
      <trkpt lat="46.75936" lon="5.44843">
        <ele>204</ele>
        <time>2022-03-09T15:52:35Z</time>
      </trkpt>
      <trkpt lat="46.75927" lon="5.44847">
        <ele>203.8</ele>
        <time>2022-03-09T15:52:36Z</time>
      </trkpt>
      <trkpt lat="46.75917" lon="5.44851">
        <ele>203.4</ele>
        <time>2022-03-09T15:52:37Z</time>
      </trkpt>
      <trkpt lat="46.75909" lon="5.44856">
        <ele>203.2</ele>
        <time>2022-03-09T15:52:38Z</time>
      </trkpt>
      <trkpt lat="46.759" lon="5.4486">
        <ele>202.8</ele>
        <time>2022-03-09T15:52:39Z</time>
      </trkpt>
      <trkpt lat="46.75891" lon="5.44865">
        <ele>202.8</ele>
        <time>2022-03-09T15:52:40Z</time>
      </trkpt>
      <trkpt lat="46.75882" lon="5.44869">
        <ele>202.4</ele>
        <time>2022-03-09T15:52:41Z</time>
      </trkpt>
      <trkpt lat="46.75874" lon="5.44875">
        <ele>202.2</ele>
        <time>2022-03-09T15:52:42Z</time>
      </trkpt>
      <trkpt lat="46.75868" lon="5.44881">
        <ele>202.2</ele>
        <time>2022-03-09T15:52:43Z</time>
      </trkpt>
      <trkpt lat="46.75862" lon="5.44886">
        <ele>201.8</ele>
        <time>2022-03-09T15:52:44Z</time>
      </trkpt>
      <trkpt lat="46.7585" lon="5.44897">
        <ele>201.6</ele>
        <time>2022-03-09T15:52:45Z</time>
      </trkpt>
      <trkpt lat="46.75843" lon="5.44905">
        <ele>201.2</ele>
        <time>2022-03-09T15:52:46Z</time>
      </trkpt>
      <trkpt lat="46.75843" lon="5.44905">
        <ele>201</ele>
        <time>2022-03-09T15:52:47Z</time>
      </trkpt>
      <trkpt lat="46.75835" lon="5.44914">
        <ele>200.6</ele>
        <time>2022-03-09T15:52:48Z</time>
      </trkpt>
      <trkpt lat="46.75824" lon="5.44927">
        <ele>200.2</ele>
        <time>2022-03-09T15:52:49Z</time>
      </trkpt>
      <trkpt lat="46.7582" lon="5.44931">
        <ele>200</ele>
        <time>2022-03-09T15:52:50Z</time>
      </trkpt>
      <trkpt lat="46.75813" lon="5.44939">
        <ele>199.6</ele>
        <time>2022-03-09T15:52:51Z</time>
      </trkpt>
      <trkpt lat="46.75805" lon="5.44948">
        <ele>199.2</ele>
        <time>2022-03-09T15:52:52Z</time>
      </trkpt>
      <trkpt lat="46.75798" lon="5.44956">
        <ele>199</ele>
        <time>2022-03-09T15:52:53Z</time>
      </trkpt>
      <trkpt lat="46.75791" lon="5.44965">
        <ele>198.6</ele>
        <time>2022-03-09T15:52:54Z</time>
      </trkpt>
      <trkpt lat="46.75781" lon="5.44978">
        <ele>198.4</ele>
        <time>2022-03-09T15:52:55Z</time>
      </trkpt>
      <trkpt lat="46.75777" lon="5.44981">
        <ele>198</ele>
        <time>2022-03-09T15:52:56Z</time>
      </trkpt>
      <trkpt lat="46.75767" lon="5.44994">
        <ele>198</ele>
        <time>2022-03-09T15:52:57Z</time>
      </trkpt>
      <trkpt lat="46.75763" lon="5.44998">
        <ele>197.8</ele>
        <time>2022-03-09T15:52:58Z</time>
      </trkpt>
      <trkpt lat="46.75756" lon="5.45006">
        <ele>197.8</ele>
        <time>2022-03-09T15:52:59Z</time>
      </trkpt>
      <trkpt lat="46.75749" lon="5.45014">
        <ele>197.4</ele>
        <time>2022-03-09T15:53:00Z</time>
      </trkpt>
      <trkpt lat="46.75739" lon="5.45026">
        <ele>197.4</ele>
        <time>2022-03-09T15:53:01Z</time>
      </trkpt>
      <trkpt lat="46.75736" lon="5.4503">
        <ele>197</ele>
        <time>2022-03-09T15:53:02Z</time>
      </trkpt>
      <trkpt lat="46.75729" lon="5.45038">
        <ele>197</ele>
        <time>2022-03-09T15:53:03Z</time>
      </trkpt>
      <trkpt lat="46.75723" lon="5.45046">
        <ele>196.8</ele>
        <time>2022-03-09T15:53:04Z</time>
      </trkpt>
      <trkpt lat="46.75716" lon="5.45054">
        <ele>196.8</ele>
        <time>2022-03-09T15:53:05Z</time>
      </trkpt>
      <trkpt lat="46.7571" lon="5.45061">
        <ele>196.8</ele>
        <time>2022-03-09T15:53:06Z</time>
      </trkpt>
      <trkpt lat="46.75703" lon="5.45069">
        <ele>196.6</ele>
        <time>2022-03-09T15:53:07Z</time>
      </trkpt>
      <trkpt lat="46.75697" lon="5.45076">
        <ele>196.6</ele>
        <time>2022-03-09T15:53:08Z</time>
      </trkpt>
      <trkpt lat="46.7569" lon="5.45084">
        <ele>196.6</ele>
        <time>2022-03-09T15:53:09Z</time>
      </trkpt>
      <trkpt lat="46.7568" lon="5.45096">
        <ele>196.4</ele>
        <time>2022-03-09T15:53:10Z</time>
      </trkpt>
      <trkpt lat="46.75677" lon="5.451">
        <ele>196.6</ele>
        <time>2022-03-09T15:53:11Z</time>
      </trkpt>
      <trkpt lat="46.7567" lon="5.45107">
        <ele>196.6</ele>
        <time>2022-03-09T15:53:12Z</time>
      </trkpt>
      <trkpt lat="46.75664" lon="5.45115">
        <ele>196.6</ele>
        <time>2022-03-09T15:53:13Z</time>
      </trkpt>
      <trkpt lat="46.75657" lon="5.45122">
        <ele>196.6</ele>
        <time>2022-03-09T15:53:14Z</time>
      </trkpt>
      <trkpt lat="46.75651" lon="5.4513">
        <ele>196.6</ele>
        <time>2022-03-09T15:53:15Z</time>
      </trkpt>
      <trkpt lat="46.75645" lon="5.45137">
        <ele>197</ele>
        <time>2022-03-09T15:53:16Z</time>
      </trkpt>
      <trkpt lat="46.75639" lon="5.45144">
        <ele>197</ele>
        <time>2022-03-09T15:53:17Z</time>
      </trkpt>
      <trkpt lat="46.75633" lon="5.45151">
        <ele>197</ele>
        <time>2022-03-09T15:53:18Z</time>
      </trkpt>
      <trkpt lat="46.75627" lon="5.45158">
        <ele>197</ele>
        <time>2022-03-09T15:53:19Z</time>
      </trkpt>
      <trkpt lat="46.7562" lon="5.45165">
        <ele>197</ele>
        <time>2022-03-09T15:53:20Z</time>
      </trkpt>
      <trkpt lat="46.75614" lon="5.45172">
        <ele>197</ele>
        <time>2022-03-09T15:53:21Z</time>
      </trkpt>
      <trkpt lat="46.75608" lon="5.45179">
        <ele>197</ele>
        <time>2022-03-09T15:53:22Z</time>
      </trkpt>
      <trkpt lat="46.75602" lon="5.45187">
        <ele>197</ele>
        <time>2022-03-09T15:53:23Z</time>
      </trkpt>
      <trkpt lat="46.75592" lon="5.45198">
        <ele>197</ele>
        <time>2022-03-09T15:53:24Z</time>
      </trkpt>
      <trkpt lat="46.75589" lon="5.45202">
        <ele>197</ele>
        <time>2022-03-09T15:53:25Z</time>
      </trkpt>
      <trkpt lat="46.75583" lon="5.4521">
        <ele>197</ele>
        <time>2022-03-09T15:53:26Z</time>
      </trkpt>
      <trkpt lat="46.75577" lon="5.45217">
        <ele>197</ele>
        <time>2022-03-09T15:53:27Z</time>
      </trkpt>
      <trkpt lat="46.75571" lon="5.45225">
        <ele>197</ele>
        <time>2022-03-09T15:53:28Z</time>
      </trkpt>
      <trkpt lat="46.75562" lon="5.45237">
        <ele>197</ele>
        <time>2022-03-09T15:53:29Z</time>
      </trkpt>
      <trkpt lat="46.75559" lon="5.45241">
        <ele>197</ele>
        <time>2022-03-09T15:53:30Z</time>
      </trkpt>
      <trkpt lat="46.75553" lon="5.45249">
        <ele>197</ele>
        <time>2022-03-09T15:53:31Z</time>
      </trkpt>
      <trkpt lat="46.75547" lon="5.45257">
        <ele>197</ele>
        <time>2022-03-09T15:53:32Z</time>
      </trkpt>
      <trkpt lat="46.75542" lon="5.45266">
        <ele>196.8</ele>
        <time>2022-03-09T15:53:33Z</time>
      </trkpt>
      <trkpt lat="46.75536" lon="5.45274">
        <ele>196.8</ele>
        <time>2022-03-09T15:53:34Z</time>
      </trkpt>
      <trkpt lat="46.75528" lon="5.45288">
        <ele>196.8</ele>
        <time>2022-03-09T15:53:35Z</time>
      </trkpt>
      <trkpt lat="46.75525" lon="5.45292">
        <ele>196.8</ele>
        <time>2022-03-09T15:53:36Z</time>
      </trkpt>
      <trkpt lat="46.7552" lon="5.45301">
        <ele>196.8</ele>
        <time>2022-03-09T15:53:37Z</time>
      </trkpt>
      <trkpt lat="46.75514" lon="5.4531">
        <ele>196.8</ele>
        <time>2022-03-09T15:53:38Z</time>
      </trkpt>
      <trkpt lat="46.75509" lon="5.45319">
        <ele>196.8</ele>
        <time>2022-03-09T15:53:39Z</time>
      </trkpt>
      <trkpt lat="46.75504" lon="5.45328">
        <ele>196.8</ele>
        <time>2022-03-09T15:53:40Z</time>
      </trkpt>
      <trkpt lat="46.75499" lon="5.45338">
        <ele>196.4</ele>
        <time>2022-03-09T15:53:41Z</time>
      </trkpt>
      <trkpt lat="46.75494" lon="5.45347">
        <ele>196.4</ele>
        <time>2022-03-09T15:53:42Z</time>
      </trkpt>
      <trkpt lat="46.75489" lon="5.45357">
        <ele>196.4</ele>
        <time>2022-03-09T15:53:43Z</time>
      </trkpt>
      <trkpt lat="46.75484" lon="5.45366">
        <ele>196.4</ele>
        <time>2022-03-09T15:53:44Z</time>
      </trkpt>
      <trkpt lat="46.7548" lon="5.45376">
        <ele>196.4</ele>
        <time>2022-03-09T15:53:45Z</time>
      </trkpt>
      <trkpt lat="46.75475" lon="5.45386">
        <ele>196.4</ele>
        <time>2022-03-09T15:53:46Z</time>
      </trkpt>
      <trkpt lat="46.75469" lon="5.454">
        <ele>196.4</ele>
        <time>2022-03-09T15:53:47Z</time>
      </trkpt>
      <trkpt lat="46.75467" lon="5.45405">
        <ele>196.4</ele>
        <time>2022-03-09T15:53:48Z</time>
      </trkpt>
      <trkpt lat="46.75463" lon="5.45415">
        <ele>196.4</ele>
        <time>2022-03-09T15:53:49Z</time>
      </trkpt>
      <trkpt lat="46.75459" lon="5.45425">
        <ele>196.4</ele>
        <time>2022-03-09T15:53:50Z</time>
      </trkpt>
      <trkpt lat="46.75455" lon="5.45436">
        <ele>196.4</ele>
        <time>2022-03-09T15:53:51Z</time>
      </trkpt>
      <trkpt lat="46.75452" lon="5.45446">
        <ele>196.4</ele>
        <time>2022-03-09T15:53:52Z</time>
      </trkpt>
      <trkpt lat="46.75448" lon="5.45456">
        <ele>196.4</ele>
        <time>2022-03-09T15:53:53Z</time>
      </trkpt>
      <trkpt lat="46.75445" lon="5.45467">
        <ele>196.4</ele>
        <time>2022-03-09T15:53:54Z</time>
      </trkpt>
      <trkpt lat="46.7544" lon="5.45483">
        <ele>196.4</ele>
        <time>2022-03-09T15:53:55Z</time>
      </trkpt>
      <trkpt lat="46.75439" lon="5.45488">
        <ele>196.4</ele>
        <time>2022-03-09T15:53:56Z</time>
      </trkpt>
      <trkpt lat="46.75435" lon="5.45499">
        <ele>196.4</ele>
        <time>2022-03-09T15:53:57Z</time>
      </trkpt>
      <trkpt lat="46.75432" lon="5.45509">
        <ele>196.4</ele>
        <time>2022-03-09T15:53:58Z</time>
      </trkpt>
      <trkpt lat="46.75429" lon="5.4552">
        <ele>196.4</ele>
        <time>2022-03-09T15:53:59Z</time>
      </trkpt>
      <trkpt lat="46.75425" lon="5.4553">
        <ele>196.4</ele>
        <time>2022-03-09T15:54:00Z</time>
      </trkpt>
      <trkpt lat="46.75422" lon="5.45541">
        <ele>196.4</ele>
        <time>2022-03-09T15:54:01Z</time>
      </trkpt>
      <trkpt lat="46.75419" lon="5.45552">
        <ele>196.4</ele>
        <time>2022-03-09T15:54:02Z</time>
      </trkpt>
      <trkpt lat="46.75416" lon="5.45562">
        <ele>196.4</ele>
        <time>2022-03-09T15:54:03Z</time>
      </trkpt>
      <trkpt lat="46.75413" lon="5.45573">
        <ele>196.4</ele>
        <time>2022-03-09T15:54:04Z</time>
      </trkpt>
      <trkpt lat="46.75409" lon="5.45583">
        <ele>196.4</ele>
        <time>2022-03-09T15:54:05Z</time>
      </trkpt>
      <trkpt lat="46.75406" lon="5.45594">
        <ele>196.4</ele>
        <time>2022-03-09T15:54:06Z</time>
      </trkpt>
      <trkpt lat="46.75403" lon="5.45605">
        <ele>196.4</ele>
        <time>2022-03-09T15:54:07Z</time>
      </trkpt>
      <trkpt lat="46.75399" lon="5.45615">
        <ele>196.4</ele>
        <time>2022-03-09T15:54:08Z</time>
      </trkpt>
      <trkpt lat="46.75396" lon="5.45626">
        <ele>196.4</ele>
        <time>2022-03-09T15:54:09Z</time>
      </trkpt>
      <trkpt lat="46.75393" lon="5.45636">
        <ele>196.8</ele>
        <time>2022-03-09T15:54:10Z</time>
      </trkpt>
      <trkpt lat="46.7539" lon="5.45647">
        <ele>196.8</ele>
        <time>2022-03-09T15:54:11Z</time>
      </trkpt>
      <trkpt lat="46.75387" lon="5.45657">
        <ele>196.8</ele>
        <time>2022-03-09T15:54:12Z</time>
      </trkpt>
      <trkpt lat="46.75382" lon="5.45672">
        <ele>196.8</ele>
        <time>2022-03-09T15:54:13Z</time>
      </trkpt>
      <trkpt lat="46.7538" lon="5.45678">
        <ele>196.8</ele>
        <time>2022-03-09T15:54:14Z</time>
      </trkpt>
      <trkpt lat="46.75376" lon="5.45688">
        <ele>196.8</ele>
        <time>2022-03-09T15:54:15Z</time>
      </trkpt>
      <trkpt lat="46.75371" lon="5.45697">
        <ele>197</ele>
        <time>2022-03-09T15:54:16Z</time>
      </trkpt>
      <trkpt lat="46.75366" lon="5.45706">
        <ele>197</ele>
        <time>2022-03-09T15:54:17Z</time>
      </trkpt>
      <trkpt lat="46.7536" lon="5.45714">
        <ele>197</ele>
        <time>2022-03-09T15:54:18Z</time>
      </trkpt>
      <trkpt lat="46.75353" lon="5.45721">
        <ele>197</ele>
        <time>2022-03-09T15:54:19Z</time>
      </trkpt>
      <trkpt lat="46.75346" lon="5.45726">
        <ele>197</ele>
        <time>2022-03-09T15:54:20Z</time>
      </trkpt>
      <trkpt lat="46.75339" lon="5.4573">
        <ele>197</ele>
        <time>2022-03-09T15:54:21Z</time>
      </trkpt>
      <trkpt lat="46.75331" lon="5.45732">
        <ele>197</ele>
        <time>2022-03-09T15:54:22Z</time>
      </trkpt>
      <trkpt lat="46.7532" lon="5.45733">
        <ele>197</ele>
        <time>2022-03-09T15:54:23Z</time>
      </trkpt>
      <trkpt lat="46.75316" lon="5.45733">
        <ele>197</ele>
        <time>2022-03-09T15:54:24Z</time>
      </trkpt>
      <trkpt lat="46.75308" lon="5.45732">
        <ele>197.2</ele>
        <time>2022-03-09T15:54:25Z</time>
      </trkpt>
      <trkpt lat="46.75297" lon="5.45731">
        <ele>197.2</ele>
        <time>2022-03-09T15:54:26Z</time>
      </trkpt>
      <trkpt lat="46.75293" lon="5.4573">
        <ele>197.2</ele>
        <time>2022-03-09T15:54:27Z</time>
      </trkpt>
      <trkpt lat="46.75286" lon="5.45729">
        <ele>197.2</ele>
        <time>2022-03-09T15:54:28Z</time>
      </trkpt>
      <trkpt lat="46.75279" lon="5.45727">
        <ele>197.2</ele>
        <time>2022-03-09T15:54:29Z</time>
      </trkpt>
      <trkpt lat="46.75271" lon="5.45725">
        <ele>197.2</ele>
        <time>2022-03-09T15:54:30Z</time>
      </trkpt>
      <trkpt lat="46.75264" lon="5.45724">
        <ele>197.2</ele>
        <time>2022-03-09T15:54:31Z</time>
      </trkpt>
      <trkpt lat="46.75256" lon="5.45721">
        <ele>197.2</ele>
        <time>2022-03-09T15:54:32Z</time>
      </trkpt>
      <trkpt lat="46.75248" lon="5.45719">
        <ele>197.2</ele>
        <time>2022-03-09T15:54:33Z</time>
      </trkpt>
      <trkpt lat="46.75241" lon="5.45717">
        <ele>197.2</ele>
        <time>2022-03-09T15:54:34Z</time>
      </trkpt>
      <trkpt lat="46.75233" lon="5.45715">
        <ele>197.2</ele>
        <time>2022-03-09T15:54:35Z</time>
      </trkpt>
      <trkpt lat="46.75222" lon="5.45712">
        <ele>197</ele>
        <time>2022-03-09T15:54:36Z</time>
      </trkpt>
      <trkpt lat="46.75218" lon="5.45711">
        <ele>197</ele>
        <time>2022-03-09T15:54:37Z</time>
      </trkpt>
      <trkpt lat="46.7521" lon="5.4571">
        <ele>196.8</ele>
        <time>2022-03-09T15:54:38Z</time>
      </trkpt>
      <trkpt lat="46.75203" lon="5.45708">
        <ele>196.8</ele>
        <time>2022-03-09T15:54:39Z</time>
      </trkpt>
      <trkpt lat="46.75195" lon="5.45706">
        <ele>196.8</ele>
        <time>2022-03-09T15:54:40Z</time>
      </trkpt>
      <trkpt lat="46.75188" lon="5.45704">
        <ele>196.4</ele>
        <time>2022-03-09T15:54:41Z</time>
      </trkpt>
      <trkpt lat="46.7518" lon="5.45702">
        <ele>196.4</ele>
        <time>2022-03-09T15:54:42Z</time>
      </trkpt>
      <trkpt lat="46.75173" lon="5.457">
        <ele>196.4</ele>
        <time>2022-03-09T15:54:43Z</time>
      </trkpt>
      <trkpt lat="46.75166" lon="5.45698">
        <ele>196.4</ele>
        <time>2022-03-09T15:54:44Z</time>
      </trkpt>
      <trkpt lat="46.75158" lon="5.45696">
        <ele>196.4</ele>
        <time>2022-03-09T15:54:45Z</time>
      </trkpt>
      <trkpt lat="46.75151" lon="5.45695">
        <ele>196.4</ele>
        <time>2022-03-09T15:54:46Z</time>
      </trkpt>
      <trkpt lat="46.75144" lon="5.45692">
        <ele>196.4</ele>
        <time>2022-03-09T15:54:47Z</time>
      </trkpt>
      <trkpt lat="46.75137" lon="5.4569">
        <ele>196.2</ele>
        <time>2022-03-09T15:54:48Z</time>
      </trkpt>
      <trkpt lat="46.7513" lon="5.45688">
        <ele>196.2</ele>
        <time>2022-03-09T15:54:49Z</time>
      </trkpt>
      <trkpt lat="46.75122" lon="5.45686">
        <ele>196.2</ele>
        <time>2022-03-09T15:54:50Z</time>
      </trkpt>
      <trkpt lat="46.75112" lon="5.45683">
        <ele>196.2</ele>
        <time>2022-03-09T15:54:51Z</time>
      </trkpt>
      <trkpt lat="46.75108" lon="5.45683">
        <ele>196.2</ele>
        <time>2022-03-09T15:54:52Z</time>
      </trkpt>
      <trkpt lat="46.75098" lon="5.4568">
        <ele>196.2</ele>
        <time>2022-03-09T15:54:53Z</time>
      </trkpt>
      <trkpt lat="46.75094" lon="5.45679">
        <ele>196.2</ele>
        <time>2022-03-09T15:54:54Z</time>
      </trkpt>
      <trkpt lat="46.75087" lon="5.45677">
        <ele>196.2</ele>
        <time>2022-03-09T15:54:55Z</time>
      </trkpt>
      <trkpt lat="46.75077" lon="5.45674">
        <ele>196</ele>
        <time>2022-03-09T15:54:56Z</time>
      </trkpt>
      <trkpt lat="46.75074" lon="5.45673">
        <ele>196</ele>
        <time>2022-03-09T15:54:57Z</time>
      </trkpt>
      <trkpt lat="46.75067" lon="5.45671">
        <ele>196</ele>
        <time>2022-03-09T15:54:58Z</time>
      </trkpt>
      <trkpt lat="46.75057" lon="5.45668">
        <ele>196</ele>
        <time>2022-03-09T15:54:59Z</time>
      </trkpt>
      <trkpt lat="46.75053" lon="5.45667">
        <ele>196</ele>
        <time>2022-03-09T15:55:00Z</time>
      </trkpt>
      <trkpt lat="46.75047" lon="5.45665">
        <ele>196</ele>
        <time>2022-03-09T15:55:01Z</time>
      </trkpt>
      <trkpt lat="46.7504" lon="5.45663">
        <ele>196</ele>
        <time>2022-03-09T15:55:02Z</time>
      </trkpt>
      <trkpt lat="46.75033" lon="5.4566">
        <ele>196</ele>
        <time>2022-03-09T15:55:03Z</time>
      </trkpt>
      <trkpt lat="46.75027" lon="5.45658">
        <ele>195.6</ele>
        <time>2022-03-09T15:55:04Z</time>
      </trkpt>
      <trkpt lat="46.7502" lon="5.45655">
        <ele>195.6</ele>
        <time>2022-03-09T15:55:05Z</time>
      </trkpt>
      <trkpt lat="46.75013" lon="5.45653">
        <ele>195.6</ele>
        <time>2022-03-09T15:55:06Z</time>
      </trkpt>
      <trkpt lat="46.75006" lon="5.45651">
        <ele>195.6</ele>
        <time>2022-03-09T15:55:07Z</time>
      </trkpt>
      <trkpt lat="46.75" lon="5.45648">
        <ele>195.6</ele>
        <time>2022-03-09T15:55:08Z</time>
      </trkpt>
      <trkpt lat="46.74993" lon="5.45646">
        <ele>195.6</ele>
        <time>2022-03-09T15:55:09Z</time>
      </trkpt>
      <trkpt lat="46.74986" lon="5.45643">
        <ele>195.4</ele>
        <time>2022-03-09T15:55:10Z</time>
      </trkpt>
      <trkpt lat="46.7498" lon="5.45641">
        <ele>195.4</ele>
        <time>2022-03-09T15:55:11Z</time>
      </trkpt>
      <trkpt lat="46.74973" lon="5.45639">
        <ele>195.4</ele>
        <time>2022-03-09T15:55:12Z</time>
      </trkpt>
      <trkpt lat="46.74966" lon="5.45637">
        <ele>195.4</ele>
        <time>2022-03-09T15:55:13Z</time>
      </trkpt>
      <trkpt lat="46.74956" lon="5.45633">
        <ele>195.4</ele>
        <time>2022-03-09T15:55:14Z</time>
      </trkpt>
      <trkpt lat="46.74952" lon="5.45632">
        <ele>195.4</ele>
        <time>2022-03-09T15:55:15Z</time>
      </trkpt>
      <trkpt lat="46.74946" lon="5.45629">
        <ele>195.4</ele>
        <time>2022-03-09T15:55:16Z</time>
      </trkpt>
      <trkpt lat="46.74939" lon="5.45627">
        <ele>195.4</ele>
        <time>2022-03-09T15:55:17Z</time>
      </trkpt>
      <trkpt lat="46.74932" lon="5.45625">
        <ele>195.4</ele>
        <time>2022-03-09T15:55:18Z</time>
      </trkpt>
      <trkpt lat="46.74925" lon="5.45623">
        <ele>195.4</ele>
        <time>2022-03-09T15:55:19Z</time>
      </trkpt>
      <trkpt lat="46.74914" lon="5.45619">
        <ele>195.4</ele>
        <time>2022-03-09T15:55:20Z</time>
      </trkpt>
      <trkpt lat="46.74911" lon="5.45618">
        <ele>195.4</ele>
        <time>2022-03-09T15:55:21Z</time>
      </trkpt>
      <trkpt lat="46.74904" lon="5.45615">
        <ele>195.4</ele>
        <time>2022-03-09T15:55:22Z</time>
      </trkpt>
      <trkpt lat="46.74897" lon="5.45613">
        <ele>195.4</ele>
        <time>2022-03-09T15:55:23Z</time>
      </trkpt>
      <trkpt lat="46.7489" lon="5.4561">
        <ele>195.4</ele>
        <time>2022-03-09T15:55:24Z</time>
      </trkpt>
      <trkpt lat="46.74884" lon="5.45607">
        <ele>195.4</ele>
        <time>2022-03-09T15:55:25Z</time>
      </trkpt>
      <trkpt lat="46.74877" lon="5.45605">
        <ele>195.2</ele>
        <time>2022-03-09T15:55:26Z</time>
      </trkpt>
      <trkpt lat="46.74867" lon="5.45602">
        <ele>195.2</ele>
        <time>2022-03-09T15:55:27Z</time>
      </trkpt>
      <trkpt lat="46.74863" lon="5.45601">
        <ele>195.2</ele>
        <time>2022-03-09T15:55:28Z</time>
      </trkpt>
      <trkpt lat="46.74856" lon="5.45599">
        <ele>195.2</ele>
        <time>2022-03-09T15:55:29Z</time>
      </trkpt>
      <trkpt lat="46.7485" lon="5.45598">
        <ele>195</ele>
        <time>2022-03-09T15:55:30Z</time>
      </trkpt>
      <trkpt lat="46.74843" lon="5.45597">
        <ele>195</ele>
        <time>2022-03-09T15:55:31Z</time>
      </trkpt>
      <trkpt lat="46.74836" lon="5.45596">
        <ele>195</ele>
        <time>2022-03-09T15:55:32Z</time>
      </trkpt>
      <trkpt lat="46.74829" lon="5.45595">
        <ele>195</ele>
        <time>2022-03-09T15:55:33Z</time>
      </trkpt>
      <trkpt lat="46.74822" lon="5.45595">
        <ele>195</ele>
        <time>2022-03-09T15:55:34Z</time>
      </trkpt>
      <trkpt lat="46.74816" lon="5.45595">
        <ele>195</ele>
        <time>2022-03-09T15:55:35Z</time>
      </trkpt>
      <trkpt lat="46.74809" lon="5.45594">
        <ele>195</ele>
        <time>2022-03-09T15:55:36Z</time>
      </trkpt>
      <trkpt lat="46.74802" lon="5.45594">
        <ele>195</ele>
        <time>2022-03-09T15:55:37Z</time>
      </trkpt>
      <trkpt lat="46.74796" lon="5.45594">
        <ele>195.2</ele>
        <time>2022-03-09T15:55:38Z</time>
      </trkpt>
      <trkpt lat="46.74789" lon="5.45594">
        <ele>195.2</ele>
        <time>2022-03-09T15:55:39Z</time>
      </trkpt>
      <trkpt lat="46.74783" lon="5.45593">
        <ele>195.2</ele>
        <time>2022-03-09T15:55:40Z</time>
      </trkpt>
      <trkpt lat="46.74774" lon="5.45593">
        <ele>195.2</ele>
        <time>2022-03-09T15:55:41Z</time>
      </trkpt>
      <trkpt lat="46.74771" lon="5.45593">
        <ele>195.4</ele>
        <time>2022-03-09T15:55:42Z</time>
      </trkpt>
      <trkpt lat="46.74765" lon="5.45594">
        <ele>195.4</ele>
        <time>2022-03-09T15:55:43Z</time>
      </trkpt>
      <trkpt lat="46.74756" lon="5.45595">
        <ele>195.4</ele>
        <time>2022-03-09T15:55:44Z</time>
      </trkpt>
      <trkpt lat="46.74753" lon="5.45596">
        <ele>195.6</ele>
        <time>2022-03-09T15:55:45Z</time>
      </trkpt>
      <trkpt lat="46.74748" lon="5.45598">
        <ele>195.6</ele>
        <time>2022-03-09T15:55:46Z</time>
      </trkpt>
      <trkpt lat="46.74743" lon="5.456">
        <ele>195.6</ele>
        <time>2022-03-09T15:55:47Z</time>
      </trkpt>
      <trkpt lat="46.74737" lon="5.45603">
        <ele>196</ele>
        <time>2022-03-09T15:55:48Z</time>
      </trkpt>
      <trkpt lat="46.74732" lon="5.45606">
        <ele>196</ele>
        <time>2022-03-09T15:55:49Z</time>
      </trkpt>
      <trkpt lat="46.74727" lon="5.4561">
        <ele>196</ele>
        <time>2022-03-09T15:55:50Z</time>
      </trkpt>
      <trkpt lat="46.74722" lon="5.45614">
        <ele>196</ele>
        <time>2022-03-09T15:55:51Z</time>
      </trkpt>
      <trkpt lat="46.74717" lon="5.45619">
        <ele>196</ele>
        <time>2022-03-09T15:55:52Z</time>
      </trkpt>
      <trkpt lat="46.74712" lon="5.45624">
        <ele>196</ele>
        <time>2022-03-09T15:55:53Z</time>
      </trkpt>
      <trkpt lat="46.74707" lon="5.45629">
        <ele>196</ele>
        <time>2022-03-09T15:55:54Z</time>
      </trkpt>
      <trkpt lat="46.74703" lon="5.45634">
        <ele>196</ele>
        <time>2022-03-09T15:55:55Z</time>
      </trkpt>
      <trkpt lat="46.74698" lon="5.45638">
        <ele>196</ele>
        <time>2022-03-09T15:55:56Z</time>
      </trkpt>
      <trkpt lat="46.74695" lon="5.45641">
        <ele>196</ele>
        <time>2022-03-09T15:55:57Z</time>
      </trkpt>
      <trkpt lat="46.74691" lon="5.45644">
        <ele>196</ele>
        <time>2022-03-09T15:55:58Z</time>
      </trkpt>
      <trkpt lat="46.74688" lon="5.45646">
        <ele>196</ele>
        <time>2022-03-09T15:55:59Z</time>
      </trkpt>
      <trkpt lat="46.74685" lon="5.45647">
        <ele>196</ele>
        <time>2022-03-09T15:56:00Z</time>
      </trkpt>
      <trkpt lat="46.74681" lon="5.45649">
        <ele>196</ele>
        <time>2022-03-09T15:56:01Z</time>
      </trkpt>
      <trkpt lat="46.74677" lon="5.4565">
        <ele>196</ele>
        <time>2022-03-09T15:56:02Z</time>
      </trkpt>
      <trkpt lat="46.74672" lon="5.45652">
        <ele>196</ele>
        <time>2022-03-09T15:56:03Z</time>
      </trkpt>
      <trkpt lat="46.74668" lon="5.45656">
        <ele>196</ele>
        <time>2022-03-09T15:56:04Z</time>
      </trkpt>
      <trkpt lat="46.74664" lon="5.45661">
        <ele>196</ele>
        <time>2022-03-09T15:56:05Z</time>
      </trkpt>
      <trkpt lat="46.74661" lon="5.45668">
        <ele>196</ele>
        <time>2022-03-09T15:56:06Z</time>
      </trkpt>
      <trkpt lat="46.74657" lon="5.45674">
        <ele>196</ele>
        <time>2022-03-09T15:56:07Z</time>
      </trkpt>
      <trkpt lat="46.74653" lon="5.4568">
        <ele>196</ele>
        <time>2022-03-09T15:56:08Z</time>
      </trkpt>
      <trkpt lat="46.74648" lon="5.45684">
        <ele>196</ele>
        <time>2022-03-09T15:56:09Z</time>
      </trkpt>
      <trkpt lat="46.74643" lon="5.45689">
        <ele>196</ele>
        <time>2022-03-09T15:56:10Z</time>
      </trkpt>
      <trkpt lat="46.74637" lon="5.45693">
        <ele>196</ele>
        <time>2022-03-09T15:56:11Z</time>
      </trkpt>
      <trkpt lat="46.74632" lon="5.45698">
        <ele>196</ele>
        <time>2022-03-09T15:56:12Z</time>
      </trkpt>
      <trkpt lat="46.74626" lon="5.45702">
        <ele>195.8</ele>
        <time>2022-03-09T15:56:13Z</time>
      </trkpt>
      <trkpt lat="46.74621" lon="5.45706">
        <ele>195.8</ele>
        <time>2022-03-09T15:56:14Z</time>
      </trkpt>
      <trkpt lat="46.74615" lon="5.4571">
        <ele>195.8</ele>
        <time>2022-03-09T15:56:15Z</time>
      </trkpt>
      <trkpt lat="46.74609" lon="5.45714">
        <ele>195.8</ele>
        <time>2022-03-09T15:56:16Z</time>
      </trkpt>
      <trkpt lat="46.74604" lon="5.45718">
        <ele>195.8</ele>
        <time>2022-03-09T15:56:17Z</time>
      </trkpt>
      <trkpt lat="46.74598" lon="5.45722">
        <ele>195.4</ele>
        <time>2022-03-09T15:56:18Z</time>
      </trkpt>
      <trkpt lat="46.74592" lon="5.45727">
        <ele>195.4</ele>
        <time>2022-03-09T15:56:19Z</time>
      </trkpt>
      <trkpt lat="46.74587" lon="5.45731">
        <ele>195.4</ele>
        <time>2022-03-09T15:56:20Z</time>
      </trkpt>
      <trkpt lat="46.74581" lon="5.45736">
        <ele>195.4</ele>
        <time>2022-03-09T15:56:21Z</time>
      </trkpt>
      <trkpt lat="46.74576" lon="5.4574">
        <ele>195.4</ele>
        <time>2022-03-09T15:56:22Z</time>
      </trkpt>
      <trkpt lat="46.74567" lon="5.45747">
        <ele>195.4</ele>
        <time>2022-03-09T15:56:23Z</time>
      </trkpt>
      <trkpt lat="46.74564" lon="5.45749">
        <ele>195.4</ele>
        <time>2022-03-09T15:56:24Z</time>
      </trkpt>
      <trkpt lat="46.74558" lon="5.45753">
        <ele>195.4</ele>
        <time>2022-03-09T15:56:25Z</time>
      </trkpt>
      <trkpt lat="46.74552" lon="5.45758">
        <ele>195.4</ele>
        <time>2022-03-09T15:56:26Z</time>
      </trkpt>
      <trkpt lat="46.74547" lon="5.45763">
        <ele>195.4</ele>
        <time>2022-03-09T15:56:27Z</time>
      </trkpt>
      <trkpt lat="46.74541" lon="5.45768">
        <ele>195.4</ele>
        <time>2022-03-09T15:56:29Z</time>
      </trkpt>
      <trkpt lat="46.74535" lon="5.45773">
        <ele>195.4</ele>
        <time>2022-03-09T15:56:30Z</time>
      </trkpt>
      <trkpt lat="46.74529" lon="5.45779">
        <ele>195.4</ele>
        <time>2022-03-09T15:56:31Z</time>
      </trkpt>
      <trkpt lat="46.74524" lon="5.45783">
        <ele>195.4</ele>
        <time>2022-03-09T15:56:32Z</time>
      </trkpt>
      <trkpt lat="46.74518" lon="5.45789">
        <ele>195.4</ele>
        <time>2022-03-09T15:56:33Z</time>
      </trkpt>
      <trkpt lat="46.74512" lon="5.45794">
        <ele>195.4</ele>
        <time>2022-03-09T15:56:34Z</time>
      </trkpt>
      <trkpt lat="46.74506" lon="5.45799">
        <ele>195.6</ele>
        <time>2022-03-09T15:56:35Z</time>
      </trkpt>
      <trkpt lat="46.745" lon="5.45803">
        <ele>195.6</ele>
        <time>2022-03-09T15:56:36Z</time>
      </trkpt>
      <trkpt lat="46.74495" lon="5.45808">
        <ele>195.6</ele>
        <time>2022-03-09T15:56:37Z</time>
      </trkpt>
      <trkpt lat="46.74489" lon="5.45813">
        <ele>196</ele>
        <time>2022-03-09T15:56:38Z</time>
      </trkpt>
      <trkpt lat="46.74484" lon="5.45818">
        <ele>196</ele>
        <time>2022-03-09T15:56:39Z</time>
      </trkpt>
      <trkpt lat="46.74478" lon="5.45823">
        <ele>196.2</ele>
        <time>2022-03-09T15:56:40Z</time>
      </trkpt>
      <trkpt lat="46.74473" lon="5.45827">
        <ele>196.2</ele>
        <time>2022-03-09T15:56:41Z</time>
      </trkpt>
      <trkpt lat="46.74467" lon="5.45832">
        <ele>196.6</ele>
        <time>2022-03-09T15:56:42Z</time>
      </trkpt>
      <trkpt lat="46.74462" lon="5.45837">
        <ele>196.6</ele>
        <time>2022-03-09T15:56:43Z</time>
      </trkpt>
      <trkpt lat="46.74457" lon="5.45841">
        <ele>196.6</ele>
        <time>2022-03-09T15:56:44Z</time>
      </trkpt>
      <trkpt lat="46.74452" lon="5.45846">
        <ele>196.6</ele>
        <time>2022-03-09T15:56:45Z</time>
      </trkpt>
      <trkpt lat="46.74446" lon="5.4585">
        <ele>196.6</ele>
        <time>2022-03-09T15:56:46Z</time>
      </trkpt>
      <trkpt lat="46.7444" lon="5.45855">
        <ele>196.6</ele>
        <time>2022-03-09T15:56:47Z</time>
      </trkpt>
      <trkpt lat="46.74434" lon="5.4586">
        <ele>196.6</ele>
        <time>2022-03-09T15:56:48Z</time>
      </trkpt>
      <trkpt lat="46.74429" lon="5.45865">
        <ele>196.6</ele>
        <time>2022-03-09T15:56:49Z</time>
      </trkpt>
      <trkpt lat="46.74422" lon="5.45871">
        <ele>196.6</ele>
        <time>2022-03-09T15:56:50Z</time>
      </trkpt>
      <trkpt lat="46.74416" lon="5.45877">
        <ele>196.6</ele>
        <time>2022-03-09T15:56:51Z</time>
      </trkpt>
      <trkpt lat="46.7441" lon="5.45883">
        <ele>196.2</ele>
        <time>2022-03-09T15:56:52Z</time>
      </trkpt>
      <trkpt lat="46.74403" lon="5.45889">
        <ele>196.2</ele>
        <time>2022-03-09T15:56:53Z</time>
      </trkpt>
      <trkpt lat="46.74397" lon="5.45895">
        <ele>196.2</ele>
        <time>2022-03-09T15:56:54Z</time>
      </trkpt>
      <trkpt lat="46.7439" lon="5.45901">
        <ele>196</ele>
        <time>2022-03-09T15:56:55Z</time>
      </trkpt>
      <trkpt lat="46.74384" lon="5.45907">
        <ele>196</ele>
        <time>2022-03-09T15:56:56Z</time>
      </trkpt>
      <trkpt lat="46.74377" lon="5.45913">
        <ele>195.8</ele>
        <time>2022-03-09T15:56:57Z</time>
      </trkpt>
      <trkpt lat="46.74371" lon="5.45919">
        <ele>195.8</ele>
        <time>2022-03-09T15:56:58Z</time>
      </trkpt>
      <trkpt lat="46.74365" lon="5.45925">
        <ele>195.8</ele>
        <time>2022-03-09T15:56:59Z</time>
      </trkpt>
      <trkpt lat="46.74358" lon="5.4593">
        <ele>195.8</ele>
        <time>2022-03-09T15:57:00Z</time>
      </trkpt>
      <trkpt lat="46.74352" lon="5.45936">
        <ele>195.4</ele>
        <time>2022-03-09T15:57:01Z</time>
      </trkpt>
      <trkpt lat="46.74345" lon="5.45942">
        <ele>195.4</ele>
        <time>2022-03-09T15:57:02Z</time>
      </trkpt>
      <trkpt lat="46.74339" lon="5.45947">
        <ele>195.4</ele>
        <time>2022-03-09T15:57:03Z</time>
      </trkpt>
      <trkpt lat="46.74332" lon="5.45952">
        <ele>195.4</ele>
        <time>2022-03-09T15:57:04Z</time>
      </trkpt>
      <trkpt lat="46.74325" lon="5.45957">
        <ele>195.4</ele>
        <time>2022-03-09T15:57:05Z</time>
      </trkpt>
      <trkpt lat="46.74319" lon="5.45962">
        <ele>195.4</ele>
        <time>2022-03-09T15:57:06Z</time>
      </trkpt>
      <trkpt lat="46.74312" lon="5.45967">
        <ele>195.4</ele>
        <time>2022-03-09T15:57:07Z</time>
      </trkpt>
      <trkpt lat="46.74306" lon="5.45972">
        <ele>195.4</ele>
        <time>2022-03-09T15:57:08Z</time>
      </trkpt>
      <trkpt lat="46.74299" lon="5.45976">
        <ele>195.4</ele>
        <time>2022-03-09T15:57:09Z</time>
      </trkpt>
      <trkpt lat="46.74292" lon="5.45981">
        <ele>195.4</ele>
        <time>2022-03-09T15:57:10Z</time>
      </trkpt>
      <trkpt lat="46.74286" lon="5.45985">
        <ele>195.4</ele>
        <time>2022-03-09T15:57:11Z</time>
      </trkpt>
      <trkpt lat="46.74279" lon="5.45989">
        <ele>195.4</ele>
        <time>2022-03-09T15:57:12Z</time>
      </trkpt>
      <trkpt lat="46.74272" lon="5.45993">
        <ele>195.4</ele>
        <time>2022-03-09T15:57:13Z</time>
      </trkpt>
      <trkpt lat="46.74258" lon="5.46001">
        <ele>195.4</ele>
        <time>2022-03-09T15:57:14Z</time>
      </trkpt>
      <trkpt lat="46.74251" lon="5.46004">
        <ele>195.4</ele>
        <time>2022-03-09T15:57:15Z</time>
      </trkpt>
      <trkpt lat="46.74244" lon="5.46008">
        <ele>195.4</ele>
        <time>2022-03-09T15:57:16Z</time>
      </trkpt>
      <trkpt lat="46.74237" lon="5.46011">
        <ele>195.4</ele>
        <time>2022-03-09T15:57:17Z</time>
      </trkpt>
      <trkpt lat="46.74229" lon="5.46014">
        <ele>195.4</ele>
        <time>2022-03-09T15:57:18Z</time>
      </trkpt>
      <trkpt lat="46.74222" lon="5.46017">
        <ele>195.4</ele>
        <time>2022-03-09T15:57:19Z</time>
      </trkpt>
      <trkpt lat="46.74215" lon="5.4602">
        <ele>195.4</ele>
        <time>2022-03-09T15:57:20Z</time>
      </trkpt>
      <trkpt lat="46.74208" lon="5.46022">
        <ele>195.4</ele>
        <time>2022-03-09T15:57:21Z</time>
      </trkpt>
      <trkpt lat="46.742" lon="5.46025">
        <ele>195.4</ele>
        <time>2022-03-09T15:57:22Z</time>
      </trkpt>
      <trkpt lat="46.74193" lon="5.46027">
        <ele>195.4</ele>
        <time>2022-03-09T15:57:23Z</time>
      </trkpt>
      <trkpt lat="46.74186" lon="5.46029">
        <ele>195.4</ele>
        <time>2022-03-09T15:57:24Z</time>
      </trkpt>
      <trkpt lat="46.74179" lon="5.46032">
        <ele>195.6</ele>
        <time>2022-03-09T15:57:25Z</time>
      </trkpt>
      <trkpt lat="46.74171" lon="5.46034">
        <ele>195.6</ele>
        <time>2022-03-09T15:57:26Z</time>
      </trkpt>
      <trkpt lat="46.74164" lon="5.46036">
        <ele>195.6</ele>
        <time>2022-03-09T15:57:27Z</time>
      </trkpt>
      <trkpt lat="46.74157" lon="5.46039">
        <ele>195.6</ele>
        <time>2022-03-09T15:57:28Z</time>
      </trkpt>
      <trkpt lat="46.7415" lon="5.46041">
        <ele>195.6</ele>
        <time>2022-03-09T15:57:29Z</time>
      </trkpt>
      <trkpt lat="46.74142" lon="5.46043">
        <ele>195.6</ele>
        <time>2022-03-09T15:57:30Z</time>
      </trkpt>
      <trkpt lat="46.74135" lon="5.46045">
        <ele>195.6</ele>
        <time>2022-03-09T15:57:31Z</time>
      </trkpt>
      <trkpt lat="46.74128" lon="5.46047">
        <ele>195.6</ele>
        <time>2022-03-09T15:57:32Z</time>
      </trkpt>
      <trkpt lat="46.74121" lon="5.4605">
        <ele>195.6</ele>
        <time>2022-03-09T15:57:33Z</time>
      </trkpt>
      <trkpt lat="46.74114" lon="5.46052">
        <ele>195.6</ele>
        <time>2022-03-09T15:57:34Z</time>
      </trkpt>
      <trkpt lat="46.74106" lon="5.46054">
        <ele>195.6</ele>
        <time>2022-03-09T15:57:35Z</time>
      </trkpt>
      <trkpt lat="46.74099" lon="5.46056">
        <ele>195.6</ele>
        <time>2022-03-09T15:57:36Z</time>
      </trkpt>
      <trkpt lat="46.74092" lon="5.46059">
        <ele>195.6</ele>
        <time>2022-03-09T15:57:37Z</time>
      </trkpt>
      <trkpt lat="46.74085" lon="5.46061">
        <ele>195.6</ele>
        <time>2022-03-09T15:57:38Z</time>
      </trkpt>
      <trkpt lat="46.74077" lon="5.46064">
        <ele>195.6</ele>
        <time>2022-03-09T15:57:39Z</time>
      </trkpt>
      <trkpt lat="46.7407" lon="5.46066">
        <ele>195.6</ele>
        <time>2022-03-09T15:57:40Z</time>
      </trkpt>
      <trkpt lat="46.74063" lon="5.46068">
        <ele>195.6</ele>
        <time>2022-03-09T15:57:41Z</time>
      </trkpt>
      <trkpt lat="46.74055" lon="5.46071">
        <ele>195.6</ele>
        <time>2022-03-09T15:57:42Z</time>
      </trkpt>
      <trkpt lat="46.74041" lon="5.46077">
        <ele>195.6</ele>
        <time>2022-03-09T15:57:43Z</time>
      </trkpt>
      <trkpt lat="46.74034" lon="5.46081">
        <ele>195.6</ele>
        <time>2022-03-09T15:57:44Z</time>
      </trkpt>
      <trkpt lat="46.74027" lon="5.46085">
        <ele>195.6</ele>
        <time>2022-03-09T15:57:45Z</time>
      </trkpt>
      <trkpt lat="46.7402" lon="5.46089">
        <ele>195.6</ele>
        <time>2022-03-09T15:57:46Z</time>
      </trkpt>
      <trkpt lat="46.74013" lon="5.46094">
        <ele>195.6</ele>
        <time>2022-03-09T15:57:47Z</time>
      </trkpt>
      <trkpt lat="46.74006" lon="5.46099">
        <ele>195.6</ele>
        <time>2022-03-09T15:57:48Z</time>
      </trkpt>
      <trkpt lat="46.74" lon="5.46105">
        <ele>195.6</ele>
        <time>2022-03-09T15:57:49Z</time>
      </trkpt>
      <trkpt lat="46.73993" lon="5.46111">
        <ele>195.6</ele>
        <time>2022-03-09T15:57:50Z</time>
      </trkpt>
      <trkpt lat="46.73987" lon="5.46117">
        <ele>195.6</ele>
        <time>2022-03-09T15:57:51Z</time>
      </trkpt>
      <trkpt lat="46.7398" lon="5.46123">
        <ele>195.6</ele>
        <time>2022-03-09T15:57:52Z</time>
      </trkpt>
      <trkpt lat="46.73974" lon="5.4613">
        <ele>195.6</ele>
        <time>2022-03-09T15:57:53Z</time>
      </trkpt>
      <trkpt lat="46.73968" lon="5.46136">
        <ele>195.6</ele>
        <time>2022-03-09T15:57:54Z</time>
      </trkpt>
      <trkpt lat="46.73961" lon="5.46143">
        <ele>195.6</ele>
        <time>2022-03-09T15:57:55Z</time>
      </trkpt>
      <trkpt lat="46.73961" lon="5.46143">
        <ele>195.6</ele>
        <time>2022-03-09T15:57:56Z</time>
      </trkpt>
      <trkpt lat="46.73955" lon="5.46149">
        <ele>195.6</ele>
        <time>2022-03-09T15:57:57Z</time>
      </trkpt>
      <trkpt lat="46.73949" lon="5.46156">
        <ele>195.6</ele>
        <time>2022-03-09T15:57:58Z</time>
      </trkpt>
      <trkpt lat="46.73943" lon="5.46163">
        <ele>195.6</ele>
        <time>2022-03-09T15:57:59Z</time>
      </trkpt>
      <trkpt lat="46.73937" lon="5.46169">
        <ele>195.6</ele>
        <time>2022-03-09T15:58:00Z</time>
      </trkpt>
      <trkpt lat="46.73931" lon="5.46176">
        <ele>195.6</ele>
        <time>2022-03-09T15:58:01Z</time>
      </trkpt>
      <trkpt lat="46.73925" lon="5.46183">
        <ele>195.6</ele>
        <time>2022-03-09T15:58:02Z</time>
      </trkpt>
      <trkpt lat="46.73919" lon="5.4619">
        <ele>195.6</ele>
        <time>2022-03-09T15:58:03Z</time>
      </trkpt>
      <trkpt lat="46.73913" lon="5.46196">
        <ele>195.6</ele>
        <time>2022-03-09T15:58:04Z</time>
      </trkpt>
      <trkpt lat="46.73908" lon="5.46204">
        <ele>195.6</ele>
        <time>2022-03-09T15:58:05Z</time>
      </trkpt>
      <trkpt lat="46.73902" lon="5.46212">
        <ele>195.6</ele>
        <time>2022-03-09T15:58:06Z</time>
      </trkpt>
      <trkpt lat="46.73897" lon="5.46221">
        <ele>196</ele>
        <time>2022-03-09T15:58:07Z</time>
      </trkpt>
      <trkpt lat="46.73892" lon="5.46229">
        <ele>196</ele>
        <time>2022-03-09T15:58:08Z</time>
      </trkpt>
      <trkpt lat="46.73887" lon="5.46238">
        <ele>196</ele>
        <time>2022-03-09T15:58:09Z</time>
      </trkpt>
      <trkpt lat="46.73883" lon="5.46246">
        <ele>196</ele>
        <time>2022-03-09T15:58:10Z</time>
      </trkpt>
      <trkpt lat="46.73878" lon="5.46255">
        <ele>196</ele>
        <time>2022-03-09T15:58:11Z</time>
      </trkpt>
      <trkpt lat="46.73874" lon="5.46264">
        <ele>196</ele>
        <time>2022-03-09T15:58:12Z</time>
      </trkpt>
      <trkpt lat="46.73869" lon="5.46273">
        <ele>196</ele>
        <time>2022-03-09T15:58:13Z</time>
      </trkpt>
      <trkpt lat="46.73865" lon="5.46282">
        <ele>196</ele>
        <time>2022-03-09T15:58:14Z</time>
      </trkpt>
      <trkpt lat="46.7386" lon="5.46291">
        <ele>196</ele>
        <time>2022-03-09T15:58:15Z</time>
      </trkpt>
      <trkpt lat="46.73855" lon="5.46299">
        <ele>196</ele>
        <time>2022-03-09T15:58:16Z</time>
      </trkpt>
      <trkpt lat="46.7385" lon="5.46307">
        <ele>196</ele>
        <time>2022-03-09T15:58:17Z</time>
      </trkpt>
      <trkpt lat="46.73843" lon="5.46313">
        <ele>196</ele>
        <time>2022-03-09T15:58:18Z</time>
      </trkpt>
      <trkpt lat="46.73837" lon="5.46318">
        <ele>196</ele>
        <time>2022-03-09T15:58:19Z</time>
      </trkpt>
      <trkpt lat="46.7383" lon="5.46321">
        <ele>196</ele>
        <time>2022-03-09T15:58:20Z</time>
      </trkpt>
      <trkpt lat="46.73822" lon="5.46324">
        <ele>196</ele>
        <time>2022-03-09T15:58:21Z</time>
      </trkpt>
      <trkpt lat="46.73815" lon="5.46327">
        <ele>196</ele>
        <time>2022-03-09T15:58:22Z</time>
      </trkpt>
      <trkpt lat="46.73807" lon="5.46329">
        <ele>196</ele>
        <time>2022-03-09T15:58:23Z</time>
      </trkpt>
      <trkpt lat="46.738" lon="5.46332">
        <ele>196</ele>
        <time>2022-03-09T15:58:24Z</time>
      </trkpt>
      <trkpt lat="46.73792" lon="5.46334">
        <ele>196</ele>
        <time>2022-03-09T15:58:25Z</time>
      </trkpt>
      <trkpt lat="46.73785" lon="5.46337">
        <ele>196</ele>
        <time>2022-03-09T15:58:26Z</time>
      </trkpt>
      <trkpt lat="46.73777" lon="5.46339">
        <ele>196</ele>
        <time>2022-03-09T15:58:27Z</time>
      </trkpt>
      <trkpt lat="46.7377" lon="5.46342">
        <ele>196</ele>
        <time>2022-03-09T15:58:28Z</time>
      </trkpt>
      <trkpt lat="46.73763" lon="5.46345">
        <ele>196</ele>
        <time>2022-03-09T15:58:29Z</time>
      </trkpt>
      <trkpt lat="46.73757" lon="5.4635">
        <ele>196</ele>
        <time>2022-03-09T15:58:30Z</time>
      </trkpt>
      <trkpt lat="46.73751" lon="5.46356">
        <ele>196</ele>
        <time>2022-03-09T15:58:31Z</time>
      </trkpt>
      <trkpt lat="46.73745" lon="5.46362">
        <ele>196</ele>
        <time>2022-03-09T15:58:32Z</time>
      </trkpt>
      <trkpt lat="46.73739" lon="5.46369">
        <ele>196</ele>
        <time>2022-03-09T15:58:33Z</time>
      </trkpt>
      <trkpt lat="46.73733" lon="5.46376">
        <ele>196</ele>
        <time>2022-03-09T15:58:34Z</time>
      </trkpt>
      <trkpt lat="46.73727" lon="5.46382">
        <ele>196</ele>
        <time>2022-03-09T15:58:35Z</time>
      </trkpt>
      <trkpt lat="46.73722" lon="5.46389">
        <ele>196</ele>
        <time>2022-03-09T15:58:36Z</time>
      </trkpt>
      <trkpt lat="46.73716" lon="5.46395">
        <ele>196.2</ele>
        <time>2022-03-09T15:58:37Z</time>
      </trkpt>
      <trkpt lat="46.73711" lon="5.46402">
        <ele>196.2</ele>
        <time>2022-03-09T15:58:38Z</time>
      </trkpt>
      <trkpt lat="46.73705" lon="5.46409">
        <ele>196.2</ele>
        <time>2022-03-09T15:58:39Z</time>
      </trkpt>
      <trkpt lat="46.737" lon="5.46415">
        <ele>196.2</ele>
        <time>2022-03-09T15:58:40Z</time>
      </trkpt>
      <trkpt lat="46.73695" lon="5.46423">
        <ele>196.2</ele>
        <time>2022-03-09T15:58:41Z</time>
      </trkpt>
      <trkpt lat="46.73691" lon="5.46431">
        <ele>196.2</ele>
        <time>2022-03-09T15:58:42Z</time>
      </trkpt>
      <trkpt lat="46.73686" lon="5.4644">
        <ele>196.2</ele>
        <time>2022-03-09T15:58:43Z</time>
      </trkpt>
      <trkpt lat="46.73679" lon="5.46453">
        <ele>196.2</ele>
        <time>2022-03-09T15:58:44Z</time>
      </trkpt>
      <trkpt lat="46.73677" lon="5.46458">
        <ele>196.2</ele>
        <time>2022-03-09T15:58:45Z</time>
      </trkpt>
      <trkpt lat="46.73674" lon="5.46468">
        <ele>196.2</ele>
        <time>2022-03-09T15:58:46Z</time>
      </trkpt>
      <trkpt lat="46.73672" lon="5.46478">
        <ele>196.2</ele>
        <time>2022-03-09T15:58:47Z</time>
      </trkpt>
      <trkpt lat="46.7367" lon="5.46488">
        <ele>196.2</ele>
        <time>2022-03-09T15:58:48Z</time>
      </trkpt>
      <trkpt lat="46.7367" lon="5.46499">
        <ele>196.6</ele>
        <time>2022-03-09T15:58:49Z</time>
      </trkpt>
      <trkpt lat="46.7367" lon="5.46509">
        <ele>196.6</ele>
        <time>2022-03-09T15:58:50Z</time>
      </trkpt>
      <trkpt lat="46.73671" lon="5.4652">
        <ele>196.6</ele>
        <time>2022-03-09T15:58:51Z</time>
      </trkpt>
      <trkpt lat="46.73673" lon="5.46531">
        <ele>196.6</ele>
        <time>2022-03-09T15:58:52Z</time>
      </trkpt>
      <trkpt lat="46.73675" lon="5.46541">
        <ele>196.6</ele>
        <time>2022-03-09T15:58:53Z</time>
      </trkpt>
      <trkpt lat="46.73677" lon="5.46552">
        <ele>196.6</ele>
        <time>2022-03-09T15:58:54Z</time>
      </trkpt>
      <trkpt lat="46.73679" lon="5.46563">
        <ele>196.6</ele>
        <time>2022-03-09T15:58:55Z</time>
      </trkpt>
      <trkpt lat="46.7368" lon="5.46574">
        <ele>196.8</ele>
        <time>2022-03-09T15:58:56Z</time>
      </trkpt>
      <trkpt lat="46.73682" lon="5.46584">
        <ele>196.8</ele>
        <time>2022-03-09T15:58:57Z</time>
      </trkpt>
      <trkpt lat="46.73683" lon="5.46595">
        <ele>196.8</ele>
        <time>2022-03-09T15:58:58Z</time>
      </trkpt>
      <trkpt lat="46.73685" lon="5.46605">
        <ele>196.8</ele>
        <time>2022-03-09T15:58:59Z</time>
      </trkpt>
      <trkpt lat="46.73686" lon="5.46616">
        <ele>196.8</ele>
        <time>2022-03-09T15:59:00Z</time>
      </trkpt>
      <trkpt lat="46.73686" lon="5.46626">
        <ele>196.8</ele>
        <time>2022-03-09T15:59:01Z</time>
      </trkpt>
      <trkpt lat="46.73687" lon="5.46637">
        <ele>196.8</ele>
        <time>2022-03-09T15:59:02Z</time>
      </trkpt>
      <trkpt lat="46.73687" lon="5.46647">
        <ele>196.8</ele>
        <time>2022-03-09T15:59:03Z</time>
      </trkpt>
      <trkpt lat="46.73687" lon="5.46658">
        <ele>196.8</ele>
        <time>2022-03-09T15:59:04Z</time>
      </trkpt>
      <trkpt lat="46.73688" lon="5.46668">
        <ele>196.8</ele>
        <time>2022-03-09T15:59:05Z</time>
      </trkpt>
      <trkpt lat="46.73688" lon="5.46678">
        <ele>196.8</ele>
        <time>2022-03-09T15:59:06Z</time>
      </trkpt>
      <trkpt lat="46.73688" lon="5.46689">
        <ele>196.8</ele>
        <time>2022-03-09T15:59:07Z</time>
      </trkpt>
      <trkpt lat="46.73688" lon="5.46699">
        <ele>196.8</ele>
        <time>2022-03-09T15:59:08Z</time>
      </trkpt>
      <trkpt lat="46.73688" lon="5.46709">
        <ele>197</ele>
        <time>2022-03-09T15:59:09Z</time>
      </trkpt>
      <trkpt lat="46.73688" lon="5.4672">
        <ele>197</ele>
        <time>2022-03-09T15:59:10Z</time>
      </trkpt>
      <trkpt lat="46.73688" lon="5.46731">
        <ele>197</ele>
        <time>2022-03-09T15:59:11Z</time>
      </trkpt>
      <trkpt lat="46.73688" lon="5.46741">
        <ele>197</ele>
        <time>2022-03-09T15:59:12Z</time>
      </trkpt>
      <trkpt lat="46.73688" lon="5.46752">
        <ele>197</ele>
        <time>2022-03-09T15:59:13Z</time>
      </trkpt>
      <trkpt lat="46.73689" lon="5.46763">
        <ele>197</ele>
        <time>2022-03-09T15:59:14Z</time>
      </trkpt>
      <trkpt lat="46.73689" lon="5.46773">
        <ele>197</ele>
        <time>2022-03-09T15:59:15Z</time>
      </trkpt>
      <trkpt lat="46.73689" lon="5.46784">
        <ele>197</ele>
        <time>2022-03-09T15:59:16Z</time>
      </trkpt>
      <trkpt lat="46.73689" lon="5.46795">
        <ele>197</ele>
        <time>2022-03-09T15:59:17Z</time>
      </trkpt>
      <trkpt lat="46.7369" lon="5.46805">
        <ele>197</ele>
        <time>2022-03-09T15:59:18Z</time>
      </trkpt>
      <trkpt lat="46.7369" lon="5.46816">
        <ele>197</ele>
        <time>2022-03-09T15:59:19Z</time>
      </trkpt>
      <trkpt lat="46.7369" lon="5.46827">
        <ele>197</ele>
        <time>2022-03-09T15:59:20Z</time>
      </trkpt>
      <trkpt lat="46.7369" lon="5.46838">
        <ele>197</ele>
        <time>2022-03-09T15:59:21Z</time>
      </trkpt>
      <trkpt lat="46.73691" lon="5.46848">
        <ele>197.2</ele>
        <time>2022-03-09T15:59:22Z</time>
      </trkpt>
      <trkpt lat="46.73691" lon="5.46858">
        <ele>197.2</ele>
        <time>2022-03-09T15:59:23Z</time>
      </trkpt>
      <trkpt lat="46.73691" lon="5.46868">
        <ele>197.6</ele>
        <time>2022-03-09T15:59:24Z</time>
      </trkpt>
      <trkpt lat="46.73691" lon="5.46878">
        <ele>197.6</ele>
        <time>2022-03-09T15:59:25Z</time>
      </trkpt>
      <trkpt lat="46.73691" lon="5.46887">
        <ele>198</ele>
        <time>2022-03-09T15:59:26Z</time>
      </trkpt>
      <trkpt lat="46.73691" lon="5.46896">
        <ele>198</ele>
        <time>2022-03-09T15:59:27Z</time>
      </trkpt>
      <trkpt lat="46.73691" lon="5.46906">
        <ele>198.4</ele>
        <time>2022-03-09T15:59:28Z</time>
      </trkpt>
      <trkpt lat="46.7369" lon="5.46915">
        <ele>198.4</ele>
        <time>2022-03-09T15:59:29Z</time>
      </trkpt>
      <trkpt lat="46.7369" lon="5.46924">
        <ele>198.6</ele>
        <time>2022-03-09T15:59:30Z</time>
      </trkpt>
      <trkpt lat="46.73688" lon="5.46932">
        <ele>198.6</ele>
        <time>2022-03-09T15:59:31Z</time>
      </trkpt>
      <trkpt lat="46.73685" lon="5.46941">
        <ele>198.6</ele>
        <time>2022-03-09T15:59:32Z</time>
      </trkpt>
      <trkpt lat="46.7368" lon="5.46948">
        <ele>198.6</ele>
        <time>2022-03-09T15:59:33Z</time>
      </trkpt>
      <trkpt lat="46.73675" lon="5.46953">
        <ele>198.6</ele>
        <time>2022-03-09T15:59:34Z</time>
      </trkpt>
      <trkpt lat="46.73668" lon="5.46957">
        <ele>198.6</ele>
        <time>2022-03-09T15:59:35Z</time>
      </trkpt>
      <trkpt lat="46.73661" lon="5.46959">
        <ele>198.6</ele>
        <time>2022-03-09T15:59:36Z</time>
      </trkpt>
      <trkpt lat="46.73653" lon="5.4696">
        <ele>198.6</ele>
        <time>2022-03-09T15:59:37Z</time>
      </trkpt>
      <trkpt lat="46.73646" lon="5.46961">
        <ele>198.4</ele>
        <time>2022-03-09T15:59:38Z</time>
      </trkpt>
      <trkpt lat="46.73638" lon="5.4696">
        <ele>198</ele>
        <time>2022-03-09T15:59:39Z</time>
      </trkpt>
      <trkpt lat="46.73631" lon="5.4696">
        <ele>198.2</ele>
        <time>2022-03-09T15:59:40Z</time>
      </trkpt>
      <trkpt lat="46.73623" lon="5.4696">
        <ele>198.2</ele>
        <time>2022-03-09T15:59:41Z</time>
      </trkpt>
      <trkpt lat="46.73616" lon="5.46959">
        <ele>198.2</ele>
        <time>2022-03-09T15:59:42Z</time>
      </trkpt>
      <trkpt lat="46.73608" lon="5.4696">
        <ele>198.2</ele>
        <time>2022-03-09T15:59:43Z</time>
      </trkpt>
      <trkpt lat="46.73601" lon="5.4696">
        <ele>198.2</ele>
        <time>2022-03-09T15:59:44Z</time>
      </trkpt>
      <trkpt lat="46.73593" lon="5.4696">
        <ele>198.2</ele>
        <time>2022-03-09T15:59:45Z</time>
      </trkpt>
      <trkpt lat="46.73586" lon="5.4696">
        <ele>198.2</ele>
        <time>2022-03-09T15:59:46Z</time>
      </trkpt>
      <trkpt lat="46.73578" lon="5.46961">
        <ele>198</ele>
        <time>2022-03-09T15:59:47Z</time>
      </trkpt>
      <trkpt lat="46.7357" lon="5.46961">
        <ele>197.8</ele>
        <time>2022-03-09T15:59:48Z</time>
      </trkpt>
      <trkpt lat="46.73563" lon="5.46961">
        <ele>197.8</ele>
        <time>2022-03-09T15:59:49Z</time>
      </trkpt>
      <trkpt lat="46.73555" lon="5.46962">
        <ele>197.8</ele>
        <time>2022-03-09T15:59:50Z</time>
      </trkpt>
      <trkpt lat="46.73547" lon="5.46962">
        <ele>197.8</ele>
        <time>2022-03-09T15:59:51Z</time>
      </trkpt>
      <trkpt lat="46.7354" lon="5.46963">
        <ele>197.8</ele>
        <time>2022-03-09T15:59:52Z</time>
      </trkpt>
      <trkpt lat="46.73532" lon="5.46963">
        <ele>197.8</ele>
        <time>2022-03-09T15:59:53Z</time>
      </trkpt>
      <trkpt lat="46.73524" lon="5.46963">
        <ele>197.8</ele>
        <time>2022-03-09T15:59:54Z</time>
      </trkpt>
      <trkpt lat="46.73516" lon="5.46963">
        <ele>197.8</ele>
        <time>2022-03-09T15:59:55Z</time>
      </trkpt>
      <trkpt lat="46.73508" lon="5.46964">
        <ele>197.8</ele>
        <time>2022-03-09T15:59:56Z</time>
      </trkpt>
      <trkpt lat="46.73501" lon="5.46964">
        <ele>197.8</ele>
        <time>2022-03-09T15:59:57Z</time>
      </trkpt>
      <trkpt lat="46.73493" lon="5.46964">
        <ele>197.8</ele>
        <time>2022-03-09T15:59:58Z</time>
      </trkpt>
      <trkpt lat="46.73485" lon="5.46965">
        <ele>197.8</ele>
        <time>2022-03-09T15:59:59Z</time>
      </trkpt>
      <trkpt lat="46.73477" lon="5.46965">
        <ele>197.8</ele>
        <time>2022-03-09T16:00:00Z</time>
      </trkpt>
      <trkpt lat="46.73469" lon="5.46965">
        <ele>197.8</ele>
        <time>2022-03-09T16:00:01Z</time>
      </trkpt>
      <trkpt lat="46.73462" lon="5.46966">
        <ele>197.8</ele>
        <time>2022-03-09T16:00:02Z</time>
      </trkpt>
      <trkpt lat="46.7345" lon="5.46966">
        <ele>197.8</ele>
        <time>2022-03-09T16:00:03Z</time>
      </trkpt>
      <trkpt lat="46.73446" lon="5.46966">
        <ele>197.8</ele>
        <time>2022-03-09T16:00:04Z</time>
      </trkpt>
      <trkpt lat="46.73434" lon="5.46967">
        <ele>197.8</ele>
        <time>2022-03-09T16:00:05Z</time>
      </trkpt>
      <trkpt lat="46.7343" lon="5.46967">
        <ele>197.8</ele>
        <time>2022-03-09T16:00:06Z</time>
      </trkpt>
      <trkpt lat="46.73422" lon="5.46967">
        <ele>197.8</ele>
        <time>2022-03-09T16:00:07Z</time>
      </trkpt>
      <trkpt lat="46.73414" lon="5.46967">
        <ele>197.8</ele>
        <time>2022-03-09T16:00:08Z</time>
      </trkpt>
      <trkpt lat="46.73402" lon="5.46967">
        <ele>197.8</ele>
        <time>2022-03-09T16:00:09Z</time>
      </trkpt>
      <trkpt lat="46.73398" lon="5.46967">
        <ele>198</ele>
        <time>2022-03-09T16:00:10Z</time>
      </trkpt>
      <trkpt lat="46.7339" lon="5.46967">
        <ele>198</ele>
        <time>2022-03-09T16:00:11Z</time>
      </trkpt>
      <trkpt lat="46.73382" lon="5.46967">
        <ele>198</ele>
        <time>2022-03-09T16:00:12Z</time>
      </trkpt>
      <trkpt lat="46.73374" lon="5.46966">
        <ele>198</ele>
        <time>2022-03-09T16:00:13Z</time>
      </trkpt>
      <trkpt lat="46.73366" lon="5.46965">
        <ele>198</ele>
        <time>2022-03-09T16:00:14Z</time>
      </trkpt>
      <trkpt lat="46.73354" lon="5.46963">
        <ele>198</ele>
        <time>2022-03-09T16:00:15Z</time>
      </trkpt>
      <trkpt lat="46.7335" lon="5.46962">
        <ele>198</ele>
        <time>2022-03-09T16:00:16Z</time>
      </trkpt>
      <trkpt lat="46.73342" lon="5.4696">
        <ele>198</ele>
        <time>2022-03-09T16:00:17Z</time>
      </trkpt>
      <trkpt lat="46.73334" lon="5.46957">
        <ele>198</ele>
        <time>2022-03-09T16:00:18Z</time>
      </trkpt>
      <trkpt lat="46.73322" lon="5.46954">
        <ele>198</ele>
        <time>2022-03-09T16:00:19Z</time>
      </trkpt>
      <trkpt lat="46.73318" lon="5.46953">
        <ele>198</ele>
        <time>2022-03-09T16:00:20Z</time>
      </trkpt>
      <trkpt lat="46.7331" lon="5.46951">
        <ele>198</ele>
        <time>2022-03-09T16:00:21Z</time>
      </trkpt>
      <trkpt lat="46.73302" lon="5.46949">
        <ele>198</ele>
        <time>2022-03-09T16:00:22Z</time>
      </trkpt>
      <trkpt lat="46.73294" lon="5.46947">
        <ele>198</ele>
        <time>2022-03-09T16:00:23Z</time>
      </trkpt>
      <trkpt lat="46.73286" lon="5.46944">
        <ele>197.6</ele>
        <time>2022-03-09T16:00:24Z</time>
      </trkpt>
      <trkpt lat="46.73279" lon="5.46942">
        <ele>197.6</ele>
        <time>2022-03-09T16:00:25Z</time>
      </trkpt>
      <trkpt lat="46.73267" lon="5.46939">
        <ele>197.6</ele>
        <time>2022-03-09T16:00:26Z</time>
      </trkpt>
      <trkpt lat="46.73263" lon="5.46938">
        <ele>197.6</ele>
        <time>2022-03-09T16:00:27Z</time>
      </trkpt>
      <trkpt lat="46.73256" lon="5.46936">
        <ele>197.6</ele>
        <time>2022-03-09T16:00:28Z</time>
      </trkpt>
      <trkpt lat="46.73248" lon="5.46933">
        <ele>197.6</ele>
        <time>2022-03-09T16:00:29Z</time>
      </trkpt>
      <trkpt lat="46.73241" lon="5.46931">
        <ele>197.6</ele>
        <time>2022-03-09T16:00:30Z</time>
      </trkpt>
      <trkpt lat="46.73233" lon="5.46929">
        <ele>197.6</ele>
        <time>2022-03-09T16:00:31Z</time>
      </trkpt>
      <trkpt lat="46.73225" lon="5.46927">
        <ele>197.6</ele>
        <time>2022-03-09T16:00:32Z</time>
      </trkpt>
      <trkpt lat="46.73218" lon="5.46925">
        <ele>197.6</ele>
        <time>2022-03-09T16:00:33Z</time>
      </trkpt>
      <trkpt lat="46.7321" lon="5.46923">
        <ele>197.6</ele>
        <time>2022-03-09T16:00:34Z</time>
      </trkpt>
      <trkpt lat="46.73202" lon="5.46922">
        <ele>197.6</ele>
        <time>2022-03-09T16:00:35Z</time>
      </trkpt>
      <trkpt lat="46.73195" lon="5.4692">
        <ele>197.6</ele>
        <time>2022-03-09T16:00:36Z</time>
      </trkpt>
      <trkpt lat="46.73187" lon="5.46919">
        <ele>197.6</ele>
        <time>2022-03-09T16:00:37Z</time>
      </trkpt>
      <trkpt lat="46.73179" lon="5.46918">
        <ele>197.6</ele>
        <time>2022-03-09T16:00:38Z</time>
      </trkpt>
      <trkpt lat="46.73172" lon="5.46918">
        <ele>197.6</ele>
        <time>2022-03-09T16:00:39Z</time>
      </trkpt>
      <trkpt lat="46.73164" lon="5.46918">
        <ele>197.6</ele>
        <time>2022-03-09T16:00:40Z</time>
      </trkpt>
      <trkpt lat="46.73157" lon="5.46918">
        <ele>197.6</ele>
        <time>2022-03-09T16:00:41Z</time>
      </trkpt>
      <trkpt lat="46.73149" lon="5.46919">
        <ele>197.6</ele>
        <time>2022-03-09T16:00:42Z</time>
      </trkpt>
      <trkpt lat="46.73142" lon="5.4692">
        <ele>197.6</ele>
        <time>2022-03-09T16:00:43Z</time>
      </trkpt>
      <trkpt lat="46.73131" lon="5.46924">
        <ele>197.6</ele>
        <time>2022-03-09T16:00:44Z</time>
      </trkpt>
      <trkpt lat="46.73128" lon="5.46926">
        <ele>197.6</ele>
        <time>2022-03-09T16:00:45Z</time>
      </trkpt>
      <trkpt lat="46.73121" lon="5.46929">
        <ele>197.6</ele>
        <time>2022-03-09T16:00:46Z</time>
      </trkpt>
      <trkpt lat="46.73114" lon="5.46934">
        <ele>197.6</ele>
        <time>2022-03-09T16:00:47Z</time>
      </trkpt>
      <trkpt lat="46.73108" lon="5.46939">
        <ele>197.6</ele>
        <time>2022-03-09T16:00:48Z</time>
      </trkpt>
      <trkpt lat="46.73101" lon="5.46944">
        <ele>197.6</ele>
        <time>2022-03-09T16:00:49Z</time>
      </trkpt>
      <trkpt lat="46.73095" lon="5.4695">
        <ele>197.6</ele>
        <time>2022-03-09T16:00:50Z</time>
      </trkpt>
      <trkpt lat="46.73089" lon="5.46957">
        <ele>197.6</ele>
        <time>2022-03-09T16:00:51Z</time>
      </trkpt>
      <trkpt lat="46.73083" lon="5.46964">
        <ele>197.6</ele>
        <time>2022-03-09T16:00:52Z</time>
      </trkpt>
      <trkpt lat="46.73074" lon="5.46974">
        <ele>197.6</ele>
        <time>2022-03-09T16:00:53Z</time>
      </trkpt>
      <trkpt lat="46.73071" lon="5.46978">
        <ele>197.6</ele>
        <time>2022-03-09T16:00:54Z</time>
      </trkpt>
      <trkpt lat="46.73065" lon="5.46985">
        <ele>197.4</ele>
        <time>2022-03-09T16:00:55Z</time>
      </trkpt>
      <trkpt lat="46.73059" lon="5.46993">
        <ele>197.4</ele>
        <time>2022-03-09T16:00:56Z</time>
      </trkpt>
      <trkpt lat="46.73053" lon="5.47">
        <ele>197.4</ele>
        <time>2022-03-09T16:00:57Z</time>
      </trkpt>
      <trkpt lat="46.73048" lon="5.47007">
        <ele>197.4</ele>
        <time>2022-03-09T16:00:58Z</time>
      </trkpt>
      <trkpt lat="46.73042" lon="5.47014">
        <ele>197.4</ele>
        <time>2022-03-09T16:00:59Z</time>
      </trkpt>
      <trkpt lat="46.73036" lon="5.47022">
        <ele>197.6</ele>
        <time>2022-03-09T16:01:00Z</time>
      </trkpt>
      <trkpt lat="46.7303" lon="5.47029">
        <ele>197.6</ele>
        <time>2022-03-09T16:01:01Z</time>
      </trkpt>
      <trkpt lat="46.73024" lon="5.47036">
        <ele>197.6</ele>
        <time>2022-03-09T16:01:02Z</time>
      </trkpt>
      <trkpt lat="46.73018" lon="5.47044">
        <ele>197.6</ele>
        <time>2022-03-09T16:01:03Z</time>
      </trkpt>
      <trkpt lat="46.73012" lon="5.47051">
        <ele>197.6</ele>
        <time>2022-03-09T16:01:04Z</time>
      </trkpt>
      <trkpt lat="46.73003" lon="5.47062">
        <ele>197.6</ele>
        <time>2022-03-09T16:01:05Z</time>
      </trkpt>
      <trkpt lat="46.73" lon="5.47066">
        <ele>197.6</ele>
        <time>2022-03-09T16:01:06Z</time>
      </trkpt>
      <trkpt lat="46.72994" lon="5.47074">
        <ele>197.8</ele>
        <time>2022-03-09T16:01:07Z</time>
      </trkpt>
      <trkpt lat="46.72988" lon="5.47081">
        <ele>197.8</ele>
        <time>2022-03-09T16:01:08Z</time>
      </trkpt>
      <trkpt lat="46.72982" lon="5.47088">
        <ele>197.8</ele>
        <time>2022-03-09T16:01:09Z</time>
      </trkpt>
      <trkpt lat="46.72976" lon="5.47095">
        <ele>197.8</ele>
        <time>2022-03-09T16:01:10Z</time>
      </trkpt>
      <trkpt lat="46.7297" lon="5.47103">
        <ele>197.8</ele>
        <time>2022-03-09T16:01:11Z</time>
      </trkpt>
      <trkpt lat="46.7297" lon="5.47103">
        <ele>197.8</ele>
        <time>2022-03-09T16:01:12Z</time>
      </trkpt>
      <trkpt lat="46.72964" lon="5.4711">
        <ele>197.8</ele>
        <time>2022-03-09T16:01:13Z</time>
      </trkpt>
      <trkpt lat="46.72957" lon="5.47116">
        <ele>197.8</ele>
        <time>2022-03-09T16:01:14Z</time>
      </trkpt>
      <trkpt lat="46.72951" lon="5.47123">
        <ele>197.8</ele>
        <time>2022-03-09T16:01:15Z</time>
      </trkpt>
      <trkpt lat="46.72945" lon="5.4713">
        <ele>197.8</ele>
        <time>2022-03-09T16:01:16Z</time>
      </trkpt>
      <trkpt lat="46.72938" lon="5.47136">
        <ele>197.6</ele>
        <time>2022-03-09T16:01:17Z</time>
      </trkpt>
      <trkpt lat="46.72932" lon="5.47142">
        <ele>197.6</ele>
        <time>2022-03-09T16:01:18Z</time>
      </trkpt>
      <trkpt lat="46.72925" lon="5.47148">
        <ele>197.6</ele>
        <time>2022-03-09T16:01:19Z</time>
      </trkpt>
      <trkpt lat="46.72918" lon="5.47154">
        <ele>197.6</ele>
        <time>2022-03-09T16:01:20Z</time>
      </trkpt>
      <trkpt lat="46.72911" lon="5.47159">
        <ele>197.6</ele>
        <time>2022-03-09T16:01:21Z</time>
      </trkpt>
      <trkpt lat="46.72904" lon="5.47164">
        <ele>197.6</ele>
        <time>2022-03-09T16:01:22Z</time>
      </trkpt>
      <trkpt lat="46.72897" lon="5.47169">
        <ele>197.6</ele>
        <time>2022-03-09T16:01:23Z</time>
      </trkpt>
      <trkpt lat="46.7289" lon="5.47174">
        <ele>197.6</ele>
        <time>2022-03-09T16:01:24Z</time>
      </trkpt>
      <trkpt lat="46.72883" lon="5.47179">
        <ele>197.6</ele>
        <time>2022-03-09T16:01:25Z</time>
      </trkpt>
      <trkpt lat="46.72875" lon="5.47183">
        <ele>197.4</ele>
        <time>2022-03-09T16:01:26Z</time>
      </trkpt>
      <trkpt lat="46.72867" lon="5.47187">
        <ele>197.4</ele>
        <time>2022-03-09T16:01:27Z</time>
      </trkpt>
      <trkpt lat="46.7286" lon="5.4719">
        <ele>197.6</ele>
        <time>2022-03-09T16:01:28Z</time>
      </trkpt>
      <trkpt lat="46.72852" lon="5.47194">
        <ele>197.6</ele>
        <time>2022-03-09T16:01:29Z</time>
      </trkpt>
      <trkpt lat="46.72845" lon="5.47196">
        <ele>197.6</ele>
        <time>2022-03-09T16:01:30Z</time>
      </trkpt>
      <trkpt lat="46.72837" lon="5.47199">
        <ele>197.6</ele>
        <time>2022-03-09T16:01:31Z</time>
      </trkpt>
      <trkpt lat="46.7283" lon="5.47201">
        <ele>197.6</ele>
        <time>2022-03-09T16:01:32Z</time>
      </trkpt>
      <trkpt lat="46.72822" lon="5.47204">
        <ele>197.6</ele>
        <time>2022-03-09T16:01:33Z</time>
      </trkpt>
      <trkpt lat="46.72814" lon="5.47206">
        <ele>197.4</ele>
        <time>2022-03-09T16:01:34Z</time>
      </trkpt>
      <trkpt lat="46.72807" lon="5.47208">
        <ele>197.4</ele>
        <time>2022-03-09T16:01:35Z</time>
      </trkpt>
      <trkpt lat="46.72799" lon="5.47211">
        <ele>197.4</ele>
        <time>2022-03-09T16:01:36Z</time>
      </trkpt>
      <trkpt lat="46.72791" lon="5.47213">
        <ele>197.4</ele>
        <time>2022-03-09T16:01:37Z</time>
      </trkpt>
      <trkpt lat="46.72783" lon="5.47215">
        <ele>197.4</ele>
        <time>2022-03-09T16:01:38Z</time>
      </trkpt>
      <trkpt lat="46.72776" lon="5.47218">
        <ele>197.4</ele>
        <time>2022-03-09T16:01:39Z</time>
      </trkpt>
      <trkpt lat="46.72768" lon="5.4722">
        <ele>197.4</ele>
        <time>2022-03-09T16:01:40Z</time>
      </trkpt>
      <trkpt lat="46.7276" lon="5.47222">
        <ele>197.2</ele>
        <time>2022-03-09T16:01:41Z</time>
      </trkpt>
      <trkpt lat="46.72753" lon="5.47224">
        <ele>197.2</ele>
        <time>2022-03-09T16:01:42Z</time>
      </trkpt>
      <trkpt lat="46.72745" lon="5.47226">
        <ele>197.2</ele>
        <time>2022-03-09T16:01:43Z</time>
      </trkpt>
      <trkpt lat="46.72737" lon="5.47228">
        <ele>197.2</ele>
        <time>2022-03-09T16:01:44Z</time>
      </trkpt>
      <trkpt lat="46.7273" lon="5.4723">
        <ele>197.4</ele>
        <time>2022-03-09T16:01:45Z</time>
      </trkpt>
      <trkpt lat="46.72722" lon="5.47232">
        <ele>197.4</ele>
        <time>2022-03-09T16:01:46Z</time>
      </trkpt>
      <trkpt lat="46.72715" lon="5.47234">
        <ele>197.4</ele>
        <time>2022-03-09T16:01:47Z</time>
      </trkpt>
      <trkpt lat="46.72707" lon="5.47237">
        <ele>197.4</ele>
        <time>2022-03-09T16:01:48Z</time>
      </trkpt>
      <trkpt lat="46.727" lon="5.47239">
        <ele>197.4</ele>
        <time>2022-03-09T16:01:49Z</time>
      </trkpt>
      <trkpt lat="46.72693" lon="5.47241">
        <ele>197.4</ele>
        <time>2022-03-09T16:01:50Z</time>
      </trkpt>
      <trkpt lat="46.72685" lon="5.47243">
        <ele>197.4</ele>
        <time>2022-03-09T16:01:51Z</time>
      </trkpt>
      <trkpt lat="46.72678" lon="5.47245">
        <ele>197.4</ele>
        <time>2022-03-09T16:01:52Z</time>
      </trkpt>
      <trkpt lat="46.72671" lon="5.47247">
        <ele>197.4</ele>
        <time>2022-03-09T16:01:53Z</time>
      </trkpt>
      <trkpt lat="46.72664" lon="5.47249">
        <ele>197.4</ele>
        <time>2022-03-09T16:01:54Z</time>
      </trkpt>
      <trkpt lat="46.72657" lon="5.4725">
        <ele>197.4</ele>
        <time>2022-03-09T16:01:55Z</time>
      </trkpt>
      <trkpt lat="46.7265" lon="5.47252">
        <ele>197.4</ele>
        <time>2022-03-09T16:01:56Z</time>
      </trkpt>
      <trkpt lat="46.72643" lon="5.47254">
        <ele>197.4</ele>
        <time>2022-03-09T16:01:57Z</time>
      </trkpt>
      <trkpt lat="46.72636" lon="5.47255">
        <ele>197.4</ele>
        <time>2022-03-09T16:01:58Z</time>
      </trkpt>
      <trkpt lat="46.72629" lon="5.47257">
        <ele>197.4</ele>
        <time>2022-03-09T16:01:59Z</time>
      </trkpt>
      <trkpt lat="46.72622" lon="5.47258">
        <ele>197.4</ele>
        <time>2022-03-09T16:02:00Z</time>
      </trkpt>
      <trkpt lat="46.72615" lon="5.4726">
        <ele>197.6</ele>
        <time>2022-03-09T16:02:01Z</time>
      </trkpt>
      <trkpt lat="46.72608" lon="5.47261">
        <ele>197.6</ele>
        <time>2022-03-09T16:02:02Z</time>
      </trkpt>
      <trkpt lat="46.72601" lon="5.47263">
        <ele>197.6</ele>
        <time>2022-03-09T16:02:03Z</time>
      </trkpt>
      <trkpt lat="46.72594" lon="5.47264">
        <ele>197.6</ele>
        <time>2022-03-09T16:02:04Z</time>
      </trkpt>
      <trkpt lat="46.72587" lon="5.47266">
        <ele>197.6</ele>
        <time>2022-03-09T16:02:05Z</time>
      </trkpt>
      <trkpt lat="46.7258" lon="5.47267">
        <ele>197.4</ele>
        <time>2022-03-09T16:02:06Z</time>
      </trkpt>
      <trkpt lat="46.72573" lon="5.47268">
        <ele>197.4</ele>
        <time>2022-03-09T16:02:07Z</time>
      </trkpt>
      <trkpt lat="46.72566" lon="5.47269">
        <ele>197.4</ele>
        <time>2022-03-09T16:02:08Z</time>
      </trkpt>
      <trkpt lat="46.72559" lon="5.4727">
        <ele>197.4</ele>
        <time>2022-03-09T16:02:09Z</time>
      </trkpt>
      <trkpt lat="46.72552" lon="5.47271">
        <ele>197.6</ele>
        <time>2022-03-09T16:02:10Z</time>
      </trkpt>
      <trkpt lat="46.72546" lon="5.47272">
        <ele>197.6</ele>
        <time>2022-03-09T16:02:11Z</time>
      </trkpt>
      <trkpt lat="46.72539" lon="5.47273">
        <ele>197.6</ele>
        <time>2022-03-09T16:02:12Z</time>
      </trkpt>
      <trkpt lat="46.72532" lon="5.47274">
        <ele>197.6</ele>
        <time>2022-03-09T16:02:13Z</time>
      </trkpt>
      <trkpt lat="46.72525" lon="5.47276">
        <ele>197.6</ele>
        <time>2022-03-09T16:02:14Z</time>
      </trkpt>
      <trkpt lat="46.72518" lon="5.47277">
        <ele>197.4</ele>
        <time>2022-03-09T16:02:15Z</time>
      </trkpt>
      <trkpt lat="46.72511" lon="5.47278">
        <ele>197.4</ele>
        <time>2022-03-09T16:02:16Z</time>
      </trkpt>
      <trkpt lat="46.72504" lon="5.47279">
        <ele>197.4</ele>
        <time>2022-03-09T16:02:17Z</time>
      </trkpt>
      <trkpt lat="46.72497" lon="5.47281">
        <ele>197.4</ele>
        <time>2022-03-09T16:02:18Z</time>
      </trkpt>
      <trkpt lat="46.7249" lon="5.47282">
        <ele>197.4</ele>
        <time>2022-03-09T16:02:19Z</time>
      </trkpt>
      <trkpt lat="46.72483" lon="5.47283">
        <ele>197.4</ele>
        <time>2022-03-09T16:02:20Z</time>
      </trkpt>
      <trkpt lat="46.72476" lon="5.47284">
        <ele>197.2</ele>
        <time>2022-03-09T16:02:21Z</time>
      </trkpt>
      <trkpt lat="46.72469" lon="5.47285">
        <ele>197.2</ele>
        <time>2022-03-09T16:02:22Z</time>
      </trkpt>
      <trkpt lat="46.72462" lon="5.47286">
        <ele>197.2</ele>
        <time>2022-03-09T16:02:23Z</time>
      </trkpt>
      <trkpt lat="46.72455" lon="5.47287">
        <ele>197.2</ele>
        <time>2022-03-09T16:02:24Z</time>
      </trkpt>
      <trkpt lat="46.72448" lon="5.47289">
        <ele>197.2</ele>
        <time>2022-03-09T16:02:25Z</time>
      </trkpt>
      <trkpt lat="46.7244" lon="5.4729">
        <ele>197.2</ele>
        <time>2022-03-09T16:02:26Z</time>
      </trkpt>
      <trkpt lat="46.72433" lon="5.47292">
        <ele>197.2</ele>
        <time>2022-03-09T16:02:27Z</time>
      </trkpt>
      <trkpt lat="46.72426" lon="5.47293">
        <ele>197.2</ele>
        <time>2022-03-09T16:02:28Z</time>
      </trkpt>
      <trkpt lat="46.72419" lon="5.47294">
        <ele>197.2</ele>
        <time>2022-03-09T16:02:29Z</time>
      </trkpt>
      <trkpt lat="46.72412" lon="5.47295">
        <ele>197.2</ele>
        <time>2022-03-09T16:02:30Z</time>
      </trkpt>
      <trkpt lat="46.72405" lon="5.47297">
        <ele>197.4</ele>
        <time>2022-03-09T16:02:31Z</time>
      </trkpt>
      <trkpt lat="46.72398" lon="5.47298">
        <ele>197.4</ele>
        <time>2022-03-09T16:02:32Z</time>
      </trkpt>
      <trkpt lat="46.72391" lon="5.47299">
        <ele>197.4</ele>
        <time>2022-03-09T16:02:33Z</time>
      </trkpt>
      <trkpt lat="46.72384" lon="5.47301">
        <ele>197.4</ele>
        <time>2022-03-09T16:02:34Z</time>
      </trkpt>
      <trkpt lat="46.72378" lon="5.47302">
        <ele>197.4</ele>
        <time>2022-03-09T16:02:35Z</time>
      </trkpt>
      <trkpt lat="46.72371" lon="5.47303">
        <ele>197.4</ele>
        <time>2022-03-09T16:02:36Z</time>
      </trkpt>
      <trkpt lat="46.72364" lon="5.47304">
        <ele>197.4</ele>
        <time>2022-03-09T16:02:37Z</time>
      </trkpt>
      <trkpt lat="46.72358" lon="5.47305">
        <ele>197.4</ele>
        <time>2022-03-09T16:02:38Z</time>
      </trkpt>
      <trkpt lat="46.72351" lon="5.47306">
        <ele>197.4</ele>
        <time>2022-03-09T16:02:39Z</time>
      </trkpt>
      <trkpt lat="46.72345" lon="5.47307">
        <ele>197.6</ele>
        <time>2022-03-09T16:02:40Z</time>
      </trkpt>
      <trkpt lat="46.72338" lon="5.47308">
        <ele>197.6</ele>
        <time>2022-03-09T16:02:41Z</time>
      </trkpt>
      <trkpt lat="46.72332" lon="5.4731">
        <ele>197.6</ele>
        <time>2022-03-09T16:02:42Z</time>
      </trkpt>
      <trkpt lat="46.72326" lon="5.47311">
        <ele>197.6</ele>
        <time>2022-03-09T16:02:43Z</time>
      </trkpt>
      <trkpt lat="46.7232" lon="5.47312">
        <ele>197.6</ele>
        <time>2022-03-09T16:02:44Z</time>
      </trkpt>
      <trkpt lat="46.72314" lon="5.47313">
        <ele>197.6</ele>
        <time>2022-03-09T16:02:45Z</time>
      </trkpt>
      <trkpt lat="46.72308" lon="5.47314">
        <ele>197.6</ele>
        <time>2022-03-09T16:02:46Z</time>
      </trkpt>
      <trkpt lat="46.72303" lon="5.47315">
        <ele>197.6</ele>
        <time>2022-03-09T16:02:47Z</time>
      </trkpt>
      <trkpt lat="46.72297" lon="5.47315">
        <ele>197.6</ele>
        <time>2022-03-09T16:02:48Z</time>
      </trkpt>
      <trkpt lat="46.72292" lon="5.47316">
        <ele>197.6</ele>
        <time>2022-03-09T16:02:49Z</time>
      </trkpt>
      <trkpt lat="46.7228" lon="5.47318">
        <ele>197.6</ele>
        <time>2022-03-09T16:02:50Z</time>
      </trkpt>
      <trkpt lat="46.72273" lon="5.47319">
        <ele>197.6</ele>
        <time>2022-03-09T16:02:51Z</time>
      </trkpt>
      <trkpt lat="46.72267" lon="5.4732">
        <ele>197.6</ele>
        <time>2022-03-09T16:02:52Z</time>
      </trkpt>
      <trkpt lat="46.72261" lon="5.47321">
        <ele>197.6</ele>
        <time>2022-03-09T16:02:53Z</time>
      </trkpt>
      <trkpt lat="46.72255" lon="5.47322">
        <ele>197.6</ele>
        <time>2022-03-09T16:02:54Z</time>
      </trkpt>
      <trkpt lat="46.72249" lon="5.47323">
        <ele>197.6</ele>
        <time>2022-03-09T16:02:55Z</time>
      </trkpt>
      <trkpt lat="46.72242" lon="5.47324">
        <ele>197.8</ele>
        <time>2022-03-09T16:02:56Z</time>
      </trkpt>
      <trkpt lat="46.72236" lon="5.47325">
        <ele>197.8</ele>
        <time>2022-03-09T16:02:57Z</time>
      </trkpt>
      <trkpt lat="46.7223" lon="5.47326">
        <ele>197.8</ele>
        <time>2022-03-09T16:02:58Z</time>
      </trkpt>
      <trkpt lat="46.72224" lon="5.47327">
        <ele>197.8</ele>
        <time>2022-03-09T16:02:59Z</time>
      </trkpt>
      <trkpt lat="46.72218" lon="5.47328">
        <ele>197.8</ele>
        <time>2022-03-09T16:03:00Z</time>
      </trkpt>
      <trkpt lat="46.72212" lon="5.47329">
        <ele>197.8</ele>
        <time>2022-03-09T16:03:01Z</time>
      </trkpt>
      <trkpt lat="46.72206" lon="5.4733">
        <ele>197.8</ele>
        <time>2022-03-09T16:03:02Z</time>
      </trkpt>
      <trkpt lat="46.722" lon="5.47331">
        <ele>197.8</ele>
        <time>2022-03-09T16:03:03Z</time>
      </trkpt>
      <trkpt lat="46.72194" lon="5.47332">
        <ele>198</ele>
        <time>2022-03-09T16:03:04Z</time>
      </trkpt>
      <trkpt lat="46.72187" lon="5.47332">
        <ele>198</ele>
        <time>2022-03-09T16:03:05Z</time>
      </trkpt>
      <trkpt lat="46.72181" lon="5.47333">
        <ele>198</ele>
        <time>2022-03-09T16:03:06Z</time>
      </trkpt>
      <trkpt lat="46.72175" lon="5.47334">
        <ele>198</ele>
        <time>2022-03-09T16:03:07Z</time>
      </trkpt>
      <trkpt lat="46.72169" lon="5.47335">
        <ele>198</ele>
        <time>2022-03-09T16:03:08Z</time>
      </trkpt>
      <trkpt lat="46.72163" lon="5.47336">
        <ele>198</ele>
        <time>2022-03-09T16:03:09Z</time>
      </trkpt>
      <trkpt lat="46.72156" lon="5.47337">
        <ele>198</ele>
        <time>2022-03-09T16:03:10Z</time>
      </trkpt>
      <trkpt lat="46.7215" lon="5.47338">
        <ele>198</ele>
        <time>2022-03-09T16:03:11Z</time>
      </trkpt>
      <trkpt lat="46.72144" lon="5.47338">
        <ele>197.8</ele>
        <time>2022-03-09T16:03:12Z</time>
      </trkpt>
      <trkpt lat="46.72137" lon="5.47339">
        <ele>197.8</ele>
        <time>2022-03-09T16:03:13Z</time>
      </trkpt>
      <trkpt lat="46.72131" lon="5.4734">
        <ele>197.8</ele>
        <time>2022-03-09T16:03:14Z</time>
      </trkpt>
      <trkpt lat="46.72125" lon="5.47341">
        <ele>197.8</ele>
        <time>2022-03-09T16:03:15Z</time>
      </trkpt>
      <trkpt lat="46.72118" lon="5.47342">
        <ele>197.8</ele>
        <time>2022-03-09T16:03:16Z</time>
      </trkpt>
      <trkpt lat="46.72112" lon="5.47343">
        <ele>197.8</ele>
        <time>2022-03-09T16:03:17Z</time>
      </trkpt>
      <trkpt lat="46.72106" lon="5.47344">
        <ele>197.8</ele>
        <time>2022-03-09T16:03:18Z</time>
      </trkpt>
      <trkpt lat="46.721" lon="5.47345">
        <ele>197.8</ele>
        <time>2022-03-09T16:03:19Z</time>
      </trkpt>
      <trkpt lat="46.72094" lon="5.47346">
        <ele>197.8</ele>
        <time>2022-03-09T16:03:20Z</time>
      </trkpt>
      <trkpt lat="46.72088" lon="5.47347">
        <ele>197.8</ele>
        <time>2022-03-09T16:03:21Z</time>
      </trkpt>
      <trkpt lat="46.72081" lon="5.47347">
        <ele>198</ele>
        <time>2022-03-09T16:03:22Z</time>
      </trkpt>
      <trkpt lat="46.72075" lon="5.47348">
        <ele>198</ele>
        <time>2022-03-09T16:03:23Z</time>
      </trkpt>
      <trkpt lat="46.72069" lon="5.47349">
        <ele>198</ele>
        <time>2022-03-09T16:03:24Z</time>
      </trkpt>
      <trkpt lat="46.72063" lon="5.4735">
        <ele>198</ele>
        <time>2022-03-09T16:03:25Z</time>
      </trkpt>
      <trkpt lat="46.72057" lon="5.47351">
        <ele>198</ele>
        <time>2022-03-09T16:03:26Z</time>
      </trkpt>
      <trkpt lat="46.72051" lon="5.47352">
        <ele>198</ele>
        <time>2022-03-09T16:03:27Z</time>
      </trkpt>
      <trkpt lat="46.72045" lon="5.47353">
        <ele>198.2</ele>
        <time>2022-03-09T16:03:28Z</time>
      </trkpt>
      <trkpt lat="46.72039" lon="5.47354">
        <ele>198.2</ele>
        <time>2022-03-09T16:03:29Z</time>
      </trkpt>
      <trkpt lat="46.72033" lon="5.47354">
        <ele>198.2</ele>
        <time>2022-03-09T16:03:30Z</time>
      </trkpt>
      <trkpt lat="46.72027" lon="5.47355">
        <ele>198.2</ele>
        <time>2022-03-09T16:03:31Z</time>
      </trkpt>
      <trkpt lat="46.72021" lon="5.47356">
        <ele>198.2</ele>
        <time>2022-03-09T16:03:32Z</time>
      </trkpt>
      <trkpt lat="46.72014" lon="5.47357">
        <ele>198.6</ele>
        <time>2022-03-09T16:03:33Z</time>
      </trkpt>
      <trkpt lat="46.72008" lon="5.47358">
        <ele>198.6</ele>
        <time>2022-03-09T16:03:34Z</time>
      </trkpt>
      <trkpt lat="46.72002" lon="5.47358">
        <ele>198.6</ele>
        <time>2022-03-09T16:03:35Z</time>
      </trkpt>
      <trkpt lat="46.71996" lon="5.47359">
        <ele>198.6</ele>
        <time>2022-03-09T16:03:36Z</time>
      </trkpt>
      <trkpt lat="46.7199" lon="5.4736">
        <ele>198.6</ele>
        <time>2022-03-09T16:03:37Z</time>
      </trkpt>
      <trkpt lat="46.71984" lon="5.47361">
        <ele>198.6</ele>
        <time>2022-03-09T16:03:38Z</time>
      </trkpt>
      <trkpt lat="46.71978" lon="5.47362">
        <ele>198.6</ele>
        <time>2022-03-09T16:03:39Z</time>
      </trkpt>
      <trkpt lat="46.71972" lon="5.47363">
        <ele>198.6</ele>
        <time>2022-03-09T16:03:40Z</time>
      </trkpt>
      <trkpt lat="46.71966" lon="5.47364">
        <ele>198.6</ele>
        <time>2022-03-09T16:03:41Z</time>
      </trkpt>
      <trkpt lat="46.7196" lon="5.47365">
        <ele>198.6</ele>
        <time>2022-03-09T16:03:42Z</time>
      </trkpt>
      <trkpt lat="46.71954" lon="5.47366">
        <ele>198.6</ele>
        <time>2022-03-09T16:03:43Z</time>
      </trkpt>
      <trkpt lat="46.71948" lon="5.47367">
        <ele>198.6</ele>
        <time>2022-03-09T16:03:44Z</time>
      </trkpt>
      <trkpt lat="46.71942" lon="5.47367">
        <ele>198.6</ele>
        <time>2022-03-09T16:03:45Z</time>
      </trkpt>
      <trkpt lat="46.71936" lon="5.47368">
        <ele>198.6</ele>
        <time>2022-03-09T16:03:46Z</time>
      </trkpt>
      <trkpt lat="46.7193" lon="5.47369">
        <ele>198.8</ele>
        <time>2022-03-09T16:03:47Z</time>
      </trkpt>
      <trkpt lat="46.71924" lon="5.4737">
        <ele>198.8</ele>
        <time>2022-03-09T16:03:48Z</time>
      </trkpt>
      <trkpt lat="46.71918" lon="5.47371">
        <ele>198.8</ele>
        <time>2022-03-09T16:03:49Z</time>
      </trkpt>
      <trkpt lat="46.71912" lon="5.47372">
        <ele>198.8</ele>
        <time>2022-03-09T16:03:50Z</time>
      </trkpt>
      <trkpt lat="46.71906" lon="5.47372">
        <ele>198.8</ele>
        <time>2022-03-09T16:03:51Z</time>
      </trkpt>
      <trkpt lat="46.719" lon="5.47373">
        <ele>199</ele>
        <time>2022-03-09T16:03:52Z</time>
      </trkpt>
      <trkpt lat="46.71894" lon="5.47374">
        <ele>199</ele>
        <time>2022-03-09T16:03:53Z</time>
      </trkpt>
      <trkpt lat="46.71889" lon="5.47375">
        <ele>199</ele>
        <time>2022-03-09T16:03:54Z</time>
      </trkpt>
      <trkpt lat="46.71883" lon="5.47376">
        <ele>199.2</ele>
        <time>2022-03-09T16:03:55Z</time>
      </trkpt>
      <trkpt lat="46.71877" lon="5.47377">
        <ele>199.2</ele>
        <time>2022-03-09T16:03:56Z</time>
      </trkpt>
      <trkpt lat="46.71872" lon="5.47378">
        <ele>199.4</ele>
        <time>2022-03-09T16:03:57Z</time>
      </trkpt>
      <trkpt lat="46.71866" lon="5.47379">
        <ele>199.4</ele>
        <time>2022-03-09T16:03:58Z</time>
      </trkpt>
      <trkpt lat="46.71861" lon="5.4738">
        <ele>199.8</ele>
        <time>2022-03-09T16:03:59Z</time>
      </trkpt>
      <trkpt lat="46.71855" lon="5.47381">
        <ele>199.8</ele>
        <time>2022-03-09T16:04:00Z</time>
      </trkpt>
      <trkpt lat="46.7185" lon="5.47381">
        <ele>200</ele>
        <time>2022-03-09T16:04:01Z</time>
      </trkpt>
      <trkpt lat="46.71845" lon="5.47382">
        <ele>200</ele>
        <time>2022-03-09T16:04:02Z</time>
      </trkpt>
      <trkpt lat="46.7184" lon="5.47383">
        <ele>200.2</ele>
        <time>2022-03-09T16:04:03Z</time>
      </trkpt>
      <trkpt lat="46.71834" lon="5.47384">
        <ele>200.2</ele>
        <time>2022-03-09T16:04:04Z</time>
      </trkpt>
      <trkpt lat="46.71829" lon="5.47384">
        <ele>200.6</ele>
        <time>2022-03-09T16:04:05Z</time>
      </trkpt>
      <trkpt lat="46.71824" lon="5.47385">
        <ele>200.6</ele>
        <time>2022-03-09T16:04:06Z</time>
      </trkpt>
      <trkpt lat="46.71818" lon="5.47386">
        <ele>200.8</ele>
        <time>2022-03-09T16:04:07Z</time>
      </trkpt>
      <trkpt lat="46.71813" lon="5.47386">
        <ele>200.8</ele>
        <time>2022-03-09T16:04:08Z</time>
      </trkpt>
      <trkpt lat="46.71808" lon="5.47387">
        <ele>201.2</ele>
        <time>2022-03-09T16:04:09Z</time>
      </trkpt>
      <trkpt lat="46.71802" lon="5.47388">
        <ele>201.2</ele>
        <time>2022-03-09T16:04:10Z</time>
      </trkpt>
      <trkpt lat="46.71797" lon="5.47388">
        <ele>201.2</ele>
        <time>2022-03-09T16:04:11Z</time>
      </trkpt>
      <trkpt lat="46.71791" lon="5.47389">
        <ele>201.4</ele>
        <time>2022-03-09T16:04:12Z</time>
      </trkpt>
      <trkpt lat="46.71786" lon="5.4739">
        <ele>201.4</ele>
        <time>2022-03-09T16:04:13Z</time>
      </trkpt>
      <trkpt lat="46.71781" lon="5.47391">
        <ele>201.6</ele>
        <time>2022-03-09T16:04:14Z</time>
      </trkpt>
      <trkpt lat="46.71775" lon="5.47391">
        <ele>201.6</ele>
        <time>2022-03-09T16:04:15Z</time>
      </trkpt>
      <trkpt lat="46.7177" lon="5.47392">
        <ele>201.6</ele>
        <time>2022-03-09T16:04:16Z</time>
      </trkpt>
      <trkpt lat="46.71764" lon="5.47393">
        <ele>201.8</ele>
        <time>2022-03-09T16:04:17Z</time>
      </trkpt>
      <trkpt lat="46.71758" lon="5.47393">
        <ele>201.8</ele>
        <time>2022-03-09T16:04:18Z</time>
      </trkpt>
      <trkpt lat="46.71753" lon="5.47394">
        <ele>202.2</ele>
        <time>2022-03-09T16:04:19Z</time>
      </trkpt>
      <trkpt lat="46.71747" lon="5.47395">
        <ele>202.2</ele>
        <time>2022-03-09T16:04:20Z</time>
      </trkpt>
      <trkpt lat="46.71741" lon="5.47396">
        <ele>202.4</ele>
        <time>2022-03-09T16:04:21Z</time>
      </trkpt>
      <trkpt lat="46.71735" lon="5.47396">
        <ele>202.4</ele>
        <time>2022-03-09T16:04:22Z</time>
      </trkpt>
      <trkpt lat="46.7173" lon="5.47397">
        <ele>202.4</ele>
        <time>2022-03-09T16:04:23Z</time>
      </trkpt>
      <trkpt lat="46.71724" lon="5.47398">
        <ele>202.8</ele>
        <time>2022-03-09T16:04:24Z</time>
      </trkpt>
      <trkpt lat="46.71718" lon="5.47399">
        <ele>202.8</ele>
        <time>2022-03-09T16:04:25Z</time>
      </trkpt>
      <trkpt lat="46.71713" lon="5.47401">
        <ele>202.8</ele>
        <time>2022-03-09T16:04:26Z</time>
      </trkpt>
      <trkpt lat="46.71707" lon="5.47402">
        <ele>203</ele>
        <time>2022-03-09T16:04:27Z</time>
      </trkpt>
      <trkpt lat="46.71701" lon="5.47404">
        <ele>203</ele>
        <time>2022-03-09T16:04:28Z</time>
      </trkpt>
      <trkpt lat="46.71696" lon="5.47406">
        <ele>203.4</ele>
        <time>2022-03-09T16:04:29Z</time>
      </trkpt>
      <trkpt lat="46.7169" lon="5.47408">
        <ele>203.4</ele>
        <time>2022-03-09T16:04:30Z</time>
      </trkpt>
      <trkpt lat="46.71684" lon="5.4741">
        <ele>203.6</ele>
        <time>2022-03-09T16:04:31Z</time>
      </trkpt>
      <trkpt lat="46.71678" lon="5.47412">
        <ele>203.6</ele>
        <time>2022-03-09T16:04:32Z</time>
      </trkpt>
      <trkpt lat="46.71673" lon="5.47415">
        <ele>203.6</ele>
        <time>2022-03-09T16:04:33Z</time>
      </trkpt>
      <trkpt lat="46.71667" lon="5.47417">
        <ele>204</ele>
        <time>2022-03-09T16:04:34Z</time>
      </trkpt>
      <trkpt lat="46.71661" lon="5.4742">
        <ele>204</ele>
        <time>2022-03-09T16:04:35Z</time>
      </trkpt>
      <trkpt lat="46.71655" lon="5.47422">
        <ele>204</ele>
        <time>2022-03-09T16:04:36Z</time>
      </trkpt>
      <trkpt lat="46.71649" lon="5.47425">
        <ele>204</ele>
        <time>2022-03-09T16:04:37Z</time>
      </trkpt>
      <trkpt lat="46.71643" lon="5.47428">
        <ele>204.2</ele>
        <time>2022-03-09T16:04:38Z</time>
      </trkpt>
      <trkpt lat="46.71637" lon="5.47431">
        <ele>204.2</ele>
        <time>2022-03-09T16:04:39Z</time>
      </trkpt>
      <trkpt lat="46.71631" lon="5.47434">
        <ele>204.2</ele>
        <time>2022-03-09T16:04:40Z</time>
      </trkpt>
      <trkpt lat="46.71624" lon="5.47437">
        <ele>204.2</ele>
        <time>2022-03-09T16:04:41Z</time>
      </trkpt>
      <trkpt lat="46.71618" lon="5.4744">
        <ele>204.2</ele>
        <time>2022-03-09T16:04:42Z</time>
      </trkpt>
      <trkpt lat="46.71612" lon="5.47444">
        <ele>204.6</ele>
        <time>2022-03-09T16:04:43Z</time>
      </trkpt>
      <trkpt lat="46.71606" lon="5.47448">
        <ele>204.6</ele>
        <time>2022-03-09T16:04:44Z</time>
      </trkpt>
      <trkpt lat="46.716" lon="5.47451">
        <ele>204.6</ele>
        <time>2022-03-09T16:04:45Z</time>
      </trkpt>
      <trkpt lat="46.71593" lon="5.47455">
        <ele>204.6</ele>
        <time>2022-03-09T16:04:46Z</time>
      </trkpt>
      <trkpt lat="46.71587" lon="5.47459">
        <ele>204.8</ele>
        <time>2022-03-09T16:04:47Z</time>
      </trkpt>
      <trkpt lat="46.71581" lon="5.47463">
        <ele>204.8</ele>
        <time>2022-03-09T16:04:48Z</time>
      </trkpt>
      <trkpt lat="46.71575" lon="5.47467">
        <ele>204.8</ele>
        <time>2022-03-09T16:04:49Z</time>
      </trkpt>
      <trkpt lat="46.71569" lon="5.47472">
        <ele>204.8</ele>
        <time>2022-03-09T16:04:50Z</time>
      </trkpt>
      <trkpt lat="46.71563" lon="5.47476">
        <ele>204.8</ele>
        <time>2022-03-09T16:04:51Z</time>
      </trkpt>
      <trkpt lat="46.71557" lon="5.4748">
        <ele>204.8</ele>
        <time>2022-03-09T16:04:52Z</time>
      </trkpt>
      <trkpt lat="46.71552" lon="5.47485">
        <ele>204.8</ele>
        <time>2022-03-09T16:04:53Z</time>
      </trkpt>
      <trkpt lat="46.71546" lon="5.47489">
        <ele>204.8</ele>
        <time>2022-03-09T16:04:54Z</time>
      </trkpt>
      <trkpt lat="46.7154" lon="5.47494">
        <ele>204.8</ele>
        <time>2022-03-09T16:04:55Z</time>
      </trkpt>
      <trkpt lat="46.71535" lon="5.47498">
        <ele>204.8</ele>
        <time>2022-03-09T16:04:56Z</time>
      </trkpt>
      <trkpt lat="46.71529" lon="5.47503">
        <ele>205</ele>
        <time>2022-03-09T16:04:57Z</time>
      </trkpt>
      <trkpt lat="46.71524" lon="5.47508">
        <ele>205</ele>
        <time>2022-03-09T16:04:58Z</time>
      </trkpt>
      <trkpt lat="46.71519" lon="5.47513">
        <ele>205</ele>
        <time>2022-03-09T16:04:59Z</time>
      </trkpt>
      <trkpt lat="46.71514" lon="5.47518">
        <ele>205</ele>
        <time>2022-03-09T16:05:00Z</time>
      </trkpt>
      <trkpt lat="46.71508" lon="5.47523">
        <ele>205</ele>
        <time>2022-03-09T16:05:01Z</time>
      </trkpt>
      <trkpt lat="46.71503" lon="5.47528">
        <ele>205</ele>
        <time>2022-03-09T16:05:02Z</time>
      </trkpt>
      <trkpt lat="46.71498" lon="5.47533">
        <ele>205.2</ele>
        <time>2022-03-09T16:05:03Z</time>
      </trkpt>
      <trkpt lat="46.71493" lon="5.47538">
        <ele>205.2</ele>
        <time>2022-03-09T16:05:04Z</time>
      </trkpt>
      <trkpt lat="46.71488" lon="5.47543">
        <ele>205.2</ele>
        <time>2022-03-09T16:05:05Z</time>
      </trkpt>
      <trkpt lat="46.71483" lon="5.47548">
        <ele>205.2</ele>
        <time>2022-03-09T16:05:06Z</time>
      </trkpt>
      <trkpt lat="46.71478" lon="5.47554">
        <ele>205.2</ele>
        <time>2022-03-09T16:05:07Z</time>
      </trkpt>
      <trkpt lat="46.71474" lon="5.4756">
        <ele>205.2</ele>
        <time>2022-03-09T16:05:08Z</time>
      </trkpt>
      <trkpt lat="46.71469" lon="5.47565">
        <ele>205.2</ele>
        <time>2022-03-09T16:05:09Z</time>
      </trkpt>
      <trkpt lat="46.71464" lon="5.47571">
        <ele>205.2</ele>
        <time>2022-03-09T16:05:10Z</time>
      </trkpt>
      <trkpt lat="46.71459" lon="5.47577">
        <ele>205.2</ele>
        <time>2022-03-09T16:05:11Z</time>
      </trkpt>
      <trkpt lat="46.71454" lon="5.47583">
        <ele>205.4</ele>
        <time>2022-03-09T16:05:12Z</time>
      </trkpt>
      <trkpt lat="46.7145" lon="5.47589">
        <ele>205.4</ele>
        <time>2022-03-09T16:05:13Z</time>
      </trkpt>
      <trkpt lat="46.71445" lon="5.47595">
        <ele>205.4</ele>
        <time>2022-03-09T16:05:14Z</time>
      </trkpt>
      <trkpt lat="46.71441" lon="5.47601">
        <ele>205.4</ele>
        <time>2022-03-09T16:05:15Z</time>
      </trkpt>
      <trkpt lat="46.71436" lon="5.47607">
        <ele>205.6</ele>
        <time>2022-03-09T16:05:16Z</time>
      </trkpt>
      <trkpt lat="46.71432" lon="5.47614">
        <ele>205.6</ele>
        <time>2022-03-09T16:05:17Z</time>
      </trkpt>
      <trkpt lat="46.71427" lon="5.4762">
        <ele>205.6</ele>
        <time>2022-03-09T16:05:18Z</time>
      </trkpt>
      <trkpt lat="46.71423" lon="5.47626">
        <ele>205.6</ele>
        <time>2022-03-09T16:05:19Z</time>
      </trkpt>
      <trkpt lat="46.71418" lon="5.47633">
        <ele>205.6</ele>
        <time>2022-03-09T16:05:20Z</time>
      </trkpt>
      <trkpt lat="46.71414" lon="5.4764">
        <ele>205.6</ele>
        <time>2022-03-09T16:05:21Z</time>
      </trkpt>
      <trkpt lat="46.7141" lon="5.47647">
        <ele>205.6</ele>
        <time>2022-03-09T16:05:22Z</time>
      </trkpt>
      <trkpt lat="46.71405" lon="5.47654">
        <ele>205.6</ele>
        <time>2022-03-09T16:05:23Z</time>
      </trkpt>
      <trkpt lat="46.71401" lon="5.47662">
        <ele>205.6</ele>
        <time>2022-03-09T16:05:24Z</time>
      </trkpt>
      <trkpt lat="46.71397" lon="5.47669">
        <ele>205.8</ele>
        <time>2022-03-09T16:05:25Z</time>
      </trkpt>
      <trkpt lat="46.71392" lon="5.47676">
        <ele>205.8</ele>
        <time>2022-03-09T16:05:26Z</time>
      </trkpt>
      <trkpt lat="46.71388" lon="5.47684">
        <ele>205.8</ele>
        <time>2022-03-09T16:05:27Z</time>
      </trkpt>
      <trkpt lat="46.71383" lon="5.47691">
        <ele>205.8</ele>
        <time>2022-03-09T16:05:28Z</time>
      </trkpt>
      <trkpt lat="46.71379" lon="5.47698">
        <ele>205.8</ele>
        <time>2022-03-09T16:05:29Z</time>
      </trkpt>
      <trkpt lat="46.71374" lon="5.47705">
        <ele>205.8</ele>
        <time>2022-03-09T16:05:30Z</time>
      </trkpt>
      <trkpt lat="46.7137" lon="5.47712">
        <ele>205.8</ele>
        <time>2022-03-09T16:05:31Z</time>
      </trkpt>
      <trkpt lat="46.71365" lon="5.47719">
        <ele>205.8</ele>
        <time>2022-03-09T16:05:32Z</time>
      </trkpt>
      <trkpt lat="46.7136" lon="5.47727">
        <ele>205.8</ele>
        <time>2022-03-09T16:05:33Z</time>
      </trkpt>
      <trkpt lat="46.71355" lon="5.47734">
        <ele>205.8</ele>
        <time>2022-03-09T16:05:34Z</time>
      </trkpt>
      <trkpt lat="46.7135" lon="5.47741">
        <ele>205.8</ele>
        <time>2022-03-09T16:05:35Z</time>
      </trkpt>
      <trkpt lat="46.71345" lon="5.47748">
        <ele>205.6</ele>
        <time>2022-03-09T16:05:36Z</time>
      </trkpt>
      <trkpt lat="46.7134" lon="5.47754">
        <ele>205.6</ele>
        <time>2022-03-09T16:05:37Z</time>
      </trkpt>
      <trkpt lat="46.71335" lon="5.47761">
        <ele>205.6</ele>
        <time>2022-03-09T16:05:38Z</time>
      </trkpt>
      <trkpt lat="46.7133" lon="5.47767">
        <ele>205.6</ele>
        <time>2022-03-09T16:05:39Z</time>
      </trkpt>
      <trkpt lat="46.71324" lon="5.47773">
        <ele>205.6</ele>
        <time>2022-03-09T16:05:40Z</time>
      </trkpt>
      <trkpt lat="46.71319" lon="5.47779">
        <ele>205.6</ele>
        <time>2022-03-09T16:05:41Z</time>
      </trkpt>
      <trkpt lat="46.71313" lon="5.47785">
        <ele>205.4</ele>
        <time>2022-03-09T16:05:42Z</time>
      </trkpt>
      <trkpt lat="46.71307" lon="5.47791">
        <ele>205.4</ele>
        <time>2022-03-09T16:05:43Z</time>
      </trkpt>
      <trkpt lat="46.71302" lon="5.47796">
        <ele>205.4</ele>
        <time>2022-03-09T16:05:44Z</time>
      </trkpt>
      <trkpt lat="46.71296" lon="5.47802">
        <ele>205.4</ele>
        <time>2022-03-09T16:05:45Z</time>
      </trkpt>
      <trkpt lat="46.7129" lon="5.47807">
        <ele>205.4</ele>
        <time>2022-03-09T16:05:46Z</time>
      </trkpt>
      <trkpt lat="46.71285" lon="5.47812">
        <ele>205.4</ele>
        <time>2022-03-09T16:05:47Z</time>
      </trkpt>
      <trkpt lat="46.71279" lon="5.47817">
        <ele>205.4</ele>
        <time>2022-03-09T16:05:48Z</time>
      </trkpt>
      <trkpt lat="46.71273" lon="5.47822">
        <ele>205.4</ele>
        <time>2022-03-09T16:05:49Z</time>
      </trkpt>
      <trkpt lat="46.71268" lon="5.47826">
        <ele>205.4</ele>
        <time>2022-03-09T16:05:50Z</time>
      </trkpt>
      <trkpt lat="46.71262" lon="5.4783">
        <ele>205.4</ele>
        <time>2022-03-09T16:05:51Z</time>
      </trkpt>
      <trkpt lat="46.71256" lon="5.47835">
        <ele>205.4</ele>
        <time>2022-03-09T16:05:52Z</time>
      </trkpt>
      <trkpt lat="46.71251" lon="5.47839">
        <ele>205.4</ele>
        <time>2022-03-09T16:05:53Z</time>
      </trkpt>
      <trkpt lat="46.71245" lon="5.47843">
        <ele>205.6</ele>
        <time>2022-03-09T16:05:54Z</time>
      </trkpt>
      <trkpt lat="46.71239" lon="5.47847">
        <ele>205.6</ele>
        <time>2022-03-09T16:05:55Z</time>
      </trkpt>
      <trkpt lat="46.71234" lon="5.47851">
        <ele>205.6</ele>
        <time>2022-03-09T16:05:56Z</time>
      </trkpt>
      <trkpt lat="46.71228" lon="5.47855">
        <ele>205.6</ele>
        <time>2022-03-09T16:05:57Z</time>
      </trkpt>
      <trkpt lat="46.71222" lon="5.47859">
        <ele>205.6</ele>
        <time>2022-03-09T16:05:58Z</time>
      </trkpt>
      <trkpt lat="46.71217" lon="5.47863">
        <ele>205.6</ele>
        <time>2022-03-09T16:05:59Z</time>
      </trkpt>
      <trkpt lat="46.71211" lon="5.47866">
        <ele>205.6</ele>
        <time>2022-03-09T16:06:00Z</time>
      </trkpt>
      <trkpt lat="46.71205" lon="5.4787">
        <ele>205.6</ele>
        <time>2022-03-09T16:06:01Z</time>
      </trkpt>
      <trkpt lat="46.712" lon="5.47874">
        <ele>205.6</ele>
        <time>2022-03-09T16:06:02Z</time>
      </trkpt>
      <trkpt lat="46.71194" lon="5.47878">
        <ele>205.8</ele>
        <time>2022-03-09T16:06:03Z</time>
      </trkpt>
      <trkpt lat="46.71189" lon="5.47882">
        <ele>205.8</ele>
        <time>2022-03-09T16:06:04Z</time>
      </trkpt>
      <trkpt lat="46.71183" lon="5.47886">
        <ele>205.8</ele>
        <time>2022-03-09T16:06:05Z</time>
      </trkpt>
      <trkpt lat="46.71183" lon="5.47886">
        <ele>205.8</ele>
        <time>2022-03-09T16:06:06Z</time>
      </trkpt>
      <trkpt lat="46.71177" lon="5.4789">
        <ele>205.8</ele>
        <time>2022-03-09T16:06:07Z</time>
      </trkpt>
      <trkpt lat="46.71172" lon="5.47894">
        <ele>206.2</ele>
        <time>2022-03-09T16:06:08Z</time>
      </trkpt>
      <trkpt lat="46.71166" lon="5.47897">
        <ele>206.2</ele>
        <time>2022-03-09T16:06:09Z</time>
      </trkpt>
      <trkpt lat="46.71161" lon="5.47901">
        <ele>206.4</ele>
        <time>2022-03-09T16:06:10Z</time>
      </trkpt>
      <trkpt lat="46.71155" lon="5.47905">
        <ele>206.4</ele>
        <time>2022-03-09T16:06:11Z</time>
      </trkpt>
      <trkpt lat="46.7115" lon="5.47909">
        <ele>206.4</ele>
        <time>2022-03-09T16:06:12Z</time>
      </trkpt>
      <trkpt lat="46.71144" lon="5.47913">
        <ele>206.4</ele>
        <time>2022-03-09T16:06:13Z</time>
      </trkpt>
      <trkpt lat="46.71139" lon="5.47917">
        <ele>206.4</ele>
        <time>2022-03-09T16:06:14Z</time>
      </trkpt>
      <trkpt lat="46.71133" lon="5.4792">
        <ele>206.4</ele>
        <time>2022-03-09T16:06:15Z</time>
      </trkpt>
      <trkpt lat="46.71128" lon="5.47924">
        <ele>206.4</ele>
        <time>2022-03-09T16:06:16Z</time>
      </trkpt>
      <trkpt lat="46.71122" lon="5.47928">
        <ele>206.4</ele>
        <time>2022-03-09T16:06:17Z</time>
      </trkpt>
      <trkpt lat="46.71117" lon="5.47932">
        <ele>206.4</ele>
        <time>2022-03-09T16:06:18Z</time>
      </trkpt>
      <trkpt lat="46.71111" lon="5.47936">
        <ele>206.6</ele>
        <time>2022-03-09T16:06:19Z</time>
      </trkpt>
      <trkpt lat="46.71105" lon="5.4794">
        <ele>206.6</ele>
        <time>2022-03-09T16:06:20Z</time>
      </trkpt>
      <trkpt lat="46.711" lon="5.47944">
        <ele>206.6</ele>
        <time>2022-03-09T16:06:21Z</time>
      </trkpt>
      <trkpt lat="46.71095" lon="5.47948">
        <ele>206.6</ele>
        <time>2022-03-09T16:06:22Z</time>
      </trkpt>
      <trkpt lat="46.71089" lon="5.47951">
        <ele>206.8</ele>
        <time>2022-03-09T16:06:23Z</time>
      </trkpt>
      <trkpt lat="46.71084" lon="5.47955">
        <ele>206.8</ele>
        <time>2022-03-09T16:06:24Z</time>
      </trkpt>
      <trkpt lat="46.71078" lon="5.47958">
        <ele>206.8</ele>
        <time>2022-03-09T16:06:25Z</time>
      </trkpt>
      <trkpt lat="46.71072" lon="5.47961">
        <ele>206.8</ele>
        <time>2022-03-09T16:06:26Z</time>
      </trkpt>
      <trkpt lat="46.71067" lon="5.47965">
        <ele>206.8</ele>
        <time>2022-03-09T16:06:27Z</time>
      </trkpt>
      <trkpt lat="46.71061" lon="5.47968">
        <ele>206.8</ele>
        <time>2022-03-09T16:06:28Z</time>
      </trkpt>
      <trkpt lat="46.71056" lon="5.47972">
        <ele>207</ele>
        <time>2022-03-09T16:06:29Z</time>
      </trkpt>
      <trkpt lat="46.7105" lon="5.47975">
        <ele>207</ele>
        <time>2022-03-09T16:06:30Z</time>
      </trkpt>
      <trkpt lat="46.71045" lon="5.47978">
        <ele>207</ele>
        <time>2022-03-09T16:06:31Z</time>
      </trkpt>
      <trkpt lat="46.71039" lon="5.47982">
        <ele>207.2</ele>
        <time>2022-03-09T16:06:32Z</time>
      </trkpt>
      <trkpt lat="46.71034" lon="5.47985">
        <ele>207.2</ele>
        <time>2022-03-09T16:06:33Z</time>
      </trkpt>
      <trkpt lat="46.71029" lon="5.47988">
        <ele>207.2</ele>
        <time>2022-03-09T16:06:34Z</time>
      </trkpt>
      <trkpt lat="46.71023" lon="5.47991">
        <ele>207.2</ele>
        <time>2022-03-09T16:06:35Z</time>
      </trkpt>
      <trkpt lat="46.71018" lon="5.47994">
        <ele>207.4</ele>
        <time>2022-03-09T16:06:36Z</time>
      </trkpt>
      <trkpt lat="46.71012" lon="5.47997">
        <ele>207.4</ele>
        <time>2022-03-09T16:06:37Z</time>
      </trkpt>
      <trkpt lat="46.71007" lon="5.48">
        <ele>207.8</ele>
        <time>2022-03-09T16:06:38Z</time>
      </trkpt>
      <trkpt lat="46.71001" lon="5.48003">
        <ele>207.8</ele>
        <time>2022-03-09T16:06:39Z</time>
      </trkpt>
      <trkpt lat="46.70996" lon="5.48006">
        <ele>208</ele>
        <time>2022-03-09T16:06:40Z</time>
      </trkpt>
      <trkpt lat="46.70991" lon="5.48008">
        <ele>208</ele>
        <time>2022-03-09T16:06:41Z</time>
      </trkpt>
      <trkpt lat="46.70986" lon="5.48011">
        <ele>208.2</ele>
        <time>2022-03-09T16:06:42Z</time>
      </trkpt>
      <trkpt lat="46.7098" lon="5.48014">
        <ele>208.2</ele>
        <time>2022-03-09T16:06:43Z</time>
      </trkpt>
      <trkpt lat="46.70975" lon="5.48017">
        <ele>208.4</ele>
        <time>2022-03-09T16:06:44Z</time>
      </trkpt>
      <trkpt lat="46.7097" lon="5.48021">
        <ele>208.4</ele>
        <time>2022-03-09T16:06:45Z</time>
      </trkpt>
      <trkpt lat="46.70965" lon="5.48024">
        <ele>208.8</ele>
        <time>2022-03-09T16:06:46Z</time>
      </trkpt>
      <trkpt lat="46.7096" lon="5.48028">
        <ele>209.2</ele>
        <time>2022-03-09T16:06:47Z</time>
      </trkpt>
      <trkpt lat="46.70954" lon="5.48031">
        <ele>209.4</ele>
        <time>2022-03-09T16:06:48Z</time>
      </trkpt>
      <trkpt lat="46.70949" lon="5.48034">
        <ele>209.8</ele>
        <time>2022-03-09T16:06:49Z</time>
      </trkpt>
      <trkpt lat="46.70943" lon="5.48037">
        <ele>210</ele>
        <time>2022-03-09T16:06:50Z</time>
      </trkpt>
      <trkpt lat="46.70938" lon="5.4804">
        <ele>210.4</ele>
        <time>2022-03-09T16:06:51Z</time>
      </trkpt>
      <trkpt lat="46.70933" lon="5.48044">
        <ele>210.6</ele>
        <time>2022-03-09T16:06:52Z</time>
      </trkpt>
      <trkpt lat="46.70928" lon="5.48047">
        <ele>210.8</ele>
        <time>2022-03-09T16:06:53Z</time>
      </trkpt>
      <trkpt lat="46.70923" lon="5.4805">
        <ele>210.8</ele>
        <time>2022-03-09T16:06:54Z</time>
      </trkpt>
      <trkpt lat="46.70919" lon="5.48053">
        <ele>211.2</ele>
        <time>2022-03-09T16:06:55Z</time>
      </trkpt>
      <trkpt lat="46.70914" lon="5.48056">
        <ele>211.4</ele>
        <time>2022-03-09T16:06:56Z</time>
      </trkpt>
      <trkpt lat="46.70909" lon="5.48059">
        <ele>211.4</ele>
        <time>2022-03-09T16:06:57Z</time>
      </trkpt>
      <trkpt lat="46.70905" lon="5.48062">
        <ele>211.8</ele>
        <time>2022-03-09T16:06:58Z</time>
      </trkpt>
      <trkpt lat="46.709" lon="5.48064">
        <ele>212.2</ele>
        <time>2022-03-09T16:06:59Z</time>
      </trkpt>
      <trkpt lat="46.70895" lon="5.48067">
        <ele>212.4</ele>
        <time>2022-03-09T16:07:00Z</time>
      </trkpt>
      <trkpt lat="46.70891" lon="5.48069">
        <ele>212.6</ele>
        <time>2022-03-09T16:07:01Z</time>
      </trkpt>
      <trkpt lat="46.70885" lon="5.48072">
        <ele>212.8</ele>
        <time>2022-03-09T16:07:02Z</time>
      </trkpt>
      <trkpt lat="46.7088" lon="5.48075">
        <ele>213.2</ele>
        <time>2022-03-09T16:07:03Z</time>
      </trkpt>
      <trkpt lat="46.70876" lon="5.48078">
        <ele>213.4</ele>
        <time>2022-03-09T16:07:04Z</time>
      </trkpt>
      <trkpt lat="46.70871" lon="5.48082">
        <ele>213.4</ele>
        <time>2022-03-09T16:07:05Z</time>
      </trkpt>
      <trkpt lat="46.70866" lon="5.48085">
        <ele>213.8</ele>
        <time>2022-03-09T16:07:06Z</time>
      </trkpt>
      <trkpt lat="46.70862" lon="5.48088">
        <ele>214</ele>
        <time>2022-03-09T16:07:07Z</time>
      </trkpt>
      <trkpt lat="46.70857" lon="5.4809">
        <ele>214.2</ele>
        <time>2022-03-09T16:07:08Z</time>
      </trkpt>
      <trkpt lat="46.70853" lon="5.48093">
        <ele>214.6</ele>
        <time>2022-03-09T16:07:09Z</time>
      </trkpt>
      <trkpt lat="46.70848" lon="5.48096">
        <ele>214.6</ele>
        <time>2022-03-09T16:07:10Z</time>
      </trkpt>
      <trkpt lat="46.70844" lon="5.48099">
        <ele>215</ele>
        <time>2022-03-09T16:07:11Z</time>
      </trkpt>
      <trkpt lat="46.7084" lon="5.48101">
        <ele>215</ele>
        <time>2022-03-09T16:07:12Z</time>
      </trkpt>
      <trkpt lat="46.70835" lon="5.48104">
        <ele>215.2</ele>
        <time>2022-03-09T16:07:13Z</time>
      </trkpt>
      <trkpt lat="46.70831" lon="5.48107">
        <ele>215.2</ele>
        <time>2022-03-09T16:07:14Z</time>
      </trkpt>
      <trkpt lat="46.70827" lon="5.48109">
        <ele>215.6</ele>
        <time>2022-03-09T16:07:15Z</time>
      </trkpt>
      <trkpt lat="46.70822" lon="5.48112">
        <ele>216</ele>
        <time>2022-03-09T16:07:16Z</time>
      </trkpt>
      <trkpt lat="46.70818" lon="5.48115">
        <ele>216.2</ele>
        <time>2022-03-09T16:07:17Z</time>
      </trkpt>
      <trkpt lat="46.70814" lon="5.48117">
        <ele>216.2</ele>
        <time>2022-03-09T16:07:18Z</time>
      </trkpt>
      <trkpt lat="46.7081" lon="5.4812">
        <ele>216.6</ele>
        <time>2022-03-09T16:07:19Z</time>
      </trkpt>
      <trkpt lat="46.70805" lon="5.48122">
        <ele>216.6</ele>
        <time>2022-03-09T16:07:20Z</time>
      </trkpt>
      <trkpt lat="46.70801" lon="5.48125">
        <ele>217</ele>
        <time>2022-03-09T16:07:21Z</time>
      </trkpt>
      <trkpt lat="46.70797" lon="5.48127">
        <ele>217.2</ele>
        <time>2022-03-09T16:07:22Z</time>
      </trkpt>
      <trkpt lat="46.70792" lon="5.4813">
        <ele>217.2</ele>
        <time>2022-03-09T16:07:23Z</time>
      </trkpt>
      <trkpt lat="46.70788" lon="5.48133">
        <ele>217.2</ele>
        <time>2022-03-09T16:07:24Z</time>
      </trkpt>
      <trkpt lat="46.70784" lon="5.48135">
        <ele>217.6</ele>
        <time>2022-03-09T16:07:25Z</time>
      </trkpt>
      <trkpt lat="46.70779" lon="5.48138">
        <ele>217.6</ele>
        <time>2022-03-09T16:07:26Z</time>
      </trkpt>
      <trkpt lat="46.70775" lon="5.48141">
        <ele>217.8</ele>
        <time>2022-03-09T16:07:27Z</time>
      </trkpt>
      <trkpt lat="46.7077" lon="5.48144">
        <ele>217.8</ele>
        <time>2022-03-09T16:07:28Z</time>
      </trkpt>
      <trkpt lat="46.70766" lon="5.48146">
        <ele>218</ele>
        <time>2022-03-09T16:07:29Z</time>
      </trkpt>
      <trkpt lat="46.70762" lon="5.48149">
        <ele>218</ele>
        <time>2022-03-09T16:07:30Z</time>
      </trkpt>
      <trkpt lat="46.70757" lon="5.48152">
        <ele>218.4</ele>
        <time>2022-03-09T16:07:31Z</time>
      </trkpt>
      <trkpt lat="46.70753" lon="5.48154">
        <ele>218.4</ele>
        <time>2022-03-09T16:07:32Z</time>
      </trkpt>
      <trkpt lat="46.70749" lon="5.48157">
        <ele>218.4</ele>
        <time>2022-03-09T16:07:33Z</time>
      </trkpt>
      <trkpt lat="46.70744" lon="5.4816">
        <ele>218.6</ele>
        <time>2022-03-09T16:07:34Z</time>
      </trkpt>
      <trkpt lat="46.7074" lon="5.48163">
        <ele>218.6</ele>
        <time>2022-03-09T16:07:35Z</time>
      </trkpt>
      <trkpt lat="46.70736" lon="5.48165">
        <ele>218.8</ele>
        <time>2022-03-09T16:07:36Z</time>
      </trkpt>
      <trkpt lat="46.70731" lon="5.48168">
        <ele>218.8</ele>
        <time>2022-03-09T16:07:37Z</time>
      </trkpt>
      <trkpt lat="46.70722" lon="5.48174">
        <ele>218.8</ele>
        <time>2022-03-09T16:07:38Z</time>
      </trkpt>
      <trkpt lat="46.70718" lon="5.48177">
        <ele>218.8</ele>
        <time>2022-03-09T16:07:39Z</time>
      </trkpt>
      <trkpt lat="46.70713" lon="5.4818">
        <ele>219</ele>
        <time>2022-03-09T16:07:40Z</time>
      </trkpt>
      <trkpt lat="46.70708" lon="5.48183">
        <ele>219</ele>
        <time>2022-03-09T16:07:41Z</time>
      </trkpt>
      <trkpt lat="46.70704" lon="5.48186">
        <ele>219.4</ele>
        <time>2022-03-09T16:07:42Z</time>
      </trkpt>
      <trkpt lat="46.70699" lon="5.48189">
        <ele>219.4</ele>
        <time>2022-03-09T16:07:43Z</time>
      </trkpt>
      <trkpt lat="46.70695" lon="5.48192">
        <ele>219.6</ele>
        <time>2022-03-09T16:07:44Z</time>
      </trkpt>
      <trkpt lat="46.7069" lon="5.48195">
        <ele>219.6</ele>
        <time>2022-03-09T16:07:45Z</time>
      </trkpt>
      <trkpt lat="46.70685" lon="5.48198">
        <ele>219.6</ele>
        <time>2022-03-09T16:07:46Z</time>
      </trkpt>
      <trkpt lat="46.7068" lon="5.48201">
        <ele>219.6</ele>
        <time>2022-03-09T16:07:47Z</time>
      </trkpt>
      <trkpt lat="46.70675" lon="5.48204">
        <ele>219.8</ele>
        <time>2022-03-09T16:07:48Z</time>
      </trkpt>
      <trkpt lat="46.7067" lon="5.48207">
        <ele>219.8</ele>
        <time>2022-03-09T16:07:49Z</time>
      </trkpt>
      <trkpt lat="46.70665" lon="5.4821">
        <ele>219.8</ele>
        <time>2022-03-09T16:07:50Z</time>
      </trkpt>
      <trkpt lat="46.7066" lon="5.48213">
        <ele>220</ele>
        <time>2022-03-09T16:07:51Z</time>
      </trkpt>
      <trkpt lat="46.70655" lon="5.48216">
        <ele>220</ele>
        <time>2022-03-09T16:07:52Z</time>
      </trkpt>
      <trkpt lat="46.7065" lon="5.48219">
        <ele>220.4</ele>
        <time>2022-03-09T16:07:53Z</time>
      </trkpt>
      <trkpt lat="46.70645" lon="5.48222">
        <ele>220.4</ele>
        <time>2022-03-09T16:07:54Z</time>
      </trkpt>
      <trkpt lat="46.7064" lon="5.48225">
        <ele>220.4</ele>
        <time>2022-03-09T16:07:55Z</time>
      </trkpt>
      <trkpt lat="46.70634" lon="5.48228">
        <ele>220.4</ele>
        <time>2022-03-09T16:07:56Z</time>
      </trkpt>
      <trkpt lat="46.70629" lon="5.48231">
        <ele>220.8</ele>
        <time>2022-03-09T16:07:57Z</time>
      </trkpt>
      <trkpt lat="46.70624" lon="5.48235">
        <ele>220.8</ele>
        <time>2022-03-09T16:07:58Z</time>
      </trkpt>
      <trkpt lat="46.70619" lon="5.48238">
        <ele>220.8</ele>
        <time>2022-03-09T16:07:59Z</time>
      </trkpt>
      <trkpt lat="46.70613" lon="5.48241">
        <ele>221</ele>
        <time>2022-03-09T16:08:00Z</time>
      </trkpt>
      <trkpt lat="46.70608" lon="5.48244">
        <ele>221</ele>
        <time>2022-03-09T16:08:01Z</time>
      </trkpt>
      <trkpt lat="46.70602" lon="5.48247">
        <ele>221.2</ele>
        <time>2022-03-09T16:08:02Z</time>
      </trkpt>
      <trkpt lat="46.70597" lon="5.4825">
        <ele>221.2</ele>
        <time>2022-03-09T16:08:03Z</time>
      </trkpt>
      <trkpt lat="46.70591" lon="5.48254">
        <ele>221.2</ele>
        <time>2022-03-09T16:08:04Z</time>
      </trkpt>
      <trkpt lat="46.70586" lon="5.48256">
        <ele>221.4</ele>
        <time>2022-03-09T16:08:05Z</time>
      </trkpt>
      <trkpt lat="46.7058" lon="5.48259">
        <ele>221.4</ele>
        <time>2022-03-09T16:08:06Z</time>
      </trkpt>
      <trkpt lat="46.70575" lon="5.48263">
        <ele>221.4</ele>
        <time>2022-03-09T16:08:07Z</time>
      </trkpt>
      <trkpt lat="46.70569" lon="5.48266">
        <ele>221.4</ele>
        <time>2022-03-09T16:08:08Z</time>
      </trkpt>
      <trkpt lat="46.70563" lon="5.48269">
        <ele>221.8</ele>
        <time>2022-03-09T16:08:09Z</time>
      </trkpt>
      <trkpt lat="46.70558" lon="5.48272">
        <ele>221.8</ele>
        <time>2022-03-09T16:08:10Z</time>
      </trkpt>
      <trkpt lat="46.70553" lon="5.48275">
        <ele>222.2</ele>
        <time>2022-03-09T16:08:11Z</time>
      </trkpt>
      <trkpt lat="46.70547" lon="5.48278">
        <ele>222.2</ele>
        <time>2022-03-09T16:08:12Z</time>
      </trkpt>
      <trkpt lat="46.70542" lon="5.48281">
        <ele>222.2</ele>
        <time>2022-03-09T16:08:13Z</time>
      </trkpt>
      <trkpt lat="46.70536" lon="5.48284">
        <ele>222.4</ele>
        <time>2022-03-09T16:08:14Z</time>
      </trkpt>
      <trkpt lat="46.70531" lon="5.48287">
        <ele>222.4</ele>
        <time>2022-03-09T16:08:15Z</time>
      </trkpt>
      <trkpt lat="46.70525" lon="5.4829">
        <ele>222.6</ele>
        <time>2022-03-09T16:08:16Z</time>
      </trkpt>
      <trkpt lat="46.70519" lon="5.48293">
        <ele>222.6</ele>
        <time>2022-03-09T16:08:17Z</time>
      </trkpt>
      <trkpt lat="46.70514" lon="5.48296">
        <ele>222.8</ele>
        <time>2022-03-09T16:08:18Z</time>
      </trkpt>
      <trkpt lat="46.70508" lon="5.48299">
        <ele>222.8</ele>
        <time>2022-03-09T16:08:19Z</time>
      </trkpt>
      <trkpt lat="46.70502" lon="5.48301">
        <ele>223</ele>
        <time>2022-03-09T16:08:20Z</time>
      </trkpt>
      <trkpt lat="46.70497" lon="5.48304">
        <ele>223</ele>
        <time>2022-03-09T16:08:21Z</time>
      </trkpt>
      <trkpt lat="46.70492" lon="5.48306">
        <ele>223</ele>
        <time>2022-03-09T16:08:22Z</time>
      </trkpt>
      <trkpt lat="46.70486" lon="5.48309">
        <ele>223.4</ele>
        <time>2022-03-09T16:08:23Z</time>
      </trkpt>
      <trkpt lat="46.70481" lon="5.48312">
        <ele>223.4</ele>
        <time>2022-03-09T16:08:24Z</time>
      </trkpt>
      <trkpt lat="46.70475" lon="5.48315">
        <ele>223.6</ele>
        <time>2022-03-09T16:08:25Z</time>
      </trkpt>
      <trkpt lat="46.7047" lon="5.48318">
        <ele>223.6</ele>
        <time>2022-03-09T16:08:26Z</time>
      </trkpt>
      <trkpt lat="46.70464" lon="5.48321">
        <ele>223.8</ele>
        <time>2022-03-09T16:08:27Z</time>
      </trkpt>
      <trkpt lat="46.70458" lon="5.48324">
        <ele>223.8</ele>
        <time>2022-03-09T16:08:28Z</time>
      </trkpt>
      <trkpt lat="46.70453" lon="5.48327">
        <ele>223.8</ele>
        <time>2022-03-09T16:08:29Z</time>
      </trkpt>
      <trkpt lat="46.70447" lon="5.4833">
        <ele>224</ele>
        <time>2022-03-09T16:08:30Z</time>
      </trkpt>
      <trkpt lat="46.70441" lon="5.48333">
        <ele>224</ele>
        <time>2022-03-09T16:08:31Z</time>
      </trkpt>
      <trkpt lat="46.70435" lon="5.48336">
        <ele>224</ele>
        <time>2022-03-09T16:08:32Z</time>
      </trkpt>
      <trkpt lat="46.7043" lon="5.48339">
        <ele>224.4</ele>
        <time>2022-03-09T16:08:33Z</time>
      </trkpt>
      <trkpt lat="46.70424" lon="5.48343">
        <ele>224.4</ele>
        <time>2022-03-09T16:08:34Z</time>
      </trkpt>
      <trkpt lat="46.70418" lon="5.48347">
        <ele>224.4</ele>
        <time>2022-03-09T16:08:35Z</time>
      </trkpt>
      <trkpt lat="46.70412" lon="5.4835">
        <ele>224.4</ele>
        <time>2022-03-09T16:08:36Z</time>
      </trkpt>
      <trkpt lat="46.70406" lon="5.48353">
        <ele>224.6</ele>
        <time>2022-03-09T16:08:37Z</time>
      </trkpt>
      <trkpt lat="46.704" lon="5.48357">
        <ele>224.6</ele>
        <time>2022-03-09T16:08:38Z</time>
      </trkpt>
      <trkpt lat="46.70394" lon="5.4836">
        <ele>224.6</ele>
        <time>2022-03-09T16:08:39Z</time>
      </trkpt>
      <trkpt lat="46.70389" lon="5.48364">
        <ele>224.6</ele>
        <time>2022-03-09T16:08:40Z</time>
      </trkpt>
      <trkpt lat="46.70382" lon="5.48368">
        <ele>224.6</ele>
        <time>2022-03-09T16:08:41Z</time>
      </trkpt>
      <trkpt lat="46.70376" lon="5.48371">
        <ele>224.8</ele>
        <time>2022-03-09T16:08:42Z</time>
      </trkpt>
      <trkpt lat="46.7037" lon="5.48375">
        <ele>224.8</ele>
        <time>2022-03-09T16:08:43Z</time>
      </trkpt>
      <trkpt lat="46.70365" lon="5.48378">
        <ele>225</ele>
        <time>2022-03-09T16:08:44Z</time>
      </trkpt>
      <trkpt lat="46.70359" lon="5.48382">
        <ele>225</ele>
        <time>2022-03-09T16:08:45Z</time>
      </trkpt>
      <trkpt lat="46.70352" lon="5.48385">
        <ele>225</ele>
        <time>2022-03-09T16:08:46Z</time>
      </trkpt>
      <trkpt lat="46.70346" lon="5.48389">
        <ele>225</ele>
        <time>2022-03-09T16:08:47Z</time>
      </trkpt>
      <trkpt lat="46.7034" lon="5.48392">
        <ele>225</ele>
        <time>2022-03-09T16:08:48Z</time>
      </trkpt>
      <trkpt lat="46.70334" lon="5.48396">
        <ele>225.2</ele>
        <time>2022-03-09T16:08:49Z</time>
      </trkpt>
      <trkpt lat="46.70328" lon="5.48399">
        <ele>225.2</ele>
        <time>2022-03-09T16:08:50Z</time>
      </trkpt>
      <trkpt lat="46.70321" lon="5.48403">
        <ele>225.2</ele>
        <time>2022-03-09T16:08:51Z</time>
      </trkpt>
      <trkpt lat="46.70315" lon="5.48406">
        <ele>225.2</ele>
        <time>2022-03-09T16:08:52Z</time>
      </trkpt>
      <trkpt lat="46.70309" lon="5.4841">
        <ele>225.2</ele>
        <time>2022-03-09T16:08:53Z</time>
      </trkpt>
      <trkpt lat="46.70302" lon="5.48413">
        <ele>225.2</ele>
        <time>2022-03-09T16:08:54Z</time>
      </trkpt>
      <trkpt lat="46.70296" lon="5.48417">
        <ele>225.4</ele>
        <time>2022-03-09T16:08:55Z</time>
      </trkpt>
      <trkpt lat="46.7029" lon="5.4842">
        <ele>225.4</ele>
        <time>2022-03-09T16:08:56Z</time>
      </trkpt>
      <trkpt lat="46.70283" lon="5.48424">
        <ele>225.4</ele>
        <time>2022-03-09T16:08:57Z</time>
      </trkpt>
      <trkpt lat="46.70277" lon="5.48427">
        <ele>225.4</ele>
        <time>2022-03-09T16:08:58Z</time>
      </trkpt>
      <trkpt lat="46.70271" lon="5.48431">
        <ele>225.4</ele>
        <time>2022-03-09T16:08:59Z</time>
      </trkpt>
      <trkpt lat="46.70264" lon="5.48435">
        <ele>225.4</ele>
        <time>2022-03-09T16:09:00Z</time>
      </trkpt>
      <trkpt lat="46.70258" lon="5.48438">
        <ele>225.4</ele>
        <time>2022-03-09T16:09:01Z</time>
      </trkpt>
      <trkpt lat="46.70251" lon="5.48441">
        <ele>225.8</ele>
        <time>2022-03-09T16:09:02Z</time>
      </trkpt>
      <trkpt lat="46.70245" lon="5.48445">
        <ele>225.8</ele>
        <time>2022-03-09T16:09:03Z</time>
      </trkpt>
      <trkpt lat="46.70238" lon="5.48448">
        <ele>225.8</ele>
        <time>2022-03-09T16:09:04Z</time>
      </trkpt>
      <trkpt lat="46.70232" lon="5.48451">
        <ele>225.8</ele>
        <time>2022-03-09T16:09:05Z</time>
      </trkpt>
      <trkpt lat="46.70226" lon="5.48455">
        <ele>225.8</ele>
        <time>2022-03-09T16:09:06Z</time>
      </trkpt>
      <trkpt lat="46.7022" lon="5.48459">
        <ele>225.8</ele>
        <time>2022-03-09T16:09:07Z</time>
      </trkpt>
      <trkpt lat="46.70214" lon="5.48462">
        <ele>226</ele>
        <time>2022-03-09T16:09:08Z</time>
      </trkpt>
      <trkpt lat="46.70208" lon="5.48465">
        <ele>226</ele>
        <time>2022-03-09T16:09:09Z</time>
      </trkpt>
      <trkpt lat="46.70203" lon="5.48469">
        <ele>226</ele>
        <time>2022-03-09T16:09:10Z</time>
      </trkpt>
      <trkpt lat="46.70197" lon="5.48472">
        <ele>226.2</ele>
        <time>2022-03-09T16:09:11Z</time>
      </trkpt>
      <trkpt lat="46.70191" lon="5.48476">
        <ele>226.2</ele>
        <time>2022-03-09T16:09:12Z</time>
      </trkpt>
      <trkpt lat="46.70186" lon="5.48479">
        <ele>226.2</ele>
        <time>2022-03-09T16:09:13Z</time>
      </trkpt>
      <trkpt lat="46.7018" lon="5.48482">
        <ele>226.2</ele>
        <time>2022-03-09T16:09:14Z</time>
      </trkpt>
      <trkpt lat="46.70175" lon="5.48485">
        <ele>226.2</ele>
        <time>2022-03-09T16:09:15Z</time>
      </trkpt>
      <trkpt lat="46.70169" lon="5.48489">
        <ele>226.2</ele>
        <time>2022-03-09T16:09:16Z</time>
      </trkpt>
      <trkpt lat="46.70164" lon="5.48492">
        <ele>226.4</ele>
        <time>2022-03-09T16:09:17Z</time>
      </trkpt>
      <trkpt lat="46.70158" lon="5.48495">
        <ele>226.4</ele>
        <time>2022-03-09T16:09:18Z</time>
      </trkpt>
      <trkpt lat="46.70153" lon="5.48499">
        <ele>226.4</ele>
        <time>2022-03-09T16:09:19Z</time>
      </trkpt>
      <trkpt lat="46.70147" lon="5.48502">
        <ele>226.4</ele>
        <time>2022-03-09T16:09:20Z</time>
      </trkpt>
      <trkpt lat="46.70142" lon="5.48506">
        <ele>226.4</ele>
        <time>2022-03-09T16:09:21Z</time>
      </trkpt>
      <trkpt lat="46.70137" lon="5.4851">
        <ele>226.4</ele>
        <time>2022-03-09T16:09:22Z</time>
      </trkpt>
      <trkpt lat="46.70132" lon="5.48514">
        <ele>226.4</ele>
        <time>2022-03-09T16:09:23Z</time>
      </trkpt>
      <trkpt lat="46.70126" lon="5.48518">
        <ele>226.4</ele>
        <time>2022-03-09T16:09:24Z</time>
      </trkpt>
      <trkpt lat="46.70121" lon="5.48522">
        <ele>226.4</ele>
        <time>2022-03-09T16:09:25Z</time>
      </trkpt>
      <trkpt lat="46.70116" lon="5.48526">
        <ele>226.4</ele>
        <time>2022-03-09T16:09:26Z</time>
      </trkpt>
      <trkpt lat="46.70111" lon="5.48531">
        <ele>226.4</ele>
        <time>2022-03-09T16:09:27Z</time>
      </trkpt>
      <trkpt lat="46.70106" lon="5.48536">
        <ele>226.4</ele>
        <time>2022-03-09T16:09:28Z</time>
      </trkpt>
      <trkpt lat="46.70102" lon="5.4854">
        <ele>226.4</ele>
        <time>2022-03-09T16:09:29Z</time>
      </trkpt>
      <trkpt lat="46.70097" lon="5.48545">
        <ele>226.4</ele>
        <time>2022-03-09T16:09:30Z</time>
      </trkpt>
      <trkpt lat="46.70092" lon="5.4855">
        <ele>226.4</ele>
        <time>2022-03-09T16:09:31Z</time>
      </trkpt>
      <trkpt lat="46.70087" lon="5.48555">
        <ele>226.4</ele>
        <time>2022-03-09T16:09:32Z</time>
      </trkpt>
      <trkpt lat="46.70083" lon="5.4856">
        <ele>226.4</ele>
        <time>2022-03-09T16:09:33Z</time>
      </trkpt>
      <trkpt lat="46.70078" lon="5.48564">
        <ele>226.4</ele>
        <time>2022-03-09T16:09:34Z</time>
      </trkpt>
      <trkpt lat="46.70073" lon="5.48569">
        <ele>226.4</ele>
        <time>2022-03-09T16:09:35Z</time>
      </trkpt>
      <trkpt lat="46.70069" lon="5.48575">
        <ele>226.4</ele>
        <time>2022-03-09T16:09:36Z</time>
      </trkpt>
      <trkpt lat="46.70065" lon="5.48581">
        <ele>226.4</ele>
        <time>2022-03-09T16:09:37Z</time>
      </trkpt>
      <trkpt lat="46.70061" lon="5.48586">
        <ele>226.4</ele>
        <time>2022-03-09T16:09:38Z</time>
      </trkpt>
      <trkpt lat="46.70057" lon="5.48592">
        <ele>226.4</ele>
        <time>2022-03-09T16:09:39Z</time>
      </trkpt>
      <trkpt lat="46.70053" lon="5.48598">
        <ele>226.6</ele>
        <time>2022-03-09T16:09:40Z</time>
      </trkpt>
      <trkpt lat="46.70048" lon="5.48604">
        <ele>226.6</ele>
        <time>2022-03-09T16:09:41Z</time>
      </trkpt>
      <trkpt lat="46.70044" lon="5.48611">
        <ele>226.6</ele>
        <time>2022-03-09T16:09:42Z</time>
      </trkpt>
      <trkpt lat="46.7004" lon="5.48617">
        <ele>226.6</ele>
        <time>2022-03-09T16:09:43Z</time>
      </trkpt>
      <trkpt lat="46.70035" lon="5.48624">
        <ele>226.6</ele>
        <time>2022-03-09T16:09:44Z</time>
      </trkpt>
      <trkpt lat="46.70031" lon="5.4863">
        <ele>226.8</ele>
        <time>2022-03-09T16:09:45Z</time>
      </trkpt>
      <trkpt lat="46.70026" lon="5.48636">
        <ele>226.8</ele>
        <time>2022-03-09T16:09:46Z</time>
      </trkpt>
      <trkpt lat="46.70022" lon="5.48643">
        <ele>226.8</ele>
        <time>2022-03-09T16:09:47Z</time>
      </trkpt>
      <trkpt lat="46.70017" lon="5.48649">
        <ele>226.8</ele>
        <time>2022-03-09T16:09:48Z</time>
      </trkpt>
      <trkpt lat="46.70013" lon="5.48656">
        <ele>226.8</ele>
        <time>2022-03-09T16:09:49Z</time>
      </trkpt>
      <trkpt lat="46.70008" lon="5.48662">
        <ele>227.2</ele>
        <time>2022-03-09T16:09:50Z</time>
      </trkpt>
      <trkpt lat="46.70004" lon="5.48668">
        <ele>227.2</ele>
        <time>2022-03-09T16:09:51Z</time>
      </trkpt>
      <trkpt lat="46.7" lon="5.48674">
        <ele>227.2</ele>
        <time>2022-03-09T16:09:52Z</time>
      </trkpt>
      <trkpt lat="46.69995" lon="5.48681">
        <ele>227.2</ele>
        <time>2022-03-09T16:09:53Z</time>
      </trkpt>
      <trkpt lat="46.69991" lon="5.48687">
        <ele>227.4</ele>
        <time>2022-03-09T16:09:54Z</time>
      </trkpt>
      <trkpt lat="46.69987" lon="5.48694">
        <ele>227.4</ele>
        <time>2022-03-09T16:09:55Z</time>
      </trkpt>
      <trkpt lat="46.69982" lon="5.487">
        <ele>227.6</ele>
        <time>2022-03-09T16:09:56Z</time>
      </trkpt>
      <trkpt lat="46.69978" lon="5.48706">
        <ele>227.6</ele>
        <time>2022-03-09T16:09:57Z</time>
      </trkpt>
      <trkpt lat="46.69974" lon="5.48712">
        <ele>227.6</ele>
        <time>2022-03-09T16:09:58Z</time>
      </trkpt>
      <trkpt lat="46.6997" lon="5.48719">
        <ele>227.6</ele>
        <time>2022-03-09T16:09:59Z</time>
      </trkpt>
      <trkpt lat="46.69965" lon="5.48725">
        <ele>228</ele>
        <time>2022-03-09T16:10:00Z</time>
      </trkpt>
      <trkpt lat="46.69961" lon="5.48731">
        <ele>228</ele>
        <time>2022-03-09T16:10:01Z</time>
      </trkpt>
      <trkpt lat="46.69957" lon="5.48737">
        <ele>228</ele>
        <time>2022-03-09T16:10:02Z</time>
      </trkpt>
      <trkpt lat="46.69952" lon="5.48743">
        <ele>228.2</ele>
        <time>2022-03-09T16:10:03Z</time>
      </trkpt>
      <trkpt lat="46.69948" lon="5.48749">
        <ele>228.2</ele>
        <time>2022-03-09T16:10:04Z</time>
      </trkpt>
      <trkpt lat="46.69944" lon="5.48755">
        <ele>228.2</ele>
        <time>2022-03-09T16:10:05Z</time>
      </trkpt>
      <trkpt lat="46.69939" lon="5.48761">
        <ele>228.4</ele>
        <time>2022-03-09T16:10:06Z</time>
      </trkpt>
      <trkpt lat="46.69935" lon="5.48766">
        <ele>228.4</ele>
        <time>2022-03-09T16:10:07Z</time>
      </trkpt>
      <trkpt lat="46.69931" lon="5.48773">
        <ele>228.4</ele>
        <time>2022-03-09T16:10:08Z</time>
      </trkpt>
      <trkpt lat="46.69927" lon="5.48779">
        <ele>228.8</ele>
        <time>2022-03-09T16:10:09Z</time>
      </trkpt>
      <trkpt lat="46.69923" lon="5.48785">
        <ele>228.8</ele>
        <time>2022-03-09T16:10:10Z</time>
      </trkpt>
      <trkpt lat="46.69919" lon="5.4879">
        <ele>229</ele>
        <time>2022-03-09T16:10:11Z</time>
      </trkpt>
      <trkpt lat="46.69915" lon="5.48796">
        <ele>229</ele>
        <time>2022-03-09T16:10:12Z</time>
      </trkpt>
      <trkpt lat="46.69911" lon="5.48802">
        <ele>229.2</ele>
        <time>2022-03-09T16:10:13Z</time>
      </trkpt>
      <trkpt lat="46.69907" lon="5.48807">
        <ele>229.2</ele>
        <time>2022-03-09T16:10:14Z</time>
      </trkpt>
      <trkpt lat="46.69903" lon="5.48813">
        <ele>229.4</ele>
        <time>2022-03-09T16:10:15Z</time>
      </trkpt>
      <trkpt lat="46.69899" lon="5.48819">
        <ele>229.4</ele>
        <time>2022-03-09T16:10:16Z</time>
      </trkpt>
      <trkpt lat="46.69895" lon="5.48825">
        <ele>229.8</ele>
        <time>2022-03-09T16:10:17Z</time>
      </trkpt>
      <trkpt lat="46.69891" lon="5.4883">
        <ele>229.8</ele>
        <time>2022-03-09T16:10:18Z</time>
      </trkpt>
      <trkpt lat="46.69887" lon="5.48836">
        <ele>230</ele>
        <time>2022-03-09T16:10:19Z</time>
      </trkpt>
      <trkpt lat="46.69883" lon="5.48842">
        <ele>230</ele>
        <time>2022-03-09T16:10:20Z</time>
      </trkpt>
      <trkpt lat="46.69879" lon="5.48848">
        <ele>230</ele>
        <time>2022-03-09T16:10:21Z</time>
      </trkpt>
      <trkpt lat="46.69875" lon="5.48854">
        <ele>230</ele>
        <time>2022-03-09T16:10:22Z</time>
      </trkpt>
      <trkpt lat="46.69871" lon="5.48859">
        <ele>230.4</ele>
        <time>2022-03-09T16:10:23Z</time>
      </trkpt>
      <trkpt lat="46.69867" lon="5.48865">
        <ele>230.4</ele>
        <time>2022-03-09T16:10:24Z</time>
      </trkpt>
      <trkpt lat="46.69863" lon="5.48871">
        <ele>230.6</ele>
        <time>2022-03-09T16:10:25Z</time>
      </trkpt>
      <trkpt lat="46.69859" lon="5.48877">
        <ele>230.6</ele>
        <time>2022-03-09T16:10:26Z</time>
      </trkpt>
      <trkpt lat="46.69855" lon="5.48882">
        <ele>230.6</ele>
        <time>2022-03-09T16:10:27Z</time>
      </trkpt>
      <trkpt lat="46.69851" lon="5.48888">
        <ele>230.8</ele>
        <time>2022-03-09T16:10:28Z</time>
      </trkpt>
      <trkpt lat="46.69847" lon="5.48894">
        <ele>230.8</ele>
        <time>2022-03-09T16:10:29Z</time>
      </trkpt>
      <trkpt lat="46.69843" lon="5.489">
        <ele>230.8</ele>
        <time>2022-03-09T16:10:30Z</time>
      </trkpt>
      <trkpt lat="46.69839" lon="5.48906">
        <ele>230.8</ele>
        <time>2022-03-09T16:10:31Z</time>
      </trkpt>
      <trkpt lat="46.69835" lon="5.48912">
        <ele>230.8</ele>
        <time>2022-03-09T16:10:32Z</time>
      </trkpt>
      <trkpt lat="46.69835" lon="5.48912">
        <ele>231</ele>
        <time>2022-03-09T16:10:33Z</time>
      </trkpt>
      <trkpt lat="46.6983" lon="5.48918">
        <ele>231</ele>
        <time>2022-03-09T16:10:34Z</time>
      </trkpt>
      <trkpt lat="46.69826" lon="5.48924">
        <ele>231.4</ele>
        <time>2022-03-09T16:10:35Z</time>
      </trkpt>
      <trkpt lat="46.69822" lon="5.4893">
        <ele>231.4</ele>
        <time>2022-03-09T16:10:36Z</time>
      </trkpt>
      <trkpt lat="46.69817" lon="5.48937">
        <ele>231.4</ele>
        <time>2022-03-09T16:10:37Z</time>
      </trkpt>
      <trkpt lat="46.69813" lon="5.48943">
        <ele>231.4</ele>
        <time>2022-03-09T16:10:38Z</time>
      </trkpt>
      <trkpt lat="46.69809" lon="5.48949">
        <ele>231.4</ele>
        <time>2022-03-09T16:10:39Z</time>
      </trkpt>
      <trkpt lat="46.69804" lon="5.48956">
        <ele>231.4</ele>
        <time>2022-03-09T16:10:40Z</time>
      </trkpt>
      <trkpt lat="46.698" lon="5.48962">
        <ele>231.4</ele>
        <time>2022-03-09T16:10:41Z</time>
      </trkpt>
      <trkpt lat="46.69796" lon="5.48968">
        <ele>231.4</ele>
        <time>2022-03-09T16:10:42Z</time>
      </trkpt>
      <trkpt lat="46.69791" lon="5.48975">
        <ele>231.4</ele>
        <time>2022-03-09T16:10:43Z</time>
      </trkpt>
      <trkpt lat="46.69787" lon="5.48981">
        <ele>231.4</ele>
        <time>2022-03-09T16:10:44Z</time>
      </trkpt>
      <trkpt lat="46.69778" lon="5.48994">
        <ele>231.4</ele>
        <time>2022-03-09T16:10:45Z</time>
      </trkpt>
      <trkpt lat="46.69773" lon="5.49001">
        <ele>231.4</ele>
        <time>2022-03-09T16:10:46Z</time>
      </trkpt>
      <trkpt lat="46.69768" lon="5.49007">
        <ele>231</ele>
        <time>2022-03-09T16:10:47Z</time>
      </trkpt>
      <trkpt lat="46.69764" lon="5.49014">
        <ele>231</ele>
        <time>2022-03-09T16:10:48Z</time>
      </trkpt>
      <trkpt lat="46.69759" lon="5.49021">
        <ele>231</ele>
        <time>2022-03-09T16:10:49Z</time>
      </trkpt>
      <trkpt lat="46.69754" lon="5.49028">
        <ele>230.8</ele>
        <time>2022-03-09T16:10:50Z</time>
      </trkpt>
      <trkpt lat="46.69749" lon="5.49035">
        <ele>230.8</ele>
        <time>2022-03-09T16:10:51Z</time>
      </trkpt>
      <trkpt lat="46.69744" lon="5.49042">
        <ele>230.6</ele>
        <time>2022-03-09T16:10:52Z</time>
      </trkpt>
      <trkpt lat="46.69739" lon="5.49049">
        <ele>230.6</ele>
        <time>2022-03-09T16:10:53Z</time>
      </trkpt>
      <trkpt lat="46.69734" lon="5.49057">
        <ele>230.4</ele>
        <time>2022-03-09T16:10:54Z</time>
      </trkpt>
      <trkpt lat="46.69728" lon="5.49064">
        <ele>230.2</ele>
        <time>2022-03-09T16:10:55Z</time>
      </trkpt>
      <trkpt lat="46.69723" lon="5.49072">
        <ele>230</ele>
        <time>2022-03-09T16:10:56Z</time>
      </trkpt>
      <trkpt lat="46.69718" lon="5.49079">
        <ele>229.6</ele>
        <time>2022-03-09T16:10:57Z</time>
      </trkpt>
      <trkpt lat="46.69712" lon="5.49087">
        <ele>229.4</ele>
        <time>2022-03-09T16:10:58Z</time>
      </trkpt>
      <trkpt lat="46.69707" lon="5.49095">
        <ele>229.8</ele>
        <time>2022-03-09T16:10:59Z</time>
      </trkpt>
      <trkpt lat="46.69701" lon="5.49103">
        <ele>229.6</ele>
        <time>2022-03-09T16:11:00Z</time>
      </trkpt>
      <trkpt lat="46.69696" lon="5.49111">
        <ele>229.6</ele>
        <time>2022-03-09T16:11:01Z</time>
      </trkpt>
      <trkpt lat="46.6969" lon="5.49119">
        <ele>229</ele>
        <time>2022-03-09T16:11:02Z</time>
      </trkpt>
      <trkpt lat="46.69684" lon="5.49128">
        <ele>229</ele>
        <time>2022-03-09T16:11:03Z</time>
      </trkpt>
      <trkpt lat="46.69678" lon="5.49136">
        <ele>228.6</ele>
        <time>2022-03-09T16:11:04Z</time>
      </trkpt>
      <trkpt lat="46.69673" lon="5.49144">
        <ele>228.6</ele>
        <time>2022-03-09T16:11:05Z</time>
      </trkpt>
      <trkpt lat="46.69667" lon="5.49152">
        <ele>228.4</ele>
        <time>2022-03-09T16:11:06Z</time>
      </trkpt>
      <trkpt lat="46.69662" lon="5.49161">
        <ele>228.4</ele>
        <time>2022-03-09T16:11:07Z</time>
      </trkpt>
      <trkpt lat="46.69656" lon="5.49168">
        <ele>228</ele>
        <time>2022-03-09T16:11:08Z</time>
      </trkpt>
      <trkpt lat="46.69651" lon="5.49176">
        <ele>228</ele>
        <time>2022-03-09T16:11:09Z</time>
      </trkpt>
      <trkpt lat="46.69645" lon="5.49184">
        <ele>227.8</ele>
        <time>2022-03-09T16:11:10Z</time>
      </trkpt>
      <trkpt lat="46.6964" lon="5.49192">
        <ele>227.8</ele>
        <time>2022-03-09T16:11:11Z</time>
      </trkpt>
      <trkpt lat="46.69634" lon="5.492">
        <ele>227.8</ele>
        <time>2022-03-09T16:11:12Z</time>
      </trkpt>
      <trkpt lat="46.69629" lon="5.49207">
        <ele>227.8</ele>
        <time>2022-03-09T16:11:13Z</time>
      </trkpt>
      <trkpt lat="46.69623" lon="5.49215">
        <ele>227.8</ele>
        <time>2022-03-09T16:11:14Z</time>
      </trkpt>
      <trkpt lat="46.69618" lon="5.49223">
        <ele>228</ele>
        <time>2022-03-09T16:11:15Z</time>
      </trkpt>
      <trkpt lat="46.69613" lon="5.4923">
        <ele>228</ele>
        <time>2022-03-09T16:11:16Z</time>
      </trkpt>
      <trkpt lat="46.69608" lon="5.49237">
        <ele>228</ele>
        <time>2022-03-09T16:11:17Z</time>
      </trkpt>
      <trkpt lat="46.69603" lon="5.49243">
        <ele>228.4</ele>
        <time>2022-03-09T16:11:18Z</time>
      </trkpt>
      <trkpt lat="46.69598" lon="5.49249">
        <ele>228.4</ele>
        <time>2022-03-09T16:11:19Z</time>
      </trkpt>
      <trkpt lat="46.69594" lon="5.49255">
        <ele>228.8</ele>
        <time>2022-03-09T16:11:20Z</time>
      </trkpt>
      <trkpt lat="46.69591" lon="5.49261">
        <ele>229.2</ele>
        <time>2022-03-09T16:11:21Z</time>
      </trkpt>
      <trkpt lat="46.69587" lon="5.49266">
        <ele>229.4</ele>
        <time>2022-03-09T16:11:22Z</time>
      </trkpt>
      <trkpt lat="46.69584" lon="5.49271">
        <ele>229.6</ele>
        <time>2022-03-09T16:11:23Z</time>
      </trkpt>
      <trkpt lat="46.69581" lon="5.49275">
        <ele>229.8</ele>
        <time>2022-03-09T16:11:24Z</time>
      </trkpt>
      <trkpt lat="46.69577" lon="5.4928">
        <ele>230.2</ele>
        <time>2022-03-09T16:11:25Z</time>
      </trkpt>
      <trkpt lat="46.69574" lon="5.49285">
        <ele>230.4</ele>
        <time>2022-03-09T16:11:26Z</time>
      </trkpt>
      <trkpt lat="46.69571" lon="5.49289">
        <ele>230.6</ele>
        <time>2022-03-09T16:11:27Z</time>
      </trkpt>
      <trkpt lat="46.69568" lon="5.49293">
        <ele>231</ele>
        <time>2022-03-09T16:11:28Z</time>
      </trkpt>
      <trkpt lat="46.69565" lon="5.49297">
        <ele>231.2</ele>
        <time>2022-03-09T16:11:29Z</time>
      </trkpt>
      <trkpt lat="46.69562" lon="5.49302">
        <ele>231.2</ele>
        <time>2022-03-09T16:11:30Z</time>
      </trkpt>
      <trkpt lat="46.69559" lon="5.49306">
        <ele>231.6</ele>
        <time>2022-03-09T16:11:31Z</time>
      </trkpt>
      <trkpt lat="46.69556" lon="5.4931">
        <ele>231.8</ele>
        <time>2022-03-09T16:11:32Z</time>
      </trkpt>
      <trkpt lat="46.69554" lon="5.49314">
        <ele>232.2</ele>
        <time>2022-03-09T16:11:33Z</time>
      </trkpt>
      <trkpt lat="46.69551" lon="5.49318">
        <ele>232.4</ele>
        <time>2022-03-09T16:11:34Z</time>
      </trkpt>
      <trkpt lat="46.69548" lon="5.49322">
        <ele>232.8</ele>
        <time>2022-03-09T16:11:35Z</time>
      </trkpt>
      <trkpt lat="46.69545" lon="5.49327">
        <ele>233</ele>
        <time>2022-03-09T16:11:36Z</time>
      </trkpt>
      <trkpt lat="46.69542" lon="5.49331">
        <ele>233.2</ele>
        <time>2022-03-09T16:11:37Z</time>
      </trkpt>
      <trkpt lat="46.69539" lon="5.49335">
        <ele>233.2</ele>
        <time>2022-03-09T16:11:38Z</time>
      </trkpt>
      <trkpt lat="46.69536" lon="5.49339">
        <ele>233.6</ele>
        <time>2022-03-09T16:11:39Z</time>
      </trkpt>
      <trkpt lat="46.69533" lon="5.49343">
        <ele>233.8</ele>
        <time>2022-03-09T16:11:40Z</time>
      </trkpt>
      <trkpt lat="46.69531" lon="5.49347">
        <ele>234</ele>
        <time>2022-03-09T16:11:41Z</time>
      </trkpt>
      <trkpt lat="46.69528" lon="5.49351">
        <ele>234.2</ele>
        <time>2022-03-09T16:11:42Z</time>
      </trkpt>
      <trkpt lat="46.69525" lon="5.49355">
        <ele>234.2</ele>
        <time>2022-03-09T16:11:43Z</time>
      </trkpt>
      <trkpt lat="46.69522" lon="5.49359">
        <ele>234.6</ele>
        <time>2022-03-09T16:11:44Z</time>
      </trkpt>
      <trkpt lat="46.69519" lon="5.49363">
        <ele>234.6</ele>
        <time>2022-03-09T16:11:45Z</time>
      </trkpt>
      <trkpt lat="46.69517" lon="5.49367">
        <ele>235</ele>
        <time>2022-03-09T16:11:46Z</time>
      </trkpt>
      <trkpt lat="46.69514" lon="5.49371">
        <ele>235</ele>
        <time>2022-03-09T16:11:47Z</time>
      </trkpt>
      <trkpt lat="46.69511" lon="5.49375">
        <ele>235.4</ele>
        <time>2022-03-09T16:11:48Z</time>
      </trkpt>
      <trkpt lat="46.69508" lon="5.49379">
        <ele>235.4</ele>
        <time>2022-03-09T16:11:49Z</time>
      </trkpt>
      <trkpt lat="46.69505" lon="5.49383">
        <ele>235.6</ele>
        <time>2022-03-09T16:11:50Z</time>
      </trkpt>
      <trkpt lat="46.69502" lon="5.49387">
        <ele>235.6</ele>
        <time>2022-03-09T16:11:51Z</time>
      </trkpt>
      <trkpt lat="46.695" lon="5.49391">
        <ele>236</ele>
        <time>2022-03-09T16:11:52Z</time>
      </trkpt>
      <trkpt lat="46.69497" lon="5.49395">
        <ele>236.2</ele>
        <time>2022-03-09T16:11:53Z</time>
      </trkpt>
      <trkpt lat="46.69494" lon="5.49399">
        <ele>236.2</ele>
        <time>2022-03-09T16:11:54Z</time>
      </trkpt>
      <trkpt lat="46.69491" lon="5.49403">
        <ele>236.4</ele>
        <time>2022-03-09T16:11:55Z</time>
      </trkpt>
      <trkpt lat="46.69488" lon="5.49407">
        <ele>236.6</ele>
        <time>2022-03-09T16:11:56Z</time>
      </trkpt>
      <trkpt lat="46.69486" lon="5.49411">
        <ele>236.6</ele>
        <time>2022-03-09T16:11:57Z</time>
      </trkpt>
      <trkpt lat="46.69483" lon="5.49415">
        <ele>236.8</ele>
        <time>2022-03-09T16:11:58Z</time>
      </trkpt>
      <trkpt lat="46.6948" lon="5.49419">
        <ele>236.8</ele>
        <time>2022-03-09T16:11:59Z</time>
      </trkpt>
      <trkpt lat="46.69477" lon="5.49423">
        <ele>237.2</ele>
        <time>2022-03-09T16:12:00Z</time>
      </trkpt>
      <trkpt lat="46.69474" lon="5.49427">
        <ele>237.2</ele>
        <time>2022-03-09T16:12:01Z</time>
      </trkpt>
      <trkpt lat="46.69472" lon="5.49431">
        <ele>237.6</ele>
        <time>2022-03-09T16:12:02Z</time>
      </trkpt>
      <trkpt lat="46.69469" lon="5.49435">
        <ele>237.6</ele>
        <time>2022-03-09T16:12:03Z</time>
      </trkpt>
      <trkpt lat="46.69466" lon="5.49439">
        <ele>237.8</ele>
        <time>2022-03-09T16:12:04Z</time>
      </trkpt>
      <trkpt lat="46.69464" lon="5.49443">
        <ele>237.8</ele>
        <time>2022-03-09T16:12:05Z</time>
      </trkpt>
      <trkpt lat="46.69461" lon="5.49447">
        <ele>237.8</ele>
        <time>2022-03-09T16:12:06Z</time>
      </trkpt>
      <trkpt lat="46.69458" lon="5.49451">
        <ele>238.2</ele>
        <time>2022-03-09T16:12:07Z</time>
      </trkpt>
      <trkpt lat="46.69455" lon="5.49455">
        <ele>238.2</ele>
        <time>2022-03-09T16:12:08Z</time>
      </trkpt>
      <trkpt lat="46.69452" lon="5.49459">
        <ele>238.6</ele>
        <time>2022-03-09T16:12:09Z</time>
      </trkpt>
      <trkpt lat="46.69449" lon="5.49463">
        <ele>239</ele>
        <time>2022-03-09T16:12:10Z</time>
      </trkpt>
      <trkpt lat="46.69446" lon="5.49467">
        <ele>239.4</ele>
        <time>2022-03-09T16:12:11Z</time>
      </trkpt>
      <trkpt lat="46.69444" lon="5.49471">
        <ele>239.4</ele>
        <time>2022-03-09T16:12:12Z</time>
      </trkpt>
      <trkpt lat="46.69441" lon="5.49475">
        <ele>239.6</ele>
        <time>2022-03-09T16:12:13Z</time>
      </trkpt>
      <trkpt lat="46.69438" lon="5.49479">
        <ele>239.8</ele>
        <time>2022-03-09T16:12:14Z</time>
      </trkpt>
      <trkpt lat="46.69436" lon="5.49483">
        <ele>240</ele>
        <time>2022-03-09T16:12:15Z</time>
      </trkpt>
      <trkpt lat="46.6943" lon="5.4949">
        <ele>240.2</ele>
        <time>2022-03-09T16:12:16Z</time>
      </trkpt>
      <trkpt lat="46.69427" lon="5.49494">
        <ele>240.4</ele>
        <time>2022-03-09T16:12:17Z</time>
      </trkpt>
      <trkpt lat="46.69425" lon="5.49498">
        <ele>240.4</ele>
        <time>2022-03-09T16:12:18Z</time>
      </trkpt>
      <trkpt lat="46.69422" lon="5.49502">
        <ele>240.8</ele>
        <time>2022-03-09T16:12:19Z</time>
      </trkpt>
      <trkpt lat="46.69419" lon="5.49506">
        <ele>240.8</ele>
        <time>2022-03-09T16:12:20Z</time>
      </trkpt>
      <trkpt lat="46.69417" lon="5.4951">
        <ele>241.2</ele>
        <time>2022-03-09T16:12:21Z</time>
      </trkpt>
      <trkpt lat="46.69414" lon="5.49514">
        <ele>241.4</ele>
        <time>2022-03-09T16:12:22Z</time>
      </trkpt>
      <trkpt lat="46.69411" lon="5.49518">
        <ele>241.8</ele>
        <time>2022-03-09T16:12:23Z</time>
      </trkpt>
      <trkpt lat="46.69408" lon="5.49522">
        <ele>242.2</ele>
        <time>2022-03-09T16:12:24Z</time>
      </trkpt>
      <trkpt lat="46.69406" lon="5.49525">
        <ele>242.2</ele>
        <time>2022-03-09T16:12:25Z</time>
      </trkpt>
      <trkpt lat="46.69403" lon="5.49529">
        <ele>242.6</ele>
        <time>2022-03-09T16:12:26Z</time>
      </trkpt>
      <trkpt lat="46.694" lon="5.49533">
        <ele>242.6</ele>
        <time>2022-03-09T16:12:27Z</time>
      </trkpt>
      <trkpt lat="46.69398" lon="5.49537">
        <ele>243.2</ele>
        <time>2022-03-09T16:12:28Z</time>
      </trkpt>
      <trkpt lat="46.69395" lon="5.4954">
        <ele>243.2</ele>
        <time>2022-03-09T16:12:29Z</time>
      </trkpt>
      <trkpt lat="46.69393" lon="5.49544">
        <ele>243.4</ele>
        <time>2022-03-09T16:12:30Z</time>
      </trkpt>
      <trkpt lat="46.6939" lon="5.49548">
        <ele>243.8</ele>
        <time>2022-03-09T16:12:31Z</time>
      </trkpt>
      <trkpt lat="46.69387" lon="5.49552">
        <ele>244.2</ele>
        <time>2022-03-09T16:12:32Z</time>
      </trkpt>
      <trkpt lat="46.69385" lon="5.49557">
        <ele>244.2</ele>
        <time>2022-03-09T16:12:33Z</time>
      </trkpt>
      <trkpt lat="46.69382" lon="5.49561">
        <ele>244.6</ele>
        <time>2022-03-09T16:12:34Z</time>
      </trkpt>
      <trkpt lat="46.69379" lon="5.49565">
        <ele>244.6</ele>
        <time>2022-03-09T16:12:35Z</time>
      </trkpt>
      <trkpt lat="46.69377" lon="5.49569">
        <ele>244.8</ele>
        <time>2022-03-09T16:12:36Z</time>
      </trkpt>
      <trkpt lat="46.69374" lon="5.49573">
        <ele>244.8</ele>
        <time>2022-03-09T16:12:37Z</time>
      </trkpt>
      <trkpt lat="46.69371" lon="5.49576">
        <ele>245.2</ele>
        <time>2022-03-09T16:12:38Z</time>
      </trkpt>
      <trkpt lat="46.69368" lon="5.4958">
        <ele>245.4</ele>
        <time>2022-03-09T16:12:39Z</time>
      </trkpt>
      <trkpt lat="46.69366" lon="5.49584">
        <ele>245.8</ele>
        <time>2022-03-09T16:12:40Z</time>
      </trkpt>
      <trkpt lat="46.69363" lon="5.49588">
        <ele>246</ele>
        <time>2022-03-09T16:12:41Z</time>
      </trkpt>
      <trkpt lat="46.6936" lon="5.49592">
        <ele>246.4</ele>
        <time>2022-03-09T16:12:42Z</time>
      </trkpt>
      <trkpt lat="46.69357" lon="5.49596">
        <ele>246.4</ele>
        <time>2022-03-09T16:12:43Z</time>
      </trkpt>
      <trkpt lat="46.69354" lon="5.496">
        <ele>246.8</ele>
        <time>2022-03-09T16:12:44Z</time>
      </trkpt>
      <trkpt lat="46.69352" lon="5.49604">
        <ele>247.2</ele>
        <time>2022-03-09T16:12:45Z</time>
      </trkpt>
      <trkpt lat="46.69349" lon="5.49608">
        <ele>247.2</ele>
        <time>2022-03-09T16:12:46Z</time>
      </trkpt>
      <trkpt lat="46.69346" lon="5.49612">
        <ele>247.6</ele>
        <time>2022-03-09T16:12:47Z</time>
      </trkpt>
      <trkpt lat="46.69343" lon="5.49616">
        <ele>247.6</ele>
        <time>2022-03-09T16:12:48Z</time>
      </trkpt>
      <trkpt lat="46.6934" lon="5.4962">
        <ele>247.8</ele>
        <time>2022-03-09T16:12:49Z</time>
      </trkpt>
      <trkpt lat="46.69338" lon="5.49624">
        <ele>247.8</ele>
        <time>2022-03-09T16:12:50Z</time>
      </trkpt>
      <trkpt lat="46.69335" lon="5.49628">
        <ele>248.2</ele>
        <time>2022-03-09T16:12:51Z</time>
      </trkpt>
      <trkpt lat="46.69332" lon="5.49632">
        <ele>248.2</ele>
        <time>2022-03-09T16:12:52Z</time>
      </trkpt>
      <trkpt lat="46.6933" lon="5.49635">
        <ele>248.4</ele>
        <time>2022-03-09T16:12:53Z</time>
      </trkpt>
      <trkpt lat="46.69327" lon="5.49639">
        <ele>248.4</ele>
        <time>2022-03-09T16:12:54Z</time>
      </trkpt>
      <trkpt lat="46.69324" lon="5.49643">
        <ele>248.8</ele>
        <time>2022-03-09T16:12:55Z</time>
      </trkpt>
      <trkpt lat="46.69322" lon="5.49647">
        <ele>249.2</ele>
        <time>2022-03-09T16:12:56Z</time>
      </trkpt>
      <trkpt lat="46.69319" lon="5.49651">
        <ele>249.2</ele>
        <time>2022-03-09T16:12:57Z</time>
      </trkpt>
      <trkpt lat="46.69316" lon="5.49654">
        <ele>249.4</ele>
        <time>2022-03-09T16:12:58Z</time>
      </trkpt>
      <trkpt lat="46.69314" lon="5.49658">
        <ele>249.4</ele>
        <time>2022-03-09T16:12:59Z</time>
      </trkpt>
      <trkpt lat="46.69311" lon="5.49662">
        <ele>249.8</ele>
        <time>2022-03-09T16:13:00Z</time>
      </trkpt>
      <trkpt lat="46.69308" lon="5.49665">
        <ele>250</ele>
        <time>2022-03-09T16:13:01Z</time>
      </trkpt>
      <trkpt lat="46.69305" lon="5.49669">
        <ele>250</ele>
        <time>2022-03-09T16:13:02Z</time>
      </trkpt>
      <trkpt lat="46.69303" lon="5.49673">
        <ele>250.4</ele>
        <time>2022-03-09T16:13:03Z</time>
      </trkpt>
      <trkpt lat="46.693" lon="5.49677">
        <ele>250.4</ele>
        <time>2022-03-09T16:13:04Z</time>
      </trkpt>
      <trkpt lat="46.69297" lon="5.49681">
        <ele>250.8</ele>
        <time>2022-03-09T16:13:05Z</time>
      </trkpt>
      <trkpt lat="46.69294" lon="5.49685">
        <ele>251</ele>
        <time>2022-03-09T16:13:06Z</time>
      </trkpt>
      <trkpt lat="46.69292" lon="5.49689">
        <ele>251</ele>
        <time>2022-03-09T16:13:07Z</time>
      </trkpt>
      <trkpt lat="46.69289" lon="5.49694">
        <ele>251.4</ele>
        <time>2022-03-09T16:13:08Z</time>
      </trkpt>
      <trkpt lat="46.69286" lon="5.49698">
        <ele>251.4</ele>
        <time>2022-03-09T16:13:09Z</time>
      </trkpt>
      <trkpt lat="46.69283" lon="5.49702">
        <ele>251.4</ele>
        <time>2022-03-09T16:13:10Z</time>
      </trkpt>
      <trkpt lat="46.6928" lon="5.49707">
        <ele>251.4</ele>
        <time>2022-03-09T16:13:11Z</time>
      </trkpt>
      <trkpt lat="46.69277" lon="5.49711">
        <ele>251.4</ele>
        <time>2022-03-09T16:13:12Z</time>
      </trkpt>
      <trkpt lat="46.69274" lon="5.49715">
        <ele>251.6</ele>
        <time>2022-03-09T16:13:13Z</time>
      </trkpt>
      <trkpt lat="46.69271" lon="5.4972">
        <ele>251.6</ele>
        <time>2022-03-09T16:13:14Z</time>
      </trkpt>
      <trkpt lat="46.69267" lon="5.49724">
        <ele>252</ele>
        <time>2022-03-09T16:13:15Z</time>
      </trkpt>
      <trkpt lat="46.69264" lon="5.49729">
        <ele>252</ele>
        <time>2022-03-09T16:13:16Z</time>
      </trkpt>
      <trkpt lat="46.69261" lon="5.49733">
        <ele>252.2</ele>
        <time>2022-03-09T16:13:17Z</time>
      </trkpt>
      <trkpt lat="46.69258" lon="5.49738">
        <ele>252.2</ele>
        <time>2022-03-09T16:13:18Z</time>
      </trkpt>
      <trkpt lat="46.69255" lon="5.49743">
        <ele>252.2</ele>
        <time>2022-03-09T16:13:19Z</time>
      </trkpt>
      <trkpt lat="46.69251" lon="5.49748">
        <ele>252.2</ele>
        <time>2022-03-09T16:13:20Z</time>
      </trkpt>
      <trkpt lat="46.69248" lon="5.49753">
        <ele>252.4</ele>
        <time>2022-03-09T16:13:21Z</time>
      </trkpt>
      <trkpt lat="46.69244" lon="5.49758">
        <ele>252.4</ele>
        <time>2022-03-09T16:13:22Z</time>
      </trkpt>
      <trkpt lat="46.69241" lon="5.49763">
        <ele>252.4</ele>
        <time>2022-03-09T16:13:23Z</time>
      </trkpt>
      <trkpt lat="46.69237" lon="5.49768">
        <ele>252.4</ele>
        <time>2022-03-09T16:13:24Z</time>
      </trkpt>
      <trkpt lat="46.69234" lon="5.49773">
        <ele>252.4</ele>
        <time>2022-03-09T16:13:25Z</time>
      </trkpt>
      <trkpt lat="46.6923" lon="5.49779">
        <ele>252.4</ele>
        <time>2022-03-09T16:13:26Z</time>
      </trkpt>
      <trkpt lat="46.69226" lon="5.49784">
        <ele>252.6</ele>
        <time>2022-03-09T16:13:27Z</time>
      </trkpt>
      <trkpt lat="46.69222" lon="5.49789">
        <ele>252.6</ele>
        <time>2022-03-09T16:13:28Z</time>
      </trkpt>
      <trkpt lat="46.69218" lon="5.49795">
        <ele>252.6</ele>
        <time>2022-03-09T16:13:29Z</time>
      </trkpt>
      <trkpt lat="46.69215" lon="5.498">
        <ele>252.6</ele>
        <time>2022-03-09T16:13:30Z</time>
      </trkpt>
      <trkpt lat="46.69211" lon="5.49806">
        <ele>252.6</ele>
        <time>2022-03-09T16:13:31Z</time>
      </trkpt>
      <trkpt lat="46.69207" lon="5.49811">
        <ele>252.6</ele>
        <time>2022-03-09T16:13:32Z</time>
      </trkpt>
      <trkpt lat="46.69203" lon="5.49816">
        <ele>252.8</ele>
        <time>2022-03-09T16:13:33Z</time>
      </trkpt>
      <trkpt lat="46.692" lon="5.49821">
        <ele>252.8</ele>
        <time>2022-03-09T16:13:34Z</time>
      </trkpt>
      <trkpt lat="46.69196" lon="5.49827">
        <ele>252.8</ele>
        <time>2022-03-09T16:13:35Z</time>
      </trkpt>
      <trkpt lat="46.69192" lon="5.49832">
        <ele>252.8</ele>
        <time>2022-03-09T16:13:36Z</time>
      </trkpt>
      <trkpt lat="46.69188" lon="5.49837">
        <ele>252.8</ele>
        <time>2022-03-09T16:13:37Z</time>
      </trkpt>
      <trkpt lat="46.69185" lon="5.49843">
        <ele>253.2</ele>
        <time>2022-03-09T16:13:38Z</time>
      </trkpt>
      <trkpt lat="46.69181" lon="5.49848">
        <ele>253.2</ele>
        <time>2022-03-09T16:13:39Z</time>
      </trkpt>
      <trkpt lat="46.69178" lon="5.49853">
        <ele>253.4</ele>
        <time>2022-03-09T16:13:40Z</time>
      </trkpt>
      <trkpt lat="46.69174" lon="5.49857">
        <ele>253.4</ele>
        <time>2022-03-09T16:13:41Z</time>
      </trkpt>
      <trkpt lat="46.69174" lon="5.49857">
        <ele>253.6</ele>
        <time>2022-03-09T16:13:42Z</time>
      </trkpt>
      <trkpt lat="46.69171" lon="5.49862">
        <ele>253.6</ele>
        <time>2022-03-09T16:13:43Z</time>
      </trkpt>
      <trkpt lat="46.69168" lon="5.49867">
        <ele>254</ele>
        <time>2022-03-09T16:13:44Z</time>
      </trkpt>
      <trkpt lat="46.69164" lon="5.49872">
        <ele>254</ele>
        <time>2022-03-09T16:13:45Z</time>
      </trkpt>
      <trkpt lat="46.69161" lon="5.49876">
        <ele>254.2</ele>
        <time>2022-03-09T16:13:46Z</time>
      </trkpt>
      <trkpt lat="46.69158" lon="5.4988">
        <ele>254.2</ele>
        <time>2022-03-09T16:13:47Z</time>
      </trkpt>
      <trkpt lat="46.69155" lon="5.49885">
        <ele>254.4</ele>
        <time>2022-03-09T16:13:48Z</time>
      </trkpt>
      <trkpt lat="46.69152" lon="5.49889">
        <ele>254.4</ele>
        <time>2022-03-09T16:13:49Z</time>
      </trkpt>
      <trkpt lat="46.69149" lon="5.49893">
        <ele>255</ele>
        <time>2022-03-09T16:13:50Z</time>
      </trkpt>
      <trkpt lat="46.69146" lon="5.49897">
        <ele>255.2</ele>
        <time>2022-03-09T16:13:51Z</time>
      </trkpt>
      <trkpt lat="46.69143" lon="5.49901">
        <ele>255.2</ele>
        <time>2022-03-09T16:13:52Z</time>
      </trkpt>
      <trkpt lat="46.6914" lon="5.49905">
        <ele>255.6</ele>
        <time>2022-03-09T16:13:53Z</time>
      </trkpt>
      <trkpt lat="46.69137" lon="5.4991">
        <ele>255.6</ele>
        <time>2022-03-09T16:13:54Z</time>
      </trkpt>
      <trkpt lat="46.69135" lon="5.49913">
        <ele>256</ele>
        <time>2022-03-09T16:13:55Z</time>
      </trkpt>
      <trkpt lat="46.69132" lon="5.49917">
        <ele>256.2</ele>
        <time>2022-03-09T16:13:56Z</time>
      </trkpt>
      <trkpt lat="46.69129" lon="5.49921">
        <ele>256.4</ele>
        <time>2022-03-09T16:13:57Z</time>
      </trkpt>
      <trkpt lat="46.69127" lon="5.49925">
        <ele>256.4</ele>
        <time>2022-03-09T16:13:58Z</time>
      </trkpt>
      <trkpt lat="46.69124" lon="5.49928">
        <ele>256.8</ele>
        <time>2022-03-09T16:13:59Z</time>
      </trkpt>
      <trkpt lat="46.69121" lon="5.49932">
        <ele>256.8</ele>
        <time>2022-03-09T16:14:00Z</time>
      </trkpt>
      <trkpt lat="46.69119" lon="5.49935">
        <ele>257.2</ele>
        <time>2022-03-09T16:14:01Z</time>
      </trkpt>
      <trkpt lat="46.69116" lon="5.49939">
        <ele>257.4</ele>
        <time>2022-03-09T16:14:02Z</time>
      </trkpt>
      <trkpt lat="46.69114" lon="5.49943">
        <ele>257.6</ele>
        <time>2022-03-09T16:14:03Z</time>
      </trkpt>
      <trkpt lat="46.69111" lon="5.49946">
        <ele>257.6</ele>
        <time>2022-03-09T16:14:04Z</time>
      </trkpt>
      <trkpt lat="46.69109" lon="5.4995">
        <ele>258</ele>
        <time>2022-03-09T16:14:05Z</time>
      </trkpt>
      <trkpt lat="46.69106" lon="5.49953">
        <ele>258.4</ele>
        <time>2022-03-09T16:14:06Z</time>
      </trkpt>
      <trkpt lat="46.69104" lon="5.49957">
        <ele>258.6</ele>
        <time>2022-03-09T16:14:07Z</time>
      </trkpt>
      <trkpt lat="46.69101" lon="5.49961">
        <ele>258.8</ele>
        <time>2022-03-09T16:14:08Z</time>
      </trkpt>
      <trkpt lat="46.69099" lon="5.49964">
        <ele>259.2</ele>
        <time>2022-03-09T16:14:09Z</time>
      </trkpt>
      <trkpt lat="46.69095" lon="5.4997">
        <ele>259.2</ele>
        <time>2022-03-09T16:14:10Z</time>
      </trkpt>
      <trkpt lat="46.69094" lon="5.49972">
        <ele>259.4</ele>
        <time>2022-03-09T16:14:11Z</time>
      </trkpt>
      <trkpt lat="46.69091" lon="5.49976">
        <ele>259.4</ele>
        <time>2022-03-09T16:14:12Z</time>
      </trkpt>
      <trkpt lat="46.69088" lon="5.49979">
        <ele>259.8</ele>
        <time>2022-03-09T16:14:13Z</time>
      </trkpt>
      <trkpt lat="46.69086" lon="5.49983">
        <ele>259.8</ele>
        <time>2022-03-09T16:14:14Z</time>
      </trkpt>
      <trkpt lat="46.69083" lon="5.49987">
        <ele>260</ele>
        <time>2022-03-09T16:14:15Z</time>
      </trkpt>
      <trkpt lat="46.69079" lon="5.49989">
        <ele>260</ele>
        <time>2022-03-09T16:14:16Z</time>
      </trkpt>
      <trkpt lat="46.69075" lon="5.49989">
        <ele>260</ele>
        <time>2022-03-09T16:14:17Z</time>
      </trkpt>
      <trkpt lat="46.69071" lon="5.49987">
        <ele>260.2</ele>
        <time>2022-03-09T16:14:18Z</time>
      </trkpt>
      <trkpt lat="46.69067" lon="5.49984">
        <ele>260.2</ele>
        <time>2022-03-09T16:14:19Z</time>
      </trkpt>
      <trkpt lat="46.69064" lon="5.49981">
        <ele>260.2</ele>
        <time>2022-03-09T16:14:20Z</time>
      </trkpt>
      <trkpt lat="46.69061" lon="5.49977">
        <ele>260.6</ele>
        <time>2022-03-09T16:14:21Z</time>
      </trkpt>
      <trkpt lat="46.69058" lon="5.49974">
        <ele>260.6</ele>
        <time>2022-03-09T16:14:22Z</time>
      </trkpt>
      <trkpt lat="46.69055" lon="5.4997">
        <ele>260.6</ele>
        <time>2022-03-09T16:14:23Z</time>
      </trkpt>
      <trkpt lat="46.69051" lon="5.49967">
        <ele>260.6</ele>
        <time>2022-03-09T16:14:24Z</time>
      </trkpt>
      <trkpt lat="46.69048" lon="5.49964">
        <ele>260.6</ele>
        <time>2022-03-09T16:14:25Z</time>
      </trkpt>
      <trkpt lat="46.69045" lon="5.49961">
        <ele>260.6</ele>
        <time>2022-03-09T16:14:26Z</time>
      </trkpt>
      <trkpt lat="46.69041" lon="5.49959">
        <ele>260.6</ele>
        <time>2022-03-09T16:14:27Z</time>
      </trkpt>
      <trkpt lat="46.69038" lon="5.49957">
        <ele>260.8</ele>
        <time>2022-03-09T16:14:28Z</time>
      </trkpt>
      <trkpt lat="46.69035" lon="5.49955">
        <ele>260.8</ele>
        <time>2022-03-09T16:14:29Z</time>
      </trkpt>
      <trkpt lat="46.69032" lon="5.49954">
        <ele>260.8</ele>
        <time>2022-03-09T16:14:30Z</time>
      </trkpt>
      <trkpt lat="46.69028" lon="5.49952">
        <ele>260.8</ele>
        <time>2022-03-09T16:14:31Z</time>
      </trkpt>
      <trkpt lat="46.69025" lon="5.4995">
        <ele>261</ele>
        <time>2022-03-09T16:14:32Z</time>
      </trkpt>
      <trkpt lat="46.69021" lon="5.49948">
        <ele>261</ele>
        <time>2022-03-09T16:14:33Z</time>
      </trkpt>
      <trkpt lat="46.69017" lon="5.49946">
        <ele>261</ele>
        <time>2022-03-09T16:14:34Z</time>
      </trkpt>
      <trkpt lat="46.69014" lon="5.49944">
        <ele>261.4</ele>
        <time>2022-03-09T16:14:35Z</time>
      </trkpt>
      <trkpt lat="46.6901" lon="5.49942">
        <ele>261.4</ele>
        <time>2022-03-09T16:14:36Z</time>
      </trkpt>
      <trkpt lat="46.69006" lon="5.4994">
        <ele>261.4</ele>
        <time>2022-03-09T16:14:37Z</time>
      </trkpt>
      <trkpt lat="46.69001" lon="5.49937">
        <ele>261.4</ele>
        <time>2022-03-09T16:14:38Z</time>
      </trkpt>
      <trkpt lat="46.68997" lon="5.49934">
        <ele>261.4</ele>
        <time>2022-03-09T16:14:39Z</time>
      </trkpt>
      <trkpt lat="46.68993" lon="5.49932">
        <ele>261.4</ele>
        <time>2022-03-09T16:14:40Z</time>
      </trkpt>
      <trkpt lat="46.68988" lon="5.49929">
        <ele>261.4</ele>
        <time>2022-03-09T16:14:41Z</time>
      </trkpt>
      <trkpt lat="46.68984" lon="5.49927">
        <ele>261.6</ele>
        <time>2022-03-09T16:14:42Z</time>
      </trkpt>
      <trkpt lat="46.68979" lon="5.49924">
        <ele>261.6</ele>
        <time>2022-03-09T16:14:43Z</time>
      </trkpt>
      <trkpt lat="46.68975" lon="5.49922">
        <ele>261.6</ele>
        <time>2022-03-09T16:14:44Z</time>
      </trkpt>
      <trkpt lat="46.6897" lon="5.49919">
        <ele>261.6</ele>
        <time>2022-03-09T16:14:45Z</time>
      </trkpt>
      <trkpt lat="46.68965" lon="5.49916">
        <ele>261.6</ele>
        <time>2022-03-09T16:14:46Z</time>
      </trkpt>
      <trkpt lat="46.6896" lon="5.49913">
        <ele>261.6</ele>
        <time>2022-03-09T16:14:47Z</time>
      </trkpt>
      <trkpt lat="46.68955" lon="5.49911">
        <ele>261.6</ele>
        <time>2022-03-09T16:14:48Z</time>
      </trkpt>
      <trkpt lat="46.6895" lon="5.49908">
        <ele>261.6</ele>
        <time>2022-03-09T16:14:49Z</time>
      </trkpt>
      <trkpt lat="46.68945" lon="5.49905">
        <ele>261.6</ele>
        <time>2022-03-09T16:14:50Z</time>
      </trkpt>
      <trkpt lat="46.6894" lon="5.49902">
        <ele>261.6</ele>
        <time>2022-03-09T16:14:51Z</time>
      </trkpt>
      <trkpt lat="46.68935" lon="5.49899">
        <ele>261.4</ele>
        <time>2022-03-09T16:14:52Z</time>
      </trkpt>
      <trkpt lat="46.6893" lon="5.49896">
        <ele>261.4</ele>
        <time>2022-03-09T16:14:53Z</time>
      </trkpt>
      <trkpt lat="46.68925" lon="5.49893">
        <ele>261.2</ele>
        <time>2022-03-09T16:14:54Z</time>
      </trkpt>
      <trkpt lat="46.6892" lon="5.4989">
        <ele>261.2</ele>
        <time>2022-03-09T16:14:55Z</time>
      </trkpt>
      <trkpt lat="46.68915" lon="5.49887">
        <ele>261.2</ele>
        <time>2022-03-09T16:14:56Z</time>
      </trkpt>
      <trkpt lat="46.6891" lon="5.49884">
        <ele>261.2</ele>
        <time>2022-03-09T16:14:57Z</time>
      </trkpt>
      <trkpt lat="46.68904" lon="5.49881">
        <ele>261</ele>
        <time>2022-03-09T16:14:58Z</time>
      </trkpt>
      <trkpt lat="46.68899" lon="5.49878">
        <ele>261</ele>
        <time>2022-03-09T16:14:59Z</time>
      </trkpt>
      <trkpt lat="46.68893" lon="5.49876">
        <ele>261</ele>
        <time>2022-03-09T16:15:00Z</time>
      </trkpt>
      <trkpt lat="46.68888" lon="5.49873">
        <ele>260.6</ele>
        <time>2022-03-09T16:15:01Z</time>
      </trkpt>
      <trkpt lat="46.68884" lon="5.4987">
        <ele>260.6</ele>
        <time>2022-03-09T16:15:02Z</time>
      </trkpt>
      <trkpt lat="46.68879" lon="5.49866">
        <ele>260.2</ele>
        <time>2022-03-09T16:15:03Z</time>
      </trkpt>
      <trkpt lat="46.68874" lon="5.49864">
        <ele>260</ele>
        <time>2022-03-09T16:15:05Z</time>
      </trkpt>
      <trkpt lat="46.6887" lon="5.49861">
        <ele>259.8</ele>
        <time>2022-03-09T16:15:06Z</time>
      </trkpt>
      <trkpt lat="46.68866" lon="5.4986">
        <ele>259.8</ele>
        <time>2022-03-09T16:15:07Z</time>
      </trkpt>
      <trkpt lat="46.68863" lon="5.49859">
        <ele>259.8</ele>
        <time>2022-03-09T16:15:08Z</time>
      </trkpt>
      <trkpt lat="46.6886" lon="5.49861">
        <ele>259.4</ele>
        <time>2022-03-09T16:15:09Z</time>
      </trkpt>
      <trkpt lat="46.68856" lon="5.49865">
        <ele>259.4</ele>
        <time>2022-03-09T16:15:10Z</time>
      </trkpt>
      <trkpt lat="46.68854" lon="5.49871">
        <ele>259.2</ele>
        <time>2022-03-09T16:15:11Z</time>
      </trkpt>
      <trkpt lat="46.68853" lon="5.49877">
        <ele>259.2</ele>
        <time>2022-03-09T16:15:12Z</time>
      </trkpt>
      <trkpt lat="46.68852" lon="5.49884">
        <ele>258.8</ele>
        <time>2022-03-09T16:15:13Z</time>
      </trkpt>
      <trkpt lat="46.6885" lon="5.49891">
        <ele>258.8</ele>
        <time>2022-03-09T16:15:14Z</time>
      </trkpt>
      <trkpt lat="46.68849" lon="5.49899">
        <ele>258.8</ele>
        <time>2022-03-09T16:15:15Z</time>
      </trkpt>
      <trkpt lat="46.68848" lon="5.49906">
        <ele>258.8</ele>
        <time>2022-03-09T16:15:16Z</time>
      </trkpt>
      <trkpt lat="46.68846" lon="5.49914">
        <ele>258.8</ele>
        <time>2022-03-09T16:15:17Z</time>
      </trkpt>
      <trkpt lat="46.68845" lon="5.49922">
        <ele>258.6</ele>
        <time>2022-03-09T16:15:18Z</time>
      </trkpt>
      <trkpt lat="46.68843" lon="5.4993">
        <ele>258.6</ele>
        <time>2022-03-09T16:15:19Z</time>
      </trkpt>
      <trkpt lat="46.68842" lon="5.49938">
        <ele>258.6</ele>
        <time>2022-03-09T16:15:20Z</time>
      </trkpt>
      <trkpt lat="46.6884" lon="5.49945">
        <ele>258.6</ele>
        <time>2022-03-09T16:15:21Z</time>
      </trkpt>
      <trkpt lat="46.68839" lon="5.49953">
        <ele>258.6</ele>
        <time>2022-03-09T16:15:22Z</time>
      </trkpt>
      <trkpt lat="46.68838" lon="5.49961">
        <ele>258.6</ele>
        <time>2022-03-09T16:15:23Z</time>
      </trkpt>
      <trkpt lat="46.68837" lon="5.49968">
        <ele>258.4</ele>
        <time>2022-03-09T16:15:24Z</time>
      </trkpt>
      <trkpt lat="46.68835" lon="5.49975">
        <ele>258.4</ele>
        <time>2022-03-09T16:15:25Z</time>
      </trkpt>
      <trkpt lat="46.68832" lon="5.49981">
        <ele>258.4</ele>
        <time>2022-03-09T16:15:26Z</time>
      </trkpt>
      <trkpt lat="46.68827" lon="5.49985">
        <ele>258</ele>
        <time>2022-03-09T16:15:27Z</time>
      </trkpt>
      <trkpt lat="46.68821" lon="5.49987">
        <ele>258</ele>
        <time>2022-03-09T16:15:28Z</time>
      </trkpt>
      <trkpt lat="46.68815" lon="5.49987">
        <ele>257.6</ele>
        <time>2022-03-09T16:15:29Z</time>
      </trkpt>
      <trkpt lat="46.68809" lon="5.49987">
        <ele>257.4</ele>
        <time>2022-03-09T16:15:30Z</time>
      </trkpt>
      <trkpt lat="46.68802" lon="5.49986">
        <ele>257.2</ele>
        <time>2022-03-09T16:15:31Z</time>
      </trkpt>
      <trkpt lat="46.68795" lon="5.49985">
        <ele>256.8</ele>
        <time>2022-03-09T16:15:32Z</time>
      </trkpt>
      <trkpt lat="46.68787" lon="5.49985">
        <ele>256.6</ele>
        <time>2022-03-09T16:15:33Z</time>
      </trkpt>
      <trkpt lat="46.6878" lon="5.49984">
        <ele>256.4</ele>
        <time>2022-03-09T16:15:34Z</time>
      </trkpt>
      <trkpt lat="46.68772" lon="5.49984">
        <ele>256.4</ele>
        <time>2022-03-09T16:15:35Z</time>
      </trkpt>
      <trkpt lat="46.68765" lon="5.49983">
        <ele>256.2</ele>
        <time>2022-03-09T16:15:36Z</time>
      </trkpt>
      <trkpt lat="46.68758" lon="5.49983">
        <ele>256.2</ele>
        <time>2022-03-09T16:15:37Z</time>
      </trkpt>
      <trkpt lat="46.6875" lon="5.49983">
        <ele>256.2</ele>
        <time>2022-03-09T16:15:38Z</time>
      </trkpt>
      <trkpt lat="46.68743" lon="5.49983">
        <ele>256.2</ele>
        <time>2022-03-09T16:15:39Z</time>
      </trkpt>
      <trkpt lat="46.68736" lon="5.49982">
        <ele>256.2</ele>
        <time>2022-03-09T16:15:40Z</time>
      </trkpt>
      <trkpt lat="46.68729" lon="5.49982">
        <ele>256.2</ele>
        <time>2022-03-09T16:15:41Z</time>
      </trkpt>
      <trkpt lat="46.68723" lon="5.49981">
        <ele>256.2</ele>
        <time>2022-03-09T16:15:42Z</time>
      </trkpt>
      <trkpt lat="46.68716" lon="5.49981">
        <ele>256.2</ele>
        <time>2022-03-09T16:15:43Z</time>
      </trkpt>
      <trkpt lat="46.6871" lon="5.49981">
        <ele>256.2</ele>
        <time>2022-03-09T16:15:44Z</time>
      </trkpt>
      <trkpt lat="46.68703" lon="5.4998">
        <ele>256.4</ele>
        <time>2022-03-09T16:15:45Z</time>
      </trkpt>
      <trkpt lat="46.68697" lon="5.4998">
        <ele>256.4</ele>
        <time>2022-03-09T16:15:46Z</time>
      </trkpt>
      <trkpt lat="46.68691" lon="5.49979">
        <ele>256.4</ele>
        <time>2022-03-09T16:15:47Z</time>
      </trkpt>
      <trkpt lat="46.68684" lon="5.49979">
        <ele>256.6</ele>
        <time>2022-03-09T16:15:48Z</time>
      </trkpt>
      <trkpt lat="46.68678" lon="5.49979">
        <ele>257</ele>
        <time>2022-03-09T16:15:49Z</time>
      </trkpt>
      <trkpt lat="46.68672" lon="5.49979">
        <ele>257</ele>
        <time>2022-03-09T16:15:50Z</time>
      </trkpt>
      <trkpt lat="46.68665" lon="5.49979">
        <ele>257.4</ele>
        <time>2022-03-09T16:15:51Z</time>
      </trkpt>
      <trkpt lat="46.68659" lon="5.49978">
        <ele>257.6</ele>
        <time>2022-03-09T16:15:52Z</time>
      </trkpt>
      <trkpt lat="46.68653" lon="5.49978">
        <ele>257.6</ele>
        <time>2022-03-09T16:15:53Z</time>
      </trkpt>
      <trkpt lat="46.68648" lon="5.49977">
        <ele>258</ele>
        <time>2022-03-09T16:15:54Z</time>
      </trkpt>
      <trkpt lat="46.68642" lon="5.49976">
        <ele>258.2</ele>
        <time>2022-03-09T16:15:55Z</time>
      </trkpt>
      <trkpt lat="46.68637" lon="5.49975">
        <ele>258.2</ele>
        <time>2022-03-09T16:15:56Z</time>
      </trkpt>
      <trkpt lat="46.68631" lon="5.49975">
        <ele>258.4</ele>
        <time>2022-03-09T16:15:57Z</time>
      </trkpt>
      <trkpt lat="46.68626" lon="5.49974">
        <ele>258.4</ele>
        <time>2022-03-09T16:15:58Z</time>
      </trkpt>
      <trkpt lat="46.68621" lon="5.49972">
        <ele>258.8</ele>
        <time>2022-03-09T16:15:59Z</time>
      </trkpt>
      <trkpt lat="46.68616" lon="5.49971">
        <ele>258.8</ele>
        <time>2022-03-09T16:16:00Z</time>
      </trkpt>
      <trkpt lat="46.68611" lon="5.49969">
        <ele>259.2</ele>
        <time>2022-03-09T16:16:01Z</time>
      </trkpt>
      <trkpt lat="46.68606" lon="5.49967">
        <ele>259.2</ele>
        <time>2022-03-09T16:16:02Z</time>
      </trkpt>
      <trkpt lat="46.68601" lon="5.49965">
        <ele>259.6</ele>
        <time>2022-03-09T16:16:03Z</time>
      </trkpt>
      <trkpt lat="46.68597" lon="5.49962">
        <ele>259.6</ele>
        <time>2022-03-09T16:16:04Z</time>
      </trkpt>
      <trkpt lat="46.68592" lon="5.49959">
        <ele>260</ele>
        <time>2022-03-09T16:16:05Z</time>
      </trkpt>
      <trkpt lat="46.68588" lon="5.49956">
        <ele>260</ele>
        <time>2022-03-09T16:16:06Z</time>
      </trkpt>
      <trkpt lat="46.68583" lon="5.49952">
        <ele>260.2</ele>
        <time>2022-03-09T16:16:07Z</time>
      </trkpt>
      <trkpt lat="46.68579" lon="5.49949">
        <ele>260.2</ele>
        <time>2022-03-09T16:16:08Z</time>
      </trkpt>
      <trkpt lat="46.68574" lon="5.49945">
        <ele>260.2</ele>
        <time>2022-03-09T16:16:09Z</time>
      </trkpt>
      <trkpt lat="46.6857" lon="5.4994">
        <ele>260.2</ele>
        <time>2022-03-09T16:16:10Z</time>
      </trkpt>
      <trkpt lat="46.68565" lon="5.49936">
        <ele>260.2</ele>
        <time>2022-03-09T16:16:11Z</time>
      </trkpt>
      <trkpt lat="46.68561" lon="5.49932">
        <ele>260.4</ele>
        <time>2022-03-09T16:16:12Z</time>
      </trkpt>
      <trkpt lat="46.68556" lon="5.49927">
        <ele>260.4</ele>
        <time>2022-03-09T16:16:13Z</time>
      </trkpt>
      <trkpt lat="46.68551" lon="5.49923">
        <ele>260.4</ele>
        <time>2022-03-09T16:16:14Z</time>
      </trkpt>
      <trkpt lat="46.68545" lon="5.49919">
        <ele>260.4</ele>
        <time>2022-03-09T16:16:15Z</time>
      </trkpt>
      <trkpt lat="46.6854" lon="5.49915">
        <ele>260.4</ele>
        <time>2022-03-09T16:16:16Z</time>
      </trkpt>
      <trkpt lat="46.68534" lon="5.49912">
        <ele>260.4</ele>
        <time>2022-03-09T16:16:17Z</time>
      </trkpt>
      <trkpt lat="46.68528" lon="5.49908">
        <ele>260.4</ele>
        <time>2022-03-09T16:16:18Z</time>
      </trkpt>
      <trkpt lat="46.68522" lon="5.49904">
        <ele>260.4</ele>
        <time>2022-03-09T16:16:19Z</time>
      </trkpt>
      <trkpt lat="46.68517" lon="5.49901">
        <ele>260.4</ele>
        <time>2022-03-09T16:16:20Z</time>
      </trkpt>
      <trkpt lat="46.6851" lon="5.49897">
        <ele>260.4</ele>
        <time>2022-03-09T16:16:21Z</time>
      </trkpt>
      <trkpt lat="46.68498" lon="5.4989">
        <ele>260.4</ele>
        <time>2022-03-09T16:16:22Z</time>
      </trkpt>
      <trkpt lat="46.68492" lon="5.49886">
        <ele>260.2</ele>
        <time>2022-03-09T16:16:23Z</time>
      </trkpt>
      <trkpt lat="46.68486" lon="5.49882">
        <ele>260.2</ele>
        <time>2022-03-09T16:16:24Z</time>
      </trkpt>
      <trkpt lat="46.68479" lon="5.49878">
        <ele>260.2</ele>
        <time>2022-03-09T16:16:25Z</time>
      </trkpt>
      <trkpt lat="46.68472" lon="5.49875">
        <ele>260</ele>
        <time>2022-03-09T16:16:26Z</time>
      </trkpt>
      <trkpt lat="46.68466" lon="5.49871">
        <ele>260</ele>
        <time>2022-03-09T16:16:27Z</time>
      </trkpt>
      <trkpt lat="46.68459" lon="5.49866">
        <ele>259.8</ele>
        <time>2022-03-09T16:16:28Z</time>
      </trkpt>
      <trkpt lat="46.68453" lon="5.49862">
        <ele>259.8</ele>
        <time>2022-03-09T16:16:29Z</time>
      </trkpt>
      <trkpt lat="46.68446" lon="5.49856">
        <ele>259.8</ele>
        <time>2022-03-09T16:16:30Z</time>
      </trkpt>
      <trkpt lat="46.68441" lon="5.4985">
        <ele>259.6</ele>
        <time>2022-03-09T16:16:31Z</time>
      </trkpt>
      <trkpt lat="46.68435" lon="5.49844">
        <ele>259.6</ele>
        <time>2022-03-09T16:16:32Z</time>
      </trkpt>
      <trkpt lat="46.6843" lon="5.49837">
        <ele>259.6</ele>
        <time>2022-03-09T16:16:33Z</time>
      </trkpt>
      <trkpt lat="46.68425" lon="5.49829">
        <ele>259.6</ele>
        <time>2022-03-09T16:16:34Z</time>
      </trkpt>
      <trkpt lat="46.6842" lon="5.49821">
        <ele>259.6</ele>
        <time>2022-03-09T16:16:35Z</time>
      </trkpt>
      <trkpt lat="46.68417" lon="5.49813">
        <ele>259.6</ele>
        <time>2022-03-09T16:16:36Z</time>
      </trkpt>
      <trkpt lat="46.68414" lon="5.49804">
        <ele>259.6</ele>
        <time>2022-03-09T16:16:37Z</time>
      </trkpt>
      <trkpt lat="46.68411" lon="5.49794">
        <ele>259.4</ele>
        <time>2022-03-09T16:16:38Z</time>
      </trkpt>
      <trkpt lat="46.68409" lon="5.49785">
        <ele>259.4</ele>
        <time>2022-03-09T16:16:39Z</time>
      </trkpt>
      <trkpt lat="46.68408" lon="5.49776">
        <ele>259.4</ele>
        <time>2022-03-09T16:16:40Z</time>
      </trkpt>
      <trkpt lat="46.68407" lon="5.49766">
        <ele>259.4</ele>
        <time>2022-03-09T16:16:41Z</time>
      </trkpt>
      <trkpt lat="46.68406" lon="5.49757">
        <ele>259.4</ele>
        <time>2022-03-09T16:16:42Z</time>
      </trkpt>
      <trkpt lat="46.68406" lon="5.49748">
        <ele>259.4</ele>
        <time>2022-03-09T16:16:43Z</time>
      </trkpt>
      <trkpt lat="46.68406" lon="5.49739">
        <ele>259.4</ele>
        <time>2022-03-09T16:16:44Z</time>
      </trkpt>
      <trkpt lat="46.68406" lon="5.4973">
        <ele>259.4</ele>
        <time>2022-03-09T16:16:45Z</time>
      </trkpt>
      <trkpt lat="46.68406" lon="5.4972">
        <ele>259.4</ele>
        <time>2022-03-09T16:16:46Z</time>
      </trkpt>
      <trkpt lat="46.68406" lon="5.49711">
        <ele>259.6</ele>
        <time>2022-03-09T16:16:47Z</time>
      </trkpt>
      <trkpt lat="46.68406" lon="5.49697">
        <ele>259.6</ele>
        <time>2022-03-09T16:16:48Z</time>
      </trkpt>
      <trkpt lat="46.68406" lon="5.49692">
        <ele>259.6</ele>
        <time>2022-03-09T16:16:49Z</time>
      </trkpt>
      <trkpt lat="46.68406" lon="5.49683">
        <ele>259.6</ele>
        <time>2022-03-09T16:16:50Z</time>
      </trkpt>
      <trkpt lat="46.68406" lon="5.49673">
        <ele>259.6</ele>
        <time>2022-03-09T16:16:51Z</time>
      </trkpt>
      <trkpt lat="46.68405" lon="5.49664">
        <ele>259.8</ele>
        <time>2022-03-09T16:16:52Z</time>
      </trkpt>
      <trkpt lat="46.68404" lon="5.49655">
        <ele>259.8</ele>
        <time>2022-03-09T16:16:53Z</time>
      </trkpt>
      <trkpt lat="46.68402" lon="5.49645">
        <ele>259.8</ele>
        <time>2022-03-09T16:16:54Z</time>
      </trkpt>
      <trkpt lat="46.684" lon="5.49636">
        <ele>259.8</ele>
        <time>2022-03-09T16:16:55Z</time>
      </trkpt>
      <trkpt lat="46.68398" lon="5.49628">
        <ele>259.8</ele>
        <time>2022-03-09T16:16:56Z</time>
      </trkpt>
      <trkpt lat="46.68395" lon="5.49619">
        <ele>259.8</ele>
        <time>2022-03-09T16:16:57Z</time>
      </trkpt>
      <trkpt lat="46.68392" lon="5.49611">
        <ele>259.8</ele>
        <time>2022-03-09T16:16:58Z</time>
      </trkpt>
      <trkpt lat="46.68388" lon="5.49603">
        <ele>259.8</ele>
        <time>2022-03-09T16:16:59Z</time>
      </trkpt>
      <trkpt lat="46.68388" lon="5.49603">
        <ele>259.8</ele>
        <time>2022-03-09T16:17:00Z</time>
      </trkpt>
      <trkpt lat="46.68384" lon="5.49595">
        <ele>259.6</ele>
        <time>2022-03-09T16:17:01Z</time>
      </trkpt>
      <trkpt lat="46.6838" lon="5.49588">
        <ele>259.6</ele>
        <time>2022-03-09T16:17:02Z</time>
      </trkpt>
      <trkpt lat="46.68371" lon="5.49574">
        <ele>259.6</ele>
        <time>2022-03-09T16:17:03Z</time>
      </trkpt>
      <trkpt lat="46.68366" lon="5.49568">
        <ele>259.6</ele>
        <time>2022-03-09T16:17:04Z</time>
      </trkpt>
      <trkpt lat="46.6836" lon="5.49562">
        <ele>259.6</ele>
        <time>2022-03-09T16:17:05Z</time>
      </trkpt>
      <trkpt lat="46.68354" lon="5.49558">
        <ele>259.6</ele>
        <time>2022-03-09T16:17:06Z</time>
      </trkpt>
      <trkpt lat="46.68348" lon="5.49553">
        <ele>259.4</ele>
        <time>2022-03-09T16:17:07Z</time>
      </trkpt>
      <trkpt lat="46.68341" lon="5.49549">
        <ele>259.4</ele>
        <time>2022-03-09T16:17:08Z</time>
      </trkpt>
      <trkpt lat="46.68335" lon="5.49545">
        <ele>259.4</ele>
        <time>2022-03-09T16:17:09Z</time>
      </trkpt>
      <trkpt lat="46.68328" lon="5.49541">
        <ele>259</ele>
        <time>2022-03-09T16:17:10Z</time>
      </trkpt>
      <trkpt lat="46.68321" lon="5.49537">
        <ele>259</ele>
        <time>2022-03-09T16:17:11Z</time>
      </trkpt>
      <trkpt lat="46.68314" lon="5.49533">
        <ele>258.8</ele>
        <time>2022-03-09T16:17:12Z</time>
      </trkpt>
      <trkpt lat="46.68307" lon="5.49529">
        <ele>258.8</ele>
        <time>2022-03-09T16:17:13Z</time>
      </trkpt>
      <trkpt lat="46.68299" lon="5.49525">
        <ele>258.6</ele>
        <time>2022-03-09T16:17:14Z</time>
      </trkpt>
      <trkpt lat="46.68292" lon="5.4952">
        <ele>258.6</ele>
        <time>2022-03-09T16:17:15Z</time>
      </trkpt>
      <trkpt lat="46.68285" lon="5.49516">
        <ele>258.4</ele>
        <time>2022-03-09T16:17:16Z</time>
      </trkpt>
      <trkpt lat="46.68278" lon="5.49512">
        <ele>258.4</ele>
        <time>2022-03-09T16:17:17Z</time>
      </trkpt>
      <trkpt lat="46.68271" lon="5.49508">
        <ele>258.2</ele>
        <time>2022-03-09T16:17:18Z</time>
      </trkpt>
      <trkpt lat="46.68264" lon="5.49504">
        <ele>258.2</ele>
        <time>2022-03-09T16:17:19Z</time>
      </trkpt>
      <trkpt lat="46.68256" lon="5.495">
        <ele>258</ele>
        <time>2022-03-09T16:17:20Z</time>
      </trkpt>
      <trkpt lat="46.68249" lon="5.49496">
        <ele>258</ele>
        <time>2022-03-09T16:17:21Z</time>
      </trkpt>
      <trkpt lat="46.68242" lon="5.49492">
        <ele>258</ele>
        <time>2022-03-09T16:17:22Z</time>
      </trkpt>
      <trkpt lat="46.68234" lon="5.49488">
        <ele>257.6</ele>
        <time>2022-03-09T16:17:23Z</time>
      </trkpt>
      <trkpt lat="46.68227" lon="5.49484">
        <ele>257.6</ele>
        <time>2022-03-09T16:17:24Z</time>
      </trkpt>
      <trkpt lat="46.6822" lon="5.49479">
        <ele>257.6</ele>
        <time>2022-03-09T16:17:25Z</time>
      </trkpt>
      <trkpt lat="46.68213" lon="5.49475">
        <ele>257.4</ele>
        <time>2022-03-09T16:17:26Z</time>
      </trkpt>
      <trkpt lat="46.68206" lon="5.4947">
        <ele>257.4</ele>
        <time>2022-03-09T16:17:27Z</time>
      </trkpt>
      <trkpt lat="46.68199" lon="5.49465">
        <ele>257.4</ele>
        <time>2022-03-09T16:17:28Z</time>
      </trkpt>
      <trkpt lat="46.68193" lon="5.4946">
        <ele>257.4</ele>
        <time>2022-03-09T16:17:29Z</time>
      </trkpt>
      <trkpt lat="46.68186" lon="5.49455">
        <ele>257.4</ele>
        <time>2022-03-09T16:17:30Z</time>
      </trkpt>
      <trkpt lat="46.6818" lon="5.49449">
        <ele>257.2</ele>
        <time>2022-03-09T16:17:31Z</time>
      </trkpt>
      <trkpt lat="46.68175" lon="5.49442">
        <ele>257.2</ele>
        <time>2022-03-09T16:17:32Z</time>
      </trkpt>
      <trkpt lat="46.68169" lon="5.49436">
        <ele>257.2</ele>
        <time>2022-03-09T16:17:33Z</time>
      </trkpt>
      <trkpt lat="46.68164" lon="5.4943">
        <ele>257.2</ele>
        <time>2022-03-09T16:17:34Z</time>
      </trkpt>
      <trkpt lat="46.68158" lon="5.49424">
        <ele>257.2</ele>
        <time>2022-03-09T16:17:35Z</time>
      </trkpt>
      <trkpt lat="46.68153" lon="5.49418">
        <ele>257.2</ele>
        <time>2022-03-09T16:17:36Z</time>
      </trkpt>
      <trkpt lat="46.68147" lon="5.49414">
        <ele>257.4</ele>
        <time>2022-03-09T16:17:37Z</time>
      </trkpt>
      <trkpt lat="46.68141" lon="5.49409">
        <ele>257.4</ele>
        <time>2022-03-09T16:17:38Z</time>
      </trkpt>
      <trkpt lat="46.68135" lon="5.49406">
        <ele>257.4</ele>
        <time>2022-03-09T16:17:39Z</time>
      </trkpt>
      <trkpt lat="46.68129" lon="5.49403">
        <ele>257.4</ele>
        <time>2022-03-09T16:17:40Z</time>
      </trkpt>
      <trkpt lat="46.68123" lon="5.49401">
        <ele>257.4</ele>
        <time>2022-03-09T16:17:41Z</time>
      </trkpt>
      <trkpt lat="46.68117" lon="5.49399">
        <ele>257.6</ele>
        <time>2022-03-09T16:17:42Z</time>
      </trkpt>
      <trkpt lat="46.6811" lon="5.49399">
        <ele>257.6</ele>
        <time>2022-03-09T16:17:43Z</time>
      </trkpt>
      <trkpt lat="46.68104" lon="5.49399">
        <ele>257.6</ele>
        <time>2022-03-09T16:17:44Z</time>
      </trkpt>
      <trkpt lat="46.68098" lon="5.49398">
        <ele>257.6</ele>
        <time>2022-03-09T16:17:45Z</time>
      </trkpt>
      <trkpt lat="46.68091" lon="5.49398">
        <ele>258</ele>
        <time>2022-03-09T16:17:46Z</time>
      </trkpt>
      <trkpt lat="46.68085" lon="5.49398">
        <ele>258</ele>
        <time>2022-03-09T16:17:47Z</time>
      </trkpt>
      <trkpt lat="46.68079" lon="5.49398">
        <ele>258</ele>
        <time>2022-03-09T16:17:48Z</time>
      </trkpt>
      <trkpt lat="46.68072" lon="5.49397">
        <ele>258</ele>
        <time>2022-03-09T16:17:49Z</time>
      </trkpt>
      <trkpt lat="46.68066" lon="5.49397">
        <ele>258</ele>
        <time>2022-03-09T16:17:50Z</time>
      </trkpt>
      <trkpt lat="46.6806" lon="5.49397">
        <ele>258.2</ele>
        <time>2022-03-09T16:17:51Z</time>
      </trkpt>
      <trkpt lat="46.68054" lon="5.49398">
        <ele>258.2</ele>
        <time>2022-03-09T16:17:52Z</time>
      </trkpt>
      <trkpt lat="46.68048" lon="5.49398">
        <ele>258.2</ele>
        <time>2022-03-09T16:17:53Z</time>
      </trkpt>
      <trkpt lat="46.68042" lon="5.49398">
        <ele>258.2</ele>
        <time>2022-03-09T16:17:54Z</time>
      </trkpt>
      <trkpt lat="46.68035" lon="5.49398">
        <ele>258.2</ele>
        <time>2022-03-09T16:17:55Z</time>
      </trkpt>
      <trkpt lat="46.68029" lon="5.49398">
        <ele>258.2</ele>
        <time>2022-03-09T16:17:56Z</time>
      </trkpt>
      <trkpt lat="46.68024" lon="5.49397">
        <ele>258.2</ele>
        <time>2022-03-09T16:17:57Z</time>
      </trkpt>
      <trkpt lat="46.68018" lon="5.49397">
        <ele>258.2</ele>
        <time>2022-03-09T16:17:58Z</time>
      </trkpt>
      <trkpt lat="46.68013" lon="5.49396">
        <ele>257.8</ele>
        <time>2022-03-09T16:17:59Z</time>
      </trkpt>
      <trkpt lat="46.68008" lon="5.49396">
        <ele>257.8</ele>
        <time>2022-03-09T16:18:00Z</time>
      </trkpt>
    </trkseg>
  </trk>
</gpx>